<?xml version="1.0" encoding="UTF-8" standalone="no" ?>
<gpx xmlns="http://www.topografix.com/GPX/1/1" xmlns:xsi="http://www.w3.org/2001/XMLSchema-instance" xsi:schemaLocation="http://www.topografix.com/GPX/1/1 http://www.topografix.com/GPX/1/1/gpx.xsd" version="1.1" creator="VisuGPX - https://www.visugpx.com">
  <metadata>
    <name>Les terres rouges avec Bikette et JM</name>
    <desc><![CDATA[
Juste superbe! Une montée pas trop difficile par route, puis piste puis sentier de pâturage. Puis une descente qui ne descend jamais véritablement dans un paysage grandiose. Amateur de singles, dévers, marches et autres, c'est pour vous!]]></desc>
  </metadata>
  <trk>
    <name><![CDATA[Les terres rouges avec Bikette et JM]]></name>
    <trkseg>
      <trkpt lat="44.08967" lon="6.85074">
        <ele>802.8</ele>
        <time>2019-07-16T04:55:46Z</time>
      </trkpt>
      <trkpt lat="44.08963" lon="6.85079">
        <ele>802.7</ele>
        <time>2019-07-16T04:56:14Z</time>
      </trkpt>
      <trkpt lat="44.08961" lon="6.85082">
        <ele>802.6</ele>
        <time>2019-07-16T04:56:31Z</time>
      </trkpt>
      <trkpt lat="44.08962" lon="6.85087">
        <ele>802.5</ele>
        <time>2019-07-16T04:56:55Z</time>
      </trkpt>
      <trkpt lat="44.08962" lon="6.85095">
        <ele>802.4</ele>
        <time>2019-07-16T04:58:50Z</time>
      </trkpt>
      <trkpt lat="44.08964" lon="6.85093">
        <ele>802.4</ele>
        <time>2019-07-16T04:59:00Z</time>
      </trkpt>
      <trkpt lat="44.08965" lon="6.85096">
        <ele>802.3</ele>
        <time>2019-07-16T04:59:51Z</time>
      </trkpt>
      <trkpt lat="44.08963" lon="6.85099">
        <ele>802.3</ele>
        <time>2019-07-16T05:01:23Z</time>
      </trkpt>
      <trkpt lat="44.08963" lon="6.85092">
        <ele>802.2</ele>
        <time>2019-07-16T05:03:40Z</time>
      </trkpt>
      <trkpt lat="44.08966" lon="6.85093">
        <ele>802.1</ele>
        <time>2019-07-16T05:04:44Z</time>
      </trkpt>
      <trkpt lat="44.08969" lon="6.85093">
        <ele>802.1</ele>
        <time>2019-07-16T05:04:46Z</time>
      </trkpt>
      <trkpt lat="44.08972" lon="6.85092">
        <ele>802</ele>
        <time>2019-07-16T05:04:48Z</time>
      </trkpt>
      <trkpt lat="44.08975" lon="6.8509">
        <ele>802</ele>
        <time>2019-07-16T05:04:51Z</time>
      </trkpt>
      <trkpt lat="44.08978" lon="6.85088">
        <ele>801.9</ele>
        <time>2019-07-16T05:04:53Z</time>
      </trkpt>
      <trkpt lat="44.0898" lon="6.85087">
        <ele>801.9</ele>
        <time>2019-07-16T05:04:58Z</time>
      </trkpt>
      <trkpt lat="44.08983" lon="6.85086">
        <ele>801.8</ele>
        <time>2019-07-16T05:05:02Z</time>
      </trkpt>
      <trkpt lat="44.08986" lon="6.85083">
        <ele>801.7</ele>
        <time>2019-07-16T05:05:05Z</time>
      </trkpt>
      <trkpt lat="44.08989" lon="6.8508">
        <ele>801.6</ele>
        <time>2019-07-16T05:05:07Z</time>
      </trkpt>
      <trkpt lat="44.08993" lon="6.85077">
        <ele>801.4</ele>
        <time>2019-07-16T05:05:09Z</time>
      </trkpt>
      <trkpt lat="44.08999" lon="6.85076">
        <ele>801.3</ele>
        <time>2019-07-16T05:05:11Z</time>
      </trkpt>
      <trkpt lat="44.09002" lon="6.85075">
        <ele>801.2</ele>
        <time>2019-07-16T05:05:12Z</time>
      </trkpt>
      <trkpt lat="44.09005" lon="6.85075">
        <ele>801.1</ele>
        <time>2019-07-16T05:05:13Z</time>
      </trkpt>
      <trkpt lat="44.09009" lon="6.85074">
        <ele>801</ele>
        <time>2019-07-16T05:05:14Z</time>
      </trkpt>
      <trkpt lat="44.09012" lon="6.85073">
        <ele>800.9</ele>
        <time>2019-07-16T05:05:15Z</time>
      </trkpt>
      <trkpt lat="44.09016" lon="6.85072">
        <ele>800.8</ele>
        <time>2019-07-16T05:05:16Z</time>
      </trkpt>
      <trkpt lat="44.09019" lon="6.85071">
        <ele>800.7</ele>
        <time>2019-07-16T05:05:17Z</time>
      </trkpt>
      <trkpt lat="44.09023" lon="6.85069">
        <ele>800.6</ele>
        <time>2019-07-16T05:05:19Z</time>
      </trkpt>
      <trkpt lat="44.09026" lon="6.85067">
        <ele>800.5</ele>
        <time>2019-07-16T05:05:21Z</time>
      </trkpt>
      <trkpt lat="44.09024" lon="6.85064">
        <ele>800.4</ele>
        <time>2019-07-16T05:05:27Z</time>
      </trkpt>
      <trkpt lat="44.0902" lon="6.85065">
        <ele>800.3</ele>
        <time>2019-07-16T05:05:29Z</time>
      </trkpt>
      <trkpt lat="44.09016" lon="6.85068">
        <ele>800.2</ele>
        <time>2019-07-16T05:05:31Z</time>
      </trkpt>
      <trkpt lat="44.09012" lon="6.85069">
        <ele>800.1</ele>
        <time>2019-07-16T05:05:33Z</time>
      </trkpt>
      <trkpt lat="44.09009" lon="6.85071">
        <ele>800</ele>
        <time>2019-07-16T05:05:35Z</time>
      </trkpt>
      <trkpt lat="44.09007" lon="6.85073">
        <ele>800</ele>
        <time>2019-07-16T05:05:38Z</time>
      </trkpt>
      <trkpt lat="44.09005" lon="6.85077">
        <ele>799.9</ele>
        <time>2019-07-16T05:05:45Z</time>
      </trkpt>
      <trkpt lat="44.09009" lon="6.85077">
        <ele>799.9</ele>
        <time>2019-07-16T05:05:47Z</time>
      </trkpt>
      <trkpt lat="44.09013" lon="6.85076">
        <ele>799.8</ele>
        <time>2019-07-16T05:05:49Z</time>
      </trkpt>
      <trkpt lat="44.09018" lon="6.85075">
        <ele>799.7</ele>
        <time>2019-07-16T05:05:51Z</time>
      </trkpt>
      <trkpt lat="44.09022" lon="6.85073">
        <ele>799.6</ele>
        <time>2019-07-16T05:05:53Z</time>
      </trkpt>
      <trkpt lat="44.09018" lon="6.85075">
        <ele>799.5</ele>
        <time>2019-07-16T05:06:00Z</time>
      </trkpt>
      <trkpt lat="44.09016" lon="6.85077">
        <ele>799.5</ele>
        <time>2019-07-16T05:06:01Z</time>
      </trkpt>
      <trkpt lat="44.09013" lon="6.85079">
        <ele>799.4</ele>
        <time>2019-07-16T05:06:02Z</time>
      </trkpt>
      <trkpt lat="44.09009" lon="6.85082">
        <ele>799.3</ele>
        <time>2019-07-16T05:06:03Z</time>
      </trkpt>
      <trkpt lat="44.09007" lon="6.85084">
        <ele>799.3</ele>
        <time>2019-07-16T05:06:04Z</time>
      </trkpt>
      <trkpt lat="44.09004" lon="6.85087">
        <ele>799.2</ele>
        <time>2019-07-16T05:06:05Z</time>
      </trkpt>
      <trkpt lat="44.09001" lon="6.85089">
        <ele>799.2</ele>
        <time>2019-07-16T05:06:06Z</time>
      </trkpt>
      <trkpt lat="44.08998" lon="6.85091">
        <ele>799.1</ele>
        <time>2019-07-16T05:06:07Z</time>
      </trkpt>
      <trkpt lat="44.08994" lon="6.85093">
        <ele>799.1</ele>
        <time>2019-07-16T05:06:09Z</time>
      </trkpt>
      <trkpt lat="44.08989" lon="6.85096">
        <ele>799</ele>
        <time>2019-07-16T05:06:11Z</time>
      </trkpt>
      <trkpt lat="44.08984" lon="6.85096">
        <ele>798.9</ele>
        <time>2019-07-16T05:06:13Z</time>
      </trkpt>
      <trkpt lat="44.08979" lon="6.85094">
        <ele>798.8</ele>
        <time>2019-07-16T05:06:15Z</time>
      </trkpt>
      <trkpt lat="44.08973" lon="6.85094">
        <ele>798.7</ele>
        <time>2019-07-16T05:06:17Z</time>
      </trkpt>
      <trkpt lat="44.0897" lon="6.85096">
        <ele>798.6</ele>
        <time>2019-07-16T05:06:18Z</time>
      </trkpt>
      <trkpt lat="44.08965" lon="6.851">
        <ele>798.5</ele>
        <time>2019-07-16T05:06:19Z</time>
      </trkpt>
      <trkpt lat="44.08963" lon="6.85104">
        <ele>798.4</ele>
        <time>2019-07-16T05:06:20Z</time>
      </trkpt>
      <trkpt lat="44.08963" lon="6.85108">
        <ele>798.4</ele>
        <time>2019-07-16T05:06:21Z</time>
      </trkpt>
      <trkpt lat="44.08963" lon="6.85113">
        <ele>798.3</ele>
        <time>2019-07-16T05:06:22Z</time>
      </trkpt>
      <trkpt lat="44.08964" lon="6.85119">
        <ele>798.2</ele>
        <time>2019-07-16T05:06:23Z</time>
      </trkpt>
      <trkpt lat="44.08966" lon="6.85124">
        <ele>798.1</ele>
        <time>2019-07-16T05:06:24Z</time>
      </trkpt>
      <trkpt lat="44.0897" lon="6.85127">
        <ele>798</ele>
        <time>2019-07-16T05:06:25Z</time>
      </trkpt>
      <trkpt lat="44.08974" lon="6.8513">
        <ele>797.8</ele>
        <time>2019-07-16T05:06:26Z</time>
      </trkpt>
      <trkpt lat="44.08978" lon="6.85132">
        <ele>797.6</ele>
        <time>2019-07-16T05:06:27Z</time>
      </trkpt>
      <trkpt lat="44.08984" lon="6.85136">
        <ele>797.4</ele>
        <time>2019-07-16T05:06:28Z</time>
      </trkpt>
      <trkpt lat="44.08988" lon="6.85138">
        <ele>797.2</ele>
        <time>2019-07-16T05:06:29Z</time>
      </trkpt>
      <trkpt lat="44.08992" lon="6.85138">
        <ele>796.9</ele>
        <time>2019-07-16T05:06:30Z</time>
      </trkpt>
      <trkpt lat="44.08997" lon="6.85137">
        <ele>796.6</ele>
        <time>2019-07-16T05:06:31Z</time>
      </trkpt>
      <trkpt lat="44.09001" lon="6.85135">
        <ele>796.4</ele>
        <time>2019-07-16T05:06:32Z</time>
      </trkpt>
      <trkpt lat="44.09004" lon="6.85133">
        <ele>796.2</ele>
        <time>2019-07-16T05:06:33Z</time>
      </trkpt>
      <trkpt lat="44.09008" lon="6.85129">
        <ele>795.9</ele>
        <time>2019-07-16T05:06:34Z</time>
      </trkpt>
      <trkpt lat="44.09012" lon="6.85126">
        <ele>795.6</ele>
        <time>2019-07-16T05:06:35Z</time>
      </trkpt>
      <trkpt lat="44.09016" lon="6.85123">
        <ele>795.3</ele>
        <time>2019-07-16T05:06:36Z</time>
      </trkpt>
      <trkpt lat="44.0902" lon="6.85122">
        <ele>795</ele>
        <time>2019-07-16T05:06:37Z</time>
      </trkpt>
      <trkpt lat="44.09025" lon="6.85121">
        <ele>794.7</ele>
        <time>2019-07-16T05:06:38Z</time>
      </trkpt>
      <trkpt lat="44.09029" lon="6.8512">
        <ele>794.4</ele>
        <time>2019-07-16T05:06:39Z</time>
      </trkpt>
      <trkpt lat="44.09034" lon="6.8512">
        <ele>794</ele>
        <time>2019-07-16T05:06:40Z</time>
      </trkpt>
      <trkpt lat="44.09038" lon="6.85117">
        <ele>793.8</ele>
        <time>2019-07-16T05:06:41Z</time>
      </trkpt>
      <trkpt lat="44.09042" lon="6.85114">
        <ele>793.6</ele>
        <time>2019-07-16T05:06:42Z</time>
      </trkpt>
      <trkpt lat="44.09046" lon="6.85111">
        <ele>793.3</ele>
        <time>2019-07-16T05:06:43Z</time>
      </trkpt>
      <trkpt lat="44.0905" lon="6.85109">
        <ele>793.1</ele>
        <time>2019-07-16T05:06:44Z</time>
      </trkpt>
      <trkpt lat="44.09054" lon="6.85106">
        <ele>792.9</ele>
        <time>2019-07-16T05:06:45Z</time>
      </trkpt>
      <trkpt lat="44.0906" lon="6.85102">
        <ele>792.5</ele>
        <time>2019-07-16T05:06:46Z</time>
      </trkpt>
      <trkpt lat="44.09065" lon="6.85099">
        <ele>792.2</ele>
        <time>2019-07-16T05:06:47Z</time>
      </trkpt>
      <trkpt lat="44.0907" lon="6.85097">
        <ele>791.8</ele>
        <time>2019-07-16T05:06:48Z</time>
      </trkpt>
      <trkpt lat="44.09076" lon="6.85094">
        <ele>791.4</ele>
        <time>2019-07-16T05:06:49Z</time>
      </trkpt>
      <trkpt lat="44.09081" lon="6.85092">
        <ele>791.1</ele>
        <time>2019-07-16T05:06:50Z</time>
      </trkpt>
      <trkpt lat="44.09087" lon="6.85093">
        <ele>790.9</ele>
        <time>2019-07-16T05:06:51Z</time>
      </trkpt>
      <trkpt lat="44.09093" lon="6.85097">
        <ele>790.6</ele>
        <time>2019-07-16T05:06:52Z</time>
      </trkpt>
      <trkpt lat="44.09096" lon="6.85101">
        <ele>790.4</ele>
        <time>2019-07-16T05:06:53Z</time>
      </trkpt>
      <trkpt lat="44.09098" lon="6.85107">
        <ele>790.3</ele>
        <time>2019-07-16T05:06:54Z</time>
      </trkpt>
      <trkpt lat="44.09099" lon="6.85113">
        <ele>790.1</ele>
        <time>2019-07-16T05:06:55Z</time>
      </trkpt>
      <trkpt lat="44.09098" lon="6.85119">
        <ele>789.9</ele>
        <time>2019-07-16T05:06:56Z</time>
      </trkpt>
      <trkpt lat="44.09095" lon="6.85124">
        <ele>789.6</ele>
        <time>2019-07-16T05:06:57Z</time>
      </trkpt>
      <trkpt lat="44.09092" lon="6.85128">
        <ele>789</ele>
        <time>2019-07-16T05:06:58Z</time>
      </trkpt>
      <trkpt lat="44.09087" lon="6.8513">
        <ele>788.8</ele>
        <time>2019-07-16T05:06:59Z</time>
      </trkpt>
      <trkpt lat="44.09082" lon="6.85129">
        <ele>788.7</ele>
        <time>2019-07-16T05:07:00Z</time>
      </trkpt>
      <trkpt lat="44.09077" lon="6.85131">
        <ele>788.7</ele>
        <time>2019-07-16T05:07:01Z</time>
      </trkpt>
      <trkpt lat="44.09073" lon="6.85132">
        <ele>788.6</ele>
        <time>2019-07-16T05:07:02Z</time>
      </trkpt>
      <trkpt lat="44.09068" lon="6.85133">
        <ele>788.5</ele>
        <time>2019-07-16T05:07:03Z</time>
      </trkpt>
      <trkpt lat="44.09064" lon="6.85134">
        <ele>788.4</ele>
        <time>2019-07-16T05:07:04Z</time>
      </trkpt>
      <trkpt lat="44.0906" lon="6.85136">
        <ele>788.3</ele>
        <time>2019-07-16T05:07:05Z</time>
      </trkpt>
      <trkpt lat="44.09056" lon="6.85139">
        <ele>788.2</ele>
        <time>2019-07-16T05:07:06Z</time>
      </trkpt>
      <trkpt lat="44.09052" lon="6.85142">
        <ele>788.1</ele>
        <time>2019-07-16T05:07:07Z</time>
      </trkpt>
      <trkpt lat="44.09048" lon="6.85144">
        <ele>788</ele>
        <time>2019-07-16T05:07:08Z</time>
      </trkpt>
      <trkpt lat="44.09045" lon="6.85146">
        <ele>787.9</ele>
        <time>2019-07-16T05:07:09Z</time>
      </trkpt>
      <trkpt lat="44.09042" lon="6.85148">
        <ele>787.9</ele>
        <time>2019-07-16T05:07:10Z</time>
      </trkpt>
      <trkpt lat="44.09038" lon="6.85149">
        <ele>787.8</ele>
        <time>2019-07-16T05:07:12Z</time>
      </trkpt>
      <trkpt lat="44.09034" lon="6.85151">
        <ele>787.7</ele>
        <time>2019-07-16T05:07:14Z</time>
      </trkpt>
      <trkpt lat="44.09031" lon="6.85152">
        <ele>787.6</ele>
        <time>2019-07-16T05:07:15Z</time>
      </trkpt>
      <trkpt lat="44.09027" lon="6.85154">
        <ele>787.4</ele>
        <time>2019-07-16T05:07:16Z</time>
      </trkpt>
      <trkpt lat="44.09024" lon="6.85156">
        <ele>787.1</ele>
        <time>2019-07-16T05:07:17Z</time>
      </trkpt>
      <trkpt lat="44.0902" lon="6.8516">
        <ele>786.8</ele>
        <time>2019-07-16T05:07:18Z</time>
      </trkpt>
      <trkpt lat="44.09016" lon="6.85162">
        <ele>786.3</ele>
        <time>2019-07-16T05:07:19Z</time>
      </trkpt>
      <trkpt lat="44.09011" lon="6.85164">
        <ele>785.8</ele>
        <time>2019-07-16T05:07:20Z</time>
      </trkpt>
      <trkpt lat="44.09008" lon="6.85166">
        <ele>785.8</ele>
        <time>2019-07-16T05:07:21Z</time>
      </trkpt>
      <trkpt lat="44.09006" lon="6.8517">
        <ele>785.7</ele>
        <time>2019-07-16T05:07:22Z</time>
      </trkpt>
      <trkpt lat="44.09006" lon="6.85174">
        <ele>785.7</ele>
        <time>2019-07-16T05:07:23Z</time>
      </trkpt>
      <trkpt lat="44.09007" lon="6.8518">
        <ele>785.5</ele>
        <time>2019-07-16T05:07:24Z</time>
      </trkpt>
      <trkpt lat="44.09007" lon="6.85185">
        <ele>785.7</ele>
        <time>2019-07-16T05:07:25Z</time>
      </trkpt>
      <trkpt lat="44.09008" lon="6.85189">
        <ele>785.9</ele>
        <time>2019-07-16T05:07:26Z</time>
      </trkpt>
      <trkpt lat="44.09008" lon="6.85195">
        <ele>786.1</ele>
        <time>2019-07-16T05:07:27Z</time>
      </trkpt>
      <trkpt lat="44.09008" lon="6.852">
        <ele>786.3</ele>
        <time>2019-07-16T05:07:28Z</time>
      </trkpt>
      <trkpt lat="44.09009" lon="6.85204">
        <ele>786.4</ele>
        <time>2019-07-16T05:07:29Z</time>
      </trkpt>
      <trkpt lat="44.0901" lon="6.85209">
        <ele>786.6</ele>
        <time>2019-07-16T05:07:30Z</time>
      </trkpt>
      <trkpt lat="44.09011" lon="6.85214">
        <ele>786.8</ele>
        <time>2019-07-16T05:07:31Z</time>
      </trkpt>
      <trkpt lat="44.09012" lon="6.8522">
        <ele>787</ele>
        <time>2019-07-16T05:07:32Z</time>
      </trkpt>
      <trkpt lat="44.09013" lon="6.85225">
        <ele>787.6</ele>
        <time>2019-07-16T05:07:33Z</time>
      </trkpt>
      <trkpt lat="44.09015" lon="6.85231">
        <ele>787.7</ele>
        <time>2019-07-16T05:07:34Z</time>
      </trkpt>
      <trkpt lat="44.09016" lon="6.85235">
        <ele>787.8</ele>
        <time>2019-07-16T05:07:35Z</time>
      </trkpt>
      <trkpt lat="44.09017" lon="6.8524">
        <ele>787.8</ele>
        <time>2019-07-16T05:07:36Z</time>
      </trkpt>
      <trkpt lat="44.09018" lon="6.85246">
        <ele>787.9</ele>
        <time>2019-07-16T05:07:37Z</time>
      </trkpt>
      <trkpt lat="44.09019" lon="6.85251">
        <ele>788</ele>
        <time>2019-07-16T05:07:38Z</time>
      </trkpt>
      <trkpt lat="44.09019" lon="6.85256">
        <ele>788.1</ele>
        <time>2019-07-16T05:07:39Z</time>
      </trkpt>
      <trkpt lat="44.0902" lon="6.8526">
        <ele>788.2</ele>
        <time>2019-07-16T05:07:40Z</time>
      </trkpt>
      <trkpt lat="44.0902" lon="6.85265">
        <ele>788.2</ele>
        <time>2019-07-16T05:07:41Z</time>
      </trkpt>
      <trkpt lat="44.0902" lon="6.85269">
        <ele>788.3</ele>
        <time>2019-07-16T05:07:42Z</time>
      </trkpt>
      <trkpt lat="44.09021" lon="6.85274">
        <ele>788.4</ele>
        <time>2019-07-16T05:07:43Z</time>
      </trkpt>
      <trkpt lat="44.09021" lon="6.85278">
        <ele>788.5</ele>
        <time>2019-07-16T05:07:44Z</time>
      </trkpt>
      <trkpt lat="44.09022" lon="6.85282">
        <ele>788.5</ele>
        <time>2019-07-16T05:07:45Z</time>
      </trkpt>
      <trkpt lat="44.09023" lon="6.85287">
        <ele>788.6</ele>
        <time>2019-07-16T05:07:46Z</time>
      </trkpt>
      <trkpt lat="44.09023" lon="6.85291">
        <ele>788.7</ele>
        <time>2019-07-16T05:07:47Z</time>
      </trkpt>
      <trkpt lat="44.09024" lon="6.85295">
        <ele>788.7</ele>
        <time>2019-07-16T05:07:48Z</time>
      </trkpt>
      <trkpt lat="44.09025" lon="6.85302">
        <ele>788.8</ele>
        <time>2019-07-16T05:07:50Z</time>
      </trkpt>
      <trkpt lat="44.09026" lon="6.85308">
        <ele>788.8</ele>
        <time>2019-07-16T05:07:52Z</time>
      </trkpt>
      <trkpt lat="44.09027" lon="6.85312">
        <ele>788.9</ele>
        <time>2019-07-16T05:07:53Z</time>
      </trkpt>
      <trkpt lat="44.09027" lon="6.85316">
        <ele>788.9</ele>
        <time>2019-07-16T05:07:54Z</time>
      </trkpt>
      <trkpt lat="44.09026" lon="6.85322">
        <ele>788.9</ele>
        <time>2019-07-16T05:07:56Z</time>
      </trkpt>
      <trkpt lat="44.09022" lon="6.85324">
        <ele>791.1</ele>
        <time>2019-07-16T05:07:58Z</time>
      </trkpt>
      <trkpt lat="44.09018" lon="6.85325">
        <ele>791.4</ele>
        <time>2019-07-16T05:08:00Z</time>
      </trkpt>
      <trkpt lat="44.09013" lon="6.85326">
        <ele>791.8</ele>
        <time>2019-07-16T05:08:02Z</time>
      </trkpt>
      <trkpt lat="44.0901" lon="6.85326">
        <ele>792</ele>
        <time>2019-07-16T05:08:03Z</time>
      </trkpt>
      <trkpt lat="44.09007" lon="6.85327">
        <ele>792.3</ele>
        <time>2019-07-16T05:08:04Z</time>
      </trkpt>
      <trkpt lat="44.09004" lon="6.85327">
        <ele>792.5</ele>
        <time>2019-07-16T05:08:05Z</time>
      </trkpt>
      <trkpt lat="44.09001" lon="6.85327">
        <ele>792.8</ele>
        <time>2019-07-16T05:08:06Z</time>
      </trkpt>
      <trkpt lat="44.08998" lon="6.85328">
        <ele>793</ele>
        <time>2019-07-16T05:08:07Z</time>
      </trkpt>
      <trkpt lat="44.08995" lon="6.85329">
        <ele>793.2</ele>
        <time>2019-07-16T05:08:08Z</time>
      </trkpt>
      <trkpt lat="44.08992" lon="6.8533">
        <ele>793.5</ele>
        <time>2019-07-16T05:08:09Z</time>
      </trkpt>
      <trkpt lat="44.08989" lon="6.8533">
        <ele>793.7</ele>
        <time>2019-07-16T05:08:10Z</time>
      </trkpt>
      <trkpt lat="44.08986" lon="6.85331">
        <ele>794.1</ele>
        <time>2019-07-16T05:08:11Z</time>
      </trkpt>
      <trkpt lat="44.08981" lon="6.85331">
        <ele>794.3</ele>
        <time>2019-07-16T05:08:13Z</time>
      </trkpt>
      <trkpt lat="44.08976" lon="6.85332">
        <ele>794.4</ele>
        <time>2019-07-16T05:08:15Z</time>
      </trkpt>
      <trkpt lat="44.08973" lon="6.85332">
        <ele>794.5</ele>
        <time>2019-07-16T05:08:16Z</time>
      </trkpt>
      <trkpt lat="44.08967" lon="6.85333">
        <ele>794.6</ele>
        <time>2019-07-16T05:08:18Z</time>
      </trkpt>
      <trkpt lat="44.08964" lon="6.85334">
        <ele>794.7</ele>
        <time>2019-07-16T05:08:19Z</time>
      </trkpt>
      <trkpt lat="44.08958" lon="6.85335">
        <ele>795</ele>
        <time>2019-07-16T05:08:21Z</time>
      </trkpt>
      <trkpt lat="44.08955" lon="6.85337">
        <ele>795.2</ele>
        <time>2019-07-16T05:08:22Z</time>
      </trkpt>
      <trkpt lat="44.08952" lon="6.85338">
        <ele>795.5</ele>
        <time>2019-07-16T05:08:23Z</time>
      </trkpt>
      <trkpt lat="44.08949" lon="6.85339">
        <ele>795.5</ele>
        <time>2019-07-16T05:08:24Z</time>
      </trkpt>
      <trkpt lat="44.08946" lon="6.85341">
        <ele>795.5</ele>
        <time>2019-07-16T05:08:25Z</time>
      </trkpt>
      <trkpt lat="44.08943" lon="6.85342">
        <ele>795.4</ele>
        <time>2019-07-16T05:08:26Z</time>
      </trkpt>
      <trkpt lat="44.0894" lon="6.85343">
        <ele>795.4</ele>
        <time>2019-07-16T05:08:27Z</time>
      </trkpt>
      <trkpt lat="44.08938" lon="6.85343">
        <ele>795.3</ele>
        <time>2019-07-16T05:08:28Z</time>
      </trkpt>
      <trkpt lat="44.08935" lon="6.85344">
        <ele>795.3</ele>
        <time>2019-07-16T05:08:29Z</time>
      </trkpt>
      <trkpt lat="44.08932" lon="6.85344">
        <ele>795.2</ele>
        <time>2019-07-16T05:08:30Z</time>
      </trkpt>
      <trkpt lat="44.08929" lon="6.85345">
        <ele>795.2</ele>
        <time>2019-07-16T05:08:31Z</time>
      </trkpt>
      <trkpt lat="44.08926" lon="6.85344">
        <ele>795.1</ele>
        <time>2019-07-16T05:08:32Z</time>
      </trkpt>
      <trkpt lat="44.08923" lon="6.85345">
        <ele>795.1</ele>
        <time>2019-07-16T05:08:33Z</time>
      </trkpt>
      <trkpt lat="44.0892" lon="6.85346">
        <ele>795</ele>
        <time>2019-07-16T05:08:34Z</time>
      </trkpt>
      <trkpt lat="44.08915" lon="6.85346">
        <ele>794.7</ele>
        <time>2019-07-16T05:08:36Z</time>
      </trkpt>
      <trkpt lat="44.08909" lon="6.85347">
        <ele>794.5</ele>
        <time>2019-07-16T05:08:38Z</time>
      </trkpt>
      <trkpt lat="44.08904" lon="6.85349">
        <ele>794.4</ele>
        <time>2019-07-16T05:08:40Z</time>
      </trkpt>
      <trkpt lat="44.08901" lon="6.85351">
        <ele>794.4</ele>
        <time>2019-07-16T05:08:41Z</time>
      </trkpt>
      <trkpt lat="44.08899" lon="6.85352">
        <ele>794.4</ele>
        <time>2019-07-16T05:08:42Z</time>
      </trkpt>
      <trkpt lat="44.08896" lon="6.85354">
        <ele>794.4</ele>
        <time>2019-07-16T05:08:43Z</time>
      </trkpt>
      <trkpt lat="44.08893" lon="6.85354">
        <ele>794.4</ele>
        <time>2019-07-16T05:08:44Z</time>
      </trkpt>
      <trkpt lat="44.0889" lon="6.85355">
        <ele>794.2</ele>
        <time>2019-07-16T05:08:45Z</time>
      </trkpt>
      <trkpt lat="44.08887" lon="6.85356">
        <ele>794.1</ele>
        <time>2019-07-16T05:08:46Z</time>
      </trkpt>
      <trkpt lat="44.08884" lon="6.85357">
        <ele>793.9</ele>
        <time>2019-07-16T05:08:47Z</time>
      </trkpt>
      <trkpt lat="44.08881" lon="6.85358">
        <ele>793.8</ele>
        <time>2019-07-16T05:08:48Z</time>
      </trkpt>
      <trkpt lat="44.08878" lon="6.85359">
        <ele>793.7</ele>
        <time>2019-07-16T05:08:49Z</time>
      </trkpt>
      <trkpt lat="44.08875" lon="6.8536">
        <ele>793.6</ele>
        <time>2019-07-16T05:08:50Z</time>
      </trkpt>
      <trkpt lat="44.08873" lon="6.85361">
        <ele>793.5</ele>
        <time>2019-07-16T05:08:51Z</time>
      </trkpt>
      <trkpt lat="44.08869" lon="6.85362">
        <ele>793.3</ele>
        <time>2019-07-16T05:08:52Z</time>
      </trkpt>
      <trkpt lat="44.08866" lon="6.85363">
        <ele>793.2</ele>
        <time>2019-07-16T05:08:53Z</time>
      </trkpt>
      <trkpt lat="44.08863" lon="6.85364">
        <ele>792.8</ele>
        <time>2019-07-16T05:08:54Z</time>
      </trkpt>
      <trkpt lat="44.0886" lon="6.85365">
        <ele>792.5</ele>
        <time>2019-07-16T05:08:55Z</time>
      </trkpt>
      <trkpt lat="44.08856" lon="6.85366">
        <ele>792.3</ele>
        <time>2019-07-16T05:08:56Z</time>
      </trkpt>
      <trkpt lat="44.08851" lon="6.85367">
        <ele>791.8</ele>
        <time>2019-07-16T05:08:58Z</time>
      </trkpt>
      <trkpt lat="44.08846" lon="6.85367">
        <ele>791.9</ele>
        <time>2019-07-16T05:09:00Z</time>
      </trkpt>
      <trkpt lat="44.08843" lon="6.85368">
        <ele>792</ele>
        <time>2019-07-16T05:09:01Z</time>
      </trkpt>
      <trkpt lat="44.0884" lon="6.85368">
        <ele>792.1</ele>
        <time>2019-07-16T05:09:02Z</time>
      </trkpt>
      <trkpt lat="44.08836" lon="6.85369">
        <ele>792.2</ele>
        <time>2019-07-16T05:09:03Z</time>
      </trkpt>
      <trkpt lat="44.08833" lon="6.85371">
        <ele>792.3</ele>
        <time>2019-07-16T05:09:04Z</time>
      </trkpt>
      <trkpt lat="44.08829" lon="6.85372">
        <ele>792.4</ele>
        <time>2019-07-16T05:09:05Z</time>
      </trkpt>
      <trkpt lat="44.08826" lon="6.85373">
        <ele>792.5</ele>
        <time>2019-07-16T05:09:06Z</time>
      </trkpt>
      <trkpt lat="44.08822" lon="6.85373">
        <ele>792.9</ele>
        <time>2019-07-16T05:09:07Z</time>
      </trkpt>
      <trkpt lat="44.08817" lon="6.85374">
        <ele>792.8</ele>
        <time>2019-07-16T05:09:08Z</time>
      </trkpt>
      <trkpt lat="44.08813" lon="6.85374">
        <ele>792.7</ele>
        <time>2019-07-16T05:09:09Z</time>
      </trkpt>
      <trkpt lat="44.08809" lon="6.85373">
        <ele>792.7</ele>
        <time>2019-07-16T05:09:10Z</time>
      </trkpt>
      <trkpt lat="44.08805" lon="6.85372">
        <ele>792.6</ele>
        <time>2019-07-16T05:09:11Z</time>
      </trkpt>
      <trkpt lat="44.08801" lon="6.85371">
        <ele>792.5</ele>
        <time>2019-07-16T05:09:12Z</time>
      </trkpt>
      <trkpt lat="44.08797" lon="6.85371">
        <ele>792.5</ele>
        <time>2019-07-16T05:09:13Z</time>
      </trkpt>
      <trkpt lat="44.08792" lon="6.8537">
        <ele>792.4</ele>
        <time>2019-07-16T05:09:14Z</time>
      </trkpt>
      <trkpt lat="44.08789" lon="6.85368">
        <ele>792.4</ele>
        <time>2019-07-16T05:09:15Z</time>
      </trkpt>
      <trkpt lat="44.08786" lon="6.85366">
        <ele>792.6</ele>
        <time>2019-07-16T05:09:16Z</time>
      </trkpt>
      <trkpt lat="44.08783" lon="6.85364">
        <ele>792.7</ele>
        <time>2019-07-16T05:09:17Z</time>
      </trkpt>
      <trkpt lat="44.0878" lon="6.85361">
        <ele>792.9</ele>
        <time>2019-07-16T05:09:18Z</time>
      </trkpt>
      <trkpt lat="44.08778" lon="6.85359">
        <ele>793</ele>
        <time>2019-07-16T05:09:19Z</time>
      </trkpt>
      <trkpt lat="44.08775" lon="6.85357">
        <ele>793.1</ele>
        <time>2019-07-16T05:09:20Z</time>
      </trkpt>
      <trkpt lat="44.08773" lon="6.85356">
        <ele>793.3</ele>
        <time>2019-07-16T05:09:21Z</time>
      </trkpt>
      <trkpt lat="44.0877" lon="6.85355">
        <ele>793.4</ele>
        <time>2019-07-16T05:09:22Z</time>
      </trkpt>
      <trkpt lat="44.08767" lon="6.85354">
        <ele>793.6</ele>
        <time>2019-07-16T05:09:23Z</time>
      </trkpt>
      <trkpt lat="44.08762" lon="6.85354">
        <ele>793.8</ele>
        <time>2019-07-16T05:09:25Z</time>
      </trkpt>
      <trkpt lat="44.0876" lon="6.85354">
        <ele>794</ele>
        <time>2019-07-16T05:09:26Z</time>
      </trkpt>
      <trkpt lat="44.08757" lon="6.85354">
        <ele>794.1</ele>
        <time>2019-07-16T05:09:27Z</time>
      </trkpt>
      <trkpt lat="44.08752" lon="6.85354">
        <ele>794.3</ele>
        <time>2019-07-16T05:09:29Z</time>
      </trkpt>
      <trkpt lat="44.08747" lon="6.85356">
        <ele>794.5</ele>
        <time>2019-07-16T05:09:31Z</time>
      </trkpt>
      <trkpt lat="44.08743" lon="6.8536">
        <ele>794.6</ele>
        <time>2019-07-16T05:09:33Z</time>
      </trkpt>
      <trkpt lat="44.0874" lon="6.85364">
        <ele>794.7</ele>
        <time>2019-07-16T05:09:35Z</time>
      </trkpt>
      <trkpt lat="44.08736" lon="6.85367">
        <ele>794.8</ele>
        <time>2019-07-16T05:09:37Z</time>
      </trkpt>
      <trkpt lat="44.08733" lon="6.85371">
        <ele>795</ele>
        <time>2019-07-16T05:09:39Z</time>
      </trkpt>
      <trkpt lat="44.0873" lon="6.85375">
        <ele>795</ele>
        <time>2019-07-16T05:09:41Z</time>
      </trkpt>
      <trkpt lat="44.08727" lon="6.85378">
        <ele>795.1</ele>
        <time>2019-07-16T05:09:43Z</time>
      </trkpt>
      <trkpt lat="44.08724" lon="6.85383">
        <ele>795.2</ele>
        <time>2019-07-16T05:09:45Z</time>
      </trkpt>
      <trkpt lat="44.08721" lon="6.85388">
        <ele>795.3</ele>
        <time>2019-07-16T05:09:47Z</time>
      </trkpt>
      <trkpt lat="44.0872" lon="6.85392">
        <ele>795.4</ele>
        <time>2019-07-16T05:09:49Z</time>
      </trkpt>
      <trkpt lat="44.08718" lon="6.85397">
        <ele>795.5</ele>
        <time>2019-07-16T05:09:51Z</time>
      </trkpt>
      <trkpt lat="44.08716" lon="6.85401">
        <ele>795.7</ele>
        <time>2019-07-16T05:09:53Z</time>
      </trkpt>
      <trkpt lat="44.08715" lon="6.85407">
        <ele>795.8</ele>
        <time>2019-07-16T05:09:55Z</time>
      </trkpt>
      <trkpt lat="44.08715" lon="6.85413">
        <ele>795.9</ele>
        <time>2019-07-16T05:09:57Z</time>
      </trkpt>
      <trkpt lat="44.08714" lon="6.85418">
        <ele>796.1</ele>
        <time>2019-07-16T05:09:59Z</time>
      </trkpt>
      <trkpt lat="44.08712" lon="6.85424">
        <ele>796.2</ele>
        <time>2019-07-16T05:10:01Z</time>
      </trkpt>
      <trkpt lat="44.08711" lon="6.85429">
        <ele>796.4</ele>
        <time>2019-07-16T05:10:03Z</time>
      </trkpt>
      <trkpt lat="44.08709" lon="6.85434">
        <ele>796.5</ele>
        <time>2019-07-16T05:10:05Z</time>
      </trkpt>
      <trkpt lat="44.08708" lon="6.85438">
        <ele>796.8</ele>
        <time>2019-07-16T05:10:07Z</time>
      </trkpt>
      <trkpt lat="44.08706" lon="6.85442">
        <ele>796.9</ele>
        <time>2019-07-16T05:10:09Z</time>
      </trkpt>
      <trkpt lat="44.08703" lon="6.85446">
        <ele>797.1</ele>
        <time>2019-07-16T05:10:11Z</time>
      </trkpt>
      <trkpt lat="44.08701" lon="6.8545">
        <ele>797.2</ele>
        <time>2019-07-16T05:10:13Z</time>
      </trkpt>
      <trkpt lat="44.08698" lon="6.85454">
        <ele>797.4</ele>
        <time>2019-07-16T05:10:15Z</time>
      </trkpt>
      <trkpt lat="44.08696" lon="6.85456">
        <ele>797.5</ele>
        <time>2019-07-16T05:10:17Z</time>
      </trkpt>
      <trkpt lat="44.08693" lon="6.85459">
        <ele>797.7</ele>
        <time>2019-07-16T05:10:19Z</time>
      </trkpt>
      <trkpt lat="44.08691" lon="6.85462">
        <ele>797.9</ele>
        <time>2019-07-16T05:10:21Z</time>
      </trkpt>
      <trkpt lat="44.08687" lon="6.85465">
        <ele>798.1</ele>
        <time>2019-07-16T05:10:23Z</time>
      </trkpt>
      <trkpt lat="44.08684" lon="6.85466">
        <ele>798.2</ele>
        <time>2019-07-16T05:10:25Z</time>
      </trkpt>
      <trkpt lat="44.08681" lon="6.85468">
        <ele>798.4</ele>
        <time>2019-07-16T05:10:27Z</time>
      </trkpt>
      <trkpt lat="44.08678" lon="6.85468">
        <ele>798.5</ele>
        <time>2019-07-16T05:10:29Z</time>
      </trkpt>
      <trkpt lat="44.08675" lon="6.85469">
        <ele>798.6</ele>
        <time>2019-07-16T05:10:31Z</time>
      </trkpt>
      <trkpt lat="44.08672" lon="6.8547">
        <ele>798.8</ele>
        <time>2019-07-16T05:10:33Z</time>
      </trkpt>
      <trkpt lat="44.08668" lon="6.8547">
        <ele>799</ele>
        <time>2019-07-16T05:10:35Z</time>
      </trkpt>
      <trkpt lat="44.08665" lon="6.85471">
        <ele>799.1</ele>
        <time>2019-07-16T05:10:37Z</time>
      </trkpt>
      <trkpt lat="44.08661" lon="6.85473">
        <ele>799.3</ele>
        <time>2019-07-16T05:10:39Z</time>
      </trkpt>
      <trkpt lat="44.08657" lon="6.85473">
        <ele>799.5</ele>
        <time>2019-07-16T05:10:41Z</time>
      </trkpt>
      <trkpt lat="44.08653" lon="6.85474">
        <ele>799.7</ele>
        <time>2019-07-16T05:10:43Z</time>
      </trkpt>
      <trkpt lat="44.0865" lon="6.85474">
        <ele>799.8</ele>
        <time>2019-07-16T05:10:45Z</time>
      </trkpt>
      <trkpt lat="44.08647" lon="6.85476">
        <ele>800</ele>
        <time>2019-07-16T05:10:48Z</time>
      </trkpt>
      <trkpt lat="44.08644" lon="6.85478">
        <ele>800.2</ele>
        <time>2019-07-16T05:10:51Z</time>
      </trkpt>
      <trkpt lat="44.0864" lon="6.85479">
        <ele>800.4</ele>
        <time>2019-07-16T05:10:53Z</time>
      </trkpt>
      <trkpt lat="44.08637" lon="6.8548">
        <ele>800.5</ele>
        <time>2019-07-16T05:10:55Z</time>
      </trkpt>
      <trkpt lat="44.08635" lon="6.85482">
        <ele>800.7</ele>
        <time>2019-07-16T05:10:57Z</time>
      </trkpt>
      <trkpt lat="44.08633" lon="6.85484">
        <ele>800.8</ele>
        <time>2019-07-16T05:10:59Z</time>
      </trkpt>
      <trkpt lat="44.0863" lon="6.85486">
        <ele>801</ele>
        <time>2019-07-16T05:11:01Z</time>
      </trkpt>
      <trkpt lat="44.08627" lon="6.85488">
        <ele>801.2</ele>
        <time>2019-07-16T05:11:04Z</time>
      </trkpt>
      <trkpt lat="44.08624" lon="6.85491">
        <ele>801.4</ele>
        <time>2019-07-16T05:11:06Z</time>
      </trkpt>
      <trkpt lat="44.08622" lon="6.85494">
        <ele>801.6</ele>
        <time>2019-07-16T05:11:08Z</time>
      </trkpt>
      <trkpt lat="44.08619" lon="6.85497">
        <ele>801.8</ele>
        <time>2019-07-16T05:11:10Z</time>
      </trkpt>
      <trkpt lat="44.08616" lon="6.85501">
        <ele>802</ele>
        <time>2019-07-16T05:11:12Z</time>
      </trkpt>
      <trkpt lat="44.08613" lon="6.85505">
        <ele>802.2</ele>
        <time>2019-07-16T05:11:14Z</time>
      </trkpt>
      <trkpt lat="44.0861" lon="6.85509">
        <ele>802.4</ele>
        <time>2019-07-16T05:11:16Z</time>
      </trkpt>
      <trkpt lat="44.08607" lon="6.85514">
        <ele>802.7</ele>
        <time>2019-07-16T05:11:18Z</time>
      </trkpt>
      <trkpt lat="44.08603" lon="6.85519">
        <ele>802.9</ele>
        <time>2019-07-16T05:11:20Z</time>
      </trkpt>
      <trkpt lat="44.086" lon="6.85524">
        <ele>803.1</ele>
        <time>2019-07-16T05:11:22Z</time>
      </trkpt>
      <trkpt lat="44.08597" lon="6.85529">
        <ele>803.3</ele>
        <time>2019-07-16T05:11:24Z</time>
      </trkpt>
      <trkpt lat="44.08594" lon="6.85533">
        <ele>803.5</ele>
        <time>2019-07-16T05:11:26Z</time>
      </trkpt>
      <trkpt lat="44.08592" lon="6.85538">
        <ele>803.7</ele>
        <time>2019-07-16T05:11:28Z</time>
      </trkpt>
      <trkpt lat="44.08589" lon="6.85541">
        <ele>803.8</ele>
        <time>2019-07-16T05:11:30Z</time>
      </trkpt>
      <trkpt lat="44.08587" lon="6.85545">
        <ele>804</ele>
        <time>2019-07-16T05:11:32Z</time>
      </trkpt>
      <trkpt lat="44.08584" lon="6.8555">
        <ele>804.2</ele>
        <time>2019-07-16T05:11:34Z</time>
      </trkpt>
      <trkpt lat="44.08582" lon="6.85554">
        <ele>804.4</ele>
        <time>2019-07-16T05:11:36Z</time>
      </trkpt>
      <trkpt lat="44.0858" lon="6.85558">
        <ele>804.5</ele>
        <time>2019-07-16T05:11:38Z</time>
      </trkpt>
      <trkpt lat="44.08578" lon="6.85562">
        <ele>804.6</ele>
        <time>2019-07-16T05:11:40Z</time>
      </trkpt>
      <trkpt lat="44.08575" lon="6.85565">
        <ele>804.8</ele>
        <time>2019-07-16T05:11:42Z</time>
      </trkpt>
      <trkpt lat="44.08573" lon="6.85568">
        <ele>805</ele>
        <time>2019-07-16T05:11:44Z</time>
      </trkpt>
      <trkpt lat="44.0857" lon="6.85571">
        <ele>805.2</ele>
        <time>2019-07-16T05:11:46Z</time>
      </trkpt>
      <trkpt lat="44.08568" lon="6.85575">
        <ele>805.3</ele>
        <time>2019-07-16T05:11:48Z</time>
      </trkpt>
      <trkpt lat="44.08566" lon="6.85579">
        <ele>805.5</ele>
        <time>2019-07-16T05:11:50Z</time>
      </trkpt>
      <trkpt lat="44.08564" lon="6.85583">
        <ele>805.6</ele>
        <time>2019-07-16T05:11:52Z</time>
      </trkpt>
      <trkpt lat="44.08562" lon="6.85587">
        <ele>805.7</ele>
        <time>2019-07-16T05:11:54Z</time>
      </trkpt>
      <trkpt lat="44.0856" lon="6.8559">
        <ele>805.8</ele>
        <time>2019-07-16T05:11:56Z</time>
      </trkpt>
      <trkpt lat="44.08557" lon="6.85595">
        <ele>806.1</ele>
        <time>2019-07-16T05:11:58Z</time>
      </trkpt>
      <trkpt lat="44.08555" lon="6.856">
        <ele>806.3</ele>
        <time>2019-07-16T05:12:00Z</time>
      </trkpt>
      <trkpt lat="44.08553" lon="6.85604">
        <ele>806.5</ele>
        <time>2019-07-16T05:12:02Z</time>
      </trkpt>
      <trkpt lat="44.08551" lon="6.8561">
        <ele>806.7</ele>
        <time>2019-07-16T05:12:04Z</time>
      </trkpt>
      <trkpt lat="44.08549" lon="6.85616">
        <ele>806.9</ele>
        <time>2019-07-16T05:12:06Z</time>
      </trkpt>
      <trkpt lat="44.08548" lon="6.85621">
        <ele>807.1</ele>
        <time>2019-07-16T05:12:08Z</time>
      </trkpt>
      <trkpt lat="44.08546" lon="6.85626">
        <ele>807.3</ele>
        <time>2019-07-16T05:12:10Z</time>
      </trkpt>
      <trkpt lat="44.08544" lon="6.85631">
        <ele>807.5</ele>
        <time>2019-07-16T05:12:12Z</time>
      </trkpt>
      <trkpt lat="44.08543" lon="6.85636">
        <ele>807.6</ele>
        <time>2019-07-16T05:12:14Z</time>
      </trkpt>
      <trkpt lat="44.08542" lon="6.8564">
        <ele>807.8</ele>
        <time>2019-07-16T05:12:16Z</time>
      </trkpt>
      <trkpt lat="44.0854" lon="6.85645">
        <ele>808</ele>
        <time>2019-07-16T05:12:18Z</time>
      </trkpt>
      <trkpt lat="44.08539" lon="6.85649">
        <ele>808.1</ele>
        <time>2019-07-16T05:12:20Z</time>
      </trkpt>
      <trkpt lat="44.08537" lon="6.85653">
        <ele>808.3</ele>
        <time>2019-07-16T05:12:22Z</time>
      </trkpt>
      <trkpt lat="44.08535" lon="6.85656">
        <ele>808.4</ele>
        <time>2019-07-16T05:12:24Z</time>
      </trkpt>
      <trkpt lat="44.08533" lon="6.85659">
        <ele>808.5</ele>
        <time>2019-07-16T05:12:26Z</time>
      </trkpt>
      <trkpt lat="44.08531" lon="6.85663">
        <ele>808.7</ele>
        <time>2019-07-16T05:12:28Z</time>
      </trkpt>
      <trkpt lat="44.08528" lon="6.85666">
        <ele>808.8</ele>
        <time>2019-07-16T05:12:30Z</time>
      </trkpt>
      <trkpt lat="44.08525" lon="6.8567">
        <ele>809</ele>
        <time>2019-07-16T05:12:32Z</time>
      </trkpt>
      <trkpt lat="44.08523" lon="6.85673">
        <ele>809.2</ele>
        <time>2019-07-16T05:12:34Z</time>
      </trkpt>
      <trkpt lat="44.08521" lon="6.85677">
        <ele>809.3</ele>
        <time>2019-07-16T05:12:36Z</time>
      </trkpt>
      <trkpt lat="44.08519" lon="6.85681">
        <ele>809.4</ele>
        <time>2019-07-16T05:12:38Z</time>
      </trkpt>
      <trkpt lat="44.08516" lon="6.85685">
        <ele>809.6</ele>
        <time>2019-07-16T05:12:40Z</time>
      </trkpt>
      <trkpt lat="44.08514" lon="6.85689">
        <ele>809.8</ele>
        <time>2019-07-16T05:12:42Z</time>
      </trkpt>
      <trkpt lat="44.08512" lon="6.85694">
        <ele>810.1</ele>
        <time>2019-07-16T05:12:44Z</time>
      </trkpt>
      <trkpt lat="44.08511" lon="6.85699">
        <ele>810.3</ele>
        <time>2019-07-16T05:12:46Z</time>
      </trkpt>
      <trkpt lat="44.08509" lon="6.85704">
        <ele>810.6</ele>
        <time>2019-07-16T05:12:48Z</time>
      </trkpt>
      <trkpt lat="44.08507" lon="6.85709">
        <ele>810.9</ele>
        <time>2019-07-16T05:12:50Z</time>
      </trkpt>
      <trkpt lat="44.08506" lon="6.85714">
        <ele>811.2</ele>
        <time>2019-07-16T05:12:52Z</time>
      </trkpt>
      <trkpt lat="44.08504" lon="6.8572">
        <ele>811.5</ele>
        <time>2019-07-16T05:12:55Z</time>
      </trkpt>
      <trkpt lat="44.08503" lon="6.85725">
        <ele>811.9</ele>
        <time>2019-07-16T05:12:57Z</time>
      </trkpt>
      <trkpt lat="44.08501" lon="6.8573">
        <ele>812.3</ele>
        <time>2019-07-16T05:12:59Z</time>
      </trkpt>
      <trkpt lat="44.085" lon="6.85734">
        <ele>812.7</ele>
        <time>2019-07-16T05:13:01Z</time>
      </trkpt>
      <trkpt lat="44.08499" lon="6.85738">
        <ele>813</ele>
        <time>2019-07-16T05:13:03Z</time>
      </trkpt>
      <trkpt lat="44.08498" lon="6.85743">
        <ele>813.4</ele>
        <time>2019-07-16T05:13:05Z</time>
      </trkpt>
      <trkpt lat="44.08497" lon="6.85748">
        <ele>813.9</ele>
        <time>2019-07-16T05:13:07Z</time>
      </trkpt>
      <trkpt lat="44.08496" lon="6.85752">
        <ele>814.4</ele>
        <time>2019-07-16T05:13:09Z</time>
      </trkpt>
      <trkpt lat="44.08495" lon="6.85758">
        <ele>814.9</ele>
        <time>2019-07-16T05:13:11Z</time>
      </trkpt>
      <trkpt lat="44.08494" lon="6.85762">
        <ele>815.4</ele>
        <time>2019-07-16T05:13:13Z</time>
      </trkpt>
      <trkpt lat="44.08493" lon="6.85766">
        <ele>815.8</ele>
        <time>2019-07-16T05:13:15Z</time>
      </trkpt>
      <trkpt lat="44.08491" lon="6.8577">
        <ele>816.2</ele>
        <time>2019-07-16T05:13:17Z</time>
      </trkpt>
      <trkpt lat="44.0849" lon="6.85774">
        <ele>816.7</ele>
        <time>2019-07-16T05:13:19Z</time>
      </trkpt>
      <trkpt lat="44.08488" lon="6.85778">
        <ele>817.3</ele>
        <time>2019-07-16T05:13:21Z</time>
      </trkpt>
      <trkpt lat="44.08487" lon="6.85782">
        <ele>817.8</ele>
        <time>2019-07-16T05:13:23Z</time>
      </trkpt>
      <trkpt lat="44.08485" lon="6.85785">
        <ele>818.4</ele>
        <time>2019-07-16T05:13:25Z</time>
      </trkpt>
      <trkpt lat="44.08482" lon="6.85788">
        <ele>819</ele>
        <time>2019-07-16T05:13:27Z</time>
      </trkpt>
      <trkpt lat="44.0848" lon="6.85792">
        <ele>819.7</ele>
        <time>2019-07-16T05:13:29Z</time>
      </trkpt>
      <trkpt lat="44.08478" lon="6.85795">
        <ele>820.3</ele>
        <time>2019-07-16T05:13:31Z</time>
      </trkpt>
      <trkpt lat="44.08476" lon="6.85799">
        <ele>820.9</ele>
        <time>2019-07-16T05:13:33Z</time>
      </trkpt>
      <trkpt lat="44.08474" lon="6.85802">
        <ele>822</ele>
        <time>2019-07-16T05:13:35Z</time>
      </trkpt>
      <trkpt lat="44.08472" lon="6.85805">
        <ele>823</ele>
        <time>2019-07-16T05:13:37Z</time>
      </trkpt>
      <trkpt lat="44.08469" lon="6.85807">
        <ele>824</ele>
        <time>2019-07-16T05:13:39Z</time>
      </trkpt>
      <trkpt lat="44.08466" lon="6.8581">
        <ele>825.1</ele>
        <time>2019-07-16T05:13:41Z</time>
      </trkpt>
      <trkpt lat="44.08463" lon="6.85815">
        <ele>825.9</ele>
        <time>2019-07-16T05:13:43Z</time>
      </trkpt>
      <trkpt lat="44.08462" lon="6.85821">
        <ele>826.8</ele>
        <time>2019-07-16T05:13:45Z</time>
      </trkpt>
      <trkpt lat="44.08464" lon="6.85828">
        <ele>827.5</ele>
        <time>2019-07-16T05:13:47Z</time>
      </trkpt>
      <trkpt lat="44.08467" lon="6.85833">
        <ele>828.2</ele>
        <time>2019-07-16T05:13:49Z</time>
      </trkpt>
      <trkpt lat="44.08471" lon="6.85835">
        <ele>828.7</ele>
        <time>2019-07-16T05:13:51Z</time>
      </trkpt>
      <trkpt lat="44.08476" lon="6.85835">
        <ele>829.2</ele>
        <time>2019-07-16T05:13:53Z</time>
      </trkpt>
      <trkpt lat="44.08478" lon="6.85835">
        <ele>829.5</ele>
        <time>2019-07-16T05:13:54Z</time>
      </trkpt>
      <trkpt lat="44.08481" lon="6.8583">
        <ele>829.9</ele>
        <time>2019-07-16T05:13:56Z</time>
      </trkpt>
      <trkpt lat="44.08483" lon="6.85824">
        <ele>830.3</ele>
        <time>2019-07-16T05:13:58Z</time>
      </trkpt>
      <trkpt lat="44.08485" lon="6.85818">
        <ele>830.8</ele>
        <time>2019-07-16T05:14:00Z</time>
      </trkpt>
      <trkpt lat="44.08487" lon="6.85813">
        <ele>831.1</ele>
        <time>2019-07-16T05:14:02Z</time>
      </trkpt>
      <trkpt lat="44.08489" lon="6.85807">
        <ele>831.5</ele>
        <time>2019-07-16T05:14:04Z</time>
      </trkpt>
      <trkpt lat="44.08491" lon="6.85802">
        <ele>831.8</ele>
        <time>2019-07-16T05:14:06Z</time>
      </trkpt>
      <trkpt lat="44.08492" lon="6.85798">
        <ele>832.1</ele>
        <time>2019-07-16T05:14:08Z</time>
      </trkpt>
      <trkpt lat="44.08494" lon="6.85793">
        <ele>832.4</ele>
        <time>2019-07-16T05:14:11Z</time>
      </trkpt>
      <trkpt lat="44.08495" lon="6.85787">
        <ele>832.8</ele>
        <time>2019-07-16T05:14:13Z</time>
      </trkpt>
      <trkpt lat="44.08497" lon="6.85782">
        <ele>833.1</ele>
        <time>2019-07-16T05:14:15Z</time>
      </trkpt>
      <trkpt lat="44.08497" lon="6.85777">
        <ele>833.3</ele>
        <time>2019-07-16T05:14:17Z</time>
      </trkpt>
      <trkpt lat="44.085" lon="6.85773">
        <ele>833.6</ele>
        <time>2019-07-16T05:14:19Z</time>
      </trkpt>
      <trkpt lat="44.08502" lon="6.85769">
        <ele>833.9</ele>
        <time>2019-07-16T05:14:21Z</time>
      </trkpt>
      <trkpt lat="44.08505" lon="6.85765">
        <ele>834.3</ele>
        <time>2019-07-16T05:14:23Z</time>
      </trkpt>
      <trkpt lat="44.08508" lon="6.85762">
        <ele>834.6</ele>
        <time>2019-07-16T05:14:25Z</time>
      </trkpt>
      <trkpt lat="44.08511" lon="6.85758">
        <ele>834.9</ele>
        <time>2019-07-16T05:14:27Z</time>
      </trkpt>
      <trkpt lat="44.08514" lon="6.85753">
        <ele>835.2</ele>
        <time>2019-07-16T05:14:29Z</time>
      </trkpt>
      <trkpt lat="44.08515" lon="6.85749">
        <ele>835.5</ele>
        <time>2019-07-16T05:14:31Z</time>
      </trkpt>
      <trkpt lat="44.08518" lon="6.85747">
        <ele>835.8</ele>
        <time>2019-07-16T05:14:33Z</time>
      </trkpt>
      <trkpt lat="44.0852" lon="6.85743">
        <ele>836.1</ele>
        <time>2019-07-16T05:14:35Z</time>
      </trkpt>
      <trkpt lat="44.08522" lon="6.85739">
        <ele>836.4</ele>
        <time>2019-07-16T05:14:37Z</time>
      </trkpt>
      <trkpt lat="44.08524" lon="6.85734">
        <ele>836.7</ele>
        <time>2019-07-16T05:14:39Z</time>
      </trkpt>
      <trkpt lat="44.08525" lon="6.85728">
        <ele>837</ele>
        <time>2019-07-16T05:14:41Z</time>
      </trkpt>
      <trkpt lat="44.08525" lon="6.85723">
        <ele>837.3</ele>
        <time>2019-07-16T05:14:43Z</time>
      </trkpt>
      <trkpt lat="44.08527" lon="6.85719">
        <ele>837.6</ele>
        <time>2019-07-16T05:14:45Z</time>
      </trkpt>
      <trkpt lat="44.08528" lon="6.85714">
        <ele>837.9</ele>
        <time>2019-07-16T05:14:47Z</time>
      </trkpt>
      <trkpt lat="44.08529" lon="6.8571">
        <ele>838.1</ele>
        <time>2019-07-16T05:14:49Z</time>
      </trkpt>
      <trkpt lat="44.08532" lon="6.85707">
        <ele>838.4</ele>
        <time>2019-07-16T05:14:51Z</time>
      </trkpt>
      <trkpt lat="44.08534" lon="6.85704">
        <ele>838.7</ele>
        <time>2019-07-16T05:14:53Z</time>
      </trkpt>
      <trkpt lat="44.08537" lon="6.857">
        <ele>838.9</ele>
        <time>2019-07-16T05:14:55Z</time>
      </trkpt>
      <trkpt lat="44.08539" lon="6.85697">
        <ele>839.2</ele>
        <time>2019-07-16T05:14:57Z</time>
      </trkpt>
      <trkpt lat="44.08541" lon="6.85695">
        <ele>839.4</ele>
        <time>2019-07-16T05:14:59Z</time>
      </trkpt>
      <trkpt lat="44.08545" lon="6.85693">
        <ele>839.8</ele>
        <time>2019-07-16T05:15:01Z</time>
      </trkpt>
      <trkpt lat="44.08548" lon="6.85692">
        <ele>840.1</ele>
        <time>2019-07-16T05:15:03Z</time>
      </trkpt>
      <trkpt lat="44.08551" lon="6.85689">
        <ele>840.4</ele>
        <time>2019-07-16T05:15:05Z</time>
      </trkpt>
      <trkpt lat="44.08554" lon="6.85686">
        <ele>840.7</ele>
        <time>2019-07-16T05:15:07Z</time>
      </trkpt>
      <trkpt lat="44.08557" lon="6.85683">
        <ele>841.1</ele>
        <time>2019-07-16T05:15:09Z</time>
      </trkpt>
      <trkpt lat="44.08559" lon="6.8568">
        <ele>841.4</ele>
        <time>2019-07-16T05:15:11Z</time>
      </trkpt>
      <trkpt lat="44.08562" lon="6.85677">
        <ele>841.8</ele>
        <time>2019-07-16T05:15:13Z</time>
      </trkpt>
      <trkpt lat="44.08565" lon="6.85673">
        <ele>842.2</ele>
        <time>2019-07-16T05:15:15Z</time>
      </trkpt>
      <trkpt lat="44.08568" lon="6.8567">
        <ele>842.5</ele>
        <time>2019-07-16T05:15:17Z</time>
      </trkpt>
      <trkpt lat="44.0857" lon="6.85666">
        <ele>842.8</ele>
        <time>2019-07-16T05:15:19Z</time>
      </trkpt>
      <trkpt lat="44.08572" lon="6.85663">
        <ele>843.1</ele>
        <time>2019-07-16T05:15:21Z</time>
      </trkpt>
      <trkpt lat="44.08575" lon="6.8566">
        <ele>843.5</ele>
        <time>2019-07-16T05:15:23Z</time>
      </trkpt>
      <trkpt lat="44.08577" lon="6.85657">
        <ele>843.8</ele>
        <time>2019-07-16T05:15:25Z</time>
      </trkpt>
      <trkpt lat="44.08579" lon="6.85653">
        <ele>844.1</ele>
        <time>2019-07-16T05:15:27Z</time>
      </trkpt>
      <trkpt lat="44.08581" lon="6.8565">
        <ele>844.3</ele>
        <time>2019-07-16T05:15:29Z</time>
      </trkpt>
      <trkpt lat="44.08584" lon="6.85647">
        <ele>844.6</ele>
        <time>2019-07-16T05:15:31Z</time>
      </trkpt>
      <trkpt lat="44.08586" lon="6.85644">
        <ele>844.9</ele>
        <time>2019-07-16T05:15:33Z</time>
      </trkpt>
      <trkpt lat="44.08589" lon="6.85642">
        <ele>845.2</ele>
        <time>2019-07-16T05:15:35Z</time>
      </trkpt>
      <trkpt lat="44.08591" lon="6.85639">
        <ele>845.4</ele>
        <time>2019-07-16T05:15:37Z</time>
      </trkpt>
      <trkpt lat="44.08593" lon="6.85636">
        <ele>845.7</ele>
        <time>2019-07-16T05:15:39Z</time>
      </trkpt>
      <trkpt lat="44.08596" lon="6.85635">
        <ele>846</ele>
        <time>2019-07-16T05:15:41Z</time>
      </trkpt>
      <trkpt lat="44.08599" lon="6.85633">
        <ele>846.2</ele>
        <time>2019-07-16T05:15:43Z</time>
      </trkpt>
      <trkpt lat="44.08602" lon="6.85632">
        <ele>846.5</ele>
        <time>2019-07-16T05:15:45Z</time>
      </trkpt>
      <trkpt lat="44.08605" lon="6.8563">
        <ele>846.8</ele>
        <time>2019-07-16T05:15:47Z</time>
      </trkpt>
      <trkpt lat="44.08609" lon="6.85627">
        <ele>847.2</ele>
        <time>2019-07-16T05:15:49Z</time>
      </trkpt>
      <trkpt lat="44.08613" lon="6.85626">
        <ele>847.5</ele>
        <time>2019-07-16T05:15:51Z</time>
      </trkpt>
      <trkpt lat="44.08616" lon="6.85624">
        <ele>847.8</ele>
        <time>2019-07-16T05:15:53Z</time>
      </trkpt>
      <trkpt lat="44.08619" lon="6.85621">
        <ele>848.2</ele>
        <time>2019-07-16T05:15:55Z</time>
      </trkpt>
      <trkpt lat="44.08622" lon="6.8562">
        <ele>848.4</ele>
        <time>2019-07-16T05:15:57Z</time>
      </trkpt>
      <trkpt lat="44.08626" lon="6.85619">
        <ele>848.7</ele>
        <time>2019-07-16T05:15:59Z</time>
      </trkpt>
      <trkpt lat="44.08629" lon="6.85617">
        <ele>849</ele>
        <time>2019-07-16T05:16:01Z</time>
      </trkpt>
      <trkpt lat="44.08632" lon="6.85616">
        <ele>849.3</ele>
        <time>2019-07-16T05:16:03Z</time>
      </trkpt>
      <trkpt lat="44.08636" lon="6.85616">
        <ele>849.6</ele>
        <time>2019-07-16T05:16:05Z</time>
      </trkpt>
      <trkpt lat="44.0864" lon="6.85615">
        <ele>849.9</ele>
        <time>2019-07-16T05:16:07Z</time>
      </trkpt>
      <trkpt lat="44.08644" lon="6.85615">
        <ele>850.2</ele>
        <time>2019-07-16T05:16:09Z</time>
      </trkpt>
      <trkpt lat="44.08647" lon="6.85614">
        <ele>850.5</ele>
        <time>2019-07-16T05:16:11Z</time>
      </trkpt>
      <trkpt lat="44.08651" lon="6.85614">
        <ele>850.7</ele>
        <time>2019-07-16T05:16:13Z</time>
      </trkpt>
      <trkpt lat="44.08654" lon="6.85615">
        <ele>851</ele>
        <time>2019-07-16T05:16:15Z</time>
      </trkpt>
      <trkpt lat="44.08657" lon="6.85616">
        <ele>851.2</ele>
        <time>2019-07-16T05:16:17Z</time>
      </trkpt>
      <trkpt lat="44.0866" lon="6.85617">
        <ele>851.5</ele>
        <time>2019-07-16T05:16:19Z</time>
      </trkpt>
      <trkpt lat="44.08664" lon="6.85618">
        <ele>851.8</ele>
        <time>2019-07-16T05:16:22Z</time>
      </trkpt>
      <trkpt lat="44.08667" lon="6.85619">
        <ele>852.1</ele>
        <time>2019-07-16T05:16:24Z</time>
      </trkpt>
      <trkpt lat="44.0867" lon="6.8562">
        <ele>852.3</ele>
        <time>2019-07-16T05:16:26Z</time>
      </trkpt>
      <trkpt lat="44.08674" lon="6.85621">
        <ele>852.6</ele>
        <time>2019-07-16T05:16:28Z</time>
      </trkpt>
      <trkpt lat="44.08677" lon="6.85622">
        <ele>852.8</ele>
        <time>2019-07-16T05:16:30Z</time>
      </trkpt>
      <trkpt lat="44.0868" lon="6.85623">
        <ele>853.1</ele>
        <time>2019-07-16T05:16:32Z</time>
      </trkpt>
      <trkpt lat="44.08683" lon="6.85624">
        <ele>853.4</ele>
        <time>2019-07-16T05:16:34Z</time>
      </trkpt>
      <trkpt lat="44.08686" lon="6.85624">
        <ele>853.6</ele>
        <time>2019-07-16T05:16:36Z</time>
      </trkpt>
      <trkpt lat="44.0869" lon="6.85625">
        <ele>853.9</ele>
        <time>2019-07-16T05:16:39Z</time>
      </trkpt>
      <trkpt lat="44.08693" lon="6.85626">
        <ele>854.1</ele>
        <time>2019-07-16T05:16:41Z</time>
      </trkpt>
      <trkpt lat="44.08696" lon="6.85626">
        <ele>854.3</ele>
        <time>2019-07-16T05:16:43Z</time>
      </trkpt>
      <trkpt lat="44.087" lon="6.85627">
        <ele>854.6</ele>
        <time>2019-07-16T05:16:45Z</time>
      </trkpt>
      <trkpt lat="44.08704" lon="6.85627">
        <ele>854.9</ele>
        <time>2019-07-16T05:16:47Z</time>
      </trkpt>
      <trkpt lat="44.08708" lon="6.85627">
        <ele>855.2</ele>
        <time>2019-07-16T05:16:49Z</time>
      </trkpt>
      <trkpt lat="44.08712" lon="6.85627">
        <ele>855.5</ele>
        <time>2019-07-16T05:16:52Z</time>
      </trkpt>
      <trkpt lat="44.08714" lon="6.85628">
        <ele>855.7</ele>
        <time>2019-07-16T05:16:54Z</time>
      </trkpt>
      <trkpt lat="44.08717" lon="6.8563">
        <ele>855.9</ele>
        <time>2019-07-16T05:16:56Z</time>
      </trkpt>
      <trkpt lat="44.08721" lon="6.85632">
        <ele>856.2</ele>
        <time>2019-07-16T05:16:58Z</time>
      </trkpt>
      <trkpt lat="44.08724" lon="6.85633">
        <ele>856.4</ele>
        <time>2019-07-16T05:17:00Z</time>
      </trkpt>
      <trkpt lat="44.08727" lon="6.85633">
        <ele>856.6</ele>
        <time>2019-07-16T05:17:02Z</time>
      </trkpt>
      <trkpt lat="44.08731" lon="6.85634">
        <ele>856.9</ele>
        <time>2019-07-16T05:17:04Z</time>
      </trkpt>
      <trkpt lat="44.08735" lon="6.85636">
        <ele>857.2</ele>
        <time>2019-07-16T05:17:07Z</time>
      </trkpt>
      <trkpt lat="44.08738" lon="6.85638">
        <ele>857.5</ele>
        <time>2019-07-16T05:17:09Z</time>
      </trkpt>
      <trkpt lat="44.08741" lon="6.85639">
        <ele>857.7</ele>
        <time>2019-07-16T05:17:11Z</time>
      </trkpt>
      <trkpt lat="44.08745" lon="6.8564">
        <ele>858</ele>
        <time>2019-07-16T05:17:13Z</time>
      </trkpt>
      <trkpt lat="44.08748" lon="6.85641">
        <ele>858.3</ele>
        <time>2019-07-16T05:17:15Z</time>
      </trkpt>
      <trkpt lat="44.08751" lon="6.85642">
        <ele>858.5</ele>
        <time>2019-07-16T05:17:17Z</time>
      </trkpt>
      <trkpt lat="44.08754" lon="6.85644">
        <ele>858.8</ele>
        <time>2019-07-16T05:17:19Z</time>
      </trkpt>
      <trkpt lat="44.08758" lon="6.85645">
        <ele>859.1</ele>
        <time>2019-07-16T05:17:21Z</time>
      </trkpt>
      <trkpt lat="44.08761" lon="6.85646">
        <ele>859.3</ele>
        <time>2019-07-16T05:17:23Z</time>
      </trkpt>
      <trkpt lat="44.08764" lon="6.85648">
        <ele>859.6</ele>
        <time>2019-07-16T05:17:25Z</time>
      </trkpt>
      <trkpt lat="44.08768" lon="6.85651">
        <ele>859.9</ele>
        <time>2019-07-16T05:17:27Z</time>
      </trkpt>
      <trkpt lat="44.08771" lon="6.85653">
        <ele>860.2</ele>
        <time>2019-07-16T05:17:29Z</time>
      </trkpt>
      <trkpt lat="44.08773" lon="6.85655">
        <ele>860.4</ele>
        <time>2019-07-16T05:17:31Z</time>
      </trkpt>
      <trkpt lat="44.08776" lon="6.85658">
        <ele>860.7</ele>
        <time>2019-07-16T05:17:33Z</time>
      </trkpt>
      <trkpt lat="44.0878" lon="6.85661">
        <ele>861</ele>
        <time>2019-07-16T05:17:35Z</time>
      </trkpt>
      <trkpt lat="44.08782" lon="6.85663">
        <ele>861.3</ele>
        <time>2019-07-16T05:17:37Z</time>
      </trkpt>
      <trkpt lat="44.08786" lon="6.85666">
        <ele>861.5</ele>
        <time>2019-07-16T05:17:39Z</time>
      </trkpt>
      <trkpt lat="44.08788" lon="6.85668">
        <ele>861.8</ele>
        <time>2019-07-16T05:17:41Z</time>
      </trkpt>
      <trkpt lat="44.08791" lon="6.85671">
        <ele>862.1</ele>
        <time>2019-07-16T05:17:43Z</time>
      </trkpt>
      <trkpt lat="44.08793" lon="6.85674">
        <ele>862.3</ele>
        <time>2019-07-16T05:17:45Z</time>
      </trkpt>
      <trkpt lat="44.08795" lon="6.85678">
        <ele>862.6</ele>
        <time>2019-07-16T05:17:47Z</time>
      </trkpt>
      <trkpt lat="44.08798" lon="6.85681">
        <ele>862.9</ele>
        <time>2019-07-16T05:17:49Z</time>
      </trkpt>
      <trkpt lat="44.088" lon="6.85685">
        <ele>863.1</ele>
        <time>2019-07-16T05:17:51Z</time>
      </trkpt>
      <trkpt lat="44.08803" lon="6.85687">
        <ele>863.3</ele>
        <time>2019-07-16T05:17:53Z</time>
      </trkpt>
      <trkpt lat="44.08805" lon="6.85691">
        <ele>863.6</ele>
        <time>2019-07-16T05:17:55Z</time>
      </trkpt>
      <trkpt lat="44.08807" lon="6.85694">
        <ele>863.9</ele>
        <time>2019-07-16T05:17:57Z</time>
      </trkpt>
      <trkpt lat="44.0881" lon="6.85698">
        <ele>864.1</ele>
        <time>2019-07-16T05:17:59Z</time>
      </trkpt>
      <trkpt lat="44.08812" lon="6.85702">
        <ele>864.4</ele>
        <time>2019-07-16T05:18:01Z</time>
      </trkpt>
      <trkpt lat="44.08814" lon="6.85705">
        <ele>864.6</ele>
        <time>2019-07-16T05:18:03Z</time>
      </trkpt>
      <trkpt lat="44.08817" lon="6.85708">
        <ele>864.8</ele>
        <time>2019-07-16T05:18:06Z</time>
      </trkpt>
      <trkpt lat="44.08819" lon="6.85711">
        <ele>865</ele>
        <time>2019-07-16T05:18:08Z</time>
      </trkpt>
      <trkpt lat="44.08821" lon="6.85714">
        <ele>865.2</ele>
        <time>2019-07-16T05:18:10Z</time>
      </trkpt>
      <trkpt lat="44.08824" lon="6.85717">
        <ele>865.4</ele>
        <time>2019-07-16T05:18:12Z</time>
      </trkpt>
      <trkpt lat="44.08827" lon="6.85719">
        <ele>865.6</ele>
        <time>2019-07-16T05:18:14Z</time>
      </trkpt>
      <trkpt lat="44.0883" lon="6.85721">
        <ele>865.8</ele>
        <time>2019-07-16T05:18:16Z</time>
      </trkpt>
      <trkpt lat="44.08832" lon="6.85724">
        <ele>865.9</ele>
        <time>2019-07-16T05:18:18Z</time>
      </trkpt>
      <trkpt lat="44.08835" lon="6.85727">
        <ele>866</ele>
        <time>2019-07-16T05:18:21Z</time>
      </trkpt>
      <trkpt lat="44.08838" lon="6.85729">
        <ele>866.2</ele>
        <time>2019-07-16T05:18:23Z</time>
      </trkpt>
      <trkpt lat="44.08841" lon="6.85731">
        <ele>866.3</ele>
        <time>2019-07-16T05:18:25Z</time>
      </trkpt>
      <trkpt lat="44.08843" lon="6.85732">
        <ele>866.4</ele>
        <time>2019-07-16T05:18:27Z</time>
      </trkpt>
      <trkpt lat="44.08847" lon="6.85735">
        <ele>866.7</ele>
        <time>2019-07-16T05:18:29Z</time>
      </trkpt>
      <trkpt lat="44.08851" lon="6.85736">
        <ele>866.9</ele>
        <time>2019-07-16T05:18:31Z</time>
      </trkpt>
      <trkpt lat="44.08854" lon="6.85737">
        <ele>867.1</ele>
        <time>2019-07-16T05:18:33Z</time>
      </trkpt>
      <trkpt lat="44.08858" lon="6.85738">
        <ele>867.3</ele>
        <time>2019-07-16T05:18:36Z</time>
      </trkpt>
      <trkpt lat="44.08862" lon="6.8574">
        <ele>867.5</ele>
        <time>2019-07-16T05:18:38Z</time>
      </trkpt>
      <trkpt lat="44.08865" lon="6.85743">
        <ele>867.8</ele>
        <time>2019-07-16T05:18:40Z</time>
      </trkpt>
      <trkpt lat="44.08869" lon="6.85746">
        <ele>868.1</ele>
        <time>2019-07-16T05:18:42Z</time>
      </trkpt>
      <trkpt lat="44.08872" lon="6.85749">
        <ele>868.4</ele>
        <time>2019-07-16T05:18:44Z</time>
      </trkpt>
      <trkpt lat="44.08875" lon="6.85754">
        <ele>868.7</ele>
        <time>2019-07-16T05:18:47Z</time>
      </trkpt>
      <trkpt lat="44.08877" lon="6.85758">
        <ele>869</ele>
        <time>2019-07-16T05:18:49Z</time>
      </trkpt>
      <trkpt lat="44.08879" lon="6.85763">
        <ele>869.3</ele>
        <time>2019-07-16T05:18:51Z</time>
      </trkpt>
      <trkpt lat="44.08882" lon="6.85767">
        <ele>869.7</ele>
        <time>2019-07-16T05:18:53Z</time>
      </trkpt>
      <trkpt lat="44.08883" lon="6.85772">
        <ele>870</ele>
        <time>2019-07-16T05:18:55Z</time>
      </trkpt>
      <trkpt lat="44.08885" lon="6.85777">
        <ele>870.3</ele>
        <time>2019-07-16T05:18:57Z</time>
      </trkpt>
      <trkpt lat="44.08886" lon="6.85781">
        <ele>870.6</ele>
        <time>2019-07-16T05:18:59Z</time>
      </trkpt>
      <trkpt lat="44.08887" lon="6.85785">
        <ele>871</ele>
        <time>2019-07-16T05:19:01Z</time>
      </trkpt>
      <trkpt lat="44.08889" lon="6.85789">
        <ele>871.4</ele>
        <time>2019-07-16T05:19:03Z</time>
      </trkpt>
      <trkpt lat="44.08889" lon="6.85793">
        <ele>871.8</ele>
        <time>2019-07-16T05:19:05Z</time>
      </trkpt>
      <trkpt lat="44.08889" lon="6.85798">
        <ele>872.4</ele>
        <time>2019-07-16T05:19:07Z</time>
      </trkpt>
      <trkpt lat="44.0889" lon="6.85802">
        <ele>872.9</ele>
        <time>2019-07-16T05:19:09Z</time>
      </trkpt>
      <trkpt lat="44.08892" lon="6.85807">
        <ele>873.6</ele>
        <time>2019-07-16T05:19:11Z</time>
      </trkpt>
      <trkpt lat="44.08895" lon="6.85811">
        <ele>874.3</ele>
        <time>2019-07-16T05:19:13Z</time>
      </trkpt>
      <trkpt lat="44.08896" lon="6.85815">
        <ele>874.8</ele>
        <time>2019-07-16T05:19:15Z</time>
      </trkpt>
      <trkpt lat="44.08899" lon="6.8582">
        <ele>875.4</ele>
        <time>2019-07-16T05:19:17Z</time>
      </trkpt>
      <trkpt lat="44.08902" lon="6.85822">
        <ele>875.9</ele>
        <time>2019-07-16T05:19:19Z</time>
      </trkpt>
      <trkpt lat="44.08905" lon="6.85825">
        <ele>876.5</ele>
        <time>2019-07-16T05:19:21Z</time>
      </trkpt>
      <trkpt lat="44.08908" lon="6.85828">
        <ele>877</ele>
        <time>2019-07-16T05:19:23Z</time>
      </trkpt>
      <trkpt lat="44.08912" lon="6.85831">
        <ele>877.5</ele>
        <time>2019-07-16T05:19:26Z</time>
      </trkpt>
      <trkpt lat="44.08914" lon="6.85836">
        <ele>878</ele>
        <time>2019-07-16T05:19:29Z</time>
      </trkpt>
      <trkpt lat="44.08911" lon="6.85837">
        <ele>878.4</ele>
        <time>2019-07-16T05:19:33Z</time>
      </trkpt>
      <trkpt lat="44.08909" lon="6.85834">
        <ele>878.7</ele>
        <time>2019-07-16T05:19:35Z</time>
      </trkpt>
      <trkpt lat="44.08907" lon="6.85831">
        <ele>879.1</ele>
        <time>2019-07-16T05:19:37Z</time>
      </trkpt>
      <trkpt lat="44.08904" lon="6.85828">
        <ele>879.4</ele>
        <time>2019-07-16T05:19:39Z</time>
      </trkpt>
      <trkpt lat="44.08901" lon="6.85824">
        <ele>879.9</ele>
        <time>2019-07-16T05:19:41Z</time>
      </trkpt>
      <trkpt lat="44.08898" lon="6.85822">
        <ele>880.2</ele>
        <time>2019-07-16T05:19:43Z</time>
      </trkpt>
      <trkpt lat="44.08896" lon="6.85819">
        <ele>880.5</ele>
        <time>2019-07-16T05:19:45Z</time>
      </trkpt>
      <trkpt lat="44.08893" lon="6.85816">
        <ele>880.9</ele>
        <time>2019-07-16T05:19:47Z</time>
      </trkpt>
      <trkpt lat="44.0889" lon="6.85812">
        <ele>881.3</ele>
        <time>2019-07-16T05:19:49Z</time>
      </trkpt>
      <trkpt lat="44.08888" lon="6.85809">
        <ele>881.7</ele>
        <time>2019-07-16T05:19:51Z</time>
      </trkpt>
      <trkpt lat="44.08885" lon="6.85805">
        <ele>882.2</ele>
        <time>2019-07-16T05:19:55Z</time>
      </trkpt>
      <trkpt lat="44.08882" lon="6.85801">
        <ele>882.7</ele>
        <time>2019-07-16T05:19:57Z</time>
      </trkpt>
      <trkpt lat="44.0888" lon="6.85798">
        <ele>883.1</ele>
        <time>2019-07-16T05:19:59Z</time>
      </trkpt>
      <trkpt lat="44.08877" lon="6.85795">
        <ele>883.5</ele>
        <time>2019-07-16T05:20:01Z</time>
      </trkpt>
      <trkpt lat="44.08875" lon="6.85791">
        <ele>883.9</ele>
        <time>2019-07-16T05:20:03Z</time>
      </trkpt>
      <trkpt lat="44.08872" lon="6.85787">
        <ele>884.3</ele>
        <time>2019-07-16T05:20:05Z</time>
      </trkpt>
      <trkpt lat="44.0887" lon="6.85784">
        <ele>884.6</ele>
        <time>2019-07-16T05:20:07Z</time>
      </trkpt>
      <trkpt lat="44.08867" lon="6.85781">
        <ele>885</ele>
        <time>2019-07-16T05:20:09Z</time>
      </trkpt>
      <trkpt lat="44.08863" lon="6.85779">
        <ele>885.5</ele>
        <time>2019-07-16T05:20:11Z</time>
      </trkpt>
      <trkpt lat="44.0886" lon="6.85778">
        <ele>885.8</ele>
        <time>2019-07-16T05:20:13Z</time>
      </trkpt>
      <trkpt lat="44.08856" lon="6.85777">
        <ele>886.2</ele>
        <time>2019-07-16T05:20:16Z</time>
      </trkpt>
      <trkpt lat="44.08852" lon="6.85776">
        <ele>886.6</ele>
        <time>2019-07-16T05:20:18Z</time>
      </trkpt>
      <trkpt lat="44.0885" lon="6.85775">
        <ele>886.8</ele>
        <time>2019-07-16T05:20:20Z</time>
      </trkpt>
      <trkpt lat="44.08846" lon="6.85776">
        <ele>887.2</ele>
        <time>2019-07-16T05:20:22Z</time>
      </trkpt>
      <trkpt lat="44.08842" lon="6.85775">
        <ele>887.5</ele>
        <time>2019-07-16T05:20:24Z</time>
      </trkpt>
      <trkpt lat="44.08838" lon="6.85773">
        <ele>887.9</ele>
        <time>2019-07-16T05:20:26Z</time>
      </trkpt>
      <trkpt lat="44.08835" lon="6.85771">
        <ele>888.2</ele>
        <time>2019-07-16T05:20:28Z</time>
      </trkpt>
      <trkpt lat="44.08832" lon="6.85771">
        <ele>888.6</ele>
        <time>2019-07-16T05:20:30Z</time>
      </trkpt>
      <trkpt lat="44.08828" lon="6.85772">
        <ele>888.9</ele>
        <time>2019-07-16T05:20:32Z</time>
      </trkpt>
      <trkpt lat="44.08824" lon="6.85772">
        <ele>889.3</ele>
        <time>2019-07-16T05:20:34Z</time>
      </trkpt>
      <trkpt lat="44.0882" lon="6.85771">
        <ele>889.6</ele>
        <time>2019-07-16T05:20:36Z</time>
      </trkpt>
      <trkpt lat="44.08816" lon="6.85771">
        <ele>890</ele>
        <time>2019-07-16T05:20:38Z</time>
      </trkpt>
      <trkpt lat="44.08813" lon="6.85771">
        <ele>890.4</ele>
        <time>2019-07-16T05:20:40Z</time>
      </trkpt>
      <trkpt lat="44.08809" lon="6.85771">
        <ele>890.7</ele>
        <time>2019-07-16T05:20:42Z</time>
      </trkpt>
      <trkpt lat="44.08805" lon="6.8577">
        <ele>891.1</ele>
        <time>2019-07-16T05:20:44Z</time>
      </trkpt>
      <trkpt lat="44.08802" lon="6.8577">
        <ele>891.4</ele>
        <time>2019-07-16T05:20:46Z</time>
      </trkpt>
      <trkpt lat="44.08799" lon="6.8577">
        <ele>891.6</ele>
        <time>2019-07-16T05:20:48Z</time>
      </trkpt>
      <trkpt lat="44.08795" lon="6.8577">
        <ele>891.8</ele>
        <time>2019-07-16T05:20:50Z</time>
      </trkpt>
      <trkpt lat="44.08792" lon="6.8577">
        <ele>892.1</ele>
        <time>2019-07-16T05:20:52Z</time>
      </trkpt>
      <trkpt lat="44.08788" lon="6.85771">
        <ele>892.3</ele>
        <time>2019-07-16T05:20:54Z</time>
      </trkpt>
      <trkpt lat="44.08785" lon="6.8577">
        <ele>892.6</ele>
        <time>2019-07-16T05:20:56Z</time>
      </trkpt>
      <trkpt lat="44.0878" lon="6.8577">
        <ele>892.9</ele>
        <time>2019-07-16T05:20:59Z</time>
      </trkpt>
      <trkpt lat="44.08777" lon="6.85769">
        <ele>893.1</ele>
        <time>2019-07-16T05:21:01Z</time>
      </trkpt>
      <trkpt lat="44.08773" lon="6.85769">
        <ele>893.5</ele>
        <time>2019-07-16T05:21:03Z</time>
      </trkpt>
      <trkpt lat="44.0877" lon="6.85768">
        <ele>893.8</ele>
        <time>2019-07-16T05:21:05Z</time>
      </trkpt>
      <trkpt lat="44.08766" lon="6.85768">
        <ele>894.2</ele>
        <time>2019-07-16T05:21:07Z</time>
      </trkpt>
      <trkpt lat="44.08763" lon="6.85768">
        <ele>894.6</ele>
        <time>2019-07-16T05:21:09Z</time>
      </trkpt>
      <trkpt lat="44.08759" lon="6.85768">
        <ele>895</ele>
        <time>2019-07-16T05:21:11Z</time>
      </trkpt>
      <trkpt lat="44.08756" lon="6.85768">
        <ele>895.4</ele>
        <time>2019-07-16T05:21:13Z</time>
      </trkpt>
      <trkpt lat="44.08753" lon="6.85767">
        <ele>895.8</ele>
        <time>2019-07-16T05:21:15Z</time>
      </trkpt>
      <trkpt lat="44.0875" lon="6.85767">
        <ele>896.1</ele>
        <time>2019-07-16T05:21:17Z</time>
      </trkpt>
      <trkpt lat="44.08746" lon="6.85767">
        <ele>896.6</ele>
        <time>2019-07-16T05:21:19Z</time>
      </trkpt>
      <trkpt lat="44.08743" lon="6.85765">
        <ele>897</ele>
        <time>2019-07-16T05:21:21Z</time>
      </trkpt>
      <trkpt lat="44.0874" lon="6.85764">
        <ele>897.3</ele>
        <time>2019-07-16T05:21:23Z</time>
      </trkpt>
      <trkpt lat="44.08737" lon="6.85764">
        <ele>897.7</ele>
        <time>2019-07-16T05:21:25Z</time>
      </trkpt>
      <trkpt lat="44.08733" lon="6.85763">
        <ele>898.2</ele>
        <time>2019-07-16T05:21:27Z</time>
      </trkpt>
      <trkpt lat="44.08729" lon="6.85763">
        <ele>898.7</ele>
        <time>2019-07-16T05:21:29Z</time>
      </trkpt>
      <trkpt lat="44.08725" lon="6.85761">
        <ele>899.2</ele>
        <time>2019-07-16T05:21:31Z</time>
      </trkpt>
      <trkpt lat="44.08722" lon="6.85761">
        <ele>899.6</ele>
        <time>2019-07-16T05:21:33Z</time>
      </trkpt>
      <trkpt lat="44.08719" lon="6.85761">
        <ele>899.9</ele>
        <time>2019-07-16T05:21:35Z</time>
      </trkpt>
      <trkpt lat="44.08715" lon="6.85761">
        <ele>900.4</ele>
        <time>2019-07-16T05:21:37Z</time>
      </trkpt>
      <trkpt lat="44.0871" lon="6.85762">
        <ele>900.9</ele>
        <time>2019-07-16T05:21:39Z</time>
      </trkpt>
      <trkpt lat="44.08706" lon="6.85763">
        <ele>901.4</ele>
        <time>2019-07-16T05:21:41Z</time>
      </trkpt>
      <trkpt lat="44.08702" lon="6.85765">
        <ele>901.8</ele>
        <time>2019-07-16T05:21:43Z</time>
      </trkpt>
      <trkpt lat="44.08699" lon="6.85767">
        <ele>902.1</ele>
        <time>2019-07-16T05:21:45Z</time>
      </trkpt>
      <trkpt lat="44.08696" lon="6.8577">
        <ele>902.5</ele>
        <time>2019-07-16T05:21:47Z</time>
      </trkpt>
      <trkpt lat="44.08693" lon="6.85773">
        <ele>902.8</ele>
        <time>2019-07-16T05:21:49Z</time>
      </trkpt>
      <trkpt lat="44.0869" lon="6.85777">
        <ele>903.1</ele>
        <time>2019-07-16T05:21:51Z</time>
      </trkpt>
      <trkpt lat="44.08687" lon="6.85781">
        <ele>903.4</ele>
        <time>2019-07-16T05:21:53Z</time>
      </trkpt>
      <trkpt lat="44.08684" lon="6.85785">
        <ele>903.8</ele>
        <time>2019-07-16T05:21:55Z</time>
      </trkpt>
      <trkpt lat="44.08682" lon="6.85788">
        <ele>904.1</ele>
        <time>2019-07-16T05:21:57Z</time>
      </trkpt>
      <trkpt lat="44.08679" lon="6.85792">
        <ele>904.3</ele>
        <time>2019-07-16T05:21:59Z</time>
      </trkpt>
      <trkpt lat="44.08677" lon="6.85794">
        <ele>904.6</ele>
        <time>2019-07-16T05:22:01Z</time>
      </trkpt>
      <trkpt lat="44.08674" lon="6.85798">
        <ele>904.9</ele>
        <time>2019-07-16T05:22:03Z</time>
      </trkpt>
      <trkpt lat="44.08671" lon="6.85801">
        <ele>905.1</ele>
        <time>2019-07-16T05:22:05Z</time>
      </trkpt>
      <trkpt lat="44.08669" lon="6.85805">
        <ele>905.4</ele>
        <time>2019-07-16T05:22:08Z</time>
      </trkpt>
      <trkpt lat="44.08665" lon="6.85809">
        <ele>905.7</ele>
        <time>2019-07-16T05:22:10Z</time>
      </trkpt>
      <trkpt lat="44.08663" lon="6.85811">
        <ele>905.9</ele>
        <time>2019-07-16T05:22:12Z</time>
      </trkpt>
      <trkpt lat="44.08661" lon="6.85815">
        <ele>906.2</ele>
        <time>2019-07-16T05:22:14Z</time>
      </trkpt>
      <trkpt lat="44.08658" lon="6.8582">
        <ele>906.5</ele>
        <time>2019-07-16T05:22:16Z</time>
      </trkpt>
      <trkpt lat="44.08655" lon="6.85824">
        <ele>906.9</ele>
        <time>2019-07-16T05:22:18Z</time>
      </trkpt>
      <trkpt lat="44.08652" lon="6.85828">
        <ele>907.2</ele>
        <time>2019-07-16T05:22:20Z</time>
      </trkpt>
      <trkpt lat="44.0865" lon="6.85832">
        <ele>907.4</ele>
        <time>2019-07-16T05:22:22Z</time>
      </trkpt>
      <trkpt lat="44.08647" lon="6.85835">
        <ele>907.7</ele>
        <time>2019-07-16T05:22:24Z</time>
      </trkpt>
      <trkpt lat="44.08645" lon="6.85838">
        <ele>907.9</ele>
        <time>2019-07-16T05:22:26Z</time>
      </trkpt>
      <trkpt lat="44.08642" lon="6.85841">
        <ele>908.2</ele>
        <time>2019-07-16T05:22:28Z</time>
      </trkpt>
      <trkpt lat="44.08639" lon="6.85843">
        <ele>908.4</ele>
        <time>2019-07-16T05:22:30Z</time>
      </trkpt>
      <trkpt lat="44.08636" lon="6.85846">
        <ele>908.6</ele>
        <time>2019-07-16T05:22:32Z</time>
      </trkpt>
      <trkpt lat="44.08634" lon="6.85849">
        <ele>908.8</ele>
        <time>2019-07-16T05:22:34Z</time>
      </trkpt>
      <trkpt lat="44.08632" lon="6.85852">
        <ele>909.1</ele>
        <time>2019-07-16T05:22:36Z</time>
      </trkpt>
      <trkpt lat="44.0863" lon="6.85854">
        <ele>909.3</ele>
        <time>2019-07-16T05:22:38Z</time>
      </trkpt>
      <trkpt lat="44.08627" lon="6.85856">
        <ele>909.5</ele>
        <time>2019-07-16T05:22:40Z</time>
      </trkpt>
      <trkpt lat="44.08624" lon="6.85859">
        <ele>909.7</ele>
        <time>2019-07-16T05:22:42Z</time>
      </trkpt>
      <trkpt lat="44.08621" lon="6.85862">
        <ele>910</ele>
        <time>2019-07-16T05:22:44Z</time>
      </trkpt>
      <trkpt lat="44.08618" lon="6.85864">
        <ele>910.2</ele>
        <time>2019-07-16T05:22:46Z</time>
      </trkpt>
      <trkpt lat="44.08614" lon="6.85867">
        <ele>910.5</ele>
        <time>2019-07-16T05:22:48Z</time>
      </trkpt>
      <trkpt lat="44.08612" lon="6.85869">
        <ele>910.7</ele>
        <time>2019-07-16T05:22:50Z</time>
      </trkpt>
      <trkpt lat="44.08608" lon="6.85871">
        <ele>911</ele>
        <time>2019-07-16T05:22:52Z</time>
      </trkpt>
      <trkpt lat="44.08606" lon="6.85873">
        <ele>911.2</ele>
        <time>2019-07-16T05:22:54Z</time>
      </trkpt>
      <trkpt lat="44.08603" lon="6.85875">
        <ele>911.5</ele>
        <time>2019-07-16T05:22:56Z</time>
      </trkpt>
      <trkpt lat="44.08601" lon="6.85877">
        <ele>911.7</ele>
        <time>2019-07-16T05:22:58Z</time>
      </trkpt>
      <trkpt lat="44.08598" lon="6.85878">
        <ele>911.9</ele>
        <time>2019-07-16T05:23:00Z</time>
      </trkpt>
      <trkpt lat="44.08595" lon="6.85881">
        <ele>912.2</ele>
        <time>2019-07-16T05:23:03Z</time>
      </trkpt>
      <trkpt lat="44.08592" lon="6.85883">
        <ele>912.4</ele>
        <time>2019-07-16T05:23:05Z</time>
      </trkpt>
      <trkpt lat="44.08589" lon="6.85885">
        <ele>912.8</ele>
        <time>2019-07-16T05:23:08Z</time>
      </trkpt>
      <trkpt lat="44.08586" lon="6.85886">
        <ele>913</ele>
        <time>2019-07-16T05:23:12Z</time>
      </trkpt>
      <trkpt lat="44.08582" lon="6.8589">
        <ele>913.4</ele>
        <time>2019-07-16T05:23:15Z</time>
      </trkpt>
      <trkpt lat="44.08578" lon="6.8589">
        <ele>913.8</ele>
        <time>2019-07-16T05:23:17Z</time>
      </trkpt>
      <trkpt lat="44.08575" lon="6.85893">
        <ele>914.2</ele>
        <time>2019-07-16T05:23:19Z</time>
      </trkpt>
      <trkpt lat="44.08571" lon="6.85893">
        <ele>914.5</ele>
        <time>2019-07-16T05:23:21Z</time>
      </trkpt>
      <trkpt lat="44.08567" lon="6.85894">
        <ele>914.9</ele>
        <time>2019-07-16T05:23:23Z</time>
      </trkpt>
      <trkpt lat="44.08563" lon="6.85896">
        <ele>915.4</ele>
        <time>2019-07-16T05:23:25Z</time>
      </trkpt>
      <trkpt lat="44.08559" lon="6.85898">
        <ele>915.8</ele>
        <time>2019-07-16T05:23:27Z</time>
      </trkpt>
      <trkpt lat="44.08556" lon="6.85899">
        <ele>916.2</ele>
        <time>2019-07-16T05:23:29Z</time>
      </trkpt>
      <trkpt lat="44.08552" lon="6.859">
        <ele>916.5</ele>
        <time>2019-07-16T05:23:31Z</time>
      </trkpt>
      <trkpt lat="44.08548" lon="6.859">
        <ele>916.9</ele>
        <time>2019-07-16T05:23:33Z</time>
      </trkpt>
      <trkpt lat="44.08545" lon="6.85901">
        <ele>917.3</ele>
        <time>2019-07-16T05:23:35Z</time>
      </trkpt>
      <trkpt lat="44.08541" lon="6.85902">
        <ele>917.6</ele>
        <time>2019-07-16T05:23:37Z</time>
      </trkpt>
      <trkpt lat="44.08538" lon="6.85904">
        <ele>918</ele>
        <time>2019-07-16T05:23:39Z</time>
      </trkpt>
      <trkpt lat="44.08534" lon="6.85906">
        <ele>918.4</ele>
        <time>2019-07-16T05:23:41Z</time>
      </trkpt>
      <trkpt lat="44.0853" lon="6.85908">
        <ele>918.8</ele>
        <time>2019-07-16T05:23:43Z</time>
      </trkpt>
      <trkpt lat="44.08526" lon="6.85911">
        <ele>919.2</ele>
        <time>2019-07-16T05:23:45Z</time>
      </trkpt>
      <trkpt lat="44.08522" lon="6.85913">
        <ele>919.5</ele>
        <time>2019-07-16T05:23:47Z</time>
      </trkpt>
      <trkpt lat="44.08519" lon="6.85916">
        <ele>919.9</ele>
        <time>2019-07-16T05:23:49Z</time>
      </trkpt>
      <trkpt lat="44.08515" lon="6.8592">
        <ele>920.3</ele>
        <time>2019-07-16T05:23:51Z</time>
      </trkpt>
      <trkpt lat="44.08513" lon="6.85924">
        <ele>920.6</ele>
        <time>2019-07-16T05:23:53Z</time>
      </trkpt>
      <trkpt lat="44.08509" lon="6.85929">
        <ele>920.9</ele>
        <time>2019-07-16T05:23:55Z</time>
      </trkpt>
      <trkpt lat="44.08507" lon="6.85932">
        <ele>921.2</ele>
        <time>2019-07-16T05:23:57Z</time>
      </trkpt>
      <trkpt lat="44.08504" lon="6.85936">
        <ele>921.5</ele>
        <time>2019-07-16T05:23:59Z</time>
      </trkpt>
      <trkpt lat="44.08501" lon="6.85937">
        <ele>921.7</ele>
        <time>2019-07-16T05:24:01Z</time>
      </trkpt>
      <trkpt lat="44.08498" lon="6.85939">
        <ele>922</ele>
        <time>2019-07-16T05:24:03Z</time>
      </trkpt>
      <trkpt lat="44.08494" lon="6.8594">
        <ele>922.2</ele>
        <time>2019-07-16T05:24:05Z</time>
      </trkpt>
      <trkpt lat="44.08491" lon="6.85941">
        <ele>922.5</ele>
        <time>2019-07-16T05:24:07Z</time>
      </trkpt>
      <trkpt lat="44.08487" lon="6.85943">
        <ele>922.8</ele>
        <time>2019-07-16T05:24:09Z</time>
      </trkpt>
      <trkpt lat="44.08484" lon="6.85944">
        <ele>923</ele>
        <time>2019-07-16T05:24:11Z</time>
      </trkpt>
      <trkpt lat="44.08482" lon="6.85945">
        <ele>923.2</ele>
        <time>2019-07-16T05:24:13Z</time>
      </trkpt>
      <trkpt lat="44.08479" lon="6.85948">
        <ele>923.5</ele>
        <time>2019-07-16T05:24:15Z</time>
      </trkpt>
      <trkpt lat="44.08475" lon="6.8595">
        <ele>923.7</ele>
        <time>2019-07-16T05:24:17Z</time>
      </trkpt>
      <trkpt lat="44.08472" lon="6.85953">
        <ele>924</ele>
        <time>2019-07-16T05:24:19Z</time>
      </trkpt>
      <trkpt lat="44.08469" lon="6.85956">
        <ele>924.3</ele>
        <time>2019-07-16T05:24:21Z</time>
      </trkpt>
      <trkpt lat="44.08466" lon="6.85958">
        <ele>924.5</ele>
        <time>2019-07-16T05:24:23Z</time>
      </trkpt>
      <trkpt lat="44.08463" lon="6.85961">
        <ele>924.8</ele>
        <time>2019-07-16T05:24:26Z</time>
      </trkpt>
      <trkpt lat="44.08461" lon="6.85964">
        <ele>925</ele>
        <time>2019-07-16T05:24:28Z</time>
      </trkpt>
      <trkpt lat="44.08458" lon="6.85968">
        <ele>925.3</ele>
        <time>2019-07-16T05:24:31Z</time>
      </trkpt>
      <trkpt lat="44.08456" lon="6.85971">
        <ele>925.5</ele>
        <time>2019-07-16T05:25:07Z</time>
      </trkpt>
      <trkpt lat="44.08454" lon="6.85975">
        <ele>925.7</ele>
        <time>2019-07-16T05:25:09Z</time>
      </trkpt>
      <trkpt lat="44.08453" lon="6.85978">
        <ele>925.9</ele>
        <time>2019-07-16T05:25:11Z</time>
      </trkpt>
      <trkpt lat="44.08451" lon="6.85981">
        <ele>926.1</ele>
        <time>2019-07-16T05:25:13Z</time>
      </trkpt>
      <trkpt lat="44.08449" lon="6.85985">
        <ele>926.3</ele>
        <time>2019-07-16T05:25:15Z</time>
      </trkpt>
      <trkpt lat="44.08447" lon="6.85987">
        <ele>926.5</ele>
        <time>2019-07-16T05:25:17Z</time>
      </trkpt>
      <trkpt lat="44.08444" lon="6.8599">
        <ele>926.7</ele>
        <time>2019-07-16T05:25:19Z</time>
      </trkpt>
      <trkpt lat="44.0844" lon="6.85991">
        <ele>927</ele>
        <time>2019-07-16T05:25:21Z</time>
      </trkpt>
      <trkpt lat="44.08437" lon="6.85993">
        <ele>927.3</ele>
        <time>2019-07-16T05:25:23Z</time>
      </trkpt>
      <trkpt lat="44.08434" lon="6.85995">
        <ele>927.5</ele>
        <time>2019-07-16T05:25:25Z</time>
      </trkpt>
      <trkpt lat="44.08431" lon="6.85996">
        <ele>927.8</ele>
        <time>2019-07-16T05:25:27Z</time>
      </trkpt>
      <trkpt lat="44.08427" lon="6.85997">
        <ele>928.1</ele>
        <time>2019-07-16T05:25:29Z</time>
      </trkpt>
      <trkpt lat="44.08424" lon="6.85998">
        <ele>928.3</ele>
        <time>2019-07-16T05:25:31Z</time>
      </trkpt>
      <trkpt lat="44.0842" lon="6.85998">
        <ele>928.6</ele>
        <time>2019-07-16T05:25:33Z</time>
      </trkpt>
      <trkpt lat="44.08417" lon="6.85998">
        <ele>928.9</ele>
        <time>2019-07-16T05:25:35Z</time>
      </trkpt>
      <trkpt lat="44.08414" lon="6.85998">
        <ele>929.2</ele>
        <time>2019-07-16T05:25:37Z</time>
      </trkpt>
      <trkpt lat="44.0841" lon="6.85999">
        <ele>929.5</ele>
        <time>2019-07-16T05:25:39Z</time>
      </trkpt>
      <trkpt lat="44.08407" lon="6.86">
        <ele>929.8</ele>
        <time>2019-07-16T05:25:41Z</time>
      </trkpt>
      <trkpt lat="44.08403" lon="6.86002">
        <ele>930.2</ele>
        <time>2019-07-16T05:25:43Z</time>
      </trkpt>
      <trkpt lat="44.084" lon="6.86004">
        <ele>930.5</ele>
        <time>2019-07-16T05:25:45Z</time>
      </trkpt>
      <trkpt lat="44.08396" lon="6.86007">
        <ele>930.9</ele>
        <time>2019-07-16T05:25:47Z</time>
      </trkpt>
      <trkpt lat="44.08393" lon="6.86009">
        <ele>931.2</ele>
        <time>2019-07-16T05:25:49Z</time>
      </trkpt>
      <trkpt lat="44.0839" lon="6.86011">
        <ele>931.6</ele>
        <time>2019-07-16T05:25:51Z</time>
      </trkpt>
      <trkpt lat="44.08387" lon="6.86014">
        <ele>931.9</ele>
        <time>2019-07-16T05:25:53Z</time>
      </trkpt>
      <trkpt lat="44.08384" lon="6.86017">
        <ele>932.2</ele>
        <time>2019-07-16T05:25:55Z</time>
      </trkpt>
      <trkpt lat="44.08382" lon="6.86022">
        <ele>932.6</ele>
        <time>2019-07-16T05:25:57Z</time>
      </trkpt>
      <trkpt lat="44.08379" lon="6.86026">
        <ele>933</ele>
        <time>2019-07-16T05:25:59Z</time>
      </trkpt>
      <trkpt lat="44.08377" lon="6.8603">
        <ele>933.4</ele>
        <time>2019-07-16T05:26:01Z</time>
      </trkpt>
      <trkpt lat="44.08375" lon="6.86034">
        <ele>933.7</ele>
        <time>2019-07-16T05:26:03Z</time>
      </trkpt>
      <trkpt lat="44.08373" lon="6.86038">
        <ele>934</ele>
        <time>2019-07-16T05:26:05Z</time>
      </trkpt>
      <trkpt lat="44.08372" lon="6.86043">
        <ele>934.4</ele>
        <time>2019-07-16T05:26:07Z</time>
      </trkpt>
      <trkpt lat="44.0837" lon="6.86048">
        <ele>934.8</ele>
        <time>2019-07-16T05:26:09Z</time>
      </trkpt>
      <trkpt lat="44.08368" lon="6.86052">
        <ele>935.1</ele>
        <time>2019-07-16T05:26:11Z</time>
      </trkpt>
      <trkpt lat="44.08366" lon="6.86057">
        <ele>935.5</ele>
        <time>2019-07-16T05:26:13Z</time>
      </trkpt>
      <trkpt lat="44.08365" lon="6.86061">
        <ele>935.9</ele>
        <time>2019-07-16T05:26:15Z</time>
      </trkpt>
      <trkpt lat="44.08362" lon="6.86065">
        <ele>936.3</ele>
        <time>2019-07-16T05:26:17Z</time>
      </trkpt>
      <trkpt lat="44.08361" lon="6.86069">
        <ele>936.7</ele>
        <time>2019-07-16T05:26:19Z</time>
      </trkpt>
      <trkpt lat="44.08359" lon="6.86072">
        <ele>937.1</ele>
        <time>2019-07-16T05:26:21Z</time>
      </trkpt>
      <trkpt lat="44.08357" lon="6.86076">
        <ele>937.5</ele>
        <time>2019-07-16T05:26:23Z</time>
      </trkpt>
      <trkpt lat="44.08355" lon="6.86079">
        <ele>937.9</ele>
        <time>2019-07-16T05:26:25Z</time>
      </trkpt>
      <trkpt lat="44.08353" lon="6.86084">
        <ele>938.4</ele>
        <time>2019-07-16T05:26:27Z</time>
      </trkpt>
      <trkpt lat="44.08351" lon="6.86089">
        <ele>938.8</ele>
        <time>2019-07-16T05:26:29Z</time>
      </trkpt>
      <trkpt lat="44.0835" lon="6.86093">
        <ele>939.3</ele>
        <time>2019-07-16T05:26:31Z</time>
      </trkpt>
      <trkpt lat="44.08347" lon="6.86097">
        <ele>939.8</ele>
        <time>2019-07-16T05:26:33Z</time>
      </trkpt>
      <trkpt lat="44.08345" lon="6.86101">
        <ele>940.4</ele>
        <time>2019-07-16T05:26:35Z</time>
      </trkpt>
      <trkpt lat="44.08344" lon="6.86106">
        <ele>940.9</ele>
        <time>2019-07-16T05:26:37Z</time>
      </trkpt>
      <trkpt lat="44.08343" lon="6.86112">
        <ele>941.5</ele>
        <time>2019-07-16T05:26:39Z</time>
      </trkpt>
      <trkpt lat="44.08343" lon="6.86118">
        <ele>942.1</ele>
        <time>2019-07-16T05:26:41Z</time>
      </trkpt>
      <trkpt lat="44.08344" lon="6.86123">
        <ele>942.6</ele>
        <time>2019-07-16T05:26:43Z</time>
      </trkpt>
      <trkpt lat="44.08345" lon="6.86128">
        <ele>943.1</ele>
        <time>2019-07-16T05:26:45Z</time>
      </trkpt>
      <trkpt lat="44.08346" lon="6.86133">
        <ele>943.6</ele>
        <time>2019-07-16T05:26:47Z</time>
      </trkpt>
      <trkpt lat="44.08348" lon="6.86137">
        <ele>944</ele>
        <time>2019-07-16T05:26:49Z</time>
      </trkpt>
      <trkpt lat="44.0835" lon="6.86142">
        <ele>944.5</ele>
        <time>2019-07-16T05:26:51Z</time>
      </trkpt>
      <trkpt lat="44.08351" lon="6.86148">
        <ele>944.9</ele>
        <time>2019-07-16T05:26:53Z</time>
      </trkpt>
      <trkpt lat="44.08352" lon="6.86153">
        <ele>945.3</ele>
        <time>2019-07-16T05:26:55Z</time>
      </trkpt>
      <trkpt lat="44.08353" lon="6.86158">
        <ele>945.7</ele>
        <time>2019-07-16T05:26:57Z</time>
      </trkpt>
      <trkpt lat="44.08355" lon="6.86163">
        <ele>946</ele>
        <time>2019-07-16T05:26:59Z</time>
      </trkpt>
      <trkpt lat="44.08356" lon="6.86167">
        <ele>946.3</ele>
        <time>2019-07-16T05:27:01Z</time>
      </trkpt>
      <trkpt lat="44.08357" lon="6.86172">
        <ele>946.7</ele>
        <time>2019-07-16T05:27:03Z</time>
      </trkpt>
      <trkpt lat="44.08358" lon="6.86176">
        <ele>947</ele>
        <time>2019-07-16T05:27:05Z</time>
      </trkpt>
      <trkpt lat="44.0836" lon="6.86181">
        <ele>947.3</ele>
        <time>2019-07-16T05:27:07Z</time>
      </trkpt>
      <trkpt lat="44.08362" lon="6.86186">
        <ele>947.6</ele>
        <time>2019-07-16T05:27:09Z</time>
      </trkpt>
      <trkpt lat="44.08364" lon="6.86191">
        <ele>947.9</ele>
        <time>2019-07-16T05:27:11Z</time>
      </trkpt>
      <trkpt lat="44.08365" lon="6.86196">
        <ele>948.2</ele>
        <time>2019-07-16T05:27:13Z</time>
      </trkpt>
      <trkpt lat="44.08366" lon="6.862">
        <ele>948.5</ele>
        <time>2019-07-16T05:27:15Z</time>
      </trkpt>
      <trkpt lat="44.08367" lon="6.86205">
        <ele>948.8</ele>
        <time>2019-07-16T05:27:17Z</time>
      </trkpt>
      <trkpt lat="44.08368" lon="6.8621">
        <ele>949</ele>
        <time>2019-07-16T05:27:19Z</time>
      </trkpt>
      <trkpt lat="44.0837" lon="6.86214">
        <ele>949.3</ele>
        <time>2019-07-16T05:27:21Z</time>
      </trkpt>
      <trkpt lat="44.08371" lon="6.86218">
        <ele>949.5</ele>
        <time>2019-07-16T05:27:23Z</time>
      </trkpt>
      <trkpt lat="44.08373" lon="6.86223">
        <ele>949.9</ele>
        <time>2019-07-16T05:27:25Z</time>
      </trkpt>
      <trkpt lat="44.08374" lon="6.86227">
        <ele>950.1</ele>
        <time>2019-07-16T05:27:27Z</time>
      </trkpt>
      <trkpt lat="44.08376" lon="6.86231">
        <ele>950.3</ele>
        <time>2019-07-16T05:27:29Z</time>
      </trkpt>
      <trkpt lat="44.08377" lon="6.86235">
        <ele>950.6</ele>
        <time>2019-07-16T05:27:31Z</time>
      </trkpt>
      <trkpt lat="44.08379" lon="6.86239">
        <ele>950.8</ele>
        <time>2019-07-16T05:27:33Z</time>
      </trkpt>
      <trkpt lat="44.08379" lon="6.86244">
        <ele>951.1</ele>
        <time>2019-07-16T05:27:35Z</time>
      </trkpt>
      <trkpt lat="44.08381" lon="6.86249">
        <ele>951.4</ele>
        <time>2019-07-16T05:27:37Z</time>
      </trkpt>
      <trkpt lat="44.08383" lon="6.86253">
        <ele>951.8</ele>
        <time>2019-07-16T05:27:39Z</time>
      </trkpt>
      <trkpt lat="44.08384" lon="6.86259">
        <ele>952.1</ele>
        <time>2019-07-16T05:27:41Z</time>
      </trkpt>
      <trkpt lat="44.08385" lon="6.86264">
        <ele>952.4</ele>
        <time>2019-07-16T05:27:43Z</time>
      </trkpt>
      <trkpt lat="44.08387" lon="6.86269">
        <ele>952.7</ele>
        <time>2019-07-16T05:27:45Z</time>
      </trkpt>
      <trkpt lat="44.08389" lon="6.86273">
        <ele>953.1</ele>
        <time>2019-07-16T05:27:47Z</time>
      </trkpt>
      <trkpt lat="44.08391" lon="6.86278">
        <ele>953.4</ele>
        <time>2019-07-16T05:27:49Z</time>
      </trkpt>
      <trkpt lat="44.08393" lon="6.86283">
        <ele>953.8</ele>
        <time>2019-07-16T05:27:51Z</time>
      </trkpt>
      <trkpt lat="44.08394" lon="6.86288">
        <ele>954.2</ele>
        <time>2019-07-16T05:27:53Z</time>
      </trkpt>
      <trkpt lat="44.08396" lon="6.86292">
        <ele>954.5</ele>
        <time>2019-07-16T05:27:55Z</time>
      </trkpt>
      <trkpt lat="44.08398" lon="6.86297">
        <ele>954.9</ele>
        <time>2019-07-16T05:27:57Z</time>
      </trkpt>
      <trkpt lat="44.084" lon="6.86302">
        <ele>955.2</ele>
        <time>2019-07-16T05:27:59Z</time>
      </trkpt>
      <trkpt lat="44.08402" lon="6.86306">
        <ele>955.6</ele>
        <time>2019-07-16T05:28:01Z</time>
      </trkpt>
      <trkpt lat="44.08403" lon="6.8631">
        <ele>955.9</ele>
        <time>2019-07-16T05:28:03Z</time>
      </trkpt>
      <trkpt lat="44.08405" lon="6.86314">
        <ele>956.2</ele>
        <time>2019-07-16T05:28:05Z</time>
      </trkpt>
      <trkpt lat="44.08407" lon="6.86318">
        <ele>956.5</ele>
        <time>2019-07-16T05:28:07Z</time>
      </trkpt>
      <trkpt lat="44.08408" lon="6.86322">
        <ele>956.9</ele>
        <time>2019-07-16T05:28:09Z</time>
      </trkpt>
      <trkpt lat="44.0841" lon="6.86326">
        <ele>957.2</ele>
        <time>2019-07-16T05:28:11Z</time>
      </trkpt>
      <trkpt lat="44.08411" lon="6.8633">
        <ele>957.5</ele>
        <time>2019-07-16T05:28:13Z</time>
      </trkpt>
      <trkpt lat="44.08413" lon="6.86335">
        <ele>957.9</ele>
        <time>2019-07-16T05:28:15Z</time>
      </trkpt>
      <trkpt lat="44.08414" lon="6.86339">
        <ele>958.2</ele>
        <time>2019-07-16T05:28:17Z</time>
      </trkpt>
      <trkpt lat="44.08416" lon="6.86343">
        <ele>958.5</ele>
        <time>2019-07-16T05:28:19Z</time>
      </trkpt>
      <trkpt lat="44.08416" lon="6.86348">
        <ele>958.9</ele>
        <time>2019-07-16T05:28:21Z</time>
      </trkpt>
      <trkpt lat="44.08418" lon="6.86353">
        <ele>959.2</ele>
        <time>2019-07-16T05:28:23Z</time>
      </trkpt>
      <trkpt lat="44.08418" lon="6.86357">
        <ele>959.6</ele>
        <time>2019-07-16T05:28:25Z</time>
      </trkpt>
      <trkpt lat="44.0842" lon="6.86363">
        <ele>960</ele>
        <time>2019-07-16T05:28:27Z</time>
      </trkpt>
      <trkpt lat="44.0842" lon="6.86367">
        <ele>960.3</ele>
        <time>2019-07-16T05:28:29Z</time>
      </trkpt>
      <trkpt lat="44.08421" lon="6.86372">
        <ele>960.6</ele>
        <time>2019-07-16T05:28:31Z</time>
      </trkpt>
      <trkpt lat="44.08421" lon="6.86377">
        <ele>961</ele>
        <time>2019-07-16T05:28:33Z</time>
      </trkpt>
      <trkpt lat="44.08421" lon="6.86382">
        <ele>961.3</ele>
        <time>2019-07-16T05:28:35Z</time>
      </trkpt>
      <trkpt lat="44.08421" lon="6.86386">
        <ele>961.6</ele>
        <time>2019-07-16T05:28:37Z</time>
      </trkpt>
      <trkpt lat="44.0842" lon="6.86391">
        <ele>961.9</ele>
        <time>2019-07-16T05:28:39Z</time>
      </trkpt>
      <trkpt lat="44.08419" lon="6.86397">
        <ele>962.3</ele>
        <time>2019-07-16T05:28:41Z</time>
      </trkpt>
      <trkpt lat="44.08419" lon="6.86402">
        <ele>962.6</ele>
        <time>2019-07-16T05:28:43Z</time>
      </trkpt>
      <trkpt lat="44.08419" lon="6.86407">
        <ele>962.9</ele>
        <time>2019-07-16T05:28:45Z</time>
      </trkpt>
      <trkpt lat="44.08419" lon="6.86412">
        <ele>963.2</ele>
        <time>2019-07-16T05:28:47Z</time>
      </trkpt>
      <trkpt lat="44.0842" lon="6.86417">
        <ele>963.5</ele>
        <time>2019-07-16T05:28:49Z</time>
      </trkpt>
      <trkpt lat="44.0842" lon="6.86422">
        <ele>963.9</ele>
        <time>2019-07-16T05:28:52Z</time>
      </trkpt>
      <trkpt lat="44.08421" lon="6.86428">
        <ele>964.2</ele>
        <time>2019-07-16T05:28:54Z</time>
      </trkpt>
      <trkpt lat="44.08422" lon="6.86434">
        <ele>964.5</ele>
        <time>2019-07-16T05:28:56Z</time>
      </trkpt>
      <trkpt lat="44.08422" lon="6.86439">
        <ele>964.8</ele>
        <time>2019-07-16T05:28:58Z</time>
      </trkpt>
      <trkpt lat="44.08422" lon="6.86444">
        <ele>965.2</ele>
        <time>2019-07-16T05:29:00Z</time>
      </trkpt>
      <trkpt lat="44.08423" lon="6.86449">
        <ele>965.5</ele>
        <time>2019-07-16T05:29:02Z</time>
      </trkpt>
      <trkpt lat="44.08423" lon="6.86454">
        <ele>965.8</ele>
        <time>2019-07-16T05:29:04Z</time>
      </trkpt>
      <trkpt lat="44.08423" lon="6.86459">
        <ele>966.1</ele>
        <time>2019-07-16T05:29:06Z</time>
      </trkpt>
      <trkpt lat="44.08424" lon="6.86465">
        <ele>966.4</ele>
        <time>2019-07-16T05:29:08Z</time>
      </trkpt>
      <trkpt lat="44.08424" lon="6.86469">
        <ele>966.7</ele>
        <time>2019-07-16T05:29:10Z</time>
      </trkpt>
      <trkpt lat="44.08425" lon="6.86474">
        <ele>966.9</ele>
        <time>2019-07-16T05:29:12Z</time>
      </trkpt>
      <trkpt lat="44.08425" lon="6.86479">
        <ele>967.2</ele>
        <time>2019-07-16T05:29:14Z</time>
      </trkpt>
      <trkpt lat="44.08426" lon="6.86485">
        <ele>967.6</ele>
        <time>2019-07-16T05:29:16Z</time>
      </trkpt>
      <trkpt lat="44.08425" lon="6.8649">
        <ele>967.9</ele>
        <time>2019-07-16T05:29:18Z</time>
      </trkpt>
      <trkpt lat="44.08426" lon="6.86495">
        <ele>968.2</ele>
        <time>2019-07-16T05:29:20Z</time>
      </trkpt>
      <trkpt lat="44.08426" lon="6.865">
        <ele>968.6</ele>
        <time>2019-07-16T05:29:22Z</time>
      </trkpt>
      <trkpt lat="44.08427" lon="6.86505">
        <ele>968.9</ele>
        <time>2019-07-16T05:29:24Z</time>
      </trkpt>
      <trkpt lat="44.08428" lon="6.8651">
        <ele>969.2</ele>
        <time>2019-07-16T05:29:26Z</time>
      </trkpt>
      <trkpt lat="44.08427" lon="6.86515">
        <ele>969.5</ele>
        <time>2019-07-16T05:29:28Z</time>
      </trkpt>
      <trkpt lat="44.08427" lon="6.86522">
        <ele>969.9</ele>
        <time>2019-07-16T05:29:30Z</time>
      </trkpt>
      <trkpt lat="44.08428" lon="6.86527">
        <ele>970.3</ele>
        <time>2019-07-16T05:29:32Z</time>
      </trkpt>
      <trkpt lat="44.08428" lon="6.86532">
        <ele>970.6</ele>
        <time>2019-07-16T05:29:34Z</time>
      </trkpt>
      <trkpt lat="44.08428" lon="6.86537">
        <ele>970.9</ele>
        <time>2019-07-16T05:29:36Z</time>
      </trkpt>
      <trkpt lat="44.08428" lon="6.86541">
        <ele>971.2</ele>
        <time>2019-07-16T05:29:38Z</time>
      </trkpt>
      <trkpt lat="44.08427" lon="6.86545">
        <ele>971.5</ele>
        <time>2019-07-16T05:29:40Z</time>
      </trkpt>
      <trkpt lat="44.08427" lon="6.8655">
        <ele>971.7</ele>
        <time>2019-07-16T05:29:42Z</time>
      </trkpt>
      <trkpt lat="44.08427" lon="6.86555">
        <ele>972.1</ele>
        <time>2019-07-16T05:29:44Z</time>
      </trkpt>
      <trkpt lat="44.08427" lon="6.86559">
        <ele>972.4</ele>
        <time>2019-07-16T05:29:46Z</time>
      </trkpt>
      <trkpt lat="44.08426" lon="6.86563">
        <ele>972.6</ele>
        <time>2019-07-16T05:29:48Z</time>
      </trkpt>
      <trkpt lat="44.08426" lon="6.86568">
        <ele>973</ele>
        <time>2019-07-16T05:29:50Z</time>
      </trkpt>
      <trkpt lat="44.08425" lon="6.86573">
        <ele>973.3</ele>
        <time>2019-07-16T05:29:52Z</time>
      </trkpt>
      <trkpt lat="44.08425" lon="6.86577">
        <ele>973.6</ele>
        <time>2019-07-16T05:29:54Z</time>
      </trkpt>
      <trkpt lat="44.08425" lon="6.86581">
        <ele>973.8</ele>
        <time>2019-07-16T05:29:56Z</time>
      </trkpt>
      <trkpt lat="44.08424" lon="6.86586">
        <ele>974.2</ele>
        <time>2019-07-16T05:29:58Z</time>
      </trkpt>
      <trkpt lat="44.08424" lon="6.86592">
        <ele>974.6</ele>
        <time>2019-07-16T05:30:00Z</time>
      </trkpt>
      <trkpt lat="44.08424" lon="6.86597">
        <ele>974.9</ele>
        <time>2019-07-16T05:30:02Z</time>
      </trkpt>
      <trkpt lat="44.08423" lon="6.86603">
        <ele>975.2</ele>
        <time>2019-07-16T05:30:04Z</time>
      </trkpt>
      <trkpt lat="44.08423" lon="6.86608">
        <ele>975.6</ele>
        <time>2019-07-16T05:30:06Z</time>
      </trkpt>
      <trkpt lat="44.08423" lon="6.86614">
        <ele>975.9</ele>
        <time>2019-07-16T05:30:08Z</time>
      </trkpt>
      <trkpt lat="44.08424" lon="6.86619">
        <ele>976.3</ele>
        <time>2019-07-16T05:30:10Z</time>
      </trkpt>
      <trkpt lat="44.08424" lon="6.86624">
        <ele>976.6</ele>
        <time>2019-07-16T05:30:12Z</time>
      </trkpt>
      <trkpt lat="44.08424" lon="6.86628">
        <ele>976.8</ele>
        <time>2019-07-16T05:30:14Z</time>
      </trkpt>
      <trkpt lat="44.08423" lon="6.86633">
        <ele>977.1</ele>
        <time>2019-07-16T05:30:16Z</time>
      </trkpt>
      <trkpt lat="44.08423" lon="6.86638">
        <ele>977.5</ele>
        <time>2019-07-16T05:30:18Z</time>
      </trkpt>
      <trkpt lat="44.08423" lon="6.86643">
        <ele>977.8</ele>
        <time>2019-07-16T05:30:20Z</time>
      </trkpt>
      <trkpt lat="44.08424" lon="6.86648">
        <ele>978.1</ele>
        <time>2019-07-16T05:30:22Z</time>
      </trkpt>
      <trkpt lat="44.08425" lon="6.86652">
        <ele>978.4</ele>
        <time>2019-07-16T05:30:24Z</time>
      </trkpt>
      <trkpt lat="44.08426" lon="6.86657">
        <ele>978.7</ele>
        <time>2019-07-16T05:30:26Z</time>
      </trkpt>
      <trkpt lat="44.08427" lon="6.86662">
        <ele>979</ele>
        <time>2019-07-16T05:30:28Z</time>
      </trkpt>
      <trkpt lat="44.08427" lon="6.86666">
        <ele>979.3</ele>
        <time>2019-07-16T05:30:33Z</time>
      </trkpt>
      <trkpt lat="44.08428" lon="6.86673">
        <ele>979.7</ele>
        <time>2019-07-16T05:30:35Z</time>
      </trkpt>
      <trkpt lat="44.08429" lon="6.86679">
        <ele>980.1</ele>
        <time>2019-07-16T05:30:37Z</time>
      </trkpt>
      <trkpt lat="44.08431" lon="6.86684">
        <ele>980.5</ele>
        <time>2019-07-16T05:30:39Z</time>
      </trkpt>
      <trkpt lat="44.08433" lon="6.8669">
        <ele>980.8</ele>
        <time>2019-07-16T05:30:41Z</time>
      </trkpt>
      <trkpt lat="44.08434" lon="6.86695">
        <ele>981.2</ele>
        <time>2019-07-16T05:30:43Z</time>
      </trkpt>
      <trkpt lat="44.08436" lon="6.867">
        <ele>981.5</ele>
        <time>2019-07-16T05:30:45Z</time>
      </trkpt>
      <trkpt lat="44.08437" lon="6.86705">
        <ele>981.9</ele>
        <time>2019-07-16T05:30:47Z</time>
      </trkpt>
      <trkpt lat="44.08438" lon="6.8671">
        <ele>982.2</ele>
        <time>2019-07-16T05:30:49Z</time>
      </trkpt>
      <trkpt lat="44.0844" lon="6.86715">
        <ele>982.5</ele>
        <time>2019-07-16T05:30:51Z</time>
      </trkpt>
      <trkpt lat="44.08441" lon="6.86719">
        <ele>982.8</ele>
        <time>2019-07-16T05:30:53Z</time>
      </trkpt>
      <trkpt lat="44.08442" lon="6.86725">
        <ele>983.1</ele>
        <time>2019-07-16T05:30:55Z</time>
      </trkpt>
      <trkpt lat="44.08444" lon="6.86729">
        <ele>983.4</ele>
        <time>2019-07-16T05:30:57Z</time>
      </trkpt>
      <trkpt lat="44.08445" lon="6.86734">
        <ele>983.7</ele>
        <time>2019-07-16T05:30:59Z</time>
      </trkpt>
      <trkpt lat="44.08446" lon="6.8674">
        <ele>984.1</ele>
        <time>2019-07-16T05:31:01Z</time>
      </trkpt>
      <trkpt lat="44.08447" lon="6.86744">
        <ele>984.3</ele>
        <time>2019-07-16T05:31:03Z</time>
      </trkpt>
      <trkpt lat="44.08449" lon="6.86749">
        <ele>984.6</ele>
        <time>2019-07-16T05:31:05Z</time>
      </trkpt>
      <trkpt lat="44.0845" lon="6.86754">
        <ele>984.9</ele>
        <time>2019-07-16T05:31:07Z</time>
      </trkpt>
      <trkpt lat="44.08452" lon="6.86758">
        <ele>985.2</ele>
        <time>2019-07-16T05:31:09Z</time>
      </trkpt>
      <trkpt lat="44.08453" lon="6.86763">
        <ele>985.4</ele>
        <time>2019-07-16T05:31:11Z</time>
      </trkpt>
      <trkpt lat="44.08453" lon="6.86767">
        <ele>985.7</ele>
        <time>2019-07-16T05:31:13Z</time>
      </trkpt>
      <trkpt lat="44.08454" lon="6.86772">
        <ele>985.8</ele>
        <time>2019-07-16T05:31:15Z</time>
      </trkpt>
      <trkpt lat="44.08455" lon="6.86776">
        <ele>986</ele>
        <time>2019-07-16T05:31:17Z</time>
      </trkpt>
      <trkpt lat="44.08457" lon="6.8678">
        <ele>986.1</ele>
        <time>2019-07-16T05:31:19Z</time>
      </trkpt>
      <trkpt lat="44.08459" lon="6.86784">
        <ele>986.3</ele>
        <time>2019-07-16T05:31:21Z</time>
      </trkpt>
      <trkpt lat="44.0846" lon="6.86788">
        <ele>986.5</ele>
        <time>2019-07-16T05:31:23Z</time>
      </trkpt>
      <trkpt lat="44.08461" lon="6.86793">
        <ele>986.7</ele>
        <time>2019-07-16T05:31:25Z</time>
      </trkpt>
      <trkpt lat="44.08462" lon="6.86798">
        <ele>986.9</ele>
        <time>2019-07-16T05:31:27Z</time>
      </trkpt>
      <trkpt lat="44.08464" lon="6.86804">
        <ele>987.1</ele>
        <time>2019-07-16T05:31:29Z</time>
      </trkpt>
      <trkpt lat="44.08465" lon="6.86809">
        <ele>987.3</ele>
        <time>2019-07-16T05:31:31Z</time>
      </trkpt>
      <trkpt lat="44.08466" lon="6.86813">
        <ele>987.6</ele>
        <time>2019-07-16T05:31:33Z</time>
      </trkpt>
      <trkpt lat="44.08468" lon="6.86818">
        <ele>987.9</ele>
        <time>2019-07-16T05:31:35Z</time>
      </trkpt>
      <trkpt lat="44.08469" lon="6.86823">
        <ele>988.1</ele>
        <time>2019-07-16T05:31:37Z</time>
      </trkpt>
      <trkpt lat="44.0847" lon="6.86828">
        <ele>988.4</ele>
        <time>2019-07-16T05:31:39Z</time>
      </trkpt>
      <trkpt lat="44.08472" lon="6.86832">
        <ele>988.7</ele>
        <time>2019-07-16T05:31:41Z</time>
      </trkpt>
      <trkpt lat="44.08474" lon="6.86836">
        <ele>989</ele>
        <time>2019-07-16T05:31:43Z</time>
      </trkpt>
      <trkpt lat="44.08476" lon="6.86841">
        <ele>989.2</ele>
        <time>2019-07-16T05:31:45Z</time>
      </trkpt>
      <trkpt lat="44.08478" lon="6.86846">
        <ele>989.4</ele>
        <time>2019-07-16T05:31:47Z</time>
      </trkpt>
      <trkpt lat="44.08479" lon="6.86849">
        <ele>989.6</ele>
        <time>2019-07-16T05:31:49Z</time>
      </trkpt>
      <trkpt lat="44.08481" lon="6.86854">
        <ele>989.8</ele>
        <time>2019-07-16T05:31:51Z</time>
      </trkpt>
      <trkpt lat="44.08483" lon="6.86859">
        <ele>990.1</ele>
        <time>2019-07-16T05:31:53Z</time>
      </trkpt>
      <trkpt lat="44.08485" lon="6.86863">
        <ele>990.3</ele>
        <time>2019-07-16T05:31:55Z</time>
      </trkpt>
      <trkpt lat="44.08486" lon="6.86868">
        <ele>990.5</ele>
        <time>2019-07-16T05:31:57Z</time>
      </trkpt>
      <trkpt lat="44.08487" lon="6.86873">
        <ele>990.8</ele>
        <time>2019-07-16T05:31:59Z</time>
      </trkpt>
      <trkpt lat="44.08488" lon="6.86878">
        <ele>991.1</ele>
        <time>2019-07-16T05:32:01Z</time>
      </trkpt>
      <trkpt lat="44.08489" lon="6.86883">
        <ele>991.4</ele>
        <time>2019-07-16T05:32:03Z</time>
      </trkpt>
      <trkpt lat="44.08489" lon="6.86888">
        <ele>991.7</ele>
        <time>2019-07-16T05:32:05Z</time>
      </trkpt>
      <trkpt lat="44.0849" lon="6.86893">
        <ele>992.1</ele>
        <time>2019-07-16T05:32:07Z</time>
      </trkpt>
      <trkpt lat="44.08491" lon="6.86898">
        <ele>992.4</ele>
        <time>2019-07-16T05:32:09Z</time>
      </trkpt>
      <trkpt lat="44.08492" lon="6.86903">
        <ele>992.7</ele>
        <time>2019-07-16T05:32:11Z</time>
      </trkpt>
      <trkpt lat="44.08492" lon="6.86909">
        <ele>992.9</ele>
        <time>2019-07-16T05:32:13Z</time>
      </trkpt>
      <trkpt lat="44.08494" lon="6.86913">
        <ele>993.2</ele>
        <time>2019-07-16T05:32:15Z</time>
      </trkpt>
      <trkpt lat="44.08494" lon="6.86918">
        <ele>993.4</ele>
        <time>2019-07-16T05:32:17Z</time>
      </trkpt>
      <trkpt lat="44.08494" lon="6.86923">
        <ele>993.6</ele>
        <time>2019-07-16T05:32:19Z</time>
      </trkpt>
      <trkpt lat="44.08495" lon="6.86928">
        <ele>993.9</ele>
        <time>2019-07-16T05:32:21Z</time>
      </trkpt>
      <trkpt lat="44.08496" lon="6.86933">
        <ele>994.1</ele>
        <time>2019-07-16T05:32:23Z</time>
      </trkpt>
      <trkpt lat="44.08496" lon="6.86938">
        <ele>994.4</ele>
        <time>2019-07-16T05:32:25Z</time>
      </trkpt>
      <trkpt lat="44.08497" lon="6.86943">
        <ele>994.8</ele>
        <time>2019-07-16T05:32:27Z</time>
      </trkpt>
      <trkpt lat="44.08498" lon="6.86948">
        <ele>995.1</ele>
        <time>2019-07-16T05:32:29Z</time>
      </trkpt>
      <trkpt lat="44.08499" lon="6.86953">
        <ele>995.4</ele>
        <time>2019-07-16T05:32:31Z</time>
      </trkpt>
      <trkpt lat="44.085" lon="6.86957">
        <ele>995.7</ele>
        <time>2019-07-16T05:32:33Z</time>
      </trkpt>
      <trkpt lat="44.085" lon="6.86963">
        <ele>995.9</ele>
        <time>2019-07-16T05:32:35Z</time>
      </trkpt>
      <trkpt lat="44.08501" lon="6.86968">
        <ele>996.1</ele>
        <time>2019-07-16T05:32:37Z</time>
      </trkpt>
      <trkpt lat="44.08501" lon="6.86973">
        <ele>996.3</ele>
        <time>2019-07-16T05:32:39Z</time>
      </trkpt>
      <trkpt lat="44.08501" lon="6.86979">
        <ele>996.6</ele>
        <time>2019-07-16T05:32:41Z</time>
      </trkpt>
      <trkpt lat="44.08502" lon="6.86985">
        <ele>996.8</ele>
        <time>2019-07-16T05:32:43Z</time>
      </trkpt>
      <trkpt lat="44.08503" lon="6.8699">
        <ele>997.1</ele>
        <time>2019-07-16T05:32:45Z</time>
      </trkpt>
      <trkpt lat="44.08504" lon="6.86995">
        <ele>997.3</ele>
        <time>2019-07-16T05:32:47Z</time>
      </trkpt>
      <trkpt lat="44.08504" lon="6.86999">
        <ele>997.5</ele>
        <time>2019-07-16T05:32:49Z</time>
      </trkpt>
      <trkpt lat="44.08505" lon="6.87004">
        <ele>997.8</ele>
        <time>2019-07-16T05:32:51Z</time>
      </trkpt>
      <trkpt lat="44.08505" lon="6.87009">
        <ele>998.2</ele>
        <time>2019-07-16T05:32:53Z</time>
      </trkpt>
      <trkpt lat="44.08506" lon="6.87014">
        <ele>998.5</ele>
        <time>2019-07-16T05:32:55Z</time>
      </trkpt>
      <trkpt lat="44.08506" lon="6.87018">
        <ele>998.9</ele>
        <time>2019-07-16T05:32:57Z</time>
      </trkpt>
      <trkpt lat="44.08507" lon="6.87023">
        <ele>999.1</ele>
        <time>2019-07-16T05:32:59Z</time>
      </trkpt>
      <trkpt lat="44.08508" lon="6.87028">
        <ele>999.4</ele>
        <time>2019-07-16T05:33:01Z</time>
      </trkpt>
      <trkpt lat="44.08508" lon="6.87034">
        <ele>999.8</ele>
        <time>2019-07-16T05:33:03Z</time>
      </trkpt>
      <trkpt lat="44.08508" lon="6.87039">
        <ele>1000.1</ele>
        <time>2019-07-16T05:33:05Z</time>
      </trkpt>
      <trkpt lat="44.08508" lon="6.87044">
        <ele>1000.4</ele>
        <time>2019-07-16T05:33:07Z</time>
      </trkpt>
      <trkpt lat="44.08508" lon="6.87049">
        <ele>1000.8</ele>
        <time>2019-07-16T05:33:09Z</time>
      </trkpt>
      <trkpt lat="44.08507" lon="6.87054">
        <ele>1001.1</ele>
        <time>2019-07-16T05:33:11Z</time>
      </trkpt>
      <trkpt lat="44.08506" lon="6.87059">
        <ele>1001.4</ele>
        <time>2019-07-16T05:33:13Z</time>
      </trkpt>
      <trkpt lat="44.08506" lon="6.87065">
        <ele>1001.8</ele>
        <time>2019-07-16T05:33:15Z</time>
      </trkpt>
      <trkpt lat="44.08505" lon="6.8707">
        <ele>1002.1</ele>
        <time>2019-07-16T05:33:17Z</time>
      </trkpt>
      <trkpt lat="44.08504" lon="6.87075">
        <ele>1002.3</ele>
        <time>2019-07-16T05:33:19Z</time>
      </trkpt>
      <trkpt lat="44.08503" lon="6.87081">
        <ele>1002.6</ele>
        <time>2019-07-16T05:33:21Z</time>
      </trkpt>
      <trkpt lat="44.08503" lon="6.87085">
        <ele>1002.9</ele>
        <time>2019-07-16T05:33:23Z</time>
      </trkpt>
      <trkpt lat="44.08503" lon="6.87091">
        <ele>1003.1</ele>
        <time>2019-07-16T05:33:25Z</time>
      </trkpt>
      <trkpt lat="44.08504" lon="6.87095">
        <ele>1003.3</ele>
        <time>2019-07-16T05:33:28Z</time>
      </trkpt>
      <trkpt lat="44.08505" lon="6.87102">
        <ele>1003.7</ele>
        <time>2019-07-16T05:33:30Z</time>
      </trkpt>
      <trkpt lat="44.08506" lon="6.87108">
        <ele>1003.9</ele>
        <time>2019-07-16T05:33:32Z</time>
      </trkpt>
      <trkpt lat="44.08507" lon="6.87113">
        <ele>1004.3</ele>
        <time>2019-07-16T05:33:34Z</time>
      </trkpt>
      <trkpt lat="44.08508" lon="6.87118">
        <ele>1004.7</ele>
        <time>2019-07-16T05:33:36Z</time>
      </trkpt>
      <trkpt lat="44.08509" lon="6.87123">
        <ele>1005</ele>
        <time>2019-07-16T05:33:38Z</time>
      </trkpt>
      <trkpt lat="44.0851" lon="6.87129">
        <ele>1005.4</ele>
        <time>2019-07-16T05:33:40Z</time>
      </trkpt>
      <trkpt lat="44.0851" lon="6.87134">
        <ele>1005.7</ele>
        <time>2019-07-16T05:33:42Z</time>
      </trkpt>
      <trkpt lat="44.08511" lon="6.87139">
        <ele>1006</ele>
        <time>2019-07-16T05:33:44Z</time>
      </trkpt>
      <trkpt lat="44.08512" lon="6.87144">
        <ele>1006.4</ele>
        <time>2019-07-16T05:33:46Z</time>
      </trkpt>
      <trkpt lat="44.08513" lon="6.87149">
        <ele>1006.7</ele>
        <time>2019-07-16T05:33:48Z</time>
      </trkpt>
      <trkpt lat="44.08513" lon="6.87155">
        <ele>1007</ele>
        <time>2019-07-16T05:33:50Z</time>
      </trkpt>
      <trkpt lat="44.08514" lon="6.87159">
        <ele>1007.2</ele>
        <time>2019-07-16T05:33:52Z</time>
      </trkpt>
      <trkpt lat="44.08514" lon="6.87164">
        <ele>1007.4</ele>
        <time>2019-07-16T05:33:54Z</time>
      </trkpt>
      <trkpt lat="44.08513" lon="6.87169">
        <ele>1007.7</ele>
        <time>2019-07-16T05:33:56Z</time>
      </trkpt>
      <trkpt lat="44.08512" lon="6.87174">
        <ele>1008</ele>
        <time>2019-07-16T05:33:58Z</time>
      </trkpt>
      <trkpt lat="44.0851" lon="6.87179">
        <ele>1008.2</ele>
        <time>2019-07-16T05:34:00Z</time>
      </trkpt>
      <trkpt lat="44.08508" lon="6.87182">
        <ele>1008.5</ele>
        <time>2019-07-16T05:34:02Z</time>
      </trkpt>
      <trkpt lat="44.08506" lon="6.87187">
        <ele>1008.8</ele>
        <time>2019-07-16T05:34:04Z</time>
      </trkpt>
      <trkpt lat="44.08504" lon="6.87192">
        <ele>1009.2</ele>
        <time>2019-07-16T05:34:06Z</time>
      </trkpt>
      <trkpt lat="44.08502" lon="6.87197">
        <ele>1009.5</ele>
        <time>2019-07-16T05:34:08Z</time>
      </trkpt>
      <trkpt lat="44.085" lon="6.87202">
        <ele>1009.8</ele>
        <time>2019-07-16T05:34:10Z</time>
      </trkpt>
      <trkpt lat="44.085" lon="6.87208">
        <ele>1009.9</ele>
        <time>2019-07-16T05:34:12Z</time>
      </trkpt>
      <trkpt lat="44.085" lon="6.87213">
        <ele>1010.1</ele>
        <time>2019-07-16T05:34:14Z</time>
      </trkpt>
      <trkpt lat="44.08499" lon="6.87219">
        <ele>1010.4</ele>
        <time>2019-07-16T05:34:16Z</time>
      </trkpt>
      <trkpt lat="44.08501" lon="6.87224">
        <ele>1010.6</ele>
        <time>2019-07-16T05:34:18Z</time>
      </trkpt>
      <trkpt lat="44.08502" lon="6.87229">
        <ele>1010.8</ele>
        <time>2019-07-16T05:34:20Z</time>
      </trkpt>
      <trkpt lat="44.08502" lon="6.87233">
        <ele>1010.9</ele>
        <time>2019-07-16T05:34:22Z</time>
      </trkpt>
      <trkpt lat="44.08503" lon="6.87237">
        <ele>1011.1</ele>
        <time>2019-07-16T05:34:24Z</time>
      </trkpt>
      <trkpt lat="44.08504" lon="6.87241">
        <ele>1011.4</ele>
        <time>2019-07-16T05:34:26Z</time>
      </trkpt>
      <trkpt lat="44.08504" lon="6.87246">
        <ele>1011.8</ele>
        <time>2019-07-16T05:34:29Z</time>
      </trkpt>
      <trkpt lat="44.08505" lon="6.8725">
        <ele>1012.1</ele>
        <time>2019-07-16T05:35:11Z</time>
      </trkpt>
      <trkpt lat="44.08505" lon="6.87255">
        <ele>1012.3</ele>
        <time>2019-07-16T05:35:14Z</time>
      </trkpt>
      <trkpt lat="44.08505" lon="6.8726">
        <ele>1012.5</ele>
        <time>2019-07-16T05:35:17Z</time>
      </trkpt>
      <trkpt lat="44.08504" lon="6.87264">
        <ele>1012.7</ele>
        <time>2019-07-16T05:35:19Z</time>
      </trkpt>
      <trkpt lat="44.08502" lon="6.87267">
        <ele>1012.9</ele>
        <time>2019-07-16T05:35:21Z</time>
      </trkpt>
      <trkpt lat="44.08501" lon="6.87271">
        <ele>1013.1</ele>
        <time>2019-07-16T05:35:23Z</time>
      </trkpt>
      <trkpt lat="44.085" lon="6.87275">
        <ele>1013.3</ele>
        <time>2019-07-16T05:35:25Z</time>
      </trkpt>
      <trkpt lat="44.08499" lon="6.87279">
        <ele>1013.5</ele>
        <time>2019-07-16T05:35:27Z</time>
      </trkpt>
      <trkpt lat="44.08497" lon="6.87284">
        <ele>1013.8</ele>
        <time>2019-07-16T05:35:29Z</time>
      </trkpt>
      <trkpt lat="44.08495" lon="6.87289">
        <ele>1014</ele>
        <time>2019-07-16T05:35:31Z</time>
      </trkpt>
      <trkpt lat="44.08494" lon="6.87294">
        <ele>1014.2</ele>
        <time>2019-07-16T05:35:33Z</time>
      </trkpt>
      <trkpt lat="44.08493" lon="6.87299">
        <ele>1014.4</ele>
        <time>2019-07-16T05:35:35Z</time>
      </trkpt>
      <trkpt lat="44.08492" lon="6.87303">
        <ele>1014.6</ele>
        <time>2019-07-16T05:35:37Z</time>
      </trkpt>
      <trkpt lat="44.08491" lon="6.87308">
        <ele>1014.8</ele>
        <time>2019-07-16T05:35:39Z</time>
      </trkpt>
      <trkpt lat="44.08492" lon="6.87313">
        <ele>1015</ele>
        <time>2019-07-16T05:35:41Z</time>
      </trkpt>
      <trkpt lat="44.08492" lon="6.87318">
        <ele>1015.2</ele>
        <time>2019-07-16T05:35:43Z</time>
      </trkpt>
      <trkpt lat="44.08494" lon="6.87323">
        <ele>1015.5</ele>
        <time>2019-07-16T05:35:45Z</time>
      </trkpt>
      <trkpt lat="44.08495" lon="6.87327">
        <ele>1015.7</ele>
        <time>2019-07-16T05:35:47Z</time>
      </trkpt>
      <trkpt lat="44.08498" lon="6.87331">
        <ele>1015.9</ele>
        <time>2019-07-16T05:35:49Z</time>
      </trkpt>
      <trkpt lat="44.08499" lon="6.87335">
        <ele>1016.1</ele>
        <time>2019-07-16T05:35:51Z</time>
      </trkpt>
      <trkpt lat="44.08501" lon="6.87338">
        <ele>1016.3</ele>
        <time>2019-07-16T05:35:53Z</time>
      </trkpt>
      <trkpt lat="44.08503" lon="6.87342">
        <ele>1016.6</ele>
        <time>2019-07-16T05:35:55Z</time>
      </trkpt>
      <trkpt lat="44.08504" lon="6.87345">
        <ele>1016.9</ele>
        <time>2019-07-16T05:35:57Z</time>
      </trkpt>
      <trkpt lat="44.08505" lon="6.8735">
        <ele>1017.2</ele>
        <time>2019-07-16T05:35:59Z</time>
      </trkpt>
      <trkpt lat="44.08505" lon="6.87354">
        <ele>1017.5</ele>
        <time>2019-07-16T05:36:01Z</time>
      </trkpt>
      <trkpt lat="44.08505" lon="6.87358">
        <ele>1017.8</ele>
        <time>2019-07-16T05:36:03Z</time>
      </trkpt>
      <trkpt lat="44.08505" lon="6.87363">
        <ele>1018.1</ele>
        <time>2019-07-16T05:36:05Z</time>
      </trkpt>
      <trkpt lat="44.08504" lon="6.87366">
        <ele>1018.5</ele>
        <time>2019-07-16T05:36:07Z</time>
      </trkpt>
      <trkpt lat="44.08502" lon="6.87371">
        <ele>1018.8</ele>
        <time>2019-07-16T05:36:09Z</time>
      </trkpt>
      <trkpt lat="44.085" lon="6.87376">
        <ele>1019.1</ele>
        <time>2019-07-16T05:36:11Z</time>
      </trkpt>
      <trkpt lat="44.08498" lon="6.87379">
        <ele>1019.4</ele>
        <time>2019-07-16T05:36:13Z</time>
      </trkpt>
      <trkpt lat="44.08496" lon="6.87382">
        <ele>1019.6</ele>
        <time>2019-07-16T05:36:15Z</time>
      </trkpt>
      <trkpt lat="44.08494" lon="6.87385">
        <ele>1019.9</ele>
        <time>2019-07-16T05:36:17Z</time>
      </trkpt>
      <trkpt lat="44.08492" lon="6.87389">
        <ele>1020.2</ele>
        <time>2019-07-16T05:36:19Z</time>
      </trkpt>
      <trkpt lat="44.0849" lon="6.87393">
        <ele>1020.5</ele>
        <time>2019-07-16T05:36:21Z</time>
      </trkpt>
      <trkpt lat="44.08485" lon="6.87395">
        <ele>1020.9</ele>
        <time>2019-07-16T05:36:24Z</time>
      </trkpt>
      <trkpt lat="44.08482" lon="6.87398">
        <ele>1021.3</ele>
        <time>2019-07-16T05:36:26Z</time>
      </trkpt>
      <trkpt lat="44.0848" lon="6.87402">
        <ele>1021.6</ele>
        <time>2019-07-16T05:36:28Z</time>
      </trkpt>
      <trkpt lat="44.08478" lon="6.87406">
        <ele>1021.8</ele>
        <time>2019-07-16T05:36:30Z</time>
      </trkpt>
      <trkpt lat="44.08477" lon="6.8741">
        <ele>1022.1</ele>
        <time>2019-07-16T05:36:32Z</time>
      </trkpt>
      <trkpt lat="44.08475" lon="6.87414">
        <ele>1022.4</ele>
        <time>2019-07-16T05:36:34Z</time>
      </trkpt>
      <trkpt lat="44.08474" lon="6.87419">
        <ele>1022.6</ele>
        <time>2019-07-16T05:36:36Z</time>
      </trkpt>
      <trkpt lat="44.08474" lon="6.87422">
        <ele>1022.8</ele>
        <time>2019-07-16T05:36:38Z</time>
      </trkpt>
      <trkpt lat="44.08474" lon="6.87427">
        <ele>1023.1</ele>
        <time>2019-07-16T05:36:40Z</time>
      </trkpt>
      <trkpt lat="44.08474" lon="6.87433">
        <ele>1023.4</ele>
        <time>2019-07-16T05:36:43Z</time>
      </trkpt>
      <trkpt lat="44.08475" lon="6.87438">
        <ele>1023.7</ele>
        <time>2019-07-16T05:36:45Z</time>
      </trkpt>
      <trkpt lat="44.08474" lon="6.87442">
        <ele>1023.9</ele>
        <time>2019-07-16T05:36:47Z</time>
      </trkpt>
      <trkpt lat="44.08474" lon="6.87447">
        <ele>1024.2</ele>
        <time>2019-07-16T05:36:49Z</time>
      </trkpt>
      <trkpt lat="44.08474" lon="6.87452">
        <ele>1024.5</ele>
        <time>2019-07-16T05:36:51Z</time>
      </trkpt>
      <trkpt lat="44.08472" lon="6.87456">
        <ele>1024.9</ele>
        <time>2019-07-16T05:36:53Z</time>
      </trkpt>
      <trkpt lat="44.08472" lon="6.8746">
        <ele>1025.2</ele>
        <time>2019-07-16T05:36:55Z</time>
      </trkpt>
      <trkpt lat="44.0847" lon="6.87464">
        <ele>1025.5</ele>
        <time>2019-07-16T05:36:57Z</time>
      </trkpt>
      <trkpt lat="44.08468" lon="6.87468">
        <ele>1025.8</ele>
        <time>2019-07-16T05:36:59Z</time>
      </trkpt>
      <trkpt lat="44.08466" lon="6.87472">
        <ele>1026.2</ele>
        <time>2019-07-16T05:37:01Z</time>
      </trkpt>
      <trkpt lat="44.08463" lon="6.87475">
        <ele>1026.6</ele>
        <time>2019-07-16T05:37:03Z</time>
      </trkpt>
      <trkpt lat="44.0846" lon="6.87478">
        <ele>1027</ele>
        <time>2019-07-16T05:37:05Z</time>
      </trkpt>
      <trkpt lat="44.08458" lon="6.8748">
        <ele>1027.3</ele>
        <time>2019-07-16T05:37:07Z</time>
      </trkpt>
      <trkpt lat="44.08455" lon="6.87482">
        <ele>1027.7</ele>
        <time>2019-07-16T05:37:09Z</time>
      </trkpt>
      <trkpt lat="44.08453" lon="6.87484">
        <ele>1028</ele>
        <time>2019-07-16T05:37:11Z</time>
      </trkpt>
      <trkpt lat="44.08449" lon="6.87485">
        <ele>1028.4</ele>
        <time>2019-07-16T05:37:14Z</time>
      </trkpt>
      <trkpt lat="44.08446" lon="6.87486">
        <ele>1028.7</ele>
        <time>2019-07-16T05:37:16Z</time>
      </trkpt>
      <trkpt lat="44.08443" lon="6.87485">
        <ele>1029.1</ele>
        <time>2019-07-16T05:37:18Z</time>
      </trkpt>
      <trkpt lat="44.08439" lon="6.87485">
        <ele>1029.4</ele>
        <time>2019-07-16T05:37:20Z</time>
      </trkpt>
      <trkpt lat="44.08436" lon="6.87486">
        <ele>1029.7</ele>
        <time>2019-07-16T05:37:22Z</time>
      </trkpt>
      <trkpt lat="44.08433" lon="6.87487">
        <ele>1030</ele>
        <time>2019-07-16T05:37:24Z</time>
      </trkpt>
      <trkpt lat="44.0843" lon="6.87487">
        <ele>1030.4</ele>
        <time>2019-07-16T05:37:26Z</time>
      </trkpt>
      <trkpt lat="44.08426" lon="6.87487">
        <ele>1030.7</ele>
        <time>2019-07-16T05:37:28Z</time>
      </trkpt>
      <trkpt lat="44.08423" lon="6.87489">
        <ele>1031.1</ele>
        <time>2019-07-16T05:37:30Z</time>
      </trkpt>
      <trkpt lat="44.08419" lon="6.87492">
        <ele>1031.5</ele>
        <time>2019-07-16T05:37:32Z</time>
      </trkpt>
      <trkpt lat="44.08416" lon="6.87496">
        <ele>1031.9</ele>
        <time>2019-07-16T05:37:34Z</time>
      </trkpt>
      <trkpt lat="44.08413" lon="6.875">
        <ele>1032.3</ele>
        <time>2019-07-16T05:37:36Z</time>
      </trkpt>
      <trkpt lat="44.08411" lon="6.87503">
        <ele>1032.7</ele>
        <time>2019-07-16T05:37:38Z</time>
      </trkpt>
      <trkpt lat="44.08409" lon="6.87507">
        <ele>1033.1</ele>
        <time>2019-07-16T05:37:40Z</time>
      </trkpt>
      <trkpt lat="44.08407" lon="6.87511">
        <ele>1033.5</ele>
        <time>2019-07-16T05:37:42Z</time>
      </trkpt>
      <trkpt lat="44.08406" lon="6.87515">
        <ele>1033.9</ele>
        <time>2019-07-16T05:37:44Z</time>
      </trkpt>
      <trkpt lat="44.08404" lon="6.87519">
        <ele>1034.3</ele>
        <time>2019-07-16T05:37:46Z</time>
      </trkpt>
      <trkpt lat="44.08403" lon="6.87523">
        <ele>1034.5</ele>
        <time>2019-07-16T05:37:48Z</time>
      </trkpt>
      <trkpt lat="44.08401" lon="6.87527">
        <ele>1034.9</ele>
        <time>2019-07-16T05:37:50Z</time>
      </trkpt>
      <trkpt lat="44.08399" lon="6.8753">
        <ele>1035.1</ele>
        <time>2019-07-16T05:37:52Z</time>
      </trkpt>
      <trkpt lat="44.08397" lon="6.87534">
        <ele>1035.4</ele>
        <time>2019-07-16T05:37:54Z</time>
      </trkpt>
      <trkpt lat="44.08396" lon="6.87537">
        <ele>1035.7</ele>
        <time>2019-07-16T05:37:56Z</time>
      </trkpt>
      <trkpt lat="44.08394" lon="6.87541">
        <ele>1036</ele>
        <time>2019-07-16T05:37:58Z</time>
      </trkpt>
      <trkpt lat="44.08391" lon="6.87545">
        <ele>1036.3</ele>
        <time>2019-07-16T05:38:00Z</time>
      </trkpt>
      <trkpt lat="44.08389" lon="6.87549">
        <ele>1036.7</ele>
        <time>2019-07-16T05:38:02Z</time>
      </trkpt>
      <trkpt lat="44.08387" lon="6.87553">
        <ele>1037.1</ele>
        <time>2019-07-16T05:38:04Z</time>
      </trkpt>
      <trkpt lat="44.08385" lon="6.87556">
        <ele>1037.5</ele>
        <time>2019-07-16T05:38:06Z</time>
      </trkpt>
      <trkpt lat="44.08383" lon="6.87559">
        <ele>1038</ele>
        <time>2019-07-16T05:38:08Z</time>
      </trkpt>
      <trkpt lat="44.08382" lon="6.87563">
        <ele>1038.4</ele>
        <time>2019-07-16T05:38:10Z</time>
      </trkpt>
      <trkpt lat="44.0838" lon="6.87567">
        <ele>1038.8</ele>
        <time>2019-07-16T05:38:12Z</time>
      </trkpt>
      <trkpt lat="44.08379" lon="6.87571">
        <ele>1039.2</ele>
        <time>2019-07-16T05:38:14Z</time>
      </trkpt>
      <trkpt lat="44.08378" lon="6.87576">
        <ele>1039.7</ele>
        <time>2019-07-16T05:38:16Z</time>
      </trkpt>
      <trkpt lat="44.08377" lon="6.87581">
        <ele>1040</ele>
        <time>2019-07-16T05:38:18Z</time>
      </trkpt>
      <trkpt lat="44.08376" lon="6.87585">
        <ele>1040.3</ele>
        <time>2019-07-16T05:38:20Z</time>
      </trkpt>
      <trkpt lat="44.08376" lon="6.87588">
        <ele>1040.6</ele>
        <time>2019-07-16T05:38:22Z</time>
      </trkpt>
      <trkpt lat="44.08375" lon="6.87592">
        <ele>1040.9</ele>
        <time>2019-07-16T05:38:24Z</time>
      </trkpt>
      <trkpt lat="44.08374" lon="6.87596">
        <ele>1041.1</ele>
        <time>2019-07-16T05:38:26Z</time>
      </trkpt>
      <trkpt lat="44.08373" lon="6.876">
        <ele>1041.4</ele>
        <time>2019-07-16T05:38:28Z</time>
      </trkpt>
      <trkpt lat="44.08373" lon="6.87604">
        <ele>1041.7</ele>
        <time>2019-07-16T05:38:30Z</time>
      </trkpt>
      <trkpt lat="44.08372" lon="6.87608">
        <ele>1042</ele>
        <time>2019-07-16T05:38:32Z</time>
      </trkpt>
      <trkpt lat="44.08371" lon="6.87613">
        <ele>1042.3</ele>
        <time>2019-07-16T05:38:34Z</time>
      </trkpt>
      <trkpt lat="44.0837" lon="6.87617">
        <ele>1042.6</ele>
        <time>2019-07-16T05:38:36Z</time>
      </trkpt>
      <trkpt lat="44.0837" lon="6.87621">
        <ele>1042.9</ele>
        <time>2019-07-16T05:38:38Z</time>
      </trkpt>
      <trkpt lat="44.0837" lon="6.87626">
        <ele>1043.1</ele>
        <time>2019-07-16T05:38:40Z</time>
      </trkpt>
      <trkpt lat="44.08369" lon="6.8763">
        <ele>1043.3</ele>
        <time>2019-07-16T05:38:42Z</time>
      </trkpt>
      <trkpt lat="44.08369" lon="6.87635">
        <ele>1043.5</ele>
        <time>2019-07-16T05:38:44Z</time>
      </trkpt>
      <trkpt lat="44.08368" lon="6.87639">
        <ele>1043.8</ele>
        <time>2019-07-16T05:38:46Z</time>
      </trkpt>
      <trkpt lat="44.08368" lon="6.87644">
        <ele>1044</ele>
        <time>2019-07-16T05:38:48Z</time>
      </trkpt>
      <trkpt lat="44.08368" lon="6.87648">
        <ele>1044.2</ele>
        <time>2019-07-16T05:38:50Z</time>
      </trkpt>
      <trkpt lat="44.08368" lon="6.87653">
        <ele>1044.4</ele>
        <time>2019-07-16T05:38:52Z</time>
      </trkpt>
      <trkpt lat="44.08369" lon="6.87658">
        <ele>1044.6</ele>
        <time>2019-07-16T05:38:54Z</time>
      </trkpt>
      <trkpt lat="44.08369" lon="6.87662">
        <ele>1044.8</ele>
        <time>2019-07-16T05:38:56Z</time>
      </trkpt>
      <trkpt lat="44.08369" lon="6.87666">
        <ele>1045</ele>
        <time>2019-07-16T05:38:58Z</time>
      </trkpt>
      <trkpt lat="44.0837" lon="6.87671">
        <ele>1045.1</ele>
        <time>2019-07-16T05:39:00Z</time>
      </trkpt>
      <trkpt lat="44.0837" lon="6.87675">
        <ele>1045.3</ele>
        <time>2019-07-16T05:39:02Z</time>
      </trkpt>
      <trkpt lat="44.08369" lon="6.8768">
        <ele>1045.4</ele>
        <time>2019-07-16T05:39:04Z</time>
      </trkpt>
      <trkpt lat="44.08369" lon="6.87685">
        <ele>1045.6</ele>
        <time>2019-07-16T05:39:06Z</time>
      </trkpt>
      <trkpt lat="44.08369" lon="6.8769">
        <ele>1045.8</ele>
        <time>2019-07-16T05:39:08Z</time>
      </trkpt>
      <trkpt lat="44.08368" lon="6.87694">
        <ele>1045.9</ele>
        <time>2019-07-16T05:39:10Z</time>
      </trkpt>
      <trkpt lat="44.08368" lon="6.87699">
        <ele>1046.1</ele>
        <time>2019-07-16T05:39:12Z</time>
      </trkpt>
      <trkpt lat="44.08367" lon="6.87704">
        <ele>1046.2</ele>
        <time>2019-07-16T05:39:14Z</time>
      </trkpt>
      <trkpt lat="44.08366" lon="6.87708">
        <ele>1046.3</ele>
        <time>2019-07-16T05:39:16Z</time>
      </trkpt>
      <trkpt lat="44.08364" lon="6.87711">
        <ele>1046.4</ele>
        <time>2019-07-16T05:39:18Z</time>
      </trkpt>
      <trkpt lat="44.08363" lon="6.87714">
        <ele>1046.5</ele>
        <time>2019-07-16T05:39:20Z</time>
      </trkpt>
      <trkpt lat="44.08361" lon="6.87719">
        <ele>1046.6</ele>
        <time>2019-07-16T05:39:22Z</time>
      </trkpt>
      <trkpt lat="44.08359" lon="6.87722">
        <ele>1046.7</ele>
        <time>2019-07-16T05:39:24Z</time>
      </trkpt>
      <trkpt lat="44.08357" lon="6.87726">
        <ele>1046.8</ele>
        <time>2019-07-16T05:39:26Z</time>
      </trkpt>
      <trkpt lat="44.08355" lon="6.87729">
        <ele>1046.9</ele>
        <time>2019-07-16T05:39:28Z</time>
      </trkpt>
      <trkpt lat="44.08353" lon="6.87732">
        <ele>1047</ele>
        <time>2019-07-16T05:39:30Z</time>
      </trkpt>
      <trkpt lat="44.08351" lon="6.87734">
        <ele>1047.1</ele>
        <time>2019-07-16T05:39:32Z</time>
      </trkpt>
      <trkpt lat="44.08348" lon="6.87737">
        <ele>1047.2</ele>
        <time>2019-07-16T05:39:34Z</time>
      </trkpt>
      <trkpt lat="44.08346" lon="6.87741">
        <ele>1047.3</ele>
        <time>2019-07-16T05:39:36Z</time>
      </trkpt>
      <trkpt lat="44.08344" lon="6.87743">
        <ele>1047.4</ele>
        <time>2019-07-16T05:39:38Z</time>
      </trkpt>
      <trkpt lat="44.08341" lon="6.87745">
        <ele>1047.5</ele>
        <time>2019-07-16T05:39:40Z</time>
      </trkpt>
      <trkpt lat="44.08339" lon="6.87749">
        <ele>1047.6</ele>
        <time>2019-07-16T05:39:43Z</time>
      </trkpt>
      <trkpt lat="44.08336" lon="6.87752">
        <ele>1047.7</ele>
        <time>2019-07-16T05:39:46Z</time>
      </trkpt>
      <trkpt lat="44.08334" lon="6.87755">
        <ele>1047.8</ele>
        <time>2019-07-16T05:39:49Z</time>
      </trkpt>
      <trkpt lat="44.08331" lon="6.87759">
        <ele>1047.9</ele>
        <time>2019-07-16T05:39:52Z</time>
      </trkpt>
      <trkpt lat="44.0833" lon="6.87762">
        <ele>1048</ele>
        <time>2019-07-16T05:39:55Z</time>
      </trkpt>
      <trkpt lat="44.08328" lon="6.87766">
        <ele>1048</ele>
        <time>2019-07-16T05:39:57Z</time>
      </trkpt>
      <trkpt lat="44.08327" lon="6.8777">
        <ele>1048.2</ele>
        <time>2019-07-16T05:39:59Z</time>
      </trkpt>
      <trkpt lat="44.08325" lon="6.87773">
        <ele>1048.3</ele>
        <time>2019-07-16T05:40:01Z</time>
      </trkpt>
      <trkpt lat="44.08323" lon="6.87777">
        <ele>1048.4</ele>
        <time>2019-07-16T05:40:04Z</time>
      </trkpt>
      <trkpt lat="44.08321" lon="6.87781">
        <ele>1048.5</ele>
        <time>2019-07-16T05:40:06Z</time>
      </trkpt>
      <trkpt lat="44.0832" lon="6.87784">
        <ele>1048.6</ele>
        <time>2019-07-16T05:40:08Z</time>
      </trkpt>
      <trkpt lat="44.08318" lon="6.87788">
        <ele>1048.7</ele>
        <time>2019-07-16T05:40:10Z</time>
      </trkpt>
      <trkpt lat="44.08316" lon="6.87792">
        <ele>1048.8</ele>
        <time>2019-07-16T05:40:12Z</time>
      </trkpt>
      <trkpt lat="44.08313" lon="6.87797">
        <ele>1049</ele>
        <time>2019-07-16T05:40:15Z</time>
      </trkpt>
      <trkpt lat="44.08312" lon="6.87802">
        <ele>1049.6</ele>
        <time>2019-07-16T05:40:17Z</time>
      </trkpt>
      <trkpt lat="44.0831" lon="6.87807">
        <ele>1050.8</ele>
        <time>2019-07-16T05:40:19Z</time>
      </trkpt>
      <trkpt lat="44.08309" lon="6.87811">
        <ele>1051.7</ele>
        <time>2019-07-16T05:40:21Z</time>
      </trkpt>
      <trkpt lat="44.08307" lon="6.87815">
        <ele>1052.4</ele>
        <time>2019-07-16T05:40:23Z</time>
      </trkpt>
      <trkpt lat="44.08305" lon="6.8782">
        <ele>1053.3</ele>
        <time>2019-07-16T05:40:25Z</time>
      </trkpt>
      <trkpt lat="44.08303" lon="6.87824">
        <ele>1054</ele>
        <time>2019-07-16T05:40:27Z</time>
      </trkpt>
      <trkpt lat="44.08301" lon="6.87828">
        <ele>1054.8</ele>
        <time>2019-07-16T05:40:29Z</time>
      </trkpt>
      <trkpt lat="44.08298" lon="6.87832">
        <ele>1056.1</ele>
        <time>2019-07-16T05:40:31Z</time>
      </trkpt>
      <trkpt lat="44.08296" lon="6.87837">
        <ele>1057.3</ele>
        <time>2019-07-16T05:40:33Z</time>
      </trkpt>
      <trkpt lat="44.08294" lon="6.8784">
        <ele>1058.3</ele>
        <time>2019-07-16T05:40:35Z</time>
      </trkpt>
      <trkpt lat="44.08292" lon="6.87845">
        <ele>1059.2</ele>
        <time>2019-07-16T05:40:37Z</time>
      </trkpt>
      <trkpt lat="44.0829" lon="6.87848">
        <ele>1060</ele>
        <time>2019-07-16T05:40:39Z</time>
      </trkpt>
      <trkpt lat="44.08288" lon="6.87853">
        <ele>1061</ele>
        <time>2019-07-16T05:40:41Z</time>
      </trkpt>
      <trkpt lat="44.08286" lon="6.87856">
        <ele>1062.1</ele>
        <time>2019-07-16T05:40:43Z</time>
      </trkpt>
      <trkpt lat="44.08282" lon="6.87859">
        <ele>1063.7</ele>
        <time>2019-07-16T05:40:45Z</time>
      </trkpt>
      <trkpt lat="44.08279" lon="6.87861">
        <ele>1065.9</ele>
        <time>2019-07-16T05:40:47Z</time>
      </trkpt>
      <trkpt lat="44.08274" lon="6.87862">
        <ele>1065.7</ele>
        <time>2019-07-16T05:40:49Z</time>
      </trkpt>
      <trkpt lat="44.08271" lon="6.87863">
        <ele>1065.5</ele>
        <time>2019-07-16T05:40:51Z</time>
      </trkpt>
      <trkpt lat="44.08267" lon="6.87864">
        <ele>1065.3</ele>
        <time>2019-07-16T05:40:53Z</time>
      </trkpt>
      <trkpt lat="44.08263" lon="6.87864">
        <ele>1065.1</ele>
        <time>2019-07-16T05:40:55Z</time>
      </trkpt>
      <trkpt lat="44.08259" lon="6.87865">
        <ele>1064.8</ele>
        <time>2019-07-16T05:40:57Z</time>
      </trkpt>
      <trkpt lat="44.08254" lon="6.87864">
        <ele>1064.6</ele>
        <time>2019-07-16T05:40:59Z</time>
      </trkpt>
      <trkpt lat="44.0825" lon="6.87865">
        <ele>1064.5</ele>
        <time>2019-07-16T05:41:01Z</time>
      </trkpt>
      <trkpt lat="44.08245" lon="6.87865">
        <ele>1064.3</ele>
        <time>2019-07-16T05:41:03Z</time>
      </trkpt>
      <trkpt lat="44.08241" lon="6.87865">
        <ele>1064.2</ele>
        <time>2019-07-16T05:41:05Z</time>
      </trkpt>
      <trkpt lat="44.08238" lon="6.87866">
        <ele>1064.1</ele>
        <time>2019-07-16T05:41:07Z</time>
      </trkpt>
      <trkpt lat="44.08234" lon="6.87868">
        <ele>1064</ele>
        <time>2019-07-16T05:41:09Z</time>
      </trkpt>
      <trkpt lat="44.08231" lon="6.8787">
        <ele>1063.9</ele>
        <time>2019-07-16T05:41:11Z</time>
      </trkpt>
      <trkpt lat="44.08227" lon="6.87872">
        <ele>1063.8</ele>
        <time>2019-07-16T05:41:13Z</time>
      </trkpt>
      <trkpt lat="44.08224" lon="6.87875">
        <ele>1063.6</ele>
        <time>2019-07-16T05:41:15Z</time>
      </trkpt>
      <trkpt lat="44.0822" lon="6.87876">
        <ele>1063.5</ele>
        <time>2019-07-16T05:41:17Z</time>
      </trkpt>
      <trkpt lat="44.08217" lon="6.87879">
        <ele>1063.5</ele>
        <time>2019-07-16T05:41:19Z</time>
      </trkpt>
      <trkpt lat="44.08213" lon="6.87881">
        <ele>1063.4</ele>
        <time>2019-07-16T05:41:21Z</time>
      </trkpt>
      <trkpt lat="44.0821" lon="6.87884">
        <ele>1063.3</ele>
        <time>2019-07-16T05:41:23Z</time>
      </trkpt>
      <trkpt lat="44.08207" lon="6.87886">
        <ele>1063.3</ele>
        <time>2019-07-16T05:41:25Z</time>
      </trkpt>
      <trkpt lat="44.08204" lon="6.87888">
        <ele>1063.2</ele>
        <time>2019-07-16T05:41:27Z</time>
      </trkpt>
      <trkpt lat="44.08201" lon="6.87892">
        <ele>1063.1</ele>
        <time>2019-07-16T05:41:30Z</time>
      </trkpt>
      <trkpt lat="44.08197" lon="6.87894">
        <ele>1063</ele>
        <time>2019-07-16T05:41:32Z</time>
      </trkpt>
      <trkpt lat="44.08194" lon="6.87896">
        <ele>1063</ele>
        <time>2019-07-16T05:41:34Z</time>
      </trkpt>
      <trkpt lat="44.08191" lon="6.87898">
        <ele>1062.9</ele>
        <time>2019-07-16T05:41:36Z</time>
      </trkpt>
      <trkpt lat="44.08188" lon="6.879">
        <ele>1062.8</ele>
        <time>2019-07-16T05:41:38Z</time>
      </trkpt>
      <trkpt lat="44.08185" lon="6.87902">
        <ele>1062.6</ele>
        <time>2019-07-16T05:41:40Z</time>
      </trkpt>
      <trkpt lat="44.08181" lon="6.87904">
        <ele>1062.5</ele>
        <time>2019-07-16T05:41:42Z</time>
      </trkpt>
      <trkpt lat="44.08178" lon="6.87906">
        <ele>1062.4</ele>
        <time>2019-07-16T05:41:44Z</time>
      </trkpt>
      <trkpt lat="44.08175" lon="6.8791">
        <ele>1062.2</ele>
        <time>2019-07-16T05:41:46Z</time>
      </trkpt>
      <trkpt lat="44.08172" lon="6.87912">
        <ele>1062</ele>
        <time>2019-07-16T05:41:48Z</time>
      </trkpt>
      <trkpt lat="44.08169" lon="6.87915">
        <ele>1061.8</ele>
        <time>2019-07-16T05:41:50Z</time>
      </trkpt>
      <trkpt lat="44.08166" lon="6.87917">
        <ele>1061.7</ele>
        <time>2019-07-16T05:41:52Z</time>
      </trkpt>
      <trkpt lat="44.08163" lon="6.8792">
        <ele>1061.6</ele>
        <time>2019-07-16T05:41:54Z</time>
      </trkpt>
      <trkpt lat="44.08161" lon="6.87924">
        <ele>1061.4</ele>
        <time>2019-07-16T05:41:56Z</time>
      </trkpt>
      <trkpt lat="44.08158" lon="6.87928">
        <ele>1061.3</ele>
        <time>2019-07-16T05:41:58Z</time>
      </trkpt>
      <trkpt lat="44.08156" lon="6.87932">
        <ele>1061.2</ele>
        <time>2019-07-16T05:42:00Z</time>
      </trkpt>
      <trkpt lat="44.08153" lon="6.87936">
        <ele>1061.1</ele>
        <time>2019-07-16T05:42:02Z</time>
      </trkpt>
      <trkpt lat="44.08151" lon="6.87941">
        <ele>1061.1</ele>
        <time>2019-07-16T05:42:04Z</time>
      </trkpt>
      <trkpt lat="44.0815" lon="6.87945">
        <ele>1061</ele>
        <time>2019-07-16T05:42:06Z</time>
      </trkpt>
      <trkpt lat="44.08148" lon="6.87948">
        <ele>1061</ele>
        <time>2019-07-16T05:42:08Z</time>
      </trkpt>
      <trkpt lat="44.08146" lon="6.87953">
        <ele>1061</ele>
        <time>2019-07-16T05:42:10Z</time>
      </trkpt>
      <trkpt lat="44.08144" lon="6.87957">
        <ele>1061</ele>
        <time>2019-07-16T05:42:12Z</time>
      </trkpt>
      <trkpt lat="44.08142" lon="6.87961">
        <ele>1061.1</ele>
        <time>2019-07-16T05:42:14Z</time>
      </trkpt>
      <trkpt lat="44.0814" lon="6.87965">
        <ele>1061.1</ele>
        <time>2019-07-16T05:42:16Z</time>
      </trkpt>
      <trkpt lat="44.08138" lon="6.87969">
        <ele>1061.2</ele>
        <time>2019-07-16T05:42:18Z</time>
      </trkpt>
      <trkpt lat="44.08136" lon="6.87973">
        <ele>1061.3</ele>
        <time>2019-07-16T05:42:20Z</time>
      </trkpt>
      <trkpt lat="44.08135" lon="6.87977">
        <ele>1061.4</ele>
        <time>2019-07-16T05:42:22Z</time>
      </trkpt>
      <trkpt lat="44.08132" lon="6.87981">
        <ele>1061.4</ele>
        <time>2019-07-16T05:42:24Z</time>
      </trkpt>
      <trkpt lat="44.0813" lon="6.87985">
        <ele>1061.5</ele>
        <time>2019-07-16T05:42:26Z</time>
      </trkpt>
      <trkpt lat="44.08128" lon="6.87989">
        <ele>1061.6</ele>
        <time>2019-07-16T05:42:28Z</time>
      </trkpt>
      <trkpt lat="44.08125" lon="6.87992">
        <ele>1061.6</ele>
        <time>2019-07-16T05:42:30Z</time>
      </trkpt>
      <trkpt lat="44.08123" lon="6.87994">
        <ele>1061.7</ele>
        <time>2019-07-16T05:42:32Z</time>
      </trkpt>
      <trkpt lat="44.0812" lon="6.87996">
        <ele>1061.7</ele>
        <time>2019-07-16T05:42:34Z</time>
      </trkpt>
      <trkpt lat="44.08117" lon="6.88">
        <ele>1061.8</ele>
        <time>2019-07-16T05:42:36Z</time>
      </trkpt>
      <trkpt lat="44.08115" lon="6.88003">
        <ele>1061.9</ele>
        <time>2019-07-16T05:42:38Z</time>
      </trkpt>
      <trkpt lat="44.08112" lon="6.88006">
        <ele>1061.9</ele>
        <time>2019-07-16T05:42:40Z</time>
      </trkpt>
      <trkpt lat="44.08109" lon="6.88009">
        <ele>1062</ele>
        <time>2019-07-16T05:42:42Z</time>
      </trkpt>
      <trkpt lat="44.08107" lon="6.88013">
        <ele>1062.2</ele>
        <time>2019-07-16T05:42:44Z</time>
      </trkpt>
      <trkpt lat="44.08104" lon="6.88016">
        <ele>1062.4</ele>
        <time>2019-07-16T05:42:46Z</time>
      </trkpt>
      <trkpt lat="44.08101" lon="6.88019">
        <ele>1062.6</ele>
        <time>2019-07-16T05:42:48Z</time>
      </trkpt>
      <trkpt lat="44.08099" lon="6.88022">
        <ele>1062.8</ele>
        <time>2019-07-16T05:42:50Z</time>
      </trkpt>
      <trkpt lat="44.08096" lon="6.88025">
        <ele>1063</ele>
        <time>2019-07-16T05:42:52Z</time>
      </trkpt>
      <trkpt lat="44.08093" lon="6.88028">
        <ele>1063.3</ele>
        <time>2019-07-16T05:42:54Z</time>
      </trkpt>
      <trkpt lat="44.0809" lon="6.8803">
        <ele>1063.6</ele>
        <time>2019-07-16T05:42:56Z</time>
      </trkpt>
      <trkpt lat="44.08087" lon="6.88032">
        <ele>1063.8</ele>
        <time>2019-07-16T05:42:58Z</time>
      </trkpt>
      <trkpt lat="44.08084" lon="6.88035">
        <ele>1064.1</ele>
        <time>2019-07-16T05:43:00Z</time>
      </trkpt>
      <trkpt lat="44.08081" lon="6.88038">
        <ele>1064.3</ele>
        <time>2019-07-16T05:43:02Z</time>
      </trkpt>
      <trkpt lat="44.08078" lon="6.88041">
        <ele>1064.5</ele>
        <time>2019-07-16T05:43:04Z</time>
      </trkpt>
      <trkpt lat="44.08077" lon="6.88045">
        <ele>1064.7</ele>
        <time>2019-07-16T05:43:06Z</time>
      </trkpt>
      <trkpt lat="44.08074" lon="6.88049">
        <ele>1065</ele>
        <time>2019-07-16T05:43:08Z</time>
      </trkpt>
      <trkpt lat="44.08073" lon="6.88053">
        <ele>1065.2</ele>
        <time>2019-07-16T05:43:10Z</time>
      </trkpt>
      <trkpt lat="44.08072" lon="6.88058">
        <ele>1065.4</ele>
        <time>2019-07-16T05:43:12Z</time>
      </trkpt>
      <trkpt lat="44.0807" lon="6.88062">
        <ele>1065.7</ele>
        <time>2019-07-16T05:43:14Z</time>
      </trkpt>
      <trkpt lat="44.08069" lon="6.88067">
        <ele>1065.9</ele>
        <time>2019-07-16T05:43:16Z</time>
      </trkpt>
      <trkpt lat="44.08068" lon="6.88072">
        <ele>1066.2</ele>
        <time>2019-07-16T05:43:18Z</time>
      </trkpt>
      <trkpt lat="44.08068" lon="6.88077">
        <ele>1066.4</ele>
        <time>2019-07-16T05:43:20Z</time>
      </trkpt>
      <trkpt lat="44.08068" lon="6.88081">
        <ele>1066.7</ele>
        <time>2019-07-16T05:43:22Z</time>
      </trkpt>
      <trkpt lat="44.08068" lon="6.88086">
        <ele>1066.9</ele>
        <time>2019-07-16T05:43:24Z</time>
      </trkpt>
      <trkpt lat="44.08067" lon="6.88091">
        <ele>1067.2</ele>
        <time>2019-07-16T05:43:26Z</time>
      </trkpt>
      <trkpt lat="44.08066" lon="6.88096">
        <ele>1067.4</ele>
        <time>2019-07-16T05:43:28Z</time>
      </trkpt>
      <trkpt lat="44.08066" lon="6.88101">
        <ele>1067.7</ele>
        <time>2019-07-16T05:43:30Z</time>
      </trkpt>
      <trkpt lat="44.08066" lon="6.88105">
        <ele>1067.9</ele>
        <time>2019-07-16T05:43:32Z</time>
      </trkpt>
      <trkpt lat="44.08066" lon="6.8811">
        <ele>1068.1</ele>
        <time>2019-07-16T05:43:34Z</time>
      </trkpt>
      <trkpt lat="44.08064" lon="6.88114">
        <ele>1068.3</ele>
        <time>2019-07-16T05:43:36Z</time>
      </trkpt>
      <trkpt lat="44.08063" lon="6.88118">
        <ele>1068.6</ele>
        <time>2019-07-16T05:43:38Z</time>
      </trkpt>
      <trkpt lat="44.08062" lon="6.88122">
        <ele>1068.8</ele>
        <time>2019-07-16T05:43:40Z</time>
      </trkpt>
      <trkpt lat="44.08061" lon="6.88127">
        <ele>1069.1</ele>
        <time>2019-07-16T05:43:42Z</time>
      </trkpt>
      <trkpt lat="44.0806" lon="6.88132">
        <ele>1069.4</ele>
        <time>2019-07-16T05:43:44Z</time>
      </trkpt>
      <trkpt lat="44.08058" lon="6.88137">
        <ele>1069.7</ele>
        <time>2019-07-16T05:43:46Z</time>
      </trkpt>
      <trkpt lat="44.08057" lon="6.88142">
        <ele>1069.9</ele>
        <time>2019-07-16T05:43:48Z</time>
      </trkpt>
      <trkpt lat="44.08056" lon="6.88146">
        <ele>1070.2</ele>
        <time>2019-07-16T05:43:50Z</time>
      </trkpt>
      <trkpt lat="44.08054" lon="6.88151">
        <ele>1070.5</ele>
        <time>2019-07-16T05:43:52Z</time>
      </trkpt>
      <trkpt lat="44.08052" lon="6.88156">
        <ele>1070.9</ele>
        <time>2019-07-16T05:43:54Z</time>
      </trkpt>
      <trkpt lat="44.08051" lon="6.88161">
        <ele>1071.2</ele>
        <time>2019-07-16T05:43:56Z</time>
      </trkpt>
      <trkpt lat="44.08048" lon="6.88166">
        <ele>1071.5</ele>
        <time>2019-07-16T05:43:58Z</time>
      </trkpt>
      <trkpt lat="44.08047" lon="6.8817">
        <ele>1071.8</ele>
        <time>2019-07-16T05:44:00Z</time>
      </trkpt>
      <trkpt lat="44.08045" lon="6.88174">
        <ele>1072.1</ele>
        <time>2019-07-16T05:44:02Z</time>
      </trkpt>
      <trkpt lat="44.08044" lon="6.88179">
        <ele>1072.4</ele>
        <time>2019-07-16T05:44:04Z</time>
      </trkpt>
      <trkpt lat="44.08043" lon="6.88184">
        <ele>1072.7</ele>
        <time>2019-07-16T05:44:06Z</time>
      </trkpt>
      <trkpt lat="44.08042" lon="6.88187">
        <ele>1072.9</ele>
        <time>2019-07-16T05:44:08Z</time>
      </trkpt>
      <trkpt lat="44.08041" lon="6.88192">
        <ele>1073.3</ele>
        <time>2019-07-16T05:44:10Z</time>
      </trkpt>
      <trkpt lat="44.08041" lon="6.88196">
        <ele>1073.6</ele>
        <time>2019-07-16T05:44:12Z</time>
      </trkpt>
      <trkpt lat="44.08041" lon="6.88201">
        <ele>1073.8</ele>
        <time>2019-07-16T05:44:14Z</time>
      </trkpt>
      <trkpt lat="44.08041" lon="6.88205">
        <ele>1074</ele>
        <time>2019-07-16T05:44:16Z</time>
      </trkpt>
      <trkpt lat="44.08042" lon="6.8821">
        <ele>1074.2</ele>
        <time>2019-07-16T05:44:18Z</time>
      </trkpt>
      <trkpt lat="44.08043" lon="6.88214">
        <ele>1074.4</ele>
        <time>2019-07-16T05:44:20Z</time>
      </trkpt>
      <trkpt lat="44.08044" lon="6.88218">
        <ele>1074.6</ele>
        <time>2019-07-16T05:44:22Z</time>
      </trkpt>
      <trkpt lat="44.08045" lon="6.88222">
        <ele>1074.9</ele>
        <time>2019-07-16T05:44:24Z</time>
      </trkpt>
      <trkpt lat="44.08046" lon="6.88226">
        <ele>1075.1</ele>
        <time>2019-07-16T05:44:26Z</time>
      </trkpt>
      <trkpt lat="44.08047" lon="6.8823">
        <ele>1075.3</ele>
        <time>2019-07-16T05:44:28Z</time>
      </trkpt>
      <trkpt lat="44.08049" lon="6.88235">
        <ele>1075.6</ele>
        <time>2019-07-16T05:44:31Z</time>
      </trkpt>
      <trkpt lat="44.08049" lon="6.88241">
        <ele>1075.9</ele>
        <time>2019-07-16T05:44:33Z</time>
      </trkpt>
      <trkpt lat="44.0805" lon="6.88245">
        <ele>1076.2</ele>
        <time>2019-07-16T05:44:35Z</time>
      </trkpt>
      <trkpt lat="44.0805" lon="6.8825">
        <ele>1076.5</ele>
        <time>2019-07-16T05:44:37Z</time>
      </trkpt>
      <trkpt lat="44.0805" lon="6.88254">
        <ele>1076.8</ele>
        <time>2019-07-16T05:44:39Z</time>
      </trkpt>
      <trkpt lat="44.0805" lon="6.88258">
        <ele>1077.1</ele>
        <time>2019-07-16T05:44:41Z</time>
      </trkpt>
      <trkpt lat="44.0805" lon="6.88263">
        <ele>1077.4</ele>
        <time>2019-07-16T05:44:43Z</time>
      </trkpt>
      <trkpt lat="44.0805" lon="6.88267">
        <ele>1077.7</ele>
        <time>2019-07-16T05:44:45Z</time>
      </trkpt>
      <trkpt lat="44.0805" lon="6.88272">
        <ele>1078</ele>
        <time>2019-07-16T05:44:48Z</time>
      </trkpt>
      <trkpt lat="44.08049" lon="6.88276">
        <ele>1078.3</ele>
        <time>2019-07-16T05:44:50Z</time>
      </trkpt>
      <trkpt lat="44.08048" lon="6.8828">
        <ele>1078.6</ele>
        <time>2019-07-16T05:44:52Z</time>
      </trkpt>
      <trkpt lat="44.08046" lon="6.88284">
        <ele>1078.9</ele>
        <time>2019-07-16T05:44:54Z</time>
      </trkpt>
      <trkpt lat="44.08044" lon="6.88288">
        <ele>1079.3</ele>
        <time>2019-07-16T05:44:56Z</time>
      </trkpt>
      <trkpt lat="44.08043" lon="6.88292">
        <ele>1079.6</ele>
        <time>2019-07-16T05:44:58Z</time>
      </trkpt>
      <trkpt lat="44.08041" lon="6.88296">
        <ele>1079.9</ele>
        <time>2019-07-16T05:45:00Z</time>
      </trkpt>
      <trkpt lat="44.0804" lon="6.883">
        <ele>1080.2</ele>
        <time>2019-07-16T05:45:02Z</time>
      </trkpt>
      <trkpt lat="44.08038" lon="6.88304">
        <ele>1080.5</ele>
        <time>2019-07-16T05:45:04Z</time>
      </trkpt>
      <trkpt lat="44.08036" lon="6.88308">
        <ele>1080.8</ele>
        <time>2019-07-16T05:45:06Z</time>
      </trkpt>
      <trkpt lat="44.08034" lon="6.88311">
        <ele>1081.1</ele>
        <time>2019-07-16T05:45:08Z</time>
      </trkpt>
      <trkpt lat="44.08032" lon="6.88314">
        <ele>1081.4</ele>
        <time>2019-07-16T05:45:10Z</time>
      </trkpt>
      <trkpt lat="44.0803" lon="6.88317">
        <ele>1081.6</ele>
        <time>2019-07-16T05:45:12Z</time>
      </trkpt>
      <trkpt lat="44.08028" lon="6.88321">
        <ele>1082</ele>
        <time>2019-07-16T05:45:14Z</time>
      </trkpt>
      <trkpt lat="44.08025" lon="6.88324">
        <ele>1082.3</ele>
        <time>2019-07-16T05:45:16Z</time>
      </trkpt>
      <trkpt lat="44.08023" lon="6.88328">
        <ele>1082.6</ele>
        <time>2019-07-16T05:45:18Z</time>
      </trkpt>
      <trkpt lat="44.0802" lon="6.88331">
        <ele>1082.9</ele>
        <time>2019-07-16T05:45:20Z</time>
      </trkpt>
      <trkpt lat="44.08018" lon="6.88334">
        <ele>1083.2</ele>
        <time>2019-07-16T05:45:22Z</time>
      </trkpt>
      <trkpt lat="44.08015" lon="6.88338">
        <ele>1083.6</ele>
        <time>2019-07-16T05:45:24Z</time>
      </trkpt>
      <trkpt lat="44.08013" lon="6.88341">
        <ele>1083.9</ele>
        <time>2019-07-16T05:45:26Z</time>
      </trkpt>
      <trkpt lat="44.08011" lon="6.88345">
        <ele>1084.3</ele>
        <time>2019-07-16T05:45:28Z</time>
      </trkpt>
      <trkpt lat="44.08009" lon="6.88349">
        <ele>1084.7</ele>
        <time>2019-07-16T05:45:30Z</time>
      </trkpt>
      <trkpt lat="44.08007" lon="6.88353">
        <ele>1085</ele>
        <time>2019-07-16T05:45:32Z</time>
      </trkpt>
      <trkpt lat="44.08006" lon="6.88358">
        <ele>1085.4</ele>
        <time>2019-07-16T05:45:34Z</time>
      </trkpt>
      <trkpt lat="44.08005" lon="6.88361">
        <ele>1085.7</ele>
        <time>2019-07-16T05:45:36Z</time>
      </trkpt>
      <trkpt lat="44.08003" lon="6.88367">
        <ele>1086.1</ele>
        <time>2019-07-16T05:45:38Z</time>
      </trkpt>
      <trkpt lat="44.08002" lon="6.88371">
        <ele>1086.4</ele>
        <time>2019-07-16T05:45:40Z</time>
      </trkpt>
      <trkpt lat="44.08001" lon="6.88376">
        <ele>1086.8</ele>
        <time>2019-07-16T05:45:42Z</time>
      </trkpt>
      <trkpt lat="44.08" lon="6.88381">
        <ele>1087.2</ele>
        <time>2019-07-16T05:45:44Z</time>
      </trkpt>
      <trkpt lat="44.08" lon="6.88386">
        <ele>1087.6</ele>
        <time>2019-07-16T05:45:46Z</time>
      </trkpt>
      <trkpt lat="44.08" lon="6.88391">
        <ele>1087.9</ele>
        <time>2019-07-16T05:45:48Z</time>
      </trkpt>
      <trkpt lat="44.08001" lon="6.88396">
        <ele>1088.3</ele>
        <time>2019-07-16T05:45:50Z</time>
      </trkpt>
      <trkpt lat="44.08001" lon="6.88401">
        <ele>1088.6</ele>
        <time>2019-07-16T05:45:52Z</time>
      </trkpt>
      <trkpt lat="44.08003" lon="6.88405">
        <ele>1089</ele>
        <time>2019-07-16T05:45:54Z</time>
      </trkpt>
      <trkpt lat="44.08004" lon="6.8841">
        <ele>1089.3</ele>
        <time>2019-07-16T05:45:56Z</time>
      </trkpt>
      <trkpt lat="44.08004" lon="6.88414">
        <ele>1089.6</ele>
        <time>2019-07-16T05:45:58Z</time>
      </trkpt>
      <trkpt lat="44.08005" lon="6.88418">
        <ele>1089.9</ele>
        <time>2019-07-16T05:46:00Z</time>
      </trkpt>
      <trkpt lat="44.08006" lon="6.88423">
        <ele>1090.2</ele>
        <time>2019-07-16T05:46:02Z</time>
      </trkpt>
      <trkpt lat="44.08006" lon="6.88427">
        <ele>1090.6</ele>
        <time>2019-07-16T05:46:04Z</time>
      </trkpt>
      <trkpt lat="44.08007" lon="6.88432">
        <ele>1090.9</ele>
        <time>2019-07-16T05:46:06Z</time>
      </trkpt>
      <trkpt lat="44.08007" lon="6.88438">
        <ele>1091.3</ele>
        <time>2019-07-16T05:46:08Z</time>
      </trkpt>
      <trkpt lat="44.08008" lon="6.88442">
        <ele>1091.6</ele>
        <time>2019-07-16T05:46:10Z</time>
      </trkpt>
      <trkpt lat="44.08009" lon="6.88446">
        <ele>1091.9</ele>
        <time>2019-07-16T05:46:12Z</time>
      </trkpt>
      <trkpt lat="44.0801" lon="6.88451">
        <ele>1092.3</ele>
        <time>2019-07-16T05:46:14Z</time>
      </trkpt>
      <trkpt lat="44.08011" lon="6.88456">
        <ele>1092.6</ele>
        <time>2019-07-16T05:46:16Z</time>
      </trkpt>
      <trkpt lat="44.08012" lon="6.88461">
        <ele>1092.9</ele>
        <time>2019-07-16T05:46:18Z</time>
      </trkpt>
      <trkpt lat="44.08015" lon="6.88465">
        <ele>1093.3</ele>
        <time>2019-07-16T05:46:20Z</time>
      </trkpt>
      <trkpt lat="44.08017" lon="6.88469">
        <ele>1093.6</ele>
        <time>2019-07-16T05:46:22Z</time>
      </trkpt>
      <trkpt lat="44.08019" lon="6.88473">
        <ele>1094</ele>
        <time>2019-07-16T05:46:24Z</time>
      </trkpt>
      <trkpt lat="44.08022" lon="6.88477">
        <ele>1094.3</ele>
        <time>2019-07-16T05:46:26Z</time>
      </trkpt>
      <trkpt lat="44.08024" lon="6.88481">
        <ele>1094.6</ele>
        <time>2019-07-16T05:46:28Z</time>
      </trkpt>
      <trkpt lat="44.08027" lon="6.88484">
        <ele>1094.9</ele>
        <time>2019-07-16T05:46:30Z</time>
      </trkpt>
      <trkpt lat="44.0803" lon="6.88487">
        <ele>1095.2</ele>
        <time>2019-07-16T05:46:32Z</time>
      </trkpt>
      <trkpt lat="44.08032" lon="6.88489">
        <ele>1095.5</ele>
        <time>2019-07-16T05:46:34Z</time>
      </trkpt>
      <trkpt lat="44.08035" lon="6.88492">
        <ele>1095.7</ele>
        <time>2019-07-16T05:46:36Z</time>
      </trkpt>
      <trkpt lat="44.08038" lon="6.88496">
        <ele>1096.1</ele>
        <time>2019-07-16T05:46:39Z</time>
      </trkpt>
      <trkpt lat="44.0804" lon="6.88499">
        <ele>1096.3</ele>
        <time>2019-07-16T05:46:41Z</time>
      </trkpt>
      <trkpt lat="44.08042" lon="6.88503">
        <ele>1096.5</ele>
        <time>2019-07-16T05:46:43Z</time>
      </trkpt>
      <trkpt lat="44.08043" lon="6.88506">
        <ele>1096.8</ele>
        <time>2019-07-16T05:46:45Z</time>
      </trkpt>
      <trkpt lat="44.08044" lon="6.8851">
        <ele>1097</ele>
        <time>2019-07-16T05:46:47Z</time>
      </trkpt>
      <trkpt lat="44.08044" lon="6.88516">
        <ele>1097.5</ele>
        <time>2019-07-16T05:46:50Z</time>
      </trkpt>
      <trkpt lat="44.08044" lon="6.88521">
        <ele>1097.8</ele>
        <time>2019-07-16T05:46:52Z</time>
      </trkpt>
      <trkpt lat="44.08044" lon="6.88525">
        <ele>1098.1</ele>
        <time>2019-07-16T05:46:55Z</time>
      </trkpt>
      <trkpt lat="44.08043" lon="6.8853">
        <ele>1098.5</ele>
        <time>2019-07-16T05:46:57Z</time>
      </trkpt>
      <trkpt lat="44.08042" lon="6.88535">
        <ele>1098.8</ele>
        <time>2019-07-16T05:46:59Z</time>
      </trkpt>
      <trkpt lat="44.0804" lon="6.8854">
        <ele>1099.2</ele>
        <time>2019-07-16T05:47:01Z</time>
      </trkpt>
      <trkpt lat="44.08038" lon="6.88544">
        <ele>1099.5</ele>
        <time>2019-07-16T05:47:03Z</time>
      </trkpt>
      <trkpt lat="44.08037" lon="6.88548">
        <ele>1099.8</ele>
        <time>2019-07-16T05:47:05Z</time>
      </trkpt>
      <trkpt lat="44.08035" lon="6.88553">
        <ele>1100.1</ele>
        <time>2019-07-16T05:47:07Z</time>
      </trkpt>
      <trkpt lat="44.08033" lon="6.88557">
        <ele>1100.5</ele>
        <time>2019-07-16T05:47:09Z</time>
      </trkpt>
      <trkpt lat="44.08031" lon="6.88561">
        <ele>1100.8</ele>
        <time>2019-07-16T05:47:11Z</time>
      </trkpt>
      <trkpt lat="44.0803" lon="6.88565">
        <ele>1101.1</ele>
        <time>2019-07-16T05:47:13Z</time>
      </trkpt>
      <trkpt lat="44.08029" lon="6.8857">
        <ele>1101.4</ele>
        <time>2019-07-16T05:47:15Z</time>
      </trkpt>
      <trkpt lat="44.08028" lon="6.88574">
        <ele>1101.7</ele>
        <time>2019-07-16T05:47:17Z</time>
      </trkpt>
      <trkpt lat="44.08026" lon="6.8858">
        <ele>1102.1</ele>
        <time>2019-07-16T05:47:19Z</time>
      </trkpt>
      <trkpt lat="44.08025" lon="6.88585">
        <ele>1102.4</ele>
        <time>2019-07-16T05:47:21Z</time>
      </trkpt>
      <trkpt lat="44.08023" lon="6.88589">
        <ele>1102.7</ele>
        <time>2019-07-16T05:47:23Z</time>
      </trkpt>
      <trkpt lat="44.08022" lon="6.88593">
        <ele>1103</ele>
        <time>2019-07-16T05:47:25Z</time>
      </trkpt>
      <trkpt lat="44.08022" lon="6.88599">
        <ele>1103.4</ele>
        <time>2019-07-16T05:47:27Z</time>
      </trkpt>
      <trkpt lat="44.08022" lon="6.88604">
        <ele>1103.7</ele>
        <time>2019-07-16T05:47:29Z</time>
      </trkpt>
      <trkpt lat="44.08022" lon="6.88609">
        <ele>1103.9</ele>
        <time>2019-07-16T05:47:31Z</time>
      </trkpt>
      <trkpt lat="44.08022" lon="6.88614">
        <ele>1104.2</ele>
        <time>2019-07-16T05:47:33Z</time>
      </trkpt>
      <trkpt lat="44.08021" lon="6.88619">
        <ele>1104.5</ele>
        <time>2019-07-16T05:47:35Z</time>
      </trkpt>
      <trkpt lat="44.08022" lon="6.88624">
        <ele>1104.9</ele>
        <time>2019-07-16T05:47:37Z</time>
      </trkpt>
      <trkpt lat="44.08021" lon="6.88629">
        <ele>1105.2</ele>
        <time>2019-07-16T05:47:39Z</time>
      </trkpt>
      <trkpt lat="44.08022" lon="6.88634">
        <ele>1105.5</ele>
        <time>2019-07-16T05:47:41Z</time>
      </trkpt>
      <trkpt lat="44.08022" lon="6.88639">
        <ele>1105.8</ele>
        <time>2019-07-16T05:47:43Z</time>
      </trkpt>
      <trkpt lat="44.08022" lon="6.88644">
        <ele>1106.1</ele>
        <time>2019-07-16T05:47:45Z</time>
      </trkpt>
      <trkpt lat="44.08022" lon="6.88648">
        <ele>1106.4</ele>
        <time>2019-07-16T05:47:47Z</time>
      </trkpt>
      <trkpt lat="44.08022" lon="6.88653">
        <ele>1106.7</ele>
        <time>2019-07-16T05:47:49Z</time>
      </trkpt>
      <trkpt lat="44.08022" lon="6.88657">
        <ele>1107</ele>
        <time>2019-07-16T05:47:51Z</time>
      </trkpt>
      <trkpt lat="44.08021" lon="6.88662">
        <ele>1107.2</ele>
        <time>2019-07-16T05:47:53Z</time>
      </trkpt>
      <trkpt lat="44.08021" lon="6.88666">
        <ele>1107.5</ele>
        <time>2019-07-16T05:47:55Z</time>
      </trkpt>
      <trkpt lat="44.0802" lon="6.88671">
        <ele>1107.8</ele>
        <time>2019-07-16T05:47:57Z</time>
      </trkpt>
      <trkpt lat="44.08019" lon="6.88677">
        <ele>1108.2</ele>
        <time>2019-07-16T05:48:00Z</time>
      </trkpt>
      <trkpt lat="44.08019" lon="6.8868">
        <ele>1108.5</ele>
        <time>2019-07-16T05:48:02Z</time>
      </trkpt>
      <trkpt lat="44.08018" lon="6.88685">
        <ele>1108.8</ele>
        <time>2019-07-16T05:48:04Z</time>
      </trkpt>
      <trkpt lat="44.08017" lon="6.8869">
        <ele>1109.1</ele>
        <time>2019-07-16T05:48:06Z</time>
      </trkpt>
      <trkpt lat="44.08016" lon="6.88694">
        <ele>1109.4</ele>
        <time>2019-07-16T05:48:08Z</time>
      </trkpt>
      <trkpt lat="44.08015" lon="6.88699">
        <ele>1109.7</ele>
        <time>2019-07-16T05:48:10Z</time>
      </trkpt>
      <trkpt lat="44.08015" lon="6.88704">
        <ele>1110</ele>
        <time>2019-07-16T05:48:12Z</time>
      </trkpt>
      <trkpt lat="44.08015" lon="6.88709">
        <ele>1110.3</ele>
        <time>2019-07-16T05:48:14Z</time>
      </trkpt>
      <trkpt lat="44.08014" lon="6.88713">
        <ele>1110.6</ele>
        <time>2019-07-16T05:48:16Z</time>
      </trkpt>
      <trkpt lat="44.08014" lon="6.88718">
        <ele>1110.9</ele>
        <time>2019-07-16T05:48:18Z</time>
      </trkpt>
      <trkpt lat="44.08014" lon="6.88722">
        <ele>1111.1</ele>
        <time>2019-07-16T05:48:20Z</time>
      </trkpt>
      <trkpt lat="44.08014" lon="6.88726">
        <ele>1111.4</ele>
        <time>2019-07-16T05:48:22Z</time>
      </trkpt>
      <trkpt lat="44.08015" lon="6.88731">
        <ele>1111.7</ele>
        <time>2019-07-16T05:48:24Z</time>
      </trkpt>
      <trkpt lat="44.08015" lon="6.88735">
        <ele>1112</ele>
        <time>2019-07-16T05:48:26Z</time>
      </trkpt>
      <trkpt lat="44.08014" lon="6.88739">
        <ele>1112.2</ele>
        <time>2019-07-16T05:48:28Z</time>
      </trkpt>
      <trkpt lat="44.08015" lon="6.88744">
        <ele>1112.6</ele>
        <time>2019-07-16T05:48:30Z</time>
      </trkpt>
      <trkpt lat="44.08015" lon="6.88749">
        <ele>1112.9</ele>
        <time>2019-07-16T05:48:32Z</time>
      </trkpt>
      <trkpt lat="44.08014" lon="6.88754">
        <ele>1113.2</ele>
        <time>2019-07-16T05:48:34Z</time>
      </trkpt>
      <trkpt lat="44.08014" lon="6.88757">
        <ele>1113.4</ele>
        <time>2019-07-16T05:48:36Z</time>
      </trkpt>
      <trkpt lat="44.08014" lon="6.88761">
        <ele>1113.7</ele>
        <time>2019-07-16T05:48:38Z</time>
      </trkpt>
      <trkpt lat="44.08013" lon="6.88766">
        <ele>1114</ele>
        <time>2019-07-16T05:48:40Z</time>
      </trkpt>
      <trkpt lat="44.08013" lon="6.8877">
        <ele>1114.3</ele>
        <time>2019-07-16T05:48:42Z</time>
      </trkpt>
      <trkpt lat="44.08013" lon="6.88776">
        <ele>1114.7</ele>
        <time>2019-07-16T05:48:45Z</time>
      </trkpt>
      <trkpt lat="44.08012" lon="6.88782">
        <ele>1115.1</ele>
        <time>2019-07-16T05:48:47Z</time>
      </trkpt>
      <trkpt lat="44.08012" lon="6.88786">
        <ele>1115.4</ele>
        <time>2019-07-16T05:48:49Z</time>
      </trkpt>
      <trkpt lat="44.08011" lon="6.8879">
        <ele>1115.7</ele>
        <time>2019-07-16T05:48:51Z</time>
      </trkpt>
      <trkpt lat="44.08011" lon="6.88794">
        <ele>1116</ele>
        <time>2019-07-16T05:48:53Z</time>
      </trkpt>
      <trkpt lat="44.08012" lon="6.88799">
        <ele>1116.3</ele>
        <time>2019-07-16T05:48:55Z</time>
      </trkpt>
      <trkpt lat="44.08013" lon="6.88804">
        <ele>1116.7</ele>
        <time>2019-07-16T05:48:57Z</time>
      </trkpt>
      <trkpt lat="44.08014" lon="6.88808">
        <ele>1117</ele>
        <time>2019-07-16T05:48:59Z</time>
      </trkpt>
      <trkpt lat="44.08015" lon="6.88813">
        <ele>1117.3</ele>
        <time>2019-07-16T05:49:01Z</time>
      </trkpt>
      <trkpt lat="44.08016" lon="6.88817">
        <ele>1117.6</ele>
        <time>2019-07-16T05:49:03Z</time>
      </trkpt>
      <trkpt lat="44.08018" lon="6.8882">
        <ele>1117.9</ele>
        <time>2019-07-16T05:49:05Z</time>
      </trkpt>
      <trkpt lat="44.08021" lon="6.88824">
        <ele>1118.2</ele>
        <time>2019-07-16T05:49:07Z</time>
      </trkpt>
      <trkpt lat="44.08023" lon="6.88828">
        <ele>1118.6</ele>
        <time>2019-07-16T05:49:09Z</time>
      </trkpt>
      <trkpt lat="44.08026" lon="6.88832">
        <ele>1119</ele>
        <time>2019-07-16T05:49:11Z</time>
      </trkpt>
      <trkpt lat="44.08029" lon="6.88834">
        <ele>1119.3</ele>
        <time>2019-07-16T05:49:13Z</time>
      </trkpt>
      <trkpt lat="44.08032" lon="6.88837">
        <ele>1119.6</ele>
        <time>2019-07-16T05:49:15Z</time>
      </trkpt>
      <trkpt lat="44.08035" lon="6.88839">
        <ele>1119.9</ele>
        <time>2019-07-16T05:49:17Z</time>
      </trkpt>
      <trkpt lat="44.08037" lon="6.88843">
        <ele>1120.2</ele>
        <time>2019-07-16T05:49:19Z</time>
      </trkpt>
      <trkpt lat="44.08039" lon="6.88845">
        <ele>1120.5</ele>
        <time>2019-07-16T05:49:21Z</time>
      </trkpt>
      <trkpt lat="44.08042" lon="6.88848">
        <ele>1120.8</ele>
        <time>2019-07-16T05:49:23Z</time>
      </trkpt>
      <trkpt lat="44.08043" lon="6.88853">
        <ele>1121.1</ele>
        <time>2019-07-16T05:49:25Z</time>
      </trkpt>
      <trkpt lat="44.08044" lon="6.88856">
        <ele>1121.4</ele>
        <time>2019-07-16T05:49:27Z</time>
      </trkpt>
      <trkpt lat="44.08046" lon="6.88859">
        <ele>1121.7</ele>
        <time>2019-07-16T05:49:29Z</time>
      </trkpt>
      <trkpt lat="44.08048" lon="6.88862">
        <ele>1122</ele>
        <time>2019-07-16T05:49:31Z</time>
      </trkpt>
      <trkpt lat="44.0805" lon="6.88866">
        <ele>1122.2</ele>
        <time>2019-07-16T05:49:33Z</time>
      </trkpt>
      <trkpt lat="44.08053" lon="6.88868">
        <ele>1122.6</ele>
        <time>2019-07-16T05:49:36Z</time>
      </trkpt>
      <trkpt lat="44.08056" lon="6.88869">
        <ele>1122.9</ele>
        <time>2019-07-16T05:49:41Z</time>
      </trkpt>
      <trkpt lat="44.0806" lon="6.88875">
        <ele>1123.4</ele>
        <time>2019-07-16T05:53:28Z</time>
      </trkpt>
      <trkpt lat="44.08062" lon="6.88877">
        <ele>1123.7</ele>
        <time>2019-07-16T05:53:30Z</time>
      </trkpt>
      <trkpt lat="44.08065" lon="6.88881">
        <ele>1124.1</ele>
        <time>2019-07-16T05:53:33Z</time>
      </trkpt>
      <trkpt lat="44.08068" lon="6.88885">
        <ele>1124.4</ele>
        <time>2019-07-16T05:53:35Z</time>
      </trkpt>
      <trkpt lat="44.08071" lon="6.88887">
        <ele>1124.7</ele>
        <time>2019-07-16T05:53:37Z</time>
      </trkpt>
      <trkpt lat="44.08074" lon="6.88889">
        <ele>1125.1</ele>
        <time>2019-07-16T05:53:39Z</time>
      </trkpt>
      <trkpt lat="44.08077" lon="6.88892">
        <ele>1125.4</ele>
        <time>2019-07-16T05:53:41Z</time>
      </trkpt>
      <trkpt lat="44.0808" lon="6.88894">
        <ele>1125.7</ele>
        <time>2019-07-16T05:53:43Z</time>
      </trkpt>
      <trkpt lat="44.08082" lon="6.88896">
        <ele>1126</ele>
        <time>2019-07-16T05:53:45Z</time>
      </trkpt>
      <trkpt lat="44.08085" lon="6.88899">
        <ele>1126.3</ele>
        <time>2019-07-16T05:53:47Z</time>
      </trkpt>
      <trkpt lat="44.08087" lon="6.88902">
        <ele>1126.6</ele>
        <time>2019-07-16T05:53:49Z</time>
      </trkpt>
      <trkpt lat="44.0809" lon="6.88905">
        <ele>1126.9</ele>
        <time>2019-07-16T05:53:51Z</time>
      </trkpt>
      <trkpt lat="44.08093" lon="6.88908">
        <ele>1127.2</ele>
        <time>2019-07-16T05:53:53Z</time>
      </trkpt>
      <trkpt lat="44.08096" lon="6.88911">
        <ele>1127.6</ele>
        <time>2019-07-16T05:53:55Z</time>
      </trkpt>
      <trkpt lat="44.08099" lon="6.88914">
        <ele>1127.9</ele>
        <time>2019-07-16T05:53:57Z</time>
      </trkpt>
      <trkpt lat="44.08102" lon="6.88917">
        <ele>1128.2</ele>
        <time>2019-07-16T05:53:59Z</time>
      </trkpt>
      <trkpt lat="44.08104" lon="6.88919">
        <ele>1128.5</ele>
        <time>2019-07-16T05:54:01Z</time>
      </trkpt>
      <trkpt lat="44.08107" lon="6.88922">
        <ele>1128.8</ele>
        <time>2019-07-16T05:54:03Z</time>
      </trkpt>
      <trkpt lat="44.08109" lon="6.88925">
        <ele>1129.1</ele>
        <time>2019-07-16T05:54:05Z</time>
      </trkpt>
      <trkpt lat="44.08111" lon="6.88929">
        <ele>1129.4</ele>
        <time>2019-07-16T05:54:07Z</time>
      </trkpt>
      <trkpt lat="44.08113" lon="6.88933">
        <ele>1129.7</ele>
        <time>2019-07-16T05:54:09Z</time>
      </trkpt>
      <trkpt lat="44.08115" lon="6.88936">
        <ele>1130</ele>
        <time>2019-07-16T05:54:11Z</time>
      </trkpt>
      <trkpt lat="44.08116" lon="6.8894">
        <ele>1130.2</ele>
        <time>2019-07-16T05:54:13Z</time>
      </trkpt>
      <trkpt lat="44.08118" lon="6.88944">
        <ele>1130.5</ele>
        <time>2019-07-16T05:54:15Z</time>
      </trkpt>
      <trkpt lat="44.08118" lon="6.88948">
        <ele>1130.8</ele>
        <time>2019-07-16T05:54:17Z</time>
      </trkpt>
      <trkpt lat="44.08119" lon="6.88953">
        <ele>1131.1</ele>
        <time>2019-07-16T05:54:19Z</time>
      </trkpt>
      <trkpt lat="44.08121" lon="6.88957">
        <ele>1131.5</ele>
        <time>2019-07-16T05:54:21Z</time>
      </trkpt>
      <trkpt lat="44.08122" lon="6.88962">
        <ele>1131.8</ele>
        <time>2019-07-16T05:54:23Z</time>
      </trkpt>
      <trkpt lat="44.08123" lon="6.88966">
        <ele>1132.1</ele>
        <time>2019-07-16T05:54:25Z</time>
      </trkpt>
      <trkpt lat="44.08124" lon="6.8897">
        <ele>1132.4</ele>
        <time>2019-07-16T05:54:27Z</time>
      </trkpt>
      <trkpt lat="44.08125" lon="6.88974">
        <ele>1132.7</ele>
        <time>2019-07-16T05:54:29Z</time>
      </trkpt>
      <trkpt lat="44.08126" lon="6.88978">
        <ele>1133</ele>
        <time>2019-07-16T05:54:31Z</time>
      </trkpt>
      <trkpt lat="44.08128" lon="6.88983">
        <ele>1133.4</ele>
        <time>2019-07-16T05:54:33Z</time>
      </trkpt>
      <trkpt lat="44.0813" lon="6.88988">
        <ele>1133.8</ele>
        <time>2019-07-16T05:54:36Z</time>
      </trkpt>
      <trkpt lat="44.08131" lon="6.88993">
        <ele>1134.1</ele>
        <time>2019-07-16T05:54:38Z</time>
      </trkpt>
      <trkpt lat="44.08133" lon="6.88998">
        <ele>1134.5</ele>
        <time>2019-07-16T05:54:40Z</time>
      </trkpt>
      <trkpt lat="44.08134" lon="6.89003">
        <ele>1134.8</ele>
        <time>2019-07-16T05:54:42Z</time>
      </trkpt>
      <trkpt lat="44.08135" lon="6.89008">
        <ele>1135.2</ele>
        <time>2019-07-16T05:54:44Z</time>
      </trkpt>
      <trkpt lat="44.08137" lon="6.89012">
        <ele>1135.5</ele>
        <time>2019-07-16T05:54:46Z</time>
      </trkpt>
      <trkpt lat="44.08138" lon="6.89015">
        <ele>1135.7</ele>
        <time>2019-07-16T05:54:48Z</time>
      </trkpt>
      <trkpt lat="44.08139" lon="6.89019">
        <ele>1136</ele>
        <time>2019-07-16T05:54:50Z</time>
      </trkpt>
      <trkpt lat="44.08141" lon="6.89023">
        <ele>1136.3</ele>
        <time>2019-07-16T05:54:52Z</time>
      </trkpt>
      <trkpt lat="44.08141" lon="6.89027">
        <ele>1136.6</ele>
        <time>2019-07-16T05:54:54Z</time>
      </trkpt>
      <trkpt lat="44.08143" lon="6.89031">
        <ele>1136.9</ele>
        <time>2019-07-16T05:54:56Z</time>
      </trkpt>
      <trkpt lat="44.08143" lon="6.89035">
        <ele>1137.1</ele>
        <time>2019-07-16T05:54:58Z</time>
      </trkpt>
      <trkpt lat="44.08143" lon="6.8904">
        <ele>1137.4</ele>
        <time>2019-07-16T05:55:00Z</time>
      </trkpt>
      <trkpt lat="44.08143" lon="6.89045">
        <ele>1137.7</ele>
        <time>2019-07-16T05:55:02Z</time>
      </trkpt>
      <trkpt lat="44.08144" lon="6.89049">
        <ele>1138</ele>
        <time>2019-07-16T05:55:04Z</time>
      </trkpt>
      <trkpt lat="44.08144" lon="6.89054">
        <ele>1138.4</ele>
        <time>2019-07-16T05:55:06Z</time>
      </trkpt>
      <trkpt lat="44.08144" lon="6.8906">
        <ele>1138.7</ele>
        <time>2019-07-16T05:55:08Z</time>
      </trkpt>
      <trkpt lat="44.08144" lon="6.89064">
        <ele>1139.1</ele>
        <time>2019-07-16T05:55:10Z</time>
      </trkpt>
      <trkpt lat="44.08144" lon="6.89071">
        <ele>1139.5</ele>
        <time>2019-07-16T05:55:12Z</time>
      </trkpt>
      <trkpt lat="44.08144" lon="6.89075">
        <ele>1139.8</ele>
        <time>2019-07-16T05:55:14Z</time>
      </trkpt>
      <trkpt lat="44.08143" lon="6.89079">
        <ele>1140.1</ele>
        <time>2019-07-16T05:55:16Z</time>
      </trkpt>
      <trkpt lat="44.08143" lon="6.89084">
        <ele>1140.4</ele>
        <time>2019-07-16T05:55:18Z</time>
      </trkpt>
      <trkpt lat="44.08143" lon="6.89088">
        <ele>1140.7</ele>
        <time>2019-07-16T05:55:20Z</time>
      </trkpt>
      <trkpt lat="44.08144" lon="6.89092">
        <ele>1141.1</ele>
        <time>2019-07-16T05:55:22Z</time>
      </trkpt>
      <trkpt lat="44.08144" lon="6.89097">
        <ele>1141.4</ele>
        <time>2019-07-16T05:55:24Z</time>
      </trkpt>
      <trkpt lat="44.08143" lon="6.89102">
        <ele>1141.8</ele>
        <time>2019-07-16T05:55:26Z</time>
      </trkpt>
      <trkpt lat="44.08144" lon="6.89106">
        <ele>1142.1</ele>
        <time>2019-07-16T05:55:28Z</time>
      </trkpt>
      <trkpt lat="44.08144" lon="6.89111">
        <ele>1142.4</ele>
        <time>2019-07-16T05:55:30Z</time>
      </trkpt>
      <trkpt lat="44.08144" lon="6.89116">
        <ele>1142.7</ele>
        <time>2019-07-16T05:55:32Z</time>
      </trkpt>
      <trkpt lat="44.08144" lon="6.8912">
        <ele>1143.1</ele>
        <time>2019-07-16T05:55:34Z</time>
      </trkpt>
      <trkpt lat="44.08145" lon="6.89126">
        <ele>1143.4</ele>
        <time>2019-07-16T05:55:36Z</time>
      </trkpt>
      <trkpt lat="44.08146" lon="6.89131">
        <ele>1143.8</ele>
        <time>2019-07-16T05:55:38Z</time>
      </trkpt>
      <trkpt lat="44.08146" lon="6.89136">
        <ele>1144.2</ele>
        <time>2019-07-16T05:55:40Z</time>
      </trkpt>
      <trkpt lat="44.08147" lon="6.8914">
        <ele>1144.5</ele>
        <time>2019-07-16T05:55:42Z</time>
      </trkpt>
      <trkpt lat="44.08147" lon="6.89145">
        <ele>1144.8</ele>
        <time>2019-07-16T05:55:44Z</time>
      </trkpt>
      <trkpt lat="44.08147" lon="6.89151">
        <ele>1145.2</ele>
        <time>2019-07-16T05:55:46Z</time>
      </trkpt>
      <trkpt lat="44.08148" lon="6.89155">
        <ele>1145.5</ele>
        <time>2019-07-16T05:55:48Z</time>
      </trkpt>
      <trkpt lat="44.08148" lon="6.8916">
        <ele>1145.8</ele>
        <time>2019-07-16T05:55:50Z</time>
      </trkpt>
      <trkpt lat="44.08149" lon="6.89164">
        <ele>1146.2</ele>
        <time>2019-07-16T05:55:52Z</time>
      </trkpt>
      <trkpt lat="44.08149" lon="6.89169">
        <ele>1146.5</ele>
        <time>2019-07-16T05:55:54Z</time>
      </trkpt>
      <trkpt lat="44.0815" lon="6.89174">
        <ele>1146.8</ele>
        <time>2019-07-16T05:55:56Z</time>
      </trkpt>
      <trkpt lat="44.0815" lon="6.89178">
        <ele>1147.2</ele>
        <time>2019-07-16T05:55:58Z</time>
      </trkpt>
      <trkpt lat="44.0815" lon="6.89183">
        <ele>1147.5</ele>
        <time>2019-07-16T05:56:00Z</time>
      </trkpt>
      <trkpt lat="44.08151" lon="6.89187">
        <ele>1147.8</ele>
        <time>2019-07-16T05:56:02Z</time>
      </trkpt>
      <trkpt lat="44.08151" lon="6.89192">
        <ele>1148.1</ele>
        <time>2019-07-16T05:56:04Z</time>
      </trkpt>
      <trkpt lat="44.08151" lon="6.89197">
        <ele>1148.5</ele>
        <time>2019-07-16T05:56:06Z</time>
      </trkpt>
      <trkpt lat="44.08151" lon="6.89202">
        <ele>1148.8</ele>
        <time>2019-07-16T05:56:08Z</time>
      </trkpt>
      <trkpt lat="44.08151" lon="6.89206">
        <ele>1149.1</ele>
        <time>2019-07-16T05:56:10Z</time>
      </trkpt>
      <trkpt lat="44.08152" lon="6.8921">
        <ele>1149.4</ele>
        <time>2019-07-16T05:56:12Z</time>
      </trkpt>
      <trkpt lat="44.08152" lon="6.89214">
        <ele>1149.7</ele>
        <time>2019-07-16T05:56:14Z</time>
      </trkpt>
      <trkpt lat="44.08152" lon="6.89219">
        <ele>1150</ele>
        <time>2019-07-16T05:56:16Z</time>
      </trkpt>
      <trkpt lat="44.08152" lon="6.89224">
        <ele>1150.4</ele>
        <time>2019-07-16T05:56:18Z</time>
      </trkpt>
      <trkpt lat="44.08152" lon="6.89228">
        <ele>1150.6</ele>
        <time>2019-07-16T05:56:20Z</time>
      </trkpt>
      <trkpt lat="44.08151" lon="6.89232">
        <ele>1150.9</ele>
        <time>2019-07-16T05:56:22Z</time>
      </trkpt>
      <trkpt lat="44.08151" lon="6.89236">
        <ele>1151.1</ele>
        <time>2019-07-16T05:56:24Z</time>
      </trkpt>
      <trkpt lat="44.0815" lon="6.89241">
        <ele>1151.4</ele>
        <time>2019-07-16T05:56:26Z</time>
      </trkpt>
      <trkpt lat="44.08149" lon="6.89245">
        <ele>1151.7</ele>
        <time>2019-07-16T05:56:28Z</time>
      </trkpt>
      <trkpt lat="44.08148" lon="6.89249">
        <ele>1152</ele>
        <time>2019-07-16T05:56:30Z</time>
      </trkpt>
      <trkpt lat="44.08147" lon="6.89253">
        <ele>1152.2</ele>
        <time>2019-07-16T05:56:32Z</time>
      </trkpt>
      <trkpt lat="44.08146" lon="6.89258">
        <ele>1152.6</ele>
        <time>2019-07-16T05:56:34Z</time>
      </trkpt>
      <trkpt lat="44.08145" lon="6.89262">
        <ele>1152.8</ele>
        <time>2019-07-16T05:56:36Z</time>
      </trkpt>
      <trkpt lat="44.08144" lon="6.89266">
        <ele>1153.1</ele>
        <time>2019-07-16T05:56:38Z</time>
      </trkpt>
      <trkpt lat="44.08143" lon="6.89271">
        <ele>1153.5</ele>
        <time>2019-07-16T05:56:40Z</time>
      </trkpt>
      <trkpt lat="44.08141" lon="6.89276">
        <ele>1153.8</ele>
        <time>2019-07-16T05:56:42Z</time>
      </trkpt>
      <trkpt lat="44.08141" lon="6.89281">
        <ele>1154.1</ele>
        <time>2019-07-16T05:56:44Z</time>
      </trkpt>
      <trkpt lat="44.0814" lon="6.89285">
        <ele>1154.4</ele>
        <time>2019-07-16T05:56:46Z</time>
      </trkpt>
      <trkpt lat="44.08139" lon="6.8929">
        <ele>1154.7</ele>
        <time>2019-07-16T05:56:48Z</time>
      </trkpt>
      <trkpt lat="44.08138" lon="6.89295">
        <ele>1155</ele>
        <time>2019-07-16T05:56:50Z</time>
      </trkpt>
      <trkpt lat="44.08137" lon="6.893">
        <ele>1155.4</ele>
        <time>2019-07-16T05:56:52Z</time>
      </trkpt>
      <trkpt lat="44.08137" lon="6.89305">
        <ele>1155.7</ele>
        <time>2019-07-16T05:56:54Z</time>
      </trkpt>
      <trkpt lat="44.08137" lon="6.8931">
        <ele>1156</ele>
        <time>2019-07-16T05:56:56Z</time>
      </trkpt>
      <trkpt lat="44.08138" lon="6.89314">
        <ele>1156.3</ele>
        <time>2019-07-16T05:56:58Z</time>
      </trkpt>
      <trkpt lat="44.08139" lon="6.89319">
        <ele>1156.6</ele>
        <time>2019-07-16T05:57:00Z</time>
      </trkpt>
      <trkpt lat="44.08141" lon="6.89323">
        <ele>1156.9</ele>
        <time>2019-07-16T05:57:02Z</time>
      </trkpt>
      <trkpt lat="44.08143" lon="6.89328">
        <ele>1157.3</ele>
        <time>2019-07-16T05:57:04Z</time>
      </trkpt>
      <trkpt lat="44.08145" lon="6.89332">
        <ele>1157.6</ele>
        <time>2019-07-16T05:57:06Z</time>
      </trkpt>
      <trkpt lat="44.08147" lon="6.89336">
        <ele>1157.9</ele>
        <time>2019-07-16T05:57:08Z</time>
      </trkpt>
      <trkpt lat="44.0815" lon="6.8934">
        <ele>1158.3</ele>
        <time>2019-07-16T05:57:10Z</time>
      </trkpt>
      <trkpt lat="44.08152" lon="6.89343">
        <ele>1158.6</ele>
        <time>2019-07-16T05:57:12Z</time>
      </trkpt>
      <trkpt lat="44.08156" lon="6.89347">
        <ele>1158.9</ele>
        <time>2019-07-16T05:57:14Z</time>
      </trkpt>
      <trkpt lat="44.08159" lon="6.8935">
        <ele>1159.2</ele>
        <time>2019-07-16T05:57:16Z</time>
      </trkpt>
      <trkpt lat="44.08161" lon="6.89352">
        <ele>1159.5</ele>
        <time>2019-07-16T05:57:18Z</time>
      </trkpt>
      <trkpt lat="44.08164" lon="6.89355">
        <ele>1159.8</ele>
        <time>2019-07-16T05:57:20Z</time>
      </trkpt>
      <trkpt lat="44.08167" lon="6.89358">
        <ele>1160.1</ele>
        <time>2019-07-16T05:57:22Z</time>
      </trkpt>
      <trkpt lat="44.08169" lon="6.89361">
        <ele>1160.4</ele>
        <time>2019-07-16T05:57:24Z</time>
      </trkpt>
      <trkpt lat="44.08171" lon="6.89364">
        <ele>1160.7</ele>
        <time>2019-07-16T05:57:26Z</time>
      </trkpt>
      <trkpt lat="44.08172" lon="6.89369">
        <ele>1161</ele>
        <time>2019-07-16T05:57:28Z</time>
      </trkpt>
      <trkpt lat="44.08174" lon="6.89373">
        <ele>1161.3</ele>
        <time>2019-07-16T05:57:30Z</time>
      </trkpt>
      <trkpt lat="44.08177" lon="6.89376">
        <ele>1161.6</ele>
        <time>2019-07-16T05:57:32Z</time>
      </trkpt>
      <trkpt lat="44.08179" lon="6.89381">
        <ele>1161.9</ele>
        <time>2019-07-16T05:57:34Z</time>
      </trkpt>
      <trkpt lat="44.08181" lon="6.89384">
        <ele>1162.2</ele>
        <time>2019-07-16T05:57:36Z</time>
      </trkpt>
      <trkpt lat="44.08182" lon="6.89388">
        <ele>1162.5</ele>
        <time>2019-07-16T05:57:38Z</time>
      </trkpt>
      <trkpt lat="44.08184" lon="6.89393">
        <ele>1162.8</ele>
        <time>2019-07-16T05:57:40Z</time>
      </trkpt>
      <trkpt lat="44.08186" lon="6.89397">
        <ele>1163.1</ele>
        <time>2019-07-16T05:57:42Z</time>
      </trkpt>
      <trkpt lat="44.08187" lon="6.89401">
        <ele>1163.4</ele>
        <time>2019-07-16T05:57:44Z</time>
      </trkpt>
      <trkpt lat="44.08189" lon="6.89406">
        <ele>1163.7</ele>
        <time>2019-07-16T05:57:46Z</time>
      </trkpt>
      <trkpt lat="44.0819" lon="6.8941">
        <ele>1164</ele>
        <time>2019-07-16T05:57:48Z</time>
      </trkpt>
      <trkpt lat="44.08191" lon="6.89415">
        <ele>1164.3</ele>
        <time>2019-07-16T05:57:50Z</time>
      </trkpt>
      <trkpt lat="44.08192" lon="6.89419">
        <ele>1164.7</ele>
        <time>2019-07-16T05:57:52Z</time>
      </trkpt>
      <trkpt lat="44.08193" lon="6.89424">
        <ele>1165</ele>
        <time>2019-07-16T05:57:54Z</time>
      </trkpt>
      <trkpt lat="44.08195" lon="6.89427">
        <ele>1165.2</ele>
        <time>2019-07-16T05:57:56Z</time>
      </trkpt>
      <trkpt lat="44.08196" lon="6.89432">
        <ele>1165.5</ele>
        <time>2019-07-16T05:57:58Z</time>
      </trkpt>
      <trkpt lat="44.08196" lon="6.89437">
        <ele>1165.9</ele>
        <time>2019-07-16T05:58:00Z</time>
      </trkpt>
      <trkpt lat="44.08197" lon="6.89441">
        <ele>1166.2</ele>
        <time>2019-07-16T05:58:02Z</time>
      </trkpt>
      <trkpt lat="44.08197" lon="6.89446">
        <ele>1166.5</ele>
        <time>2019-07-16T05:58:04Z</time>
      </trkpt>
      <trkpt lat="44.08198" lon="6.8945">
        <ele>1166.8</ele>
        <time>2019-07-16T05:58:06Z</time>
      </trkpt>
      <trkpt lat="44.08199" lon="6.89454">
        <ele>1167.1</ele>
        <time>2019-07-16T05:58:08Z</time>
      </trkpt>
      <trkpt lat="44.08199" lon="6.89459">
        <ele>1167.3</ele>
        <time>2019-07-16T05:58:10Z</time>
      </trkpt>
      <trkpt lat="44.08199" lon="6.89463">
        <ele>1167.6</ele>
        <time>2019-07-16T05:58:12Z</time>
      </trkpt>
      <trkpt lat="44.082" lon="6.89467">
        <ele>1167.9</ele>
        <time>2019-07-16T05:58:14Z</time>
      </trkpt>
      <trkpt lat="44.08199" lon="6.89472">
        <ele>1168.2</ele>
        <time>2019-07-16T05:58:16Z</time>
      </trkpt>
      <trkpt lat="44.082" lon="6.89476">
        <ele>1168.4</ele>
        <time>2019-07-16T05:58:18Z</time>
      </trkpt>
      <trkpt lat="44.08199" lon="6.89481">
        <ele>1168.7</ele>
        <time>2019-07-16T05:58:20Z</time>
      </trkpt>
      <trkpt lat="44.08199" lon="6.89486">
        <ele>1169</ele>
        <time>2019-07-16T05:58:22Z</time>
      </trkpt>
      <trkpt lat="44.08199" lon="6.89491">
        <ele>1169.3</ele>
        <time>2019-07-16T05:58:24Z</time>
      </trkpt>
      <trkpt lat="44.08198" lon="6.89495">
        <ele>1169.6</ele>
        <time>2019-07-16T05:58:26Z</time>
      </trkpt>
      <trkpt lat="44.08198" lon="6.895">
        <ele>1169.9</ele>
        <time>2019-07-16T05:58:28Z</time>
      </trkpt>
      <trkpt lat="44.08198" lon="6.89504">
        <ele>1170.2</ele>
        <time>2019-07-16T05:58:30Z</time>
      </trkpt>
      <trkpt lat="44.08197" lon="6.89509">
        <ele>1170.5</ele>
        <time>2019-07-16T05:58:32Z</time>
      </trkpt>
      <trkpt lat="44.08196" lon="6.89515">
        <ele>1170.8</ele>
        <time>2019-07-16T05:58:34Z</time>
      </trkpt>
      <trkpt lat="44.08195" lon="6.89519">
        <ele>1171.1</ele>
        <time>2019-07-16T05:58:36Z</time>
      </trkpt>
      <trkpt lat="44.08194" lon="6.89524">
        <ele>1171.4</ele>
        <time>2019-07-16T05:58:38Z</time>
      </trkpt>
      <trkpt lat="44.08193" lon="6.89529">
        <ele>1171.7</ele>
        <time>2019-07-16T05:58:40Z</time>
      </trkpt>
      <trkpt lat="44.08191" lon="6.89534">
        <ele>1172</ele>
        <time>2019-07-16T05:58:42Z</time>
      </trkpt>
      <trkpt lat="44.0819" lon="6.89539">
        <ele>1172.3</ele>
        <time>2019-07-16T05:58:44Z</time>
      </trkpt>
      <trkpt lat="44.08189" lon="6.89543">
        <ele>1172.6</ele>
        <time>2019-07-16T05:58:46Z</time>
      </trkpt>
      <trkpt lat="44.08187" lon="6.89547">
        <ele>1172.8</ele>
        <time>2019-07-16T05:58:48Z</time>
      </trkpt>
      <trkpt lat="44.08186" lon="6.89551">
        <ele>1173.1</ele>
        <time>2019-07-16T05:58:50Z</time>
      </trkpt>
      <trkpt lat="44.08184" lon="6.89555">
        <ele>1173.3</ele>
        <time>2019-07-16T05:58:52Z</time>
      </trkpt>
      <trkpt lat="44.08183" lon="6.8956">
        <ele>1173.6</ele>
        <time>2019-07-16T05:58:54Z</time>
      </trkpt>
      <trkpt lat="44.08181" lon="6.89564">
        <ele>1173.8</ele>
        <time>2019-07-16T05:58:56Z</time>
      </trkpt>
      <trkpt lat="44.08179" lon="6.89568">
        <ele>1174.1</ele>
        <time>2019-07-16T05:58:58Z</time>
      </trkpt>
      <trkpt lat="44.08177" lon="6.89572">
        <ele>1174.3</ele>
        <time>2019-07-16T05:59:00Z</time>
      </trkpt>
      <trkpt lat="44.08175" lon="6.89576">
        <ele>1174.6</ele>
        <time>2019-07-16T05:59:02Z</time>
      </trkpt>
      <trkpt lat="44.08174" lon="6.8958">
        <ele>1174.8</ele>
        <time>2019-07-16T05:59:04Z</time>
      </trkpt>
      <trkpt lat="44.08172" lon="6.89583">
        <ele>1175.1</ele>
        <time>2019-07-16T05:59:06Z</time>
      </trkpt>
      <trkpt lat="44.0817" lon="6.89587">
        <ele>1175.3</ele>
        <time>2019-07-16T05:59:08Z</time>
      </trkpt>
      <trkpt lat="44.08169" lon="6.89592">
        <ele>1175.6</ele>
        <time>2019-07-16T05:59:10Z</time>
      </trkpt>
      <trkpt lat="44.08167" lon="6.89596">
        <ele>1175.9</ele>
        <time>2019-07-16T05:59:12Z</time>
      </trkpt>
      <trkpt lat="44.08166" lon="6.89601">
        <ele>1176.1</ele>
        <time>2019-07-16T05:59:14Z</time>
      </trkpt>
      <trkpt lat="44.08164" lon="6.89605">
        <ele>1176.4</ele>
        <time>2019-07-16T05:59:16Z</time>
      </trkpt>
      <trkpt lat="44.08163" lon="6.89608">
        <ele>1176.7</ele>
        <time>2019-07-16T05:59:18Z</time>
      </trkpt>
      <trkpt lat="44.08161" lon="6.89612">
        <ele>1177</ele>
        <time>2019-07-16T05:59:20Z</time>
      </trkpt>
      <trkpt lat="44.08159" lon="6.89617">
        <ele>1177.3</ele>
        <time>2019-07-16T05:59:22Z</time>
      </trkpt>
      <trkpt lat="44.08157" lon="6.89621">
        <ele>1177.6</ele>
        <time>2019-07-16T05:59:24Z</time>
      </trkpt>
      <trkpt lat="44.08156" lon="6.89626">
        <ele>1177.9</ele>
        <time>2019-07-16T05:59:26Z</time>
      </trkpt>
      <trkpt lat="44.08155" lon="6.8963">
        <ele>1178.2</ele>
        <time>2019-07-16T05:59:28Z</time>
      </trkpt>
      <trkpt lat="44.08153" lon="6.89634">
        <ele>1178.5</ele>
        <time>2019-07-16T05:59:30Z</time>
      </trkpt>
      <trkpt lat="44.08152" lon="6.89638">
        <ele>1178.8</ele>
        <time>2019-07-16T05:59:32Z</time>
      </trkpt>
      <trkpt lat="44.0815" lon="6.89642">
        <ele>1179.1</ele>
        <time>2019-07-16T05:59:34Z</time>
      </trkpt>
      <trkpt lat="44.08148" lon="6.89645">
        <ele>1179.4</ele>
        <time>2019-07-16T05:59:36Z</time>
      </trkpt>
      <trkpt lat="44.08145" lon="6.89649">
        <ele>1179.8</ele>
        <time>2019-07-16T05:59:38Z</time>
      </trkpt>
      <trkpt lat="44.08143" lon="6.89653">
        <ele>1180.1</ele>
        <time>2019-07-16T05:59:40Z</time>
      </trkpt>
      <trkpt lat="44.08141" lon="6.89656">
        <ele>1180.4</ele>
        <time>2019-07-16T05:59:42Z</time>
      </trkpt>
      <trkpt lat="44.08138" lon="6.89659">
        <ele>1180.7</ele>
        <time>2019-07-16T05:59:44Z</time>
      </trkpt>
      <trkpt lat="44.08135" lon="6.89662">
        <ele>1181</ele>
        <time>2019-07-16T05:59:46Z</time>
      </trkpt>
      <trkpt lat="44.08133" lon="6.89665">
        <ele>1181.4</ele>
        <time>2019-07-16T05:59:48Z</time>
      </trkpt>
      <trkpt lat="44.0813" lon="6.89668">
        <ele>1181.7</ele>
        <time>2019-07-16T05:59:50Z</time>
      </trkpt>
      <trkpt lat="44.08127" lon="6.89671">
        <ele>1182</ele>
        <time>2019-07-16T05:59:52Z</time>
      </trkpt>
      <trkpt lat="44.08125" lon="6.89674">
        <ele>1182.3</ele>
        <time>2019-07-16T05:59:54Z</time>
      </trkpt>
      <trkpt lat="44.08122" lon="6.89677">
        <ele>1182.6</ele>
        <time>2019-07-16T05:59:56Z</time>
      </trkpt>
      <trkpt lat="44.08118" lon="6.89678">
        <ele>1182.9</ele>
        <time>2019-07-16T05:59:58Z</time>
      </trkpt>
      <trkpt lat="44.08115" lon="6.89681">
        <ele>1183.2</ele>
        <time>2019-07-16T06:00:00Z</time>
      </trkpt>
      <trkpt lat="44.08113" lon="6.89683">
        <ele>1183.5</ele>
        <time>2019-07-16T06:00:02Z</time>
      </trkpt>
      <trkpt lat="44.0811" lon="6.89686">
        <ele>1183.8</ele>
        <time>2019-07-16T06:00:04Z</time>
      </trkpt>
      <trkpt lat="44.08107" lon="6.89688">
        <ele>1184.1</ele>
        <time>2019-07-16T06:00:06Z</time>
      </trkpt>
      <trkpt lat="44.08104" lon="6.89691">
        <ele>1184.4</ele>
        <time>2019-07-16T06:00:08Z</time>
      </trkpt>
      <trkpt lat="44.08101" lon="6.89693">
        <ele>1184.7</ele>
        <time>2019-07-16T06:00:10Z</time>
      </trkpt>
      <trkpt lat="44.08098" lon="6.89696">
        <ele>1185</ele>
        <time>2019-07-16T06:00:12Z</time>
      </trkpt>
      <trkpt lat="44.08096" lon="6.89699">
        <ele>1185.3</ele>
        <time>2019-07-16T06:00:14Z</time>
      </trkpt>
      <trkpt lat="44.08093" lon="6.89702">
        <ele>1185.6</ele>
        <time>2019-07-16T06:00:16Z</time>
      </trkpt>
      <trkpt lat="44.08091" lon="6.89706">
        <ele>1185.9</ele>
        <time>2019-07-16T06:00:18Z</time>
      </trkpt>
      <trkpt lat="44.08089" lon="6.89711">
        <ele>1186.2</ele>
        <time>2019-07-16T06:00:20Z</time>
      </trkpt>
      <trkpt lat="44.08087" lon="6.89715">
        <ele>1186.5</ele>
        <time>2019-07-16T06:00:22Z</time>
      </trkpt>
      <trkpt lat="44.08085" lon="6.89719">
        <ele>1186.8</ele>
        <time>2019-07-16T06:00:24Z</time>
      </trkpt>
      <trkpt lat="44.08084" lon="6.89723">
        <ele>1187</ele>
        <time>2019-07-16T06:00:26Z</time>
      </trkpt>
      <trkpt lat="44.08083" lon="6.89728">
        <ele>1187.3</ele>
        <time>2019-07-16T06:00:28Z</time>
      </trkpt>
      <trkpt lat="44.08082" lon="6.89733">
        <ele>1187.6</ele>
        <time>2019-07-16T06:00:30Z</time>
      </trkpt>
      <trkpt lat="44.08082" lon="6.89739">
        <ele>1188</ele>
        <time>2019-07-16T06:00:32Z</time>
      </trkpt>
      <trkpt lat="44.08082" lon="6.89744">
        <ele>1188.3</ele>
        <time>2019-07-16T06:00:34Z</time>
      </trkpt>
      <trkpt lat="44.08082" lon="6.89748">
        <ele>1188.6</ele>
        <time>2019-07-16T06:00:36Z</time>
      </trkpt>
      <trkpt lat="44.08082" lon="6.89753">
        <ele>1188.9</ele>
        <time>2019-07-16T06:00:38Z</time>
      </trkpt>
      <trkpt lat="44.08083" lon="6.89758">
        <ele>1189.2</ele>
        <time>2019-07-16T06:00:40Z</time>
      </trkpt>
      <trkpt lat="44.08083" lon="6.89763">
        <ele>1189.5</ele>
        <time>2019-07-16T06:00:42Z</time>
      </trkpt>
      <trkpt lat="44.08084" lon="6.89768">
        <ele>1189.8</ele>
        <time>2019-07-16T06:00:44Z</time>
      </trkpt>
      <trkpt lat="44.08085" lon="6.89772">
        <ele>1190.1</ele>
        <time>2019-07-16T06:00:46Z</time>
      </trkpt>
      <trkpt lat="44.08085" lon="6.89778">
        <ele>1190.4</ele>
        <time>2019-07-16T06:00:48Z</time>
      </trkpt>
      <trkpt lat="44.08085" lon="6.89783">
        <ele>1190.7</ele>
        <time>2019-07-16T06:00:50Z</time>
      </trkpt>
      <trkpt lat="44.08085" lon="6.89787">
        <ele>1191</ele>
        <time>2019-07-16T06:00:52Z</time>
      </trkpt>
      <trkpt lat="44.08085" lon="6.89792">
        <ele>1191.3</ele>
        <time>2019-07-16T06:00:54Z</time>
      </trkpt>
      <trkpt lat="44.08084" lon="6.89797">
        <ele>1191.6</ele>
        <time>2019-07-16T06:00:56Z</time>
      </trkpt>
      <trkpt lat="44.08085" lon="6.89802">
        <ele>1191.9</ele>
        <time>2019-07-16T06:00:58Z</time>
      </trkpt>
      <trkpt lat="44.08085" lon="6.89806">
        <ele>1192.2</ele>
        <time>2019-07-16T06:01:00Z</time>
      </trkpt>
      <trkpt lat="44.08085" lon="6.89811">
        <ele>1192.5</ele>
        <time>2019-07-16T06:01:02Z</time>
      </trkpt>
      <trkpt lat="44.08084" lon="6.89816">
        <ele>1192.8</ele>
        <time>2019-07-16T06:01:04Z</time>
      </trkpt>
      <trkpt lat="44.08084" lon="6.8982">
        <ele>1193.1</ele>
        <time>2019-07-16T06:01:06Z</time>
      </trkpt>
      <trkpt lat="44.08083" lon="6.89826">
        <ele>1193.4</ele>
        <time>2019-07-16T06:01:08Z</time>
      </trkpt>
      <trkpt lat="44.08082" lon="6.8983">
        <ele>1193.7</ele>
        <time>2019-07-16T06:01:10Z</time>
      </trkpt>
      <trkpt lat="44.08082" lon="6.89835">
        <ele>1194</ele>
        <time>2019-07-16T06:01:12Z</time>
      </trkpt>
      <trkpt lat="44.08081" lon="6.89839">
        <ele>1194.3</ele>
        <time>2019-07-16T06:01:14Z</time>
      </trkpt>
      <trkpt lat="44.08081" lon="6.89844">
        <ele>1194.7</ele>
        <time>2019-07-16T06:01:16Z</time>
      </trkpt>
      <trkpt lat="44.08081" lon="6.8985">
        <ele>1195</ele>
        <time>2019-07-16T06:01:18Z</time>
      </trkpt>
      <trkpt lat="44.0808" lon="6.89855">
        <ele>1195.4</ele>
        <time>2019-07-16T06:01:20Z</time>
      </trkpt>
      <trkpt lat="44.08079" lon="6.89859">
        <ele>1195.7</ele>
        <time>2019-07-16T06:01:22Z</time>
      </trkpt>
      <trkpt lat="44.08079" lon="6.89863">
        <ele>1196</ele>
        <time>2019-07-16T06:01:24Z</time>
      </trkpt>
      <trkpt lat="44.0808" lon="6.89869">
        <ele>1196.4</ele>
        <time>2019-07-16T06:01:26Z</time>
      </trkpt>
      <trkpt lat="44.0808" lon="6.89874">
        <ele>1196.8</ele>
        <time>2019-07-16T06:01:28Z</time>
      </trkpt>
      <trkpt lat="44.08081" lon="6.89879">
        <ele>1197.1</ele>
        <time>2019-07-16T06:01:30Z</time>
      </trkpt>
      <trkpt lat="44.08081" lon="6.89883">
        <ele>1197.5</ele>
        <time>2019-07-16T06:01:32Z</time>
      </trkpt>
      <trkpt lat="44.08082" lon="6.89888">
        <ele>1197.8</ele>
        <time>2019-07-16T06:01:34Z</time>
      </trkpt>
      <trkpt lat="44.08082" lon="6.89893">
        <ele>1198.1</ele>
        <time>2019-07-16T06:01:36Z</time>
      </trkpt>
      <trkpt lat="44.08083" lon="6.89898">
        <ele>1198.5</ele>
        <time>2019-07-16T06:01:38Z</time>
      </trkpt>
      <trkpt lat="44.08083" lon="6.89904">
        <ele>1198.9</ele>
        <time>2019-07-16T06:01:40Z</time>
      </trkpt>
      <trkpt lat="44.08084" lon="6.89909">
        <ele>1199.2</ele>
        <time>2019-07-16T06:01:42Z</time>
      </trkpt>
      <trkpt lat="44.08085" lon="6.89914">
        <ele>1199.5</ele>
        <time>2019-07-16T06:01:44Z</time>
      </trkpt>
      <trkpt lat="44.08085" lon="6.89919">
        <ele>1199.9</ele>
        <time>2019-07-16T06:01:46Z</time>
      </trkpt>
      <trkpt lat="44.08087" lon="6.89924">
        <ele>1200.2</ele>
        <time>2019-07-16T06:01:48Z</time>
      </trkpt>
      <trkpt lat="44.0809" lon="6.89928">
        <ele>1200.6</ele>
        <time>2019-07-16T06:01:50Z</time>
      </trkpt>
      <trkpt lat="44.08093" lon="6.8993">
        <ele>1200.9</ele>
        <time>2019-07-16T06:01:52Z</time>
      </trkpt>
      <trkpt lat="44.08098" lon="6.89932">
        <ele>1201.4</ele>
        <time>2019-07-16T06:01:54Z</time>
      </trkpt>
      <trkpt lat="44.08102" lon="6.89931">
        <ele>1201.7</ele>
        <time>2019-07-16T06:01:56Z</time>
      </trkpt>
      <trkpt lat="44.08107" lon="6.89929">
        <ele>1202.1</ele>
        <time>2019-07-16T06:01:58Z</time>
      </trkpt>
      <trkpt lat="44.0811" lon="6.89922">
        <ele>1202.5</ele>
        <time>2019-07-16T06:02:00Z</time>
      </trkpt>
      <trkpt lat="44.0811" lon="6.89915">
        <ele>1203.9</ele>
        <time>2019-07-16T06:02:02Z</time>
      </trkpt>
      <trkpt lat="44.08109" lon="6.89909">
        <ele>1204.5</ele>
        <time>2019-07-16T06:02:04Z</time>
      </trkpt>
      <trkpt lat="44.08108" lon="6.89902">
        <ele>1205.1</ele>
        <time>2019-07-16T06:02:06Z</time>
      </trkpt>
      <trkpt lat="44.08107" lon="6.89897">
        <ele>1205.6</ele>
        <time>2019-07-16T06:02:08Z</time>
      </trkpt>
      <trkpt lat="44.08106" lon="6.89891">
        <ele>1206.1</ele>
        <time>2019-07-16T06:02:10Z</time>
      </trkpt>
      <trkpt lat="44.08106" lon="6.89886">
        <ele>1206.5</ele>
        <time>2019-07-16T06:02:12Z</time>
      </trkpt>
      <trkpt lat="44.08106" lon="6.89881">
        <ele>1206.9</ele>
        <time>2019-07-16T06:02:14Z</time>
      </trkpt>
      <trkpt lat="44.08107" lon="6.89876">
        <ele>1207.3</ele>
        <time>2019-07-16T06:02:16Z</time>
      </trkpt>
      <trkpt lat="44.08107" lon="6.89872">
        <ele>1207.6</ele>
        <time>2019-07-16T06:02:18Z</time>
      </trkpt>
      <trkpt lat="44.08109" lon="6.89868">
        <ele>1208</ele>
        <time>2019-07-16T06:02:20Z</time>
      </trkpt>
      <trkpt lat="44.0811" lon="6.89865">
        <ele>1208.2</ele>
        <time>2019-07-16T06:02:22Z</time>
      </trkpt>
      <trkpt lat="44.08112" lon="6.89861">
        <ele>1208.6</ele>
        <time>2019-07-16T06:02:24Z</time>
      </trkpt>
      <trkpt lat="44.08114" lon="6.89857">
        <ele>1208.9</ele>
        <time>2019-07-16T06:02:26Z</time>
      </trkpt>
      <trkpt lat="44.08117" lon="6.89853">
        <ele>1209.3</ele>
        <time>2019-07-16T06:02:28Z</time>
      </trkpt>
      <trkpt lat="44.08119" lon="6.8985">
        <ele>1209.6</ele>
        <time>2019-07-16T06:02:31Z</time>
      </trkpt>
      <trkpt lat="44.08122" lon="6.89847">
        <ele>1209.9</ele>
        <time>2019-07-16T06:02:33Z</time>
      </trkpt>
      <trkpt lat="44.08125" lon="6.89845">
        <ele>1210.3</ele>
        <time>2019-07-16T06:02:35Z</time>
      </trkpt>
      <trkpt lat="44.08128" lon="6.89843">
        <ele>1210.6</ele>
        <time>2019-07-16T06:02:37Z</time>
      </trkpt>
      <trkpt lat="44.08131" lon="6.8984">
        <ele>1210.9</ele>
        <time>2019-07-16T06:02:39Z</time>
      </trkpt>
      <trkpt lat="44.08134" lon="6.89838">
        <ele>1211.3</ele>
        <time>2019-07-16T06:02:41Z</time>
      </trkpt>
      <trkpt lat="44.08138" lon="6.89835">
        <ele>1211.6</ele>
        <time>2019-07-16T06:02:43Z</time>
      </trkpt>
      <trkpt lat="44.08141" lon="6.89834">
        <ele>1211.9</ele>
        <time>2019-07-16T06:02:45Z</time>
      </trkpt>
      <trkpt lat="44.08144" lon="6.89832">
        <ele>1212.2</ele>
        <time>2019-07-16T06:02:47Z</time>
      </trkpt>
      <trkpt lat="44.08148" lon="6.8983">
        <ele>1212.7</ele>
        <time>2019-07-16T06:02:49Z</time>
      </trkpt>
      <trkpt lat="44.08151" lon="6.89828">
        <ele>1213.1</ele>
        <time>2019-07-16T06:02:51Z</time>
      </trkpt>
      <trkpt lat="44.08154" lon="6.89826">
        <ele>1213.5</ele>
        <time>2019-07-16T06:02:53Z</time>
      </trkpt>
      <trkpt lat="44.08158" lon="6.89823">
        <ele>1214</ele>
        <time>2019-07-16T06:02:55Z</time>
      </trkpt>
      <trkpt lat="44.08161" lon="6.8982">
        <ele>1214.4</ele>
        <time>2019-07-16T06:02:57Z</time>
      </trkpt>
      <trkpt lat="44.08164" lon="6.89818">
        <ele>1214.8</ele>
        <time>2019-07-16T06:02:59Z</time>
      </trkpt>
      <trkpt lat="44.08168" lon="6.89816">
        <ele>1215.3</ele>
        <time>2019-07-16T06:03:01Z</time>
      </trkpt>
      <trkpt lat="44.0817" lon="6.89814">
        <ele>1215.6</ele>
        <time>2019-07-16T06:03:03Z</time>
      </trkpt>
      <trkpt lat="44.08173" lon="6.89812">
        <ele>1216</ele>
        <time>2019-07-16T06:03:05Z</time>
      </trkpt>
      <trkpt lat="44.08177" lon="6.8981">
        <ele>1216.4</ele>
        <time>2019-07-16T06:03:07Z</time>
      </trkpt>
      <trkpt lat="44.08181" lon="6.89808">
        <ele>1216.8</ele>
        <time>2019-07-16T06:03:09Z</time>
      </trkpt>
      <trkpt lat="44.08183" lon="6.89805">
        <ele>1217.2</ele>
        <time>2019-07-16T06:03:11Z</time>
      </trkpt>
      <trkpt lat="44.08186" lon="6.89803">
        <ele>1217.5</ele>
        <time>2019-07-16T06:03:13Z</time>
      </trkpt>
      <trkpt lat="44.08189" lon="6.89799">
        <ele>1217.9</ele>
        <time>2019-07-16T06:03:15Z</time>
      </trkpt>
      <trkpt lat="44.08192" lon="6.89796">
        <ele>1218.3</ele>
        <time>2019-07-16T06:03:17Z</time>
      </trkpt>
      <trkpt lat="44.08194" lon="6.89793">
        <ele>1218.6</ele>
        <time>2019-07-16T06:03:19Z</time>
      </trkpt>
      <trkpt lat="44.08198" lon="6.8979">
        <ele>1219</ele>
        <time>2019-07-16T06:03:21Z</time>
      </trkpt>
      <trkpt lat="44.082" lon="6.89787">
        <ele>1219.4</ele>
        <time>2019-07-16T06:03:23Z</time>
      </trkpt>
      <trkpt lat="44.08203" lon="6.89785">
        <ele>1219.7</ele>
        <time>2019-07-16T06:03:25Z</time>
      </trkpt>
      <trkpt lat="44.08205" lon="6.89781">
        <ele>1220.1</ele>
        <time>2019-07-16T06:03:27Z</time>
      </trkpt>
      <trkpt lat="44.08208" lon="6.89777">
        <ele>1220.5</ele>
        <time>2019-07-16T06:03:29Z</time>
      </trkpt>
      <trkpt lat="44.08211" lon="6.89775">
        <ele>1220.8</ele>
        <time>2019-07-16T06:03:33Z</time>
      </trkpt>
      <trkpt lat="44.08212" lon="6.89772">
        <ele>1221.1</ele>
        <time>2019-07-16T06:03:38Z</time>
      </trkpt>
      <trkpt lat="44.08213" lon="6.89768">
        <ele>1221.4</ele>
        <time>2019-07-16T06:03:41Z</time>
      </trkpt>
      <trkpt lat="44.08216" lon="6.89765">
        <ele>1221.7</ele>
        <time>2019-07-16T06:03:43Z</time>
      </trkpt>
      <trkpt lat="44.08218" lon="6.89763">
        <ele>1222</ele>
        <time>2019-07-16T06:03:45Z</time>
      </trkpt>
      <trkpt lat="44.08221" lon="6.8976">
        <ele>1222.4</ele>
        <time>2019-07-16T06:03:47Z</time>
      </trkpt>
      <trkpt lat="44.08224" lon="6.89756">
        <ele>1222.6</ele>
        <time>2019-07-16T06:03:49Z</time>
      </trkpt>
      <trkpt lat="44.08226" lon="6.89753">
        <ele>1222.9</ele>
        <time>2019-07-16T06:03:51Z</time>
      </trkpt>
      <trkpt lat="44.08229" lon="6.8975">
        <ele>1223.1</ele>
        <time>2019-07-16T06:03:53Z</time>
      </trkpt>
      <trkpt lat="44.08232" lon="6.89747">
        <ele>1223.4</ele>
        <time>2019-07-16T06:03:55Z</time>
      </trkpt>
      <trkpt lat="44.08234" lon="6.89743">
        <ele>1223.6</ele>
        <time>2019-07-16T06:03:57Z</time>
      </trkpt>
      <trkpt lat="44.08236" lon="6.8974">
        <ele>1223.9</ele>
        <time>2019-07-16T06:03:59Z</time>
      </trkpt>
      <trkpt lat="44.08238" lon="6.89737">
        <ele>1224.1</ele>
        <time>2019-07-16T06:04:01Z</time>
      </trkpt>
      <trkpt lat="44.08241" lon="6.89734">
        <ele>1224.3</ele>
        <time>2019-07-16T06:04:03Z</time>
      </trkpt>
      <trkpt lat="44.08242" lon="6.8973">
        <ele>1224.5</ele>
        <time>2019-07-16T06:04:05Z</time>
      </trkpt>
      <trkpt lat="44.08245" lon="6.89726">
        <ele>1224.8</ele>
        <time>2019-07-16T06:04:07Z</time>
      </trkpt>
      <trkpt lat="44.08248" lon="6.89723">
        <ele>1225.1</ele>
        <time>2019-07-16T06:04:09Z</time>
      </trkpt>
      <trkpt lat="44.0825" lon="6.8972">
        <ele>1225.3</ele>
        <time>2019-07-16T06:04:11Z</time>
      </trkpt>
      <trkpt lat="44.08252" lon="6.89718">
        <ele>1225.5</ele>
        <time>2019-07-16T06:04:13Z</time>
      </trkpt>
      <trkpt lat="44.08255" lon="6.89713">
        <ele>1225.8</ele>
        <time>2019-07-16T06:04:16Z</time>
      </trkpt>
      <trkpt lat="44.08257" lon="6.89711">
        <ele>1226</ele>
        <time>2019-07-16T06:04:18Z</time>
      </trkpt>
      <trkpt lat="44.08259" lon="6.89706">
        <ele>1226.3</ele>
        <time>2019-07-16T06:04:20Z</time>
      </trkpt>
      <trkpt lat="44.08261" lon="6.89703">
        <ele>1226.6</ele>
        <time>2019-07-16T06:04:22Z</time>
      </trkpt>
      <trkpt lat="44.08264" lon="6.897">
        <ele>1226.9</ele>
        <time>2019-07-16T06:04:24Z</time>
      </trkpt>
      <trkpt lat="44.08266" lon="6.89696">
        <ele>1227.2</ele>
        <time>2019-07-16T06:04:26Z</time>
      </trkpt>
      <trkpt lat="44.08268" lon="6.89693">
        <ele>1227.6</ele>
        <time>2019-07-16T06:04:28Z</time>
      </trkpt>
      <trkpt lat="44.0827" lon="6.8969">
        <ele>1227.9</ele>
        <time>2019-07-16T06:04:30Z</time>
      </trkpt>
      <trkpt lat="44.08273" lon="6.89687">
        <ele>1228.2</ele>
        <time>2019-07-16T06:04:32Z</time>
      </trkpt>
      <trkpt lat="44.08275" lon="6.89685">
        <ele>1228.5</ele>
        <time>2019-07-16T06:04:34Z</time>
      </trkpt>
      <trkpt lat="44.08277" lon="6.89681">
        <ele>1228.8</ele>
        <time>2019-07-16T06:04:36Z</time>
      </trkpt>
      <trkpt lat="44.08279" lon="6.89677">
        <ele>1229.2</ele>
        <time>2019-07-16T06:04:39Z</time>
      </trkpt>
      <trkpt lat="44.0828" lon="6.89673">
        <ele>1229.5</ele>
        <time>2019-07-16T06:04:41Z</time>
      </trkpt>
      <trkpt lat="44.08283" lon="6.8967">
        <ele>1229.9</ele>
        <time>2019-07-16T06:04:44Z</time>
      </trkpt>
      <trkpt lat="44.08286" lon="6.89669">
        <ele>1230.3</ele>
        <time>2019-07-16T06:04:46Z</time>
      </trkpt>
      <trkpt lat="44.08289" lon="6.89666">
        <ele>1230.6</ele>
        <time>2019-07-16T06:04:48Z</time>
      </trkpt>
      <trkpt lat="44.08292" lon="6.89664">
        <ele>1231</ele>
        <time>2019-07-16T06:04:50Z</time>
      </trkpt>
      <trkpt lat="44.08295" lon="6.89661">
        <ele>1231.4</ele>
        <time>2019-07-16T06:04:52Z</time>
      </trkpt>
      <trkpt lat="44.08299" lon="6.89657">
        <ele>1231.8</ele>
        <time>2019-07-16T06:04:54Z</time>
      </trkpt>
      <trkpt lat="44.08301" lon="6.89654">
        <ele>1232.2</ele>
        <time>2019-07-16T06:04:56Z</time>
      </trkpt>
      <trkpt lat="44.08303" lon="6.8965">
        <ele>1232.5</ele>
        <time>2019-07-16T06:04:58Z</time>
      </trkpt>
      <trkpt lat="44.08306" lon="6.89648">
        <ele>1232.8</ele>
        <time>2019-07-16T06:05:00Z</time>
      </trkpt>
      <trkpt lat="44.08308" lon="6.89643">
        <ele>1233.2</ele>
        <time>2019-07-16T06:05:02Z</time>
      </trkpt>
      <trkpt lat="44.08311" lon="6.8964">
        <ele>1233.6</ele>
        <time>2019-07-16T06:05:04Z</time>
      </trkpt>
      <trkpt lat="44.08313" lon="6.89637">
        <ele>1233.8</ele>
        <time>2019-07-16T06:05:06Z</time>
      </trkpt>
      <trkpt lat="44.08316" lon="6.89635">
        <ele>1234</ele>
        <time>2019-07-16T06:05:08Z</time>
      </trkpt>
      <trkpt lat="44.08319" lon="6.89632">
        <ele>1234.3</ele>
        <time>2019-07-16T06:05:10Z</time>
      </trkpt>
      <trkpt lat="44.08322" lon="6.8963">
        <ele>1234.6</ele>
        <time>2019-07-16T06:05:12Z</time>
      </trkpt>
      <trkpt lat="44.08325" lon="6.89628">
        <ele>1234.8</ele>
        <time>2019-07-16T06:05:14Z</time>
      </trkpt>
      <trkpt lat="44.08327" lon="6.89624">
        <ele>1235.1</ele>
        <time>2019-07-16T06:05:16Z</time>
      </trkpt>
      <trkpt lat="44.08329" lon="6.8962">
        <ele>1235.3</ele>
        <time>2019-07-16T06:05:18Z</time>
      </trkpt>
      <trkpt lat="44.08331" lon="6.89616">
        <ele>1235.6</ele>
        <time>2019-07-16T06:05:20Z</time>
      </trkpt>
      <trkpt lat="44.08334" lon="6.89612">
        <ele>1236.1</ele>
        <time>2019-07-16T06:05:23Z</time>
      </trkpt>
      <trkpt lat="44.08336" lon="6.89608">
        <ele>1236.4</ele>
        <time>2019-07-16T06:05:25Z</time>
      </trkpt>
      <trkpt lat="44.08338" lon="6.89605">
        <ele>1236.8</ele>
        <time>2019-07-16T06:05:27Z</time>
      </trkpt>
      <trkpt lat="44.08341" lon="6.89601">
        <ele>1237.1</ele>
        <time>2019-07-16T06:05:29Z</time>
      </trkpt>
      <trkpt lat="44.08344" lon="6.89599">
        <ele>1237.5</ele>
        <time>2019-07-16T06:05:31Z</time>
      </trkpt>
      <trkpt lat="44.08347" lon="6.89597">
        <ele>1237.8</ele>
        <time>2019-07-16T06:05:33Z</time>
      </trkpt>
      <trkpt lat="44.08349" lon="6.89594">
        <ele>1238.1</ele>
        <time>2019-07-16T06:05:35Z</time>
      </trkpt>
      <trkpt lat="44.08352" lon="6.89591">
        <ele>1238.4</ele>
        <time>2019-07-16T06:05:37Z</time>
      </trkpt>
      <trkpt lat="44.08356" lon="6.89588">
        <ele>1238.7</ele>
        <time>2019-07-16T06:05:39Z</time>
      </trkpt>
      <trkpt lat="44.08359" lon="6.89585">
        <ele>1239</ele>
        <time>2019-07-16T06:05:41Z</time>
      </trkpt>
      <trkpt lat="44.08362" lon="6.89583">
        <ele>1239.3</ele>
        <time>2019-07-16T06:05:43Z</time>
      </trkpt>
      <trkpt lat="44.08365" lon="6.89581">
        <ele>1239.5</ele>
        <time>2019-07-16T06:05:45Z</time>
      </trkpt>
      <trkpt lat="44.08369" lon="6.89578">
        <ele>1239.8</ele>
        <time>2019-07-16T06:05:47Z</time>
      </trkpt>
      <trkpt lat="44.08372" lon="6.89577">
        <ele>1240</ele>
        <time>2019-07-16T06:05:49Z</time>
      </trkpt>
      <trkpt lat="44.08375" lon="6.89575">
        <ele>1240.2</ele>
        <time>2019-07-16T06:05:51Z</time>
      </trkpt>
      <trkpt lat="44.08378" lon="6.89574">
        <ele>1240.6</ele>
        <time>2019-07-16T06:05:53Z</time>
      </trkpt>
      <trkpt lat="44.08382" lon="6.89573">
        <ele>1241</ele>
        <time>2019-07-16T06:05:55Z</time>
      </trkpt>
      <trkpt lat="44.08385" lon="6.89571">
        <ele>1241.3</ele>
        <time>2019-07-16T06:05:57Z</time>
      </trkpt>
      <trkpt lat="44.08388" lon="6.8957">
        <ele>1241.7</ele>
        <time>2019-07-16T06:05:59Z</time>
      </trkpt>
      <trkpt lat="44.08391" lon="6.89568">
        <ele>1242.1</ele>
        <time>2019-07-16T06:06:01Z</time>
      </trkpt>
      <trkpt lat="44.08394" lon="6.89567">
        <ele>1242.4</ele>
        <time>2019-07-16T06:06:03Z</time>
      </trkpt>
      <trkpt lat="44.08397" lon="6.89565">
        <ele>1242.8</ele>
        <time>2019-07-16T06:06:05Z</time>
      </trkpt>
      <trkpt lat="44.084" lon="6.89564">
        <ele>1243.1</ele>
        <time>2019-07-16T06:06:07Z</time>
      </trkpt>
      <trkpt lat="44.08405" lon="6.89564">
        <ele>1243.4</ele>
        <time>2019-07-16T06:06:09Z</time>
      </trkpt>
      <trkpt lat="44.08408" lon="6.89563">
        <ele>1243.7</ele>
        <time>2019-07-16T06:06:11Z</time>
      </trkpt>
      <trkpt lat="44.08411" lon="6.89561">
        <ele>1243.9</ele>
        <time>2019-07-16T06:06:13Z</time>
      </trkpt>
      <trkpt lat="44.08414" lon="6.8956">
        <ele>1244.2</ele>
        <time>2019-07-16T06:06:15Z</time>
      </trkpt>
      <trkpt lat="44.08418" lon="6.89559">
        <ele>1244.4</ele>
        <time>2019-07-16T06:06:17Z</time>
      </trkpt>
      <trkpt lat="44.0842" lon="6.89557">
        <ele>1244.7</ele>
        <time>2019-07-16T06:06:19Z</time>
      </trkpt>
      <trkpt lat="44.08424" lon="6.89556">
        <ele>1245</ele>
        <time>2019-07-16T06:06:21Z</time>
      </trkpt>
      <trkpt lat="44.08427" lon="6.89553">
        <ele>1245.2</ele>
        <time>2019-07-16T06:06:23Z</time>
      </trkpt>
      <trkpt lat="44.0843" lon="6.89551">
        <ele>1245.5</ele>
        <time>2019-07-16T06:06:25Z</time>
      </trkpt>
      <trkpt lat="44.08434" lon="6.8955">
        <ele>1245.8</ele>
        <time>2019-07-16T06:06:27Z</time>
      </trkpt>
      <trkpt lat="44.08437" lon="6.89548">
        <ele>1246</ele>
        <time>2019-07-16T06:06:29Z</time>
      </trkpt>
      <trkpt lat="44.08439" lon="6.89546">
        <ele>1246.3</ele>
        <time>2019-07-16T06:06:31Z</time>
      </trkpt>
      <trkpt lat="44.08443" lon="6.89545">
        <ele>1246.5</ele>
        <time>2019-07-16T06:06:33Z</time>
      </trkpt>
      <trkpt lat="44.08447" lon="6.89544">
        <ele>1246.9</ele>
        <time>2019-07-16T06:06:35Z</time>
      </trkpt>
      <trkpt lat="44.0845" lon="6.89542">
        <ele>1247.2</ele>
        <time>2019-07-16T06:06:37Z</time>
      </trkpt>
      <trkpt lat="44.08454" lon="6.89541">
        <ele>1247.5</ele>
        <time>2019-07-16T06:06:39Z</time>
      </trkpt>
      <trkpt lat="44.08456" lon="6.89539">
        <ele>1247.8</ele>
        <time>2019-07-16T06:06:41Z</time>
      </trkpt>
      <trkpt lat="44.08459" lon="6.89538">
        <ele>1248.2</ele>
        <time>2019-07-16T06:06:43Z</time>
      </trkpt>
      <trkpt lat="44.08462" lon="6.89536">
        <ele>1248.5</ele>
        <time>2019-07-16T06:06:45Z</time>
      </trkpt>
      <trkpt lat="44.08465" lon="6.89534">
        <ele>1248.8</ele>
        <time>2019-07-16T06:06:47Z</time>
      </trkpt>
      <trkpt lat="44.08468" lon="6.89532">
        <ele>1249</ele>
        <time>2019-07-16T06:06:49Z</time>
      </trkpt>
      <trkpt lat="44.08471" lon="6.8953">
        <ele>1249.3</ele>
        <time>2019-07-16T06:06:51Z</time>
      </trkpt>
      <trkpt lat="44.08474" lon="6.89529">
        <ele>1249.5</ele>
        <time>2019-07-16T06:06:53Z</time>
      </trkpt>
      <trkpt lat="44.08477" lon="6.89526">
        <ele>1249.7</ele>
        <time>2019-07-16T06:06:55Z</time>
      </trkpt>
      <trkpt lat="44.0848" lon="6.89524">
        <ele>1250</ele>
        <time>2019-07-16T06:06:57Z</time>
      </trkpt>
      <trkpt lat="44.08484" lon="6.89522">
        <ele>1250.3</ele>
        <time>2019-07-16T06:06:59Z</time>
      </trkpt>
      <trkpt lat="44.08487" lon="6.89521">
        <ele>1250.6</ele>
        <time>2019-07-16T06:07:01Z</time>
      </trkpt>
      <trkpt lat="44.0849" lon="6.89518">
        <ele>1250.9</ele>
        <time>2019-07-16T06:07:04Z</time>
      </trkpt>
      <trkpt lat="44.08491" lon="6.89515">
        <ele>1251.1</ele>
        <time>2019-07-16T06:07:06Z</time>
      </trkpt>
      <trkpt lat="44.08493" lon="6.89511">
        <ele>1251.3</ele>
        <time>2019-07-16T06:07:08Z</time>
      </trkpt>
      <trkpt lat="44.08494" lon="6.89505">
        <ele>1251.7</ele>
        <time>2019-07-16T06:07:10Z</time>
      </trkpt>
      <trkpt lat="44.08494" lon="6.895">
        <ele>1252</ele>
        <time>2019-07-16T06:07:12Z</time>
      </trkpt>
      <trkpt lat="44.08494" lon="6.89493">
        <ele>1252.4</ele>
        <time>2019-07-16T06:07:14Z</time>
      </trkpt>
      <trkpt lat="44.08492" lon="6.89487">
        <ele>1252.8</ele>
        <time>2019-07-16T06:07:16Z</time>
      </trkpt>
      <trkpt lat="44.08491" lon="6.89482">
        <ele>1253.2</ele>
        <time>2019-07-16T06:07:18Z</time>
      </trkpt>
      <trkpt lat="44.08491" lon="6.89476">
        <ele>1253.5</ele>
        <time>2019-07-16T06:07:20Z</time>
      </trkpt>
      <trkpt lat="44.08489" lon="6.89472">
        <ele>1253.8</ele>
        <time>2019-07-16T06:07:22Z</time>
      </trkpt>
      <trkpt lat="44.08487" lon="6.89469">
        <ele>1254.1</ele>
        <time>2019-07-16T06:07:24Z</time>
      </trkpt>
      <trkpt lat="44.08484" lon="6.89467">
        <ele>1254.4</ele>
        <time>2019-07-16T06:07:26Z</time>
      </trkpt>
      <trkpt lat="44.08481" lon="6.89463">
        <ele>1254.7</ele>
        <time>2019-07-16T06:07:28Z</time>
      </trkpt>
      <trkpt lat="44.08479" lon="6.8946">
        <ele>1255</ele>
        <time>2019-07-16T06:07:30Z</time>
      </trkpt>
      <trkpt lat="44.08476" lon="6.89458">
        <ele>1255.3</ele>
        <time>2019-07-16T06:07:32Z</time>
      </trkpt>
      <trkpt lat="44.08474" lon="6.89454">
        <ele>1255.6</ele>
        <time>2019-07-16T06:07:34Z</time>
      </trkpt>
      <trkpt lat="44.08471" lon="6.89451">
        <ele>1256.1</ele>
        <time>2019-07-16T06:07:36Z</time>
      </trkpt>
      <trkpt lat="44.08468" lon="6.89449">
        <ele>1256.5</ele>
        <time>2019-07-16T06:07:38Z</time>
      </trkpt>
      <trkpt lat="44.08466" lon="6.89447">
        <ele>1256.9</ele>
        <time>2019-07-16T06:07:40Z</time>
      </trkpt>
      <trkpt lat="44.08463" lon="6.89444">
        <ele>1257.3</ele>
        <time>2019-07-16T06:07:42Z</time>
      </trkpt>
      <trkpt lat="44.0846" lon="6.89442">
        <ele>1257.7</ele>
        <time>2019-07-16T06:07:44Z</time>
      </trkpt>
      <trkpt lat="44.08457" lon="6.89438">
        <ele>1258.1</ele>
        <time>2019-07-16T06:07:46Z</time>
      </trkpt>
      <trkpt lat="44.08454" lon="6.89434">
        <ele>1258.5</ele>
        <time>2019-07-16T06:07:48Z</time>
      </trkpt>
      <trkpt lat="44.08452" lon="6.89431">
        <ele>1258.8</ele>
        <time>2019-07-16T06:07:50Z</time>
      </trkpt>
      <trkpt lat="44.08449" lon="6.89426">
        <ele>1259.1</ele>
        <time>2019-07-16T06:07:52Z</time>
      </trkpt>
      <trkpt lat="44.08447" lon="6.89422">
        <ele>1259.4</ele>
        <time>2019-07-16T06:07:54Z</time>
      </trkpt>
      <trkpt lat="44.08445" lon="6.89419">
        <ele>1259.7</ele>
        <time>2019-07-16T06:07:56Z</time>
      </trkpt>
      <trkpt lat="44.08442" lon="6.89416">
        <ele>1260.1</ele>
        <time>2019-07-16T06:07:59Z</time>
      </trkpt>
      <trkpt lat="44.0844" lon="6.89412">
        <ele>1260.5</ele>
        <time>2019-07-16T06:08:01Z</time>
      </trkpt>
      <trkpt lat="44.08438" lon="6.89408">
        <ele>1260.9</ele>
        <time>2019-07-16T06:08:03Z</time>
      </trkpt>
      <trkpt lat="44.08436" lon="6.89404">
        <ele>1261.3</ele>
        <time>2019-07-16T06:08:06Z</time>
      </trkpt>
      <trkpt lat="44.08433" lon="6.89402">
        <ele>1261.7</ele>
        <time>2019-07-16T06:08:08Z</time>
      </trkpt>
      <trkpt lat="44.0843" lon="6.894">
        <ele>1262.1</ele>
        <time>2019-07-16T06:08:10Z</time>
      </trkpt>
      <trkpt lat="44.08427" lon="6.89399">
        <ele>1262.5</ele>
        <time>2019-07-16T06:08:12Z</time>
      </trkpt>
      <trkpt lat="44.08423" lon="6.89396">
        <ele>1262.7</ele>
        <time>2019-07-16T06:08:14Z</time>
      </trkpt>
      <trkpt lat="44.08421" lon="6.89395">
        <ele>1262.9</ele>
        <time>2019-07-16T06:08:16Z</time>
      </trkpt>
      <trkpt lat="44.08417" lon="6.89393">
        <ele>1263.2</ele>
        <time>2019-07-16T06:08:18Z</time>
      </trkpt>
      <trkpt lat="44.08414" lon="6.89391">
        <ele>1263.4</ele>
        <time>2019-07-16T06:08:20Z</time>
      </trkpt>
      <trkpt lat="44.08411" lon="6.89388">
        <ele>1263.6</ele>
        <time>2019-07-16T06:08:22Z</time>
      </trkpt>
      <trkpt lat="44.08409" lon="6.89386">
        <ele>1263.8</ele>
        <time>2019-07-16T06:08:24Z</time>
      </trkpt>
      <trkpt lat="44.08406" lon="6.89385">
        <ele>1264</ele>
        <time>2019-07-16T06:08:26Z</time>
      </trkpt>
      <trkpt lat="44.08403" lon="6.89384">
        <ele>1264.2</ele>
        <time>2019-07-16T06:08:28Z</time>
      </trkpt>
      <trkpt lat="44.08399" lon="6.89383">
        <ele>1264.5</ele>
        <time>2019-07-16T06:08:30Z</time>
      </trkpt>
      <trkpt lat="44.08396" lon="6.89381">
        <ele>1264.7</ele>
        <time>2019-07-16T06:08:32Z</time>
      </trkpt>
      <trkpt lat="44.08394" lon="6.89379">
        <ele>1264.9</ele>
        <time>2019-07-16T06:08:34Z</time>
      </trkpt>
      <trkpt lat="44.08391" lon="6.89377">
        <ele>1265.2</ele>
        <time>2019-07-16T06:08:36Z</time>
      </trkpt>
      <trkpt lat="44.08389" lon="6.89373">
        <ele>1265.5</ele>
        <time>2019-07-16T06:08:38Z</time>
      </trkpt>
      <trkpt lat="44.08386" lon="6.89369">
        <ele>1265.7</ele>
        <time>2019-07-16T06:08:40Z</time>
      </trkpt>
      <trkpt lat="44.08383" lon="6.89367">
        <ele>1266</ele>
        <time>2019-07-16T06:08:42Z</time>
      </trkpt>
      <trkpt lat="44.08381" lon="6.89362">
        <ele>1266.3</ele>
        <time>2019-07-16T06:08:44Z</time>
      </trkpt>
      <trkpt lat="44.08379" lon="6.89359">
        <ele>1266.6</ele>
        <time>2019-07-16T06:08:46Z</time>
      </trkpt>
      <trkpt lat="44.08376" lon="6.89354">
        <ele>1267</ele>
        <time>2019-07-16T06:08:49Z</time>
      </trkpt>
      <trkpt lat="44.08373" lon="6.89351">
        <ele>1267.5</ele>
        <time>2019-07-16T06:08:51Z</time>
      </trkpt>
      <trkpt lat="44.0837" lon="6.89348">
        <ele>1267.9</ele>
        <time>2019-07-16T06:08:53Z</time>
      </trkpt>
      <trkpt lat="44.08367" lon="6.89345">
        <ele>1268.3</ele>
        <time>2019-07-16T06:08:55Z</time>
      </trkpt>
      <trkpt lat="44.08364" lon="6.89341">
        <ele>1268.8</ele>
        <time>2019-07-16T06:08:57Z</time>
      </trkpt>
      <trkpt lat="44.08362" lon="6.89338">
        <ele>1269.2</ele>
        <time>2019-07-16T06:08:59Z</time>
      </trkpt>
      <trkpt lat="44.0836" lon="6.89333">
        <ele>1269.6</ele>
        <time>2019-07-16T06:09:01Z</time>
      </trkpt>
      <trkpt lat="44.08359" lon="6.89328">
        <ele>1270</ele>
        <time>2019-07-16T06:09:03Z</time>
      </trkpt>
      <trkpt lat="44.08357" lon="6.89324">
        <ele>1270.4</ele>
        <time>2019-07-16T06:09:05Z</time>
      </trkpt>
      <trkpt lat="44.08357" lon="6.89318">
        <ele>1270.8</ele>
        <time>2019-07-16T06:09:07Z</time>
      </trkpt>
      <trkpt lat="44.08356" lon="6.89314">
        <ele>1271</ele>
        <time>2019-07-16T06:09:09Z</time>
      </trkpt>
      <trkpt lat="44.08356" lon="6.89309">
        <ele>1271.2</ele>
        <time>2019-07-16T06:09:11Z</time>
      </trkpt>
      <trkpt lat="44.08357" lon="6.89304">
        <ele>1271.5</ele>
        <time>2019-07-16T06:09:14Z</time>
      </trkpt>
      <trkpt lat="44.08358" lon="6.89301">
        <ele>1271.7</ele>
        <time>2019-07-16T06:09:16Z</time>
      </trkpt>
      <trkpt lat="44.08358" lon="6.89296">
        <ele>1272</ele>
        <time>2019-07-16T06:09:18Z</time>
      </trkpt>
      <trkpt lat="44.08358" lon="6.89292">
        <ele>1272.2</ele>
        <time>2019-07-16T06:09:20Z</time>
      </trkpt>
      <trkpt lat="44.08357" lon="6.89286">
        <ele>1272.5</ele>
        <time>2019-07-16T06:09:23Z</time>
      </trkpt>
      <trkpt lat="44.08356" lon="6.89282">
        <ele>1272.8</ele>
        <time>2019-07-16T06:09:25Z</time>
      </trkpt>
      <trkpt lat="44.08355" lon="6.89278">
        <ele>1273</ele>
        <time>2019-07-16T06:09:27Z</time>
      </trkpt>
      <trkpt lat="44.08354" lon="6.89274">
        <ele>1273.2</ele>
        <time>2019-07-16T06:09:29Z</time>
      </trkpt>
      <trkpt lat="44.08353" lon="6.8927">
        <ele>1273.5</ele>
        <time>2019-07-16T06:09:31Z</time>
      </trkpt>
      <trkpt lat="44.08352" lon="6.89266">
        <ele>1273.7</ele>
        <time>2019-07-16T06:09:33Z</time>
      </trkpt>
      <trkpt lat="44.08349" lon="6.89263">
        <ele>1274</ele>
        <time>2019-07-16T06:09:36Z</time>
      </trkpt>
      <trkpt lat="44.08347" lon="6.89267">
        <ele>1274.2</ele>
        <time>2019-07-16T06:09:38Z</time>
      </trkpt>
      <trkpt lat="44.08348" lon="6.89271">
        <ele>1274.5</ele>
        <time>2019-07-16T06:09:39Z</time>
      </trkpt>
      <trkpt lat="44.08349" lon="6.89275">
        <ele>1274.7</ele>
        <time>2019-07-16T06:09:40Z</time>
      </trkpt>
      <trkpt lat="44.08349" lon="6.89279">
        <ele>1274.9</ele>
        <time>2019-07-16T06:09:41Z</time>
      </trkpt>
      <trkpt lat="44.08351" lon="6.89283">
        <ele>1275.2</ele>
        <time>2019-07-16T06:09:43Z</time>
      </trkpt>
      <trkpt lat="44.08354" lon="6.89284">
        <ele>1275.5</ele>
        <time>2019-07-16T06:09:45Z</time>
      </trkpt>
      <trkpt lat="44.08355" lon="6.8928">
        <ele>1275.8</ele>
        <time>2019-07-16T06:10:00Z</time>
      </trkpt>
      <trkpt lat="44.08354" lon="6.89277">
        <ele>1276</ele>
        <time>2019-07-16T06:10:07Z</time>
      </trkpt>
      <trkpt lat="44.08352" lon="6.89272">
        <ele>1276.5</ele>
        <time>2019-07-16T06:10:10Z</time>
      </trkpt>
      <trkpt lat="44.08351" lon="6.89268">
        <ele>1276.8</ele>
        <time>2019-07-16T06:10:12Z</time>
      </trkpt>
      <trkpt lat="44.08349" lon="6.89265">
        <ele>1277.1</ele>
        <time>2019-07-16T06:10:14Z</time>
      </trkpt>
      <trkpt lat="44.08346" lon="6.8926">
        <ele>1277.7</ele>
        <time>2019-07-16T06:10:17Z</time>
      </trkpt>
      <trkpt lat="44.08344" lon="6.89256">
        <ele>1278</ele>
        <time>2019-07-16T06:10:19Z</time>
      </trkpt>
      <trkpt lat="44.08342" lon="6.89253">
        <ele>1278.4</ele>
        <time>2019-07-16T06:10:21Z</time>
      </trkpt>
      <trkpt lat="44.0834" lon="6.89249">
        <ele>1278.7</ele>
        <time>2019-07-16T06:10:23Z</time>
      </trkpt>
      <trkpt lat="44.08339" lon="6.89246">
        <ele>1279</ele>
        <time>2019-07-16T06:10:25Z</time>
      </trkpt>
      <trkpt lat="44.08337" lon="6.89243">
        <ele>1279.2</ele>
        <time>2019-07-16T06:10:27Z</time>
      </trkpt>
      <trkpt lat="44.08336" lon="6.89239">
        <ele>1279.4</ele>
        <time>2019-07-16T06:10:29Z</time>
      </trkpt>
      <trkpt lat="44.08333" lon="6.89235">
        <ele>1279.7</ele>
        <time>2019-07-16T06:10:31Z</time>
      </trkpt>
      <trkpt lat="44.08331" lon="6.89232">
        <ele>1279.9</ele>
        <time>2019-07-16T06:10:33Z</time>
      </trkpt>
      <trkpt lat="44.08329" lon="6.89228">
        <ele>1280.1</ele>
        <time>2019-07-16T06:10:35Z</time>
      </trkpt>
      <trkpt lat="44.08328" lon="6.89224">
        <ele>1280.4</ele>
        <time>2019-07-16T06:10:37Z</time>
      </trkpt>
      <trkpt lat="44.08327" lon="6.89219">
        <ele>1280.6</ele>
        <time>2019-07-16T06:10:39Z</time>
      </trkpt>
      <trkpt lat="44.08326" lon="6.89215">
        <ele>1280.9</ele>
        <time>2019-07-16T06:10:41Z</time>
      </trkpt>
      <trkpt lat="44.08326" lon="6.89211">
        <ele>1281.1</ele>
        <time>2019-07-16T06:10:43Z</time>
      </trkpt>
      <trkpt lat="44.08327" lon="6.89207">
        <ele>1281.3</ele>
        <time>2019-07-16T06:10:45Z</time>
      </trkpt>
      <trkpt lat="44.08327" lon="6.89201">
        <ele>1281.5</ele>
        <time>2019-07-16T06:10:48Z</time>
      </trkpt>
      <trkpt lat="44.08327" lon="6.89197">
        <ele>1281.7</ele>
        <time>2019-07-16T06:10:50Z</time>
      </trkpt>
      <trkpt lat="44.08326" lon="6.89193">
        <ele>1281.9</ele>
        <time>2019-07-16T06:10:52Z</time>
      </trkpt>
      <trkpt lat="44.08326" lon="6.89188">
        <ele>1282.2</ele>
        <time>2019-07-16T06:10:54Z</time>
      </trkpt>
      <trkpt lat="44.08326" lon="6.89183">
        <ele>1282.4</ele>
        <time>2019-07-16T06:10:56Z</time>
      </trkpt>
      <trkpt lat="44.08325" lon="6.89179">
        <ele>1282.7</ele>
        <time>2019-07-16T06:10:58Z</time>
      </trkpt>
      <trkpt lat="44.08325" lon="6.89174">
        <ele>1283.1</ele>
        <time>2019-07-16T06:11:00Z</time>
      </trkpt>
      <trkpt lat="44.08326" lon="6.89169">
        <ele>1283.4</ele>
        <time>2019-07-16T06:11:02Z</time>
      </trkpt>
      <trkpt lat="44.08327" lon="6.89164">
        <ele>1283.7</ele>
        <time>2019-07-16T06:11:04Z</time>
      </trkpt>
      <trkpt lat="44.08325" lon="6.8916">
        <ele>1284.1</ele>
        <time>2019-07-16T06:11:06Z</time>
      </trkpt>
      <trkpt lat="44.08325" lon="6.89153">
        <ele>1284.5</ele>
        <time>2019-07-16T06:11:09Z</time>
      </trkpt>
      <trkpt lat="44.08325" lon="6.89149">
        <ele>1284.9</ele>
        <time>2019-07-16T06:11:11Z</time>
      </trkpt>
      <trkpt lat="44.08325" lon="6.89145">
        <ele>1285.2</ele>
        <time>2019-07-16T06:11:13Z</time>
      </trkpt>
      <trkpt lat="44.08325" lon="6.8914">
        <ele>1285.5</ele>
        <time>2019-07-16T06:11:16Z</time>
      </trkpt>
      <trkpt lat="44.08325" lon="6.89134">
        <ele>1285.9</ele>
        <time>2019-07-16T06:11:18Z</time>
      </trkpt>
      <trkpt lat="44.08326" lon="6.89131">
        <ele>1286.2</ele>
        <time>2019-07-16T06:11:20Z</time>
      </trkpt>
      <trkpt lat="44.08326" lon="6.89126">
        <ele>1286.6</ele>
        <time>2019-07-16T06:11:22Z</time>
      </trkpt>
      <trkpt lat="44.08327" lon="6.89122">
        <ele>1287</ele>
        <time>2019-07-16T06:11:24Z</time>
      </trkpt>
      <trkpt lat="44.08328" lon="6.89117">
        <ele>1287.3</ele>
        <time>2019-07-16T06:11:26Z</time>
      </trkpt>
      <trkpt lat="44.08328" lon="6.89113">
        <ele>1287.7</ele>
        <time>2019-07-16T06:11:28Z</time>
      </trkpt>
      <trkpt lat="44.0833" lon="6.89108">
        <ele>1288.1</ele>
        <time>2019-07-16T06:11:31Z</time>
      </trkpt>
      <trkpt lat="44.08331" lon="6.89103">
        <ele>1288.5</ele>
        <time>2019-07-16T06:11:33Z</time>
      </trkpt>
      <trkpt lat="44.08332" lon="6.89098">
        <ele>1289</ele>
        <time>2019-07-16T06:11:35Z</time>
      </trkpt>
      <trkpt lat="44.08334" lon="6.89094">
        <ele>1289.4</ele>
        <time>2019-07-16T06:11:37Z</time>
      </trkpt>
      <trkpt lat="44.08336" lon="6.89089">
        <ele>1289.8</ele>
        <time>2019-07-16T06:11:39Z</time>
      </trkpt>
      <trkpt lat="44.08337" lon="6.89085">
        <ele>1290.2</ele>
        <time>2019-07-16T06:11:41Z</time>
      </trkpt>
      <trkpt lat="44.08337" lon="6.8908">
        <ele>1290.7</ele>
        <time>2019-07-16T06:11:43Z</time>
      </trkpt>
      <trkpt lat="44.08338" lon="6.89075">
        <ele>1291.1</ele>
        <time>2019-07-16T06:11:45Z</time>
      </trkpt>
      <trkpt lat="44.08341" lon="6.89072">
        <ele>1291.6</ele>
        <time>2019-07-16T06:11:47Z</time>
      </trkpt>
      <trkpt lat="44.08343" lon="6.89068">
        <ele>1291.9</ele>
        <time>2019-07-16T06:11:49Z</time>
      </trkpt>
      <trkpt lat="44.08343" lon="6.89061">
        <ele>1292.3</ele>
        <time>2019-07-16T06:11:51Z</time>
      </trkpt>
      <trkpt lat="44.08343" lon="6.89057">
        <ele>1292.5</ele>
        <time>2019-07-16T06:11:53Z</time>
      </trkpt>
      <trkpt lat="44.08344" lon="6.89051">
        <ele>1292.8</ele>
        <time>2019-07-16T06:11:56Z</time>
      </trkpt>
      <trkpt lat="44.08342" lon="6.89046">
        <ele>1293.1</ele>
        <time>2019-07-16T06:11:58Z</time>
      </trkpt>
      <trkpt lat="44.08341" lon="6.89042">
        <ele>1293.4</ele>
        <time>2019-07-16T06:12:00Z</time>
      </trkpt>
      <trkpt lat="44.0834" lon="6.89037">
        <ele>1293.7</ele>
        <time>2019-07-16T06:12:02Z</time>
      </trkpt>
      <trkpt lat="44.08339" lon="6.89033">
        <ele>1294.1</ele>
        <time>2019-07-16T06:12:04Z</time>
      </trkpt>
      <trkpt lat="44.08338" lon="6.89028">
        <ele>1294.5</ele>
        <time>2019-07-16T06:12:07Z</time>
      </trkpt>
      <trkpt lat="44.08336" lon="6.89022">
        <ele>1295</ele>
        <time>2019-07-16T06:12:09Z</time>
      </trkpt>
      <trkpt lat="44.08336" lon="6.89018">
        <ele>1295.3</ele>
        <time>2019-07-16T06:12:11Z</time>
      </trkpt>
      <trkpt lat="44.08336" lon="6.89014">
        <ele>1295.6</ele>
        <time>2019-07-16T06:12:13Z</time>
      </trkpt>
      <trkpt lat="44.08336" lon="6.89008">
        <ele>1296.1</ele>
        <time>2019-07-16T06:12:15Z</time>
      </trkpt>
      <trkpt lat="44.08335" lon="6.89002">
        <ele>1296.5</ele>
        <time>2019-07-16T06:12:17Z</time>
      </trkpt>
      <trkpt lat="44.08334" lon="6.88998">
        <ele>1296.9</ele>
        <time>2019-07-16T06:12:19Z</time>
      </trkpt>
      <trkpt lat="44.08334" lon="6.88992">
        <ele>1297.3</ele>
        <time>2019-07-16T06:12:21Z</time>
      </trkpt>
      <trkpt lat="44.08333" lon="6.88987">
        <ele>1297.8</ele>
        <time>2019-07-16T06:12:23Z</time>
      </trkpt>
      <trkpt lat="44.08332" lon="6.88982">
        <ele>1298.1</ele>
        <time>2019-07-16T06:12:25Z</time>
      </trkpt>
      <trkpt lat="44.08331" lon="6.88977">
        <ele>1298.5</ele>
        <time>2019-07-16T06:12:27Z</time>
      </trkpt>
      <trkpt lat="44.08331" lon="6.88973">
        <ele>1298.9</ele>
        <time>2019-07-16T06:12:29Z</time>
      </trkpt>
      <trkpt lat="44.0833" lon="6.88968">
        <ele>1299.2</ele>
        <time>2019-07-16T06:12:31Z</time>
      </trkpt>
      <trkpt lat="44.08329" lon="6.88964">
        <ele>1299.6</ele>
        <time>2019-07-16T06:12:33Z</time>
      </trkpt>
      <trkpt lat="44.08328" lon="6.88959">
        <ele>1300</ele>
        <time>2019-07-16T06:12:35Z</time>
      </trkpt>
      <trkpt lat="44.08328" lon="6.88954">
        <ele>1300.3</ele>
        <time>2019-07-16T06:12:37Z</time>
      </trkpt>
      <trkpt lat="44.08327" lon="6.8895">
        <ele>1300.7</ele>
        <time>2019-07-16T06:12:39Z</time>
      </trkpt>
      <trkpt lat="44.08327" lon="6.88944">
        <ele>1301.2</ele>
        <time>2019-07-16T06:12:41Z</time>
      </trkpt>
      <trkpt lat="44.08327" lon="6.88939">
        <ele>1301.6</ele>
        <time>2019-07-16T06:12:43Z</time>
      </trkpt>
      <trkpt lat="44.08327" lon="6.88935">
        <ele>1301.6</ele>
        <time>2019-07-16T06:12:45Z</time>
      </trkpt>
      <trkpt lat="44.08327" lon="6.8893">
        <ele>1301.7</ele>
        <time>2019-07-16T06:12:47Z</time>
      </trkpt>
      <trkpt lat="44.08327" lon="6.88926">
        <ele>1301.8</ele>
        <time>2019-07-16T06:12:49Z</time>
      </trkpt>
      <trkpt lat="44.08327" lon="6.88921">
        <ele>1301.8</ele>
        <time>2019-07-16T06:12:51Z</time>
      </trkpt>
      <trkpt lat="44.08328" lon="6.88917">
        <ele>1301.9</ele>
        <time>2019-07-16T06:12:53Z</time>
      </trkpt>
      <trkpt lat="44.0833" lon="6.88913">
        <ele>1302</ele>
        <time>2019-07-16T06:12:55Z</time>
      </trkpt>
      <trkpt lat="44.08331" lon="6.88908">
        <ele>1302</ele>
        <time>2019-07-16T06:12:57Z</time>
      </trkpt>
      <trkpt lat="44.08332" lon="6.88904">
        <ele>1302.1</ele>
        <time>2019-07-16T06:12:59Z</time>
      </trkpt>
      <trkpt lat="44.08333" lon="6.889">
        <ele>1302.1</ele>
        <time>2019-07-16T06:13:01Z</time>
      </trkpt>
      <trkpt lat="44.08334" lon="6.88896">
        <ele>1302.2</ele>
        <time>2019-07-16T06:13:03Z</time>
      </trkpt>
      <trkpt lat="44.08335" lon="6.88891">
        <ele>1302.3</ele>
        <time>2019-07-16T06:13:05Z</time>
      </trkpt>
      <trkpt lat="44.08337" lon="6.88887">
        <ele>1302.3</ele>
        <time>2019-07-16T06:13:07Z</time>
      </trkpt>
      <trkpt lat="44.08338" lon="6.88882">
        <ele>1302.4</ele>
        <time>2019-07-16T06:13:09Z</time>
      </trkpt>
      <trkpt lat="44.08339" lon="6.88878">
        <ele>1302.4</ele>
        <time>2019-07-16T06:13:11Z</time>
      </trkpt>
      <trkpt lat="44.0834" lon="6.88874">
        <ele>1302.5</ele>
        <time>2019-07-16T06:13:13Z</time>
      </trkpt>
      <trkpt lat="44.08341" lon="6.88869">
        <ele>1302.6</ele>
        <time>2019-07-16T06:13:15Z</time>
      </trkpt>
      <trkpt lat="44.08342" lon="6.88865">
        <ele>1302.7</ele>
        <time>2019-07-16T06:13:17Z</time>
      </trkpt>
      <trkpt lat="44.08343" lon="6.88859">
        <ele>1302.8</ele>
        <time>2019-07-16T06:13:19Z</time>
      </trkpt>
      <trkpt lat="44.08345" lon="6.88855">
        <ele>1302.9</ele>
        <time>2019-07-16T06:13:21Z</time>
      </trkpt>
      <trkpt lat="44.08346" lon="6.88851">
        <ele>1302.9</ele>
        <time>2019-07-16T06:13:23Z</time>
      </trkpt>
      <trkpt lat="44.08348" lon="6.88847">
        <ele>1303</ele>
        <time>2019-07-16T06:13:25Z</time>
      </trkpt>
      <trkpt lat="44.0835" lon="6.88842">
        <ele>1303.2</ele>
        <time>2019-07-16T06:13:27Z</time>
      </trkpt>
      <trkpt lat="44.08351" lon="6.88838">
        <ele>1303.3</ele>
        <time>2019-07-16T06:13:29Z</time>
      </trkpt>
      <trkpt lat="44.08351" lon="6.88833">
        <ele>1303.4</ele>
        <time>2019-07-16T06:13:31Z</time>
      </trkpt>
      <trkpt lat="44.08353" lon="6.88829">
        <ele>1303.5</ele>
        <time>2019-07-16T06:13:33Z</time>
      </trkpt>
      <trkpt lat="44.08354" lon="6.88825">
        <ele>1303.7</ele>
        <time>2019-07-16T06:13:35Z</time>
      </trkpt>
      <trkpt lat="44.08355" lon="6.8882">
        <ele>1303.8</ele>
        <time>2019-07-16T06:13:37Z</time>
      </trkpt>
      <trkpt lat="44.08356" lon="6.88814">
        <ele>1304</ele>
        <time>2019-07-16T06:13:39Z</time>
      </trkpt>
      <trkpt lat="44.08357" lon="6.88808">
        <ele>1304.1</ele>
        <time>2019-07-16T06:13:41Z</time>
      </trkpt>
      <trkpt lat="44.08358" lon="6.88804">
        <ele>1304.3</ele>
        <time>2019-07-16T06:13:43Z</time>
      </trkpt>
      <trkpt lat="44.0836" lon="6.888">
        <ele>1304.4</ele>
        <time>2019-07-16T06:13:45Z</time>
      </trkpt>
      <trkpt lat="44.08361" lon="6.88795">
        <ele>1304.6</ele>
        <time>2019-07-16T06:13:47Z</time>
      </trkpt>
      <trkpt lat="44.08363" lon="6.88791">
        <ele>1304.7</ele>
        <time>2019-07-16T06:13:49Z</time>
      </trkpt>
      <trkpt lat="44.08363" lon="6.88786">
        <ele>1304.8</ele>
        <time>2019-07-16T06:13:51Z</time>
      </trkpt>
      <trkpt lat="44.08364" lon="6.88781">
        <ele>1304.9</ele>
        <time>2019-07-16T06:13:53Z</time>
      </trkpt>
      <trkpt lat="44.08365" lon="6.88778">
        <ele>1305</ele>
        <time>2019-07-16T06:13:55Z</time>
      </trkpt>
      <trkpt lat="44.08367" lon="6.88774">
        <ele>1305.1</ele>
        <time>2019-07-16T06:13:57Z</time>
      </trkpt>
      <trkpt lat="44.0837" lon="6.8877">
        <ele>1305.3</ele>
        <time>2019-07-16T06:13:59Z</time>
      </trkpt>
      <trkpt lat="44.08373" lon="6.88768">
        <ele>1306.5</ele>
        <time>2019-07-16T06:14:01Z</time>
      </trkpt>
      <trkpt lat="44.08374" lon="6.88772">
        <ele>1306.7</ele>
        <time>2019-07-16T06:14:05Z</time>
      </trkpt>
      <trkpt lat="44.08373" lon="6.88775">
        <ele>1306.9</ele>
        <time>2019-07-16T06:14:08Z</time>
      </trkpt>
      <trkpt lat="44.08372" lon="6.88779">
        <ele>1307.2</ele>
        <time>2019-07-16T06:14:10Z</time>
      </trkpt>
      <trkpt lat="44.0837" lon="6.88783">
        <ele>1307.5</ele>
        <time>2019-07-16T06:14:12Z</time>
      </trkpt>
      <trkpt lat="44.0837" lon="6.88787">
        <ele>1307.7</ele>
        <time>2019-07-16T06:14:14Z</time>
      </trkpt>
      <trkpt lat="44.08369" lon="6.88791">
        <ele>1307.9</ele>
        <time>2019-07-16T06:14:17Z</time>
      </trkpt>
      <trkpt lat="44.08369" lon="6.88795">
        <ele>1308.2</ele>
        <time>2019-07-16T06:17:36Z</time>
      </trkpt>
      <trkpt lat="44.0837" lon="6.88799">
        <ele>1308.4</ele>
        <time>2019-07-16T06:17:38Z</time>
      </trkpt>
      <trkpt lat="44.0837" lon="6.88803">
        <ele>1308.7</ele>
        <time>2019-07-16T06:17:40Z</time>
      </trkpt>
      <trkpt lat="44.08368" lon="6.88806">
        <ele>1309</ele>
        <time>2019-07-16T06:17:42Z</time>
      </trkpt>
      <trkpt lat="44.08366" lon="6.8881">
        <ele>1309.3</ele>
        <time>2019-07-16T06:17:44Z</time>
      </trkpt>
      <trkpt lat="44.08364" lon="6.88815">
        <ele>1309.7</ele>
        <time>2019-07-16T06:17:46Z</time>
      </trkpt>
      <trkpt lat="44.08363" lon="6.88821">
        <ele>1310.1</ele>
        <time>2019-07-16T06:17:48Z</time>
      </trkpt>
      <trkpt lat="44.08362" lon="6.88826">
        <ele>1310.4</ele>
        <time>2019-07-16T06:17:50Z</time>
      </trkpt>
      <trkpt lat="44.08362" lon="6.88831">
        <ele>1310.8</ele>
        <time>2019-07-16T06:17:52Z</time>
      </trkpt>
      <trkpt lat="44.08361" lon="6.88835">
        <ele>1311.1</ele>
        <time>2019-07-16T06:17:54Z</time>
      </trkpt>
      <trkpt lat="44.08361" lon="6.88841">
        <ele>1311.4</ele>
        <time>2019-07-16T06:17:56Z</time>
      </trkpt>
      <trkpt lat="44.0836" lon="6.88845">
        <ele>1311.7</ele>
        <time>2019-07-16T06:17:58Z</time>
      </trkpt>
      <trkpt lat="44.0836" lon="6.8885">
        <ele>1312</ele>
        <time>2019-07-16T06:18:00Z</time>
      </trkpt>
      <trkpt lat="44.0836" lon="6.88856">
        <ele>1312.7</ele>
        <time>2019-07-16T06:18:02Z</time>
      </trkpt>
      <trkpt lat="44.0836" lon="6.8886">
        <ele>1313</ele>
        <time>2019-07-16T06:18:04Z</time>
      </trkpt>
      <trkpt lat="44.0836" lon="6.88865">
        <ele>1313.4</ele>
        <time>2019-07-16T06:18:06Z</time>
      </trkpt>
      <trkpt lat="44.0836" lon="6.88869">
        <ele>1313.8</ele>
        <time>2019-07-16T06:18:08Z</time>
      </trkpt>
      <trkpt lat="44.0836" lon="6.88874">
        <ele>1314.3</ele>
        <time>2019-07-16T06:18:10Z</time>
      </trkpt>
      <trkpt lat="44.08359" lon="6.88879">
        <ele>1314.7</ele>
        <time>2019-07-16T06:18:12Z</time>
      </trkpt>
      <trkpt lat="44.08359" lon="6.88884">
        <ele>1315.2</ele>
        <time>2019-07-16T06:18:14Z</time>
      </trkpt>
      <trkpt lat="44.08359" lon="6.88888">
        <ele>1315.5</ele>
        <time>2019-07-16T06:18:16Z</time>
      </trkpt>
      <trkpt lat="44.08359" lon="6.88892">
        <ele>1315.7</ele>
        <time>2019-07-16T06:18:18Z</time>
      </trkpt>
      <trkpt lat="44.08358" lon="6.88897">
        <ele>1316.1</ele>
        <time>2019-07-16T06:18:20Z</time>
      </trkpt>
      <trkpt lat="44.08358" lon="6.88902">
        <ele>1316.4</ele>
        <time>2019-07-16T06:18:22Z</time>
      </trkpt>
      <trkpt lat="44.08358" lon="6.88908">
        <ele>1316.8</ele>
        <time>2019-07-16T06:18:24Z</time>
      </trkpt>
      <trkpt lat="44.08357" lon="6.88912">
        <ele>1317.2</ele>
        <time>2019-07-16T06:18:26Z</time>
      </trkpt>
      <trkpt lat="44.08357" lon="6.88917">
        <ele>1317.6</ele>
        <time>2019-07-16T06:18:28Z</time>
      </trkpt>
      <trkpt lat="44.08357" lon="6.88922">
        <ele>1318</ele>
        <time>2019-07-16T06:18:30Z</time>
      </trkpt>
      <trkpt lat="44.08357" lon="6.88926">
        <ele>1318.3</ele>
        <time>2019-07-16T06:18:32Z</time>
      </trkpt>
      <trkpt lat="44.08357" lon="6.88931">
        <ele>1318.7</ele>
        <time>2019-07-16T06:18:34Z</time>
      </trkpt>
      <trkpt lat="44.08357" lon="6.88936">
        <ele>1319</ele>
        <time>2019-07-16T06:18:36Z</time>
      </trkpt>
      <trkpt lat="44.08357" lon="6.8894">
        <ele>1319.4</ele>
        <time>2019-07-16T06:18:38Z</time>
      </trkpt>
      <trkpt lat="44.08356" lon="6.88945">
        <ele>1319.6</ele>
        <time>2019-07-16T06:18:40Z</time>
      </trkpt>
      <trkpt lat="44.08356" lon="6.88949">
        <ele>1319.9</ele>
        <time>2019-07-16T06:18:42Z</time>
      </trkpt>
      <trkpt lat="44.08355" lon="6.88953">
        <ele>1320.2</ele>
        <time>2019-07-16T06:18:44Z</time>
      </trkpt>
      <trkpt lat="44.08355" lon="6.88959">
        <ele>1320.5</ele>
        <time>2019-07-16T06:18:46Z</time>
      </trkpt>
      <trkpt lat="44.08355" lon="6.88964">
        <ele>1320.8</ele>
        <time>2019-07-16T06:18:48Z</time>
      </trkpt>
      <trkpt lat="44.08356" lon="6.88969">
        <ele>1321.2</ele>
        <time>2019-07-16T06:18:50Z</time>
      </trkpt>
      <trkpt lat="44.08356" lon="6.88975">
        <ele>1321.7</ele>
        <time>2019-07-16T06:18:52Z</time>
      </trkpt>
      <trkpt lat="44.08357" lon="6.8898">
        <ele>1322</ele>
        <time>2019-07-16T06:18:54Z</time>
      </trkpt>
      <trkpt lat="44.08357" lon="6.88985">
        <ele>1322.4</ele>
        <time>2019-07-16T06:18:56Z</time>
      </trkpt>
      <trkpt lat="44.08358" lon="6.8899">
        <ele>1322.8</ele>
        <time>2019-07-16T06:18:58Z</time>
      </trkpt>
      <trkpt lat="44.0836" lon="6.88995">
        <ele>1323.2</ele>
        <time>2019-07-16T06:19:00Z</time>
      </trkpt>
      <trkpt lat="44.08361" lon="6.89">
        <ele>1323.6</ele>
        <time>2019-07-16T06:19:02Z</time>
      </trkpt>
      <trkpt lat="44.08361" lon="6.89004">
        <ele>1324</ele>
        <time>2019-07-16T06:19:04Z</time>
      </trkpt>
      <trkpt lat="44.08362" lon="6.89009">
        <ele>1324.4</ele>
        <time>2019-07-16T06:19:06Z</time>
      </trkpt>
      <trkpt lat="44.08364" lon="6.89014">
        <ele>1324.8</ele>
        <time>2019-07-16T06:19:08Z</time>
      </trkpt>
      <trkpt lat="44.08366" lon="6.89019">
        <ele>1325.2</ele>
        <time>2019-07-16T06:19:10Z</time>
      </trkpt>
      <trkpt lat="44.08368" lon="6.89023">
        <ele>1325.6</ele>
        <time>2019-07-16T06:19:12Z</time>
      </trkpt>
      <trkpt lat="44.0837" lon="6.89028">
        <ele>1325.9</ele>
        <time>2019-07-16T06:19:14Z</time>
      </trkpt>
      <trkpt lat="44.08372" lon="6.89031">
        <ele>1326.2</ele>
        <time>2019-07-16T06:19:16Z</time>
      </trkpt>
      <trkpt lat="44.08374" lon="6.89036">
        <ele>1326.6</ele>
        <time>2019-07-16T06:19:18Z</time>
      </trkpt>
      <trkpt lat="44.08375" lon="6.8904">
        <ele>1326.9</ele>
        <time>2019-07-16T06:19:20Z</time>
      </trkpt>
      <trkpt lat="44.08378" lon="6.89044">
        <ele>1327.2</ele>
        <time>2019-07-16T06:19:22Z</time>
      </trkpt>
      <trkpt lat="44.0838" lon="6.89048">
        <ele>1327.5</ele>
        <time>2019-07-16T06:19:24Z</time>
      </trkpt>
      <trkpt lat="44.08381" lon="6.89052">
        <ele>1327.7</ele>
        <time>2019-07-16T06:19:26Z</time>
      </trkpt>
      <trkpt lat="44.08381" lon="6.89056">
        <ele>1328</ele>
        <time>2019-07-16T06:19:28Z</time>
      </trkpt>
      <trkpt lat="44.08382" lon="6.89061">
        <ele>1328.3</ele>
        <time>2019-07-16T06:19:30Z</time>
      </trkpt>
      <trkpt lat="44.08382" lon="6.89065">
        <ele>1328.6</ele>
        <time>2019-07-16T06:19:32Z</time>
      </trkpt>
      <trkpt lat="44.08381" lon="6.8907">
        <ele>1328.9</ele>
        <time>2019-07-16T06:19:34Z</time>
      </trkpt>
      <trkpt lat="44.08381" lon="6.89075">
        <ele>1329.2</ele>
        <time>2019-07-16T06:19:36Z</time>
      </trkpt>
      <trkpt lat="44.08381" lon="6.8908">
        <ele>1329.6</ele>
        <time>2019-07-16T06:19:38Z</time>
      </trkpt>
      <trkpt lat="44.08381" lon="6.89084">
        <ele>1329.9</ele>
        <time>2019-07-16T06:19:40Z</time>
      </trkpt>
      <trkpt lat="44.0838" lon="6.89089">
        <ele>1330.2</ele>
        <time>2019-07-16T06:19:42Z</time>
      </trkpt>
      <trkpt lat="44.08379" lon="6.89094">
        <ele>1330.5</ele>
        <time>2019-07-16T06:19:44Z</time>
      </trkpt>
      <trkpt lat="44.08379" lon="6.89099">
        <ele>1330.8</ele>
        <time>2019-07-16T06:19:46Z</time>
      </trkpt>
      <trkpt lat="44.08379" lon="6.89103">
        <ele>1331.2</ele>
        <time>2019-07-16T06:19:48Z</time>
      </trkpt>
      <trkpt lat="44.08379" lon="6.89109">
        <ele>1331.5</ele>
        <time>2019-07-16T06:19:50Z</time>
      </trkpt>
      <trkpt lat="44.08379" lon="6.89114">
        <ele>1331.9</ele>
        <time>2019-07-16T06:19:52Z</time>
      </trkpt>
      <trkpt lat="44.08378" lon="6.89118">
        <ele>1332.2</ele>
        <time>2019-07-16T06:19:54Z</time>
      </trkpt>
      <trkpt lat="44.08378" lon="6.89124">
        <ele>1332.6</ele>
        <time>2019-07-16T06:19:56Z</time>
      </trkpt>
      <trkpt lat="44.08378" lon="6.89129">
        <ele>1333</ele>
        <time>2019-07-16T06:19:58Z</time>
      </trkpt>
      <trkpt lat="44.08378" lon="6.89134">
        <ele>1333.3</ele>
        <time>2019-07-16T06:20:00Z</time>
      </trkpt>
      <trkpt lat="44.08379" lon="6.8914">
        <ele>1333.6</ele>
        <time>2019-07-16T06:20:02Z</time>
      </trkpt>
      <trkpt lat="44.0838" lon="6.89145">
        <ele>1333.9</ele>
        <time>2019-07-16T06:20:04Z</time>
      </trkpt>
      <trkpt lat="44.08381" lon="6.89149">
        <ele>1334.2</ele>
        <time>2019-07-16T06:20:06Z</time>
      </trkpt>
      <trkpt lat="44.08383" lon="6.89154">
        <ele>1334.5</ele>
        <time>2019-07-16T06:20:08Z</time>
      </trkpt>
      <trkpt lat="44.08385" lon="6.89159">
        <ele>1334.9</ele>
        <time>2019-07-16T06:20:10Z</time>
      </trkpt>
      <trkpt lat="44.08387" lon="6.89163">
        <ele>1335.1</ele>
        <time>2019-07-16T06:20:12Z</time>
      </trkpt>
      <trkpt lat="44.08388" lon="6.89167">
        <ele>1335.5</ele>
        <time>2019-07-16T06:20:14Z</time>
      </trkpt>
      <trkpt lat="44.0839" lon="6.89171">
        <ele>1335.8</ele>
        <time>2019-07-16T06:20:16Z</time>
      </trkpt>
      <trkpt lat="44.08393" lon="6.89176">
        <ele>1336.1</ele>
        <time>2019-07-16T06:20:18Z</time>
      </trkpt>
      <trkpt lat="44.08394" lon="6.8918">
        <ele>1336.4</ele>
        <time>2019-07-16T06:20:20Z</time>
      </trkpt>
      <trkpt lat="44.08396" lon="6.89184">
        <ele>1336.7</ele>
        <time>2019-07-16T06:20:22Z</time>
      </trkpt>
      <trkpt lat="44.08399" lon="6.89188">
        <ele>1337</ele>
        <time>2019-07-16T06:20:24Z</time>
      </trkpt>
      <trkpt lat="44.08401" lon="6.89192">
        <ele>1337.3</ele>
        <time>2019-07-16T06:20:26Z</time>
      </trkpt>
      <trkpt lat="44.08403" lon="6.89196">
        <ele>1337.6</ele>
        <time>2019-07-16T06:20:28Z</time>
      </trkpt>
      <trkpt lat="44.08406" lon="6.892">
        <ele>1337.8</ele>
        <time>2019-07-16T06:20:30Z</time>
      </trkpt>
      <trkpt lat="44.08409" lon="6.89203">
        <ele>1338.1</ele>
        <time>2019-07-16T06:20:32Z</time>
      </trkpt>
      <trkpt lat="44.08411" lon="6.89207">
        <ele>1338.3</ele>
        <time>2019-07-16T06:20:34Z</time>
      </trkpt>
      <trkpt lat="44.08413" lon="6.8921">
        <ele>1338.6</ele>
        <time>2019-07-16T06:20:36Z</time>
      </trkpt>
      <trkpt lat="44.08415" lon="6.89214">
        <ele>1338.8</ele>
        <time>2019-07-16T06:20:38Z</time>
      </trkpt>
      <trkpt lat="44.08417" lon="6.89217">
        <ele>1339.1</ele>
        <time>2019-07-16T06:20:40Z</time>
      </trkpt>
      <trkpt lat="44.08419" lon="6.89221">
        <ele>1339.3</ele>
        <time>2019-07-16T06:20:42Z</time>
      </trkpt>
      <trkpt lat="44.08421" lon="6.89225">
        <ele>1339.6</ele>
        <time>2019-07-16T06:20:44Z</time>
      </trkpt>
      <trkpt lat="44.08422" lon="6.8923">
        <ele>1339.9</ele>
        <time>2019-07-16T06:20:46Z</time>
      </trkpt>
      <trkpt lat="44.08424" lon="6.89234">
        <ele>1340.2</ele>
        <time>2019-07-16T06:20:48Z</time>
      </trkpt>
      <trkpt lat="44.08425" lon="6.89238">
        <ele>1340.5</ele>
        <time>2019-07-16T06:20:50Z</time>
      </trkpt>
      <trkpt lat="44.08426" lon="6.89243">
        <ele>1340.8</ele>
        <time>2019-07-16T06:20:52Z</time>
      </trkpt>
      <trkpt lat="44.08428" lon="6.89247">
        <ele>1341.1</ele>
        <time>2019-07-16T06:20:54Z</time>
      </trkpt>
      <trkpt lat="44.0843" lon="6.89252">
        <ele>1341.4</ele>
        <time>2019-07-16T06:20:56Z</time>
      </trkpt>
      <trkpt lat="44.08431" lon="6.89256">
        <ele>1341.8</ele>
        <time>2019-07-16T06:20:58Z</time>
      </trkpt>
      <trkpt lat="44.08433" lon="6.89261">
        <ele>1342.2</ele>
        <time>2019-07-16T06:21:00Z</time>
      </trkpt>
      <trkpt lat="44.08435" lon="6.89265">
        <ele>1342.6</ele>
        <time>2019-07-16T06:21:02Z</time>
      </trkpt>
      <trkpt lat="44.08437" lon="6.89269">
        <ele>1342.9</ele>
        <time>2019-07-16T06:21:04Z</time>
      </trkpt>
      <trkpt lat="44.0844" lon="6.89272">
        <ele>1343.2</ele>
        <time>2019-07-16T06:21:06Z</time>
      </trkpt>
      <trkpt lat="44.08443" lon="6.89274">
        <ele>1343.5</ele>
        <time>2019-07-16T06:21:08Z</time>
      </trkpt>
      <trkpt lat="44.08447" lon="6.89275">
        <ele>1343.8</ele>
        <time>2019-07-16T06:21:10Z</time>
      </trkpt>
      <trkpt lat="44.08451" lon="6.89278">
        <ele>1344.3</ele>
        <time>2019-07-16T06:21:12Z</time>
      </trkpt>
      <trkpt lat="44.08454" lon="6.89278">
        <ele>1344.6</ele>
        <time>2019-07-16T06:21:14Z</time>
      </trkpt>
      <trkpt lat="44.08458" lon="6.89279">
        <ele>1344.9</ele>
        <time>2019-07-16T06:21:16Z</time>
      </trkpt>
      <trkpt lat="44.08462" lon="6.89278">
        <ele>1345.3</ele>
        <time>2019-07-16T06:21:18Z</time>
      </trkpt>
      <trkpt lat="44.08466" lon="6.89278">
        <ele>1345.7</ele>
        <time>2019-07-16T06:21:20Z</time>
      </trkpt>
      <trkpt lat="44.0847" lon="6.89278">
        <ele>1346</ele>
        <time>2019-07-16T06:21:22Z</time>
      </trkpt>
      <trkpt lat="44.08473" lon="6.89279">
        <ele>1346.3</ele>
        <time>2019-07-16T06:21:24Z</time>
      </trkpt>
      <trkpt lat="44.08477" lon="6.8928">
        <ele>1346.6</ele>
        <time>2019-07-16T06:21:26Z</time>
      </trkpt>
      <trkpt lat="44.08481" lon="6.89281">
        <ele>1346.9</ele>
        <time>2019-07-16T06:21:28Z</time>
      </trkpt>
      <trkpt lat="44.08484" lon="6.89282">
        <ele>1347.2</ele>
        <time>2019-07-16T06:21:29Z</time>
      </trkpt>
      <trkpt lat="44.08486" lon="6.89283">
        <ele>1347.5</ele>
        <time>2019-07-16T06:21:30Z</time>
      </trkpt>
      <trkpt lat="44.0849" lon="6.89286">
        <ele>1347.9</ele>
        <time>2019-07-16T06:21:32Z</time>
      </trkpt>
      <trkpt lat="44.08494" lon="6.8929">
        <ele>1348.4</ele>
        <time>2019-07-16T06:21:34Z</time>
      </trkpt>
      <trkpt lat="44.08497" lon="6.89294">
        <ele>1348.8</ele>
        <time>2019-07-16T06:21:36Z</time>
      </trkpt>
      <trkpt lat="44.08499" lon="6.89297">
        <ele>1349.1</ele>
        <time>2019-07-16T06:21:38Z</time>
      </trkpt>
      <trkpt lat="44.08502" lon="6.893">
        <ele>1349.5</ele>
        <time>2019-07-16T06:21:40Z</time>
      </trkpt>
      <trkpt lat="44.08504" lon="6.89303">
        <ele>1349.8</ele>
        <time>2019-07-16T06:21:42Z</time>
      </trkpt>
      <trkpt lat="44.08507" lon="6.89306">
        <ele>1350.2</ele>
        <time>2019-07-16T06:21:44Z</time>
      </trkpt>
      <trkpt lat="44.0851" lon="6.89309">
        <ele>1350.6</ele>
        <time>2019-07-16T06:21:46Z</time>
      </trkpt>
      <trkpt lat="44.08512" lon="6.89312">
        <ele>1351</ele>
        <time>2019-07-16T06:21:48Z</time>
      </trkpt>
      <trkpt lat="44.08516" lon="6.89313">
        <ele>1351.3</ele>
        <time>2019-07-16T06:21:50Z</time>
      </trkpt>
      <trkpt lat="44.08519" lon="6.89315">
        <ele>1351.6</ele>
        <time>2019-07-16T06:21:52Z</time>
      </trkpt>
      <trkpt lat="44.08523" lon="6.89316">
        <ele>1351.9</ele>
        <time>2019-07-16T06:21:54Z</time>
      </trkpt>
      <trkpt lat="44.08526" lon="6.89316">
        <ele>1352.2</ele>
        <time>2019-07-16T06:21:56Z</time>
      </trkpt>
      <trkpt lat="44.0853" lon="6.89316">
        <ele>1352.5</ele>
        <time>2019-07-16T06:21:58Z</time>
      </trkpt>
      <trkpt lat="44.08534" lon="6.89315">
        <ele>1352.8</ele>
        <time>2019-07-16T06:22:00Z</time>
      </trkpt>
      <trkpt lat="44.08537" lon="6.89314">
        <ele>1353</ele>
        <time>2019-07-16T06:22:02Z</time>
      </trkpt>
      <trkpt lat="44.08541" lon="6.89312">
        <ele>1353.2</ele>
        <time>2019-07-16T06:22:04Z</time>
      </trkpt>
      <trkpt lat="44.08544" lon="6.89311">
        <ele>1353.4</ele>
        <time>2019-07-16T06:22:06Z</time>
      </trkpt>
      <trkpt lat="44.08548" lon="6.89309">
        <ele>1353.6</ele>
        <time>2019-07-16T06:22:08Z</time>
      </trkpt>
      <trkpt lat="44.08552" lon="6.89306">
        <ele>1353.9</ele>
        <time>2019-07-16T06:22:10Z</time>
      </trkpt>
      <trkpt lat="44.08555" lon="6.89304">
        <ele>1354.2</ele>
        <time>2019-07-16T06:22:12Z</time>
      </trkpt>
      <trkpt lat="44.08558" lon="6.89302">
        <ele>1354.5</ele>
        <time>2019-07-16T06:22:14Z</time>
      </trkpt>
      <trkpt lat="44.08561" lon="6.89299">
        <ele>1354.9</ele>
        <time>2019-07-16T06:22:16Z</time>
      </trkpt>
      <trkpt lat="44.08564" lon="6.89295">
        <ele>1355.2</ele>
        <time>2019-07-16T06:22:18Z</time>
      </trkpt>
      <trkpt lat="44.08567" lon="6.89292">
        <ele>1355.6</ele>
        <time>2019-07-16T06:22:20Z</time>
      </trkpt>
      <trkpt lat="44.0857" lon="6.89289">
        <ele>1355.9</ele>
        <time>2019-07-16T06:22:22Z</time>
      </trkpt>
      <trkpt lat="44.08573" lon="6.89287">
        <ele>1356.2</ele>
        <time>2019-07-16T06:22:24Z</time>
      </trkpt>
      <trkpt lat="44.08576" lon="6.89284">
        <ele>1356.6</ele>
        <time>2019-07-16T06:22:26Z</time>
      </trkpt>
      <trkpt lat="44.08579" lon="6.89282">
        <ele>1356.9</ele>
        <time>2019-07-16T06:22:28Z</time>
      </trkpt>
      <trkpt lat="44.08583" lon="6.89279">
        <ele>1357.3</ele>
        <time>2019-07-16T06:22:30Z</time>
      </trkpt>
      <trkpt lat="44.08587" lon="6.89278">
        <ele>1357.7</ele>
        <time>2019-07-16T06:22:32Z</time>
      </trkpt>
      <trkpt lat="44.0859" lon="6.89277">
        <ele>1358</ele>
        <time>2019-07-16T06:22:34Z</time>
      </trkpt>
      <trkpt lat="44.08594" lon="6.89277">
        <ele>1358.3</ele>
        <time>2019-07-16T06:22:36Z</time>
      </trkpt>
      <trkpt lat="44.08597" lon="6.89276">
        <ele>1358.6</ele>
        <time>2019-07-16T06:22:38Z</time>
      </trkpt>
      <trkpt lat="44.08601" lon="6.89277">
        <ele>1358.8</ele>
        <time>2019-07-16T06:22:40Z</time>
      </trkpt>
      <trkpt lat="44.08604" lon="6.89277">
        <ele>1359.1</ele>
        <time>2019-07-16T06:22:42Z</time>
      </trkpt>
      <trkpt lat="44.08608" lon="6.89279">
        <ele>1359.5</ele>
        <time>2019-07-16T06:22:44Z</time>
      </trkpt>
      <trkpt lat="44.08612" lon="6.89279">
        <ele>1359.7</ele>
        <time>2019-07-16T06:22:46Z</time>
      </trkpt>
      <trkpt lat="44.08616" lon="6.89281">
        <ele>1360.1</ele>
        <time>2019-07-16T06:22:48Z</time>
      </trkpt>
      <trkpt lat="44.0862" lon="6.89283">
        <ele>1360.4</ele>
        <time>2019-07-16T06:22:50Z</time>
      </trkpt>
      <trkpt lat="44.08624" lon="6.89283">
        <ele>1360.7</ele>
        <time>2019-07-16T06:22:52Z</time>
      </trkpt>
      <trkpt lat="44.08628" lon="6.89284">
        <ele>1361</ele>
        <time>2019-07-16T06:22:54Z</time>
      </trkpt>
      <trkpt lat="44.08632" lon="6.89284">
        <ele>1361.3</ele>
        <time>2019-07-16T06:22:56Z</time>
      </trkpt>
      <trkpt lat="44.08636" lon="6.89285">
        <ele>1361.5</ele>
        <time>2019-07-16T06:22:58Z</time>
      </trkpt>
      <trkpt lat="44.0864" lon="6.89287">
        <ele>1361.8</ele>
        <time>2019-07-16T06:23:00Z</time>
      </trkpt>
      <trkpt lat="44.08644" lon="6.89288">
        <ele>1362.1</ele>
        <time>2019-07-16T06:23:02Z</time>
      </trkpt>
      <trkpt lat="44.08649" lon="6.89288">
        <ele>1362.4</ele>
        <time>2019-07-16T06:23:04Z</time>
      </trkpt>
      <trkpt lat="44.08652" lon="6.89289">
        <ele>1362.8</ele>
        <time>2019-07-16T06:23:06Z</time>
      </trkpt>
      <trkpt lat="44.08657" lon="6.8929">
        <ele>1363.1</ele>
        <time>2019-07-16T06:23:08Z</time>
      </trkpt>
      <trkpt lat="44.08661" lon="6.8929">
        <ele>1363.5</ele>
        <time>2019-07-16T06:23:10Z</time>
      </trkpt>
      <trkpt lat="44.08665" lon="6.89292">
        <ele>1363.8</ele>
        <time>2019-07-16T06:23:12Z</time>
      </trkpt>
      <trkpt lat="44.08669" lon="6.89293">
        <ele>1364.2</ele>
        <time>2019-07-16T06:23:14Z</time>
      </trkpt>
      <trkpt lat="44.08674" lon="6.89294">
        <ele>1364.5</ele>
        <time>2019-07-16T06:23:16Z</time>
      </trkpt>
      <trkpt lat="44.08677" lon="6.89295">
        <ele>1364.8</ele>
        <time>2019-07-16T06:23:18Z</time>
      </trkpt>
      <trkpt lat="44.08681" lon="6.89297">
        <ele>1365.1</ele>
        <time>2019-07-16T06:23:20Z</time>
      </trkpt>
      <trkpt lat="44.08684" lon="6.89299">
        <ele>1365.5</ele>
        <time>2019-07-16T06:23:22Z</time>
      </trkpt>
      <trkpt lat="44.08688" lon="6.89302">
        <ele>1365.8</ele>
        <time>2019-07-16T06:23:24Z</time>
      </trkpt>
      <trkpt lat="44.08692" lon="6.89304">
        <ele>1366.2</ele>
        <time>2019-07-16T06:23:26Z</time>
      </trkpt>
      <trkpt lat="44.08695" lon="6.89305">
        <ele>1366.4</ele>
        <time>2019-07-16T06:23:28Z</time>
      </trkpt>
      <trkpt lat="44.08698" lon="6.89307">
        <ele>1366.7</ele>
        <time>2019-07-16T06:23:30Z</time>
      </trkpt>
      <trkpt lat="44.08702" lon="6.89309">
        <ele>1367</ele>
        <time>2019-07-16T06:23:32Z</time>
      </trkpt>
      <trkpt lat="44.08705" lon="6.89311">
        <ele>1367.3</ele>
        <time>2019-07-16T06:23:35Z</time>
      </trkpt>
      <trkpt lat="44.08708" lon="6.89313">
        <ele>1367.6</ele>
        <time>2019-07-16T06:23:37Z</time>
      </trkpt>
      <trkpt lat="44.08712" lon="6.89314">
        <ele>1367.9</ele>
        <time>2019-07-16T06:23:39Z</time>
      </trkpt>
      <trkpt lat="44.08714" lon="6.89317">
        <ele>1368.1</ele>
        <time>2019-07-16T06:23:41Z</time>
      </trkpt>
      <trkpt lat="44.08717" lon="6.8932">
        <ele>1368.4</ele>
        <time>2019-07-16T06:23:43Z</time>
      </trkpt>
      <trkpt lat="44.0872" lon="6.89323">
        <ele>1368.8</ele>
        <time>2019-07-16T06:23:45Z</time>
      </trkpt>
      <trkpt lat="44.08723" lon="6.89327">
        <ele>1369.1</ele>
        <time>2019-07-16T06:23:47Z</time>
      </trkpt>
      <trkpt lat="44.08725" lon="6.8933">
        <ele>1369.4</ele>
        <time>2019-07-16T06:23:49Z</time>
      </trkpt>
      <trkpt lat="44.08727" lon="6.89334">
        <ele>1369.7</ele>
        <time>2019-07-16T06:23:51Z</time>
      </trkpt>
      <trkpt lat="44.08729" lon="6.89339">
        <ele>1370.1</ele>
        <time>2019-07-16T06:23:53Z</time>
      </trkpt>
      <trkpt lat="44.08732" lon="6.89343">
        <ele>1370.5</ele>
        <time>2019-07-16T06:23:55Z</time>
      </trkpt>
      <trkpt lat="44.08734" lon="6.89348">
        <ele>1370.9</ele>
        <time>2019-07-16T06:23:57Z</time>
      </trkpt>
      <trkpt lat="44.08736" lon="6.89351">
        <ele>1371.2</ele>
        <time>2019-07-16T06:23:59Z</time>
      </trkpt>
      <trkpt lat="44.08738" lon="6.89356">
        <ele>1371.6</ele>
        <time>2019-07-16T06:24:01Z</time>
      </trkpt>
      <trkpt lat="44.0874" lon="6.89361">
        <ele>1372</ele>
        <time>2019-07-16T06:24:03Z</time>
      </trkpt>
      <trkpt lat="44.08742" lon="6.89366">
        <ele>1372.3</ele>
        <time>2019-07-16T06:24:05Z</time>
      </trkpt>
      <trkpt lat="44.08742" lon="6.8937">
        <ele>1372.6</ele>
        <time>2019-07-16T06:24:07Z</time>
      </trkpt>
      <trkpt lat="44.08743" lon="6.89374">
        <ele>1372.8</ele>
        <time>2019-07-16T06:24:09Z</time>
      </trkpt>
      <trkpt lat="44.08743" lon="6.89379">
        <ele>1373</ele>
        <time>2019-07-16T06:24:11Z</time>
      </trkpt>
      <trkpt lat="44.08744" lon="6.89382">
        <ele>1373.1</ele>
        <time>2019-07-16T06:24:13Z</time>
      </trkpt>
      <trkpt lat="44.08745" lon="6.89387">
        <ele>1373.4</ele>
        <time>2019-07-16T06:24:15Z</time>
      </trkpt>
      <trkpt lat="44.08744" lon="6.89391">
        <ele>1373.6</ele>
        <time>2019-07-16T06:24:17Z</time>
      </trkpt>
      <trkpt lat="44.08742" lon="6.89396">
        <ele>1373.8</ele>
        <time>2019-07-16T06:24:19Z</time>
      </trkpt>
      <trkpt lat="44.08741" lon="6.89401">
        <ele>1373.9</ele>
        <time>2019-07-16T06:24:22Z</time>
      </trkpt>
      <trkpt lat="44.0874" lon="6.89406">
        <ele>1374.1</ele>
        <time>2019-07-16T06:24:24Z</time>
      </trkpt>
      <trkpt lat="44.08738" lon="6.8941">
        <ele>1374.3</ele>
        <time>2019-07-16T06:24:26Z</time>
      </trkpt>
      <trkpt lat="44.08737" lon="6.89415">
        <ele>1374.4</ele>
        <time>2019-07-16T06:24:28Z</time>
      </trkpt>
      <trkpt lat="44.08734" lon="6.89419">
        <ele>1374.5</ele>
        <time>2019-07-16T06:24:30Z</time>
      </trkpt>
      <trkpt lat="44.08732" lon="6.89423">
        <ele>1374.7</ele>
        <time>2019-07-16T06:24:32Z</time>
      </trkpt>
      <trkpt lat="44.0873" lon="6.89427">
        <ele>1374.8</ele>
        <time>2019-07-16T06:24:34Z</time>
      </trkpt>
      <trkpt lat="44.08729" lon="6.89432">
        <ele>1375</ele>
        <time>2019-07-16T06:24:36Z</time>
      </trkpt>
      <trkpt lat="44.08727" lon="6.89437">
        <ele>1375.1</ele>
        <time>2019-07-16T06:24:38Z</time>
      </trkpt>
      <trkpt lat="44.08726" lon="6.89442">
        <ele>1375.2</ele>
        <time>2019-07-16T06:24:40Z</time>
      </trkpt>
      <trkpt lat="44.08726" lon="6.89447">
        <ele>1375.4</ele>
        <time>2019-07-16T06:24:42Z</time>
      </trkpt>
      <trkpt lat="44.08725" lon="6.89453">
        <ele>1375.6</ele>
        <time>2019-07-16T06:24:44Z</time>
      </trkpt>
      <trkpt lat="44.08724" lon="6.89458">
        <ele>1375.7</ele>
        <time>2019-07-16T06:24:46Z</time>
      </trkpt>
      <trkpt lat="44.08723" lon="6.89463">
        <ele>1375.9</ele>
        <time>2019-07-16T06:24:48Z</time>
      </trkpt>
      <trkpt lat="44.08723" lon="6.89467">
        <ele>1376</ele>
        <time>2019-07-16T06:24:50Z</time>
      </trkpt>
      <trkpt lat="44.08722" lon="6.89473">
        <ele>1376.2</ele>
        <time>2019-07-16T06:24:52Z</time>
      </trkpt>
      <trkpt lat="44.08721" lon="6.89478">
        <ele>1376.3</ele>
        <time>2019-07-16T06:24:54Z</time>
      </trkpt>
      <trkpt lat="44.08722" lon="6.89484">
        <ele>1376.5</ele>
        <time>2019-07-16T06:24:56Z</time>
      </trkpt>
      <trkpt lat="44.08721" lon="6.89489">
        <ele>1376.7</ele>
        <time>2019-07-16T06:24:58Z</time>
      </trkpt>
      <trkpt lat="44.08721" lon="6.89495">
        <ele>1376.9</ele>
        <time>2019-07-16T06:25:00Z</time>
      </trkpt>
      <trkpt lat="44.08721" lon="6.895">
        <ele>1377</ele>
        <time>2019-07-16T06:25:02Z</time>
      </trkpt>
      <trkpt lat="44.08721" lon="6.89505">
        <ele>1377.2</ele>
        <time>2019-07-16T06:25:04Z</time>
      </trkpt>
      <trkpt lat="44.0872" lon="6.8951">
        <ele>1377.4</ele>
        <time>2019-07-16T06:25:06Z</time>
      </trkpt>
      <trkpt lat="44.08719" lon="6.89515">
        <ele>1377.5</ele>
        <time>2019-07-16T06:25:08Z</time>
      </trkpt>
      <trkpt lat="44.08717" lon="6.8952">
        <ele>1377.7</ele>
        <time>2019-07-16T06:25:10Z</time>
      </trkpt>
      <trkpt lat="44.08716" lon="6.89525">
        <ele>1377.9</ele>
        <time>2019-07-16T06:25:12Z</time>
      </trkpt>
      <trkpt lat="44.08714" lon="6.89529">
        <ele>1378</ele>
        <time>2019-07-16T06:25:14Z</time>
      </trkpt>
      <trkpt lat="44.08711" lon="6.89534">
        <ele>1378.2</ele>
        <time>2019-07-16T06:25:16Z</time>
      </trkpt>
      <trkpt lat="44.08709" lon="6.89537">
        <ele>1378.4</ele>
        <time>2019-07-16T06:25:18Z</time>
      </trkpt>
      <trkpt lat="44.08706" lon="6.8954">
        <ele>1378.5</ele>
        <time>2019-07-16T06:25:20Z</time>
      </trkpt>
      <trkpt lat="44.08703" lon="6.89543">
        <ele>1378.7</ele>
        <time>2019-07-16T06:25:22Z</time>
      </trkpt>
      <trkpt lat="44.087" lon="6.89545">
        <ele>1378.8</ele>
        <time>2019-07-16T06:25:24Z</time>
      </trkpt>
      <trkpt lat="44.08697" lon="6.89547">
        <ele>1379</ele>
        <time>2019-07-16T06:25:26Z</time>
      </trkpt>
      <trkpt lat="44.08694" lon="6.8955">
        <ele>1379.2</ele>
        <time>2019-07-16T06:25:28Z</time>
      </trkpt>
      <trkpt lat="44.08692" lon="6.89555">
        <ele>1379.3</ele>
        <time>2019-07-16T06:25:30Z</time>
      </trkpt>
      <trkpt lat="44.0869" lon="6.89558">
        <ele>1379.5</ele>
        <time>2019-07-16T06:25:32Z</time>
      </trkpt>
      <trkpt lat="44.08692" lon="6.89562">
        <ele>1379.6</ele>
        <time>2019-07-16T06:25:35Z</time>
      </trkpt>
      <trkpt lat="44.08695" lon="6.89561">
        <ele>1379.7</ele>
        <time>2019-07-16T06:25:36Z</time>
      </trkpt>
      <trkpt lat="44.08697" lon="6.89558">
        <ele>1379.8</ele>
        <time>2019-07-16T06:25:37Z</time>
      </trkpt>
      <trkpt lat="44.087" lon="6.89555">
        <ele>1380</ele>
        <time>2019-07-16T06:25:38Z</time>
      </trkpt>
      <trkpt lat="44.08703" lon="6.89552">
        <ele>1380.1</ele>
        <time>2019-07-16T06:25:40Z</time>
      </trkpt>
      <trkpt lat="44.087" lon="6.89549">
        <ele>1380.2</ele>
        <time>2019-07-16T06:25:43Z</time>
      </trkpt>
      <trkpt lat="44.08696" lon="6.89552">
        <ele>1380.4</ele>
        <time>2019-07-16T06:25:45Z</time>
      </trkpt>
      <trkpt lat="44.08693" lon="6.89556">
        <ele>1380.6</ele>
        <time>2019-07-16T06:25:47Z</time>
      </trkpt>
      <trkpt lat="44.08691" lon="6.8956">
        <ele>1380.7</ele>
        <time>2019-07-16T06:25:49Z</time>
      </trkpt>
      <trkpt lat="44.08689" lon="6.89565">
        <ele>1380.9</ele>
        <time>2019-07-16T06:25:51Z</time>
      </trkpt>
      <trkpt lat="44.08687" lon="6.8957">
        <ele>1381.1</ele>
        <time>2019-07-16T06:25:53Z</time>
      </trkpt>
      <trkpt lat="44.08686" lon="6.89574">
        <ele>1381.2</ele>
        <time>2019-07-16T06:25:55Z</time>
      </trkpt>
      <trkpt lat="44.08684" lon="6.89578">
        <ele>1381.3</ele>
        <time>2019-07-16T06:25:57Z</time>
      </trkpt>
      <trkpt lat="44.08683" lon="6.89582">
        <ele>1381.5</ele>
        <time>2019-07-16T06:25:59Z</time>
      </trkpt>
      <trkpt lat="44.08682" lon="6.89588">
        <ele>1381.6</ele>
        <time>2019-07-16T06:26:01Z</time>
      </trkpt>
      <trkpt lat="44.08681" lon="6.89593">
        <ele>1381.8</ele>
        <time>2019-07-16T06:26:03Z</time>
      </trkpt>
      <trkpt lat="44.08679" lon="6.89599">
        <ele>1381.9</ele>
        <time>2019-07-16T06:26:05Z</time>
      </trkpt>
      <trkpt lat="44.08678" lon="6.89605">
        <ele>1382.1</ele>
        <time>2019-07-16T06:26:07Z</time>
      </trkpt>
      <trkpt lat="44.08677" lon="6.8961">
        <ele>1382.2</ele>
        <time>2019-07-16T06:26:09Z</time>
      </trkpt>
      <trkpt lat="44.08676" lon="6.89615">
        <ele>1382.4</ele>
        <time>2019-07-16T06:26:11Z</time>
      </trkpt>
      <trkpt lat="44.08675" lon="6.89622">
        <ele>1382.6</ele>
        <time>2019-07-16T06:26:13Z</time>
      </trkpt>
      <trkpt lat="44.08674" lon="6.89627">
        <ele>1382.8</ele>
        <time>2019-07-16T06:26:15Z</time>
      </trkpt>
      <trkpt lat="44.08672" lon="6.89632">
        <ele>1383</ele>
        <time>2019-07-16T06:26:17Z</time>
      </trkpt>
      <trkpt lat="44.08672" lon="6.89638">
        <ele>1383.1</ele>
        <time>2019-07-16T06:26:19Z</time>
      </trkpt>
      <trkpt lat="44.08671" lon="6.89643">
        <ele>1383.3</ele>
        <time>2019-07-16T06:26:21Z</time>
      </trkpt>
      <trkpt lat="44.0867" lon="6.8965">
        <ele>1383.5</ele>
        <time>2019-07-16T06:26:23Z</time>
      </trkpt>
      <trkpt lat="44.08669" lon="6.89656">
        <ele>1383.7</ele>
        <time>2019-07-16T06:26:25Z</time>
      </trkpt>
      <trkpt lat="44.08669" lon="6.89661">
        <ele>1383.9</ele>
        <time>2019-07-16T06:26:27Z</time>
      </trkpt>
      <trkpt lat="44.08668" lon="6.89668">
        <ele>1384.1</ele>
        <time>2019-07-16T06:26:29Z</time>
      </trkpt>
      <trkpt lat="44.08667" lon="6.89674">
        <ele>1384.3</ele>
        <time>2019-07-16T06:26:31Z</time>
      </trkpt>
      <trkpt lat="44.08667" lon="6.8968">
        <ele>1384.4</ele>
        <time>2019-07-16T06:26:33Z</time>
      </trkpt>
      <trkpt lat="44.08666" lon="6.89685">
        <ele>1384.6</ele>
        <time>2019-07-16T06:26:35Z</time>
      </trkpt>
      <trkpt lat="44.08665" lon="6.8969">
        <ele>1384.8</ele>
        <time>2019-07-16T06:26:37Z</time>
      </trkpt>
      <trkpt lat="44.08664" lon="6.89696">
        <ele>1385</ele>
        <time>2019-07-16T06:26:39Z</time>
      </trkpt>
      <trkpt lat="44.08663" lon="6.89702">
        <ele>1385.2</ele>
        <time>2019-07-16T06:26:41Z</time>
      </trkpt>
      <trkpt lat="44.08662" lon="6.89708">
        <ele>1385.3</ele>
        <time>2019-07-16T06:26:43Z</time>
      </trkpt>
      <trkpt lat="44.08662" lon="6.89713">
        <ele>1385.5</ele>
        <time>2019-07-16T06:26:45Z</time>
      </trkpt>
      <trkpt lat="44.08661" lon="6.89719">
        <ele>1385.7</ele>
        <time>2019-07-16T06:26:47Z</time>
      </trkpt>
      <trkpt lat="44.08661" lon="6.89726">
        <ele>1385.9</ele>
        <time>2019-07-16T06:26:49Z</time>
      </trkpt>
      <trkpt lat="44.08661" lon="6.89732">
        <ele>1386.2</ele>
        <time>2019-07-16T06:26:51Z</time>
      </trkpt>
      <trkpt lat="44.08661" lon="6.89738">
        <ele>1386.4</ele>
        <time>2019-07-16T06:26:53Z</time>
      </trkpt>
      <trkpt lat="44.08662" lon="6.89745">
        <ele>1386.6</ele>
        <time>2019-07-16T06:26:55Z</time>
      </trkpt>
      <trkpt lat="44.08662" lon="6.89751">
        <ele>1386.8</ele>
        <time>2019-07-16T06:26:57Z</time>
      </trkpt>
      <trkpt lat="44.08662" lon="6.89756">
        <ele>1386.9</ele>
        <time>2019-07-16T06:26:59Z</time>
      </trkpt>
      <trkpt lat="44.08662" lon="6.89761">
        <ele>1387.1</ele>
        <time>2019-07-16T06:27:01Z</time>
      </trkpt>
      <trkpt lat="44.08662" lon="6.89766">
        <ele>1387.3</ele>
        <time>2019-07-16T06:27:03Z</time>
      </trkpt>
      <trkpt lat="44.08663" lon="6.89771">
        <ele>1387.4</ele>
        <time>2019-07-16T06:27:05Z</time>
      </trkpt>
      <trkpt lat="44.08663" lon="6.89778">
        <ele>1387.7</ele>
        <time>2019-07-16T06:27:07Z</time>
      </trkpt>
      <trkpt lat="44.08664" lon="6.89784">
        <ele>1387.9</ele>
        <time>2019-07-16T06:27:09Z</time>
      </trkpt>
      <trkpt lat="44.08665" lon="6.8979">
        <ele>1388.1</ele>
        <time>2019-07-16T06:27:11Z</time>
      </trkpt>
      <trkpt lat="44.08666" lon="6.89796">
        <ele>1388.3</ele>
        <time>2019-07-16T06:27:13Z</time>
      </trkpt>
      <trkpt lat="44.08667" lon="6.89801">
        <ele>1388.5</ele>
        <time>2019-07-16T06:27:15Z</time>
      </trkpt>
      <trkpt lat="44.08668" lon="6.89807">
        <ele>1388.7</ele>
        <time>2019-07-16T06:27:17Z</time>
      </trkpt>
      <trkpt lat="44.08669" lon="6.89812">
        <ele>1388.8</ele>
        <time>2019-07-16T06:27:19Z</time>
      </trkpt>
      <trkpt lat="44.0867" lon="6.89818">
        <ele>1389</ele>
        <time>2019-07-16T06:27:21Z</time>
      </trkpt>
      <trkpt lat="44.08672" lon="6.89824">
        <ele>1389.2</ele>
        <time>2019-07-16T06:27:23Z</time>
      </trkpt>
      <trkpt lat="44.08674" lon="6.89831">
        <ele>1389.4</ele>
        <time>2019-07-16T06:27:25Z</time>
      </trkpt>
      <trkpt lat="44.08676" lon="6.89836">
        <ele>1389.6</ele>
        <time>2019-07-16T06:27:27Z</time>
      </trkpt>
      <trkpt lat="44.08679" lon="6.8984">
        <ele>1389.7</ele>
        <time>2019-07-16T06:27:29Z</time>
      </trkpt>
      <trkpt lat="44.08681" lon="6.89844">
        <ele>1389.9</ele>
        <time>2019-07-16T06:27:31Z</time>
      </trkpt>
      <trkpt lat="44.08685" lon="6.89849">
        <ele>1390.1</ele>
        <time>2019-07-16T06:27:33Z</time>
      </trkpt>
      <trkpt lat="44.08688" lon="6.89854">
        <ele>1390.3</ele>
        <time>2019-07-16T06:27:35Z</time>
      </trkpt>
      <trkpt lat="44.0869" lon="6.89858">
        <ele>1390.4</ele>
        <time>2019-07-16T06:27:37Z</time>
      </trkpt>
      <trkpt lat="44.08691" lon="6.89862">
        <ele>1390.5</ele>
        <time>2019-07-16T06:27:39Z</time>
      </trkpt>
      <trkpt lat="44.08691" lon="6.89866">
        <ele>1390.7</ele>
        <time>2019-07-16T06:27:41Z</time>
      </trkpt>
      <trkpt lat="44.08693" lon="6.89871">
        <ele>1390.8</ele>
        <time>2019-07-16T06:27:43Z</time>
      </trkpt>
      <trkpt lat="44.08695" lon="6.89873">
        <ele>1390.9</ele>
        <time>2019-07-16T06:27:45Z</time>
      </trkpt>
      <trkpt lat="44.08697" lon="6.89873">
        <ele>1391</ele>
        <time>2019-07-16T06:27:53Z</time>
      </trkpt>
      <trkpt lat="44.087" lon="6.89878">
        <ele>1391.2</ele>
        <time>2019-07-16T06:28:05Z</time>
      </trkpt>
      <trkpt lat="44.08703" lon="6.89875">
        <ele>1391.3</ele>
        <time>2019-07-16T06:28:18Z</time>
      </trkpt>
      <trkpt lat="44.08704" lon="6.89879">
        <ele>1391.4</ele>
        <time>2019-07-16T06:28:27Z</time>
      </trkpt>
      <trkpt lat="44.08709" lon="6.89876">
        <ele>1391.6</ele>
        <time>2019-07-16T06:28:53Z</time>
      </trkpt>
      <trkpt lat="44.08706" lon="6.89866">
        <ele>1391.8</ele>
        <time>2019-07-16T06:29:49Z</time>
      </trkpt>
      <trkpt lat="44.08702" lon="6.89869">
        <ele>1392</ele>
        <time>2019-07-16T06:32:10Z</time>
      </trkpt>
      <trkpt lat="44.08701" lon="6.89875">
        <ele>1392.1</ele>
        <time>2019-07-16T06:32:12Z</time>
      </trkpt>
      <trkpt lat="44.08703" lon="6.89879">
        <ele>1392.2</ele>
        <time>2019-07-16T06:32:15Z</time>
      </trkpt>
      <trkpt lat="44.08703" lon="6.89883">
        <ele>1392.2</ele>
        <time>2019-07-16T06:32:17Z</time>
      </trkpt>
      <trkpt lat="44.08704" lon="6.89887">
        <ele>1392.2</ele>
        <time>2019-07-16T06:32:19Z</time>
      </trkpt>
      <trkpt lat="44.08704" lon="6.89892">
        <ele>1392.3</ele>
        <time>2019-07-16T06:32:21Z</time>
      </trkpt>
      <trkpt lat="44.08705" lon="6.89897">
        <ele>1392.3</ele>
        <time>2019-07-16T06:32:23Z</time>
      </trkpt>
      <trkpt lat="44.08704" lon="6.89901">
        <ele>1392.4</ele>
        <time>2019-07-16T06:32:25Z</time>
      </trkpt>
      <trkpt lat="44.08705" lon="6.89906">
        <ele>1392.5</ele>
        <time>2019-07-16T06:32:27Z</time>
      </trkpt>
      <trkpt lat="44.08707" lon="6.89912">
        <ele>1392.5</ele>
        <time>2019-07-16T06:32:29Z</time>
      </trkpt>
      <trkpt lat="44.08706" lon="6.89917">
        <ele>1392.6</ele>
        <time>2019-07-16T06:32:31Z</time>
      </trkpt>
      <trkpt lat="44.08705" lon="6.89922">
        <ele>1392.7</ele>
        <time>2019-07-16T06:32:34Z</time>
      </trkpt>
      <trkpt lat="44.08703" lon="6.89927">
        <ele>1392.7</ele>
        <time>2019-07-16T06:32:36Z</time>
      </trkpt>
      <trkpt lat="44.087" lon="6.89932">
        <ele>1392.8</ele>
        <time>2019-07-16T06:32:38Z</time>
      </trkpt>
      <trkpt lat="44.08699" lon="6.89938">
        <ele>1393</ele>
        <time>2019-07-16T06:32:40Z</time>
      </trkpt>
      <trkpt lat="44.08699" lon="6.89945">
        <ele>1393.1</ele>
        <time>2019-07-16T06:32:42Z</time>
      </trkpt>
      <trkpt lat="44.08698" lon="6.8995">
        <ele>1393.2</ele>
        <time>2019-07-16T06:32:44Z</time>
      </trkpt>
      <trkpt lat="44.08697" lon="6.89957">
        <ele>1393.4</ele>
        <time>2019-07-16T06:32:46Z</time>
      </trkpt>
      <trkpt lat="44.08696" lon="6.89963">
        <ele>1393.5</ele>
        <time>2019-07-16T06:32:48Z</time>
      </trkpt>
      <trkpt lat="44.08694" lon="6.89967">
        <ele>1393.7</ele>
        <time>2019-07-16T06:32:50Z</time>
      </trkpt>
      <trkpt lat="44.08693" lon="6.89971">
        <ele>1393.8</ele>
        <time>2019-07-16T06:32:52Z</time>
      </trkpt>
      <trkpt lat="44.08691" lon="6.89975">
        <ele>1394</ele>
        <time>2019-07-16T06:32:54Z</time>
      </trkpt>
      <trkpt lat="44.08689" lon="6.8998">
        <ele>1394.2</ele>
        <time>2019-07-16T06:32:56Z</time>
      </trkpt>
      <trkpt lat="44.08688" lon="6.89984">
        <ele>1394.4</ele>
        <time>2019-07-16T06:32:58Z</time>
      </trkpt>
      <trkpt lat="44.08686" lon="6.89988">
        <ele>1394.5</ele>
        <time>2019-07-16T06:33:00Z</time>
      </trkpt>
      <trkpt lat="44.08684" lon="6.89992">
        <ele>1394.7</ele>
        <time>2019-07-16T06:33:02Z</time>
      </trkpt>
      <trkpt lat="44.08682" lon="6.89997">
        <ele>1395</ele>
        <time>2019-07-16T06:33:04Z</time>
      </trkpt>
      <trkpt lat="44.0868" lon="6.90002">
        <ele>1395.3</ele>
        <time>2019-07-16T06:33:06Z</time>
      </trkpt>
      <trkpt lat="44.08678" lon="6.90007">
        <ele>1395.6</ele>
        <time>2019-07-16T06:33:08Z</time>
      </trkpt>
      <trkpt lat="44.08676" lon="6.90012">
        <ele>1395.9</ele>
        <time>2019-07-16T06:33:10Z</time>
      </trkpt>
      <trkpt lat="44.08673" lon="6.90016">
        <ele>1396.2</ele>
        <time>2019-07-16T06:33:12Z</time>
      </trkpt>
      <trkpt lat="44.08672" lon="6.90022">
        <ele>1396.5</ele>
        <time>2019-07-16T06:33:14Z</time>
      </trkpt>
      <trkpt lat="44.0867" lon="6.90026">
        <ele>1396.8</ele>
        <time>2019-07-16T06:33:16Z</time>
      </trkpt>
      <trkpt lat="44.08668" lon="6.90031">
        <ele>1397.1</ele>
        <time>2019-07-16T06:33:18Z</time>
      </trkpt>
      <trkpt lat="44.08666" lon="6.90035">
        <ele>1397.4</ele>
        <time>2019-07-16T06:33:20Z</time>
      </trkpt>
      <trkpt lat="44.08664" lon="6.90038">
        <ele>1397.6</ele>
        <time>2019-07-16T06:33:22Z</time>
      </trkpt>
      <trkpt lat="44.08662" lon="6.90042">
        <ele>1397.8</ele>
        <time>2019-07-16T06:33:24Z</time>
      </trkpt>
      <trkpt lat="44.08661" lon="6.90046">
        <ele>1398.1</ele>
        <time>2019-07-16T06:33:26Z</time>
      </trkpt>
      <trkpt lat="44.08659" lon="6.90049">
        <ele>1398.3</ele>
        <time>2019-07-16T06:33:28Z</time>
      </trkpt>
      <trkpt lat="44.08658" lon="6.90052">
        <ele>1398.5</ele>
        <time>2019-07-16T06:33:30Z</time>
      </trkpt>
      <trkpt lat="44.08657" lon="6.90057">
        <ele>1398.6</ele>
        <time>2019-07-16T06:33:32Z</time>
      </trkpt>
      <trkpt lat="44.08655" lon="6.90061">
        <ele>1398.8</ele>
        <time>2019-07-16T06:33:34Z</time>
      </trkpt>
      <trkpt lat="44.08653" lon="6.90065">
        <ele>1398.9</ele>
        <time>2019-07-16T06:33:36Z</time>
      </trkpt>
      <trkpt lat="44.08651" lon="6.9007">
        <ele>1399.1</ele>
        <time>2019-07-16T06:33:38Z</time>
      </trkpt>
      <trkpt lat="44.0865" lon="6.90074">
        <ele>1399.2</ele>
        <time>2019-07-16T06:33:40Z</time>
      </trkpt>
      <trkpt lat="44.08647" lon="6.90078">
        <ele>1399.3</ele>
        <time>2019-07-16T06:33:42Z</time>
      </trkpt>
      <trkpt lat="44.08646" lon="6.90081">
        <ele>1399.3</ele>
        <time>2019-07-16T06:33:44Z</time>
      </trkpt>
      <trkpt lat="44.08645" lon="6.90085">
        <ele>1399.3</ele>
        <time>2019-07-16T06:33:46Z</time>
      </trkpt>
      <trkpt lat="44.08643" lon="6.90088">
        <ele>1399.3</ele>
        <time>2019-07-16T06:33:48Z</time>
      </trkpt>
      <trkpt lat="44.08641" lon="6.90092">
        <ele>1399.3</ele>
        <time>2019-07-16T06:33:50Z</time>
      </trkpt>
      <trkpt lat="44.08641" lon="6.90096">
        <ele>1399.3</ele>
        <time>2019-07-16T06:33:52Z</time>
      </trkpt>
      <trkpt lat="44.0864" lon="6.90102">
        <ele>1399.3</ele>
        <time>2019-07-16T06:33:54Z</time>
      </trkpt>
      <trkpt lat="44.0864" lon="6.90107">
        <ele>1399.4</ele>
        <time>2019-07-16T06:33:56Z</time>
      </trkpt>
      <trkpt lat="44.08639" lon="6.90112">
        <ele>1399.4</ele>
        <time>2019-07-16T06:33:58Z</time>
      </trkpt>
      <trkpt lat="44.08638" lon="6.90116">
        <ele>1399.3</ele>
        <time>2019-07-16T06:34:00Z</time>
      </trkpt>
      <trkpt lat="44.08638" lon="6.90121">
        <ele>1399.3</ele>
        <time>2019-07-16T06:34:02Z</time>
      </trkpt>
      <trkpt lat="44.08638" lon="6.90126">
        <ele>1399.2</ele>
        <time>2019-07-16T06:34:04Z</time>
      </trkpt>
      <trkpt lat="44.08638" lon="6.9013">
        <ele>1399.2</ele>
        <time>2019-07-16T06:34:06Z</time>
      </trkpt>
      <trkpt lat="44.08637" lon="6.90135">
        <ele>1399.1</ele>
        <time>2019-07-16T06:34:08Z</time>
      </trkpt>
      <trkpt lat="44.08638" lon="6.90139">
        <ele>1399.1</ele>
        <time>2019-07-16T06:34:10Z</time>
      </trkpt>
      <trkpt lat="44.08639" lon="6.90145">
        <ele>1399</ele>
        <time>2019-07-16T06:34:12Z</time>
      </trkpt>
      <trkpt lat="44.08639" lon="6.9015">
        <ele>1399</ele>
        <time>2019-07-16T06:34:14Z</time>
      </trkpt>
      <trkpt lat="44.0864" lon="6.90155">
        <ele>1398.9</ele>
        <time>2019-07-16T06:34:16Z</time>
      </trkpt>
      <trkpt lat="44.08641" lon="6.90158">
        <ele>1398.9</ele>
        <time>2019-07-16T06:34:18Z</time>
      </trkpt>
      <trkpt lat="44.08643" lon="6.90163">
        <ele>1398.8</ele>
        <time>2019-07-16T06:34:20Z</time>
      </trkpt>
      <trkpt lat="44.08645" lon="6.90167">
        <ele>1398.8</ele>
        <time>2019-07-16T06:34:22Z</time>
      </trkpt>
      <trkpt lat="44.08647" lon="6.90171">
        <ele>1398.7</ele>
        <time>2019-07-16T06:34:24Z</time>
      </trkpt>
      <trkpt lat="44.08649" lon="6.90175">
        <ele>1398.7</ele>
        <time>2019-07-16T06:34:26Z</time>
      </trkpt>
      <trkpt lat="44.08651" lon="6.9018">
        <ele>1398.6</ele>
        <time>2019-07-16T06:34:28Z</time>
      </trkpt>
      <trkpt lat="44.08652" lon="6.90185">
        <ele>1398.5</ele>
        <time>2019-07-16T06:34:30Z</time>
      </trkpt>
      <trkpt lat="44.08655" lon="6.9019">
        <ele>1398.5</ele>
        <time>2019-07-16T06:34:33Z</time>
      </trkpt>
      <trkpt lat="44.08657" lon="6.90194">
        <ele>1398.4</ele>
        <time>2019-07-16T06:34:35Z</time>
      </trkpt>
      <trkpt lat="44.08658" lon="6.90197">
        <ele>1398.4</ele>
        <time>2019-07-16T06:34:37Z</time>
      </trkpt>
      <trkpt lat="44.0866" lon="6.90202">
        <ele>1398.3</ele>
        <time>2019-07-16T06:34:40Z</time>
      </trkpt>
      <trkpt lat="44.08662" lon="6.90206">
        <ele>1398.3</ele>
        <time>2019-07-16T06:34:42Z</time>
      </trkpt>
      <trkpt lat="44.08664" lon="6.90211">
        <ele>1398.2</ele>
        <time>2019-07-16T06:34:44Z</time>
      </trkpt>
      <trkpt lat="44.08666" lon="6.90214">
        <ele>1398.2</ele>
        <time>2019-07-16T06:34:46Z</time>
      </trkpt>
      <trkpt lat="44.08668" lon="6.90218">
        <ele>1398.8</ele>
        <time>2019-07-16T06:34:48Z</time>
      </trkpt>
      <trkpt lat="44.08669" lon="6.90222">
        <ele>1399.1</ele>
        <time>2019-07-16T06:34:50Z</time>
      </trkpt>
      <trkpt lat="44.08671" lon="6.90226">
        <ele>1399.4</ele>
        <time>2019-07-16T06:34:52Z</time>
      </trkpt>
      <trkpt lat="44.08673" lon="6.9023">
        <ele>1399.8</ele>
        <time>2019-07-16T06:34:54Z</time>
      </trkpt>
      <trkpt lat="44.08674" lon="6.90234">
        <ele>1400.1</ele>
        <time>2019-07-16T06:34:56Z</time>
      </trkpt>
      <trkpt lat="44.08675" lon="6.90237">
        <ele>1400.4</ele>
        <time>2019-07-16T06:34:58Z</time>
      </trkpt>
      <trkpt lat="44.08677" lon="6.9024">
        <ele>1400.7</ele>
        <time>2019-07-16T06:35:00Z</time>
      </trkpt>
      <trkpt lat="44.0868" lon="6.90244">
        <ele>1401.1</ele>
        <time>2019-07-16T06:35:02Z</time>
      </trkpt>
      <trkpt lat="44.08681" lon="6.90249">
        <ele>1401.5</ele>
        <time>2019-07-16T06:35:04Z</time>
      </trkpt>
      <trkpt lat="44.08682" lon="6.90254">
        <ele>1401.9</ele>
        <time>2019-07-16T06:35:06Z</time>
      </trkpt>
      <trkpt lat="44.08684" lon="6.90259">
        <ele>1402.3</ele>
        <time>2019-07-16T06:35:08Z</time>
      </trkpt>
      <trkpt lat="44.08685" lon="6.90264">
        <ele>1402.7</ele>
        <time>2019-07-16T06:35:10Z</time>
      </trkpt>
      <trkpt lat="44.08687" lon="6.90269">
        <ele>1403.1</ele>
        <time>2019-07-16T06:35:12Z</time>
      </trkpt>
      <trkpt lat="44.08688" lon="6.90272">
        <ele>1403.4</ele>
        <time>2019-07-16T06:35:14Z</time>
      </trkpt>
      <trkpt lat="44.08689" lon="6.90277">
        <ele>1403.7</ele>
        <time>2019-07-16T06:35:16Z</time>
      </trkpt>
      <trkpt lat="44.0869" lon="6.90281">
        <ele>1404.1</ele>
        <time>2019-07-16T06:35:18Z</time>
      </trkpt>
      <trkpt lat="44.08692" lon="6.90286">
        <ele>1404.4</ele>
        <time>2019-07-16T06:35:20Z</time>
      </trkpt>
      <trkpt lat="44.08693" lon="6.9029">
        <ele>1404.8</ele>
        <time>2019-07-16T06:35:22Z</time>
      </trkpt>
      <trkpt lat="44.08694" lon="6.90294">
        <ele>1405.1</ele>
        <time>2019-07-16T06:35:24Z</time>
      </trkpt>
      <trkpt lat="44.08696" lon="6.90299">
        <ele>1405.5</ele>
        <time>2019-07-16T06:35:26Z</time>
      </trkpt>
      <trkpt lat="44.08697" lon="6.90303">
        <ele>1405.8</ele>
        <time>2019-07-16T06:35:28Z</time>
      </trkpt>
      <trkpt lat="44.08699" lon="6.90308">
        <ele>1406.1</ele>
        <time>2019-07-16T06:35:30Z</time>
      </trkpt>
      <trkpt lat="44.087" lon="6.90312">
        <ele>1406.5</ele>
        <time>2019-07-16T06:35:32Z</time>
      </trkpt>
      <trkpt lat="44.08702" lon="6.90317">
        <ele>1406.8</ele>
        <time>2019-07-16T06:35:34Z</time>
      </trkpt>
      <trkpt lat="44.08704" lon="6.90321">
        <ele>1407.1</ele>
        <time>2019-07-16T06:35:36Z</time>
      </trkpt>
      <trkpt lat="44.08705" lon="6.90325">
        <ele>1407.4</ele>
        <time>2019-07-16T06:35:38Z</time>
      </trkpt>
      <trkpt lat="44.08707" lon="6.90329">
        <ele>1407.8</ele>
        <time>2019-07-16T06:35:40Z</time>
      </trkpt>
      <trkpt lat="44.08709" lon="6.90333">
        <ele>1408.1</ele>
        <time>2019-07-16T06:35:42Z</time>
      </trkpt>
      <trkpt lat="44.08711" lon="6.90336">
        <ele>1408.3</ele>
        <time>2019-07-16T06:35:44Z</time>
      </trkpt>
      <trkpt lat="44.08713" lon="6.9034">
        <ele>1408.7</ele>
        <time>2019-07-16T06:35:46Z</time>
      </trkpt>
      <trkpt lat="44.08716" lon="6.90344">
        <ele>1409</ele>
        <time>2019-07-16T06:35:48Z</time>
      </trkpt>
      <trkpt lat="44.08718" lon="6.90347">
        <ele>1409.3</ele>
        <time>2019-07-16T06:35:50Z</time>
      </trkpt>
      <trkpt lat="44.0872" lon="6.90351">
        <ele>1409.5</ele>
        <time>2019-07-16T06:35:52Z</time>
      </trkpt>
      <trkpt lat="44.08722" lon="6.90355">
        <ele>1409.8</ele>
        <time>2019-07-16T06:35:54Z</time>
      </trkpt>
      <trkpt lat="44.08724" lon="6.90358">
        <ele>1410.1</ele>
        <time>2019-07-16T06:35:56Z</time>
      </trkpt>
      <trkpt lat="44.08727" lon="6.90361">
        <ele>1410.3</ele>
        <time>2019-07-16T06:35:58Z</time>
      </trkpt>
      <trkpt lat="44.0873" lon="6.90365">
        <ele>1410.6</ele>
        <time>2019-07-16T06:36:00Z</time>
      </trkpt>
      <trkpt lat="44.08732" lon="6.90368">
        <ele>1410.9</ele>
        <time>2019-07-16T06:36:02Z</time>
      </trkpt>
      <trkpt lat="44.08735" lon="6.90371">
        <ele>1411.1</ele>
        <time>2019-07-16T06:36:04Z</time>
      </trkpt>
      <trkpt lat="44.08738" lon="6.90373">
        <ele>1411.4</ele>
        <time>2019-07-16T06:36:06Z</time>
      </trkpt>
      <trkpt lat="44.0874" lon="6.90376">
        <ele>1411.6</ele>
        <time>2019-07-16T06:36:08Z</time>
      </trkpt>
      <trkpt lat="44.08743" lon="6.90378">
        <ele>1411.9</ele>
        <time>2019-07-16T06:36:10Z</time>
      </trkpt>
      <trkpt lat="44.08746" lon="6.90381">
        <ele>1412.2</ele>
        <time>2019-07-16T06:36:12Z</time>
      </trkpt>
      <trkpt lat="44.0875" lon="6.90383">
        <ele>1412.5</ele>
        <time>2019-07-16T06:36:14Z</time>
      </trkpt>
      <trkpt lat="44.08753" lon="6.90386">
        <ele>1412.8</ele>
        <time>2019-07-16T06:36:16Z</time>
      </trkpt>
      <trkpt lat="44.08756" lon="6.90388">
        <ele>1413.1</ele>
        <time>2019-07-16T06:36:18Z</time>
      </trkpt>
      <trkpt lat="44.0876" lon="6.9039">
        <ele>1413.4</ele>
        <time>2019-07-16T06:36:20Z</time>
      </trkpt>
      <trkpt lat="44.08763" lon="6.90392">
        <ele>1413.6</ele>
        <time>2019-07-16T06:36:22Z</time>
      </trkpt>
      <trkpt lat="44.08767" lon="6.90396">
        <ele>1414</ele>
        <time>2019-07-16T06:36:24Z</time>
      </trkpt>
      <trkpt lat="44.08769" lon="6.90399">
        <ele>1414.2</ele>
        <time>2019-07-16T06:36:26Z</time>
      </trkpt>
      <trkpt lat="44.08771" lon="6.90402">
        <ele>1414.4</ele>
        <time>2019-07-16T06:36:28Z</time>
      </trkpt>
      <trkpt lat="44.08773" lon="6.90405">
        <ele>1414.7</ele>
        <time>2019-07-16T06:36:30Z</time>
      </trkpt>
      <trkpt lat="44.08775" lon="6.90409">
        <ele>1414.9</ele>
        <time>2019-07-16T06:36:32Z</time>
      </trkpt>
      <trkpt lat="44.08776" lon="6.90413">
        <ele>1415.1</ele>
        <time>2019-07-16T06:36:34Z</time>
      </trkpt>
      <trkpt lat="44.08777" lon="6.90417">
        <ele>1415.4</ele>
        <time>2019-07-16T06:36:36Z</time>
      </trkpt>
      <trkpt lat="44.08778" lon="6.90421">
        <ele>1415.6</ele>
        <time>2019-07-16T06:36:38Z</time>
      </trkpt>
      <trkpt lat="44.08779" lon="6.90427">
        <ele>1415.9</ele>
        <time>2019-07-16T06:36:40Z</time>
      </trkpt>
      <trkpt lat="44.08779" lon="6.90431">
        <ele>1416.2</ele>
        <time>2019-07-16T06:36:42Z</time>
      </trkpt>
      <trkpt lat="44.08779" lon="6.90437">
        <ele>1416.5</ele>
        <time>2019-07-16T06:36:44Z</time>
      </trkpt>
      <trkpt lat="44.08779" lon="6.90441">
        <ele>1416.8</ele>
        <time>2019-07-16T06:36:46Z</time>
      </trkpt>
      <trkpt lat="44.08777" lon="6.90446">
        <ele>1417</ele>
        <time>2019-07-16T06:36:48Z</time>
      </trkpt>
      <trkpt lat="44.08777" lon="6.90451">
        <ele>1417.4</ele>
        <time>2019-07-16T06:36:50Z</time>
      </trkpt>
      <trkpt lat="44.08777" lon="6.90455">
        <ele>1417.6</ele>
        <time>2019-07-16T06:36:52Z</time>
      </trkpt>
      <trkpt lat="44.08777" lon="6.90459">
        <ele>1417.8</ele>
        <time>2019-07-16T06:36:54Z</time>
      </trkpt>
      <trkpt lat="44.08776" lon="6.90463">
        <ele>1418.1</ele>
        <time>2019-07-16T06:36:56Z</time>
      </trkpt>
      <trkpt lat="44.08776" lon="6.90469">
        <ele>1418.4</ele>
        <time>2019-07-16T06:36:59Z</time>
      </trkpt>
      <trkpt lat="44.08776" lon="6.90473">
        <ele>1418.6</ele>
        <time>2019-07-16T06:37:01Z</time>
      </trkpt>
      <trkpt lat="44.08776" lon="6.90478">
        <ele>1418.9</ele>
        <time>2019-07-16T06:37:03Z</time>
      </trkpt>
      <trkpt lat="44.08777" lon="6.90482">
        <ele>1419.1</ele>
        <time>2019-07-16T06:37:05Z</time>
      </trkpt>
      <trkpt lat="44.08778" lon="6.90488">
        <ele>1419.4</ele>
        <time>2019-07-16T06:37:07Z</time>
      </trkpt>
      <trkpt lat="44.08779" lon="6.90493">
        <ele>1419.7</ele>
        <time>2019-07-16T06:37:09Z</time>
      </trkpt>
      <trkpt lat="44.0878" lon="6.90497">
        <ele>1419.9</ele>
        <time>2019-07-16T06:37:11Z</time>
      </trkpt>
      <trkpt lat="44.08781" lon="6.90502">
        <ele>1420.2</ele>
        <time>2019-07-16T06:37:13Z</time>
      </trkpt>
      <trkpt lat="44.08782" lon="6.90507">
        <ele>1420.5</ele>
        <time>2019-07-16T06:37:15Z</time>
      </trkpt>
      <trkpt lat="44.08783" lon="6.90512">
        <ele>1420.8</ele>
        <time>2019-07-16T06:37:17Z</time>
      </trkpt>
      <trkpt lat="44.08785" lon="6.90518">
        <ele>1421.2</ele>
        <time>2019-07-16T06:37:19Z</time>
      </trkpt>
      <trkpt lat="44.08785" lon="6.90523">
        <ele>1421.4</ele>
        <time>2019-07-16T06:37:21Z</time>
      </trkpt>
      <trkpt lat="44.08785" lon="6.90527">
        <ele>1421.7</ele>
        <time>2019-07-16T06:37:23Z</time>
      </trkpt>
      <trkpt lat="44.08784" lon="6.90531">
        <ele>1422</ele>
        <time>2019-07-16T06:37:25Z</time>
      </trkpt>
      <trkpt lat="44.08784" lon="6.90536">
        <ele>1422.3</ele>
        <time>2019-07-16T06:37:27Z</time>
      </trkpt>
      <trkpt lat="44.08782" lon="6.90541">
        <ele>1422.5</ele>
        <time>2019-07-16T06:37:29Z</time>
      </trkpt>
      <trkpt lat="44.08781" lon="6.90545">
        <ele>1422.8</ele>
        <time>2019-07-16T06:37:31Z</time>
      </trkpt>
      <trkpt lat="44.08779" lon="6.90548">
        <ele>1423.1</ele>
        <time>2019-07-16T06:37:33Z</time>
      </trkpt>
      <trkpt lat="44.08776" lon="6.90552">
        <ele>1423.4</ele>
        <time>2019-07-16T06:37:35Z</time>
      </trkpt>
      <trkpt lat="44.08774" lon="6.90555">
        <ele>1423.7</ele>
        <time>2019-07-16T06:37:37Z</time>
      </trkpt>
      <trkpt lat="44.08772" lon="6.90558">
        <ele>1424</ele>
        <time>2019-07-16T06:37:39Z</time>
      </trkpt>
      <trkpt lat="44.08769" lon="6.9056">
        <ele>1424.3</ele>
        <time>2019-07-16T06:37:41Z</time>
      </trkpt>
      <trkpt lat="44.08766" lon="6.90562">
        <ele>1424.7</ele>
        <time>2019-07-16T06:37:43Z</time>
      </trkpt>
      <trkpt lat="44.08763" lon="6.90564">
        <ele>1424.9</ele>
        <time>2019-07-16T06:37:45Z</time>
      </trkpt>
      <trkpt lat="44.0876" lon="6.90565">
        <ele>1425.2</ele>
        <time>2019-07-16T06:37:47Z</time>
      </trkpt>
      <trkpt lat="44.08756" lon="6.90566">
        <ele>1425.5</ele>
        <time>2019-07-16T06:37:49Z</time>
      </trkpt>
      <trkpt lat="44.08753" lon="6.90565">
        <ele>1425.9</ele>
        <time>2019-07-16T06:37:51Z</time>
      </trkpt>
      <trkpt lat="44.08749" lon="6.90565">
        <ele>1426.2</ele>
        <time>2019-07-16T06:37:53Z</time>
      </trkpt>
      <trkpt lat="44.08745" lon="6.90565">
        <ele>1426.5</ele>
        <time>2019-07-16T06:37:55Z</time>
      </trkpt>
      <trkpt lat="44.08742" lon="6.90564">
        <ele>1426.8</ele>
        <time>2019-07-16T06:37:57Z</time>
      </trkpt>
      <trkpt lat="44.08739" lon="6.90563">
        <ele>1427.1</ele>
        <time>2019-07-16T06:37:59Z</time>
      </trkpt>
      <trkpt lat="44.08735" lon="6.90562">
        <ele>1427.4</ele>
        <time>2019-07-16T06:38:01Z</time>
      </trkpt>
      <trkpt lat="44.08732" lon="6.90562">
        <ele>1427.7</ele>
        <time>2019-07-16T06:38:03Z</time>
      </trkpt>
      <trkpt lat="44.08729" lon="6.90561">
        <ele>1428</ele>
        <time>2019-07-16T06:38:05Z</time>
      </trkpt>
      <trkpt lat="44.08726" lon="6.90561">
        <ele>1428.2</ele>
        <time>2019-07-16T06:38:07Z</time>
      </trkpt>
      <trkpt lat="44.08723" lon="6.90559">
        <ele>1428.5</ele>
        <time>2019-07-16T06:38:09Z</time>
      </trkpt>
      <trkpt lat="44.08719" lon="6.90558">
        <ele>1428.8</ele>
        <time>2019-07-16T06:38:11Z</time>
      </trkpt>
      <trkpt lat="44.08716" lon="6.90558">
        <ele>1429.1</ele>
        <time>2019-07-16T06:38:13Z</time>
      </trkpt>
      <trkpt lat="44.08712" lon="6.90557">
        <ele>1429.3</ele>
        <time>2019-07-16T06:38:15Z</time>
      </trkpt>
      <trkpt lat="44.08709" lon="6.90557">
        <ele>1429.6</ele>
        <time>2019-07-16T06:38:17Z</time>
      </trkpt>
      <trkpt lat="44.08705" lon="6.90557">
        <ele>1429.9</ele>
        <time>2019-07-16T06:38:19Z</time>
      </trkpt>
      <trkpt lat="44.08701" lon="6.90557">
        <ele>1430.2</ele>
        <time>2019-07-16T06:38:21Z</time>
      </trkpt>
      <trkpt lat="44.08697" lon="6.90558">
        <ele>1430.6</ele>
        <time>2019-07-16T06:38:23Z</time>
      </trkpt>
      <trkpt lat="44.08693" lon="6.90557">
        <ele>1430.9</ele>
        <time>2019-07-16T06:38:25Z</time>
      </trkpt>
      <trkpt lat="44.0869" lon="6.90557">
        <ele>1431.1</ele>
        <time>2019-07-16T06:38:27Z</time>
      </trkpt>
      <trkpt lat="44.08687" lon="6.90557">
        <ele>1431.4</ele>
        <time>2019-07-16T06:38:29Z</time>
      </trkpt>
      <trkpt lat="44.08683" lon="6.90557">
        <ele>1431.7</ele>
        <time>2019-07-16T06:38:31Z</time>
      </trkpt>
      <trkpt lat="44.08679" lon="6.90556">
        <ele>1432</ele>
        <time>2019-07-16T06:38:33Z</time>
      </trkpt>
      <trkpt lat="44.08675" lon="6.90556">
        <ele>1432.3</ele>
        <time>2019-07-16T06:38:35Z</time>
      </trkpt>
      <trkpt lat="44.08672" lon="6.90555">
        <ele>1432.5</ele>
        <time>2019-07-16T06:38:37Z</time>
      </trkpt>
      <trkpt lat="44.08669" lon="6.90555">
        <ele>1432.8</ele>
        <time>2019-07-16T06:38:39Z</time>
      </trkpt>
      <trkpt lat="44.08665" lon="6.90553">
        <ele>1433.1</ele>
        <time>2019-07-16T06:38:41Z</time>
      </trkpt>
      <trkpt lat="44.08662" lon="6.90553">
        <ele>1433.3</ele>
        <time>2019-07-16T06:38:43Z</time>
      </trkpt>
      <trkpt lat="44.08658" lon="6.90552">
        <ele>1433.6</ele>
        <time>2019-07-16T06:38:45Z</time>
      </trkpt>
      <trkpt lat="44.08655" lon="6.90552">
        <ele>1433.8</ele>
        <time>2019-07-16T06:38:47Z</time>
      </trkpt>
      <trkpt lat="44.08651" lon="6.90551">
        <ele>1434.1</ele>
        <time>2019-07-16T06:38:49Z</time>
      </trkpt>
      <trkpt lat="44.08647" lon="6.90552">
        <ele>1434.4</ele>
        <time>2019-07-16T06:38:51Z</time>
      </trkpt>
      <trkpt lat="44.08644" lon="6.90553">
        <ele>1434.7</ele>
        <time>2019-07-16T06:38:53Z</time>
      </trkpt>
      <trkpt lat="44.0864" lon="6.90553">
        <ele>1435</ele>
        <time>2019-07-16T06:38:55Z</time>
      </trkpt>
      <trkpt lat="44.08636" lon="6.90553">
        <ele>1435.2</ele>
        <time>2019-07-16T06:38:57Z</time>
      </trkpt>
      <trkpt lat="44.08632" lon="6.90553">
        <ele>1435.5</ele>
        <time>2019-07-16T06:38:59Z</time>
      </trkpt>
      <trkpt lat="44.08628" lon="6.90554">
        <ele>1435.8</ele>
        <time>2019-07-16T06:39:01Z</time>
      </trkpt>
      <trkpt lat="44.08624" lon="6.90553">
        <ele>1436.1</ele>
        <time>2019-07-16T06:39:03Z</time>
      </trkpt>
      <trkpt lat="44.08621" lon="6.90553">
        <ele>1436.4</ele>
        <time>2019-07-16T06:39:05Z</time>
      </trkpt>
      <trkpt lat="44.08617" lon="6.90552">
        <ele>1436.6</ele>
        <time>2019-07-16T06:39:07Z</time>
      </trkpt>
      <trkpt lat="44.08614" lon="6.90553">
        <ele>1436.9</ele>
        <time>2019-07-16T06:39:09Z</time>
      </trkpt>
      <trkpt lat="44.0861" lon="6.90553">
        <ele>1437</ele>
        <time>2019-07-16T06:39:11Z</time>
      </trkpt>
      <trkpt lat="44.08607" lon="6.90552">
        <ele>1437.2</ele>
        <time>2019-07-16T06:39:13Z</time>
      </trkpt>
      <trkpt lat="44.08603" lon="6.90553">
        <ele>1437.5</ele>
        <time>2019-07-16T06:39:15Z</time>
      </trkpt>
      <trkpt lat="44.086" lon="6.90553">
        <ele>1437.7</ele>
        <time>2019-07-16T06:39:17Z</time>
      </trkpt>
      <trkpt lat="44.08596" lon="6.90555">
        <ele>1438</ele>
        <time>2019-07-16T06:39:19Z</time>
      </trkpt>
      <trkpt lat="44.08592" lon="6.90556">
        <ele>1438.2</ele>
        <time>2019-07-16T06:39:21Z</time>
      </trkpt>
      <trkpt lat="44.08589" lon="6.90557">
        <ele>1438.5</ele>
        <time>2019-07-16T06:39:23Z</time>
      </trkpt>
      <trkpt lat="44.08585" lon="6.90558">
        <ele>1438.7</ele>
        <time>2019-07-16T06:39:25Z</time>
      </trkpt>
      <trkpt lat="44.08582" lon="6.90559">
        <ele>1438.9</ele>
        <time>2019-07-16T06:39:27Z</time>
      </trkpt>
      <trkpt lat="44.08578" lon="6.9056">
        <ele>1439.1</ele>
        <time>2019-07-16T06:39:29Z</time>
      </trkpt>
      <trkpt lat="44.08574" lon="6.90562">
        <ele>1439.4</ele>
        <time>2019-07-16T06:39:31Z</time>
      </trkpt>
      <trkpt lat="44.08571" lon="6.90564">
        <ele>1439.6</ele>
        <time>2019-07-16T06:39:33Z</time>
      </trkpt>
      <trkpt lat="44.08567" lon="6.90567">
        <ele>1439.9</ele>
        <time>2019-07-16T06:39:35Z</time>
      </trkpt>
      <trkpt lat="44.08564" lon="6.9057">
        <ele>1440.1</ele>
        <time>2019-07-16T06:39:37Z</time>
      </trkpt>
      <trkpt lat="44.0856" lon="6.90573">
        <ele>1440.4</ele>
        <time>2019-07-16T06:39:39Z</time>
      </trkpt>
      <trkpt lat="44.08557" lon="6.90576">
        <ele>1440.7</ele>
        <time>2019-07-16T06:39:41Z</time>
      </trkpt>
      <trkpt lat="44.08555" lon="6.9058">
        <ele>1440.9</ele>
        <time>2019-07-16T06:39:43Z</time>
      </trkpt>
      <trkpt lat="44.08552" lon="6.90584">
        <ele>1441.1</ele>
        <time>2019-07-16T06:39:45Z</time>
      </trkpt>
      <trkpt lat="44.08549" lon="6.90587">
        <ele>1441.3</ele>
        <time>2019-07-16T06:39:48Z</time>
      </trkpt>
      <trkpt lat="44.08547" lon="6.90589">
        <ele>1441.5</ele>
        <time>2019-07-16T06:39:52Z</time>
      </trkpt>
      <trkpt lat="44.08546" lon="6.90594">
        <ele>1441.7</ele>
        <time>2019-07-16T06:40:28Z</time>
      </trkpt>
      <trkpt lat="44.08546" lon="6.90598">
        <ele>1441.9</ele>
        <time>2019-07-16T06:40:30Z</time>
      </trkpt>
      <trkpt lat="44.08546" lon="6.90603">
        <ele>1442.2</ele>
        <time>2019-07-16T06:40:32Z</time>
      </trkpt>
      <trkpt lat="44.08545" lon="6.90607">
        <ele>1442.4</ele>
        <time>2019-07-16T06:40:34Z</time>
      </trkpt>
      <trkpt lat="44.08545" lon="6.90612">
        <ele>1442.7</ele>
        <time>2019-07-16T06:40:36Z</time>
      </trkpt>
      <trkpt lat="44.08546" lon="6.90617">
        <ele>1442.9</ele>
        <time>2019-07-16T06:40:38Z</time>
      </trkpt>
      <trkpt lat="44.08545" lon="6.90623">
        <ele>1443.2</ele>
        <time>2019-07-16T06:40:40Z</time>
      </trkpt>
      <trkpt lat="44.08545" lon="6.90628">
        <ele>1443.5</ele>
        <time>2019-07-16T06:40:42Z</time>
      </trkpt>
      <trkpt lat="44.08545" lon="6.90633">
        <ele>1443.8</ele>
        <time>2019-07-16T06:40:44Z</time>
      </trkpt>
      <trkpt lat="44.08545" lon="6.90638">
        <ele>1444.1</ele>
        <time>2019-07-16T06:40:46Z</time>
      </trkpt>
      <trkpt lat="44.08545" lon="6.90644">
        <ele>1444.4</ele>
        <time>2019-07-16T06:40:48Z</time>
      </trkpt>
      <trkpt lat="44.08544" lon="6.90649">
        <ele>1444.7</ele>
        <time>2019-07-16T06:40:50Z</time>
      </trkpt>
      <trkpt lat="44.08544" lon="6.90653">
        <ele>1444.9</ele>
        <time>2019-07-16T06:40:52Z</time>
      </trkpt>
      <trkpt lat="44.08544" lon="6.90659">
        <ele>1445.3</ele>
        <time>2019-07-16T06:40:55Z</time>
      </trkpt>
      <trkpt lat="44.08544" lon="6.90664">
        <ele>1445.6</ele>
        <time>2019-07-16T06:40:57Z</time>
      </trkpt>
      <trkpt lat="44.08545" lon="6.90669">
        <ele>1445.9</ele>
        <time>2019-07-16T06:40:59Z</time>
      </trkpt>
      <trkpt lat="44.08545" lon="6.90674">
        <ele>1446.2</ele>
        <time>2019-07-16T06:41:01Z</time>
      </trkpt>
      <trkpt lat="44.08545" lon="6.9068">
        <ele>1446.6</ele>
        <time>2019-07-16T06:41:03Z</time>
      </trkpt>
      <trkpt lat="44.08545" lon="6.90685">
        <ele>1446.9</ele>
        <time>2019-07-16T06:41:05Z</time>
      </trkpt>
      <trkpt lat="44.08545" lon="6.9069">
        <ele>1447.2</ele>
        <time>2019-07-16T06:41:07Z</time>
      </trkpt>
      <trkpt lat="44.08546" lon="6.90694">
        <ele>1447.5</ele>
        <time>2019-07-16T06:41:09Z</time>
      </trkpt>
      <trkpt lat="44.08546" lon="6.90699">
        <ele>1447.8</ele>
        <time>2019-07-16T06:41:11Z</time>
      </trkpt>
      <trkpt lat="44.08545" lon="6.90704">
        <ele>1448.1</ele>
        <time>2019-07-16T06:41:13Z</time>
      </trkpt>
      <trkpt lat="44.08544" lon="6.9071">
        <ele>1448.5</ele>
        <time>2019-07-16T06:41:16Z</time>
      </trkpt>
      <trkpt lat="44.08543" lon="6.90714">
        <ele>1448.8</ele>
        <time>2019-07-16T06:41:18Z</time>
      </trkpt>
      <trkpt lat="44.08544" lon="6.90719">
        <ele>1449.1</ele>
        <time>2019-07-16T06:41:20Z</time>
      </trkpt>
      <trkpt lat="44.08544" lon="6.90724">
        <ele>1449.4</ele>
        <time>2019-07-16T06:41:22Z</time>
      </trkpt>
      <trkpt lat="44.08544" lon="6.90729">
        <ele>1449.7</ele>
        <time>2019-07-16T06:41:24Z</time>
      </trkpt>
      <trkpt lat="44.08544" lon="6.90734">
        <ele>1450</ele>
        <time>2019-07-16T06:41:26Z</time>
      </trkpt>
      <trkpt lat="44.08543" lon="6.90739">
        <ele>1450.4</ele>
        <time>2019-07-16T06:41:28Z</time>
      </trkpt>
      <trkpt lat="44.08543" lon="6.90744">
        <ele>1450.7</ele>
        <time>2019-07-16T06:41:30Z</time>
      </trkpt>
      <trkpt lat="44.08543" lon="6.90749">
        <ele>1450.9</ele>
        <time>2019-07-16T06:41:32Z</time>
      </trkpt>
      <trkpt lat="44.08543" lon="6.90754">
        <ele>1451.3</ele>
        <time>2019-07-16T06:41:34Z</time>
      </trkpt>
      <trkpt lat="44.08543" lon="6.90759">
        <ele>1451.5</ele>
        <time>2019-07-16T06:41:36Z</time>
      </trkpt>
      <trkpt lat="44.08544" lon="6.90763">
        <ele>1451.8</ele>
        <time>2019-07-16T06:41:38Z</time>
      </trkpt>
      <trkpt lat="44.08544" lon="6.90768">
        <ele>1452.1</ele>
        <time>2019-07-16T06:41:40Z</time>
      </trkpt>
      <trkpt lat="44.08544" lon="6.90773">
        <ele>1452.4</ele>
        <time>2019-07-16T06:41:42Z</time>
      </trkpt>
      <trkpt lat="44.08544" lon="6.90778">
        <ele>1452.7</ele>
        <time>2019-07-16T06:41:44Z</time>
      </trkpt>
      <trkpt lat="44.08544" lon="6.90782">
        <ele>1453</ele>
        <time>2019-07-16T06:41:46Z</time>
      </trkpt>
      <trkpt lat="44.08545" lon="6.90787">
        <ele>1453.3</ele>
        <time>2019-07-16T06:41:48Z</time>
      </trkpt>
      <trkpt lat="44.08545" lon="6.90792">
        <ele>1453.6</ele>
        <time>2019-07-16T06:41:50Z</time>
      </trkpt>
      <trkpt lat="44.08545" lon="6.90796">
        <ele>1453.9</ele>
        <time>2019-07-16T06:41:52Z</time>
      </trkpt>
      <trkpt lat="44.08547" lon="6.90801">
        <ele>1454.2</ele>
        <time>2019-07-16T06:41:54Z</time>
      </trkpt>
      <trkpt lat="44.08548" lon="6.90806">
        <ele>1454.5</ele>
        <time>2019-07-16T06:41:56Z</time>
      </trkpt>
      <trkpt lat="44.08547" lon="6.90812">
        <ele>1454.9</ele>
        <time>2019-07-16T06:41:59Z</time>
      </trkpt>
      <trkpt lat="44.08548" lon="6.90816">
        <ele>1455.2</ele>
        <time>2019-07-16T06:42:01Z</time>
      </trkpt>
      <trkpt lat="44.08548" lon="6.90821">
        <ele>1455.5</ele>
        <time>2019-07-16T06:42:03Z</time>
      </trkpt>
      <trkpt lat="44.08549" lon="6.90826">
        <ele>1455.8</ele>
        <time>2019-07-16T06:42:05Z</time>
      </trkpt>
      <trkpt lat="44.08549" lon="6.9083">
        <ele>1456.1</ele>
        <time>2019-07-16T06:42:07Z</time>
      </trkpt>
      <trkpt lat="44.08549" lon="6.90836">
        <ele>1456.4</ele>
        <time>2019-07-16T06:42:09Z</time>
      </trkpt>
      <trkpt lat="44.08549" lon="6.9084">
        <ele>1456.7</ele>
        <time>2019-07-16T06:42:11Z</time>
      </trkpt>
      <trkpt lat="44.08548" lon="6.90845">
        <ele>1457</ele>
        <time>2019-07-16T06:42:14Z</time>
      </trkpt>
      <trkpt lat="44.08547" lon="6.90851">
        <ele>1457.4</ele>
        <time>2019-07-16T06:42:16Z</time>
      </trkpt>
      <trkpt lat="44.08546" lon="6.90855">
        <ele>1457.7</ele>
        <time>2019-07-16T06:42:18Z</time>
      </trkpt>
      <trkpt lat="44.08544" lon="6.90859">
        <ele>1457.9</ele>
        <time>2019-07-16T06:42:20Z</time>
      </trkpt>
      <trkpt lat="44.08541" lon="6.90861">
        <ele>1458.2</ele>
        <time>2019-07-16T06:42:23Z</time>
      </trkpt>
      <trkpt lat="44.08538" lon="6.90863">
        <ele>1458.5</ele>
        <time>2019-07-16T06:42:25Z</time>
      </trkpt>
      <trkpt lat="44.08535" lon="6.90865">
        <ele>1458.8</ele>
        <time>2019-07-16T06:42:27Z</time>
      </trkpt>
      <trkpt lat="44.08532" lon="6.90866">
        <ele>1459</ele>
        <time>2019-07-16T06:42:29Z</time>
      </trkpt>
      <trkpt lat="44.08529" lon="6.90866">
        <ele>1459.2</ele>
        <time>2019-07-16T06:42:31Z</time>
      </trkpt>
      <trkpt lat="44.08526" lon="6.90865">
        <ele>1459.5</ele>
        <time>2019-07-16T06:42:33Z</time>
      </trkpt>
      <trkpt lat="44.08524" lon="6.90864">
        <ele>1459.7</ele>
        <time>2019-07-16T06:42:35Z</time>
      </trkpt>
      <trkpt lat="44.0852" lon="6.90863">
        <ele>1460</ele>
        <time>2019-07-16T06:42:37Z</time>
      </trkpt>
      <trkpt lat="44.08517" lon="6.90861">
        <ele>1460.3</ele>
        <time>2019-07-16T06:42:39Z</time>
      </trkpt>
      <trkpt lat="44.08513" lon="6.9086">
        <ele>1460.6</ele>
        <time>2019-07-16T06:42:42Z</time>
      </trkpt>
      <trkpt lat="44.0851" lon="6.90859">
        <ele>1460.9</ele>
        <time>2019-07-16T06:42:45Z</time>
      </trkpt>
      <trkpt lat="44.08506" lon="6.90856">
        <ele>1461.2</ele>
        <time>2019-07-16T06:42:48Z</time>
      </trkpt>
      <trkpt lat="44.08503" lon="6.90854">
        <ele>1461.5</ele>
        <time>2019-07-16T06:42:50Z</time>
      </trkpt>
      <trkpt lat="44.08501" lon="6.90852">
        <ele>1461.8</ele>
        <time>2019-07-16T06:42:52Z</time>
      </trkpt>
      <trkpt lat="44.08498" lon="6.9085">
        <ele>1462</ele>
        <time>2019-07-16T06:42:54Z</time>
      </trkpt>
      <trkpt lat="44.08494" lon="6.90847">
        <ele>1462.4</ele>
        <time>2019-07-16T06:42:57Z</time>
      </trkpt>
      <trkpt lat="44.08492" lon="6.90844">
        <ele>1462.6</ele>
        <time>2019-07-16T06:42:59Z</time>
      </trkpt>
      <trkpt lat="44.08488" lon="6.90843">
        <ele>1462.9</ele>
        <time>2019-07-16T06:43:01Z</time>
      </trkpt>
      <trkpt lat="44.08486" lon="6.90839">
        <ele>1463.2</ele>
        <time>2019-07-16T06:43:03Z</time>
      </trkpt>
      <trkpt lat="44.08483" lon="6.90837">
        <ele>1463.4</ele>
        <time>2019-07-16T06:43:05Z</time>
      </trkpt>
      <trkpt lat="44.0848" lon="6.90835">
        <ele>1463.7</ele>
        <time>2019-07-16T06:43:07Z</time>
      </trkpt>
      <trkpt lat="44.08477" lon="6.90832">
        <ele>1464</ele>
        <time>2019-07-16T06:43:09Z</time>
      </trkpt>
      <trkpt lat="44.08474" lon="6.90829">
        <ele>1464.3</ele>
        <time>2019-07-16T06:43:11Z</time>
      </trkpt>
      <trkpt lat="44.08471" lon="6.90827">
        <ele>1464.6</ele>
        <time>2019-07-16T06:43:13Z</time>
      </trkpt>
      <trkpt lat="44.08468" lon="6.90824">
        <ele>1464.9</ele>
        <time>2019-07-16T06:43:15Z</time>
      </trkpt>
      <trkpt lat="44.08464" lon="6.90822">
        <ele>1465.3</ele>
        <time>2019-07-16T06:43:17Z</time>
      </trkpt>
      <trkpt lat="44.08462" lon="6.90819">
        <ele>1465.6</ele>
        <time>2019-07-16T06:43:19Z</time>
      </trkpt>
      <trkpt lat="44.08458" lon="6.90817">
        <ele>1465.9</ele>
        <time>2019-07-16T06:43:21Z</time>
      </trkpt>
      <trkpt lat="44.08455" lon="6.90815">
        <ele>1466.2</ele>
        <time>2019-07-16T06:43:23Z</time>
      </trkpt>
      <trkpt lat="44.08452" lon="6.90814">
        <ele>1466.5</ele>
        <time>2019-07-16T06:43:25Z</time>
      </trkpt>
      <trkpt lat="44.08449" lon="6.90812">
        <ele>1466.7</ele>
        <time>2019-07-16T06:43:27Z</time>
      </trkpt>
      <trkpt lat="44.08446" lon="6.90811">
        <ele>1467</ele>
        <time>2019-07-16T06:43:29Z</time>
      </trkpt>
      <trkpt lat="44.08443" lon="6.90811">
        <ele>1467.3</ele>
        <time>2019-07-16T06:43:31Z</time>
      </trkpt>
      <trkpt lat="44.08439" lon="6.9081">
        <ele>1467.6</ele>
        <time>2019-07-16T06:43:33Z</time>
      </trkpt>
      <trkpt lat="44.08435" lon="6.90809">
        <ele>1468</ele>
        <time>2019-07-16T06:43:35Z</time>
      </trkpt>
      <trkpt lat="44.08431" lon="6.90809">
        <ele>1468.3</ele>
        <time>2019-07-16T06:43:37Z</time>
      </trkpt>
      <trkpt lat="44.08427" lon="6.90808">
        <ele>1468.6</ele>
        <time>2019-07-16T06:43:39Z</time>
      </trkpt>
      <trkpt lat="44.08424" lon="6.90808">
        <ele>1468.9</ele>
        <time>2019-07-16T06:43:41Z</time>
      </trkpt>
      <trkpt lat="44.0842" lon="6.90808">
        <ele>1469.2</ele>
        <time>2019-07-16T06:43:43Z</time>
      </trkpt>
      <trkpt lat="44.08416" lon="6.90807">
        <ele>1469.5</ele>
        <time>2019-07-16T06:43:45Z</time>
      </trkpt>
      <trkpt lat="44.08412" lon="6.90808">
        <ele>1469.8</ele>
        <time>2019-07-16T06:43:47Z</time>
      </trkpt>
      <trkpt lat="44.08408" lon="6.90807">
        <ele>1470.1</ele>
        <time>2019-07-16T06:43:49Z</time>
      </trkpt>
      <trkpt lat="44.08404" lon="6.90806">
        <ele>1470.3</ele>
        <time>2019-07-16T06:43:51Z</time>
      </trkpt>
      <trkpt lat="44.084" lon="6.90806">
        <ele>1470.6</ele>
        <time>2019-07-16T06:43:53Z</time>
      </trkpt>
      <trkpt lat="44.08397" lon="6.90806">
        <ele>1470.9</ele>
        <time>2019-07-16T06:43:55Z</time>
      </trkpt>
      <trkpt lat="44.08394" lon="6.90806">
        <ele>1471.1</ele>
        <time>2019-07-16T06:43:57Z</time>
      </trkpt>
      <trkpt lat="44.0839" lon="6.90806">
        <ele>1471.4</ele>
        <time>2019-07-16T06:43:59Z</time>
      </trkpt>
      <trkpt lat="44.08387" lon="6.90807">
        <ele>1471.6</ele>
        <time>2019-07-16T06:44:01Z</time>
      </trkpt>
      <trkpt lat="44.08383" lon="6.90808">
        <ele>1471.8</ele>
        <time>2019-07-16T06:44:03Z</time>
      </trkpt>
      <trkpt lat="44.08379" lon="6.90807">
        <ele>1472</ele>
        <time>2019-07-16T06:44:05Z</time>
      </trkpt>
      <trkpt lat="44.08376" lon="6.90807">
        <ele>1472.3</ele>
        <time>2019-07-16T06:44:07Z</time>
      </trkpt>
      <trkpt lat="44.08372" lon="6.90807">
        <ele>1472.5</ele>
        <time>2019-07-16T06:44:09Z</time>
      </trkpt>
      <trkpt lat="44.08368" lon="6.90807">
        <ele>1472.7</ele>
        <time>2019-07-16T06:44:11Z</time>
      </trkpt>
      <trkpt lat="44.08364" lon="6.90809">
        <ele>1472.9</ele>
        <time>2019-07-16T06:44:13Z</time>
      </trkpt>
      <trkpt lat="44.08361" lon="6.90813">
        <ele>1473.2</ele>
        <time>2019-07-16T06:44:15Z</time>
      </trkpt>
      <trkpt lat="44.08359" lon="6.90817">
        <ele>1473.4</ele>
        <time>2019-07-16T06:44:17Z</time>
      </trkpt>
      <trkpt lat="44.08358" lon="6.90821">
        <ele>1473.5</ele>
        <time>2019-07-16T06:44:19Z</time>
      </trkpt>
      <trkpt lat="44.08356" lon="6.90825">
        <ele>1473.7</ele>
        <time>2019-07-16T06:44:23Z</time>
      </trkpt>
      <trkpt lat="44.08357" lon="6.90829">
        <ele>1473.9</ele>
        <time>2019-07-16T06:45:45Z</time>
      </trkpt>
      <trkpt lat="44.0836" lon="6.90833">
        <ele>1474.1</ele>
        <time>2019-07-16T06:45:47Z</time>
      </trkpt>
      <trkpt lat="44.08362" lon="6.90837">
        <ele>1474.4</ele>
        <time>2019-07-16T06:45:49Z</time>
      </trkpt>
      <trkpt lat="44.08365" lon="6.9084">
        <ele>1474.6</ele>
        <time>2019-07-16T06:45:51Z</time>
      </trkpt>
      <trkpt lat="44.0837" lon="6.90842">
        <ele>1475</ele>
        <time>2019-07-16T06:45:53Z</time>
      </trkpt>
      <trkpt lat="44.08374" lon="6.90841">
        <ele>1475.3</ele>
        <time>2019-07-16T06:45:55Z</time>
      </trkpt>
      <trkpt lat="44.08379" lon="6.90839">
        <ele>1475.6</ele>
        <time>2019-07-16T06:45:57Z</time>
      </trkpt>
      <trkpt lat="44.08383" lon="6.90838">
        <ele>1475.9</ele>
        <time>2019-07-16T06:45:59Z</time>
      </trkpt>
      <trkpt lat="44.08386" lon="6.90836">
        <ele>1476.2</ele>
        <time>2019-07-16T06:46:01Z</time>
      </trkpt>
      <trkpt lat="44.0839" lon="6.90835">
        <ele>1476.4</ele>
        <time>2019-07-16T06:46:03Z</time>
      </trkpt>
      <trkpt lat="44.08393" lon="6.90834">
        <ele>1476.6</ele>
        <time>2019-07-16T06:46:05Z</time>
      </trkpt>
      <trkpt lat="44.08396" lon="6.90833">
        <ele>1476.8</ele>
        <time>2019-07-16T06:46:07Z</time>
      </trkpt>
      <trkpt lat="44.084" lon="6.90832">
        <ele>1477</ele>
        <time>2019-07-16T06:46:09Z</time>
      </trkpt>
      <trkpt lat="44.08403" lon="6.90831">
        <ele>1477.2</ele>
        <time>2019-07-16T06:46:11Z</time>
      </trkpt>
      <trkpt lat="44.08407" lon="6.90831">
        <ele>1477.4</ele>
        <time>2019-07-16T06:46:13Z</time>
      </trkpt>
      <trkpt lat="44.08411" lon="6.90832">
        <ele>1477.6</ele>
        <time>2019-07-16T06:46:15Z</time>
      </trkpt>
      <trkpt lat="44.08414" lon="6.90833">
        <ele>1477.8</ele>
        <time>2019-07-16T06:46:17Z</time>
      </trkpt>
      <trkpt lat="44.08418" lon="6.90835">
        <ele>1478</ele>
        <time>2019-07-16T06:46:19Z</time>
      </trkpt>
      <trkpt lat="44.08422" lon="6.90836">
        <ele>1478.2</ele>
        <time>2019-07-16T06:46:21Z</time>
      </trkpt>
      <trkpt lat="44.08425" lon="6.90838">
        <ele>1478.4</ele>
        <time>2019-07-16T06:46:23Z</time>
      </trkpt>
      <trkpt lat="44.08428" lon="6.9084">
        <ele>1478.6</ele>
        <time>2019-07-16T06:46:25Z</time>
      </trkpt>
      <trkpt lat="44.08431" lon="6.90842">
        <ele>1478.8</ele>
        <time>2019-07-16T06:46:27Z</time>
      </trkpt>
      <trkpt lat="44.08433" lon="6.90844">
        <ele>1479</ele>
        <time>2019-07-16T06:46:29Z</time>
      </trkpt>
      <trkpt lat="44.08436" lon="6.90847">
        <ele>1479.2</ele>
        <time>2019-07-16T06:46:31Z</time>
      </trkpt>
      <trkpt lat="44.08439" lon="6.90849">
        <ele>1479.4</ele>
        <time>2019-07-16T06:46:33Z</time>
      </trkpt>
      <trkpt lat="44.08442" lon="6.90852">
        <ele>1479.7</ele>
        <time>2019-07-16T06:46:35Z</time>
      </trkpt>
      <trkpt lat="44.08444" lon="6.90855">
        <ele>1479.9</ele>
        <time>2019-07-16T06:46:37Z</time>
      </trkpt>
      <trkpt lat="44.08446" lon="6.90858">
        <ele>1480.1</ele>
        <time>2019-07-16T06:46:39Z</time>
      </trkpt>
      <trkpt lat="44.08448" lon="6.90862">
        <ele>1480.3</ele>
        <time>2019-07-16T06:46:41Z</time>
      </trkpt>
      <trkpt lat="44.08451" lon="6.90865">
        <ele>1480.6</ele>
        <time>2019-07-16T06:46:44Z</time>
      </trkpt>
      <trkpt lat="44.08453" lon="6.90869">
        <ele>1481</ele>
        <time>2019-07-16T06:46:47Z</time>
      </trkpt>
      <trkpt lat="44.08455" lon="6.90873">
        <ele>1481.2</ele>
        <time>2019-07-16T06:46:49Z</time>
      </trkpt>
      <trkpt lat="44.08457" lon="6.90878">
        <ele>1481.5</ele>
        <time>2019-07-16T06:46:52Z</time>
      </trkpt>
      <trkpt lat="44.08459" lon="6.90882">
        <ele>1481.8</ele>
        <time>2019-07-16T06:46:55Z</time>
      </trkpt>
      <trkpt lat="44.08461" lon="6.90885">
        <ele>1482.1</ele>
        <time>2019-07-16T06:46:57Z</time>
      </trkpt>
      <trkpt lat="44.08463" lon="6.90889">
        <ele>1482.4</ele>
        <time>2019-07-16T06:46:59Z</time>
      </trkpt>
      <trkpt lat="44.08465" lon="6.90893">
        <ele>1482.7</ele>
        <time>2019-07-16T06:47:01Z</time>
      </trkpt>
      <trkpt lat="44.08465" lon="6.90897">
        <ele>1482.9</ele>
        <time>2019-07-16T06:47:03Z</time>
      </trkpt>
      <trkpt lat="44.08465" lon="6.90903">
        <ele>1483.3</ele>
        <time>2019-07-16T06:47:06Z</time>
      </trkpt>
      <trkpt lat="44.08467" lon="6.90907">
        <ele>1483.5</ele>
        <time>2019-07-16T06:47:08Z</time>
      </trkpt>
      <trkpt lat="44.08468" lon="6.90912">
        <ele>1483.9</ele>
        <time>2019-07-16T06:47:10Z</time>
      </trkpt>
      <trkpt lat="44.08469" lon="6.90916">
        <ele>1484.2</ele>
        <time>2019-07-16T06:47:12Z</time>
      </trkpt>
      <trkpt lat="44.08471" lon="6.9092">
        <ele>1484.5</ele>
        <time>2019-07-16T06:47:14Z</time>
      </trkpt>
      <trkpt lat="44.08473" lon="6.90924">
        <ele>1484.8</ele>
        <time>2019-07-16T06:47:16Z</time>
      </trkpt>
      <trkpt lat="44.08475" lon="6.90928">
        <ele>1485.1</ele>
        <time>2019-07-16T06:47:19Z</time>
      </trkpt>
      <trkpt lat="44.08478" lon="6.9093">
        <ele>1485.4</ele>
        <time>2019-07-16T06:47:21Z</time>
      </trkpt>
      <trkpt lat="44.0848" lon="6.90932">
        <ele>1485.7</ele>
        <time>2019-07-16T06:47:23Z</time>
      </trkpt>
      <trkpt lat="44.08483" lon="6.90934">
        <ele>1486</ele>
        <time>2019-07-16T06:47:25Z</time>
      </trkpt>
      <trkpt lat="44.08486" lon="6.90936">
        <ele>1486.3</ele>
        <time>2019-07-16T06:47:27Z</time>
      </trkpt>
      <trkpt lat="44.0849" lon="6.90938">
        <ele>1486.7</ele>
        <time>2019-07-16T06:47:29Z</time>
      </trkpt>
      <trkpt lat="44.08492" lon="6.9094">
        <ele>1487</ele>
        <time>2019-07-16T06:47:31Z</time>
      </trkpt>
      <trkpt lat="44.08496" lon="6.90942">
        <ele>1487.3</ele>
        <time>2019-07-16T06:47:33Z</time>
      </trkpt>
      <trkpt lat="44.08499" lon="6.90944">
        <ele>1487.7</ele>
        <time>2019-07-16T06:47:35Z</time>
      </trkpt>
      <trkpt lat="44.08503" lon="6.90946">
        <ele>1488.1</ele>
        <time>2019-07-16T06:47:37Z</time>
      </trkpt>
      <trkpt lat="44.08506" lon="6.90948">
        <ele>1488.4</ele>
        <time>2019-07-16T06:47:39Z</time>
      </trkpt>
      <trkpt lat="44.08509" lon="6.9095">
        <ele>1488.8</ele>
        <time>2019-07-16T06:47:41Z</time>
      </trkpt>
      <trkpt lat="44.08512" lon="6.90953">
        <ele>1489.1</ele>
        <time>2019-07-16T06:47:43Z</time>
      </trkpt>
      <trkpt lat="44.08516" lon="6.90955">
        <ele>1489.5</ele>
        <time>2019-07-16T06:47:46Z</time>
      </trkpt>
      <trkpt lat="44.08519" lon="6.90957">
        <ele>1489.8</ele>
        <time>2019-07-16T06:47:48Z</time>
      </trkpt>
      <trkpt lat="44.08521" lon="6.9096">
        <ele>1490.1</ele>
        <time>2019-07-16T06:47:50Z</time>
      </trkpt>
      <trkpt lat="44.08524" lon="6.90962">
        <ele>1490.4</ele>
        <time>2019-07-16T06:47:52Z</time>
      </trkpt>
      <trkpt lat="44.08526" lon="6.90965">
        <ele>1490.7</ele>
        <time>2019-07-16T06:47:54Z</time>
      </trkpt>
      <trkpt lat="44.08529" lon="6.90968">
        <ele>1491.1</ele>
        <time>2019-07-16T06:47:56Z</time>
      </trkpt>
      <trkpt lat="44.08531" lon="6.9097">
        <ele>1491.4</ele>
        <time>2019-07-16T06:47:58Z</time>
      </trkpt>
      <trkpt lat="44.08534" lon="6.90974">
        <ele>1491.8</ele>
        <time>2019-07-16T06:48:01Z</time>
      </trkpt>
      <trkpt lat="44.08537" lon="6.90977">
        <ele>1492.1</ele>
        <time>2019-07-16T06:48:03Z</time>
      </trkpt>
      <trkpt lat="44.08541" lon="6.9098">
        <ele>1492.6</ele>
        <time>2019-07-16T06:48:06Z</time>
      </trkpt>
      <trkpt lat="44.08544" lon="6.90982">
        <ele>1492.9</ele>
        <time>2019-07-16T06:48:08Z</time>
      </trkpt>
      <trkpt lat="44.08547" lon="6.90983">
        <ele>1493.2</ele>
        <time>2019-07-16T06:48:10Z</time>
      </trkpt>
      <trkpt lat="44.0855" lon="6.90984">
        <ele>1493.5</ele>
        <time>2019-07-16T06:48:12Z</time>
      </trkpt>
      <trkpt lat="44.08553" lon="6.90984">
        <ele>1493.8</ele>
        <time>2019-07-16T06:48:14Z</time>
      </trkpt>
      <trkpt lat="44.08557" lon="6.90984">
        <ele>1494.2</ele>
        <time>2019-07-16T06:48:17Z</time>
      </trkpt>
      <trkpt lat="44.08559" lon="6.90984">
        <ele>1494.5</ele>
        <time>2019-07-16T06:48:19Z</time>
      </trkpt>
      <trkpt lat="44.08562" lon="6.90983">
        <ele>1494.8</ele>
        <time>2019-07-16T06:48:21Z</time>
      </trkpt>
      <trkpt lat="44.08566" lon="6.90983">
        <ele>1495.1</ele>
        <time>2019-07-16T06:48:23Z</time>
      </trkpt>
      <trkpt lat="44.08569" lon="6.90982">
        <ele>1495.4</ele>
        <time>2019-07-16T06:48:25Z</time>
      </trkpt>
      <trkpt lat="44.08572" lon="6.90982">
        <ele>1495.7</ele>
        <time>2019-07-16T06:48:27Z</time>
      </trkpt>
      <trkpt lat="44.08576" lon="6.90983">
        <ele>1496</ele>
        <time>2019-07-16T06:48:29Z</time>
      </trkpt>
      <trkpt lat="44.08579" lon="6.90982">
        <ele>1496.4</ele>
        <time>2019-07-16T06:48:31Z</time>
      </trkpt>
      <trkpt lat="44.08582" lon="6.90982">
        <ele>1496.6</ele>
        <time>2019-07-16T06:48:33Z</time>
      </trkpt>
      <trkpt lat="44.08585" lon="6.90981">
        <ele>1496.9</ele>
        <time>2019-07-16T06:48:35Z</time>
      </trkpt>
      <trkpt lat="44.08589" lon="6.90981">
        <ele>1497.3</ele>
        <time>2019-07-16T06:48:37Z</time>
      </trkpt>
      <trkpt lat="44.08593" lon="6.90981">
        <ele>1497.6</ele>
        <time>2019-07-16T06:48:39Z</time>
      </trkpt>
      <trkpt lat="44.08596" lon="6.90981">
        <ele>1497.9</ele>
        <time>2019-07-16T06:48:41Z</time>
      </trkpt>
      <trkpt lat="44.086" lon="6.90983">
        <ele>1498.2</ele>
        <time>2019-07-16T06:48:43Z</time>
      </trkpt>
      <trkpt lat="44.08604" lon="6.90983">
        <ele>1498.5</ele>
        <time>2019-07-16T06:48:45Z</time>
      </trkpt>
      <trkpt lat="44.08607" lon="6.90984">
        <ele>1498.8</ele>
        <time>2019-07-16T06:48:47Z</time>
      </trkpt>
      <trkpt lat="44.0861" lon="6.90984">
        <ele>1499</ele>
        <time>2019-07-16T06:48:49Z</time>
      </trkpt>
      <trkpt lat="44.08613" lon="6.90984">
        <ele>1499.3</ele>
        <time>2019-07-16T06:48:51Z</time>
      </trkpt>
      <trkpt lat="44.08616" lon="6.90984">
        <ele>1499.5</ele>
        <time>2019-07-16T06:48:53Z</time>
      </trkpt>
      <trkpt lat="44.0862" lon="6.90985">
        <ele>1499.8</ele>
        <time>2019-07-16T06:48:55Z</time>
      </trkpt>
      <trkpt lat="44.08623" lon="6.90985">
        <ele>1500.1</ele>
        <time>2019-07-16T06:48:57Z</time>
      </trkpt>
      <trkpt lat="44.08627" lon="6.90984">
        <ele>1500.4</ele>
        <time>2019-07-16T06:48:59Z</time>
      </trkpt>
      <trkpt lat="44.08631" lon="6.90984">
        <ele>1500.7</ele>
        <time>2019-07-16T06:49:01Z</time>
      </trkpt>
      <trkpt lat="44.08634" lon="6.90985">
        <ele>1500.9</ele>
        <time>2019-07-16T06:49:03Z</time>
      </trkpt>
      <trkpt lat="44.08638" lon="6.90987">
        <ele>1501.1</ele>
        <time>2019-07-16T06:49:05Z</time>
      </trkpt>
      <trkpt lat="44.08642" lon="6.90987">
        <ele>1501.4</ele>
        <time>2019-07-16T06:49:07Z</time>
      </trkpt>
      <trkpt lat="44.08644" lon="6.90987">
        <ele>1501.6</ele>
        <time>2019-07-16T06:49:09Z</time>
      </trkpt>
      <trkpt lat="44.08647" lon="6.90988">
        <ele>1501.8</ele>
        <time>2019-07-16T06:49:11Z</time>
      </trkpt>
      <trkpt lat="44.08651" lon="6.90988">
        <ele>1502.1</ele>
        <time>2019-07-16T06:49:13Z</time>
      </trkpt>
      <trkpt lat="44.08655" lon="6.90988">
        <ele>1502.3</ele>
        <time>2019-07-16T06:49:15Z</time>
      </trkpt>
      <trkpt lat="44.08659" lon="6.90988">
        <ele>1502.6</ele>
        <time>2019-07-16T06:49:17Z</time>
      </trkpt>
      <trkpt lat="44.08663" lon="6.90988">
        <ele>1502.9</ele>
        <time>2019-07-16T06:49:20Z</time>
      </trkpt>
      <trkpt lat="44.08666" lon="6.90988">
        <ele>1503.1</ele>
        <time>2019-07-16T06:49:22Z</time>
      </trkpt>
      <trkpt lat="44.0867" lon="6.90989">
        <ele>1503.3</ele>
        <time>2019-07-16T06:49:24Z</time>
      </trkpt>
      <trkpt lat="44.08673" lon="6.90991">
        <ele>1503.5</ele>
        <time>2019-07-16T06:49:26Z</time>
      </trkpt>
      <trkpt lat="44.08677" lon="6.90992">
        <ele>1503.7</ele>
        <time>2019-07-16T06:49:29Z</time>
      </trkpt>
      <trkpt lat="44.08681" lon="6.90994">
        <ele>1504</ele>
        <time>2019-07-16T06:49:31Z</time>
      </trkpt>
      <trkpt lat="44.08684" lon="6.90996">
        <ele>1504.2</ele>
        <time>2019-07-16T06:49:33Z</time>
      </trkpt>
      <trkpt lat="44.08687" lon="6.90997">
        <ele>1504.4</ele>
        <time>2019-07-16T06:49:35Z</time>
      </trkpt>
      <trkpt lat="44.08689" lon="6.90999">
        <ele>1504.6</ele>
        <time>2019-07-16T06:49:37Z</time>
      </trkpt>
      <trkpt lat="44.08691" lon="6.91001">
        <ele>1504.8</ele>
        <time>2019-07-16T06:49:39Z</time>
      </trkpt>
      <trkpt lat="44.08694" lon="6.91005">
        <ele>1505.3</ele>
        <time>2019-07-16T06:49:42Z</time>
      </trkpt>
      <trkpt lat="44.08696" lon="6.91008">
        <ele>1505.7</ele>
        <time>2019-07-16T06:49:44Z</time>
      </trkpt>
      <trkpt lat="44.08698" lon="6.91011">
        <ele>1506</ele>
        <time>2019-07-16T06:49:46Z</time>
      </trkpt>
      <trkpt lat="44.087" lon="6.91014">
        <ele>1506.4</ele>
        <time>2019-07-16T06:49:48Z</time>
      </trkpt>
      <trkpt lat="44.08702" lon="6.91017">
        <ele>1506.7</ele>
        <time>2019-07-16T06:49:50Z</time>
      </trkpt>
      <trkpt lat="44.08704" lon="6.9102">
        <ele>1507</ele>
        <time>2019-07-16T06:49:52Z</time>
      </trkpt>
      <trkpt lat="44.08706" lon="6.91024">
        <ele>1507.3</ele>
        <time>2019-07-16T06:49:55Z</time>
      </trkpt>
      <trkpt lat="44.08708" lon="6.91027">
        <ele>1507.6</ele>
        <time>2019-07-16T06:49:57Z</time>
      </trkpt>
      <trkpt lat="44.0871" lon="6.91031">
        <ele>1507.9</ele>
        <time>2019-07-16T06:49:59Z</time>
      </trkpt>
      <trkpt lat="44.08713" lon="6.91034">
        <ele>1508.3</ele>
        <time>2019-07-16T06:50:01Z</time>
      </trkpt>
      <trkpt lat="44.08715" lon="6.91038">
        <ele>1508.6</ele>
        <time>2019-07-16T06:50:03Z</time>
      </trkpt>
      <trkpt lat="44.08717" lon="6.91042">
        <ele>1509</ele>
        <time>2019-07-16T06:50:05Z</time>
      </trkpt>
      <trkpt lat="44.0872" lon="6.91046">
        <ele>1509.5</ele>
        <time>2019-07-16T06:50:08Z</time>
      </trkpt>
      <trkpt lat="44.08722" lon="6.91049">
        <ele>1509.9</ele>
        <time>2019-07-16T06:50:11Z</time>
      </trkpt>
      <trkpt lat="44.08724" lon="6.91051">
        <ele>1510.2</ele>
        <time>2019-07-16T06:50:14Z</time>
      </trkpt>
      <trkpt lat="44.08726" lon="6.91056">
        <ele>1510.7</ele>
        <time>2019-07-16T06:50:17Z</time>
      </trkpt>
      <trkpt lat="44.0873" lon="6.91059">
        <ele>1511.1</ele>
        <time>2019-07-16T06:50:20Z</time>
      </trkpt>
      <trkpt lat="44.08733" lon="6.91062">
        <ele>1511.5</ele>
        <time>2019-07-16T06:50:23Z</time>
      </trkpt>
      <trkpt lat="44.08736" lon="6.91066">
        <ele>1512</ele>
        <time>2019-07-16T06:50:25Z</time>
      </trkpt>
      <trkpt lat="44.0874" lon="6.91069">
        <ele>1512.5</ele>
        <time>2019-07-16T06:50:27Z</time>
      </trkpt>
      <trkpt lat="44.08744" lon="6.91071">
        <ele>1513</ele>
        <time>2019-07-16T06:50:29Z</time>
      </trkpt>
      <trkpt lat="44.08748" lon="6.91074">
        <ele>1513.4</ele>
        <time>2019-07-16T06:50:31Z</time>
      </trkpt>
      <trkpt lat="44.08751" lon="6.91077">
        <ele>1513.8</ele>
        <time>2019-07-16T06:50:33Z</time>
      </trkpt>
      <trkpt lat="44.08755" lon="6.91079">
        <ele>1514.2</ele>
        <time>2019-07-16T06:50:35Z</time>
      </trkpt>
      <trkpt lat="44.08758" lon="6.91082">
        <ele>1514.6</ele>
        <time>2019-07-16T06:50:37Z</time>
      </trkpt>
      <trkpt lat="44.08761" lon="6.91084">
        <ele>1514.9</ele>
        <time>2019-07-16T06:50:39Z</time>
      </trkpt>
      <trkpt lat="44.08764" lon="6.91086">
        <ele>1515.1</ele>
        <time>2019-07-16T06:50:41Z</time>
      </trkpt>
      <trkpt lat="44.08768" lon="6.91088">
        <ele>1515.4</ele>
        <time>2019-07-16T06:50:43Z</time>
      </trkpt>
      <trkpt lat="44.0877" lon="6.91089">
        <ele>1515.7</ele>
        <time>2019-07-16T06:50:45Z</time>
      </trkpt>
      <trkpt lat="44.08774" lon="6.91091">
        <ele>1516</ele>
        <time>2019-07-16T06:50:47Z</time>
      </trkpt>
      <trkpt lat="44.08778" lon="6.91092">
        <ele>1516.3</ele>
        <time>2019-07-16T06:50:49Z</time>
      </trkpt>
      <trkpt lat="44.08781" lon="6.91093">
        <ele>1516.5</ele>
        <time>2019-07-16T06:50:51Z</time>
      </trkpt>
      <trkpt lat="44.08784" lon="6.91096">
        <ele>1516.8</ele>
        <time>2019-07-16T06:50:53Z</time>
      </trkpt>
      <trkpt lat="44.08788" lon="6.91097">
        <ele>1517</ele>
        <time>2019-07-16T06:50:55Z</time>
      </trkpt>
      <trkpt lat="44.08791" lon="6.91099">
        <ele>1517.1</ele>
        <time>2019-07-16T06:50:57Z</time>
      </trkpt>
      <trkpt lat="44.08794" lon="6.91102">
        <ele>1517.3</ele>
        <time>2019-07-16T06:50:59Z</time>
      </trkpt>
      <trkpt lat="44.08797" lon="6.91104">
        <ele>1517.4</ele>
        <time>2019-07-16T06:51:01Z</time>
      </trkpt>
      <trkpt lat="44.088" lon="6.91107">
        <ele>1517.5</ele>
        <time>2019-07-16T06:51:03Z</time>
      </trkpt>
      <trkpt lat="44.08803" lon="6.91109">
        <ele>1517.6</ele>
        <time>2019-07-16T06:51:05Z</time>
      </trkpt>
      <trkpt lat="44.08805" lon="6.91111">
        <ele>1517.7</ele>
        <time>2019-07-16T06:51:07Z</time>
      </trkpt>
      <trkpt lat="44.08808" lon="6.91113">
        <ele>1517.8</ele>
        <time>2019-07-16T06:51:09Z</time>
      </trkpt>
      <trkpt lat="44.08809" lon="6.91117">
        <ele>1517.9</ele>
        <time>2019-07-16T06:51:11Z</time>
      </trkpt>
      <trkpt lat="44.08809" lon="6.91122">
        <ele>1518.1</ele>
        <time>2019-07-16T06:51:14Z</time>
      </trkpt>
      <trkpt lat="44.08806" lon="6.91124">
        <ele>1518.2</ele>
        <time>2019-07-16T06:51:16Z</time>
      </trkpt>
      <trkpt lat="44.08803" lon="6.91123">
        <ele>1518.4</ele>
        <time>2019-07-16T06:51:19Z</time>
      </trkpt>
      <trkpt lat="44.08801" lon="6.9112">
        <ele>1518.6</ele>
        <time>2019-07-16T06:51:21Z</time>
      </trkpt>
      <trkpt lat="44.08798" lon="6.91117">
        <ele>1518.9</ele>
        <time>2019-07-16T06:51:23Z</time>
      </trkpt>
      <trkpt lat="44.08796" lon="6.91115">
        <ele>1519.2</ele>
        <time>2019-07-16T06:51:25Z</time>
      </trkpt>
      <trkpt lat="44.08794" lon="6.91112">
        <ele>1519.5</ele>
        <time>2019-07-16T06:51:27Z</time>
      </trkpt>
      <trkpt lat="44.0879" lon="6.9111">
        <ele>1519.8</ele>
        <time>2019-07-16T06:51:29Z</time>
      </trkpt>
      <trkpt lat="44.08788" lon="6.91108">
        <ele>1520.2</ele>
        <time>2019-07-16T06:51:31Z</time>
      </trkpt>
      <trkpt lat="44.08785" lon="6.91106">
        <ele>1520.5</ele>
        <time>2019-07-16T06:51:33Z</time>
      </trkpt>
      <trkpt lat="44.08782" lon="6.91104">
        <ele>1520.8</ele>
        <time>2019-07-16T06:51:35Z</time>
      </trkpt>
      <trkpt lat="44.08779" lon="6.91101">
        <ele>1521.1</ele>
        <time>2019-07-16T06:51:37Z</time>
      </trkpt>
      <trkpt lat="44.08776" lon="6.911">
        <ele>1521.3</ele>
        <time>2019-07-16T06:51:39Z</time>
      </trkpt>
      <trkpt lat="44.08774" lon="6.91098">
        <ele>1521.6</ele>
        <time>2019-07-16T06:51:41Z</time>
      </trkpt>
      <trkpt lat="44.0877" lon="6.91097">
        <ele>1521.9</ele>
        <time>2019-07-16T06:51:43Z</time>
      </trkpt>
      <trkpt lat="44.08767" lon="6.91096">
        <ele>1522.1</ele>
        <time>2019-07-16T06:51:45Z</time>
      </trkpt>
      <trkpt lat="44.08764" lon="6.91095">
        <ele>1522.3</ele>
        <time>2019-07-16T06:51:47Z</time>
      </trkpt>
      <trkpt lat="44.0876" lon="6.91094">
        <ele>1522.7</ele>
        <time>2019-07-16T06:51:49Z</time>
      </trkpt>
      <trkpt lat="44.08757" lon="6.91092">
        <ele>1523</ele>
        <time>2019-07-16T06:51:51Z</time>
      </trkpt>
      <trkpt lat="44.08753" lon="6.91092">
        <ele>1523.4</ele>
        <time>2019-07-16T06:51:53Z</time>
      </trkpt>
      <trkpt lat="44.0875" lon="6.91092">
        <ele>1523.6</ele>
        <time>2019-07-16T06:51:55Z</time>
      </trkpt>
      <trkpt lat="44.08747" lon="6.91092">
        <ele>1524</ele>
        <time>2019-07-16T06:51:57Z</time>
      </trkpt>
      <trkpt lat="44.08744" lon="6.91091">
        <ele>1524.2</ele>
        <time>2019-07-16T06:51:59Z</time>
      </trkpt>
      <trkpt lat="44.08741" lon="6.91091">
        <ele>1524.4</ele>
        <time>2019-07-16T06:52:01Z</time>
      </trkpt>
      <trkpt lat="44.08737" lon="6.91091">
        <ele>1524.6</ele>
        <time>2019-07-16T06:52:04Z</time>
      </trkpt>
      <trkpt lat="44.08733" lon="6.91092">
        <ele>1524.8</ele>
        <time>2019-07-16T06:52:06Z</time>
      </trkpt>
      <trkpt lat="44.0873" lon="6.91093">
        <ele>1525</ele>
        <time>2019-07-16T06:52:08Z</time>
      </trkpt>
      <trkpt lat="44.08727" lon="6.91093">
        <ele>1525.3</ele>
        <time>2019-07-16T06:52:10Z</time>
      </trkpt>
      <trkpt lat="44.08723" lon="6.91094">
        <ele>1525.6</ele>
        <time>2019-07-16T06:52:12Z</time>
      </trkpt>
      <trkpt lat="44.08719" lon="6.91095">
        <ele>1525.8</ele>
        <time>2019-07-16T06:52:14Z</time>
      </trkpt>
      <trkpt lat="44.08717" lon="6.91095">
        <ele>1526</ele>
        <time>2019-07-16T06:52:16Z</time>
      </trkpt>
      <trkpt lat="44.08713" lon="6.91098">
        <ele>1526.2</ele>
        <time>2019-07-16T06:52:18Z</time>
      </trkpt>
      <trkpt lat="44.08711" lon="6.91099">
        <ele>1526.4</ele>
        <time>2019-07-16T06:52:20Z</time>
      </trkpt>
      <trkpt lat="44.08707" lon="6.91099">
        <ele>1526.6</ele>
        <time>2019-07-16T06:52:22Z</time>
      </trkpt>
      <trkpt lat="44.08703" lon="6.91099">
        <ele>1527</ele>
        <time>2019-07-16T06:52:24Z</time>
      </trkpt>
      <trkpt lat="44.087" lon="6.91098">
        <ele>1527.2</ele>
        <time>2019-07-16T06:52:26Z</time>
      </trkpt>
      <trkpt lat="44.08697" lon="6.91097">
        <ele>1527.4</ele>
        <time>2019-07-16T06:52:28Z</time>
      </trkpt>
      <trkpt lat="44.08695" lon="6.91095">
        <ele>1527.6</ele>
        <time>2019-07-16T06:52:30Z</time>
      </trkpt>
      <trkpt lat="44.08691" lon="6.91093">
        <ele>1527.8</ele>
        <time>2019-07-16T06:52:32Z</time>
      </trkpt>
      <trkpt lat="44.08688" lon="6.91092">
        <ele>1528</ele>
        <time>2019-07-16T06:52:34Z</time>
      </trkpt>
      <trkpt lat="44.08686" lon="6.91089">
        <ele>1528.2</ele>
        <time>2019-07-16T06:52:36Z</time>
      </trkpt>
      <trkpt lat="44.08682" lon="6.91087">
        <ele>1528.6</ele>
        <time>2019-07-16T06:52:38Z</time>
      </trkpt>
      <trkpt lat="44.08679" lon="6.91085">
        <ele>1528.8</ele>
        <time>2019-07-16T06:52:40Z</time>
      </trkpt>
      <trkpt lat="44.08676" lon="6.91083">
        <ele>1529</ele>
        <time>2019-07-16T06:52:42Z</time>
      </trkpt>
      <trkpt lat="44.08672" lon="6.91081">
        <ele>1529.3</ele>
        <time>2019-07-16T06:52:44Z</time>
      </trkpt>
      <trkpt lat="44.08669" lon="6.9108">
        <ele>1529.5</ele>
        <time>2019-07-16T06:52:46Z</time>
      </trkpt>
      <trkpt lat="44.08665" lon="6.91078">
        <ele>1529.8</ele>
        <time>2019-07-16T06:52:48Z</time>
      </trkpt>
      <trkpt lat="44.0866" lon="6.91077">
        <ele>1530.2</ele>
        <time>2019-07-16T06:52:50Z</time>
      </trkpt>
      <trkpt lat="44.08656" lon="6.91076">
        <ele>1530.6</ele>
        <time>2019-07-16T06:52:52Z</time>
      </trkpt>
      <trkpt lat="44.08652" lon="6.91075">
        <ele>1531</ele>
        <time>2019-07-16T06:52:54Z</time>
      </trkpt>
      <trkpt lat="44.08648" lon="6.91075">
        <ele>1531.2</ele>
        <time>2019-07-16T06:52:56Z</time>
      </trkpt>
      <trkpt lat="44.08645" lon="6.91075">
        <ele>1531.5</ele>
        <time>2019-07-16T06:52:58Z</time>
      </trkpt>
      <trkpt lat="44.0864" lon="6.91076">
        <ele>1531.7</ele>
        <time>2019-07-16T06:53:00Z</time>
      </trkpt>
      <trkpt lat="44.08636" lon="6.91076">
        <ele>1532</ele>
        <time>2019-07-16T06:53:02Z</time>
      </trkpt>
      <trkpt lat="44.08632" lon="6.91077">
        <ele>1532.4</ele>
        <time>2019-07-16T06:53:04Z</time>
      </trkpt>
      <trkpt lat="44.08629" lon="6.91077">
        <ele>1532.7</ele>
        <time>2019-07-16T06:53:06Z</time>
      </trkpt>
      <trkpt lat="44.08625" lon="6.91078">
        <ele>1533</ele>
        <time>2019-07-16T06:53:08Z</time>
      </trkpt>
      <trkpt lat="44.08621" lon="6.91079">
        <ele>1533.3</ele>
        <time>2019-07-16T06:53:10Z</time>
      </trkpt>
      <trkpt lat="44.08617" lon="6.91081">
        <ele>1533.6</ele>
        <time>2019-07-16T06:53:12Z</time>
      </trkpt>
      <trkpt lat="44.08613" lon="6.91083">
        <ele>1533.9</ele>
        <time>2019-07-16T06:53:14Z</time>
      </trkpt>
      <trkpt lat="44.08609" lon="6.91085">
        <ele>1534.3</ele>
        <time>2019-07-16T06:53:16Z</time>
      </trkpt>
      <trkpt lat="44.08606" lon="6.91088">
        <ele>1534.6</ele>
        <time>2019-07-16T06:53:18Z</time>
      </trkpt>
      <trkpt lat="44.08603" lon="6.91091">
        <ele>1534.9</ele>
        <time>2019-07-16T06:53:20Z</time>
      </trkpt>
      <trkpt lat="44.086" lon="6.91094">
        <ele>1535.2</ele>
        <time>2019-07-16T06:53:22Z</time>
      </trkpt>
      <trkpt lat="44.08598" lon="6.91099">
        <ele>1535.5</ele>
        <time>2019-07-16T06:53:24Z</time>
      </trkpt>
      <trkpt lat="44.08596" lon="6.91103">
        <ele>1535.8</ele>
        <time>2019-07-16T06:53:26Z</time>
      </trkpt>
      <trkpt lat="44.08593" lon="6.91103">
        <ele>1536.1</ele>
        <time>2019-07-16T06:53:29Z</time>
      </trkpt>
      <trkpt lat="44.0859" lon="6.91105">
        <ele>1536.4</ele>
        <time>2019-07-16T06:56:35Z</time>
      </trkpt>
      <trkpt lat="44.0859" lon="6.9111">
        <ele>1536.6</ele>
        <time>2019-07-16T06:56:37Z</time>
      </trkpt>
      <trkpt lat="44.08588" lon="6.91114">
        <ele>1536.8</ele>
        <time>2019-07-16T06:56:39Z</time>
      </trkpt>
      <trkpt lat="44.08587" lon="6.91119">
        <ele>1537.1</ele>
        <time>2019-07-16T06:56:41Z</time>
      </trkpt>
      <trkpt lat="44.08585" lon="6.91123">
        <ele>1537.3</ele>
        <time>2019-07-16T06:56:43Z</time>
      </trkpt>
      <trkpt lat="44.08583" lon="6.91127">
        <ele>1537.6</ele>
        <time>2019-07-16T06:56:45Z</time>
      </trkpt>
      <trkpt lat="44.08581" lon="6.9113">
        <ele>1537.8</ele>
        <time>2019-07-16T06:56:47Z</time>
      </trkpt>
      <trkpt lat="44.0858" lon="6.91135">
        <ele>1538.1</ele>
        <time>2019-07-16T06:56:49Z</time>
      </trkpt>
      <trkpt lat="44.08579" lon="6.91139">
        <ele>1538.4</ele>
        <time>2019-07-16T06:56:51Z</time>
      </trkpt>
      <trkpt lat="44.08578" lon="6.91144">
        <ele>1538.6</ele>
        <time>2019-07-16T06:56:53Z</time>
      </trkpt>
      <trkpt lat="44.08577" lon="6.91149">
        <ele>1538.9</ele>
        <time>2019-07-16T06:56:55Z</time>
      </trkpt>
      <trkpt lat="44.08576" lon="6.91154">
        <ele>1539.2</ele>
        <time>2019-07-16T06:56:57Z</time>
      </trkpt>
      <trkpt lat="44.08575" lon="6.91158">
        <ele>1539.4</ele>
        <time>2019-07-16T06:56:59Z</time>
      </trkpt>
      <trkpt lat="44.08574" lon="6.91162">
        <ele>1539.6</ele>
        <time>2019-07-16T06:57:01Z</time>
      </trkpt>
      <trkpt lat="44.08574" lon="6.91165">
        <ele>1539.8</ele>
        <time>2019-07-16T06:57:03Z</time>
      </trkpt>
      <trkpt lat="44.08571" lon="6.91171">
        <ele>1540.1</ele>
        <time>2019-07-16T06:57:06Z</time>
      </trkpt>
      <trkpt lat="44.0857" lon="6.91174">
        <ele>1540.3</ele>
        <time>2019-07-16T06:57:08Z</time>
      </trkpt>
      <trkpt lat="44.08568" lon="6.91178">
        <ele>1540.5</ele>
        <time>2019-07-16T06:57:10Z</time>
      </trkpt>
      <trkpt lat="44.08566" lon="6.91182">
        <ele>1540.7</ele>
        <time>2019-07-16T06:57:12Z</time>
      </trkpt>
      <trkpt lat="44.08565" lon="6.91185">
        <ele>1540.9</ele>
        <time>2019-07-16T06:57:14Z</time>
      </trkpt>
      <trkpt lat="44.08563" lon="6.91188">
        <ele>1541.1</ele>
        <time>2019-07-16T06:57:16Z</time>
      </trkpt>
      <trkpt lat="44.08561" lon="6.91191">
        <ele>1541.3</ele>
        <time>2019-07-16T06:57:18Z</time>
      </trkpt>
      <trkpt lat="44.08558" lon="6.91194">
        <ele>1541.5</ele>
        <time>2019-07-16T06:57:20Z</time>
      </trkpt>
      <trkpt lat="44.08556" lon="6.91197">
        <ele>1541.7</ele>
        <time>2019-07-16T06:57:22Z</time>
      </trkpt>
      <trkpt lat="44.08554" lon="6.91198">
        <ele>1541.9</ele>
        <time>2019-07-16T06:57:24Z</time>
      </trkpt>
      <trkpt lat="44.08551" lon="6.91199">
        <ele>1542</ele>
        <time>2019-07-16T06:57:26Z</time>
      </trkpt>
      <trkpt lat="44.08548" lon="6.91199">
        <ele>1542.2</ele>
        <time>2019-07-16T06:57:28Z</time>
      </trkpt>
      <trkpt lat="44.08545" lon="6.912">
        <ele>1542.4</ele>
        <time>2019-07-16T06:57:30Z</time>
      </trkpt>
      <trkpt lat="44.08543" lon="6.91203">
        <ele>1542.6</ele>
        <time>2019-07-16T06:57:32Z</time>
      </trkpt>
      <trkpt lat="44.08539" lon="6.91205">
        <ele>1542.9</ele>
        <time>2019-07-16T06:57:34Z</time>
      </trkpt>
      <trkpt lat="44.08536" lon="6.91207">
        <ele>1543.2</ele>
        <time>2019-07-16T06:57:36Z</time>
      </trkpt>
      <trkpt lat="44.08534" lon="6.91209">
        <ele>1543.4</ele>
        <time>2019-07-16T06:57:38Z</time>
      </trkpt>
      <trkpt lat="44.08531" lon="6.9121">
        <ele>1543.7</ele>
        <time>2019-07-16T06:57:40Z</time>
      </trkpt>
      <trkpt lat="44.08529" lon="6.91213">
        <ele>1543.9</ele>
        <time>2019-07-16T06:57:42Z</time>
      </trkpt>
      <trkpt lat="44.08525" lon="6.91214">
        <ele>1544.3</ele>
        <time>2019-07-16T06:57:44Z</time>
      </trkpt>
      <trkpt lat="44.08522" lon="6.91215">
        <ele>1544.6</ele>
        <time>2019-07-16T06:57:46Z</time>
      </trkpt>
      <trkpt lat="44.08519" lon="6.91217">
        <ele>1544.8</ele>
        <time>2019-07-16T06:57:48Z</time>
      </trkpt>
      <trkpt lat="44.08516" lon="6.91219">
        <ele>1545.1</ele>
        <time>2019-07-16T06:57:50Z</time>
      </trkpt>
      <trkpt lat="44.08513" lon="6.91221">
        <ele>1545.4</ele>
        <time>2019-07-16T06:57:52Z</time>
      </trkpt>
      <trkpt lat="44.0851" lon="6.91223">
        <ele>1545.7</ele>
        <time>2019-07-16T06:57:54Z</time>
      </trkpt>
      <trkpt lat="44.08508" lon="6.91225">
        <ele>1545.9</ele>
        <time>2019-07-16T06:57:56Z</time>
      </trkpt>
      <trkpt lat="44.08505" lon="6.91228">
        <ele>1546.1</ele>
        <time>2019-07-16T06:57:58Z</time>
      </trkpt>
      <trkpt lat="44.08502" lon="6.9123">
        <ele>1546.4</ele>
        <time>2019-07-16T06:58:00Z</time>
      </trkpt>
      <trkpt lat="44.08499" lon="6.91232">
        <ele>1546.5</ele>
        <time>2019-07-16T06:58:02Z</time>
      </trkpt>
      <trkpt lat="44.08496" lon="6.91234">
        <ele>1546.8</ele>
        <time>2019-07-16T06:58:04Z</time>
      </trkpt>
      <trkpt lat="44.08493" lon="6.91236">
        <ele>1546.9</ele>
        <time>2019-07-16T06:58:06Z</time>
      </trkpt>
      <trkpt lat="44.08491" lon="6.91239">
        <ele>1547.1</ele>
        <time>2019-07-16T06:58:08Z</time>
      </trkpt>
      <trkpt lat="44.08489" lon="6.91241">
        <ele>1547.3</ele>
        <time>2019-07-16T06:58:10Z</time>
      </trkpt>
      <trkpt lat="44.08486" lon="6.91245">
        <ele>1547.6</ele>
        <time>2019-07-16T06:58:12Z</time>
      </trkpt>
      <trkpt lat="44.08484" lon="6.91249">
        <ele>1547.8</ele>
        <time>2019-07-16T06:58:14Z</time>
      </trkpt>
      <trkpt lat="44.08482" lon="6.91252">
        <ele>1548</ele>
        <time>2019-07-16T06:58:16Z</time>
      </trkpt>
      <trkpt lat="44.0848" lon="6.91255">
        <ele>1548.2</ele>
        <time>2019-07-16T06:58:18Z</time>
      </trkpt>
      <trkpt lat="44.08479" lon="6.9126">
        <ele>1548.4</ele>
        <time>2019-07-16T06:58:20Z</time>
      </trkpt>
      <trkpt lat="44.08478" lon="6.91264">
        <ele>1548.7</ele>
        <time>2019-07-16T06:58:22Z</time>
      </trkpt>
      <trkpt lat="44.08477" lon="6.91268">
        <ele>1548.9</ele>
        <time>2019-07-16T06:58:24Z</time>
      </trkpt>
      <trkpt lat="44.08476" lon="6.91272">
        <ele>1549.1</ele>
        <time>2019-07-16T06:58:26Z</time>
      </trkpt>
      <trkpt lat="44.08474" lon="6.91277">
        <ele>1549.3</ele>
        <time>2019-07-16T06:58:28Z</time>
      </trkpt>
      <trkpt lat="44.08473" lon="6.91281">
        <ele>1549.5</ele>
        <time>2019-07-16T06:58:30Z</time>
      </trkpt>
      <trkpt lat="44.08472" lon="6.91285">
        <ele>1549.7</ele>
        <time>2019-07-16T06:58:32Z</time>
      </trkpt>
      <trkpt lat="44.0847" lon="6.91289">
        <ele>1549.9</ele>
        <time>2019-07-16T06:58:34Z</time>
      </trkpt>
      <trkpt lat="44.08469" lon="6.91294">
        <ele>1550.1</ele>
        <time>2019-07-16T06:58:36Z</time>
      </trkpt>
      <trkpt lat="44.08468" lon="6.91298">
        <ele>1550.2</ele>
        <time>2019-07-16T06:58:38Z</time>
      </trkpt>
      <trkpt lat="44.08466" lon="6.91303">
        <ele>1550.5</ele>
        <time>2019-07-16T06:58:40Z</time>
      </trkpt>
      <trkpt lat="44.08464" lon="6.91307">
        <ele>1550.8</ele>
        <time>2019-07-16T06:58:42Z</time>
      </trkpt>
      <trkpt lat="44.08462" lon="6.91311">
        <ele>1551.1</ele>
        <time>2019-07-16T06:58:44Z</time>
      </trkpt>
      <trkpt lat="44.08461" lon="6.91315">
        <ele>1551.3</ele>
        <time>2019-07-16T06:58:46Z</time>
      </trkpt>
      <trkpt lat="44.0846" lon="6.91319">
        <ele>1551.6</ele>
        <time>2019-07-16T06:58:48Z</time>
      </trkpt>
      <trkpt lat="44.08458" lon="6.91324">
        <ele>1551.8</ele>
        <time>2019-07-16T06:58:50Z</time>
      </trkpt>
      <trkpt lat="44.08457" lon="6.91329">
        <ele>1552</ele>
        <time>2019-07-16T06:58:52Z</time>
      </trkpt>
      <trkpt lat="44.08456" lon="6.91334">
        <ele>1552.2</ele>
        <time>2019-07-16T06:58:54Z</time>
      </trkpt>
      <trkpt lat="44.08456" lon="6.91338">
        <ele>1552.5</ele>
        <time>2019-07-16T06:58:56Z</time>
      </trkpt>
      <trkpt lat="44.08455" lon="6.91342">
        <ele>1552.8</ele>
        <time>2019-07-16T06:58:58Z</time>
      </trkpt>
      <trkpt lat="44.08454" lon="6.91347">
        <ele>1553</ele>
        <time>2019-07-16T06:59:00Z</time>
      </trkpt>
      <trkpt lat="44.08453" lon="6.91351">
        <ele>1553.2</ele>
        <time>2019-07-16T06:59:02Z</time>
      </trkpt>
      <trkpt lat="44.08453" lon="6.91355">
        <ele>1553.3</ele>
        <time>2019-07-16T06:59:04Z</time>
      </trkpt>
      <trkpt lat="44.08452" lon="6.91359">
        <ele>1553.5</ele>
        <time>2019-07-16T06:59:06Z</time>
      </trkpt>
      <trkpt lat="44.08452" lon="6.91364">
        <ele>1553.6</ele>
        <time>2019-07-16T06:59:08Z</time>
      </trkpt>
      <trkpt lat="44.08451" lon="6.91368">
        <ele>1553.8</ele>
        <time>2019-07-16T06:59:10Z</time>
      </trkpt>
      <trkpt lat="44.0845" lon="6.91372">
        <ele>1553.9</ele>
        <time>2019-07-16T06:59:12Z</time>
      </trkpt>
      <trkpt lat="44.08451" lon="6.91378">
        <ele>1554.2</ele>
        <time>2019-07-16T06:59:14Z</time>
      </trkpt>
      <trkpt lat="44.08451" lon="6.91383">
        <ele>1554.5</ele>
        <time>2019-07-16T06:59:16Z</time>
      </trkpt>
      <trkpt lat="44.0845" lon="6.91387">
        <ele>1554.7</ele>
        <time>2019-07-16T06:59:18Z</time>
      </trkpt>
      <trkpt lat="44.0845" lon="6.91392">
        <ele>1555.1</ele>
        <time>2019-07-16T06:59:20Z</time>
      </trkpt>
      <trkpt lat="44.0845" lon="6.91397">
        <ele>1555.3</ele>
        <time>2019-07-16T06:59:22Z</time>
      </trkpt>
      <trkpt lat="44.0845" lon="6.91402">
        <ele>1555.5</ele>
        <time>2019-07-16T06:59:24Z</time>
      </trkpt>
      <trkpt lat="44.0845" lon="6.91406">
        <ele>1555.6</ele>
        <time>2019-07-16T06:59:26Z</time>
      </trkpt>
      <trkpt lat="44.08449" lon="6.91411">
        <ele>1555.9</ele>
        <time>2019-07-16T06:59:28Z</time>
      </trkpt>
      <trkpt lat="44.0845" lon="6.91416">
        <ele>1556.1</ele>
        <time>2019-07-16T06:59:30Z</time>
      </trkpt>
      <trkpt lat="44.0845" lon="6.91421">
        <ele>1556.4</ele>
        <time>2019-07-16T06:59:32Z</time>
      </trkpt>
      <trkpt lat="44.0845" lon="6.91426">
        <ele>1556.7</ele>
        <time>2019-07-16T06:59:34Z</time>
      </trkpt>
      <trkpt lat="44.0845" lon="6.91431">
        <ele>1557.1</ele>
        <time>2019-07-16T06:59:36Z</time>
      </trkpt>
      <trkpt lat="44.08451" lon="6.91436">
        <ele>1557.4</ele>
        <time>2019-07-16T06:59:38Z</time>
      </trkpt>
      <trkpt lat="44.08451" lon="6.9144">
        <ele>1557.6</ele>
        <time>2019-07-16T06:59:40Z</time>
      </trkpt>
      <trkpt lat="44.08451" lon="6.91444">
        <ele>1557.9</ele>
        <time>2019-07-16T06:59:42Z</time>
      </trkpt>
      <trkpt lat="44.08451" lon="6.91449">
        <ele>1558.2</ele>
        <time>2019-07-16T06:59:44Z</time>
      </trkpt>
      <trkpt lat="44.08452" lon="6.91454">
        <ele>1558.5</ele>
        <time>2019-07-16T06:59:46Z</time>
      </trkpt>
      <trkpt lat="44.08452" lon="6.91458">
        <ele>1558.8</ele>
        <time>2019-07-16T06:59:48Z</time>
      </trkpt>
      <trkpt lat="44.08452" lon="6.91462">
        <ele>1559.1</ele>
        <time>2019-07-16T06:59:50Z</time>
      </trkpt>
      <trkpt lat="44.08452" lon="6.91466">
        <ele>1559.4</ele>
        <time>2019-07-16T06:59:52Z</time>
      </trkpt>
      <trkpt lat="44.08453" lon="6.91471">
        <ele>1559.6</ele>
        <time>2019-07-16T06:59:54Z</time>
      </trkpt>
      <trkpt lat="44.08453" lon="6.91476">
        <ele>1559.8</ele>
        <time>2019-07-16T06:59:56Z</time>
      </trkpt>
      <trkpt lat="44.08454" lon="6.91481">
        <ele>1560.1</ele>
        <time>2019-07-16T06:59:58Z</time>
      </trkpt>
      <trkpt lat="44.08454" lon="6.91485">
        <ele>1560.4</ele>
        <time>2019-07-16T07:00:00Z</time>
      </trkpt>
      <trkpt lat="44.08454" lon="6.9149">
        <ele>1560.6</ele>
        <time>2019-07-16T07:00:02Z</time>
      </trkpt>
      <trkpt lat="44.08454" lon="6.91495">
        <ele>1560.9</ele>
        <time>2019-07-16T07:00:04Z</time>
      </trkpt>
      <trkpt lat="44.08454" lon="6.915">
        <ele>1561.1</ele>
        <time>2019-07-16T07:00:06Z</time>
      </trkpt>
      <trkpt lat="44.08454" lon="6.91504">
        <ele>1561.3</ele>
        <time>2019-07-16T07:00:08Z</time>
      </trkpt>
      <trkpt lat="44.08454" lon="6.91508">
        <ele>1561.5</ele>
        <time>2019-07-16T07:00:10Z</time>
      </trkpt>
      <trkpt lat="44.08454" lon="6.91513">
        <ele>1561.8</ele>
        <time>2019-07-16T07:00:12Z</time>
      </trkpt>
      <trkpt lat="44.08455" lon="6.91518">
        <ele>1562</ele>
        <time>2019-07-16T07:00:14Z</time>
      </trkpt>
      <trkpt lat="44.08456" lon="6.91522">
        <ele>1562.3</ele>
        <time>2019-07-16T07:00:16Z</time>
      </trkpt>
      <trkpt lat="44.08457" lon="6.91527">
        <ele>1562.5</ele>
        <time>2019-07-16T07:00:18Z</time>
      </trkpt>
      <trkpt lat="44.08458" lon="6.91532">
        <ele>1562.7</ele>
        <time>2019-07-16T07:00:20Z</time>
      </trkpt>
      <trkpt lat="44.08459" lon="6.91536">
        <ele>1562.9</ele>
        <time>2019-07-16T07:00:22Z</time>
      </trkpt>
      <trkpt lat="44.0846" lon="6.91541">
        <ele>1563.1</ele>
        <time>2019-07-16T07:00:24Z</time>
      </trkpt>
      <trkpt lat="44.08462" lon="6.91545">
        <ele>1563.5</ele>
        <time>2019-07-16T07:00:26Z</time>
      </trkpt>
      <trkpt lat="44.08464" lon="6.9155">
        <ele>1563.9</ele>
        <time>2019-07-16T07:00:28Z</time>
      </trkpt>
      <trkpt lat="44.08466" lon="6.91555">
        <ele>1564.3</ele>
        <time>2019-07-16T07:00:30Z</time>
      </trkpt>
      <trkpt lat="44.08469" lon="6.91558">
        <ele>1564.6</ele>
        <time>2019-07-16T07:00:32Z</time>
      </trkpt>
      <trkpt lat="44.08471" lon="6.91562">
        <ele>1564.8</ele>
        <time>2019-07-16T07:00:34Z</time>
      </trkpt>
      <trkpt lat="44.08473" lon="6.91566">
        <ele>1565.1</ele>
        <time>2019-07-16T07:00:36Z</time>
      </trkpt>
      <trkpt lat="44.08476" lon="6.91568">
        <ele>1565.4</ele>
        <time>2019-07-16T07:00:38Z</time>
      </trkpt>
      <trkpt lat="44.08479" lon="6.91571">
        <ele>1565.6</ele>
        <time>2019-07-16T07:00:40Z</time>
      </trkpt>
      <trkpt lat="44.08482" lon="6.91572">
        <ele>1565.8</ele>
        <time>2019-07-16T07:00:42Z</time>
      </trkpt>
      <trkpt lat="44.08485" lon="6.91574">
        <ele>1566.1</ele>
        <time>2019-07-16T07:00:44Z</time>
      </trkpt>
      <trkpt lat="44.08489" lon="6.91577">
        <ele>1566.3</ele>
        <time>2019-07-16T07:00:46Z</time>
      </trkpt>
      <trkpt lat="44.08491" lon="6.91579">
        <ele>1566.6</ele>
        <time>2019-07-16T07:00:48Z</time>
      </trkpt>
      <trkpt lat="44.08495" lon="6.91581">
        <ele>1567</ele>
        <time>2019-07-16T07:00:50Z</time>
      </trkpt>
      <trkpt lat="44.08498" lon="6.91583">
        <ele>1567.3</ele>
        <time>2019-07-16T07:00:52Z</time>
      </trkpt>
      <trkpt lat="44.08501" lon="6.91585">
        <ele>1567.6</ele>
        <time>2019-07-16T07:00:54Z</time>
      </trkpt>
      <trkpt lat="44.08505" lon="6.91586">
        <ele>1567.8</ele>
        <time>2019-07-16T07:00:56Z</time>
      </trkpt>
      <trkpt lat="44.08508" lon="6.91588">
        <ele>1568</ele>
        <time>2019-07-16T07:00:58Z</time>
      </trkpt>
      <trkpt lat="44.08511" lon="6.9159">
        <ele>1568.2</ele>
        <time>2019-07-16T07:01:00Z</time>
      </trkpt>
      <trkpt lat="44.08514" lon="6.91593">
        <ele>1568.5</ele>
        <time>2019-07-16T07:01:02Z</time>
      </trkpt>
      <trkpt lat="44.08517" lon="6.91595">
        <ele>1568.7</ele>
        <time>2019-07-16T07:01:04Z</time>
      </trkpt>
      <trkpt lat="44.0852" lon="6.91598">
        <ele>1568.9</ele>
        <time>2019-07-16T07:01:06Z</time>
      </trkpt>
      <trkpt lat="44.08522" lon="6.91601">
        <ele>1569.1</ele>
        <time>2019-07-16T07:01:08Z</time>
      </trkpt>
      <trkpt lat="44.08524" lon="6.91604">
        <ele>1569.3</ele>
        <time>2019-07-16T07:01:10Z</time>
      </trkpt>
      <trkpt lat="44.08527" lon="6.91607">
        <ele>1569.5</ele>
        <time>2019-07-16T07:01:12Z</time>
      </trkpt>
      <trkpt lat="44.08528" lon="6.91611">
        <ele>1569.9</ele>
        <time>2019-07-16T07:01:14Z</time>
      </trkpt>
      <trkpt lat="44.0853" lon="6.91615">
        <ele>1570.2</ele>
        <time>2019-07-16T07:01:16Z</time>
      </trkpt>
      <trkpt lat="44.08531" lon="6.91618">
        <ele>1570.4</ele>
        <time>2019-07-16T07:01:18Z</time>
      </trkpt>
      <trkpt lat="44.08533" lon="6.91624">
        <ele>1570.7</ele>
        <time>2019-07-16T07:01:21Z</time>
      </trkpt>
      <trkpt lat="44.08535" lon="6.91629">
        <ele>1571</ele>
        <time>2019-07-16T07:01:23Z</time>
      </trkpt>
      <trkpt lat="44.08535" lon="6.91633">
        <ele>1571.2</ele>
        <time>2019-07-16T07:01:25Z</time>
      </trkpt>
      <trkpt lat="44.08536" lon="6.91637">
        <ele>1571.4</ele>
        <time>2019-07-16T07:01:27Z</time>
      </trkpt>
      <trkpt lat="44.08537" lon="6.91641">
        <ele>1571.6</ele>
        <time>2019-07-16T07:01:29Z</time>
      </trkpt>
      <trkpt lat="44.08539" lon="6.91647">
        <ele>1571.9</ele>
        <time>2019-07-16T07:01:31Z</time>
      </trkpt>
      <trkpt lat="44.08539" lon="6.91651">
        <ele>1572.1</ele>
        <time>2019-07-16T07:01:33Z</time>
      </trkpt>
      <trkpt lat="44.0854" lon="6.91656">
        <ele>1572.4</ele>
        <time>2019-07-16T07:01:35Z</time>
      </trkpt>
      <trkpt lat="44.08541" lon="6.9166">
        <ele>1572.7</ele>
        <time>2019-07-16T07:01:37Z</time>
      </trkpt>
      <trkpt lat="44.08543" lon="6.91665">
        <ele>1573.1</ele>
        <time>2019-07-16T07:01:39Z</time>
      </trkpt>
      <trkpt lat="44.08543" lon="6.91668">
        <ele>1573.3</ele>
        <time>2019-07-16T07:01:41Z</time>
      </trkpt>
      <trkpt lat="44.08543" lon="6.91672">
        <ele>1573.5</ele>
        <time>2019-07-16T07:01:43Z</time>
      </trkpt>
      <trkpt lat="44.08544" lon="6.91677">
        <ele>1573.7</ele>
        <time>2019-07-16T07:01:45Z</time>
      </trkpt>
      <trkpt lat="44.08545" lon="6.91681">
        <ele>1574</ele>
        <time>2019-07-16T07:01:47Z</time>
      </trkpt>
      <trkpt lat="44.08546" lon="6.91686">
        <ele>1574.2</ele>
        <time>2019-07-16T07:01:49Z</time>
      </trkpt>
      <trkpt lat="44.08547" lon="6.91691">
        <ele>1574.4</ele>
        <time>2019-07-16T07:01:51Z</time>
      </trkpt>
      <trkpt lat="44.08548" lon="6.91696">
        <ele>1574.6</ele>
        <time>2019-07-16T07:01:53Z</time>
      </trkpt>
      <trkpt lat="44.0855" lon="6.91701">
        <ele>1574.8</ele>
        <time>2019-07-16T07:01:55Z</time>
      </trkpt>
      <trkpt lat="44.08551" lon="6.91706">
        <ele>1575.1</ele>
        <time>2019-07-16T07:01:57Z</time>
      </trkpt>
      <trkpt lat="44.08553" lon="6.9171">
        <ele>1575.4</ele>
        <time>2019-07-16T07:01:59Z</time>
      </trkpt>
      <trkpt lat="44.08555" lon="6.91715">
        <ele>1575.7</ele>
        <time>2019-07-16T07:02:01Z</time>
      </trkpt>
      <trkpt lat="44.08555" lon="6.9172">
        <ele>1576</ele>
        <time>2019-07-16T07:02:03Z</time>
      </trkpt>
      <trkpt lat="44.08557" lon="6.91725">
        <ele>1576.3</ele>
        <time>2019-07-16T07:02:05Z</time>
      </trkpt>
      <trkpt lat="44.08557" lon="6.9173">
        <ele>1576.6</ele>
        <time>2019-07-16T07:02:07Z</time>
      </trkpt>
      <trkpt lat="44.08558" lon="6.91735">
        <ele>1576.9</ele>
        <time>2019-07-16T07:02:09Z</time>
      </trkpt>
      <trkpt lat="44.08559" lon="6.9174">
        <ele>1577.1</ele>
        <time>2019-07-16T07:02:11Z</time>
      </trkpt>
      <trkpt lat="44.0856" lon="6.91744">
        <ele>1577.3</ele>
        <time>2019-07-16T07:02:13Z</time>
      </trkpt>
      <trkpt lat="44.08561" lon="6.91749">
        <ele>1577.6</ele>
        <time>2019-07-16T07:02:15Z</time>
      </trkpt>
      <trkpt lat="44.08562" lon="6.91754">
        <ele>1577.8</ele>
        <time>2019-07-16T07:02:17Z</time>
      </trkpt>
      <trkpt lat="44.08562" lon="6.91758">
        <ele>1578</ele>
        <time>2019-07-16T07:02:19Z</time>
      </trkpt>
      <trkpt lat="44.08563" lon="6.91762">
        <ele>1578.4</ele>
        <time>2019-07-16T07:02:21Z</time>
      </trkpt>
      <trkpt lat="44.08565" lon="6.91767">
        <ele>1578.8</ele>
        <time>2019-07-16T07:02:23Z</time>
      </trkpt>
      <trkpt lat="44.08567" lon="6.91773">
        <ele>1579.2</ele>
        <time>2019-07-16T07:02:25Z</time>
      </trkpt>
      <trkpt lat="44.08569" lon="6.91778">
        <ele>1579.6</ele>
        <time>2019-07-16T07:02:27Z</time>
      </trkpt>
      <trkpt lat="44.0857" lon="6.91782">
        <ele>1579.9</ele>
        <time>2019-07-16T07:02:29Z</time>
      </trkpt>
      <trkpt lat="44.08573" lon="6.91786">
        <ele>1580.1</ele>
        <time>2019-07-16T07:02:31Z</time>
      </trkpt>
      <trkpt lat="44.08575" lon="6.91791">
        <ele>1580.3</ele>
        <time>2019-07-16T07:02:33Z</time>
      </trkpt>
      <trkpt lat="44.08577" lon="6.91794">
        <ele>1580.5</ele>
        <time>2019-07-16T07:02:35Z</time>
      </trkpt>
      <trkpt lat="44.08576" lon="6.91799">
        <ele>1580.8</ele>
        <time>2019-07-16T07:02:38Z</time>
      </trkpt>
      <trkpt lat="44.08576" lon="6.91803">
        <ele>1580.9</ele>
        <time>2019-07-16T07:02:40Z</time>
      </trkpt>
      <trkpt lat="44.08578" lon="6.91808">
        <ele>1581.2</ele>
        <time>2019-07-16T07:02:43Z</time>
      </trkpt>
      <trkpt lat="44.08581" lon="6.9181">
        <ele>1581.4</ele>
        <time>2019-07-16T07:04:19Z</time>
      </trkpt>
      <trkpt lat="44.08585" lon="6.91811">
        <ele>1581.6</ele>
        <time>2019-07-16T07:04:21Z</time>
      </trkpt>
      <trkpt lat="44.08587" lon="6.91816">
        <ele>1581.8</ele>
        <time>2019-07-16T07:04:23Z</time>
      </trkpt>
      <trkpt lat="44.08589" lon="6.91821">
        <ele>1582.2</ele>
        <time>2019-07-16T07:04:25Z</time>
      </trkpt>
      <trkpt lat="44.08591" lon="6.91825">
        <ele>1582.4</ele>
        <time>2019-07-16T07:04:27Z</time>
      </trkpt>
      <trkpt lat="44.08592" lon="6.91828">
        <ele>1582.7</ele>
        <time>2019-07-16T07:04:29Z</time>
      </trkpt>
      <trkpt lat="44.08594" lon="6.91832">
        <ele>1583</ele>
        <time>2019-07-16T07:04:31Z</time>
      </trkpt>
      <trkpt lat="44.08595" lon="6.91837">
        <ele>1583.2</ele>
        <time>2019-07-16T07:04:33Z</time>
      </trkpt>
      <trkpt lat="44.08597" lon="6.91841">
        <ele>1583.5</ele>
        <time>2019-07-16T07:04:35Z</time>
      </trkpt>
      <trkpt lat="44.08599" lon="6.91846">
        <ele>1583.8</ele>
        <time>2019-07-16T07:04:37Z</time>
      </trkpt>
      <trkpt lat="44.08601" lon="6.91851">
        <ele>1584.1</ele>
        <time>2019-07-16T07:04:39Z</time>
      </trkpt>
      <trkpt lat="44.08602" lon="6.91855">
        <ele>1584.3</ele>
        <time>2019-07-16T07:04:41Z</time>
      </trkpt>
      <trkpt lat="44.08603" lon="6.9186">
        <ele>1584.6</ele>
        <time>2019-07-16T07:04:43Z</time>
      </trkpt>
      <trkpt lat="44.08605" lon="6.91864">
        <ele>1584.8</ele>
        <time>2019-07-16T07:04:45Z</time>
      </trkpt>
      <trkpt lat="44.08606" lon="6.91868">
        <ele>1585</ele>
        <time>2019-07-16T07:04:47Z</time>
      </trkpt>
      <trkpt lat="44.08607" lon="6.91872">
        <ele>1585.2</ele>
        <time>2019-07-16T07:04:49Z</time>
      </trkpt>
      <trkpt lat="44.08608" lon="6.91875">
        <ele>1585.5</ele>
        <time>2019-07-16T07:04:51Z</time>
      </trkpt>
      <trkpt lat="44.08609" lon="6.91879">
        <ele>1585.7</ele>
        <time>2019-07-16T07:04:53Z</time>
      </trkpt>
      <trkpt lat="44.08611" lon="6.91884">
        <ele>1586</ele>
        <time>2019-07-16T07:04:55Z</time>
      </trkpt>
      <trkpt lat="44.08612" lon="6.91889">
        <ele>1586.2</ele>
        <time>2019-07-16T07:04:57Z</time>
      </trkpt>
      <trkpt lat="44.08613" lon="6.91893">
        <ele>1586.5</ele>
        <time>2019-07-16T07:04:59Z</time>
      </trkpt>
      <trkpt lat="44.08615" lon="6.91897">
        <ele>1586.8</ele>
        <time>2019-07-16T07:05:01Z</time>
      </trkpt>
      <trkpt lat="44.08619" lon="6.91899">
        <ele>1587.1</ele>
        <time>2019-07-16T07:05:03Z</time>
      </trkpt>
      <trkpt lat="44.08623" lon="6.919">
        <ele>1587.4</ele>
        <time>2019-07-16T07:05:05Z</time>
      </trkpt>
      <trkpt lat="44.08627" lon="6.91899">
        <ele>1587.7</ele>
        <time>2019-07-16T07:05:07Z</time>
      </trkpt>
      <trkpt lat="44.08631" lon="6.91896">
        <ele>1588</ele>
        <time>2019-07-16T07:05:09Z</time>
      </trkpt>
      <trkpt lat="44.08634" lon="6.91894">
        <ele>1588.2</ele>
        <time>2019-07-16T07:05:11Z</time>
      </trkpt>
      <trkpt lat="44.08637" lon="6.91891">
        <ele>1588.5</ele>
        <time>2019-07-16T07:05:13Z</time>
      </trkpt>
      <trkpt lat="44.08637" lon="6.91885">
        <ele>1588.8</ele>
        <time>2019-07-16T07:05:15Z</time>
      </trkpt>
      <trkpt lat="44.08636" lon="6.9188">
        <ele>1589.1</ele>
        <time>2019-07-16T07:05:17Z</time>
      </trkpt>
      <trkpt lat="44.08636" lon="6.91875">
        <ele>1589.4</ele>
        <time>2019-07-16T07:05:19Z</time>
      </trkpt>
      <trkpt lat="44.08635" lon="6.91869">
        <ele>1589.7</ele>
        <time>2019-07-16T07:05:21Z</time>
      </trkpt>
      <trkpt lat="44.08633" lon="6.91864">
        <ele>1590</ele>
        <time>2019-07-16T07:05:23Z</time>
      </trkpt>
      <trkpt lat="44.08632" lon="6.91859">
        <ele>1590.2</ele>
        <time>2019-07-16T07:05:25Z</time>
      </trkpt>
      <trkpt lat="44.0863" lon="6.91854">
        <ele>1590.5</ele>
        <time>2019-07-16T07:05:27Z</time>
      </trkpt>
      <trkpt lat="44.08628" lon="6.91849">
        <ele>1590.8</ele>
        <time>2019-07-16T07:05:29Z</time>
      </trkpt>
      <trkpt lat="44.08627" lon="6.91845">
        <ele>1591</ele>
        <time>2019-07-16T07:05:31Z</time>
      </trkpt>
      <trkpt lat="44.08625" lon="6.91841">
        <ele>1591.3</ele>
        <time>2019-07-16T07:05:33Z</time>
      </trkpt>
      <trkpt lat="44.08624" lon="6.91837">
        <ele>1591.5</ele>
        <time>2019-07-16T07:05:35Z</time>
      </trkpt>
      <trkpt lat="44.08622" lon="6.91832">
        <ele>1591.8</ele>
        <time>2019-07-16T07:05:37Z</time>
      </trkpt>
      <trkpt lat="44.08621" lon="6.91828">
        <ele>1592.1</ele>
        <time>2019-07-16T07:05:39Z</time>
      </trkpt>
      <trkpt lat="44.08619" lon="6.91824">
        <ele>1592.5</ele>
        <time>2019-07-16T07:05:41Z</time>
      </trkpt>
      <trkpt lat="44.08617" lon="6.9182">
        <ele>1592.8</ele>
        <time>2019-07-16T07:05:43Z</time>
      </trkpt>
      <trkpt lat="44.08616" lon="6.91816">
        <ele>1593</ele>
        <time>2019-07-16T07:05:45Z</time>
      </trkpt>
      <trkpt lat="44.08615" lon="6.91811">
        <ele>1593.3</ele>
        <time>2019-07-16T07:05:47Z</time>
      </trkpt>
      <trkpt lat="44.08612" lon="6.91806">
        <ele>1593.6</ele>
        <time>2019-07-16T07:05:49Z</time>
      </trkpt>
      <trkpt lat="44.08611" lon="6.91802">
        <ele>1593.8</ele>
        <time>2019-07-16T07:05:51Z</time>
      </trkpt>
      <trkpt lat="44.0861" lon="6.91797">
        <ele>1594.1</ele>
        <time>2019-07-16T07:05:53Z</time>
      </trkpt>
      <trkpt lat="44.08609" lon="6.91793">
        <ele>1594.5</ele>
        <time>2019-07-16T07:05:55Z</time>
      </trkpt>
      <trkpt lat="44.08608" lon="6.91788">
        <ele>1594.8</ele>
        <time>2019-07-16T07:05:57Z</time>
      </trkpt>
      <trkpt lat="44.08606" lon="6.91784">
        <ele>1595</ele>
        <time>2019-07-16T07:05:59Z</time>
      </trkpt>
      <trkpt lat="44.08605" lon="6.9178">
        <ele>1595.2</ele>
        <time>2019-07-16T07:06:01Z</time>
      </trkpt>
      <trkpt lat="44.08604" lon="6.91776">
        <ele>1595.4</ele>
        <time>2019-07-16T07:06:03Z</time>
      </trkpt>
      <trkpt lat="44.08604" lon="6.91771">
        <ele>1595.6</ele>
        <time>2019-07-16T07:06:05Z</time>
      </trkpt>
      <trkpt lat="44.08603" lon="6.91766">
        <ele>1595.9</ele>
        <time>2019-07-16T07:06:07Z</time>
      </trkpt>
      <trkpt lat="44.08604" lon="6.91761">
        <ele>1596.1</ele>
        <time>2019-07-16T07:06:09Z</time>
      </trkpt>
      <trkpt lat="44.08603" lon="6.91756">
        <ele>1596.3</ele>
        <time>2019-07-16T07:06:11Z</time>
      </trkpt>
      <trkpt lat="44.08602" lon="6.91751">
        <ele>1596.6</ele>
        <time>2019-07-16T07:06:13Z</time>
      </trkpt>
      <trkpt lat="44.08602" lon="6.91746">
        <ele>1596.9</ele>
        <time>2019-07-16T07:06:15Z</time>
      </trkpt>
      <trkpt lat="44.08602" lon="6.91741">
        <ele>1597.1</ele>
        <time>2019-07-16T07:06:17Z</time>
      </trkpt>
      <trkpt lat="44.08603" lon="6.91737">
        <ele>1597.4</ele>
        <time>2019-07-16T07:06:19Z</time>
      </trkpt>
      <trkpt lat="44.08603" lon="6.91733">
        <ele>1597.8</ele>
        <time>2019-07-16T07:06:21Z</time>
      </trkpt>
      <trkpt lat="44.08603" lon="6.91728">
        <ele>1598.1</ele>
        <time>2019-07-16T07:06:23Z</time>
      </trkpt>
      <trkpt lat="44.08603" lon="6.91724">
        <ele>1598.5</ele>
        <time>2019-07-16T07:06:25Z</time>
      </trkpt>
      <trkpt lat="44.08603" lon="6.91719">
        <ele>1598.8</ele>
        <time>2019-07-16T07:06:27Z</time>
      </trkpt>
      <trkpt lat="44.08604" lon="6.91714">
        <ele>1599.1</ele>
        <time>2019-07-16T07:06:29Z</time>
      </trkpt>
      <trkpt lat="44.08603" lon="6.9171">
        <ele>1599.4</ele>
        <time>2019-07-16T07:06:31Z</time>
      </trkpt>
      <trkpt lat="44.08603" lon="6.91705">
        <ele>1599.7</ele>
        <time>2019-07-16T07:06:33Z</time>
      </trkpt>
      <trkpt lat="44.08603" lon="6.917">
        <ele>1599.9</ele>
        <time>2019-07-16T07:06:35Z</time>
      </trkpt>
      <trkpt lat="44.08602" lon="6.91695">
        <ele>1600.2</ele>
        <time>2019-07-16T07:06:37Z</time>
      </trkpt>
      <trkpt lat="44.08603" lon="6.91691">
        <ele>1600.4</ele>
        <time>2019-07-16T07:06:39Z</time>
      </trkpt>
      <trkpt lat="44.08603" lon="6.91687">
        <ele>1600.7</ele>
        <time>2019-07-16T07:06:41Z</time>
      </trkpt>
      <trkpt lat="44.08602" lon="6.91683">
        <ele>1601</ele>
        <time>2019-07-16T07:06:43Z</time>
      </trkpt>
      <trkpt lat="44.08602" lon="6.91678">
        <ele>1601.3</ele>
        <time>2019-07-16T07:06:45Z</time>
      </trkpt>
      <trkpt lat="44.08602" lon="6.91674">
        <ele>1601.7</ele>
        <time>2019-07-16T07:06:47Z</time>
      </trkpt>
      <trkpt lat="44.08602" lon="6.91669">
        <ele>1602</ele>
        <time>2019-07-16T07:06:49Z</time>
      </trkpt>
      <trkpt lat="44.08601" lon="6.91664">
        <ele>1602.3</ele>
        <time>2019-07-16T07:06:51Z</time>
      </trkpt>
      <trkpt lat="44.08601" lon="6.9166">
        <ele>1602.5</ele>
        <time>2019-07-16T07:06:53Z</time>
      </trkpt>
      <trkpt lat="44.08601" lon="6.91655">
        <ele>1602.8</ele>
        <time>2019-07-16T07:06:55Z</time>
      </trkpt>
      <trkpt lat="44.086" lon="6.9165">
        <ele>1603.2</ele>
        <time>2019-07-16T07:06:57Z</time>
      </trkpt>
      <trkpt lat="44.086" lon="6.91645">
        <ele>1603.5</ele>
        <time>2019-07-16T07:06:59Z</time>
      </trkpt>
      <trkpt lat="44.086" lon="6.91641">
        <ele>1603.8</ele>
        <time>2019-07-16T07:07:01Z</time>
      </trkpt>
      <trkpt lat="44.086" lon="6.91635">
        <ele>1604.1</ele>
        <time>2019-07-16T07:07:03Z</time>
      </trkpt>
      <trkpt lat="44.08599" lon="6.91631">
        <ele>1604.4</ele>
        <time>2019-07-16T07:07:05Z</time>
      </trkpt>
      <trkpt lat="44.08599" lon="6.91627">
        <ele>1604.7</ele>
        <time>2019-07-16T07:07:07Z</time>
      </trkpt>
      <trkpt lat="44.08599" lon="6.91623">
        <ele>1604.9</ele>
        <time>2019-07-16T07:07:09Z</time>
      </trkpt>
      <trkpt lat="44.08599" lon="6.91619">
        <ele>1605.2</ele>
        <time>2019-07-16T07:07:11Z</time>
      </trkpt>
      <trkpt lat="44.08598" lon="6.91614">
        <ele>1605.5</ele>
        <time>2019-07-16T07:07:13Z</time>
      </trkpt>
      <trkpt lat="44.08598" lon="6.9161">
        <ele>1605.8</ele>
        <time>2019-07-16T07:07:15Z</time>
      </trkpt>
      <trkpt lat="44.08598" lon="6.91606">
        <ele>1606</ele>
        <time>2019-07-16T07:07:17Z</time>
      </trkpt>
      <trkpt lat="44.08598" lon="6.91601">
        <ele>1606.3</ele>
        <time>2019-07-16T07:07:19Z</time>
      </trkpt>
      <trkpt lat="44.08598" lon="6.91596">
        <ele>1606.5</ele>
        <time>2019-07-16T07:07:21Z</time>
      </trkpt>
      <trkpt lat="44.08597" lon="6.91592">
        <ele>1606.8</ele>
        <time>2019-07-16T07:07:23Z</time>
      </trkpt>
      <trkpt lat="44.08597" lon="6.91587">
        <ele>1607</ele>
        <time>2019-07-16T07:07:25Z</time>
      </trkpt>
      <trkpt lat="44.08597" lon="6.91582">
        <ele>1607.3</ele>
        <time>2019-07-16T07:07:27Z</time>
      </trkpt>
      <trkpt lat="44.08596" lon="6.91577">
        <ele>1607.5</ele>
        <time>2019-07-16T07:07:29Z</time>
      </trkpt>
      <trkpt lat="44.08596" lon="6.91572">
        <ele>1607.7</ele>
        <time>2019-07-16T07:07:31Z</time>
      </trkpt>
      <trkpt lat="44.08596" lon="6.91567">
        <ele>1608</ele>
        <time>2019-07-16T07:07:33Z</time>
      </trkpt>
      <trkpt lat="44.08596" lon="6.91562">
        <ele>1608.3</ele>
        <time>2019-07-16T07:07:35Z</time>
      </trkpt>
      <trkpt lat="44.08595" lon="6.91557">
        <ele>1608.7</ele>
        <time>2019-07-16T07:07:37Z</time>
      </trkpt>
      <trkpt lat="44.08594" lon="6.91552">
        <ele>1609</ele>
        <time>2019-07-16T07:07:39Z</time>
      </trkpt>
      <trkpt lat="44.08594" lon="6.91548">
        <ele>1609.3</ele>
        <time>2019-07-16T07:07:41Z</time>
      </trkpt>
      <trkpt lat="44.08593" lon="6.91543">
        <ele>1609.6</ele>
        <time>2019-07-16T07:07:43Z</time>
      </trkpt>
      <trkpt lat="44.08593" lon="6.91538">
        <ele>1609.8</ele>
        <time>2019-07-16T07:07:45Z</time>
      </trkpt>
      <trkpt lat="44.08593" lon="6.91533">
        <ele>1610</ele>
        <time>2019-07-16T07:07:47Z</time>
      </trkpt>
      <trkpt lat="44.08593" lon="6.9153">
        <ele>1610.2</ele>
        <time>2019-07-16T07:07:49Z</time>
      </trkpt>
      <trkpt lat="44.08593" lon="6.91525">
        <ele>1610.4</ele>
        <time>2019-07-16T07:07:51Z</time>
      </trkpt>
      <trkpt lat="44.08593" lon="6.9152">
        <ele>1610.7</ele>
        <time>2019-07-16T07:07:53Z</time>
      </trkpt>
      <trkpt lat="44.08594" lon="6.91515">
        <ele>1610.9</ele>
        <time>2019-07-16T07:07:55Z</time>
      </trkpt>
      <trkpt lat="44.08595" lon="6.9151">
        <ele>1611.2</ele>
        <time>2019-07-16T07:07:57Z</time>
      </trkpt>
      <trkpt lat="44.08597" lon="6.91505">
        <ele>1611.4</ele>
        <time>2019-07-16T07:07:59Z</time>
      </trkpt>
      <trkpt lat="44.08598" lon="6.91502">
        <ele>1611.6</ele>
        <time>2019-07-16T07:08:01Z</time>
      </trkpt>
      <trkpt lat="44.08601" lon="6.91499">
        <ele>1611.8</ele>
        <time>2019-07-16T07:08:03Z</time>
      </trkpt>
      <trkpt lat="44.08604" lon="6.91496">
        <ele>1612</ele>
        <time>2019-07-16T07:08:05Z</time>
      </trkpt>
      <trkpt lat="44.08606" lon="6.91493">
        <ele>1612.1</ele>
        <time>2019-07-16T07:08:07Z</time>
      </trkpt>
      <trkpt lat="44.08609" lon="6.9149">
        <ele>1612.3</ele>
        <time>2019-07-16T07:08:09Z</time>
      </trkpt>
      <trkpt lat="44.08611" lon="6.91487">
        <ele>1612.5</ele>
        <time>2019-07-16T07:08:11Z</time>
      </trkpt>
      <trkpt lat="44.08614" lon="6.91484">
        <ele>1612.7</ele>
        <time>2019-07-16T07:08:13Z</time>
      </trkpt>
      <trkpt lat="44.08617" lon="6.91482">
        <ele>1613.1</ele>
        <time>2019-07-16T07:08:15Z</time>
      </trkpt>
      <trkpt lat="44.0862" lon="6.9148">
        <ele>1613.3</ele>
        <time>2019-07-16T07:08:17Z</time>
      </trkpt>
      <trkpt lat="44.08623" lon="6.9148">
        <ele>1613.6</ele>
        <time>2019-07-16T07:08:19Z</time>
      </trkpt>
      <trkpt lat="44.08627" lon="6.91479">
        <ele>1613.9</ele>
        <time>2019-07-16T07:08:22Z</time>
      </trkpt>
      <trkpt lat="44.08629" lon="6.91476">
        <ele>1614.1</ele>
        <time>2019-07-16T07:08:53Z</time>
      </trkpt>
      <trkpt lat="44.08632" lon="6.91475">
        <ele>1614.3</ele>
        <time>2019-07-16T07:08:55Z</time>
      </trkpt>
      <trkpt lat="44.08635" lon="6.91475">
        <ele>1614.7</ele>
        <time>2019-07-16T07:08:57Z</time>
      </trkpt>
      <trkpt lat="44.08638" lon="6.91474">
        <ele>1615</ele>
        <time>2019-07-16T07:08:59Z</time>
      </trkpt>
      <trkpt lat="44.08643" lon="6.91473">
        <ele>1615.4</ele>
        <time>2019-07-16T07:09:01Z</time>
      </trkpt>
      <trkpt lat="44.08647" lon="6.91472">
        <ele>1615.8</ele>
        <time>2019-07-16T07:09:03Z</time>
      </trkpt>
      <trkpt lat="44.08651" lon="6.91472">
        <ele>1616.1</ele>
        <time>2019-07-16T07:09:05Z</time>
      </trkpt>
      <trkpt lat="44.08656" lon="6.91471">
        <ele>1616.4</ele>
        <time>2019-07-16T07:09:07Z</time>
      </trkpt>
      <trkpt lat="44.0866" lon="6.9147">
        <ele>1616.7</ele>
        <time>2019-07-16T07:09:09Z</time>
      </trkpt>
      <trkpt lat="44.08665" lon="6.91469">
        <ele>1617</ele>
        <time>2019-07-16T07:09:11Z</time>
      </trkpt>
      <trkpt lat="44.0867" lon="6.91469">
        <ele>1617.3</ele>
        <time>2019-07-16T07:09:13Z</time>
      </trkpt>
      <trkpt lat="44.08674" lon="6.91467">
        <ele>1617.5</ele>
        <time>2019-07-16T07:09:15Z</time>
      </trkpt>
      <trkpt lat="44.08678" lon="6.91467">
        <ele>1617.8</ele>
        <time>2019-07-16T07:09:17Z</time>
      </trkpt>
      <trkpt lat="44.08682" lon="6.91466">
        <ele>1618.1</ele>
        <time>2019-07-16T07:09:19Z</time>
      </trkpt>
      <trkpt lat="44.08686" lon="6.91466">
        <ele>1618.4</ele>
        <time>2019-07-16T07:09:21Z</time>
      </trkpt>
      <trkpt lat="44.0869" lon="6.91465">
        <ele>1618.8</ele>
        <time>2019-07-16T07:09:23Z</time>
      </trkpt>
      <trkpt lat="44.08694" lon="6.91466">
        <ele>1619.2</ele>
        <time>2019-07-16T07:09:25Z</time>
      </trkpt>
      <trkpt lat="44.08697" lon="6.91465">
        <ele>1619.5</ele>
        <time>2019-07-16T07:09:27Z</time>
      </trkpt>
      <trkpt lat="44.08701" lon="6.91464">
        <ele>1619.8</ele>
        <time>2019-07-16T07:09:29Z</time>
      </trkpt>
      <trkpt lat="44.08704" lon="6.91464">
        <ele>1620</ele>
        <time>2019-07-16T07:09:31Z</time>
      </trkpt>
      <trkpt lat="44.08707" lon="6.91463">
        <ele>1620.3</ele>
        <time>2019-07-16T07:09:33Z</time>
      </trkpt>
      <trkpt lat="44.08711" lon="6.91464">
        <ele>1620.5</ele>
        <time>2019-07-16T07:09:35Z</time>
      </trkpt>
      <trkpt lat="44.08714" lon="6.91463">
        <ele>1620.7</ele>
        <time>2019-07-16T07:09:37Z</time>
      </trkpt>
      <trkpt lat="44.08717" lon="6.91463">
        <ele>1621</ele>
        <time>2019-07-16T07:09:39Z</time>
      </trkpt>
      <trkpt lat="44.08721" lon="6.91462">
        <ele>1621.2</ele>
        <time>2019-07-16T07:09:41Z</time>
      </trkpt>
      <trkpt lat="44.08724" lon="6.91462">
        <ele>1621.5</ele>
        <time>2019-07-16T07:09:43Z</time>
      </trkpt>
      <trkpt lat="44.08727" lon="6.91462">
        <ele>1621.7</ele>
        <time>2019-07-16T07:09:45Z</time>
      </trkpt>
      <trkpt lat="44.0873" lon="6.91462">
        <ele>1622</ele>
        <time>2019-07-16T07:09:48Z</time>
      </trkpt>
      <trkpt lat="44.08733" lon="6.91462">
        <ele>1622.3</ele>
        <time>2019-07-16T07:09:50Z</time>
      </trkpt>
      <trkpt lat="44.08736" lon="6.91462">
        <ele>1622.6</ele>
        <time>2019-07-16T07:09:52Z</time>
      </trkpt>
      <trkpt lat="44.08739" lon="6.91461">
        <ele>1622.8</ele>
        <time>2019-07-16T07:09:54Z</time>
      </trkpt>
      <trkpt lat="44.08742" lon="6.91461">
        <ele>1623</ele>
        <time>2019-07-16T07:09:56Z</time>
      </trkpt>
      <trkpt lat="44.08746" lon="6.9146">
        <ele>1623.2</ele>
        <time>2019-07-16T07:09:58Z</time>
      </trkpt>
      <trkpt lat="44.08749" lon="6.9146">
        <ele>1623.4</ele>
        <time>2019-07-16T07:10:00Z</time>
      </trkpt>
      <trkpt lat="44.08753" lon="6.9146">
        <ele>1623.7</ele>
        <time>2019-07-16T07:10:02Z</time>
      </trkpt>
      <trkpt lat="44.08756" lon="6.9146">
        <ele>1623.9</ele>
        <time>2019-07-16T07:10:04Z</time>
      </trkpt>
      <trkpt lat="44.08759" lon="6.91458">
        <ele>1624.1</ele>
        <time>2019-07-16T07:10:06Z</time>
      </trkpt>
      <trkpt lat="44.08761" lon="6.91457">
        <ele>1624.3</ele>
        <time>2019-07-16T07:10:08Z</time>
      </trkpt>
      <trkpt lat="44.08764" lon="6.91457">
        <ele>1624.5</ele>
        <time>2019-07-16T07:10:10Z</time>
      </trkpt>
      <trkpt lat="44.08767" lon="6.91456">
        <ele>1624.7</ele>
        <time>2019-07-16T07:10:12Z</time>
      </trkpt>
      <trkpt lat="44.08771" lon="6.91456">
        <ele>1625</ele>
        <time>2019-07-16T07:10:15Z</time>
      </trkpt>
      <trkpt lat="44.08775" lon="6.91455">
        <ele>1625.4</ele>
        <time>2019-07-16T07:10:17Z</time>
      </trkpt>
      <trkpt lat="44.08778" lon="6.91455">
        <ele>1625.7</ele>
        <time>2019-07-16T07:10:19Z</time>
      </trkpt>
      <trkpt lat="44.08781" lon="6.91456">
        <ele>1626</ele>
        <time>2019-07-16T07:10:22Z</time>
      </trkpt>
      <trkpt lat="44.08785" lon="6.91457">
        <ele>1626.3</ele>
        <time>2019-07-16T07:10:24Z</time>
      </trkpt>
      <trkpt lat="44.08788" lon="6.91458">
        <ele>1626.5</ele>
        <time>2019-07-16T07:10:26Z</time>
      </trkpt>
      <trkpt lat="44.0879" lon="6.9146">
        <ele>1626.7</ele>
        <time>2019-07-16T07:10:28Z</time>
      </trkpt>
      <trkpt lat="44.08793" lon="6.91463">
        <ele>1627</ele>
        <time>2019-07-16T07:10:31Z</time>
      </trkpt>
      <trkpt lat="44.08796" lon="6.91465">
        <ele>1627.2</ele>
        <time>2019-07-16T07:10:34Z</time>
      </trkpt>
      <trkpt lat="44.08798" lon="6.91468">
        <ele>1627.4</ele>
        <time>2019-07-16T07:10:36Z</time>
      </trkpt>
      <trkpt lat="44.088" lon="6.91472">
        <ele>1627.8</ele>
        <time>2019-07-16T07:10:39Z</time>
      </trkpt>
      <trkpt lat="44.08803" lon="6.91476">
        <ele>1628.3</ele>
        <time>2019-07-16T07:10:42Z</time>
      </trkpt>
      <trkpt lat="44.08805" lon="6.91481">
        <ele>1628.7</ele>
        <time>2019-07-16T07:10:45Z</time>
      </trkpt>
      <trkpt lat="44.08806" lon="6.91485">
        <ele>1629.2</ele>
        <time>2019-07-16T07:10:48Z</time>
      </trkpt>
      <trkpt lat="44.08808" lon="6.9149">
        <ele>1629.5</ele>
        <time>2019-07-16T07:10:51Z</time>
      </trkpt>
      <trkpt lat="44.08809" lon="6.91495">
        <ele>1629.9</ele>
        <time>2019-07-16T07:10:54Z</time>
      </trkpt>
      <trkpt lat="44.08809" lon="6.915">
        <ele>1630.3</ele>
        <time>2019-07-16T07:10:57Z</time>
      </trkpt>
      <trkpt lat="44.0881" lon="6.91505">
        <ele>1630.6</ele>
        <time>2019-07-16T07:11:00Z</time>
      </trkpt>
      <trkpt lat="44.0881" lon="6.91511">
        <ele>1630.9</ele>
        <time>2019-07-16T07:11:03Z</time>
      </trkpt>
      <trkpt lat="44.0881" lon="6.91515">
        <ele>1631.2</ele>
        <time>2019-07-16T07:11:05Z</time>
      </trkpt>
      <trkpt lat="44.08811" lon="6.91521">
        <ele>1631.5</ele>
        <time>2019-07-16T07:11:08Z</time>
      </trkpt>
      <trkpt lat="44.08812" lon="6.91526">
        <ele>1632</ele>
        <time>2019-07-16T07:11:10Z</time>
      </trkpt>
      <trkpt lat="44.08813" lon="6.9153">
        <ele>1632.3</ele>
        <time>2019-07-16T07:11:12Z</time>
      </trkpt>
      <trkpt lat="44.08813" lon="6.91535">
        <ele>1632.7</ele>
        <time>2019-07-16T07:11:14Z</time>
      </trkpt>
      <trkpt lat="44.08813" lon="6.9154">
        <ele>1632.9</ele>
        <time>2019-07-16T07:11:16Z</time>
      </trkpt>
      <trkpt lat="44.08814" lon="6.91544">
        <ele>1633.2</ele>
        <time>2019-07-16T07:11:19Z</time>
      </trkpt>
      <trkpt lat="44.08814" lon="6.9155">
        <ele>1633.4</ele>
        <time>2019-07-16T07:11:22Z</time>
      </trkpt>
      <trkpt lat="44.08814" lon="6.91555">
        <ele>1633.7</ele>
        <time>2019-07-16T07:11:24Z</time>
      </trkpt>
      <trkpt lat="44.08814" lon="6.91558">
        <ele>1633.8</ele>
        <time>2019-07-16T07:11:26Z</time>
      </trkpt>
      <trkpt lat="44.08815" lon="6.91562">
        <ele>1634</ele>
        <time>2019-07-16T07:11:28Z</time>
      </trkpt>
      <trkpt lat="44.08816" lon="6.91567">
        <ele>1634.2</ele>
        <time>2019-07-16T07:11:30Z</time>
      </trkpt>
      <trkpt lat="44.08817" lon="6.91571">
        <ele>1634.4</ele>
        <time>2019-07-16T07:11:32Z</time>
      </trkpt>
      <trkpt lat="44.08819" lon="6.91576">
        <ele>1634.6</ele>
        <time>2019-07-16T07:11:35Z</time>
      </trkpt>
      <trkpt lat="44.0882" lon="6.9158">
        <ele>1634.9</ele>
        <time>2019-07-16T07:11:38Z</time>
      </trkpt>
      <trkpt lat="44.0882" lon="6.91584">
        <ele>1635.3</ele>
        <time>2019-07-16T07:11:40Z</time>
      </trkpt>
      <trkpt lat="44.08821" lon="6.91589">
        <ele>1635.6</ele>
        <time>2019-07-16T07:11:42Z</time>
      </trkpt>
      <trkpt lat="44.08823" lon="6.91593">
        <ele>1635.9</ele>
        <time>2019-07-16T07:11:44Z</time>
      </trkpt>
      <trkpt lat="44.08825" lon="6.91596">
        <ele>1636.2</ele>
        <time>2019-07-16T07:11:46Z</time>
      </trkpt>
      <trkpt lat="44.08826" lon="6.916">
        <ele>1636.5</ele>
        <time>2019-07-16T07:11:48Z</time>
      </trkpt>
      <trkpt lat="44.08827" lon="6.91604">
        <ele>1636.8</ele>
        <time>2019-07-16T07:11:50Z</time>
      </trkpt>
      <trkpt lat="44.08828" lon="6.9161">
        <ele>1637.1</ele>
        <time>2019-07-16T07:11:53Z</time>
      </trkpt>
      <trkpt lat="44.0883" lon="6.91615">
        <ele>1637.4</ele>
        <time>2019-07-16T07:11:55Z</time>
      </trkpt>
      <trkpt lat="44.08832" lon="6.9162">
        <ele>1637.7</ele>
        <time>2019-07-16T07:11:57Z</time>
      </trkpt>
      <trkpt lat="44.08834" lon="6.91623">
        <ele>1637.9</ele>
        <time>2019-07-16T07:11:59Z</time>
      </trkpt>
      <trkpt lat="44.08835" lon="6.91628">
        <ele>1638.2</ele>
        <time>2019-07-16T07:12:01Z</time>
      </trkpt>
      <trkpt lat="44.08837" lon="6.91634">
        <ele>1638.6</ele>
        <time>2019-07-16T07:12:03Z</time>
      </trkpt>
      <trkpt lat="44.08839" lon="6.91638">
        <ele>1639</ele>
        <time>2019-07-16T07:12:05Z</time>
      </trkpt>
      <trkpt lat="44.08841" lon="6.91641">
        <ele>1639.3</ele>
        <time>2019-07-16T07:12:07Z</time>
      </trkpt>
      <trkpt lat="44.08842" lon="6.91645">
        <ele>1639.6</ele>
        <time>2019-07-16T07:12:09Z</time>
      </trkpt>
      <trkpt lat="44.08844" lon="6.91649">
        <ele>1639.8</ele>
        <time>2019-07-16T07:12:12Z</time>
      </trkpt>
      <trkpt lat="44.08845" lon="6.91653">
        <ele>1640</ele>
        <time>2019-07-16T07:12:14Z</time>
      </trkpt>
      <trkpt lat="44.08846" lon="6.91657">
        <ele>1640.2</ele>
        <time>2019-07-16T07:12:17Z</time>
      </trkpt>
      <trkpt lat="44.08846" lon="6.91661">
        <ele>1640.5</ele>
        <time>2019-07-16T07:12:20Z</time>
      </trkpt>
      <trkpt lat="44.08846" lon="6.9167">
        <ele>1640.9</ele>
        <time>2019-07-16T07:14:27Z</time>
      </trkpt>
      <trkpt lat="44.08847" lon="6.91675">
        <ele>1641.2</ele>
        <time>2019-07-16T07:14:29Z</time>
      </trkpt>
      <trkpt lat="44.08847" lon="6.91679">
        <ele>1641.4</ele>
        <time>2019-07-16T07:14:31Z</time>
      </trkpt>
      <trkpt lat="44.08847" lon="6.91684">
        <ele>1641.8</ele>
        <time>2019-07-16T07:14:33Z</time>
      </trkpt>
      <trkpt lat="44.08848" lon="6.91689">
        <ele>1642.1</ele>
        <time>2019-07-16T07:14:35Z</time>
      </trkpt>
      <trkpt lat="44.0885" lon="6.91694">
        <ele>1642.4</ele>
        <time>2019-07-16T07:14:37Z</time>
      </trkpt>
      <trkpt lat="44.08851" lon="6.91699">
        <ele>1642.7</ele>
        <time>2019-07-16T07:14:39Z</time>
      </trkpt>
      <trkpt lat="44.08851" lon="6.91703">
        <ele>1642.9</ele>
        <time>2019-07-16T07:14:41Z</time>
      </trkpt>
      <trkpt lat="44.08852" lon="6.91707">
        <ele>1643.1</ele>
        <time>2019-07-16T07:14:43Z</time>
      </trkpt>
      <trkpt lat="44.08853" lon="6.91712">
        <ele>1643.3</ele>
        <time>2019-07-16T07:14:45Z</time>
      </trkpt>
      <trkpt lat="44.08854" lon="6.91715">
        <ele>1643.6</ele>
        <time>2019-07-16T07:14:47Z</time>
      </trkpt>
      <trkpt lat="44.08856" lon="6.9172">
        <ele>1644</ele>
        <time>2019-07-16T07:14:49Z</time>
      </trkpt>
      <trkpt lat="44.08858" lon="6.91727">
        <ele>1644.5</ele>
        <time>2019-07-16T07:14:51Z</time>
      </trkpt>
      <trkpt lat="44.08861" lon="6.91732">
        <ele>1644.8</ele>
        <time>2019-07-16T07:14:53Z</time>
      </trkpt>
      <trkpt lat="44.08862" lon="6.91736">
        <ele>1645.1</ele>
        <time>2019-07-16T07:14:55Z</time>
      </trkpt>
      <trkpt lat="44.08866" lon="6.9174">
        <ele>1645.4</ele>
        <time>2019-07-16T07:14:57Z</time>
      </trkpt>
      <trkpt lat="44.08869" lon="6.91743">
        <ele>1645.8</ele>
        <time>2019-07-16T07:14:59Z</time>
      </trkpt>
      <trkpt lat="44.08872" lon="6.91747">
        <ele>1646.2</ele>
        <time>2019-07-16T07:15:01Z</time>
      </trkpt>
      <trkpt lat="44.08875" lon="6.9175">
        <ele>1646.5</ele>
        <time>2019-07-16T07:15:03Z</time>
      </trkpt>
      <trkpt lat="44.08878" lon="6.91753">
        <ele>1646.8</ele>
        <time>2019-07-16T07:15:05Z</time>
      </trkpt>
      <trkpt lat="44.08881" lon="6.91756">
        <ele>1647.1</ele>
        <time>2019-07-16T07:15:07Z</time>
      </trkpt>
      <trkpt lat="44.08885" lon="6.91758">
        <ele>1647.5</ele>
        <time>2019-07-16T07:15:09Z</time>
      </trkpt>
      <trkpt lat="44.08887" lon="6.91759">
        <ele>1647.7</ele>
        <time>2019-07-16T07:15:11Z</time>
      </trkpt>
      <trkpt lat="44.08891" lon="6.91761">
        <ele>1648</ele>
        <time>2019-07-16T07:15:13Z</time>
      </trkpt>
      <trkpt lat="44.08894" lon="6.91761">
        <ele>1648.2</ele>
        <time>2019-07-16T07:15:16Z</time>
      </trkpt>
      <trkpt lat="44.08897" lon="6.91762">
        <ele>1648.5</ele>
        <time>2019-07-16T07:15:18Z</time>
      </trkpt>
      <trkpt lat="44.089" lon="6.91764">
        <ele>1648.7</ele>
        <time>2019-07-16T07:15:20Z</time>
      </trkpt>
      <trkpt lat="44.08903" lon="6.91766">
        <ele>1649.1</ele>
        <time>2019-07-16T07:15:22Z</time>
      </trkpt>
      <trkpt lat="44.08906" lon="6.91767">
        <ele>1649.5</ele>
        <time>2019-07-16T07:15:24Z</time>
      </trkpt>
      <trkpt lat="44.08909" lon="6.9177">
        <ele>1649.8</ele>
        <time>2019-07-16T07:15:26Z</time>
      </trkpt>
      <trkpt lat="44.08912" lon="6.91772">
        <ele>1650.1</ele>
        <time>2019-07-16T07:15:28Z</time>
      </trkpt>
      <trkpt lat="44.08914" lon="6.91775">
        <ele>1650.3</ele>
        <time>2019-07-16T07:15:30Z</time>
      </trkpt>
      <trkpt lat="44.08917" lon="6.91777">
        <ele>1650.7</ele>
        <time>2019-07-16T07:15:32Z</time>
      </trkpt>
      <trkpt lat="44.0892" lon="6.91779">
        <ele>1651</ele>
        <time>2019-07-16T07:15:34Z</time>
      </trkpt>
      <trkpt lat="44.08923" lon="6.91781">
        <ele>1651.4</ele>
        <time>2019-07-16T07:15:36Z</time>
      </trkpt>
      <trkpt lat="44.08926" lon="6.91784">
        <ele>1651.8</ele>
        <time>2019-07-16T07:15:38Z</time>
      </trkpt>
      <trkpt lat="44.0893" lon="6.91786">
        <ele>1652.2</ele>
        <time>2019-07-16T07:15:40Z</time>
      </trkpt>
      <trkpt lat="44.08932" lon="6.91789">
        <ele>1652.6</ele>
        <time>2019-07-16T07:15:42Z</time>
      </trkpt>
      <trkpt lat="44.08934" lon="6.91792">
        <ele>1653</ele>
        <time>2019-07-16T07:15:44Z</time>
      </trkpt>
      <trkpt lat="44.08937" lon="6.91796">
        <ele>1653.4</ele>
        <time>2019-07-16T07:15:46Z</time>
      </trkpt>
      <trkpt lat="44.08939" lon="6.918">
        <ele>1653.6</ele>
        <time>2019-07-16T07:15:48Z</time>
      </trkpt>
      <trkpt lat="44.0894" lon="6.91804">
        <ele>1653.9</ele>
        <time>2019-07-16T07:15:51Z</time>
      </trkpt>
      <trkpt lat="44.08941" lon="6.91808">
        <ele>1654.1</ele>
        <time>2019-07-16T07:15:53Z</time>
      </trkpt>
      <trkpt lat="44.08941" lon="6.91813">
        <ele>1654.3</ele>
        <time>2019-07-16T07:15:55Z</time>
      </trkpt>
      <trkpt lat="44.08941" lon="6.91818">
        <ele>1654.7</ele>
        <time>2019-07-16T07:15:58Z</time>
      </trkpt>
      <trkpt lat="44.0894" lon="6.91823">
        <ele>1655.1</ele>
        <time>2019-07-16T07:16:01Z</time>
      </trkpt>
      <trkpt lat="44.0894" lon="6.91828">
        <ele>1655.4</ele>
        <time>2019-07-16T07:16:03Z</time>
      </trkpt>
      <trkpt lat="44.08939" lon="6.91832">
        <ele>1655.6</ele>
        <time>2019-07-16T07:16:05Z</time>
      </trkpt>
      <trkpt lat="44.08939" lon="6.91836">
        <ele>1655.9</ele>
        <time>2019-07-16T07:16:08Z</time>
      </trkpt>
      <trkpt lat="44.08938" lon="6.91841">
        <ele>1656.2</ele>
        <time>2019-07-16T07:16:11Z</time>
      </trkpt>
      <trkpt lat="44.08938" lon="6.91847">
        <ele>1656.5</ele>
        <time>2019-07-16T07:16:14Z</time>
      </trkpt>
      <trkpt lat="44.08938" lon="6.91851">
        <ele>1656.6</ele>
        <time>2019-07-16T07:16:16Z</time>
      </trkpt>
      <trkpt lat="44.08938" lon="6.91855">
        <ele>1656.8</ele>
        <time>2019-07-16T07:16:19Z</time>
      </trkpt>
      <trkpt lat="44.08938" lon="6.91859">
        <ele>1656.9</ele>
        <time>2019-07-16T07:16:21Z</time>
      </trkpt>
      <trkpt lat="44.08938" lon="6.91864">
        <ele>1657.1</ele>
        <time>2019-07-16T07:16:23Z</time>
      </trkpt>
      <trkpt lat="44.08938" lon="6.91868">
        <ele>1657.2</ele>
        <time>2019-07-16T07:16:25Z</time>
      </trkpt>
      <trkpt lat="44.08938" lon="6.91872">
        <ele>1657.4</ele>
        <time>2019-07-16T07:16:27Z</time>
      </trkpt>
      <trkpt lat="44.08939" lon="6.91876">
        <ele>1657.5</ele>
        <time>2019-07-16T07:16:29Z</time>
      </trkpt>
      <trkpt lat="44.08939" lon="6.91882">
        <ele>1657.7</ele>
        <time>2019-07-16T07:16:32Z</time>
      </trkpt>
      <trkpt lat="44.0894" lon="6.91886">
        <ele>1657.8</ele>
        <time>2019-07-16T07:16:34Z</time>
      </trkpt>
      <trkpt lat="44.08941" lon="6.91891">
        <ele>1658</ele>
        <time>2019-07-16T07:16:36Z</time>
      </trkpt>
      <trkpt lat="44.08942" lon="6.91894">
        <ele>1658.1</ele>
        <time>2019-07-16T07:16:38Z</time>
      </trkpt>
      <trkpt lat="44.08943" lon="6.91898">
        <ele>1658.2</ele>
        <time>2019-07-16T07:16:40Z</time>
      </trkpt>
      <trkpt lat="44.08944" lon="6.91902">
        <ele>1658.4</ele>
        <time>2019-07-16T07:16:42Z</time>
      </trkpt>
      <trkpt lat="44.08945" lon="6.91907">
        <ele>1658.5</ele>
        <time>2019-07-16T07:16:44Z</time>
      </trkpt>
      <trkpt lat="44.08947" lon="6.91912">
        <ele>1658.6</ele>
        <time>2019-07-16T07:16:46Z</time>
      </trkpt>
      <trkpt lat="44.08949" lon="6.91918">
        <ele>1658.8</ele>
        <time>2019-07-16T07:16:48Z</time>
      </trkpt>
      <trkpt lat="44.08951" lon="6.91925">
        <ele>1659</ele>
        <time>2019-07-16T07:16:50Z</time>
      </trkpt>
      <trkpt lat="44.08954" lon="6.9193">
        <ele>1659.2</ele>
        <time>2019-07-16T07:16:52Z</time>
      </trkpt>
      <trkpt lat="44.08955" lon="6.91934">
        <ele>1659.3</ele>
        <time>2019-07-16T07:16:55Z</time>
      </trkpt>
      <trkpt lat="44.08957" lon="6.91938">
        <ele>1659.4</ele>
        <time>2019-07-16T07:16:59Z</time>
      </trkpt>
      <trkpt lat="44.08958" lon="6.91942">
        <ele>1659.5</ele>
        <time>2019-07-16T07:17:01Z</time>
      </trkpt>
      <trkpt lat="44.08958" lon="6.91947">
        <ele>1659.6</ele>
        <time>2019-07-16T07:17:13Z</time>
      </trkpt>
      <trkpt lat="44.08962" lon="6.91949">
        <ele>1659.7</ele>
        <time>2019-07-16T07:17:16Z</time>
      </trkpt>
      <trkpt lat="44.08964" lon="6.91945">
        <ele>1659.8</ele>
        <time>2019-07-16T07:17:17Z</time>
      </trkpt>
      <trkpt lat="44.08965" lon="6.91941">
        <ele>1659.9</ele>
        <time>2019-07-16T07:17:18Z</time>
      </trkpt>
      <trkpt lat="44.08966" lon="6.91938">
        <ele>1660</ele>
        <time>2019-07-16T07:17:19Z</time>
      </trkpt>
      <trkpt lat="44.08965" lon="6.91932">
        <ele>1660.1</ele>
        <time>2019-07-16T07:17:21Z</time>
      </trkpt>
      <trkpt lat="44.08963" lon="6.91928">
        <ele>1660.3</ele>
        <time>2019-07-16T07:17:23Z</time>
      </trkpt>
      <trkpt lat="44.08962" lon="6.91924">
        <ele>1660.4</ele>
        <time>2019-07-16T07:17:27Z</time>
      </trkpt>
      <trkpt lat="44.0896" lon="6.91919">
        <ele>1660.5</ele>
        <time>2019-07-16T07:17:36Z</time>
      </trkpt>
      <trkpt lat="44.08957" lon="6.9192">
        <ele>1660.6</ele>
        <time>2019-07-16T07:17:37Z</time>
      </trkpt>
      <trkpt lat="44.08955" lon="6.91923">
        <ele>1660.7</ele>
        <time>2019-07-16T07:17:38Z</time>
      </trkpt>
      <trkpt lat="44.08955" lon="6.91928">
        <ele>1660.8</ele>
        <time>2019-07-16T07:17:40Z</time>
      </trkpt>
      <trkpt lat="44.08953" lon="6.91932">
        <ele>1660.8</ele>
        <time>2019-07-16T07:17:55Z</time>
      </trkpt>
      <trkpt lat="44.08955" lon="6.91936">
        <ele>1660.9</ele>
        <time>2019-07-16T07:18:00Z</time>
      </trkpt>
      <trkpt lat="44.08957" lon="6.91943">
        <ele>1661.1</ele>
        <time>2019-07-16T07:19:04Z</time>
      </trkpt>
      <trkpt lat="44.08958" lon="6.91947">
        <ele>1661.2</ele>
        <time>2019-07-16T07:19:06Z</time>
      </trkpt>
      <trkpt lat="44.08959" lon="6.91951">
        <ele>1661.3</ele>
        <time>2019-07-16T07:19:08Z</time>
      </trkpt>
      <trkpt lat="44.0896" lon="6.91956">
        <ele>1661.4</ele>
        <time>2019-07-16T07:19:10Z</time>
      </trkpt>
      <trkpt lat="44.0896" lon="6.91962">
        <ele>1661.5</ele>
        <time>2019-07-16T07:19:12Z</time>
      </trkpt>
      <trkpt lat="44.08961" lon="6.91968">
        <ele>1661.6</ele>
        <time>2019-07-16T07:19:14Z</time>
      </trkpt>
      <trkpt lat="44.08961" lon="6.91974">
        <ele>1661.7</ele>
        <time>2019-07-16T07:19:16Z</time>
      </trkpt>
      <trkpt lat="44.08962" lon="6.91981">
        <ele>1661.8</ele>
        <time>2019-07-16T07:19:18Z</time>
      </trkpt>
      <trkpt lat="44.08963" lon="6.91988">
        <ele>1661.9</ele>
        <time>2019-07-16T07:19:20Z</time>
      </trkpt>
      <trkpt lat="44.08965" lon="6.91992">
        <ele>1662</ele>
        <time>2019-07-16T07:19:21Z</time>
      </trkpt>
      <trkpt lat="44.08965" lon="6.91996">
        <ele>1662.1</ele>
        <time>2019-07-16T07:19:22Z</time>
      </trkpt>
      <trkpt lat="44.08966" lon="6.92003">
        <ele>1662.2</ele>
        <time>2019-07-16T07:19:24Z</time>
      </trkpt>
      <trkpt lat="44.08966" lon="6.92008">
        <ele>1662.3</ele>
        <time>2019-07-16T07:19:25Z</time>
      </trkpt>
      <trkpt lat="44.08966" lon="6.92012">
        <ele>1662.3</ele>
        <time>2019-07-16T07:19:26Z</time>
      </trkpt>
      <trkpt lat="44.08968" lon="6.92017">
        <ele>1662.4</ele>
        <time>2019-07-16T07:19:27Z</time>
      </trkpt>
      <trkpt lat="44.08969" lon="6.92021">
        <ele>1662.5</ele>
        <time>2019-07-16T07:19:28Z</time>
      </trkpt>
      <trkpt lat="44.0897" lon="6.92026">
        <ele>1662.6</ele>
        <time>2019-07-16T07:19:29Z</time>
      </trkpt>
      <trkpt lat="44.08972" lon="6.9203">
        <ele>1662.8</ele>
        <time>2019-07-16T07:19:30Z</time>
      </trkpt>
      <trkpt lat="44.08973" lon="6.92035">
        <ele>1662.9</ele>
        <time>2019-07-16T07:19:31Z</time>
      </trkpt>
      <trkpt lat="44.08974" lon="6.92039">
        <ele>1663</ele>
        <time>2019-07-16T07:19:32Z</time>
      </trkpt>
      <trkpt lat="44.08975" lon="6.92043">
        <ele>1663.1</ele>
        <time>2019-07-16T07:19:33Z</time>
      </trkpt>
      <trkpt lat="44.08976" lon="6.92047">
        <ele>1663.2</ele>
        <time>2019-07-16T07:19:34Z</time>
      </trkpt>
      <trkpt lat="44.08977" lon="6.92052">
        <ele>1663.3</ele>
        <time>2019-07-16T07:19:35Z</time>
      </trkpt>
      <trkpt lat="44.08978" lon="6.92057">
        <ele>1663.4</ele>
        <time>2019-07-16T07:19:36Z</time>
      </trkpt>
      <trkpt lat="44.08979" lon="6.92062">
        <ele>1663.6</ele>
        <time>2019-07-16T07:19:37Z</time>
      </trkpt>
      <trkpt lat="44.0898" lon="6.92067">
        <ele>1663.8</ele>
        <time>2019-07-16T07:19:38Z</time>
      </trkpt>
      <trkpt lat="44.08981" lon="6.92072">
        <ele>1664</ele>
        <time>2019-07-16T07:19:39Z</time>
      </trkpt>
      <trkpt lat="44.08982" lon="6.92076">
        <ele>1664.1</ele>
        <time>2019-07-16T07:19:40Z</time>
      </trkpt>
      <trkpt lat="44.08982" lon="6.92081">
        <ele>1664.3</ele>
        <time>2019-07-16T07:19:41Z</time>
      </trkpt>
      <trkpt lat="44.08983" lon="6.92086">
        <ele>1664.4</ele>
        <time>2019-07-16T07:19:42Z</time>
      </trkpt>
      <trkpt lat="44.08984" lon="6.92091">
        <ele>1664.6</ele>
        <time>2019-07-16T07:19:43Z</time>
      </trkpt>
      <trkpt lat="44.08985" lon="6.92096">
        <ele>1664.7</ele>
        <time>2019-07-16T07:19:44Z</time>
      </trkpt>
      <trkpt lat="44.08984" lon="6.92103">
        <ele>1665</ele>
        <time>2019-07-16T07:19:46Z</time>
      </trkpt>
      <trkpt lat="44.08984" lon="6.92111">
        <ele>1665.3</ele>
        <time>2019-07-16T07:19:48Z</time>
      </trkpt>
      <trkpt lat="44.08985" lon="6.92116">
        <ele>1665.4</ele>
        <time>2019-07-16T07:19:49Z</time>
      </trkpt>
      <trkpt lat="44.08987" lon="6.9212">
        <ele>1665.5</ele>
        <time>2019-07-16T07:19:50Z</time>
      </trkpt>
      <trkpt lat="44.08988" lon="6.92124">
        <ele>1665.6</ele>
        <time>2019-07-16T07:19:51Z</time>
      </trkpt>
      <trkpt lat="44.0899" lon="6.92129">
        <ele>1665.7</ele>
        <time>2019-07-16T07:19:52Z</time>
      </trkpt>
      <trkpt lat="44.08991" lon="6.92134">
        <ele>1665.9</ele>
        <time>2019-07-16T07:19:53Z</time>
      </trkpt>
      <trkpt lat="44.08993" lon="6.92139">
        <ele>1666</ele>
        <time>2019-07-16T07:19:54Z</time>
      </trkpt>
      <trkpt lat="44.08996" lon="6.92144">
        <ele>1666.2</ele>
        <time>2019-07-16T07:19:55Z</time>
      </trkpt>
      <trkpt lat="44.08997" lon="6.92149">
        <ele>1666.3</ele>
        <time>2019-07-16T07:19:56Z</time>
      </trkpt>
      <trkpt lat="44.08999" lon="6.92153">
        <ele>1666.4</ele>
        <time>2019-07-16T07:19:57Z</time>
      </trkpt>
      <trkpt lat="44.09002" lon="6.92158">
        <ele>1666.6</ele>
        <time>2019-07-16T07:19:58Z</time>
      </trkpt>
      <trkpt lat="44.09004" lon="6.92163">
        <ele>1666.7</ele>
        <time>2019-07-16T07:19:59Z</time>
      </trkpt>
      <trkpt lat="44.09006" lon="6.92167">
        <ele>1666.8</ele>
        <time>2019-07-16T07:20:00Z</time>
      </trkpt>
      <trkpt lat="44.09009" lon="6.92172">
        <ele>1666.9</ele>
        <time>2019-07-16T07:20:01Z</time>
      </trkpt>
      <trkpt lat="44.09012" lon="6.92176">
        <ele>1667</ele>
        <time>2019-07-16T07:20:02Z</time>
      </trkpt>
      <trkpt lat="44.09014" lon="6.9218">
        <ele>1667.1</ele>
        <time>2019-07-16T07:20:03Z</time>
      </trkpt>
      <trkpt lat="44.09016" lon="6.92184">
        <ele>1667.2</ele>
        <time>2019-07-16T07:20:04Z</time>
      </trkpt>
      <trkpt lat="44.09019" lon="6.92189">
        <ele>1667.4</ele>
        <time>2019-07-16T07:20:05Z</time>
      </trkpt>
      <trkpt lat="44.09021" lon="6.92193">
        <ele>1667.5</ele>
        <time>2019-07-16T07:20:06Z</time>
      </trkpt>
      <trkpt lat="44.09023" lon="6.92197">
        <ele>1667.7</ele>
        <time>2019-07-16T07:20:07Z</time>
      </trkpt>
      <trkpt lat="44.09025" lon="6.92202">
        <ele>1667.8</ele>
        <time>2019-07-16T07:20:08Z</time>
      </trkpt>
      <trkpt lat="44.09027" lon="6.92206">
        <ele>1668</ele>
        <time>2019-07-16T07:20:09Z</time>
      </trkpt>
      <trkpt lat="44.09028" lon="6.92211">
        <ele>1668.2</ele>
        <time>2019-07-16T07:20:10Z</time>
      </trkpt>
      <trkpt lat="44.0903" lon="6.92216">
        <ele>1668.4</ele>
        <time>2019-07-16T07:20:11Z</time>
      </trkpt>
      <trkpt lat="44.09032" lon="6.92221">
        <ele>1668.5</ele>
        <time>2019-07-16T07:20:12Z</time>
      </trkpt>
      <trkpt lat="44.09033" lon="6.92225">
        <ele>1668.6</ele>
        <time>2019-07-16T07:20:13Z</time>
      </trkpt>
      <trkpt lat="44.09035" lon="6.9223">
        <ele>1668.7</ele>
        <time>2019-07-16T07:20:14Z</time>
      </trkpt>
      <trkpt lat="44.09036" lon="6.92234">
        <ele>1668.8</ele>
        <time>2019-07-16T07:20:15Z</time>
      </trkpt>
      <trkpt lat="44.09037" lon="6.92239">
        <ele>1668.9</ele>
        <time>2019-07-16T07:20:16Z</time>
      </trkpt>
      <trkpt lat="44.09038" lon="6.92244">
        <ele>1669.1</ele>
        <time>2019-07-16T07:20:17Z</time>
      </trkpt>
      <trkpt lat="44.09039" lon="6.92248">
        <ele>1669.2</ele>
        <time>2019-07-16T07:20:18Z</time>
      </trkpt>
      <trkpt lat="44.09041" lon="6.92252">
        <ele>1669.3</ele>
        <time>2019-07-16T07:20:19Z</time>
      </trkpt>
      <trkpt lat="44.09042" lon="6.92256">
        <ele>1669.4</ele>
        <time>2019-07-16T07:20:20Z</time>
      </trkpt>
      <trkpt lat="44.09043" lon="6.9226">
        <ele>1669.5</ele>
        <time>2019-07-16T07:20:21Z</time>
      </trkpt>
      <trkpt lat="44.09044" lon="6.92265">
        <ele>1669.6</ele>
        <time>2019-07-16T07:20:22Z</time>
      </trkpt>
      <trkpt lat="44.09046" lon="6.92269">
        <ele>1669.7</ele>
        <time>2019-07-16T07:20:23Z</time>
      </trkpt>
      <trkpt lat="44.09048" lon="6.92274">
        <ele>1669.8</ele>
        <time>2019-07-16T07:20:24Z</time>
      </trkpt>
      <trkpt lat="44.09049" lon="6.92278">
        <ele>1670</ele>
        <time>2019-07-16T07:20:25Z</time>
      </trkpt>
      <trkpt lat="44.09051" lon="6.92282">
        <ele>1670.1</ele>
        <time>2019-07-16T07:20:26Z</time>
      </trkpt>
      <trkpt lat="44.09052" lon="6.92287">
        <ele>1670.3</ele>
        <time>2019-07-16T07:20:27Z</time>
      </trkpt>
      <trkpt lat="44.09054" lon="6.92291">
        <ele>1670.4</ele>
        <time>2019-07-16T07:20:28Z</time>
      </trkpt>
      <trkpt lat="44.09055" lon="6.92295">
        <ele>1670.5</ele>
        <time>2019-07-16T07:20:29Z</time>
      </trkpt>
      <trkpt lat="44.09056" lon="6.92299">
        <ele>1670.7</ele>
        <time>2019-07-16T07:20:30Z</time>
      </trkpt>
      <trkpt lat="44.09057" lon="6.92303">
        <ele>1670.8</ele>
        <time>2019-07-16T07:20:31Z</time>
      </trkpt>
      <trkpt lat="44.09058" lon="6.92307">
        <ele>1670.9</ele>
        <time>2019-07-16T07:20:32Z</time>
      </trkpt>
      <trkpt lat="44.09059" lon="6.92312">
        <ele>1671</ele>
        <time>2019-07-16T07:20:33Z</time>
      </trkpt>
      <trkpt lat="44.0906" lon="6.92316">
        <ele>1671.1</ele>
        <time>2019-07-16T07:20:34Z</time>
      </trkpt>
      <trkpt lat="44.09061" lon="6.92321">
        <ele>1671.2</ele>
        <time>2019-07-16T07:20:35Z</time>
      </trkpt>
      <trkpt lat="44.09062" lon="6.92325">
        <ele>1671.4</ele>
        <time>2019-07-16T07:20:36Z</time>
      </trkpt>
      <trkpt lat="44.09063" lon="6.9233">
        <ele>1671.5</ele>
        <time>2019-07-16T07:20:37Z</time>
      </trkpt>
      <trkpt lat="44.09063" lon="6.92335">
        <ele>1671.6</ele>
        <time>2019-07-16T07:20:38Z</time>
      </trkpt>
      <trkpt lat="44.09063" lon="6.92339">
        <ele>1671.8</ele>
        <time>2019-07-16T07:20:39Z</time>
      </trkpt>
      <trkpt lat="44.09064" lon="6.92344">
        <ele>1671.9</ele>
        <time>2019-07-16T07:20:40Z</time>
      </trkpt>
      <trkpt lat="44.09065" lon="6.92349">
        <ele>1672.1</ele>
        <time>2019-07-16T07:20:41Z</time>
      </trkpt>
      <trkpt lat="44.09066" lon="6.92354">
        <ele>1672.3</ele>
        <time>2019-07-16T07:20:42Z</time>
      </trkpt>
      <trkpt lat="44.09067" lon="6.92358">
        <ele>1672.4</ele>
        <time>2019-07-16T07:20:43Z</time>
      </trkpt>
      <trkpt lat="44.09067" lon="6.92362">
        <ele>1672.6</ele>
        <time>2019-07-16T07:20:44Z</time>
      </trkpt>
      <trkpt lat="44.09067" lon="6.92366">
        <ele>1672.8</ele>
        <time>2019-07-16T07:20:45Z</time>
      </trkpt>
      <trkpt lat="44.09067" lon="6.9237">
        <ele>1672.9</ele>
        <time>2019-07-16T07:20:46Z</time>
      </trkpt>
      <trkpt lat="44.09067" lon="6.92375">
        <ele>1673.1</ele>
        <time>2019-07-16T07:20:47Z</time>
      </trkpt>
      <trkpt lat="44.09067" lon="6.9238">
        <ele>1673.4</ele>
        <time>2019-07-16T07:20:48Z</time>
      </trkpt>
      <trkpt lat="44.09068" lon="6.92384">
        <ele>1673.6</ele>
        <time>2019-07-16T07:20:49Z</time>
      </trkpt>
      <trkpt lat="44.09068" lon="6.92389">
        <ele>1673.8</ele>
        <time>2019-07-16T07:20:50Z</time>
      </trkpt>
      <trkpt lat="44.09068" lon="6.92394">
        <ele>1674</ele>
        <time>2019-07-16T07:20:51Z</time>
      </trkpt>
      <trkpt lat="44.09069" lon="6.92398">
        <ele>1674.2</ele>
        <time>2019-07-16T07:20:52Z</time>
      </trkpt>
      <trkpt lat="44.09069" lon="6.92403">
        <ele>1674.4</ele>
        <time>2019-07-16T07:20:53Z</time>
      </trkpt>
      <trkpt lat="44.09069" lon="6.92407">
        <ele>1674.6</ele>
        <time>2019-07-16T07:20:54Z</time>
      </trkpt>
      <trkpt lat="44.09069" lon="6.92412">
        <ele>1674.7</ele>
        <time>2019-07-16T07:20:55Z</time>
      </trkpt>
      <trkpt lat="44.09069" lon="6.92416">
        <ele>1674.8</ele>
        <time>2019-07-16T07:20:56Z</time>
      </trkpt>
      <trkpt lat="44.09069" lon="6.92421">
        <ele>1675</ele>
        <time>2019-07-16T07:20:57Z</time>
      </trkpt>
      <trkpt lat="44.0907" lon="6.92425">
        <ele>1675.1</ele>
        <time>2019-07-16T07:20:58Z</time>
      </trkpt>
      <trkpt lat="44.09071" lon="6.9243">
        <ele>1675.2</ele>
        <time>2019-07-16T07:20:59Z</time>
      </trkpt>
      <trkpt lat="44.09071" lon="6.92435">
        <ele>1675.3</ele>
        <time>2019-07-16T07:21:00Z</time>
      </trkpt>
      <trkpt lat="44.09072" lon="6.92439">
        <ele>1675.5</ele>
        <time>2019-07-16T07:21:01Z</time>
      </trkpt>
      <trkpt lat="44.09072" lon="6.92444">
        <ele>1675.6</ele>
        <time>2019-07-16T07:21:02Z</time>
      </trkpt>
      <trkpt lat="44.09073" lon="6.92448">
        <ele>1675.7</ele>
        <time>2019-07-16T07:21:03Z</time>
      </trkpt>
      <trkpt lat="44.09074" lon="6.92453">
        <ele>1676</ele>
        <time>2019-07-16T07:21:04Z</time>
      </trkpt>
      <trkpt lat="44.09075" lon="6.92458">
        <ele>1676.3</ele>
        <time>2019-07-16T07:21:05Z</time>
      </trkpt>
      <trkpt lat="44.09077" lon="6.92463">
        <ele>1676.6</ele>
        <time>2019-07-16T07:21:06Z</time>
      </trkpt>
      <trkpt lat="44.09079" lon="6.92468">
        <ele>1676.9</ele>
        <time>2019-07-16T07:21:07Z</time>
      </trkpt>
      <trkpt lat="44.09081" lon="6.92472">
        <ele>1677.1</ele>
        <time>2019-07-16T07:21:08Z</time>
      </trkpt>
      <trkpt lat="44.09084" lon="6.92476">
        <ele>1677.3</ele>
        <time>2019-07-16T07:21:09Z</time>
      </trkpt>
      <trkpt lat="44.09087" lon="6.92478">
        <ele>1677.4</ele>
        <time>2019-07-16T07:21:10Z</time>
      </trkpt>
      <trkpt lat="44.0909" lon="6.92479">
        <ele>1677.6</ele>
        <time>2019-07-16T07:21:11Z</time>
      </trkpt>
      <trkpt lat="44.09095" lon="6.92479">
        <ele>1677.7</ele>
        <time>2019-07-16T07:21:12Z</time>
      </trkpt>
      <trkpt lat="44.09101" lon="6.92479">
        <ele>1678</ele>
        <time>2019-07-16T07:21:13Z</time>
      </trkpt>
      <trkpt lat="44.09105" lon="6.92479">
        <ele>1678.1</ele>
        <time>2019-07-16T07:21:14Z</time>
      </trkpt>
      <trkpt lat="44.0911" lon="6.92479">
        <ele>1678.3</ele>
        <time>2019-07-16T07:21:15Z</time>
      </trkpt>
      <trkpt lat="44.09115" lon="6.9248">
        <ele>1678.5</ele>
        <time>2019-07-16T07:21:16Z</time>
      </trkpt>
      <trkpt lat="44.09119" lon="6.9248">
        <ele>1678.6</ele>
        <time>2019-07-16T07:21:17Z</time>
      </trkpt>
      <trkpt lat="44.09123" lon="6.92481">
        <ele>1678.7</ele>
        <time>2019-07-16T07:21:18Z</time>
      </trkpt>
      <trkpt lat="44.09127" lon="6.92482">
        <ele>1678.9</ele>
        <time>2019-07-16T07:21:19Z</time>
      </trkpt>
      <trkpt lat="44.09132" lon="6.92483">
        <ele>1679</ele>
        <time>2019-07-16T07:21:20Z</time>
      </trkpt>
      <trkpt lat="44.09136" lon="6.92483">
        <ele>1679.1</ele>
        <time>2019-07-16T07:21:21Z</time>
      </trkpt>
      <trkpt lat="44.0914" lon="6.92484">
        <ele>1679.2</ele>
        <time>2019-07-16T07:21:22Z</time>
      </trkpt>
      <trkpt lat="44.09144" lon="6.92484">
        <ele>1679.4</ele>
        <time>2019-07-16T07:21:23Z</time>
      </trkpt>
      <trkpt lat="44.09149" lon="6.92485">
        <ele>1679.6</ele>
        <time>2019-07-16T07:21:24Z</time>
      </trkpt>
      <trkpt lat="44.09153" lon="6.92486">
        <ele>1679.7</ele>
        <time>2019-07-16T07:21:25Z</time>
      </trkpt>
      <trkpt lat="44.09158" lon="6.92487">
        <ele>1679.8</ele>
        <time>2019-07-16T07:21:26Z</time>
      </trkpt>
      <trkpt lat="44.09162" lon="6.92489">
        <ele>1679.9</ele>
        <time>2019-07-16T07:21:27Z</time>
      </trkpt>
      <trkpt lat="44.09166" lon="6.92492">
        <ele>1680</ele>
        <time>2019-07-16T07:21:28Z</time>
      </trkpt>
      <trkpt lat="44.0917" lon="6.92495">
        <ele>1680.1</ele>
        <time>2019-07-16T07:21:29Z</time>
      </trkpt>
      <trkpt lat="44.09174" lon="6.92499">
        <ele>1680.2</ele>
        <time>2019-07-16T07:21:30Z</time>
      </trkpt>
      <trkpt lat="44.09179" lon="6.92505">
        <ele>1680.3</ele>
        <time>2019-07-16T07:21:31Z</time>
      </trkpt>
      <trkpt lat="44.09183" lon="6.9251">
        <ele>1680.3</ele>
        <time>2019-07-16T07:21:32Z</time>
      </trkpt>
      <trkpt lat="44.09186" lon="6.92516">
        <ele>1680.4</ele>
        <time>2019-07-16T07:21:33Z</time>
      </trkpt>
      <trkpt lat="44.09189" lon="6.92521">
        <ele>1680.4</ele>
        <time>2019-07-16T07:21:34Z</time>
      </trkpt>
      <trkpt lat="44.09192" lon="6.92528">
        <ele>1680.4</ele>
        <time>2019-07-16T07:21:35Z</time>
      </trkpt>
      <trkpt lat="44.09194" lon="6.92536">
        <ele>1680.4</ele>
        <time>2019-07-16T07:21:36Z</time>
      </trkpt>
      <trkpt lat="44.09196" lon="6.92543">
        <ele>1680.5</ele>
        <time>2019-07-16T07:21:37Z</time>
      </trkpt>
      <trkpt lat="44.09198" lon="6.9255">
        <ele>1680.5</ele>
        <time>2019-07-16T07:21:38Z</time>
      </trkpt>
      <trkpt lat="44.09201" lon="6.92558">
        <ele>1680.5</ele>
        <time>2019-07-16T07:21:39Z</time>
      </trkpt>
      <trkpt lat="44.09204" lon="6.92566">
        <ele>1680.5</ele>
        <time>2019-07-16T07:21:40Z</time>
      </trkpt>
      <trkpt lat="44.09207" lon="6.92575">
        <ele>1680.6</ele>
        <time>2019-07-16T07:21:41Z</time>
      </trkpt>
      <trkpt lat="44.0921" lon="6.92583">
        <ele>1680.6</ele>
        <time>2019-07-16T07:21:42Z</time>
      </trkpt>
      <trkpt lat="44.09212" lon="6.92592">
        <ele>1680.6</ele>
        <time>2019-07-16T07:21:43Z</time>
      </trkpt>
      <trkpt lat="44.09215" lon="6.926">
        <ele>1680.6</ele>
        <time>2019-07-16T07:21:44Z</time>
      </trkpt>
      <trkpt lat="44.09217" lon="6.92608">
        <ele>1680.6</ele>
        <time>2019-07-16T07:21:45Z</time>
      </trkpt>
      <trkpt lat="44.0922" lon="6.92616">
        <ele>1680.6</ele>
        <time>2019-07-16T07:21:46Z</time>
      </trkpt>
      <trkpt lat="44.09223" lon="6.92623">
        <ele>1680.5</ele>
        <time>2019-07-16T07:21:47Z</time>
      </trkpt>
      <trkpt lat="44.09226" lon="6.9263">
        <ele>1680.4</ele>
        <time>2019-07-16T07:21:48Z</time>
      </trkpt>
      <trkpt lat="44.09231" lon="6.92637">
        <ele>1680.4</ele>
        <time>2019-07-16T07:21:49Z</time>
      </trkpt>
      <trkpt lat="44.09235" lon="6.92642">
        <ele>1680.3</ele>
        <time>2019-07-16T07:21:50Z</time>
      </trkpt>
      <trkpt lat="44.0924" lon="6.92645">
        <ele>1680.3</ele>
        <time>2019-07-16T07:21:51Z</time>
      </trkpt>
      <trkpt lat="44.09246" lon="6.92649">
        <ele>1680.2</ele>
        <time>2019-07-16T07:21:52Z</time>
      </trkpt>
      <trkpt lat="44.09252" lon="6.92651">
        <ele>1680.2</ele>
        <time>2019-07-16T07:21:53Z</time>
      </trkpt>
      <trkpt lat="44.09258" lon="6.92651">
        <ele>1678.6</ele>
        <time>2019-07-16T07:21:54Z</time>
      </trkpt>
      <trkpt lat="44.09265" lon="6.92651">
        <ele>1677.6</ele>
        <time>2019-07-16T07:21:55Z</time>
      </trkpt>
      <trkpt lat="44.09271" lon="6.9265">
        <ele>1676.8</ele>
        <time>2019-07-16T07:21:56Z</time>
      </trkpt>
      <trkpt lat="44.09277" lon="6.92648">
        <ele>1676.1</ele>
        <time>2019-07-16T07:21:57Z</time>
      </trkpt>
      <trkpt lat="44.09283" lon="6.92645">
        <ele>1675.6</ele>
        <time>2019-07-16T07:21:58Z</time>
      </trkpt>
      <trkpt lat="44.09289" lon="6.92644">
        <ele>1675.2</ele>
        <time>2019-07-16T07:21:59Z</time>
      </trkpt>
      <trkpt lat="44.09295" lon="6.92641">
        <ele>1674.8</ele>
        <time>2019-07-16T07:22:00Z</time>
      </trkpt>
      <trkpt lat="44.093" lon="6.92639">
        <ele>1674.5</ele>
        <time>2019-07-16T07:22:01Z</time>
      </trkpt>
      <trkpt lat="44.09306" lon="6.92638">
        <ele>1674.2</ele>
        <time>2019-07-16T07:22:02Z</time>
      </trkpt>
      <trkpt lat="44.09311" lon="6.92636">
        <ele>1673.8</ele>
        <time>2019-07-16T07:22:03Z</time>
      </trkpt>
      <trkpt lat="44.09316" lon="6.92634">
        <ele>1673.8</ele>
        <time>2019-07-16T07:22:04Z</time>
      </trkpt>
      <trkpt lat="44.09321" lon="6.92632">
        <ele>1673.8</ele>
        <time>2019-07-16T07:22:05Z</time>
      </trkpt>
      <trkpt lat="44.09326" lon="6.9263">
        <ele>1673.9</ele>
        <time>2019-07-16T07:22:06Z</time>
      </trkpt>
      <trkpt lat="44.09331" lon="6.92628">
        <ele>1673.9</ele>
        <time>2019-07-16T07:22:07Z</time>
      </trkpt>
      <trkpt lat="44.09336" lon="6.92626">
        <ele>1674</ele>
        <time>2019-07-16T07:22:08Z</time>
      </trkpt>
      <trkpt lat="44.0934" lon="6.92625">
        <ele>1674</ele>
        <time>2019-07-16T07:22:09Z</time>
      </trkpt>
      <trkpt lat="44.09344" lon="6.92624">
        <ele>1674</ele>
        <time>2019-07-16T07:22:10Z</time>
      </trkpt>
      <trkpt lat="44.09348" lon="6.92622">
        <ele>1674</ele>
        <time>2019-07-16T07:22:11Z</time>
      </trkpt>
      <trkpt lat="44.09352" lon="6.92621">
        <ele>1674.1</ele>
        <time>2019-07-16T07:22:12Z</time>
      </trkpt>
      <trkpt lat="44.09356" lon="6.9262">
        <ele>1674.1</ele>
        <time>2019-07-16T07:22:13Z</time>
      </trkpt>
      <trkpt lat="44.09361" lon="6.9262">
        <ele>1674.1</ele>
        <time>2019-07-16T07:22:14Z</time>
      </trkpt>
      <trkpt lat="44.09365" lon="6.9262">
        <ele>1674.2</ele>
        <time>2019-07-16T07:22:15Z</time>
      </trkpt>
      <trkpt lat="44.0937" lon="6.92619">
        <ele>1674.2</ele>
        <time>2019-07-16T07:22:16Z</time>
      </trkpt>
      <trkpt lat="44.09374" lon="6.92619">
        <ele>1674.3</ele>
        <time>2019-07-16T07:22:17Z</time>
      </trkpt>
      <trkpt lat="44.09378" lon="6.92619">
        <ele>1674.3</ele>
        <time>2019-07-16T07:22:18Z</time>
      </trkpt>
      <trkpt lat="44.09382" lon="6.9262">
        <ele>1674.4</ele>
        <time>2019-07-16T07:22:19Z</time>
      </trkpt>
      <trkpt lat="44.09385" lon="6.92621">
        <ele>1674.4</ele>
        <time>2019-07-16T07:22:20Z</time>
      </trkpt>
      <trkpt lat="44.09389" lon="6.92622">
        <ele>1674.5</ele>
        <time>2019-07-16T07:22:21Z</time>
      </trkpt>
      <trkpt lat="44.09392" lon="6.92625">
        <ele>1674.6</ele>
        <time>2019-07-16T07:22:22Z</time>
      </trkpt>
      <trkpt lat="44.09395" lon="6.92628">
        <ele>1674.6</ele>
        <time>2019-07-16T07:22:23Z</time>
      </trkpt>
      <trkpt lat="44.09398" lon="6.92631">
        <ele>1674.7</ele>
        <time>2019-07-16T07:22:24Z</time>
      </trkpt>
      <trkpt lat="44.09402" lon="6.92633">
        <ele>1674.7</ele>
        <time>2019-07-16T07:22:25Z</time>
      </trkpt>
      <trkpt lat="44.09405" lon="6.92635">
        <ele>1674.8</ele>
        <time>2019-07-16T07:22:26Z</time>
      </trkpt>
      <trkpt lat="44.09409" lon="6.92636">
        <ele>1674.9</ele>
        <time>2019-07-16T07:22:27Z</time>
      </trkpt>
      <trkpt lat="44.09412" lon="6.92639">
        <ele>1674.9</ele>
        <time>2019-07-16T07:22:28Z</time>
      </trkpt>
      <trkpt lat="44.09415" lon="6.92641">
        <ele>1675</ele>
        <time>2019-07-16T07:22:29Z</time>
      </trkpt>
      <trkpt lat="44.09418" lon="6.92644">
        <ele>1675</ele>
        <time>2019-07-16T07:22:30Z</time>
      </trkpt>
      <trkpt lat="44.09421" lon="6.92646">
        <ele>1675.1</ele>
        <time>2019-07-16T07:22:31Z</time>
      </trkpt>
      <trkpt lat="44.09424" lon="6.92648">
        <ele>1675.1</ele>
        <time>2019-07-16T07:22:32Z</time>
      </trkpt>
      <trkpt lat="44.09426" lon="6.92651">
        <ele>1675.2</ele>
        <time>2019-07-16T07:22:33Z</time>
      </trkpt>
      <trkpt lat="44.0943" lon="6.92653">
        <ele>1675.2</ele>
        <time>2019-07-16T07:22:34Z</time>
      </trkpt>
      <trkpt lat="44.09434" lon="6.92656">
        <ele>1675.3</ele>
        <time>2019-07-16T07:22:35Z</time>
      </trkpt>
      <trkpt lat="44.09437" lon="6.92658">
        <ele>1675.3</ele>
        <time>2019-07-16T07:22:36Z</time>
      </trkpt>
      <trkpt lat="44.0944" lon="6.92661">
        <ele>1675.4</ele>
        <time>2019-07-16T07:22:37Z</time>
      </trkpt>
      <trkpt lat="44.09443" lon="6.92664">
        <ele>1675.4</ele>
        <time>2019-07-16T07:22:38Z</time>
      </trkpt>
      <trkpt lat="44.09446" lon="6.92667">
        <ele>1675.5</ele>
        <time>2019-07-16T07:22:39Z</time>
      </trkpt>
      <trkpt lat="44.09449" lon="6.92668">
        <ele>1675.5</ele>
        <time>2019-07-16T07:22:40Z</time>
      </trkpt>
      <trkpt lat="44.09452" lon="6.92671">
        <ele>1675.5</ele>
        <time>2019-07-16T07:22:41Z</time>
      </trkpt>
      <trkpt lat="44.09456" lon="6.92674">
        <ele>1675.6</ele>
        <time>2019-07-16T07:22:42Z</time>
      </trkpt>
      <trkpt lat="44.09459" lon="6.92677">
        <ele>1675.7</ele>
        <time>2019-07-16T07:22:43Z</time>
      </trkpt>
      <trkpt lat="44.09462" lon="6.9268">
        <ele>1675.7</ele>
        <time>2019-07-16T07:22:44Z</time>
      </trkpt>
      <trkpt lat="44.09465" lon="6.92682">
        <ele>1675.8</ele>
        <time>2019-07-16T07:22:45Z</time>
      </trkpt>
      <trkpt lat="44.09468" lon="6.92686">
        <ele>1675.8</ele>
        <time>2019-07-16T07:22:46Z</time>
      </trkpt>
      <trkpt lat="44.0947" lon="6.92689">
        <ele>1675.9</ele>
        <time>2019-07-16T07:22:47Z</time>
      </trkpt>
      <trkpt lat="44.09473" lon="6.92693">
        <ele>1675.9</ele>
        <time>2019-07-16T07:22:48Z</time>
      </trkpt>
      <trkpt lat="44.09475" lon="6.92697">
        <ele>1676</ele>
        <time>2019-07-16T07:22:49Z</time>
      </trkpt>
      <trkpt lat="44.09477" lon="6.92701">
        <ele>1676</ele>
        <time>2019-07-16T07:22:50Z</time>
      </trkpt>
      <trkpt lat="44.0948" lon="6.92705">
        <ele>1676.1</ele>
        <time>2019-07-16T07:22:51Z</time>
      </trkpt>
      <trkpt lat="44.09481" lon="6.92709">
        <ele>1676.1</ele>
        <time>2019-07-16T07:22:52Z</time>
      </trkpt>
      <trkpt lat="44.09483" lon="6.92713">
        <ele>1676.2</ele>
        <time>2019-07-16T07:22:53Z</time>
      </trkpt>
      <trkpt lat="44.09484" lon="6.92717">
        <ele>1676.2</ele>
        <time>2019-07-16T07:22:54Z</time>
      </trkpt>
      <trkpt lat="44.09485" lon="6.92722">
        <ele>1676.3</ele>
        <time>2019-07-16T07:22:55Z</time>
      </trkpt>
      <trkpt lat="44.09487" lon="6.92726">
        <ele>1676.3</ele>
        <time>2019-07-16T07:22:56Z</time>
      </trkpt>
      <trkpt lat="44.09488" lon="6.92731">
        <ele>1676.4</ele>
        <time>2019-07-16T07:22:57Z</time>
      </trkpt>
      <trkpt lat="44.09489" lon="6.92736">
        <ele>1676.4</ele>
        <time>2019-07-16T07:22:58Z</time>
      </trkpt>
      <trkpt lat="44.09492" lon="6.92742">
        <ele>1676.5</ele>
        <time>2019-07-16T07:23:00Z</time>
      </trkpt>
      <trkpt lat="44.09493" lon="6.92746">
        <ele>1676.5</ele>
        <time>2019-07-16T07:23:01Z</time>
      </trkpt>
      <trkpt lat="44.09494" lon="6.9275">
        <ele>1676.6</ele>
        <time>2019-07-16T07:23:02Z</time>
      </trkpt>
      <trkpt lat="44.09495" lon="6.92755">
        <ele>1676.6</ele>
        <time>2019-07-16T07:23:03Z</time>
      </trkpt>
      <trkpt lat="44.09496" lon="6.9276">
        <ele>1676.7</ele>
        <time>2019-07-16T07:23:04Z</time>
      </trkpt>
      <trkpt lat="44.09497" lon="6.92765">
        <ele>1676.7</ele>
        <time>2019-07-16T07:23:05Z</time>
      </trkpt>
      <trkpt lat="44.09498" lon="6.92769">
        <ele>1676.8</ele>
        <time>2019-07-16T07:23:06Z</time>
      </trkpt>
      <trkpt lat="44.09499" lon="6.92773">
        <ele>1676.8</ele>
        <time>2019-07-16T07:23:07Z</time>
      </trkpt>
      <trkpt lat="44.09501" lon="6.92778">
        <ele>1676.9</ele>
        <time>2019-07-16T07:23:08Z</time>
      </trkpt>
      <trkpt lat="44.09502" lon="6.92782">
        <ele>1676.9</ele>
        <time>2019-07-16T07:23:09Z</time>
      </trkpt>
      <trkpt lat="44.09503" lon="6.92787">
        <ele>1677</ele>
        <time>2019-07-16T07:23:10Z</time>
      </trkpt>
      <trkpt lat="44.09504" lon="6.92791">
        <ele>1677</ele>
        <time>2019-07-16T07:23:11Z</time>
      </trkpt>
      <trkpt lat="44.09505" lon="6.92796">
        <ele>1677</ele>
        <time>2019-07-16T07:23:12Z</time>
      </trkpt>
      <trkpt lat="44.09506" lon="6.92799">
        <ele>1677.1</ele>
        <time>2019-07-16T07:23:13Z</time>
      </trkpt>
      <trkpt lat="44.09507" lon="6.92803">
        <ele>1677.1</ele>
        <time>2019-07-16T07:23:14Z</time>
      </trkpt>
      <trkpt lat="44.09509" lon="6.92808">
        <ele>1677.2</ele>
        <time>2019-07-16T07:23:16Z</time>
      </trkpt>
      <trkpt lat="44.0951" lon="6.92812">
        <ele>1677.2</ele>
        <time>2019-07-16T07:23:19Z</time>
      </trkpt>
      <trkpt lat="44.09511" lon="6.92817">
        <ele>1677.3</ele>
        <time>2019-07-16T07:24:16Z</time>
      </trkpt>
      <trkpt lat="44.09511" lon="6.92821">
        <ele>1677.4</ele>
        <time>2019-07-16T07:24:18Z</time>
      </trkpt>
      <trkpt lat="44.09512" lon="6.92827">
        <ele>1677.4</ele>
        <time>2019-07-16T07:24:20Z</time>
      </trkpt>
      <trkpt lat="44.09512" lon="6.92833">
        <ele>1677.5</ele>
        <time>2019-07-16T07:24:22Z</time>
      </trkpt>
      <trkpt lat="44.09512" lon="6.9284">
        <ele>1677.7</ele>
        <time>2019-07-16T07:24:24Z</time>
      </trkpt>
      <trkpt lat="44.09512" lon="6.92848">
        <ele>1678.1</ele>
        <time>2019-07-16T07:24:26Z</time>
      </trkpt>
      <trkpt lat="44.09513" lon="6.92855">
        <ele>1678.6</ele>
        <time>2019-07-16T07:24:28Z</time>
      </trkpt>
      <trkpt lat="44.09513" lon="6.92859">
        <ele>1678.9</ele>
        <time>2019-07-16T07:24:29Z</time>
      </trkpt>
      <trkpt lat="44.09513" lon="6.92863">
        <ele>1679.2</ele>
        <time>2019-07-16T07:24:30Z</time>
      </trkpt>
      <trkpt lat="44.09514" lon="6.92867">
        <ele>1679.5</ele>
        <time>2019-07-16T07:24:31Z</time>
      </trkpt>
      <trkpt lat="44.09514" lon="6.92871">
        <ele>1679.8</ele>
        <time>2019-07-16T07:24:32Z</time>
      </trkpt>
      <trkpt lat="44.09515" lon="6.92875">
        <ele>1680.1</ele>
        <time>2019-07-16T07:24:33Z</time>
      </trkpt>
      <trkpt lat="44.09515" lon="6.92879">
        <ele>1680.8</ele>
        <time>2019-07-16T07:24:34Z</time>
      </trkpt>
      <trkpt lat="44.09516" lon="6.92883">
        <ele>1680.8</ele>
        <time>2019-07-16T07:24:35Z</time>
      </trkpt>
      <trkpt lat="44.09516" lon="6.92887">
        <ele>1680.8</ele>
        <time>2019-07-16T07:24:36Z</time>
      </trkpt>
      <trkpt lat="44.09516" lon="6.92892">
        <ele>1680.9</ele>
        <time>2019-07-16T07:24:37Z</time>
      </trkpt>
      <trkpt lat="44.09516" lon="6.92899">
        <ele>1680.9</ele>
        <time>2019-07-16T07:24:39Z</time>
      </trkpt>
      <trkpt lat="44.09516" lon="6.92903">
        <ele>1680.9</ele>
        <time>2019-07-16T07:24:40Z</time>
      </trkpt>
      <trkpt lat="44.09517" lon="6.92908">
        <ele>1680.9</ele>
        <time>2019-07-16T07:24:42Z</time>
      </trkpt>
      <trkpt lat="44.09518" lon="6.92913">
        <ele>1681</ele>
        <time>2019-07-16T07:24:44Z</time>
      </trkpt>
      <trkpt lat="44.09519" lon="6.92919">
        <ele>1681</ele>
        <time>2019-07-16T07:24:46Z</time>
      </trkpt>
      <trkpt lat="44.0952" lon="6.92923">
        <ele>1680.9</ele>
        <time>2019-07-16T07:24:48Z</time>
      </trkpt>
      <trkpt lat="44.0952" lon="6.92928">
        <ele>1680.9</ele>
        <time>2019-07-16T07:24:50Z</time>
      </trkpt>
      <trkpt lat="44.0952" lon="6.92933">
        <ele>1680.8</ele>
        <time>2019-07-16T07:24:52Z</time>
      </trkpt>
      <trkpt lat="44.09521" lon="6.92937">
        <ele>1680.8</ele>
        <time>2019-07-16T07:24:54Z</time>
      </trkpt>
      <trkpt lat="44.09521" lon="6.92942">
        <ele>1680.7</ele>
        <time>2019-07-16T07:24:56Z</time>
      </trkpt>
      <trkpt lat="44.0952" lon="6.92947">
        <ele>1680.6</ele>
        <time>2019-07-16T07:24:58Z</time>
      </trkpt>
      <trkpt lat="44.09519" lon="6.92953">
        <ele>1680.5</ele>
        <time>2019-07-16T07:25:00Z</time>
      </trkpt>
      <trkpt lat="44.09518" lon="6.92957">
        <ele>1680.5</ele>
        <time>2019-07-16T07:25:02Z</time>
      </trkpt>
      <trkpt lat="44.09518" lon="6.92962">
        <ele>1680.4</ele>
        <time>2019-07-16T07:25:04Z</time>
      </trkpt>
      <trkpt lat="44.09517" lon="6.92967">
        <ele>1680.3</ele>
        <time>2019-07-16T07:25:06Z</time>
      </trkpt>
      <trkpt lat="44.09515" lon="6.92973">
        <ele>1680.2</ele>
        <time>2019-07-16T07:25:08Z</time>
      </trkpt>
      <trkpt lat="44.09515" lon="6.92979">
        <ele>1680.1</ele>
        <time>2019-07-16T07:25:10Z</time>
      </trkpt>
      <trkpt lat="44.09514" lon="6.92984">
        <ele>1680.1</ele>
        <time>2019-07-16T07:25:12Z</time>
      </trkpt>
      <trkpt lat="44.09513" lon="6.92989">
        <ele>1680</ele>
        <time>2019-07-16T07:25:14Z</time>
      </trkpt>
      <trkpt lat="44.09514" lon="6.92995">
        <ele>1679.9</ele>
        <time>2019-07-16T07:25:16Z</time>
      </trkpt>
      <trkpt lat="44.09515" lon="6.93">
        <ele>1679.8</ele>
        <time>2019-07-16T07:25:18Z</time>
      </trkpt>
      <trkpt lat="44.09514" lon="6.93005">
        <ele>1679.7</ele>
        <time>2019-07-16T07:25:20Z</time>
      </trkpt>
      <trkpt lat="44.09513" lon="6.93012">
        <ele>1679.8</ele>
        <time>2019-07-16T07:25:22Z</time>
      </trkpt>
      <trkpt lat="44.09513" lon="6.93017">
        <ele>1679.8</ele>
        <time>2019-07-16T07:25:24Z</time>
      </trkpt>
      <trkpt lat="44.09509" lon="6.93021">
        <ele>1679.9</ele>
        <time>2019-07-16T07:25:27Z</time>
      </trkpt>
      <trkpt lat="44.09506" lon="6.93024">
        <ele>1679.9</ele>
        <time>2019-07-16T07:25:29Z</time>
      </trkpt>
      <trkpt lat="44.09505" lon="6.9303">
        <ele>1679.9</ele>
        <time>2019-07-16T07:25:32Z</time>
      </trkpt>
      <trkpt lat="44.09507" lon="6.93033">
        <ele>1679.9</ele>
        <time>2019-07-16T07:25:35Z</time>
      </trkpt>
      <trkpt lat="44.09508" lon="6.93037">
        <ele>1679.9</ele>
        <time>2019-07-16T07:25:55Z</time>
      </trkpt>
      <trkpt lat="44.09505" lon="6.93038">
        <ele>1679.9</ele>
        <time>2019-07-16T07:26:08Z</time>
      </trkpt>
      <trkpt lat="44.09507" lon="6.93044">
        <ele>1679.9</ele>
        <time>2019-07-16T07:28:02Z</time>
      </trkpt>
      <trkpt lat="44.09506" lon="6.93049">
        <ele>1679.9</ele>
        <time>2019-07-16T07:28:04Z</time>
      </trkpt>
      <trkpt lat="44.09505" lon="6.93054">
        <ele>1679.8</ele>
        <time>2019-07-16T07:28:06Z</time>
      </trkpt>
      <trkpt lat="44.09504" lon="6.93058">
        <ele>1679.8</ele>
        <time>2019-07-16T07:28:09Z</time>
      </trkpt>
      <trkpt lat="44.09505" lon="6.93063">
        <ele>1679.8</ele>
        <time>2019-07-16T07:28:11Z</time>
      </trkpt>
      <trkpt lat="44.09506" lon="6.93067">
        <ele>1679.8</ele>
        <time>2019-07-16T07:28:13Z</time>
      </trkpt>
      <trkpt lat="44.09506" lon="6.93073">
        <ele>1679.7</ele>
        <time>2019-07-16T07:28:15Z</time>
      </trkpt>
      <trkpt lat="44.09505" lon="6.93079">
        <ele>1679.6</ele>
        <time>2019-07-16T07:28:17Z</time>
      </trkpt>
      <trkpt lat="44.09506" lon="6.93085">
        <ele>1679.5</ele>
        <time>2019-07-16T07:28:19Z</time>
      </trkpt>
      <trkpt lat="44.09507" lon="6.93092">
        <ele>1679.5</ele>
        <time>2019-07-16T07:28:21Z</time>
      </trkpt>
      <trkpt lat="44.09507" lon="6.93098">
        <ele>1679.6</ele>
        <time>2019-07-16T07:28:23Z</time>
      </trkpt>
      <trkpt lat="44.09504" lon="6.93104">
        <ele>1679.7</ele>
        <time>2019-07-16T07:28:25Z</time>
      </trkpt>
      <trkpt lat="44.095" lon="6.9311">
        <ele>1680.1</ele>
        <time>2019-07-16T07:28:27Z</time>
      </trkpt>
      <trkpt lat="44.09498" lon="6.93113">
        <ele>1680.2</ele>
        <time>2019-07-16T07:28:28Z</time>
      </trkpt>
      <trkpt lat="44.09496" lon="6.93115">
        <ele>1680.3</ele>
        <time>2019-07-16T07:28:29Z</time>
      </trkpt>
      <trkpt lat="44.09493" lon="6.93121">
        <ele>1680.5</ele>
        <time>2019-07-16T07:28:31Z</time>
      </trkpt>
      <trkpt lat="44.09491" lon="6.93125">
        <ele>1680.8</ele>
        <time>2019-07-16T07:28:32Z</time>
      </trkpt>
      <trkpt lat="44.09487" lon="6.93129">
        <ele>1680.8</ele>
        <time>2019-07-16T07:28:34Z</time>
      </trkpt>
      <trkpt lat="44.09484" lon="6.93134">
        <ele>1680.8</ele>
        <time>2019-07-16T07:28:36Z</time>
      </trkpt>
      <trkpt lat="44.09481" lon="6.93137">
        <ele>1680.8</ele>
        <time>2019-07-16T07:28:38Z</time>
      </trkpt>
      <trkpt lat="44.09479" lon="6.93141">
        <ele>1680.8</ele>
        <time>2019-07-16T07:28:40Z</time>
      </trkpt>
      <trkpt lat="44.09477" lon="6.93146">
        <ele>1680.7</ele>
        <time>2019-07-16T07:28:42Z</time>
      </trkpt>
      <trkpt lat="44.09474" lon="6.9315">
        <ele>1680.7</ele>
        <time>2019-07-16T07:28:44Z</time>
      </trkpt>
      <trkpt lat="44.09471" lon="6.93154">
        <ele>1680.7</ele>
        <time>2019-07-16T07:28:46Z</time>
      </trkpt>
      <trkpt lat="44.09469" lon="6.93158">
        <ele>1680.7</ele>
        <time>2019-07-16T07:28:48Z</time>
      </trkpt>
      <trkpt lat="44.09466" lon="6.93162">
        <ele>1680.6</ele>
        <time>2019-07-16T07:28:50Z</time>
      </trkpt>
      <trkpt lat="44.09463" lon="6.93167">
        <ele>1680.6</ele>
        <time>2019-07-16T07:28:52Z</time>
      </trkpt>
      <trkpt lat="44.0946" lon="6.93172">
        <ele>1680.6</ele>
        <time>2019-07-16T07:28:54Z</time>
      </trkpt>
      <trkpt lat="44.09458" lon="6.93174">
        <ele>1680.6</ele>
        <time>2019-07-16T07:29:26Z</time>
      </trkpt>
      <trkpt lat="44.09455" lon="6.93178">
        <ele>1680.5</ele>
        <time>2019-07-16T07:29:28Z</time>
      </trkpt>
      <trkpt lat="44.09452" lon="6.9318">
        <ele>1680.5</ele>
        <time>2019-07-16T07:29:29Z</time>
      </trkpt>
      <trkpt lat="44.0945" lon="6.93183">
        <ele>1680.5</ele>
        <time>2019-07-16T07:29:30Z</time>
      </trkpt>
      <trkpt lat="44.09448" lon="6.93186">
        <ele>1680.4</ele>
        <time>2019-07-16T07:29:31Z</time>
      </trkpt>
      <trkpt lat="44.09445" lon="6.9319">
        <ele>1680.3</ele>
        <time>2019-07-16T07:29:32Z</time>
      </trkpt>
      <trkpt lat="44.09442" lon="6.93193">
        <ele>1680.3</ele>
        <time>2019-07-16T07:29:33Z</time>
      </trkpt>
      <trkpt lat="44.0944" lon="6.93196">
        <ele>1680.2</ele>
        <time>2019-07-16T07:29:34Z</time>
      </trkpt>
      <trkpt lat="44.09437" lon="6.93203">
        <ele>1680.1</ele>
        <time>2019-07-16T07:29:36Z</time>
      </trkpt>
      <trkpt lat="44.09435" lon="6.93206">
        <ele>1680.1</ele>
        <time>2019-07-16T07:29:37Z</time>
      </trkpt>
      <trkpt lat="44.09433" lon="6.9321">
        <ele>1680.1</ele>
        <time>2019-07-16T07:29:38Z</time>
      </trkpt>
      <trkpt lat="44.09431" lon="6.93215">
        <ele>1680.1</ele>
        <time>2019-07-16T07:29:39Z</time>
      </trkpt>
      <trkpt lat="44.09429" lon="6.93218">
        <ele>1680.2</ele>
        <time>2019-07-16T07:29:40Z</time>
      </trkpt>
      <trkpt lat="44.09426" lon="6.93224">
        <ele>1680.2</ele>
        <time>2019-07-16T07:29:41Z</time>
      </trkpt>
      <trkpt lat="44.09423" lon="6.93227">
        <ele>1680.2</ele>
        <time>2019-07-16T07:29:42Z</time>
      </trkpt>
      <trkpt lat="44.09421" lon="6.93232">
        <ele>1680.2</ele>
        <time>2019-07-16T07:29:43Z</time>
      </trkpt>
      <trkpt lat="44.09418" lon="6.93235">
        <ele>1680</ele>
        <time>2019-07-16T07:29:44Z</time>
      </trkpt>
      <trkpt lat="44.09414" lon="6.93238">
        <ele>1679.9</ele>
        <time>2019-07-16T07:29:46Z</time>
      </trkpt>
      <trkpt lat="44.09411" lon="6.93239">
        <ele>1679.9</ele>
        <time>2019-07-16T07:29:47Z</time>
      </trkpt>
      <trkpt lat="44.09406" lon="6.9324">
        <ele>1679.9</ele>
        <time>2019-07-16T07:29:49Z</time>
      </trkpt>
      <trkpt lat="44.09403" lon="6.93241">
        <ele>1679.8</ele>
        <time>2019-07-16T07:29:51Z</time>
      </trkpt>
      <trkpt lat="44.09399" lon="6.93241">
        <ele>1679.8</ele>
        <time>2019-07-16T07:29:53Z</time>
      </trkpt>
      <trkpt lat="44.09396" lon="6.9324">
        <ele>1679.8</ele>
        <time>2019-07-16T07:29:55Z</time>
      </trkpt>
      <trkpt lat="44.09393" lon="6.93239">
        <ele>1679.8</ele>
        <time>2019-07-16T07:29:57Z</time>
      </trkpt>
      <trkpt lat="44.09389" lon="6.93238">
        <ele>1679.8</ele>
        <time>2019-07-16T07:29:59Z</time>
      </trkpt>
      <trkpt lat="44.09386" lon="6.93237">
        <ele>1679.9</ele>
        <time>2019-07-16T07:30:01Z</time>
      </trkpt>
      <trkpt lat="44.09384" lon="6.93234">
        <ele>1680</ele>
        <time>2019-07-16T07:30:04Z</time>
      </trkpt>
      <trkpt lat="44.09381" lon="6.93232">
        <ele>1680.1</ele>
        <time>2019-07-16T07:30:07Z</time>
      </trkpt>
      <trkpt lat="44.09378" lon="6.93231">
        <ele>1680.2</ele>
        <time>2019-07-16T07:30:09Z</time>
      </trkpt>
      <trkpt lat="44.09373" lon="6.9323">
        <ele>1680.4</ele>
        <time>2019-07-16T07:30:11Z</time>
      </trkpt>
      <trkpt lat="44.0937" lon="6.93229">
        <ele>1680.5</ele>
        <time>2019-07-16T07:30:13Z</time>
      </trkpt>
      <trkpt lat="44.09367" lon="6.93228">
        <ele>1680.7</ele>
        <time>2019-07-16T07:30:16Z</time>
      </trkpt>
      <trkpt lat="44.09363" lon="6.93228">
        <ele>1680.8</ele>
        <time>2019-07-16T07:30:18Z</time>
      </trkpt>
      <trkpt lat="44.0936" lon="6.93226">
        <ele>1681</ele>
        <time>2019-07-16T07:30:21Z</time>
      </trkpt>
      <trkpt lat="44.09357" lon="6.93225">
        <ele>1681.2</ele>
        <time>2019-07-16T07:30:23Z</time>
      </trkpt>
      <trkpt lat="44.09354" lon="6.93224">
        <ele>1681.4</ele>
        <time>2019-07-16T07:30:25Z</time>
      </trkpt>
      <trkpt lat="44.09351" lon="6.93223">
        <ele>1681.6</ele>
        <time>2019-07-16T07:30:27Z</time>
      </trkpt>
      <trkpt lat="44.09347" lon="6.93222">
        <ele>1681.8</ele>
        <time>2019-07-16T07:30:29Z</time>
      </trkpt>
      <trkpt lat="44.09344" lon="6.93221">
        <ele>1682.2</ele>
        <time>2019-07-16T07:30:31Z</time>
      </trkpt>
      <trkpt lat="44.09339" lon="6.93221">
        <ele>1682.7</ele>
        <time>2019-07-16T07:30:33Z</time>
      </trkpt>
      <trkpt lat="44.09336" lon="6.93219">
        <ele>1683.1</ele>
        <time>2019-07-16T07:30:35Z</time>
      </trkpt>
      <trkpt lat="44.09334" lon="6.93219">
        <ele>1683.4</ele>
        <time>2019-07-16T07:30:37Z</time>
      </trkpt>
      <trkpt lat="44.0933" lon="6.93217">
        <ele>1683.8</ele>
        <time>2019-07-16T07:30:39Z</time>
      </trkpt>
      <trkpt lat="44.09326" lon="6.93216">
        <ele>1684.1</ele>
        <time>2019-07-16T07:30:41Z</time>
      </trkpt>
      <trkpt lat="44.09322" lon="6.93215">
        <ele>1684.5</ele>
        <time>2019-07-16T07:30:43Z</time>
      </trkpt>
      <trkpt lat="44.09318" lon="6.93213">
        <ele>1685</ele>
        <time>2019-07-16T07:30:45Z</time>
      </trkpt>
      <trkpt lat="44.09314" lon="6.93212">
        <ele>1685.5</ele>
        <time>2019-07-16T07:30:47Z</time>
      </trkpt>
      <trkpt lat="44.09311" lon="6.93212">
        <ele>1685.9</ele>
        <time>2019-07-16T07:30:49Z</time>
      </trkpt>
      <trkpt lat="44.09308" lon="6.93211">
        <ele>1686.2</ele>
        <time>2019-07-16T07:30:51Z</time>
      </trkpt>
      <trkpt lat="44.09304" lon="6.93211">
        <ele>1686.5</ele>
        <time>2019-07-16T07:30:53Z</time>
      </trkpt>
      <trkpt lat="44.09301" lon="6.9321">
        <ele>1686.7</ele>
        <time>2019-07-16T07:30:55Z</time>
      </trkpt>
      <trkpt lat="44.09298" lon="6.93209">
        <ele>1686.9</ele>
        <time>2019-07-16T07:30:57Z</time>
      </trkpt>
      <trkpt lat="44.09295" lon="6.93208">
        <ele>1687.1</ele>
        <time>2019-07-16T07:30:59Z</time>
      </trkpt>
      <trkpt lat="44.09293" lon="6.93207">
        <ele>1687.2</ele>
        <time>2019-07-16T07:31:01Z</time>
      </trkpt>
      <trkpt lat="44.09289" lon="6.93206">
        <ele>1687.5</ele>
        <time>2019-07-16T07:31:03Z</time>
      </trkpt>
      <trkpt lat="44.09286" lon="6.93204">
        <ele>1687.6</ele>
        <time>2019-07-16T07:31:05Z</time>
      </trkpt>
      <trkpt lat="44.09284" lon="6.93204">
        <ele>1687.9</ele>
        <time>2019-07-16T07:31:07Z</time>
      </trkpt>
      <trkpt lat="44.0928" lon="6.93203">
        <ele>1688.1</ele>
        <time>2019-07-16T07:31:09Z</time>
      </trkpt>
      <trkpt lat="44.09277" lon="6.93201">
        <ele>1688.4</ele>
        <time>2019-07-16T07:31:11Z</time>
      </trkpt>
      <trkpt lat="44.09274" lon="6.932">
        <ele>1688.6</ele>
        <time>2019-07-16T07:31:13Z</time>
      </trkpt>
      <trkpt lat="44.09271" lon="6.932">
        <ele>1688.8</ele>
        <time>2019-07-16T07:31:15Z</time>
      </trkpt>
      <trkpt lat="44.09267" lon="6.93199">
        <ele>1689.1</ele>
        <time>2019-07-16T07:31:18Z</time>
      </trkpt>
      <trkpt lat="44.09264" lon="6.93198">
        <ele>1689.3</ele>
        <time>2019-07-16T07:31:21Z</time>
      </trkpt>
      <trkpt lat="44.09261" lon="6.93196">
        <ele>1689.6</ele>
        <time>2019-07-16T07:31:25Z</time>
      </trkpt>
      <trkpt lat="44.09258" lon="6.93194">
        <ele>1689.9</ele>
        <time>2019-07-16T07:31:27Z</time>
      </trkpt>
      <trkpt lat="44.09255" lon="6.93192">
        <ele>1690.2</ele>
        <time>2019-07-16T07:31:29Z</time>
      </trkpt>
      <trkpt lat="44.09252" lon="6.9319">
        <ele>1690.4</ele>
        <time>2019-07-16T07:31:31Z</time>
      </trkpt>
      <trkpt lat="44.09249" lon="6.93189">
        <ele>1690.7</ele>
        <time>2019-07-16T07:31:33Z</time>
      </trkpt>
      <trkpt lat="44.09246" lon="6.93188">
        <ele>1690.9</ele>
        <time>2019-07-16T07:31:35Z</time>
      </trkpt>
      <trkpt lat="44.09242" lon="6.93187">
        <ele>1691.2</ele>
        <time>2019-07-16T07:31:37Z</time>
      </trkpt>
      <trkpt lat="44.09239" lon="6.93187">
        <ele>1691.4</ele>
        <time>2019-07-16T07:31:39Z</time>
      </trkpt>
      <trkpt lat="44.09235" lon="6.93186">
        <ele>1691.7</ele>
        <time>2019-07-16T07:31:41Z</time>
      </trkpt>
      <trkpt lat="44.09231" lon="6.93185">
        <ele>1691.9</ele>
        <time>2019-07-16T07:31:43Z</time>
      </trkpt>
      <trkpt lat="44.09227" lon="6.93184">
        <ele>1692.2</ele>
        <time>2019-07-16T07:31:45Z</time>
      </trkpt>
      <trkpt lat="44.09223" lon="6.93182">
        <ele>1692.6</ele>
        <time>2019-07-16T07:31:47Z</time>
      </trkpt>
      <trkpt lat="44.09219" lon="6.93181">
        <ele>1692.9</ele>
        <time>2019-07-16T07:31:49Z</time>
      </trkpt>
      <trkpt lat="44.09216" lon="6.9318">
        <ele>1693.2</ele>
        <time>2019-07-16T07:31:50Z</time>
      </trkpt>
      <trkpt lat="44.09213" lon="6.93178">
        <ele>1693.4</ele>
        <time>2019-07-16T07:31:51Z</time>
      </trkpt>
      <trkpt lat="44.09208" lon="6.93176">
        <ele>1694</ele>
        <time>2019-07-16T07:31:53Z</time>
      </trkpt>
      <trkpt lat="44.09204" lon="6.93175">
        <ele>1694.3</ele>
        <time>2019-07-16T07:31:54Z</time>
      </trkpt>
      <trkpt lat="44.09201" lon="6.93174">
        <ele>1694.6</ele>
        <time>2019-07-16T07:31:55Z</time>
      </trkpt>
      <trkpt lat="44.09198" lon="6.93173">
        <ele>1694.8</ele>
        <time>2019-07-16T07:31:56Z</time>
      </trkpt>
      <trkpt lat="44.09193" lon="6.93171">
        <ele>1695.2</ele>
        <time>2019-07-16T07:31:58Z</time>
      </trkpt>
      <trkpt lat="44.0919" lon="6.93169">
        <ele>1695.5</ele>
        <time>2019-07-16T07:31:59Z</time>
      </trkpt>
      <trkpt lat="44.09185" lon="6.93166">
        <ele>1696</ele>
        <time>2019-07-16T07:32:01Z</time>
      </trkpt>
      <trkpt lat="44.09183" lon="6.93164">
        <ele>1696.3</ele>
        <time>2019-07-16T07:32:02Z</time>
      </trkpt>
      <trkpt lat="44.0918" lon="6.93161">
        <ele>1696.7</ele>
        <time>2019-07-16T07:32:03Z</time>
      </trkpt>
      <trkpt lat="44.09178" lon="6.93158">
        <ele>1697.1</ele>
        <time>2019-07-16T07:32:04Z</time>
      </trkpt>
      <trkpt lat="44.09175" lon="6.93155">
        <ele>1697.5</ele>
        <time>2019-07-16T07:32:05Z</time>
      </trkpt>
      <trkpt lat="44.09173" lon="6.93152">
        <ele>1697.8</ele>
        <time>2019-07-16T07:32:06Z</time>
      </trkpt>
      <trkpt lat="44.09171" lon="6.93146">
        <ele>1698.7</ele>
        <time>2019-07-16T07:32:08Z</time>
      </trkpt>
      <trkpt lat="44.0917" lon="6.93138">
        <ele>1699.5</ele>
        <time>2019-07-16T07:32:10Z</time>
      </trkpt>
      <trkpt lat="44.09169" lon="6.93132">
        <ele>1700.1</ele>
        <time>2019-07-16T07:32:12Z</time>
      </trkpt>
      <trkpt lat="44.0917" lon="6.93125">
        <ele>1700.5</ele>
        <time>2019-07-16T07:32:14Z</time>
      </trkpt>
      <trkpt lat="44.09171" lon="6.9312">
        <ele>1701</ele>
        <time>2019-07-16T07:32:16Z</time>
      </trkpt>
      <trkpt lat="44.0917" lon="6.93116">
        <ele>1701.3</ele>
        <time>2019-07-16T07:32:18Z</time>
      </trkpt>
      <trkpt lat="44.09166" lon="6.93113">
        <ele>1701.8</ele>
        <time>2019-07-16T07:32:20Z</time>
      </trkpt>
      <trkpt lat="44.09163" lon="6.93115">
        <ele>1702</ele>
        <time>2019-07-16T07:32:21Z</time>
      </trkpt>
      <trkpt lat="44.0916" lon="6.9312">
        <ele>1701.6</ele>
        <time>2019-07-16T07:32:22Z</time>
      </trkpt>
      <trkpt lat="44.0916" lon="6.93125">
        <ele>1701.1</ele>
        <time>2019-07-16T07:32:23Z</time>
      </trkpt>
      <trkpt lat="44.0916" lon="6.93131">
        <ele>1700.5</ele>
        <time>2019-07-16T07:32:24Z</time>
      </trkpt>
      <trkpt lat="44.09161" lon="6.93138">
        <ele>1699.9</ele>
        <time>2019-07-16T07:32:25Z</time>
      </trkpt>
      <trkpt lat="44.09163" lon="6.93146">
        <ele>1698.9</ele>
        <time>2019-07-16T07:32:26Z</time>
      </trkpt>
      <trkpt lat="44.09165" lon="6.93153">
        <ele>1698.1</ele>
        <time>2019-07-16T07:32:27Z</time>
      </trkpt>
      <trkpt lat="44.09168" lon="6.9316">
        <ele>1697.4</ele>
        <time>2019-07-16T07:32:28Z</time>
      </trkpt>
      <trkpt lat="44.09172" lon="6.93168">
        <ele>1696.7</ele>
        <time>2019-07-16T07:32:29Z</time>
      </trkpt>
      <trkpt lat="44.09177" lon="6.93175">
        <ele>1695.9</ele>
        <time>2019-07-16T07:32:30Z</time>
      </trkpt>
      <trkpt lat="44.09182" lon="6.9318">
        <ele>1695.3</ele>
        <time>2019-07-16T07:32:31Z</time>
      </trkpt>
      <trkpt lat="44.09186" lon="6.93182">
        <ele>1695</ele>
        <time>2019-07-16T07:32:32Z</time>
      </trkpt>
      <trkpt lat="44.09189" lon="6.93184">
        <ele>1694.7</ele>
        <time>2019-07-16T07:32:33Z</time>
      </trkpt>
      <trkpt lat="44.09192" lon="6.93185">
        <ele>1694.9</ele>
        <time>2019-07-16T07:32:35Z</time>
      </trkpt>
      <trkpt lat="44.09195" lon="6.93183">
        <ele>1695.1</ele>
        <time>2019-07-16T07:32:38Z</time>
      </trkpt>
      <trkpt lat="44.09193" lon="6.93177">
        <ele>1695.4</ele>
        <time>2019-07-16T07:32:40Z</time>
      </trkpt>
      <trkpt lat="44.0919" lon="6.93174">
        <ele>1695.7</ele>
        <time>2019-07-16T07:32:42Z</time>
      </trkpt>
      <trkpt lat="44.09186" lon="6.93173">
        <ele>1696</ele>
        <time>2019-07-16T07:32:44Z</time>
      </trkpt>
      <trkpt lat="44.09184" lon="6.93171">
        <ele>1696.2</ele>
        <time>2019-07-16T07:32:46Z</time>
      </trkpt>
      <trkpt lat="44.09181" lon="6.93168">
        <ele>1696.5</ele>
        <time>2019-07-16T07:32:48Z</time>
      </trkpt>
      <trkpt lat="44.09179" lon="6.93166">
        <ele>1696.7</ele>
        <time>2019-07-16T07:32:50Z</time>
      </trkpt>
      <trkpt lat="44.09176" lon="6.93163">
        <ele>1697</ele>
        <time>2019-07-16T07:32:52Z</time>
      </trkpt>
      <trkpt lat="44.09174" lon="6.93159">
        <ele>1697.4</ele>
        <time>2019-07-16T07:32:55Z</time>
      </trkpt>
      <trkpt lat="44.09171" lon="6.93154">
        <ele>1697.7</ele>
        <time>2019-07-16T07:32:57Z</time>
      </trkpt>
      <trkpt lat="44.0917" lon="6.93151">
        <ele>1697.9</ele>
        <time>2019-07-16T07:32:59Z</time>
      </trkpt>
      <trkpt lat="44.09169" lon="6.93148">
        <ele>1699</ele>
        <time>2019-07-16T07:33:01Z</time>
      </trkpt>
      <trkpt lat="44.09167" lon="6.93143">
        <ele>1699</ele>
        <time>2019-07-16T07:33:04Z</time>
      </trkpt>
      <trkpt lat="44.09167" lon="6.93139">
        <ele>1699</ele>
        <time>2019-07-16T07:33:06Z</time>
      </trkpt>
      <trkpt lat="44.09167" lon="6.93135">
        <ele>1699</ele>
        <time>2019-07-16T07:33:08Z</time>
      </trkpt>
      <trkpt lat="44.09167" lon="6.9313">
        <ele>1699</ele>
        <time>2019-07-16T07:33:10Z</time>
      </trkpt>
      <trkpt lat="44.09166" lon="6.93125">
        <ele>1699.1</ele>
        <time>2019-07-16T07:33:12Z</time>
      </trkpt>
      <trkpt lat="44.09164" lon="6.93121">
        <ele>1699.1</ele>
        <time>2019-07-16T07:33:14Z</time>
      </trkpt>
      <trkpt lat="44.09162" lon="6.93117">
        <ele>1699.2</ele>
        <time>2019-07-16T07:33:16Z</time>
      </trkpt>
      <trkpt lat="44.09161" lon="6.93112">
        <ele>1699.2</ele>
        <time>2019-07-16T07:33:18Z</time>
      </trkpt>
      <trkpt lat="44.09159" lon="6.93107">
        <ele>1699.3</ele>
        <time>2019-07-16T07:33:20Z</time>
      </trkpt>
      <trkpt lat="44.09159" lon="6.93103">
        <ele>1699.3</ele>
        <time>2019-07-16T07:33:22Z</time>
      </trkpt>
      <trkpt lat="44.09159" lon="6.93097">
        <ele>1699.5</ele>
        <time>2019-07-16T07:33:24Z</time>
      </trkpt>
      <trkpt lat="44.09158" lon="6.93091">
        <ele>1699.7</ele>
        <time>2019-07-16T07:33:26Z</time>
      </trkpt>
      <trkpt lat="44.09156" lon="6.93087">
        <ele>1699.9</ele>
        <time>2019-07-16T07:33:28Z</time>
      </trkpt>
      <trkpt lat="44.09154" lon="6.93082">
        <ele>1700.2</ele>
        <time>2019-07-16T07:33:30Z</time>
      </trkpt>
      <trkpt lat="44.09152" lon="6.93076">
        <ele>1700.6</ele>
        <time>2019-07-16T07:33:32Z</time>
      </trkpt>
      <trkpt lat="44.0915" lon="6.93071">
        <ele>1700.9</ele>
        <time>2019-07-16T07:33:34Z</time>
      </trkpt>
      <trkpt lat="44.09148" lon="6.93066">
        <ele>1701.3</ele>
        <time>2019-07-16T07:33:36Z</time>
      </trkpt>
      <trkpt lat="44.09145" lon="6.93062">
        <ele>1701.8</ele>
        <time>2019-07-16T07:33:38Z</time>
      </trkpt>
      <trkpt lat="44.09143" lon="6.93058">
        <ele>1702.1</ele>
        <time>2019-07-16T07:33:40Z</time>
      </trkpt>
      <trkpt lat="44.09141" lon="6.93054">
        <ele>1702.5</ele>
        <time>2019-07-16T07:33:42Z</time>
      </trkpt>
      <trkpt lat="44.0914" lon="6.9305">
        <ele>1702.9</ele>
        <time>2019-07-16T07:33:44Z</time>
      </trkpt>
      <trkpt lat="44.09139" lon="6.93046">
        <ele>1703.3</ele>
        <time>2019-07-16T07:33:46Z</time>
      </trkpt>
      <trkpt lat="44.09138" lon="6.93042">
        <ele>1703.6</ele>
        <time>2019-07-16T07:33:48Z</time>
      </trkpt>
      <trkpt lat="44.09137" lon="6.93039">
        <ele>1704</ele>
        <time>2019-07-16T07:33:50Z</time>
      </trkpt>
      <trkpt lat="44.09136" lon="6.93035">
        <ele>1704.4</ele>
        <time>2019-07-16T07:33:52Z</time>
      </trkpt>
      <trkpt lat="44.09136" lon="6.93029">
        <ele>1705</ele>
        <time>2019-07-16T07:33:55Z</time>
      </trkpt>
      <trkpt lat="44.09136" lon="6.93025">
        <ele>1705.5</ele>
        <time>2019-07-16T07:33:57Z</time>
      </trkpt>
      <trkpt lat="44.09135" lon="6.93019">
        <ele>1706.1</ele>
        <time>2019-07-16T07:34:00Z</time>
      </trkpt>
      <trkpt lat="44.09135" lon="6.93015">
        <ele>1706.6</ele>
        <time>2019-07-16T07:34:03Z</time>
      </trkpt>
      <trkpt lat="44.09134" lon="6.93011">
        <ele>1707.1</ele>
        <time>2019-07-16T07:34:05Z</time>
      </trkpt>
      <trkpt lat="44.09134" lon="6.93007">
        <ele>1707.5</ele>
        <time>2019-07-16T07:34:07Z</time>
      </trkpt>
      <trkpt lat="44.09133" lon="6.93003">
        <ele>1707.9</ele>
        <time>2019-07-16T07:34:09Z</time>
      </trkpt>
      <trkpt lat="44.09132" lon="6.92999">
        <ele>1708.4</ele>
        <time>2019-07-16T07:34:11Z</time>
      </trkpt>
      <trkpt lat="44.09132" lon="6.92994">
        <ele>1708.9</ele>
        <time>2019-07-16T07:34:14Z</time>
      </trkpt>
      <trkpt lat="44.09131" lon="6.92989">
        <ele>1709.3</ele>
        <time>2019-07-16T07:34:16Z</time>
      </trkpt>
      <trkpt lat="44.09131" lon="6.92985">
        <ele>1709.7</ele>
        <time>2019-07-16T07:34:19Z</time>
      </trkpt>
      <trkpt lat="44.09131" lon="6.9298">
        <ele>1710.1</ele>
        <time>2019-07-16T07:34:22Z</time>
      </trkpt>
      <trkpt lat="44.09132" lon="6.92975">
        <ele>1710.5</ele>
        <time>2019-07-16T07:34:25Z</time>
      </trkpt>
      <trkpt lat="44.09132" lon="6.92971">
        <ele>1710.8</ele>
        <time>2019-07-16T07:34:27Z</time>
      </trkpt>
      <trkpt lat="44.09132" lon="6.92966">
        <ele>1711.2</ele>
        <time>2019-07-16T07:34:30Z</time>
      </trkpt>
      <trkpt lat="44.09132" lon="6.92961">
        <ele>1711.6</ele>
        <time>2019-07-16T07:34:33Z</time>
      </trkpt>
      <trkpt lat="44.09132" lon="6.92956">
        <ele>1711.9</ele>
        <time>2019-07-16T07:34:35Z</time>
      </trkpt>
      <trkpt lat="44.09131" lon="6.9295">
        <ele>1712.3</ele>
        <time>2019-07-16T07:34:38Z</time>
      </trkpt>
      <trkpt lat="44.09131" lon="6.92946">
        <ele>1712.6</ele>
        <time>2019-07-16T07:34:40Z</time>
      </trkpt>
      <trkpt lat="44.09131" lon="6.92942">
        <ele>1712.7</ele>
        <time>2019-07-16T07:34:42Z</time>
      </trkpt>
      <trkpt lat="44.09131" lon="6.92938">
        <ele>1712.9</ele>
        <time>2019-07-16T07:34:44Z</time>
      </trkpt>
      <trkpt lat="44.0913" lon="6.92933">
        <ele>1713.1</ele>
        <time>2019-07-16T07:34:46Z</time>
      </trkpt>
      <trkpt lat="44.09128" lon="6.92929">
        <ele>1713.3</ele>
        <time>2019-07-16T07:34:49Z</time>
      </trkpt>
      <trkpt lat="44.09127" lon="6.92924">
        <ele>1713.5</ele>
        <time>2019-07-16T07:34:52Z</time>
      </trkpt>
      <trkpt lat="44.09124" lon="6.9292">
        <ele>1713.7</ele>
        <time>2019-07-16T07:34:55Z</time>
      </trkpt>
      <trkpt lat="44.09122" lon="6.92916">
        <ele>1714</ele>
        <time>2019-07-16T07:34:57Z</time>
      </trkpt>
      <trkpt lat="44.09119" lon="6.92913">
        <ele>1714.2</ele>
        <time>2019-07-16T07:34:59Z</time>
      </trkpt>
      <trkpt lat="44.09116" lon="6.92911">
        <ele>1714.5</ele>
        <time>2019-07-16T07:35:01Z</time>
      </trkpt>
      <trkpt lat="44.09113" lon="6.92909">
        <ele>1714.7</ele>
        <time>2019-07-16T07:35:03Z</time>
      </trkpt>
      <trkpt lat="44.0911" lon="6.92908">
        <ele>1714.9</ele>
        <time>2019-07-16T07:35:05Z</time>
      </trkpt>
      <trkpt lat="44.09107" lon="6.92908">
        <ele>1715.2</ele>
        <time>2019-07-16T07:35:07Z</time>
      </trkpt>
      <trkpt lat="44.09105" lon="6.92908">
        <ele>1715.6</ele>
        <time>2019-07-16T07:35:09Z</time>
      </trkpt>
      <trkpt lat="44.09102" lon="6.9291">
        <ele>1715.9</ele>
        <time>2019-07-16T07:35:11Z</time>
      </trkpt>
      <trkpt lat="44.09099" lon="6.92911">
        <ele>1716.2</ele>
        <time>2019-07-16T07:35:14Z</time>
      </trkpt>
      <trkpt lat="44.09096" lon="6.92913">
        <ele>1716.5</ele>
        <time>2019-07-16T07:35:16Z</time>
      </trkpt>
      <trkpt lat="44.09094" lon="6.92917">
        <ele>1716.9</ele>
        <time>2019-07-16T07:35:19Z</time>
      </trkpt>
      <trkpt lat="44.09091" lon="6.92921">
        <ele>1717.3</ele>
        <time>2019-07-16T07:35:21Z</time>
      </trkpt>
      <trkpt lat="44.09091" lon="6.92925">
        <ele>1717.5</ele>
        <time>2019-07-16T07:35:23Z</time>
      </trkpt>
      <trkpt lat="44.0909" lon="6.9293">
        <ele>1717.8</ele>
        <time>2019-07-16T07:35:26Z</time>
      </trkpt>
      <trkpt lat="44.09088" lon="6.92934">
        <ele>1718.1</ele>
        <time>2019-07-16T07:35:29Z</time>
      </trkpt>
      <trkpt lat="44.09089" lon="6.92943">
        <ele>1718.6</ele>
        <time>2019-07-16T07:36:25Z</time>
      </trkpt>
      <trkpt lat="44.09089" lon="6.92947">
        <ele>1718.8</ele>
        <time>2019-07-16T07:36:27Z</time>
      </trkpt>
      <trkpt lat="44.09088" lon="6.92951">
        <ele>1719.1</ele>
        <time>2019-07-16T07:36:29Z</time>
      </trkpt>
      <trkpt lat="44.09087" lon="6.92955">
        <ele>1719.3</ele>
        <time>2019-07-16T07:36:31Z</time>
      </trkpt>
      <trkpt lat="44.09086" lon="6.92959">
        <ele>1719.5</ele>
        <time>2019-07-16T07:36:33Z</time>
      </trkpt>
      <trkpt lat="44.09086" lon="6.92964">
        <ele>1719.8</ele>
        <time>2019-07-16T07:36:35Z</time>
      </trkpt>
      <trkpt lat="44.09085" lon="6.92969">
        <ele>1720</ele>
        <time>2019-07-16T07:36:37Z</time>
      </trkpt>
      <trkpt lat="44.09084" lon="6.92974">
        <ele>1720.3</ele>
        <time>2019-07-16T07:36:40Z</time>
      </trkpt>
      <trkpt lat="44.09082" lon="6.92978">
        <ele>1720.5</ele>
        <time>2019-07-16T07:36:43Z</time>
      </trkpt>
      <trkpt lat="44.09083" lon="6.92982">
        <ele>1720.6</ele>
        <time>2019-07-16T07:37:59Z</time>
      </trkpt>
      <trkpt lat="44.09083" lon="6.92987">
        <ele>1720.8</ele>
        <time>2019-07-16T07:38:07Z</time>
      </trkpt>
      <trkpt lat="44.09082" lon="6.92991">
        <ele>1721</ele>
        <time>2019-07-16T07:38:09Z</time>
      </trkpt>
      <trkpt lat="44.0908" lon="6.92996">
        <ele>1721.2</ele>
        <time>2019-07-16T07:38:11Z</time>
      </trkpt>
      <trkpt lat="44.09078" lon="6.93001">
        <ele>1721.5</ele>
        <time>2019-07-16T07:38:13Z</time>
      </trkpt>
      <trkpt lat="44.09077" lon="6.93006">
        <ele>1721.7</ele>
        <time>2019-07-16T07:38:15Z</time>
      </trkpt>
      <trkpt lat="44.09075" lon="6.93011">
        <ele>1722</ele>
        <time>2019-07-16T07:38:17Z</time>
      </trkpt>
      <trkpt lat="44.09073" lon="6.93015">
        <ele>1722.2</ele>
        <time>2019-07-16T07:38:19Z</time>
      </trkpt>
      <trkpt lat="44.09072" lon="6.93021">
        <ele>1722.6</ele>
        <time>2019-07-16T07:38:21Z</time>
      </trkpt>
      <trkpt lat="44.0907" lon="6.93026">
        <ele>1723</ele>
        <time>2019-07-16T07:38:23Z</time>
      </trkpt>
      <trkpt lat="44.09068" lon="6.93031">
        <ele>1723.4</ele>
        <time>2019-07-16T07:38:25Z</time>
      </trkpt>
      <trkpt lat="44.09066" lon="6.93036">
        <ele>1723.9</ele>
        <time>2019-07-16T07:38:27Z</time>
      </trkpt>
      <trkpt lat="44.09064" lon="6.93041">
        <ele>1724.3</ele>
        <time>2019-07-16T07:38:29Z</time>
      </trkpt>
      <trkpt lat="44.09062" lon="6.93046">
        <ele>1724.8</ele>
        <time>2019-07-16T07:38:31Z</time>
      </trkpt>
      <trkpt lat="44.0906" lon="6.93051">
        <ele>1725.3</ele>
        <time>2019-07-16T07:38:33Z</time>
      </trkpt>
      <trkpt lat="44.09058" lon="6.93056">
        <ele>1725.8</ele>
        <time>2019-07-16T07:38:35Z</time>
      </trkpt>
      <trkpt lat="44.09055" lon="6.93061">
        <ele>1726.4</ele>
        <time>2019-07-16T07:38:37Z</time>
      </trkpt>
      <trkpt lat="44.09053" lon="6.93067">
        <ele>1727</ele>
        <time>2019-07-16T07:38:39Z</time>
      </trkpt>
      <trkpt lat="44.09051" lon="6.9307">
        <ele>1727.4</ele>
        <time>2019-07-16T07:38:41Z</time>
      </trkpt>
      <trkpt lat="44.09049" lon="6.93075">
        <ele>1727.8</ele>
        <time>2019-07-16T07:38:43Z</time>
      </trkpt>
      <trkpt lat="44.09047" lon="6.93079">
        <ele>1728.3</ele>
        <time>2019-07-16T07:38:45Z</time>
      </trkpt>
      <trkpt lat="44.09045" lon="6.93084">
        <ele>1728.8</ele>
        <time>2019-07-16T07:38:47Z</time>
      </trkpt>
      <trkpt lat="44.09043" lon="6.93089">
        <ele>1729.4</ele>
        <time>2019-07-16T07:38:49Z</time>
      </trkpt>
      <trkpt lat="44.09042" lon="6.93093">
        <ele>1729.8</ele>
        <time>2019-07-16T07:38:51Z</time>
      </trkpt>
      <trkpt lat="44.09039" lon="6.93097">
        <ele>1730.4</ele>
        <time>2019-07-16T07:38:53Z</time>
      </trkpt>
      <trkpt lat="44.09038" lon="6.93102">
        <ele>1731</ele>
        <time>2019-07-16T07:38:55Z</time>
      </trkpt>
      <trkpt lat="44.09037" lon="6.93106">
        <ele>1731.5</ele>
        <time>2019-07-16T07:38:57Z</time>
      </trkpt>
      <trkpt lat="44.09034" lon="6.93108">
        <ele>1732</ele>
        <time>2019-07-16T07:38:59Z</time>
      </trkpt>
      <trkpt lat="44.09032" lon="6.93113">
        <ele>1732.7</ele>
        <time>2019-07-16T07:39:02Z</time>
      </trkpt>
      <trkpt lat="44.0903" lon="6.93117">
        <ele>1733.2</ele>
        <time>2019-07-16T07:39:04Z</time>
      </trkpt>
      <trkpt lat="44.09029" lon="6.93121">
        <ele>1733.7</ele>
        <time>2019-07-16T07:39:06Z</time>
      </trkpt>
      <trkpt lat="44.09027" lon="6.93124">
        <ele>1734.2</ele>
        <time>2019-07-16T07:39:08Z</time>
      </trkpt>
      <trkpt lat="44.09025" lon="6.93129">
        <ele>1734.8</ele>
        <time>2019-07-16T07:39:11Z</time>
      </trkpt>
      <trkpt lat="44.09024" lon="6.93133">
        <ele>1735.2</ele>
        <time>2019-07-16T07:39:13Z</time>
      </trkpt>
      <trkpt lat="44.09023" lon="6.93137">
        <ele>1735.8</ele>
        <time>2019-07-16T07:39:16Z</time>
      </trkpt>
      <trkpt lat="44.09021" lon="6.93141">
        <ele>1736.3</ele>
        <time>2019-07-16T07:39:18Z</time>
      </trkpt>
      <trkpt lat="44.0902" lon="6.93145">
        <ele>1736.8</ele>
        <time>2019-07-16T07:39:20Z</time>
      </trkpt>
      <trkpt lat="44.09019" lon="6.93149">
        <ele>1737.3</ele>
        <time>2019-07-16T07:39:22Z</time>
      </trkpt>
      <trkpt lat="44.09017" lon="6.93153">
        <ele>1737.8</ele>
        <time>2019-07-16T07:39:24Z</time>
      </trkpt>
      <trkpt lat="44.09015" lon="6.93157">
        <ele>1738.4</ele>
        <time>2019-07-16T07:39:26Z</time>
      </trkpt>
      <trkpt lat="44.09013" lon="6.93161">
        <ele>1739.1</ele>
        <time>2019-07-16T07:39:28Z</time>
      </trkpt>
      <trkpt lat="44.09011" lon="6.93164">
        <ele>1739.5</ele>
        <time>2019-07-16T07:39:30Z</time>
      </trkpt>
      <trkpt lat="44.09009" lon="6.93168">
        <ele>1740.1</ele>
        <time>2019-07-16T07:39:32Z</time>
      </trkpt>
      <trkpt lat="44.09007" lon="6.93171">
        <ele>1740.6</ele>
        <time>2019-07-16T07:39:34Z</time>
      </trkpt>
      <trkpt lat="44.09005" lon="6.93175">
        <ele>1741.2</ele>
        <time>2019-07-16T07:39:36Z</time>
      </trkpt>
      <trkpt lat="44.09002" lon="6.93178">
        <ele>1741.8</ele>
        <time>2019-07-16T07:39:38Z</time>
      </trkpt>
      <trkpt lat="44.09" lon="6.93181">
        <ele>1742.5</ele>
        <time>2019-07-16T07:39:40Z</time>
      </trkpt>
      <trkpt lat="44.08997" lon="6.93184">
        <ele>1743.1</ele>
        <time>2019-07-16T07:39:42Z</time>
      </trkpt>
      <trkpt lat="44.08995" lon="6.93187">
        <ele>1743.7</ele>
        <time>2019-07-16T07:39:44Z</time>
      </trkpt>
      <trkpt lat="44.08992" lon="6.93189">
        <ele>1744.3</ele>
        <time>2019-07-16T07:39:46Z</time>
      </trkpt>
      <trkpt lat="44.08989" lon="6.93194">
        <ele>1745.2</ele>
        <time>2019-07-16T07:39:49Z</time>
      </trkpt>
      <trkpt lat="44.08986" lon="6.93198">
        <ele>1745.9</ele>
        <time>2019-07-16T07:39:51Z</time>
      </trkpt>
      <trkpt lat="44.08983" lon="6.93201">
        <ele>1746.5</ele>
        <time>2019-07-16T07:39:53Z</time>
      </trkpt>
      <trkpt lat="44.0898" lon="6.93205">
        <ele>1747.1</ele>
        <time>2019-07-16T07:39:55Z</time>
      </trkpt>
      <trkpt lat="44.08977" lon="6.93207">
        <ele>1747.7</ele>
        <time>2019-07-16T07:39:57Z</time>
      </trkpt>
      <trkpt lat="44.08974" lon="6.9321">
        <ele>1748.3</ele>
        <time>2019-07-16T07:39:59Z</time>
      </trkpt>
      <trkpt lat="44.08971" lon="6.93213">
        <ele>1748.9</ele>
        <time>2019-07-16T07:40:01Z</time>
      </trkpt>
      <trkpt lat="44.08967" lon="6.93216">
        <ele>1749.5</ele>
        <time>2019-07-16T07:40:03Z</time>
      </trkpt>
      <trkpt lat="44.08962" lon="6.9322">
        <ele>1750.1</ele>
        <time>2019-07-16T07:40:05Z</time>
      </trkpt>
      <trkpt lat="44.0896" lon="6.93223">
        <ele>1750.4</ele>
        <time>2019-07-16T07:40:06Z</time>
      </trkpt>
      <trkpt lat="44.08956" lon="6.93227">
        <ele>1750.7</ele>
        <time>2019-07-16T07:40:08Z</time>
      </trkpt>
      <trkpt lat="44.08953" lon="6.93229">
        <ele>1751</ele>
        <time>2019-07-16T07:40:10Z</time>
      </trkpt>
      <trkpt lat="44.0895" lon="6.93233">
        <ele>1751.3</ele>
        <time>2019-07-16T07:40:12Z</time>
      </trkpt>
      <trkpt lat="44.08948" lon="6.93237">
        <ele>1751.4</ele>
        <time>2019-07-16T07:40:14Z</time>
      </trkpt>
      <trkpt lat="44.08945" lon="6.93241">
        <ele>1751.6</ele>
        <time>2019-07-16T07:40:16Z</time>
      </trkpt>
      <trkpt lat="44.08943" lon="6.93245">
        <ele>1751.7</ele>
        <time>2019-07-16T07:40:18Z</time>
      </trkpt>
      <trkpt lat="44.08939" lon="6.9325">
        <ele>1751.8</ele>
        <time>2019-07-16T07:40:20Z</time>
      </trkpt>
      <trkpt lat="44.08936" lon="6.93255">
        <ele>1751.8</ele>
        <time>2019-07-16T07:40:22Z</time>
      </trkpt>
      <trkpt lat="44.08933" lon="6.93261">
        <ele>1751.7</ele>
        <time>2019-07-16T07:40:24Z</time>
      </trkpt>
      <trkpt lat="44.08931" lon="6.93264">
        <ele>1751.6</ele>
        <time>2019-07-16T07:40:25Z</time>
      </trkpt>
      <trkpt lat="44.08929" lon="6.93268">
        <ele>1751.5</ele>
        <time>2019-07-16T07:40:27Z</time>
      </trkpt>
      <trkpt lat="44.08927" lon="6.93271">
        <ele>1751.3</ele>
        <time>2019-07-16T07:40:29Z</time>
      </trkpt>
      <trkpt lat="44.08923" lon="6.93275">
        <ele>1751</ele>
        <time>2019-07-16T07:40:31Z</time>
      </trkpt>
      <trkpt lat="44.08921" lon="6.93279">
        <ele>1750.8</ele>
        <time>2019-07-16T07:40:33Z</time>
      </trkpt>
      <trkpt lat="44.08919" lon="6.93282">
        <ele>1750.5</ele>
        <time>2019-07-16T07:40:35Z</time>
      </trkpt>
      <trkpt lat="44.08916" lon="6.93286">
        <ele>1750.2</ele>
        <time>2019-07-16T07:40:37Z</time>
      </trkpt>
      <trkpt lat="44.08913" lon="6.93292">
        <ele>1749.8</ele>
        <time>2019-07-16T07:40:39Z</time>
      </trkpt>
      <trkpt lat="44.08911" lon="6.93296">
        <ele>1749.5</ele>
        <time>2019-07-16T07:40:41Z</time>
      </trkpt>
      <trkpt lat="44.08909" lon="6.93301">
        <ele>1749.1</ele>
        <time>2019-07-16T07:40:43Z</time>
      </trkpt>
      <trkpt lat="44.08905" lon="6.93306">
        <ele>1748.6</ele>
        <time>2019-07-16T07:40:45Z</time>
      </trkpt>
      <trkpt lat="44.08904" lon="6.93309">
        <ele>1748.3</ele>
        <time>2019-07-16T07:40:46Z</time>
      </trkpt>
      <trkpt lat="44.08902" lon="6.93314">
        <ele>1747.9</ele>
        <time>2019-07-16T07:40:48Z</time>
      </trkpt>
      <trkpt lat="44.089" lon="6.93319">
        <ele>1747.5</ele>
        <time>2019-07-16T07:40:50Z</time>
      </trkpt>
      <trkpt lat="44.08898" lon="6.93324">
        <ele>1747.1</ele>
        <time>2019-07-16T07:40:52Z</time>
      </trkpt>
      <trkpt lat="44.08895" lon="6.9333">
        <ele>1746.7</ele>
        <time>2019-07-16T07:40:54Z</time>
      </trkpt>
      <trkpt lat="44.08893" lon="6.93335">
        <ele>1746.3</ele>
        <time>2019-07-16T07:40:56Z</time>
      </trkpt>
      <trkpt lat="44.08891" lon="6.93338">
        <ele>1745.9</ele>
        <time>2019-07-16T07:40:58Z</time>
      </trkpt>
      <trkpt lat="44.08888" lon="6.93341">
        <ele>1745.4</ele>
        <time>2019-07-16T07:41:00Z</time>
      </trkpt>
      <trkpt lat="44.08885" lon="6.93344">
        <ele>1745.4</ele>
        <time>2019-07-16T07:41:02Z</time>
      </trkpt>
      <trkpt lat="44.08881" lon="6.93344">
        <ele>1745.5</ele>
        <time>2019-07-16T07:41:05Z</time>
      </trkpt>
      <trkpt lat="44.08877" lon="6.93344">
        <ele>1745.5</ele>
        <time>2019-07-16T07:41:07Z</time>
      </trkpt>
      <trkpt lat="44.08874" lon="6.93344">
        <ele>1745.6</ele>
        <time>2019-07-16T07:41:09Z</time>
      </trkpt>
      <trkpt lat="44.0887" lon="6.93343">
        <ele>1745.6</ele>
        <time>2019-07-16T07:41:11Z</time>
      </trkpt>
      <trkpt lat="44.08866" lon="6.9334">
        <ele>1745.7</ele>
        <time>2019-07-16T07:41:13Z</time>
      </trkpt>
      <trkpt lat="44.08863" lon="6.93339">
        <ele>1745.7</ele>
        <time>2019-07-16T07:41:14Z</time>
      </trkpt>
      <trkpt lat="44.0886" lon="6.93338">
        <ele>1745.7</ele>
        <time>2019-07-16T07:41:15Z</time>
      </trkpt>
      <trkpt lat="44.08857" lon="6.93337">
        <ele>1745.8</ele>
        <time>2019-07-16T07:41:16Z</time>
      </trkpt>
      <trkpt lat="44.08852" lon="6.93336">
        <ele>1745.8</ele>
        <time>2019-07-16T07:41:18Z</time>
      </trkpt>
      <trkpt lat="44.08849" lon="6.93335">
        <ele>1745.9</ele>
        <time>2019-07-16T07:41:19Z</time>
      </trkpt>
      <trkpt lat="44.08844" lon="6.93332">
        <ele>1745.9</ele>
        <time>2019-07-16T07:41:21Z</time>
      </trkpt>
      <trkpt lat="44.08839" lon="6.93329">
        <ele>1746</ele>
        <time>2019-07-16T07:41:23Z</time>
      </trkpt>
      <trkpt lat="44.08834" lon="6.93326">
        <ele>1746.1</ele>
        <time>2019-07-16T07:41:25Z</time>
      </trkpt>
      <trkpt lat="44.08831" lon="6.93323">
        <ele>1746.1</ele>
        <time>2019-07-16T07:41:26Z</time>
      </trkpt>
      <trkpt lat="44.08827" lon="6.9332">
        <ele>1746.2</ele>
        <time>2019-07-16T07:41:28Z</time>
      </trkpt>
      <trkpt lat="44.08825" lon="6.93317">
        <ele>1746.2</ele>
        <time>2019-07-16T07:41:29Z</time>
      </trkpt>
      <trkpt lat="44.08822" lon="6.93311">
        <ele>1746.3</ele>
        <time>2019-07-16T07:41:31Z</time>
      </trkpt>
      <trkpt lat="44.08821" lon="6.93308">
        <ele>1746.3</ele>
        <time>2019-07-16T07:41:32Z</time>
      </trkpt>
      <trkpt lat="44.08819" lon="6.93301">
        <ele>1746.4</ele>
        <time>2019-07-16T07:41:34Z</time>
      </trkpt>
      <trkpt lat="44.08816" lon="6.93295">
        <ele>1746.4</ele>
        <time>2019-07-16T07:41:36Z</time>
      </trkpt>
      <trkpt lat="44.08815" lon="6.93291">
        <ele>1746.5</ele>
        <time>2019-07-16T07:41:37Z</time>
      </trkpt>
      <trkpt lat="44.08813" lon="6.93288">
        <ele>1746.5</ele>
        <time>2019-07-16T07:41:38Z</time>
      </trkpt>
      <trkpt lat="44.0881" lon="6.93282">
        <ele>1746.6</ele>
        <time>2019-07-16T07:41:40Z</time>
      </trkpt>
      <trkpt lat="44.08808" lon="6.93278">
        <ele>1746.6</ele>
        <time>2019-07-16T07:41:42Z</time>
      </trkpt>
      <trkpt lat="44.08804" lon="6.93272">
        <ele>1746.7</ele>
        <time>2019-07-16T07:41:44Z</time>
      </trkpt>
      <trkpt lat="44.08801" lon="6.9327">
        <ele>1746.7</ele>
        <time>2019-07-16T07:41:45Z</time>
      </trkpt>
      <trkpt lat="44.08799" lon="6.93267">
        <ele>1746.8</ele>
        <time>2019-07-16T07:41:46Z</time>
      </trkpt>
      <trkpt lat="44.08796" lon="6.93261">
        <ele>1746.9</ele>
        <time>2019-07-16T07:41:48Z</time>
      </trkpt>
      <trkpt lat="44.08794" lon="6.93256">
        <ele>1747</ele>
        <time>2019-07-16T07:41:50Z</time>
      </trkpt>
      <trkpt lat="44.0879" lon="6.93251">
        <ele>1747</ele>
        <time>2019-07-16T07:41:52Z</time>
      </trkpt>
      <trkpt lat="44.08787" lon="6.93249">
        <ele>1747</ele>
        <time>2019-07-16T07:41:53Z</time>
      </trkpt>
      <trkpt lat="44.08785" lon="6.93246">
        <ele>1747.1</ele>
        <time>2019-07-16T07:41:54Z</time>
      </trkpt>
      <trkpt lat="44.08783" lon="6.93244">
        <ele>1747.1</ele>
        <time>2019-07-16T07:41:55Z</time>
      </trkpt>
      <trkpt lat="44.08781" lon="6.9324">
        <ele>1747.1</ele>
        <time>2019-07-16T07:41:56Z</time>
      </trkpt>
      <trkpt lat="44.08779" lon="6.93237">
        <ele>1747.2</ele>
        <time>2019-07-16T07:41:57Z</time>
      </trkpt>
      <trkpt lat="44.08777" lon="6.93234">
        <ele>1747.2</ele>
        <time>2019-07-16T07:41:58Z</time>
      </trkpt>
      <trkpt lat="44.08775" lon="6.93231">
        <ele>1747.3</ele>
        <time>2019-07-16T07:41:59Z</time>
      </trkpt>
      <trkpt lat="44.08773" lon="6.93229">
        <ele>1747.3</ele>
        <time>2019-07-16T07:42:00Z</time>
      </trkpt>
      <trkpt lat="44.0877" lon="6.93223">
        <ele>1747.4</ele>
        <time>2019-07-16T07:42:02Z</time>
      </trkpt>
      <trkpt lat="44.08767" lon="6.93218">
        <ele>1747.4</ele>
        <time>2019-07-16T07:42:04Z</time>
      </trkpt>
      <trkpt lat="44.08764" lon="6.93213">
        <ele>1747.5</ele>
        <time>2019-07-16T07:42:06Z</time>
      </trkpt>
      <trkpt lat="44.0876" lon="6.93207">
        <ele>1747.5</ele>
        <time>2019-07-16T07:42:08Z</time>
      </trkpt>
      <trkpt lat="44.08758" lon="6.93203">
        <ele>1747.6</ele>
        <time>2019-07-16T07:42:09Z</time>
      </trkpt>
      <trkpt lat="44.08756" lon="6.932">
        <ele>1747.6</ele>
        <time>2019-07-16T07:42:10Z</time>
      </trkpt>
      <trkpt lat="44.08754" lon="6.93198">
        <ele>1747.6</ele>
        <time>2019-07-16T07:42:11Z</time>
      </trkpt>
      <trkpt lat="44.0875" lon="6.93193">
        <ele>1747.7</ele>
        <time>2019-07-16T07:42:13Z</time>
      </trkpt>
      <trkpt lat="44.08747" lon="6.93188">
        <ele>1747.8</ele>
        <time>2019-07-16T07:42:15Z</time>
      </trkpt>
      <trkpt lat="44.08743" lon="6.93184">
        <ele>1747.8</ele>
        <time>2019-07-16T07:42:17Z</time>
      </trkpt>
      <trkpt lat="44.08741" lon="6.93181">
        <ele>1747.9</ele>
        <time>2019-07-16T07:42:18Z</time>
      </trkpt>
      <trkpt lat="44.08739" lon="6.93178">
        <ele>1747.9</ele>
        <time>2019-07-16T07:42:19Z</time>
      </trkpt>
      <trkpt lat="44.08737" lon="6.93174">
        <ele>1747.9</ele>
        <time>2019-07-16T07:42:20Z</time>
      </trkpt>
      <trkpt lat="44.08735" lon="6.9317">
        <ele>1748</ele>
        <time>2019-07-16T07:42:21Z</time>
      </trkpt>
      <trkpt lat="44.08732" lon="6.93164">
        <ele>1748.1</ele>
        <time>2019-07-16T07:42:23Z</time>
      </trkpt>
      <trkpt lat="44.08729" lon="6.93158">
        <ele>1748.2</ele>
        <time>2019-07-16T07:42:25Z</time>
      </trkpt>
      <trkpt lat="44.08727" lon="6.93155">
        <ele>1748.2</ele>
        <time>2019-07-16T07:42:26Z</time>
      </trkpt>
      <trkpt lat="44.08726" lon="6.93152">
        <ele>1748.2</ele>
        <time>2019-07-16T07:42:27Z</time>
      </trkpt>
      <trkpt lat="44.08724" lon="6.93148">
        <ele>1748.3</ele>
        <time>2019-07-16T07:42:28Z</time>
      </trkpt>
      <trkpt lat="44.08722" lon="6.93145">
        <ele>1748.3</ele>
        <time>2019-07-16T07:42:29Z</time>
      </trkpt>
      <trkpt lat="44.0872" lon="6.93139">
        <ele>1748.4</ele>
        <time>2019-07-16T07:42:31Z</time>
      </trkpt>
      <trkpt lat="44.08718" lon="6.93135">
        <ele>1748.4</ele>
        <time>2019-07-16T07:42:32Z</time>
      </trkpt>
      <trkpt lat="44.08716" lon="6.93132">
        <ele>1748.5</ele>
        <time>2019-07-16T07:42:33Z</time>
      </trkpt>
      <trkpt lat="44.08714" lon="6.93129">
        <ele>1748.5</ele>
        <time>2019-07-16T07:42:34Z</time>
      </trkpt>
      <trkpt lat="44.08713" lon="6.93125">
        <ele>1748.5</ele>
        <time>2019-07-16T07:42:35Z</time>
      </trkpt>
      <trkpt lat="44.08711" lon="6.93119">
        <ele>1748.6</ele>
        <time>2019-07-16T07:42:37Z</time>
      </trkpt>
      <trkpt lat="44.0871" lon="6.93115">
        <ele>1748.6</ele>
        <time>2019-07-16T07:42:38Z</time>
      </trkpt>
      <trkpt lat="44.08708" lon="6.93111">
        <ele>1748.7</ele>
        <time>2019-07-16T07:42:39Z</time>
      </trkpt>
      <trkpt lat="44.08707" lon="6.93108">
        <ele>1748.7</ele>
        <time>2019-07-16T07:42:40Z</time>
      </trkpt>
      <trkpt lat="44.08706" lon="6.93104">
        <ele>1748.8</ele>
        <time>2019-07-16T07:42:41Z</time>
      </trkpt>
      <trkpt lat="44.08705" lon="6.931">
        <ele>1748.8</ele>
        <time>2019-07-16T07:42:42Z</time>
      </trkpt>
      <trkpt lat="44.08704" lon="6.93097">
        <ele>1748.8</ele>
        <time>2019-07-16T07:42:43Z</time>
      </trkpt>
      <trkpt lat="44.08702" lon="6.9309">
        <ele>1748.9</ele>
        <time>2019-07-16T07:42:45Z</time>
      </trkpt>
      <trkpt lat="44.087" lon="6.93086">
        <ele>1748.9</ele>
        <time>2019-07-16T07:42:46Z</time>
      </trkpt>
      <trkpt lat="44.08699" lon="6.93083">
        <ele>1748.9</ele>
        <time>2019-07-16T07:42:47Z</time>
      </trkpt>
      <trkpt lat="44.08697" lon="6.93076">
        <ele>1749</ele>
        <time>2019-07-16T07:42:49Z</time>
      </trkpt>
      <trkpt lat="44.08695" lon="6.93072">
        <ele>1749</ele>
        <time>2019-07-16T07:42:50Z</time>
      </trkpt>
      <trkpt lat="44.08693" lon="6.93069">
        <ele>1749.1</ele>
        <time>2019-07-16T07:42:51Z</time>
      </trkpt>
      <trkpt lat="44.08692" lon="6.93065">
        <ele>1749.1</ele>
        <time>2019-07-16T07:42:52Z</time>
      </trkpt>
      <trkpt lat="44.0869" lon="6.93061">
        <ele>1749.2</ele>
        <time>2019-07-16T07:42:53Z</time>
      </trkpt>
      <trkpt lat="44.08688" lon="6.93057">
        <ele>1749.2</ele>
        <time>2019-07-16T07:42:54Z</time>
      </trkpt>
      <trkpt lat="44.08686" lon="6.93054">
        <ele>1749.3</ele>
        <time>2019-07-16T07:42:55Z</time>
      </trkpt>
      <trkpt lat="44.08684" lon="6.9305">
        <ele>1749.3</ele>
        <time>2019-07-16T07:42:56Z</time>
      </trkpt>
      <trkpt lat="44.08682" lon="6.93046">
        <ele>1749.4</ele>
        <time>2019-07-16T07:42:57Z</time>
      </trkpt>
      <trkpt lat="44.0868" lon="6.93042">
        <ele>1749.4</ele>
        <time>2019-07-16T07:42:58Z</time>
      </trkpt>
      <trkpt lat="44.08679" lon="6.93038">
        <ele>1749.4</ele>
        <time>2019-07-16T07:42:59Z</time>
      </trkpt>
      <trkpt lat="44.08677" lon="6.93035">
        <ele>1749.5</ele>
        <time>2019-07-16T07:43:00Z</time>
      </trkpt>
      <trkpt lat="44.08675" lon="6.93031">
        <ele>1749.5</ele>
        <time>2019-07-16T07:43:01Z</time>
      </trkpt>
      <trkpt lat="44.08673" lon="6.93027">
        <ele>1749.6</ele>
        <time>2019-07-16T07:43:02Z</time>
      </trkpt>
      <trkpt lat="44.0867" lon="6.93024">
        <ele>1749.7</ele>
        <time>2019-07-16T07:43:03Z</time>
      </trkpt>
      <trkpt lat="44.08668" lon="6.93021">
        <ele>1749.7</ele>
        <time>2019-07-16T07:43:04Z</time>
      </trkpt>
      <trkpt lat="44.08666" lon="6.93017">
        <ele>1749.7</ele>
        <time>2019-07-16T07:43:05Z</time>
      </trkpt>
      <trkpt lat="44.08664" lon="6.93014">
        <ele>1749.7</ele>
        <time>2019-07-16T07:43:06Z</time>
      </trkpt>
      <trkpt lat="44.08662" lon="6.9301">
        <ele>1749.8</ele>
        <time>2019-07-16T07:43:07Z</time>
      </trkpt>
      <trkpt lat="44.08659" lon="6.93008">
        <ele>1749.8</ele>
        <time>2019-07-16T07:43:08Z</time>
      </trkpt>
      <trkpt lat="44.08657" lon="6.93004">
        <ele>1749.8</ele>
        <time>2019-07-16T07:43:09Z</time>
      </trkpt>
      <trkpt lat="44.08656" lon="6.93">
        <ele>1749.9</ele>
        <time>2019-07-16T07:43:10Z</time>
      </trkpt>
      <trkpt lat="44.08653" lon="6.92997">
        <ele>1749.9</ele>
        <time>2019-07-16T07:43:11Z</time>
      </trkpt>
      <trkpt lat="44.08651" lon="6.92994">
        <ele>1750</ele>
        <time>2019-07-16T07:43:12Z</time>
      </trkpt>
      <trkpt lat="44.08649" lon="6.9299">
        <ele>1750</ele>
        <time>2019-07-16T07:43:13Z</time>
      </trkpt>
      <trkpt lat="44.08647" lon="6.92987">
        <ele>1750.1</ele>
        <time>2019-07-16T07:43:14Z</time>
      </trkpt>
      <trkpt lat="44.08645" lon="6.92984">
        <ele>1750.1</ele>
        <time>2019-07-16T07:43:15Z</time>
      </trkpt>
      <trkpt lat="44.08642" lon="6.9298">
        <ele>1750.1</ele>
        <time>2019-07-16T07:43:16Z</time>
      </trkpt>
      <trkpt lat="44.0864" lon="6.92978">
        <ele>1750.2</ele>
        <time>2019-07-16T07:43:17Z</time>
      </trkpt>
      <trkpt lat="44.08638" lon="6.92974">
        <ele>1750.2</ele>
        <time>2019-07-16T07:43:18Z</time>
      </trkpt>
      <trkpt lat="44.08636" lon="6.92971">
        <ele>1750.3</ele>
        <time>2019-07-16T07:43:19Z</time>
      </trkpt>
      <trkpt lat="44.08633" lon="6.92967">
        <ele>1750.3</ele>
        <time>2019-07-16T07:43:20Z</time>
      </trkpt>
      <trkpt lat="44.08632" lon="6.92964">
        <ele>1750.4</ele>
        <time>2019-07-16T07:43:21Z</time>
      </trkpt>
      <trkpt lat="44.08629" lon="6.9296">
        <ele>1750.4</ele>
        <time>2019-07-16T07:43:22Z</time>
      </trkpt>
      <trkpt lat="44.08627" lon="6.92957">
        <ele>1750.5</ele>
        <time>2019-07-16T07:43:23Z</time>
      </trkpt>
      <trkpt lat="44.08626" lon="6.92953">
        <ele>1750.5</ele>
        <time>2019-07-16T07:43:24Z</time>
      </trkpt>
      <trkpt lat="44.08624" lon="6.92948">
        <ele>1750.6</ele>
        <time>2019-07-16T07:43:25Z</time>
      </trkpt>
      <trkpt lat="44.08622" lon="6.92944">
        <ele>1750.6</ele>
        <time>2019-07-16T07:43:26Z</time>
      </trkpt>
      <trkpt lat="44.0862" lon="6.9294">
        <ele>1750.7</ele>
        <time>2019-07-16T07:43:27Z</time>
      </trkpt>
      <trkpt lat="44.08618" lon="6.92936">
        <ele>1750.7</ele>
        <time>2019-07-16T07:43:28Z</time>
      </trkpt>
      <trkpt lat="44.08617" lon="6.92932">
        <ele>1750.8</ele>
        <time>2019-07-16T07:43:29Z</time>
      </trkpt>
      <trkpt lat="44.08615" lon="6.92928">
        <ele>1750.8</ele>
        <time>2019-07-16T07:43:30Z</time>
      </trkpt>
      <trkpt lat="44.08612" lon="6.92924">
        <ele>1750.9</ele>
        <time>2019-07-16T07:43:31Z</time>
      </trkpt>
      <trkpt lat="44.0861" lon="6.9292">
        <ele>1751</ele>
        <time>2019-07-16T07:43:32Z</time>
      </trkpt>
      <trkpt lat="44.08608" lon="6.92916">
        <ele>1751</ele>
        <time>2019-07-16T07:43:33Z</time>
      </trkpt>
      <trkpt lat="44.08605" lon="6.92912">
        <ele>1751.1</ele>
        <time>2019-07-16T07:43:34Z</time>
      </trkpt>
      <trkpt lat="44.08603" lon="6.92908">
        <ele>1751.2</ele>
        <time>2019-07-16T07:43:35Z</time>
      </trkpt>
      <trkpt lat="44.086" lon="6.92904">
        <ele>1751.3</ele>
        <time>2019-07-16T07:43:36Z</time>
      </trkpt>
      <trkpt lat="44.08598" lon="6.929">
        <ele>1751.3</ele>
        <time>2019-07-16T07:43:37Z</time>
      </trkpt>
      <trkpt lat="44.08596" lon="6.92896">
        <ele>1751.4</ele>
        <time>2019-07-16T07:43:38Z</time>
      </trkpt>
      <trkpt lat="44.08595" lon="6.92892">
        <ele>1751.4</ele>
        <time>2019-07-16T07:43:39Z</time>
      </trkpt>
      <trkpt lat="44.08593" lon="6.92888">
        <ele>1751.5</ele>
        <time>2019-07-16T07:43:40Z</time>
      </trkpt>
      <trkpt lat="44.08591" lon="6.92884">
        <ele>1751.5</ele>
        <time>2019-07-16T07:43:41Z</time>
      </trkpt>
      <trkpt lat="44.08589" lon="6.92879">
        <ele>1751.6</ele>
        <time>2019-07-16T07:43:42Z</time>
      </trkpt>
      <trkpt lat="44.08588" lon="6.92875">
        <ele>1751.6</ele>
        <time>2019-07-16T07:43:43Z</time>
      </trkpt>
      <trkpt lat="44.08586" lon="6.92871">
        <ele>1751.7</ele>
        <time>2019-07-16T07:43:44Z</time>
      </trkpt>
      <trkpt lat="44.08584" lon="6.92868">
        <ele>1751.8</ele>
        <time>2019-07-16T07:43:45Z</time>
      </trkpt>
      <trkpt lat="44.08583" lon="6.92863">
        <ele>1751.8</ele>
        <time>2019-07-16T07:43:46Z</time>
      </trkpt>
      <trkpt lat="44.08582" lon="6.92859">
        <ele>1751.9</ele>
        <time>2019-07-16T07:43:47Z</time>
      </trkpt>
      <trkpt lat="44.0858" lon="6.92855">
        <ele>1752</ele>
        <time>2019-07-16T07:43:48Z</time>
      </trkpt>
      <trkpt lat="44.08579" lon="6.92851">
        <ele>1752</ele>
        <time>2019-07-16T07:43:49Z</time>
      </trkpt>
      <trkpt lat="44.08577" lon="6.92847">
        <ele>1752.1</ele>
        <time>2019-07-16T07:43:50Z</time>
      </trkpt>
      <trkpt lat="44.08576" lon="6.92843">
        <ele>1752.1</ele>
        <time>2019-07-16T07:43:51Z</time>
      </trkpt>
      <trkpt lat="44.08574" lon="6.92838">
        <ele>1752.2</ele>
        <time>2019-07-16T07:43:52Z</time>
      </trkpt>
      <trkpt lat="44.08572" lon="6.92834">
        <ele>1752.2</ele>
        <time>2019-07-16T07:43:53Z</time>
      </trkpt>
      <trkpt lat="44.0857" lon="6.92829">
        <ele>1752.3</ele>
        <time>2019-07-16T07:43:54Z</time>
      </trkpt>
      <trkpt lat="44.0857" lon="6.92824">
        <ele>1752.4</ele>
        <time>2019-07-16T07:43:55Z</time>
      </trkpt>
      <trkpt lat="44.08569" lon="6.92819">
        <ele>1752.4</ele>
        <time>2019-07-16T07:43:56Z</time>
      </trkpt>
      <trkpt lat="44.08568" lon="6.92815">
        <ele>1752.5</ele>
        <time>2019-07-16T07:43:57Z</time>
      </trkpt>
      <trkpt lat="44.08567" lon="6.92811">
        <ele>1752.5</ele>
        <time>2019-07-16T07:43:58Z</time>
      </trkpt>
      <trkpt lat="44.08566" lon="6.92807">
        <ele>1752.6</ele>
        <time>2019-07-16T07:43:59Z</time>
      </trkpt>
      <trkpt lat="44.08566" lon="6.92802">
        <ele>1752.7</ele>
        <time>2019-07-16T07:44:00Z</time>
      </trkpt>
      <trkpt lat="44.08565" lon="6.92797">
        <ele>1752.7</ele>
        <time>2019-07-16T07:44:01Z</time>
      </trkpt>
      <trkpt lat="44.08564" lon="6.92793">
        <ele>1752.8</ele>
        <time>2019-07-16T07:44:02Z</time>
      </trkpt>
      <trkpt lat="44.08564" lon="6.92787">
        <ele>1752.8</ele>
        <time>2019-07-16T07:44:03Z</time>
      </trkpt>
      <trkpt lat="44.08564" lon="6.92782">
        <ele>1752.9</ele>
        <time>2019-07-16T07:44:04Z</time>
      </trkpt>
      <trkpt lat="44.08563" lon="6.92778">
        <ele>1752.9</ele>
        <time>2019-07-16T07:44:05Z</time>
      </trkpt>
      <trkpt lat="44.08563" lon="6.92773">
        <ele>1753</ele>
        <time>2019-07-16T07:44:06Z</time>
      </trkpt>
      <trkpt lat="44.08563" lon="6.92768">
        <ele>1753</ele>
        <time>2019-07-16T07:44:07Z</time>
      </trkpt>
      <trkpt lat="44.08563" lon="6.92763">
        <ele>1753.1</ele>
        <time>2019-07-16T07:44:08Z</time>
      </trkpt>
      <trkpt lat="44.08563" lon="6.92759">
        <ele>1753.1</ele>
        <time>2019-07-16T07:44:09Z</time>
      </trkpt>
      <trkpt lat="44.08563" lon="6.92754">
        <ele>1753.2</ele>
        <time>2019-07-16T07:44:10Z</time>
      </trkpt>
      <trkpt lat="44.08563" lon="6.9275">
        <ele>1753.3</ele>
        <time>2019-07-16T07:44:11Z</time>
      </trkpt>
      <trkpt lat="44.08564" lon="6.92745">
        <ele>1753.3</ele>
        <time>2019-07-16T07:44:12Z</time>
      </trkpt>
      <trkpt lat="44.08564" lon="6.92741">
        <ele>1753.4</ele>
        <time>2019-07-16T07:44:13Z</time>
      </trkpt>
      <trkpt lat="44.08565" lon="6.92736">
        <ele>1753.4</ele>
        <time>2019-07-16T07:44:14Z</time>
      </trkpt>
      <trkpt lat="44.08565" lon="6.92732">
        <ele>1753.5</ele>
        <time>2019-07-16T07:44:15Z</time>
      </trkpt>
      <trkpt lat="44.08566" lon="6.92727">
        <ele>1753.5</ele>
        <time>2019-07-16T07:44:16Z</time>
      </trkpt>
      <trkpt lat="44.08566" lon="6.92723">
        <ele>1753.6</ele>
        <time>2019-07-16T07:44:17Z</time>
      </trkpt>
      <trkpt lat="44.08567" lon="6.92715">
        <ele>1753.7</ele>
        <time>2019-07-16T07:44:19Z</time>
      </trkpt>
      <trkpt lat="44.08568" lon="6.92708">
        <ele>1753.8</ele>
        <time>2019-07-16T07:44:21Z</time>
      </trkpt>
      <trkpt lat="44.08569" lon="6.92704">
        <ele>1753.8</ele>
        <time>2019-07-16T07:44:22Z</time>
      </trkpt>
      <trkpt lat="44.08569" lon="6.92696">
        <ele>1753.9</ele>
        <time>2019-07-16T07:44:24Z</time>
      </trkpt>
      <trkpt lat="44.08571" lon="6.92689">
        <ele>1754</ele>
        <time>2019-07-16T07:44:26Z</time>
      </trkpt>
      <trkpt lat="44.0857" lon="6.92685">
        <ele>1754.1</ele>
        <time>2019-07-16T07:44:27Z</time>
      </trkpt>
      <trkpt lat="44.08569" lon="6.92681">
        <ele>1754.1</ele>
        <time>2019-07-16T07:44:28Z</time>
      </trkpt>
      <trkpt lat="44.08567" lon="6.92677">
        <ele>1754.2</ele>
        <time>2019-07-16T07:44:29Z</time>
      </trkpt>
      <trkpt lat="44.08566" lon="6.92674">
        <ele>1754.2</ele>
        <time>2019-07-16T07:44:30Z</time>
      </trkpt>
      <trkpt lat="44.08561" lon="6.92669">
        <ele>1754.3</ele>
        <time>2019-07-16T07:44:32Z</time>
      </trkpt>
      <trkpt lat="44.08558" lon="6.92668">
        <ele>1754.4</ele>
        <time>2019-07-16T07:44:33Z</time>
      </trkpt>
      <trkpt lat="44.08555" lon="6.92667">
        <ele>1754.4</ele>
        <time>2019-07-16T07:44:34Z</time>
      </trkpt>
      <trkpt lat="44.08552" lon="6.92668">
        <ele>1754.5</ele>
        <time>2019-07-16T07:44:35Z</time>
      </trkpt>
      <trkpt lat="44.08549" lon="6.92669">
        <ele>1754.5</ele>
        <time>2019-07-16T07:44:36Z</time>
      </trkpt>
      <trkpt lat="44.08546" lon="6.92671">
        <ele>1754.5</ele>
        <time>2019-07-16T07:44:37Z</time>
      </trkpt>
      <trkpt lat="44.08543" lon="6.92673">
        <ele>1754.5</ele>
        <time>2019-07-16T07:44:38Z</time>
      </trkpt>
      <trkpt lat="44.08541" lon="6.92676">
        <ele>1754.6</ele>
        <time>2019-07-16T07:44:39Z</time>
      </trkpt>
      <trkpt lat="44.08538" lon="6.92679">
        <ele>1754.6</ele>
        <time>2019-07-16T07:44:40Z</time>
      </trkpt>
      <trkpt lat="44.08536" lon="6.92682">
        <ele>1754.6</ele>
        <time>2019-07-16T07:44:41Z</time>
      </trkpt>
      <trkpt lat="44.08534" lon="6.92688">
        <ele>1754.7</ele>
        <time>2019-07-16T07:44:43Z</time>
      </trkpt>
      <trkpt lat="44.08533" lon="6.92692">
        <ele>1754.7</ele>
        <time>2019-07-16T07:44:44Z</time>
      </trkpt>
      <trkpt lat="44.08531" lon="6.92699">
        <ele>1754.8</ele>
        <time>2019-07-16T07:44:46Z</time>
      </trkpt>
      <trkpt lat="44.08529" lon="6.92705">
        <ele>1754.8</ele>
        <time>2019-07-16T07:44:48Z</time>
      </trkpt>
      <trkpt lat="44.08527" lon="6.92712">
        <ele>1754.8</ele>
        <time>2019-07-16T07:44:50Z</time>
      </trkpt>
      <trkpt lat="44.08526" lon="6.92716">
        <ele>1754.9</ele>
        <time>2019-07-16T07:44:51Z</time>
      </trkpt>
      <trkpt lat="44.08525" lon="6.92719">
        <ele>1754.9</ele>
        <time>2019-07-16T07:44:52Z</time>
      </trkpt>
      <trkpt lat="44.08524" lon="6.92723">
        <ele>1754.9</ele>
        <time>2019-07-16T07:44:53Z</time>
      </trkpt>
      <trkpt lat="44.08523" lon="6.92727">
        <ele>1754.9</ele>
        <time>2019-07-16T07:44:54Z</time>
      </trkpt>
      <trkpt lat="44.08522" lon="6.92731">
        <ele>1755</ele>
        <time>2019-07-16T07:44:55Z</time>
      </trkpt>
      <trkpt lat="44.08521" lon="6.92735">
        <ele>1755</ele>
        <time>2019-07-16T07:44:56Z</time>
      </trkpt>
      <trkpt lat="44.0852" lon="6.92739">
        <ele>1755</ele>
        <time>2019-07-16T07:44:57Z</time>
      </trkpt>
      <trkpt lat="44.08519" lon="6.92743">
        <ele>1755.1</ele>
        <time>2019-07-16T07:44:58Z</time>
      </trkpt>
      <trkpt lat="44.08518" lon="6.92747">
        <ele>1755.1</ele>
        <time>2019-07-16T07:44:59Z</time>
      </trkpt>
      <trkpt lat="44.08517" lon="6.92751">
        <ele>1755.1</ele>
        <time>2019-07-16T07:45:00Z</time>
      </trkpt>
      <trkpt lat="44.08516" lon="6.92755">
        <ele>1755.2</ele>
        <time>2019-07-16T07:45:01Z</time>
      </trkpt>
      <trkpt lat="44.08515" lon="6.92759">
        <ele>1755.2</ele>
        <time>2019-07-16T07:45:02Z</time>
      </trkpt>
      <trkpt lat="44.08514" lon="6.92763">
        <ele>1755.2</ele>
        <time>2019-07-16T07:45:03Z</time>
      </trkpt>
      <trkpt lat="44.08513" lon="6.92767">
        <ele>1755.3</ele>
        <time>2019-07-16T07:45:04Z</time>
      </trkpt>
      <trkpt lat="44.08512" lon="6.92771">
        <ele>1755.3</ele>
        <time>2019-07-16T07:45:05Z</time>
      </trkpt>
      <trkpt lat="44.08511" lon="6.92775">
        <ele>1755.3</ele>
        <time>2019-07-16T07:45:06Z</time>
      </trkpt>
      <trkpt lat="44.08509" lon="6.92782">
        <ele>1755.4</ele>
        <time>2019-07-16T07:45:08Z</time>
      </trkpt>
      <trkpt lat="44.08509" lon="6.92786">
        <ele>1755.4</ele>
        <time>2019-07-16T07:45:09Z</time>
      </trkpt>
      <trkpt lat="44.08508" lon="6.9279">
        <ele>1755.5</ele>
        <time>2019-07-16T07:45:10Z</time>
      </trkpt>
      <trkpt lat="44.08508" lon="6.92794">
        <ele>1755.5</ele>
        <time>2019-07-16T07:45:11Z</time>
      </trkpt>
      <trkpt lat="44.08507" lon="6.92798">
        <ele>1755.5</ele>
        <time>2019-07-16T07:45:12Z</time>
      </trkpt>
      <trkpt lat="44.08507" lon="6.92803">
        <ele>1755.5</ele>
        <time>2019-07-16T07:45:13Z</time>
      </trkpt>
      <trkpt lat="44.08506" lon="6.92808">
        <ele>1755.6</ele>
        <time>2019-07-16T07:45:14Z</time>
      </trkpt>
      <trkpt lat="44.08506" lon="6.92812">
        <ele>1755.6</ele>
        <time>2019-07-16T07:45:15Z</time>
      </trkpt>
      <trkpt lat="44.08505" lon="6.92816">
        <ele>1755.7</ele>
        <time>2019-07-16T07:45:16Z</time>
      </trkpt>
      <trkpt lat="44.08505" lon="6.9282">
        <ele>1755.7</ele>
        <time>2019-07-16T07:45:17Z</time>
      </trkpt>
      <trkpt lat="44.08505" lon="6.92825">
        <ele>1755.8</ele>
        <time>2019-07-16T07:45:18Z</time>
      </trkpt>
      <trkpt lat="44.08504" lon="6.9283">
        <ele>1755.8</ele>
        <time>2019-07-16T07:45:19Z</time>
      </trkpt>
      <trkpt lat="44.08503" lon="6.92835">
        <ele>1755.9</ele>
        <time>2019-07-16T07:45:20Z</time>
      </trkpt>
      <trkpt lat="44.08503" lon="6.92839">
        <ele>1755.9</ele>
        <time>2019-07-16T07:45:21Z</time>
      </trkpt>
      <trkpt lat="44.08503" lon="6.92844">
        <ele>1755.9</ele>
        <time>2019-07-16T07:45:22Z</time>
      </trkpt>
      <trkpt lat="44.08502" lon="6.92848">
        <ele>1756</ele>
        <time>2019-07-16T07:45:23Z</time>
      </trkpt>
      <trkpt lat="44.08501" lon="6.92852">
        <ele>1756</ele>
        <time>2019-07-16T07:45:24Z</time>
      </trkpt>
      <trkpt lat="44.08501" lon="6.92857">
        <ele>1756</ele>
        <time>2019-07-16T07:45:25Z</time>
      </trkpt>
      <trkpt lat="44.085" lon="6.92862">
        <ele>1756.1</ele>
        <time>2019-07-16T07:45:26Z</time>
      </trkpt>
      <trkpt lat="44.08499" lon="6.92867">
        <ele>1756.1</ele>
        <time>2019-07-16T07:45:27Z</time>
      </trkpt>
      <trkpt lat="44.08499" lon="6.92872">
        <ele>1756.2</ele>
        <time>2019-07-16T07:45:28Z</time>
      </trkpt>
      <trkpt lat="44.08499" lon="6.92877">
        <ele>1756.2</ele>
        <time>2019-07-16T07:45:29Z</time>
      </trkpt>
      <trkpt lat="44.08499" lon="6.92881">
        <ele>1756.3</ele>
        <time>2019-07-16T07:45:30Z</time>
      </trkpt>
      <trkpt lat="44.08499" lon="6.92886">
        <ele>1756.3</ele>
        <time>2019-07-16T07:45:31Z</time>
      </trkpt>
      <trkpt lat="44.08499" lon="6.9289">
        <ele>1756.4</ele>
        <time>2019-07-16T07:45:32Z</time>
      </trkpt>
      <trkpt lat="44.08498" lon="6.92898">
        <ele>1756.4</ele>
        <time>2019-07-16T07:45:34Z</time>
      </trkpt>
      <trkpt lat="44.08498" lon="6.92903">
        <ele>1756.5</ele>
        <time>2019-07-16T07:45:35Z</time>
      </trkpt>
      <trkpt lat="44.08497" lon="6.92908">
        <ele>1756.6</ele>
        <time>2019-07-16T07:45:36Z</time>
      </trkpt>
      <trkpt lat="44.08497" lon="6.92913">
        <ele>1756.6</ele>
        <time>2019-07-16T07:45:37Z</time>
      </trkpt>
      <trkpt lat="44.08497" lon="6.92919">
        <ele>1756.7</ele>
        <time>2019-07-16T07:45:38Z</time>
      </trkpt>
      <trkpt lat="44.08497" lon="6.92923">
        <ele>1756.7</ele>
        <time>2019-07-16T07:45:39Z</time>
      </trkpt>
      <trkpt lat="44.08497" lon="6.92928">
        <ele>1756.8</ele>
        <time>2019-07-16T07:45:40Z</time>
      </trkpt>
      <trkpt lat="44.08497" lon="6.92932">
        <ele>1756.9</ele>
        <time>2019-07-16T07:45:41Z</time>
      </trkpt>
      <trkpt lat="44.08497" lon="6.92937">
        <ele>1756.9</ele>
        <time>2019-07-16T07:45:42Z</time>
      </trkpt>
      <trkpt lat="44.08497" lon="6.92942">
        <ele>1757</ele>
        <time>2019-07-16T07:45:43Z</time>
      </trkpt>
      <trkpt lat="44.08497" lon="6.92947">
        <ele>1757</ele>
        <time>2019-07-16T07:45:44Z</time>
      </trkpt>
      <trkpt lat="44.08497" lon="6.92952">
        <ele>1757.1</ele>
        <time>2019-07-16T07:45:45Z</time>
      </trkpt>
      <trkpt lat="44.08496" lon="6.92957">
        <ele>1757.1</ele>
        <time>2019-07-16T07:45:46Z</time>
      </trkpt>
      <trkpt lat="44.08496" lon="6.92961">
        <ele>1757.2</ele>
        <time>2019-07-16T07:45:47Z</time>
      </trkpt>
      <trkpt lat="44.08496" lon="6.92967">
        <ele>1757.3</ele>
        <time>2019-07-16T07:45:48Z</time>
      </trkpt>
      <trkpt lat="44.08495" lon="6.92971">
        <ele>1757.4</ele>
        <time>2019-07-16T07:45:49Z</time>
      </trkpt>
      <trkpt lat="44.08495" lon="6.92977">
        <ele>1757.5</ele>
        <time>2019-07-16T07:45:50Z</time>
      </trkpt>
      <trkpt lat="44.08495" lon="6.92981">
        <ele>1757.6</ele>
        <time>2019-07-16T07:45:51Z</time>
      </trkpt>
      <trkpt lat="44.08495" lon="6.92986">
        <ele>1757.6</ele>
        <time>2019-07-16T07:45:52Z</time>
      </trkpt>
      <trkpt lat="44.08495" lon="6.92991">
        <ele>1757.7</ele>
        <time>2019-07-16T07:45:53Z</time>
      </trkpt>
      <trkpt lat="44.08495" lon="6.92997">
        <ele>1757.8</ele>
        <time>2019-07-16T07:45:54Z</time>
      </trkpt>
      <trkpt lat="44.08495" lon="6.93004">
        <ele>1757.8</ele>
        <time>2019-07-16T07:45:55Z</time>
      </trkpt>
      <trkpt lat="44.08495" lon="6.93009">
        <ele>1757.9</ele>
        <time>2019-07-16T07:45:56Z</time>
      </trkpt>
      <trkpt lat="44.08494" lon="6.93015">
        <ele>1758</ele>
        <time>2019-07-16T07:45:57Z</time>
      </trkpt>
      <trkpt lat="44.08493" lon="6.9302">
        <ele>1758</ele>
        <time>2019-07-16T07:45:58Z</time>
      </trkpt>
      <trkpt lat="44.08492" lon="6.93025">
        <ele>1758.1</ele>
        <time>2019-07-16T07:45:59Z</time>
      </trkpt>
      <trkpt lat="44.08492" lon="6.93029">
        <ele>1758.2</ele>
        <time>2019-07-16T07:46:00Z</time>
      </trkpt>
      <trkpt lat="44.08491" lon="6.93033">
        <ele>1758.3</ele>
        <time>2019-07-16T07:46:01Z</time>
      </trkpt>
      <trkpt lat="44.08489" lon="6.93038">
        <ele>1758.4</ele>
        <time>2019-07-16T07:46:02Z</time>
      </trkpt>
      <trkpt lat="44.08488" lon="6.93042">
        <ele>1758.4</ele>
        <time>2019-07-16T07:46:03Z</time>
      </trkpt>
      <trkpt lat="44.08487" lon="6.93047">
        <ele>1758.5</ele>
        <time>2019-07-16T07:46:04Z</time>
      </trkpt>
      <trkpt lat="44.08486" lon="6.93052">
        <ele>1758.5</ele>
        <time>2019-07-16T07:46:05Z</time>
      </trkpt>
      <trkpt lat="44.08486" lon="6.93056">
        <ele>1758.6</ele>
        <time>2019-07-16T07:46:06Z</time>
      </trkpt>
      <trkpt lat="44.08485" lon="6.93061">
        <ele>1758.6</ele>
        <time>2019-07-16T07:46:07Z</time>
      </trkpt>
      <trkpt lat="44.08484" lon="6.93065">
        <ele>1758.7</ele>
        <time>2019-07-16T07:46:08Z</time>
      </trkpt>
      <trkpt lat="44.08482" lon="6.9307">
        <ele>1758.7</ele>
        <time>2019-07-16T07:46:09Z</time>
      </trkpt>
      <trkpt lat="44.08481" lon="6.93075">
        <ele>1758.8</ele>
        <time>2019-07-16T07:46:10Z</time>
      </trkpt>
      <trkpt lat="44.0848" lon="6.93079">
        <ele>1758.8</ele>
        <time>2019-07-16T07:46:11Z</time>
      </trkpt>
      <trkpt lat="44.08479" lon="6.93082">
        <ele>1758.8</ele>
        <time>2019-07-16T07:46:12Z</time>
      </trkpt>
      <trkpt lat="44.08478" lon="6.93088">
        <ele>1758.9</ele>
        <time>2019-07-16T07:46:14Z</time>
      </trkpt>
      <trkpt lat="44.08477" lon="6.93092">
        <ele>1759</ele>
        <time>2019-07-16T07:46:15Z</time>
      </trkpt>
      <trkpt lat="44.08475" lon="6.93099">
        <ele>1759.1</ele>
        <time>2019-07-16T07:46:17Z</time>
      </trkpt>
      <trkpt lat="44.08473" lon="6.93102">
        <ele>1759.1</ele>
        <time>2019-07-16T07:46:18Z</time>
      </trkpt>
      <trkpt lat="44.08473" lon="6.93106">
        <ele>1759.2</ele>
        <time>2019-07-16T07:46:19Z</time>
      </trkpt>
      <trkpt lat="44.08471" lon="6.93113">
        <ele>1759.2</ele>
        <time>2019-07-16T07:46:21Z</time>
      </trkpt>
      <trkpt lat="44.08471" lon="6.93121">
        <ele>1759.3</ele>
        <time>2019-07-16T07:46:23Z</time>
      </trkpt>
      <trkpt lat="44.08469" lon="6.93127">
        <ele>1759.3</ele>
        <time>2019-07-16T07:46:25Z</time>
      </trkpt>
      <trkpt lat="44.08468" lon="6.93133">
        <ele>1759.4</ele>
        <time>2019-07-16T07:46:27Z</time>
      </trkpt>
      <trkpt lat="44.08467" lon="6.93139">
        <ele>1759.4</ele>
        <time>2019-07-16T07:46:29Z</time>
      </trkpt>
      <trkpt lat="44.08467" lon="6.93146">
        <ele>1759.5</ele>
        <time>2019-07-16T07:46:31Z</time>
      </trkpt>
      <trkpt lat="44.08466" lon="6.93149">
        <ele>1759.5</ele>
        <time>2019-07-16T07:46:32Z</time>
      </trkpt>
      <trkpt lat="44.08465" lon="6.93156">
        <ele>1759.7</ele>
        <time>2019-07-16T07:46:34Z</time>
      </trkpt>
      <trkpt lat="44.08464" lon="6.93162">
        <ele>1759.8</ele>
        <time>2019-07-16T07:46:36Z</time>
      </trkpt>
      <trkpt lat="44.08463" lon="6.93168">
        <ele>1759.8</ele>
        <time>2019-07-16T07:46:38Z</time>
      </trkpt>
      <trkpt lat="44.08462" lon="6.93173">
        <ele>1759.9</ele>
        <time>2019-07-16T07:46:40Z</time>
      </trkpt>
      <trkpt lat="44.08461" lon="6.93179">
        <ele>1760</ele>
        <time>2019-07-16T07:46:42Z</time>
      </trkpt>
      <trkpt lat="44.08459" lon="6.93184">
        <ele>1760</ele>
        <time>2019-07-16T07:46:44Z</time>
      </trkpt>
      <trkpt lat="44.08458" lon="6.93189">
        <ele>1760.1</ele>
        <time>2019-07-16T07:46:46Z</time>
      </trkpt>
      <trkpt lat="44.08458" lon="6.93193">
        <ele>1760.1</ele>
        <time>2019-07-16T07:46:48Z</time>
      </trkpt>
      <trkpt lat="44.08457" lon="6.93197">
        <ele>1760.2</ele>
        <time>2019-07-16T07:46:50Z</time>
      </trkpt>
      <trkpt lat="44.08461" lon="6.93206">
        <ele>1760.3</ele>
        <time>2019-07-16T07:48:50Z</time>
      </trkpt>
      <trkpt lat="44.08461" lon="6.9321">
        <ele>1760.4</ele>
        <time>2019-07-16T07:48:52Z</time>
      </trkpt>
      <trkpt lat="44.08459" lon="6.93214">
        <ele>1760.4</ele>
        <time>2019-07-16T07:48:54Z</time>
      </trkpt>
      <trkpt lat="44.08458" lon="6.93218">
        <ele>1760.5</ele>
        <time>2019-07-16T07:48:56Z</time>
      </trkpt>
      <trkpt lat="44.08458" lon="6.93224">
        <ele>1760.6</ele>
        <time>2019-07-16T07:48:59Z</time>
      </trkpt>
      <trkpt lat="44.08458" lon="6.93229">
        <ele>1760.7</ele>
        <time>2019-07-16T07:49:01Z</time>
      </trkpt>
      <trkpt lat="44.08458" lon="6.93235">
        <ele>1760.8</ele>
        <time>2019-07-16T07:49:03Z</time>
      </trkpt>
      <trkpt lat="44.08458" lon="6.9324">
        <ele>1760.8</ele>
        <time>2019-07-16T07:49:05Z</time>
      </trkpt>
      <trkpt lat="44.08458" lon="6.93245">
        <ele>1760.9</ele>
        <time>2019-07-16T07:49:07Z</time>
      </trkpt>
      <trkpt lat="44.08457" lon="6.93249">
        <ele>1760.9</ele>
        <time>2019-07-16T07:49:09Z</time>
      </trkpt>
      <trkpt lat="44.08457" lon="6.93254">
        <ele>1761</ele>
        <time>2019-07-16T07:49:11Z</time>
      </trkpt>
      <trkpt lat="44.08456" lon="6.93258">
        <ele>1761</ele>
        <time>2019-07-16T07:49:13Z</time>
      </trkpt>
      <trkpt lat="44.08455" lon="6.93262">
        <ele>1761.1</ele>
        <time>2019-07-16T07:49:15Z</time>
      </trkpt>
      <trkpt lat="44.08454" lon="6.93266">
        <ele>1761.2</ele>
        <time>2019-07-16T07:49:18Z</time>
      </trkpt>
      <trkpt lat="44.08451" lon="6.93269">
        <ele>1761.2</ele>
        <time>2019-07-16T07:49:20Z</time>
      </trkpt>
      <trkpt lat="44.0845" lon="6.93273">
        <ele>1761.3</ele>
        <time>2019-07-16T07:49:22Z</time>
      </trkpt>
      <trkpt lat="44.0845" lon="6.93277">
        <ele>1761.4</ele>
        <time>2019-07-16T07:49:24Z</time>
      </trkpt>
      <trkpt lat="44.08451" lon="6.93283">
        <ele>1761.4</ele>
        <time>2019-07-16T07:49:26Z</time>
      </trkpt>
      <trkpt lat="44.08452" lon="6.93289">
        <ele>1761.5</ele>
        <time>2019-07-16T07:49:28Z</time>
      </trkpt>
      <trkpt lat="44.08451" lon="6.93295">
        <ele>1761.5</ele>
        <time>2019-07-16T07:49:30Z</time>
      </trkpt>
      <trkpt lat="44.08451" lon="6.93301">
        <ele>1761.6</ele>
        <time>2019-07-16T07:49:32Z</time>
      </trkpt>
      <trkpt lat="44.08451" lon="6.93307">
        <ele>1761.6</ele>
        <time>2019-07-16T07:49:34Z</time>
      </trkpt>
      <trkpt lat="44.08449" lon="6.93311">
        <ele>1761.7</ele>
        <time>2019-07-16T07:49:36Z</time>
      </trkpt>
      <trkpt lat="44.08449" lon="6.93315">
        <ele>1761.7</ele>
        <time>2019-07-16T07:49:38Z</time>
      </trkpt>
      <trkpt lat="44.08448" lon="6.93321">
        <ele>1761.8</ele>
        <time>2019-07-16T07:49:40Z</time>
      </trkpt>
      <trkpt lat="44.08447" lon="6.93327">
        <ele>1761.9</ele>
        <time>2019-07-16T07:49:42Z</time>
      </trkpt>
      <trkpt lat="44.08445" lon="6.93332">
        <ele>1762</ele>
        <time>2019-07-16T07:49:44Z</time>
      </trkpt>
      <trkpt lat="44.08443" lon="6.93338">
        <ele>1762</ele>
        <time>2019-07-16T07:49:46Z</time>
      </trkpt>
      <trkpt lat="44.08442" lon="6.93343">
        <ele>1762.1</ele>
        <time>2019-07-16T07:49:48Z</time>
      </trkpt>
      <trkpt lat="44.08441" lon="6.93349">
        <ele>1762.2</ele>
        <time>2019-07-16T07:49:50Z</time>
      </trkpt>
      <trkpt lat="44.0844" lon="6.93355">
        <ele>1762.2</ele>
        <time>2019-07-16T07:49:52Z</time>
      </trkpt>
      <trkpt lat="44.08438" lon="6.9336">
        <ele>1762.3</ele>
        <time>2019-07-16T07:49:54Z</time>
      </trkpt>
      <trkpt lat="44.08437" lon="6.93365">
        <ele>1762.3</ele>
        <time>2019-07-16T07:49:56Z</time>
      </trkpt>
      <trkpt lat="44.08435" lon="6.93369">
        <ele>1762.4</ele>
        <time>2019-07-16T07:49:58Z</time>
      </trkpt>
      <trkpt lat="44.08434" lon="6.93376">
        <ele>1762.5</ele>
        <time>2019-07-16T07:50:00Z</time>
      </trkpt>
      <trkpt lat="44.08433" lon="6.9338">
        <ele>1762.6</ele>
        <time>2019-07-16T07:50:01Z</time>
      </trkpt>
      <trkpt lat="44.08432" lon="6.93385">
        <ele>1762.6</ele>
        <time>2019-07-16T07:50:02Z</time>
      </trkpt>
      <trkpt lat="44.0843" lon="6.93389">
        <ele>1762.7</ele>
        <time>2019-07-16T07:50:03Z</time>
      </trkpt>
      <trkpt lat="44.08429" lon="6.93392">
        <ele>1762.8</ele>
        <time>2019-07-16T07:50:04Z</time>
      </trkpt>
      <trkpt lat="44.08427" lon="6.93395">
        <ele>1762.9</ele>
        <time>2019-07-16T07:50:05Z</time>
      </trkpt>
      <trkpt lat="44.08425" lon="6.93399">
        <ele>1763</ele>
        <time>2019-07-16T07:50:06Z</time>
      </trkpt>
      <trkpt lat="44.08424" lon="6.93405">
        <ele>1763.1</ele>
        <time>2019-07-16T07:50:07Z</time>
      </trkpt>
      <trkpt lat="44.08422" lon="6.93411">
        <ele>1763.2</ele>
        <time>2019-07-16T07:50:08Z</time>
      </trkpt>
      <trkpt lat="44.0842" lon="6.93418">
        <ele>1763.3</ele>
        <time>2019-07-16T07:50:09Z</time>
      </trkpt>
      <trkpt lat="44.08417" lon="6.93424">
        <ele>1763.5</ele>
        <time>2019-07-16T07:50:10Z</time>
      </trkpt>
      <trkpt lat="44.08414" lon="6.93431">
        <ele>1763.6</ele>
        <time>2019-07-16T07:50:11Z</time>
      </trkpt>
      <trkpt lat="44.08411" lon="6.93437">
        <ele>1763.8</ele>
        <time>2019-07-16T07:50:12Z</time>
      </trkpt>
      <trkpt lat="44.08408" lon="6.93444">
        <ele>1764</ele>
        <time>2019-07-16T07:50:13Z</time>
      </trkpt>
      <trkpt lat="44.08404" lon="6.93451">
        <ele>1764.2</ele>
        <time>2019-07-16T07:50:14Z</time>
      </trkpt>
      <trkpt lat="44.08401" lon="6.93458">
        <ele>1764.4</ele>
        <time>2019-07-16T07:50:15Z</time>
      </trkpt>
      <trkpt lat="44.08398" lon="6.93466">
        <ele>1764.7</ele>
        <time>2019-07-16T07:50:16Z</time>
      </trkpt>
      <trkpt lat="44.08395" lon="6.93474">
        <ele>1764.8</ele>
        <time>2019-07-16T07:50:17Z</time>
      </trkpt>
      <trkpt lat="44.08392" lon="6.93481">
        <ele>1765</ele>
        <time>2019-07-16T07:50:18Z</time>
      </trkpt>
      <trkpt lat="44.08389" lon="6.93488">
        <ele>1765.1</ele>
        <time>2019-07-16T07:50:19Z</time>
      </trkpt>
      <trkpt lat="44.08386" lon="6.93494">
        <ele>1765.2</ele>
        <time>2019-07-16T07:50:20Z</time>
      </trkpt>
      <trkpt lat="44.08382" lon="6.93499">
        <ele>1765.4</ele>
        <time>2019-07-16T07:50:21Z</time>
      </trkpt>
      <trkpt lat="44.08378" lon="6.93504">
        <ele>1765.5</ele>
        <time>2019-07-16T07:50:22Z</time>
      </trkpt>
      <trkpt lat="44.08374" lon="6.93508">
        <ele>1765.7</ele>
        <time>2019-07-16T07:50:23Z</time>
      </trkpt>
      <trkpt lat="44.0837" lon="6.93511">
        <ele>1765.9</ele>
        <time>2019-07-16T07:50:24Z</time>
      </trkpt>
      <trkpt lat="44.08366" lon="6.93514">
        <ele>1766</ele>
        <time>2019-07-16T07:50:25Z</time>
      </trkpt>
      <trkpt lat="44.08364" lon="6.93517">
        <ele>1766.1</ele>
        <time>2019-07-16T07:50:26Z</time>
      </trkpt>
      <trkpt lat="44.08361" lon="6.93519">
        <ele>1766.2</ele>
        <time>2019-07-16T07:50:27Z</time>
      </trkpt>
      <trkpt lat="44.08357" lon="6.93521">
        <ele>1766.3</ele>
        <time>2019-07-16T07:50:29Z</time>
      </trkpt>
      <trkpt lat="44.08353" lon="6.93524">
        <ele>1766.4</ele>
        <time>2019-07-16T07:50:31Z</time>
      </trkpt>
      <trkpt lat="44.0835" lon="6.93526">
        <ele>1766.6</ele>
        <time>2019-07-16T07:50:32Z</time>
      </trkpt>
      <trkpt lat="44.08348" lon="6.93528">
        <ele>1766.9</ele>
        <time>2019-07-16T07:50:33Z</time>
      </trkpt>
      <trkpt lat="44.08345" lon="6.93529">
        <ele>1767.3</ele>
        <time>2019-07-16T07:50:34Z</time>
      </trkpt>
      <trkpt lat="44.08342" lon="6.93531">
        <ele>1767.6</ele>
        <time>2019-07-16T07:50:35Z</time>
      </trkpt>
      <trkpt lat="44.0834" lon="6.93532">
        <ele>1768</ele>
        <time>2019-07-16T07:50:36Z</time>
      </trkpt>
      <trkpt lat="44.08335" lon="6.93534">
        <ele>1768.5</ele>
        <time>2019-07-16T07:50:38Z</time>
      </trkpt>
      <trkpt lat="44.0833" lon="6.93536">
        <ele>1769</ele>
        <time>2019-07-16T07:50:40Z</time>
      </trkpt>
      <trkpt lat="44.08327" lon="6.93536">
        <ele>1769.3</ele>
        <time>2019-07-16T07:50:41Z</time>
      </trkpt>
      <trkpt lat="44.08323" lon="6.93535">
        <ele>1769.8</ele>
        <time>2019-07-16T07:50:43Z</time>
      </trkpt>
      <trkpt lat="44.08318" lon="6.93533">
        <ele>1770.2</ele>
        <time>2019-07-16T07:50:45Z</time>
      </trkpt>
      <trkpt lat="44.08316" lon="6.93532">
        <ele>1770.5</ele>
        <time>2019-07-16T07:50:46Z</time>
      </trkpt>
      <trkpt lat="44.08312" lon="6.9353">
        <ele>1771</ele>
        <time>2019-07-16T07:50:48Z</time>
      </trkpt>
      <trkpt lat="44.08309" lon="6.93528">
        <ele>1771.3</ele>
        <time>2019-07-16T07:50:50Z</time>
      </trkpt>
      <trkpt lat="44.08306" lon="6.93526">
        <ele>1771.7</ele>
        <time>2019-07-16T07:50:52Z</time>
      </trkpt>
      <trkpt lat="44.08304" lon="6.93524">
        <ele>1772.1</ele>
        <time>2019-07-16T07:50:54Z</time>
      </trkpt>
      <trkpt lat="44.08301" lon="6.93521">
        <ele>1772.5</ele>
        <time>2019-07-16T07:50:56Z</time>
      </trkpt>
      <trkpt lat="44.08299" lon="6.93521">
        <ele>1772.8</ele>
        <time>2019-07-16T07:50:58Z</time>
      </trkpt>
      <trkpt lat="44.08295" lon="6.93519">
        <ele>1773.2</ele>
        <time>2019-07-16T07:51:00Z</time>
      </trkpt>
      <trkpt lat="44.08293" lon="6.93518">
        <ele>1773.5</ele>
        <time>2019-07-16T07:51:02Z</time>
      </trkpt>
      <trkpt lat="44.0829" lon="6.93515">
        <ele>1773.8</ele>
        <time>2019-07-16T07:51:04Z</time>
      </trkpt>
      <trkpt lat="44.08288" lon="6.93512">
        <ele>1774.1</ele>
        <time>2019-07-16T07:51:06Z</time>
      </trkpt>
      <trkpt lat="44.08284" lon="6.9351">
        <ele>1774.3</ele>
        <time>2019-07-16T07:51:08Z</time>
      </trkpt>
      <trkpt lat="44.08282" lon="6.93508">
        <ele>1774.5</ele>
        <time>2019-07-16T07:51:10Z</time>
      </trkpt>
      <trkpt lat="44.08279" lon="6.93506">
        <ele>1774.7</ele>
        <time>2019-07-16T07:51:12Z</time>
      </trkpt>
      <trkpt lat="44.08276" lon="6.93503">
        <ele>1774.8</ele>
        <time>2019-07-16T07:51:14Z</time>
      </trkpt>
      <trkpt lat="44.08272" lon="6.93499">
        <ele>1774.9</ele>
        <time>2019-07-16T07:51:16Z</time>
      </trkpt>
      <trkpt lat="44.0827" lon="6.93496">
        <ele>1775</ele>
        <time>2019-07-16T07:51:18Z</time>
      </trkpt>
      <trkpt lat="44.08267" lon="6.93495">
        <ele>1775.1</ele>
        <time>2019-07-16T07:51:20Z</time>
      </trkpt>
      <trkpt lat="44.08264" lon="6.93494">
        <ele>1775.2</ele>
        <time>2019-07-16T07:51:22Z</time>
      </trkpt>
      <trkpt lat="44.08261" lon="6.93492">
        <ele>1775.3</ele>
        <time>2019-07-16T07:51:24Z</time>
      </trkpt>
      <trkpt lat="44.08258" lon="6.93491">
        <ele>1775.4</ele>
        <time>2019-07-16T07:51:26Z</time>
      </trkpt>
      <trkpt lat="44.08255" lon="6.93491">
        <ele>1775.5</ele>
        <time>2019-07-16T07:51:28Z</time>
      </trkpt>
      <trkpt lat="44.08252" lon="6.93491">
        <ele>1775.7</ele>
        <time>2019-07-16T07:51:30Z</time>
      </trkpt>
      <trkpt lat="44.08248" lon="6.93491">
        <ele>1775.9</ele>
        <time>2019-07-16T07:51:32Z</time>
      </trkpt>
      <trkpt lat="44.08244" lon="6.93492">
        <ele>1776.1</ele>
        <time>2019-07-16T07:51:34Z</time>
      </trkpt>
      <trkpt lat="44.08242" lon="6.93494">
        <ele>1776.3</ele>
        <time>2019-07-16T07:51:36Z</time>
      </trkpt>
      <trkpt lat="44.08239" lon="6.93495">
        <ele>1776.6</ele>
        <time>2019-07-16T07:51:38Z</time>
      </trkpt>
      <trkpt lat="44.08235" lon="6.93495">
        <ele>1776.8</ele>
        <time>2019-07-16T07:51:40Z</time>
      </trkpt>
      <trkpt lat="44.08232" lon="6.93496">
        <ele>1777</ele>
        <time>2019-07-16T07:51:42Z</time>
      </trkpt>
      <trkpt lat="44.08228" lon="6.93497">
        <ele>1777.3</ele>
        <time>2019-07-16T07:51:44Z</time>
      </trkpt>
      <trkpt lat="44.08225" lon="6.93499">
        <ele>1777.6</ele>
        <time>2019-07-16T07:51:47Z</time>
      </trkpt>
      <trkpt lat="44.08221" lon="6.935">
        <ele>1777.9</ele>
        <time>2019-07-16T07:51:50Z</time>
      </trkpt>
      <trkpt lat="44.08218" lon="6.93501">
        <ele>1778.1</ele>
        <time>2019-07-16T07:51:53Z</time>
      </trkpt>
      <trkpt lat="44.08214" lon="6.93503">
        <ele>1778.4</ele>
        <time>2019-07-16T07:51:56Z</time>
      </trkpt>
      <trkpt lat="44.08211" lon="6.93504">
        <ele>1778.7</ele>
        <time>2019-07-16T07:51:58Z</time>
      </trkpt>
      <trkpt lat="44.08208" lon="6.93505">
        <ele>1778.9</ele>
        <time>2019-07-16T07:52:00Z</time>
      </trkpt>
      <trkpt lat="44.08204" lon="6.93506">
        <ele>1779.2</ele>
        <time>2019-07-16T07:52:02Z</time>
      </trkpt>
      <trkpt lat="44.08201" lon="6.93507">
        <ele>1779.4</ele>
        <time>2019-07-16T07:52:04Z</time>
      </trkpt>
      <trkpt lat="44.08197" lon="6.93508">
        <ele>1779.6</ele>
        <time>2019-07-16T07:52:06Z</time>
      </trkpt>
      <trkpt lat="44.08194" lon="6.93509">
        <ele>1779.8</ele>
        <time>2019-07-16T07:52:08Z</time>
      </trkpt>
      <trkpt lat="44.0819" lon="6.9351">
        <ele>1780</ele>
        <time>2019-07-16T07:52:10Z</time>
      </trkpt>
      <trkpt lat="44.08187" lon="6.93512">
        <ele>1780.2</ele>
        <time>2019-07-16T07:52:12Z</time>
      </trkpt>
      <trkpt lat="44.08184" lon="6.93513">
        <ele>1780.5</ele>
        <time>2019-07-16T07:52:14Z</time>
      </trkpt>
      <trkpt lat="44.08181" lon="6.93515">
        <ele>1780.8</ele>
        <time>2019-07-16T07:52:16Z</time>
      </trkpt>
      <trkpt lat="44.08178" lon="6.93516">
        <ele>1781</ele>
        <time>2019-07-16T07:52:18Z</time>
      </trkpt>
      <trkpt lat="44.08175" lon="6.93519">
        <ele>1781.4</ele>
        <time>2019-07-16T07:52:21Z</time>
      </trkpt>
      <trkpt lat="44.08172" lon="6.93519">
        <ele>1781.8</ele>
        <time>2019-07-16T07:52:24Z</time>
      </trkpt>
      <trkpt lat="44.08169" lon="6.93521">
        <ele>1782.2</ele>
        <time>2019-07-16T07:52:27Z</time>
      </trkpt>
      <trkpt lat="44.08165" lon="6.93521">
        <ele>1782.9</ele>
        <time>2019-07-16T07:52:30Z</time>
      </trkpt>
      <trkpt lat="44.08161" lon="6.93522">
        <ele>1783.5</ele>
        <time>2019-07-16T07:52:32Z</time>
      </trkpt>
      <trkpt lat="44.08158" lon="6.93524">
        <ele>1784</ele>
        <time>2019-07-16T07:52:34Z</time>
      </trkpt>
      <trkpt lat="44.08155" lon="6.93525">
        <ele>1784.5</ele>
        <time>2019-07-16T07:52:36Z</time>
      </trkpt>
      <trkpt lat="44.08152" lon="6.93527">
        <ele>1785</ele>
        <time>2019-07-16T07:52:38Z</time>
      </trkpt>
      <trkpt lat="44.08149" lon="6.93529">
        <ele>1785.3</ele>
        <time>2019-07-16T07:52:40Z</time>
      </trkpt>
      <trkpt lat="44.08145" lon="6.93531">
        <ele>1785.8</ele>
        <time>2019-07-16T07:52:42Z</time>
      </trkpt>
      <trkpt lat="44.08143" lon="6.93535">
        <ele>1786.1</ele>
        <time>2019-07-16T07:52:44Z</time>
      </trkpt>
      <trkpt lat="44.0814" lon="6.93537">
        <ele>1786.3</ele>
        <time>2019-07-16T07:52:46Z</time>
      </trkpt>
      <trkpt lat="44.08137" lon="6.93539">
        <ele>1786.6</ele>
        <time>2019-07-16T07:52:48Z</time>
      </trkpt>
      <trkpt lat="44.08133" lon="6.93542">
        <ele>1787</ele>
        <time>2019-07-16T07:52:50Z</time>
      </trkpt>
      <trkpt lat="44.0813" lon="6.93543">
        <ele>1787.3</ele>
        <time>2019-07-16T07:52:52Z</time>
      </trkpt>
      <trkpt lat="44.08126" lon="6.93544">
        <ele>1787.6</ele>
        <time>2019-07-16T07:52:54Z</time>
      </trkpt>
      <trkpt lat="44.08123" lon="6.93546">
        <ele>1787.9</ele>
        <time>2019-07-16T07:52:56Z</time>
      </trkpt>
      <trkpt lat="44.08121" lon="6.9355">
        <ele>1788.2</ele>
        <time>2019-07-16T07:52:58Z</time>
      </trkpt>
      <trkpt lat="44.08118" lon="6.93554">
        <ele>1788.5</ele>
        <time>2019-07-16T07:53:00Z</time>
      </trkpt>
      <trkpt lat="44.08115" lon="6.93556">
        <ele>1788.8</ele>
        <time>2019-07-16T07:53:02Z</time>
      </trkpt>
      <trkpt lat="44.08113" lon="6.93559">
        <ele>1789</ele>
        <time>2019-07-16T07:53:04Z</time>
      </trkpt>
      <trkpt lat="44.08109" lon="6.93561">
        <ele>1789.2</ele>
        <time>2019-07-16T07:53:06Z</time>
      </trkpt>
      <trkpt lat="44.08106" lon="6.93563">
        <ele>1789.4</ele>
        <time>2019-07-16T07:53:08Z</time>
      </trkpt>
      <trkpt lat="44.08103" lon="6.93565">
        <ele>1789.6</ele>
        <time>2019-07-16T07:53:11Z</time>
      </trkpt>
      <trkpt lat="44.08099" lon="6.93568">
        <ele>1789.8</ele>
        <time>2019-07-16T07:53:14Z</time>
      </trkpt>
      <trkpt lat="44.08095" lon="6.93569">
        <ele>1790.1</ele>
        <time>2019-07-16T07:53:16Z</time>
      </trkpt>
      <trkpt lat="44.08092" lon="6.93573">
        <ele>1790.3</ele>
        <time>2019-07-16T07:53:18Z</time>
      </trkpt>
      <trkpt lat="44.08089" lon="6.93576">
        <ele>1790.6</ele>
        <time>2019-07-16T07:53:20Z</time>
      </trkpt>
      <trkpt lat="44.08086" lon="6.93578">
        <ele>1790.8</ele>
        <time>2019-07-16T07:53:22Z</time>
      </trkpt>
      <trkpt lat="44.08083" lon="6.9358">
        <ele>1791</ele>
        <time>2019-07-16T07:53:24Z</time>
      </trkpt>
      <trkpt lat="44.0808" lon="6.93582">
        <ele>1791.1</ele>
        <time>2019-07-16T07:53:26Z</time>
      </trkpt>
      <trkpt lat="44.08077" lon="6.93583">
        <ele>1791.3</ele>
        <time>2019-07-16T07:53:28Z</time>
      </trkpt>
      <trkpt lat="44.08074" lon="6.93584">
        <ele>1791.5</ele>
        <time>2019-07-16T07:53:31Z</time>
      </trkpt>
      <trkpt lat="44.08071" lon="6.93586">
        <ele>1791.7</ele>
        <time>2019-07-16T07:53:33Z</time>
      </trkpt>
      <trkpt lat="44.08068" lon="6.93588">
        <ele>1791.8</ele>
        <time>2019-07-16T07:53:35Z</time>
      </trkpt>
      <trkpt lat="44.08065" lon="6.93589">
        <ele>1792</ele>
        <time>2019-07-16T07:53:37Z</time>
      </trkpt>
      <trkpt lat="44.08061" lon="6.9359">
        <ele>1792.2</ele>
        <time>2019-07-16T07:53:39Z</time>
      </trkpt>
      <trkpt lat="44.08057" lon="6.93592">
        <ele>1792.4</ele>
        <time>2019-07-16T07:53:41Z</time>
      </trkpt>
      <trkpt lat="44.08054" lon="6.93593">
        <ele>1792.5</ele>
        <time>2019-07-16T07:53:43Z</time>
      </trkpt>
      <trkpt lat="44.08051" lon="6.93595">
        <ele>1792.6</ele>
        <time>2019-07-16T07:53:45Z</time>
      </trkpt>
      <trkpt lat="44.08048" lon="6.93596">
        <ele>1792.7</ele>
        <time>2019-07-16T07:53:47Z</time>
      </trkpt>
      <trkpt lat="44.08045" lon="6.93596">
        <ele>1792.9</ele>
        <time>2019-07-16T07:53:49Z</time>
      </trkpt>
      <trkpt lat="44.08041" lon="6.93597">
        <ele>1793.1</ele>
        <time>2019-07-16T07:53:51Z</time>
      </trkpt>
      <trkpt lat="44.08037" lon="6.93597">
        <ele>1793.2</ele>
        <time>2019-07-16T07:53:53Z</time>
      </trkpt>
      <trkpt lat="44.08035" lon="6.93596">
        <ele>1793.3</ele>
        <time>2019-07-16T07:53:55Z</time>
      </trkpt>
      <trkpt lat="44.08031" lon="6.93596">
        <ele>1793.4</ele>
        <time>2019-07-16T07:53:57Z</time>
      </trkpt>
      <trkpt lat="44.08028" lon="6.93598">
        <ele>1793.5</ele>
        <time>2019-07-16T07:53:59Z</time>
      </trkpt>
      <trkpt lat="44.08025" lon="6.93597">
        <ele>1793.6</ele>
        <time>2019-07-16T07:54:02Z</time>
      </trkpt>
      <trkpt lat="44.08025" lon="6.93593">
        <ele>1793.6</ele>
        <time>2019-07-16T07:54:08Z</time>
      </trkpt>
      <trkpt lat="44.08022" lon="6.93591">
        <ele>1793.7</ele>
        <time>2019-07-16T07:54:11Z</time>
      </trkpt>
      <trkpt lat="44.08019" lon="6.93588">
        <ele>1793.9</ele>
        <time>2019-07-16T07:54:14Z</time>
      </trkpt>
      <trkpt lat="44.08016" lon="6.93586">
        <ele>1794</ele>
        <time>2019-07-16T07:54:16Z</time>
      </trkpt>
      <trkpt lat="44.08013" lon="6.93583">
        <ele>1794.1</ele>
        <time>2019-07-16T07:54:20Z</time>
      </trkpt>
      <trkpt lat="44.08012" lon="6.9358">
        <ele>1794.2</ele>
        <time>2019-07-16T07:54:25Z</time>
      </trkpt>
      <trkpt lat="44.08009" lon="6.93575">
        <ele>1794.3</ele>
        <time>2019-07-16T07:56:41Z</time>
      </trkpt>
      <trkpt lat="44.08007" lon="6.93572">
        <ele>1794.4</ele>
        <time>2019-07-16T07:56:44Z</time>
      </trkpt>
      <trkpt lat="44.08006" lon="6.93567">
        <ele>1794.4</ele>
        <time>2019-07-16T07:56:47Z</time>
      </trkpt>
      <trkpt lat="44.08004" lon="6.93564">
        <ele>1794.4</ele>
        <time>2019-07-16T07:56:49Z</time>
      </trkpt>
      <trkpt lat="44.08002" lon="6.93561">
        <ele>1794.4</ele>
        <time>2019-07-16T07:56:51Z</time>
      </trkpt>
      <trkpt lat="44.08001" lon="6.93557">
        <ele>1794.3</ele>
        <time>2019-07-16T07:56:53Z</time>
      </trkpt>
      <trkpt lat="44.07998" lon="6.93552">
        <ele>1794.3</ele>
        <time>2019-07-16T07:56:55Z</time>
      </trkpt>
      <trkpt lat="44.07997" lon="6.93549">
        <ele>1794.2</ele>
        <time>2019-07-16T07:56:56Z</time>
      </trkpt>
      <trkpt lat="44.07995" lon="6.93546">
        <ele>1794.2</ele>
        <time>2019-07-16T07:56:57Z</time>
      </trkpt>
      <trkpt lat="44.07993" lon="6.93543">
        <ele>1794.1</ele>
        <time>2019-07-16T07:56:58Z</time>
      </trkpt>
      <trkpt lat="44.07991" lon="6.9354">
        <ele>1794.1</ele>
        <time>2019-07-16T07:56:59Z</time>
      </trkpt>
      <trkpt lat="44.07988" lon="6.93539">
        <ele>1794</ele>
        <time>2019-07-16T07:57:00Z</time>
      </trkpt>
      <trkpt lat="44.07983" lon="6.93534">
        <ele>1794</ele>
        <time>2019-07-16T07:57:02Z</time>
      </trkpt>
      <trkpt lat="44.07981" lon="6.93532">
        <ele>1793.9</ele>
        <time>2019-07-16T07:57:03Z</time>
      </trkpt>
      <trkpt lat="44.07978" lon="6.9353">
        <ele>1794.1</ele>
        <time>2019-07-16T07:57:04Z</time>
      </trkpt>
      <trkpt lat="44.07975" lon="6.93529">
        <ele>1794.1</ele>
        <time>2019-07-16T07:57:05Z</time>
      </trkpt>
      <trkpt lat="44.07971" lon="6.93527">
        <ele>1794.3</ele>
        <time>2019-07-16T07:57:07Z</time>
      </trkpt>
      <trkpt lat="44.07967" lon="6.93525">
        <ele>1794.4</ele>
        <time>2019-07-16T07:57:09Z</time>
      </trkpt>
      <trkpt lat="44.07962" lon="6.93523">
        <ele>1794.6</ele>
        <time>2019-07-16T07:57:11Z</time>
      </trkpt>
      <trkpt lat="44.07958" lon="6.93522">
        <ele>1794.7</ele>
        <time>2019-07-16T07:57:13Z</time>
      </trkpt>
      <trkpt lat="44.07954" lon="6.93521">
        <ele>1794.9</ele>
        <time>2019-07-16T07:57:15Z</time>
      </trkpt>
      <trkpt lat="44.0795" lon="6.93519">
        <ele>1795</ele>
        <time>2019-07-16T07:57:17Z</time>
      </trkpt>
      <trkpt lat="44.07947" lon="6.93519">
        <ele>1795.3</ele>
        <time>2019-07-16T07:57:19Z</time>
      </trkpt>
      <trkpt lat="44.07944" lon="6.93517">
        <ele>1795.5</ele>
        <time>2019-07-16T07:57:21Z</time>
      </trkpt>
      <trkpt lat="44.0794" lon="6.93516">
        <ele>1795.7</ele>
        <time>2019-07-16T07:57:23Z</time>
      </trkpt>
      <trkpt lat="44.07936" lon="6.93516">
        <ele>1795.8</ele>
        <time>2019-07-16T07:57:25Z</time>
      </trkpt>
      <trkpt lat="44.07933" lon="6.93516">
        <ele>1796</ele>
        <time>2019-07-16T07:57:27Z</time>
      </trkpt>
      <trkpt lat="44.07929" lon="6.93516">
        <ele>1796.1</ele>
        <time>2019-07-16T07:57:29Z</time>
      </trkpt>
      <trkpt lat="44.07926" lon="6.93516">
        <ele>1796.3</ele>
        <time>2019-07-16T07:57:31Z</time>
      </trkpt>
      <trkpt lat="44.07922" lon="6.93516">
        <ele>1796.4</ele>
        <time>2019-07-16T07:57:33Z</time>
      </trkpt>
      <trkpt lat="44.07918" lon="6.93516">
        <ele>1796.6</ele>
        <time>2019-07-16T07:57:35Z</time>
      </trkpt>
      <trkpt lat="44.07913" lon="6.93515">
        <ele>1796.9</ele>
        <time>2019-07-16T07:57:37Z</time>
      </trkpt>
      <trkpt lat="44.07909" lon="6.93516">
        <ele>1797</ele>
        <time>2019-07-16T07:57:39Z</time>
      </trkpt>
      <trkpt lat="44.07906" lon="6.93517">
        <ele>1797.2</ele>
        <time>2019-07-16T07:57:41Z</time>
      </trkpt>
      <trkpt lat="44.07902" lon="6.93518">
        <ele>1797.4</ele>
        <time>2019-07-16T07:57:43Z</time>
      </trkpt>
      <trkpt lat="44.07899" lon="6.93519">
        <ele>1797.5</ele>
        <time>2019-07-16T07:57:45Z</time>
      </trkpt>
      <trkpt lat="44.07896" lon="6.9352">
        <ele>1797.7</ele>
        <time>2019-07-16T07:57:47Z</time>
      </trkpt>
      <trkpt lat="44.07892" lon="6.93522">
        <ele>1797.9</ele>
        <time>2019-07-16T07:57:50Z</time>
      </trkpt>
      <trkpt lat="44.07889" lon="6.93524">
        <ele>1798.1</ele>
        <time>2019-07-16T07:57:52Z</time>
      </trkpt>
      <trkpt lat="44.07887" lon="6.93525">
        <ele>1798.2</ele>
        <time>2019-07-16T07:57:54Z</time>
      </trkpt>
      <trkpt lat="44.07884" lon="6.93526">
        <ele>1798.4</ele>
        <time>2019-07-16T07:57:56Z</time>
      </trkpt>
      <trkpt lat="44.07881" lon="6.93526">
        <ele>1798.5</ele>
        <time>2019-07-16T07:57:58Z</time>
      </trkpt>
      <trkpt lat="44.07878" lon="6.93528">
        <ele>1798.7</ele>
        <time>2019-07-16T07:58:00Z</time>
      </trkpt>
      <trkpt lat="44.07874" lon="6.9353">
        <ele>1799</ele>
        <time>2019-07-16T07:58:02Z</time>
      </trkpt>
      <trkpt lat="44.07871" lon="6.93531">
        <ele>1799.2</ele>
        <time>2019-07-16T07:58:04Z</time>
      </trkpt>
      <trkpt lat="44.07867" lon="6.93532">
        <ele>1799.4</ele>
        <time>2019-07-16T07:58:07Z</time>
      </trkpt>
      <trkpt lat="44.07864" lon="6.93534">
        <ele>1799.6</ele>
        <time>2019-07-16T07:58:09Z</time>
      </trkpt>
      <trkpt lat="44.07861" lon="6.93535">
        <ele>1799.8</ele>
        <time>2019-07-16T07:58:11Z</time>
      </trkpt>
      <trkpt lat="44.07858" lon="6.93536">
        <ele>1800.1</ele>
        <time>2019-07-16T07:58:13Z</time>
      </trkpt>
      <trkpt lat="44.07854" lon="6.93538">
        <ele>1800.3</ele>
        <time>2019-07-16T07:58:15Z</time>
      </trkpt>
      <trkpt lat="44.07852" lon="6.93539">
        <ele>1800.5</ele>
        <time>2019-07-16T07:58:17Z</time>
      </trkpt>
      <trkpt lat="44.07848" lon="6.93539">
        <ele>1800.8</ele>
        <time>2019-07-16T07:58:19Z</time>
      </trkpt>
      <trkpt lat="44.07845" lon="6.9354">
        <ele>1801</ele>
        <time>2019-07-16T07:58:21Z</time>
      </trkpt>
      <trkpt lat="44.07842" lon="6.93541">
        <ele>1801.2</ele>
        <time>2019-07-16T07:58:23Z</time>
      </trkpt>
      <trkpt lat="44.07838" lon="6.93542">
        <ele>1801.6</ele>
        <time>2019-07-16T07:58:26Z</time>
      </trkpt>
      <trkpt lat="44.07836" lon="6.93544">
        <ele>1801.8</ele>
        <time>2019-07-16T07:58:28Z</time>
      </trkpt>
      <trkpt lat="44.07833" lon="6.93545">
        <ele>1802</ele>
        <time>2019-07-16T07:58:30Z</time>
      </trkpt>
      <trkpt lat="44.0783" lon="6.93546">
        <ele>1802.1</ele>
        <time>2019-07-16T07:58:32Z</time>
      </trkpt>
      <trkpt lat="44.07828" lon="6.93547">
        <ele>1802.3</ele>
        <time>2019-07-16T07:58:34Z</time>
      </trkpt>
      <trkpt lat="44.07825" lon="6.93547">
        <ele>1802.5</ele>
        <time>2019-07-16T07:58:36Z</time>
      </trkpt>
      <trkpt lat="44.07821" lon="6.93548">
        <ele>1802.7</ele>
        <time>2019-07-16T07:58:39Z</time>
      </trkpt>
      <trkpt lat="44.07817" lon="6.93548">
        <ele>1802.9</ele>
        <time>2019-07-16T07:58:42Z</time>
      </trkpt>
      <trkpt lat="44.07814" lon="6.9355">
        <ele>1803.1</ele>
        <time>2019-07-16T07:58:45Z</time>
      </trkpt>
      <trkpt lat="44.07811" lon="6.9355">
        <ele>1803.3</ele>
        <time>2019-07-16T07:58:48Z</time>
      </trkpt>
      <trkpt lat="44.07809" lon="6.93546">
        <ele>1803.6</ele>
        <time>2019-07-16T07:58:53Z</time>
      </trkpt>
      <trkpt lat="44.07807" lon="6.93542">
        <ele>1804</ele>
        <time>2019-07-16T07:58:56Z</time>
      </trkpt>
      <trkpt lat="44.07804" lon="6.9354">
        <ele>1804.3</ele>
        <time>2019-07-16T07:58:58Z</time>
      </trkpt>
      <trkpt lat="44.078" lon="6.93541">
        <ele>1804.6</ele>
        <time>2019-07-16T07:59:01Z</time>
      </trkpt>
      <trkpt lat="44.07797" lon="6.93543">
        <ele>1804.9</ele>
        <time>2019-07-16T07:59:04Z</time>
      </trkpt>
      <trkpt lat="44.07795" lon="6.93547">
        <ele>1805.1</ele>
        <time>2019-07-16T07:59:07Z</time>
      </trkpt>
      <trkpt lat="44.07794" lon="6.9355">
        <ele>1805.3</ele>
        <time>2019-07-16T07:59:09Z</time>
      </trkpt>
      <trkpt lat="44.07791" lon="6.93552">
        <ele>1805.4</ele>
        <time>2019-07-16T07:59:12Z</time>
      </trkpt>
      <trkpt lat="44.07788" lon="6.93553">
        <ele>1805.7</ele>
        <time>2019-07-16T07:59:15Z</time>
      </trkpt>
      <trkpt lat="44.07785" lon="6.93556">
        <ele>1805.9</ele>
        <time>2019-07-16T07:59:18Z</time>
      </trkpt>
      <trkpt lat="44.07782" lon="6.93558">
        <ele>1806.2</ele>
        <time>2019-07-16T07:59:21Z</time>
      </trkpt>
      <trkpt lat="44.07779" lon="6.93561">
        <ele>1806.3</ele>
        <time>2019-07-16T07:59:24Z</time>
      </trkpt>
      <trkpt lat="44.07776" lon="6.93564">
        <ele>1806.5</ele>
        <time>2019-07-16T07:59:27Z</time>
      </trkpt>
      <trkpt lat="44.07773" lon="6.93567">
        <ele>1806.6</ele>
        <time>2019-07-16T07:59:30Z</time>
      </trkpt>
      <trkpt lat="44.07769" lon="6.93568">
        <ele>1806.8</ele>
        <time>2019-07-16T07:59:33Z</time>
      </trkpt>
      <trkpt lat="44.07767" lon="6.93569">
        <ele>1806.9</ele>
        <time>2019-07-16T07:59:35Z</time>
      </trkpt>
      <trkpt lat="44.07764" lon="6.93572">
        <ele>1807.1</ele>
        <time>2019-07-16T07:59:38Z</time>
      </trkpt>
      <trkpt lat="44.07761" lon="6.93574">
        <ele>1807.3</ele>
        <time>2019-07-16T07:59:41Z</time>
      </trkpt>
      <trkpt lat="44.07758" lon="6.93576">
        <ele>1807.5</ele>
        <time>2019-07-16T07:59:44Z</time>
      </trkpt>
      <trkpt lat="44.07755" lon="6.93577">
        <ele>1807.7</ele>
        <time>2019-07-16T07:59:47Z</time>
      </trkpt>
      <trkpt lat="44.07752" lon="6.9358">
        <ele>1807.9</ele>
        <time>2019-07-16T07:59:50Z</time>
      </trkpt>
      <trkpt lat="44.07749" lon="6.93582">
        <ele>1808.1</ele>
        <time>2019-07-16T07:59:53Z</time>
      </trkpt>
      <trkpt lat="44.07747" lon="6.93585">
        <ele>1808.3</ele>
        <time>2019-07-16T07:59:56Z</time>
      </trkpt>
      <trkpt lat="44.07745" lon="6.93588">
        <ele>1808.5</ele>
        <time>2019-07-16T07:59:59Z</time>
      </trkpt>
      <trkpt lat="44.07742" lon="6.93591">
        <ele>1808.7</ele>
        <time>2019-07-16T08:00:36Z</time>
      </trkpt>
      <trkpt lat="44.07739" lon="6.93593">
        <ele>1808.9</ele>
        <time>2019-07-16T08:00:39Z</time>
      </trkpt>
      <trkpt lat="44.07737" lon="6.93595">
        <ele>1809</ele>
        <time>2019-07-16T08:00:41Z</time>
      </trkpt>
      <trkpt lat="44.07734" lon="6.93598">
        <ele>1809.2</ele>
        <time>2019-07-16T08:00:43Z</time>
      </trkpt>
      <trkpt lat="44.07732" lon="6.93601">
        <ele>1809.4</ele>
        <time>2019-07-16T08:00:45Z</time>
      </trkpt>
      <trkpt lat="44.07729" lon="6.93604">
        <ele>1809.6</ele>
        <time>2019-07-16T08:00:47Z</time>
      </trkpt>
      <trkpt lat="44.07727" lon="6.93606">
        <ele>1809.7</ele>
        <time>2019-07-16T08:00:49Z</time>
      </trkpt>
      <trkpt lat="44.07724" lon="6.93609">
        <ele>1809.9</ele>
        <time>2019-07-16T08:00:51Z</time>
      </trkpt>
      <trkpt lat="44.07722" lon="6.9361">
        <ele>1810</ele>
        <time>2019-07-16T08:00:53Z</time>
      </trkpt>
      <trkpt lat="44.07719" lon="6.93613">
        <ele>1810.2</ele>
        <time>2019-07-16T08:00:55Z</time>
      </trkpt>
      <trkpt lat="44.07717" lon="6.93616">
        <ele>1810.3</ele>
        <time>2019-07-16T08:00:57Z</time>
      </trkpt>
      <trkpt lat="44.07714" lon="6.93618">
        <ele>1810.4</ele>
        <time>2019-07-16T08:00:59Z</time>
      </trkpt>
      <trkpt lat="44.07711" lon="6.93619">
        <ele>1810.6</ele>
        <time>2019-07-16T08:01:01Z</time>
      </trkpt>
      <trkpt lat="44.07708" lon="6.93621">
        <ele>1810.7</ele>
        <time>2019-07-16T08:01:03Z</time>
      </trkpt>
      <trkpt lat="44.07705" lon="6.93622">
        <ele>1810.9</ele>
        <time>2019-07-16T08:01:05Z</time>
      </trkpt>
      <trkpt lat="44.07701" lon="6.93623">
        <ele>1811.1</ele>
        <time>2019-07-16T08:01:07Z</time>
      </trkpt>
      <trkpt lat="44.07697" lon="6.93625">
        <ele>1811.4</ele>
        <time>2019-07-16T08:01:09Z</time>
      </trkpt>
      <trkpt lat="44.07694" lon="6.93626">
        <ele>1811.6</ele>
        <time>2019-07-16T08:01:11Z</time>
      </trkpt>
      <trkpt lat="44.0769" lon="6.93628">
        <ele>1811.8</ele>
        <time>2019-07-16T08:01:13Z</time>
      </trkpt>
      <trkpt lat="44.07686" lon="6.9363">
        <ele>1812</ele>
        <time>2019-07-16T08:01:15Z</time>
      </trkpt>
      <trkpt lat="44.07682" lon="6.93631">
        <ele>1812.2</ele>
        <time>2019-07-16T08:01:17Z</time>
      </trkpt>
      <trkpt lat="44.07678" lon="6.93632">
        <ele>1812.4</ele>
        <time>2019-07-16T08:01:19Z</time>
      </trkpt>
      <trkpt lat="44.07675" lon="6.93634">
        <ele>1812.5</ele>
        <time>2019-07-16T08:01:21Z</time>
      </trkpt>
      <trkpt lat="44.07671" lon="6.93635">
        <ele>1812.6</ele>
        <time>2019-07-16T08:01:23Z</time>
      </trkpt>
      <trkpt lat="44.07666" lon="6.93636">
        <ele>1812.8</ele>
        <time>2019-07-16T08:01:25Z</time>
      </trkpt>
      <trkpt lat="44.07662" lon="6.93637">
        <ele>1812.9</ele>
        <time>2019-07-16T08:01:27Z</time>
      </trkpt>
      <trkpt lat="44.07659" lon="6.93639">
        <ele>1813.1</ele>
        <time>2019-07-16T08:01:29Z</time>
      </trkpt>
      <trkpt lat="44.07656" lon="6.93639">
        <ele>1813.3</ele>
        <time>2019-07-16T08:01:32Z</time>
      </trkpt>
      <trkpt lat="44.07651" lon="6.9364">
        <ele>1813.5</ele>
        <time>2019-07-16T08:01:34Z</time>
      </trkpt>
      <trkpt lat="44.07647" lon="6.9364">
        <ele>1813.6</ele>
        <time>2019-07-16T08:01:36Z</time>
      </trkpt>
      <trkpt lat="44.07644" lon="6.9364">
        <ele>1813.7</ele>
        <time>2019-07-16T08:01:38Z</time>
      </trkpt>
      <trkpt lat="44.0764" lon="6.93642">
        <ele>1813.8</ele>
        <time>2019-07-16T08:01:41Z</time>
      </trkpt>
      <trkpt lat="44.07636" lon="6.93643">
        <ele>1813.9</ele>
        <time>2019-07-16T08:01:43Z</time>
      </trkpt>
      <trkpt lat="44.07633" lon="6.93644">
        <ele>1813.9</ele>
        <time>2019-07-16T08:01:45Z</time>
      </trkpt>
      <trkpt lat="44.0763" lon="6.93644">
        <ele>1813.9</ele>
        <time>2019-07-16T08:01:47Z</time>
      </trkpt>
      <trkpt lat="44.07626" lon="6.93644">
        <ele>1813.9</ele>
        <time>2019-07-16T08:01:49Z</time>
      </trkpt>
      <trkpt lat="44.07622" lon="6.93645">
        <ele>1813.9</ele>
        <time>2019-07-16T08:01:51Z</time>
      </trkpt>
      <trkpt lat="44.07617" lon="6.93646">
        <ele>1814</ele>
        <time>2019-07-16T08:01:53Z</time>
      </trkpt>
      <trkpt lat="44.07612" lon="6.93647">
        <ele>1814</ele>
        <time>2019-07-16T08:01:55Z</time>
      </trkpt>
      <trkpt lat="44.07608" lon="6.93649">
        <ele>1814.1</ele>
        <time>2019-07-16T08:01:57Z</time>
      </trkpt>
      <trkpt lat="44.07605" lon="6.93651">
        <ele>1814.1</ele>
        <time>2019-07-16T08:01:58Z</time>
      </trkpt>
      <trkpt lat="44.07602" lon="6.93653">
        <ele>1814.2</ele>
        <time>2019-07-16T08:01:59Z</time>
      </trkpt>
      <trkpt lat="44.07599" lon="6.93654">
        <ele>1814.3</ele>
        <time>2019-07-16T08:02:00Z</time>
      </trkpt>
      <trkpt lat="44.07596" lon="6.93655">
        <ele>1814.3</ele>
        <time>2019-07-16T08:02:01Z</time>
      </trkpt>
      <trkpt lat="44.07593" lon="6.93657">
        <ele>1814.4</ele>
        <time>2019-07-16T08:02:02Z</time>
      </trkpt>
      <trkpt lat="44.0759" lon="6.93658">
        <ele>1814.4</ele>
        <time>2019-07-16T08:02:03Z</time>
      </trkpt>
      <trkpt lat="44.07587" lon="6.93659">
        <ele>1814.4</ele>
        <time>2019-07-16T08:02:04Z</time>
      </trkpt>
      <trkpt lat="44.07582" lon="6.93661">
        <ele>1814.4</ele>
        <time>2019-07-16T08:02:06Z</time>
      </trkpt>
      <trkpt lat="44.07579" lon="6.93662">
        <ele>1814.4</ele>
        <time>2019-07-16T08:02:07Z</time>
      </trkpt>
      <trkpt lat="44.07575" lon="6.93664">
        <ele>1814.3</ele>
        <time>2019-07-16T08:02:09Z</time>
      </trkpt>
      <trkpt lat="44.07572" lon="6.93666">
        <ele>1814.3</ele>
        <time>2019-07-16T08:02:10Z</time>
      </trkpt>
      <trkpt lat="44.07569" lon="6.93667">
        <ele>1814.2</ele>
        <time>2019-07-16T08:02:11Z</time>
      </trkpt>
      <trkpt lat="44.07566" lon="6.93668">
        <ele>1814.2</ele>
        <time>2019-07-16T08:02:12Z</time>
      </trkpt>
      <trkpt lat="44.07561" lon="6.93669">
        <ele>1814.1</ele>
        <time>2019-07-16T08:02:14Z</time>
      </trkpt>
      <trkpt lat="44.07557" lon="6.9367">
        <ele>1814.1</ele>
        <time>2019-07-16T08:02:15Z</time>
      </trkpt>
      <trkpt lat="44.07554" lon="6.9367">
        <ele>1814.1</ele>
        <time>2019-07-16T08:02:16Z</time>
      </trkpt>
      <trkpt lat="44.07551" lon="6.93671">
        <ele>1814</ele>
        <time>2019-07-16T08:02:17Z</time>
      </trkpt>
      <trkpt lat="44.07547" lon="6.93671">
        <ele>1814</ele>
        <time>2019-07-16T08:02:18Z</time>
      </trkpt>
      <trkpt lat="44.07544" lon="6.93672">
        <ele>1814</ele>
        <time>2019-07-16T08:02:19Z</time>
      </trkpt>
      <trkpt lat="44.07541" lon="6.93674">
        <ele>1814</ele>
        <time>2019-07-16T08:02:20Z</time>
      </trkpt>
      <trkpt lat="44.07538" lon="6.93676">
        <ele>1814</ele>
        <time>2019-07-16T08:02:21Z</time>
      </trkpt>
      <trkpt lat="44.07535" lon="6.93677">
        <ele>1814</ele>
        <time>2019-07-16T08:02:22Z</time>
      </trkpt>
      <trkpt lat="44.07533" lon="6.93679">
        <ele>1814</ele>
        <time>2019-07-16T08:02:23Z</time>
      </trkpt>
      <trkpt lat="44.07528" lon="6.93683">
        <ele>1814</ele>
        <time>2019-07-16T08:02:25Z</time>
      </trkpt>
      <trkpt lat="44.07524" lon="6.93685">
        <ele>1814</ele>
        <time>2019-07-16T08:02:27Z</time>
      </trkpt>
      <trkpt lat="44.0752" lon="6.93686">
        <ele>1814</ele>
        <time>2019-07-16T08:02:29Z</time>
      </trkpt>
      <trkpt lat="44.07516" lon="6.93686">
        <ele>1814</ele>
        <time>2019-07-16T08:02:31Z</time>
      </trkpt>
      <trkpt lat="44.07511" lon="6.93684">
        <ele>1814.1</ele>
        <time>2019-07-16T08:02:33Z</time>
      </trkpt>
      <trkpt lat="44.07506" lon="6.93684">
        <ele>1814.2</ele>
        <time>2019-07-16T08:02:35Z</time>
      </trkpt>
      <trkpt lat="44.07503" lon="6.93684">
        <ele>1814.3</ele>
        <time>2019-07-16T08:02:36Z</time>
      </trkpt>
      <trkpt lat="44.07501" lon="6.93684">
        <ele>1814.3</ele>
        <time>2019-07-16T08:02:37Z</time>
      </trkpt>
      <trkpt lat="44.07498" lon="6.93685">
        <ele>1814.4</ele>
        <time>2019-07-16T08:02:38Z</time>
      </trkpt>
      <trkpt lat="44.07493" lon="6.93686">
        <ele>1814.5</ele>
        <time>2019-07-16T08:02:40Z</time>
      </trkpt>
      <trkpt lat="44.07488" lon="6.93685">
        <ele>1814.6</ele>
        <time>2019-07-16T08:02:42Z</time>
      </trkpt>
      <trkpt lat="44.07485" lon="6.93684">
        <ele>1814.7</ele>
        <time>2019-07-16T08:02:43Z</time>
      </trkpt>
      <trkpt lat="44.07482" lon="6.93684">
        <ele>1814.8</ele>
        <time>2019-07-16T08:02:44Z</time>
      </trkpt>
      <trkpt lat="44.07477" lon="6.93684">
        <ele>1815</ele>
        <time>2019-07-16T08:02:46Z</time>
      </trkpt>
      <trkpt lat="44.07472" lon="6.93684">
        <ele>1815.3</ele>
        <time>2019-07-16T08:02:48Z</time>
      </trkpt>
      <trkpt lat="44.07468" lon="6.93683">
        <ele>1815.5</ele>
        <time>2019-07-16T08:02:50Z</time>
      </trkpt>
      <trkpt lat="44.07463" lon="6.93684">
        <ele>1815.8</ele>
        <time>2019-07-16T08:02:52Z</time>
      </trkpt>
      <trkpt lat="44.07459" lon="6.93684">
        <ele>1816</ele>
        <time>2019-07-16T08:02:54Z</time>
      </trkpt>
      <trkpt lat="44.07454" lon="6.93684">
        <ele>1816.2</ele>
        <time>2019-07-16T08:02:56Z</time>
      </trkpt>
      <trkpt lat="44.07449" lon="6.93685">
        <ele>1816.4</ele>
        <time>2019-07-16T08:02:58Z</time>
      </trkpt>
      <trkpt lat="44.07445" lon="6.93684">
        <ele>1816.5</ele>
        <time>2019-07-16T08:03:00Z</time>
      </trkpt>
      <trkpt lat="44.07442" lon="6.93682">
        <ele>1816.6</ele>
        <time>2019-07-16T08:03:02Z</time>
      </trkpt>
      <trkpt lat="44.07437" lon="6.93681">
        <ele>1816.7</ele>
        <time>2019-07-16T08:03:04Z</time>
      </trkpt>
      <trkpt lat="44.07433" lon="6.93682">
        <ele>1816.8</ele>
        <time>2019-07-16T08:03:06Z</time>
      </trkpt>
      <trkpt lat="44.07428" lon="6.93681">
        <ele>1816.9</ele>
        <time>2019-07-16T08:03:08Z</time>
      </trkpt>
      <trkpt lat="44.07424" lon="6.93678">
        <ele>1817</ele>
        <time>2019-07-16T08:03:10Z</time>
      </trkpt>
      <trkpt lat="44.07421" lon="6.93677">
        <ele>1817.1</ele>
        <time>2019-07-16T08:03:12Z</time>
      </trkpt>
      <trkpt lat="44.07418" lon="6.93676">
        <ele>1817.2</ele>
        <time>2019-07-16T08:03:14Z</time>
      </trkpt>
      <trkpt lat="44.07415" lon="6.93675">
        <ele>1817.3</ele>
        <time>2019-07-16T08:03:16Z</time>
      </trkpt>
      <trkpt lat="44.07412" lon="6.93673">
        <ele>1817.4</ele>
        <time>2019-07-16T08:03:18Z</time>
      </trkpt>
      <trkpt lat="44.07409" lon="6.93672">
        <ele>1817.6</ele>
        <time>2019-07-16T08:03:20Z</time>
      </trkpt>
      <trkpt lat="44.07405" lon="6.9367">
        <ele>1817.8</ele>
        <time>2019-07-16T08:03:23Z</time>
      </trkpt>
      <trkpt lat="44.07402" lon="6.93669">
        <ele>1818</ele>
        <time>2019-07-16T08:03:26Z</time>
      </trkpt>
      <trkpt lat="44.07399" lon="6.93668">
        <ele>1818.2</ele>
        <time>2019-07-16T08:03:28Z</time>
      </trkpt>
      <trkpt lat="44.07395" lon="6.93667">
        <ele>1818.5</ele>
        <time>2019-07-16T08:03:30Z</time>
      </trkpt>
      <trkpt lat="44.07392" lon="6.93666">
        <ele>1818.8</ele>
        <time>2019-07-16T08:03:32Z</time>
      </trkpt>
      <trkpt lat="44.07389" lon="6.93664">
        <ele>1819.1</ele>
        <time>2019-07-16T08:03:34Z</time>
      </trkpt>
      <trkpt lat="44.07386" lon="6.93663">
        <ele>1819.3</ele>
        <time>2019-07-16T08:03:36Z</time>
      </trkpt>
      <trkpt lat="44.07383" lon="6.93661">
        <ele>1819.6</ele>
        <time>2019-07-16T08:03:38Z</time>
      </trkpt>
      <trkpt lat="44.0738" lon="6.93659">
        <ele>1819.8</ele>
        <time>2019-07-16T08:03:40Z</time>
      </trkpt>
      <trkpt lat="44.07377" lon="6.93656">
        <ele>1820</ele>
        <time>2019-07-16T08:03:43Z</time>
      </trkpt>
      <trkpt lat="44.07374" lon="6.93655">
        <ele>1820.3</ele>
        <time>2019-07-16T08:03:46Z</time>
      </trkpt>
      <trkpt lat="44.07371" lon="6.93653">
        <ele>1820.5</ele>
        <time>2019-07-16T08:03:48Z</time>
      </trkpt>
      <trkpt lat="44.07368" lon="6.93651">
        <ele>1820.7</ele>
        <time>2019-07-16T08:03:50Z</time>
      </trkpt>
      <trkpt lat="44.07364" lon="6.93651">
        <ele>1820.9</ele>
        <time>2019-07-16T08:03:52Z</time>
      </trkpt>
      <trkpt lat="44.07361" lon="6.93648">
        <ele>1821</ele>
        <time>2019-07-16T08:03:54Z</time>
      </trkpt>
      <trkpt lat="44.07358" lon="6.93645">
        <ele>1821.2</ele>
        <time>2019-07-16T08:03:56Z</time>
      </trkpt>
      <trkpt lat="44.07355" lon="6.93644">
        <ele>1821.3</ele>
        <time>2019-07-16T08:03:58Z</time>
      </trkpt>
      <trkpt lat="44.07352" lon="6.93642">
        <ele>1821.5</ele>
        <time>2019-07-16T08:04:00Z</time>
      </trkpt>
      <trkpt lat="44.07349" lon="6.9364">
        <ele>1821.6</ele>
        <time>2019-07-16T08:04:02Z</time>
      </trkpt>
      <trkpt lat="44.07347" lon="6.93638">
        <ele>1821.7</ele>
        <time>2019-07-16T08:04:04Z</time>
      </trkpt>
      <trkpt lat="44.07344" lon="6.93636">
        <ele>1821.9</ele>
        <time>2019-07-16T08:04:06Z</time>
      </trkpt>
      <trkpt lat="44.07342" lon="6.93635">
        <ele>1822</ele>
        <time>2019-07-16T08:04:09Z</time>
      </trkpt>
      <trkpt lat="44.07339" lon="6.93631">
        <ele>1822.2</ele>
        <time>2019-07-16T08:04:12Z</time>
      </trkpt>
      <trkpt lat="44.07336" lon="6.93629">
        <ele>1822.5</ele>
        <time>2019-07-16T08:04:14Z</time>
      </trkpt>
      <trkpt lat="44.07333" lon="6.93627">
        <ele>1822.7</ele>
        <time>2019-07-16T08:04:16Z</time>
      </trkpt>
      <trkpt lat="44.0733" lon="6.93624">
        <ele>1822.9</ele>
        <time>2019-07-16T08:04:19Z</time>
      </trkpt>
      <trkpt lat="44.07328" lon="6.9362">
        <ele>1823.2</ele>
        <time>2019-07-16T08:04:22Z</time>
      </trkpt>
      <trkpt lat="44.07326" lon="6.93618">
        <ele>1823.4</ele>
        <time>2019-07-16T08:04:25Z</time>
      </trkpt>
      <trkpt lat="44.07323" lon="6.93614">
        <ele>1823.8</ele>
        <time>2019-07-16T08:04:28Z</time>
      </trkpt>
      <trkpt lat="44.0732" lon="6.93612">
        <ele>1824.1</ele>
        <time>2019-07-16T08:04:30Z</time>
      </trkpt>
      <trkpt lat="44.07318" lon="6.93609">
        <ele>1824.4</ele>
        <time>2019-07-16T08:04:32Z</time>
      </trkpt>
      <trkpt lat="44.07315" lon="6.93605">
        <ele>1824.8</ele>
        <time>2019-07-16T08:04:35Z</time>
      </trkpt>
      <trkpt lat="44.07313" lon="6.93602">
        <ele>1825.2</ele>
        <time>2019-07-16T08:04:38Z</time>
      </trkpt>
      <trkpt lat="44.0731" lon="6.93598">
        <ele>1825.6</ele>
        <time>2019-07-16T08:04:41Z</time>
      </trkpt>
      <trkpt lat="44.07307" lon="6.93595">
        <ele>1825.9</ele>
        <time>2019-07-16T08:04:43Z</time>
      </trkpt>
      <trkpt lat="44.07305" lon="6.93591">
        <ele>1826.4</ele>
        <time>2019-07-16T08:04:46Z</time>
      </trkpt>
      <trkpt lat="44.07302" lon="6.93588">
        <ele>1826.7</ele>
        <time>2019-07-16T08:04:48Z</time>
      </trkpt>
      <trkpt lat="44.07299" lon="6.93585">
        <ele>1827.1</ele>
        <time>2019-07-16T08:04:50Z</time>
      </trkpt>
      <trkpt lat="44.07296" lon="6.93582">
        <ele>1827.4</ele>
        <time>2019-07-16T08:04:52Z</time>
      </trkpt>
      <trkpt lat="44.07294" lon="6.93578">
        <ele>1827.8</ele>
        <time>2019-07-16T08:04:55Z</time>
      </trkpt>
      <trkpt lat="44.07292" lon="6.93575">
        <ele>1828.2</ele>
        <time>2019-07-16T08:04:57Z</time>
      </trkpt>
      <trkpt lat="44.07289" lon="6.93571">
        <ele>1828.7</ele>
        <time>2019-07-16T08:05:00Z</time>
      </trkpt>
      <trkpt lat="44.07286" lon="6.93566">
        <ele>1829.1</ele>
        <time>2019-07-16T08:05:03Z</time>
      </trkpt>
      <trkpt lat="44.07284" lon="6.93563">
        <ele>1829.5</ele>
        <time>2019-07-16T08:05:05Z</time>
      </trkpt>
      <trkpt lat="44.07282" lon="6.93559">
        <ele>1829.9</ele>
        <time>2019-07-16T08:05:07Z</time>
      </trkpt>
      <trkpt lat="44.0728" lon="6.93556">
        <ele>1830.2</ele>
        <time>2019-07-16T08:05:09Z</time>
      </trkpt>
      <trkpt lat="44.07278" lon="6.93553">
        <ele>1830.6</ele>
        <time>2019-07-16T08:05:11Z</time>
      </trkpt>
      <trkpt lat="44.07277" lon="6.93549">
        <ele>1831</ele>
        <time>2019-07-16T08:05:13Z</time>
      </trkpt>
      <trkpt lat="44.07275" lon="6.93545">
        <ele>1831.4</ele>
        <time>2019-07-16T08:05:15Z</time>
      </trkpt>
      <trkpt lat="44.07273" lon="6.93542">
        <ele>1831.8</ele>
        <time>2019-07-16T08:05:17Z</time>
      </trkpt>
      <trkpt lat="44.07271" lon="6.93538">
        <ele>1832.2</ele>
        <time>2019-07-16T08:05:19Z</time>
      </trkpt>
      <trkpt lat="44.07269" lon="6.93535">
        <ele>1832.7</ele>
        <time>2019-07-16T08:05:21Z</time>
      </trkpt>
      <trkpt lat="44.07267" lon="6.93531">
        <ele>1833.1</ele>
        <time>2019-07-16T08:05:23Z</time>
      </trkpt>
      <trkpt lat="44.07265" lon="6.93527">
        <ele>1833.6</ele>
        <time>2019-07-16T08:05:25Z</time>
      </trkpt>
      <trkpt lat="44.07264" lon="6.93523">
        <ele>1834</ele>
        <time>2019-07-16T08:05:27Z</time>
      </trkpt>
      <trkpt lat="44.07263" lon="6.93519">
        <ele>1834.4</ele>
        <time>2019-07-16T08:05:29Z</time>
      </trkpt>
      <trkpt lat="44.07262" lon="6.93514">
        <ele>1834.8</ele>
        <time>2019-07-16T08:05:31Z</time>
      </trkpt>
      <trkpt lat="44.07261" lon="6.9351">
        <ele>1835.2</ele>
        <time>2019-07-16T08:05:33Z</time>
      </trkpt>
      <trkpt lat="44.07259" lon="6.93506">
        <ele>1835.6</ele>
        <time>2019-07-16T08:05:35Z</time>
      </trkpt>
      <trkpt lat="44.07257" lon="6.93502">
        <ele>1835.9</ele>
        <time>2019-07-16T08:05:37Z</time>
      </trkpt>
      <trkpt lat="44.07256" lon="6.93498">
        <ele>1836.3</ele>
        <time>2019-07-16T08:05:39Z</time>
      </trkpt>
      <trkpt lat="44.07255" lon="6.93493">
        <ele>1836.6</ele>
        <time>2019-07-16T08:05:41Z</time>
      </trkpt>
      <trkpt lat="44.07253" lon="6.93489">
        <ele>1837</ele>
        <time>2019-07-16T08:05:43Z</time>
      </trkpt>
      <trkpt lat="44.07251" lon="6.93484">
        <ele>1837.3</ele>
        <time>2019-07-16T08:05:45Z</time>
      </trkpt>
      <trkpt lat="44.07249" lon="6.9348">
        <ele>1837.7</ele>
        <time>2019-07-16T08:05:47Z</time>
      </trkpt>
      <trkpt lat="44.07247" lon="6.93475">
        <ele>1838</ele>
        <time>2019-07-16T08:05:49Z</time>
      </trkpt>
      <trkpt lat="44.07246" lon="6.9347">
        <ele>1838.4</ele>
        <time>2019-07-16T08:05:51Z</time>
      </trkpt>
      <trkpt lat="44.07244" lon="6.93466">
        <ele>1838.7</ele>
        <time>2019-07-16T08:05:53Z</time>
      </trkpt>
      <trkpt lat="44.07243" lon="6.93462">
        <ele>1839</ele>
        <time>2019-07-16T08:05:55Z</time>
      </trkpt>
      <trkpt lat="44.07241" lon="6.93458">
        <ele>1839.3</ele>
        <time>2019-07-16T08:05:57Z</time>
      </trkpt>
      <trkpt lat="44.07239" lon="6.93454">
        <ele>1839.6</ele>
        <time>2019-07-16T08:05:59Z</time>
      </trkpt>
      <trkpt lat="44.07236" lon="6.9345">
        <ele>1840</ele>
        <time>2019-07-16T08:06:01Z</time>
      </trkpt>
      <trkpt lat="44.07234" lon="6.93446">
        <ele>1840.3</ele>
        <time>2019-07-16T08:06:03Z</time>
      </trkpt>
      <trkpt lat="44.07231" lon="6.93443">
        <ele>1840.7</ele>
        <time>2019-07-16T08:06:05Z</time>
      </trkpt>
      <trkpt lat="44.07229" lon="6.93439">
        <ele>1841</ele>
        <time>2019-07-16T08:06:07Z</time>
      </trkpt>
      <trkpt lat="44.07229" lon="6.93435">
        <ele>1841.3</ele>
        <time>2019-07-16T08:06:09Z</time>
      </trkpt>
      <trkpt lat="44.07227" lon="6.93432">
        <ele>1841.6</ele>
        <time>2019-07-16T08:06:11Z</time>
      </trkpt>
      <trkpt lat="44.07224" lon="6.93428">
        <ele>1842</ele>
        <time>2019-07-16T08:06:13Z</time>
      </trkpt>
      <trkpt lat="44.07222" lon="6.93424">
        <ele>1842.4</ele>
        <time>2019-07-16T08:06:15Z</time>
      </trkpt>
      <trkpt lat="44.07219" lon="6.93421">
        <ele>1842.8</ele>
        <time>2019-07-16T08:06:17Z</time>
      </trkpt>
      <trkpt lat="44.07217" lon="6.93417">
        <ele>1843.2</ele>
        <time>2019-07-16T08:06:19Z</time>
      </trkpt>
      <trkpt lat="44.07215" lon="6.93413">
        <ele>1843.5</ele>
        <time>2019-07-16T08:06:21Z</time>
      </trkpt>
      <trkpt lat="44.07212" lon="6.93409">
        <ele>1843.9</ele>
        <time>2019-07-16T08:06:23Z</time>
      </trkpt>
      <trkpt lat="44.07208" lon="6.93406">
        <ele>1844.3</ele>
        <time>2019-07-16T08:06:25Z</time>
      </trkpt>
      <trkpt lat="44.07205" lon="6.93403">
        <ele>1844.6</ele>
        <time>2019-07-16T08:06:27Z</time>
      </trkpt>
      <trkpt lat="44.07203" lon="6.934">
        <ele>1845</ele>
        <time>2019-07-16T08:06:29Z</time>
      </trkpt>
      <trkpt lat="44.07199" lon="6.93396">
        <ele>1845.4</ele>
        <time>2019-07-16T08:06:32Z</time>
      </trkpt>
      <trkpt lat="44.07197" lon="6.93393">
        <ele>1845.7</ele>
        <time>2019-07-16T08:06:34Z</time>
      </trkpt>
      <trkpt lat="44.07195" lon="6.9339">
        <ele>1846.1</ele>
        <time>2019-07-16T08:06:36Z</time>
      </trkpt>
      <trkpt lat="44.07193" lon="6.93387">
        <ele>1846.5</ele>
        <time>2019-07-16T08:06:38Z</time>
      </trkpt>
      <trkpt lat="44.07191" lon="6.93383">
        <ele>1846.8</ele>
        <time>2019-07-16T08:06:40Z</time>
      </trkpt>
      <trkpt lat="44.07189" lon="6.9338">
        <ele>1847.2</ele>
        <time>2019-07-16T08:06:42Z</time>
      </trkpt>
      <trkpt lat="44.07187" lon="6.93376">
        <ele>1847.5</ele>
        <time>2019-07-16T08:06:44Z</time>
      </trkpt>
      <trkpt lat="44.07185" lon="6.93372">
        <ele>1847.8</ele>
        <time>2019-07-16T08:06:46Z</time>
      </trkpt>
      <trkpt lat="44.07184" lon="6.93368">
        <ele>1848.1</ele>
        <time>2019-07-16T08:06:48Z</time>
      </trkpt>
      <trkpt lat="44.07182" lon="6.93364">
        <ele>1848.4</ele>
        <time>2019-07-16T08:06:50Z</time>
      </trkpt>
      <trkpt lat="44.0718" lon="6.93361">
        <ele>1848.7</ele>
        <time>2019-07-16T08:06:53Z</time>
      </trkpt>
      <trkpt lat="44.07176" lon="6.93359">
        <ele>1849.2</ele>
        <time>2019-07-16T08:06:55Z</time>
      </trkpt>
      <trkpt lat="44.07172" lon="6.93363">
        <ele>1849.6</ele>
        <time>2019-07-16T08:06:57Z</time>
      </trkpt>
      <trkpt lat="44.0717" lon="6.93366">
        <ele>1849.9</ele>
        <time>2019-07-16T08:07:04Z</time>
      </trkpt>
      <trkpt lat="44.07167" lon="6.93366">
        <ele>1850.2</ele>
        <time>2019-07-16T08:07:08Z</time>
      </trkpt>
      <trkpt lat="44.07169" lon="6.93363">
        <ele>1850.5</ele>
        <time>2019-07-16T08:07:11Z</time>
      </trkpt>
      <trkpt lat="44.07173" lon="6.93362">
        <ele>1850.8</ele>
        <time>2019-07-16T08:07:14Z</time>
      </trkpt>
      <trkpt lat="44.07174" lon="6.93366">
        <ele>1851.2</ele>
        <time>2019-07-16T08:07:17Z</time>
      </trkpt>
      <trkpt lat="44.07177" lon="6.93369">
        <ele>1851.5</ele>
        <time>2019-07-16T08:07:20Z</time>
      </trkpt>
      <trkpt lat="44.07179" lon="6.93372">
        <ele>1851.8</ele>
        <time>2019-07-16T08:07:22Z</time>
      </trkpt>
      <trkpt lat="44.07185" lon="6.93378">
        <ele>1852.5</ele>
        <time>2019-07-16T08:08:07Z</time>
      </trkpt>
      <trkpt lat="44.07187" lon="6.93382">
        <ele>1852.9</ele>
        <time>2019-07-16T08:08:09Z</time>
      </trkpt>
      <trkpt lat="44.07189" lon="6.93385">
        <ele>1853.2</ele>
        <time>2019-07-16T08:08:11Z</time>
      </trkpt>
      <trkpt lat="44.07192" lon="6.93388">
        <ele>1853.6</ele>
        <time>2019-07-16T08:08:30Z</time>
      </trkpt>
      <trkpt lat="44.07189" lon="6.93385">
        <ele>1854</ele>
        <time>2019-07-16T08:08:50Z</time>
      </trkpt>
      <trkpt lat="44.0719" lon="6.93382">
        <ele>1854.3</ele>
        <time>2019-07-16T08:08:54Z</time>
      </trkpt>
      <trkpt lat="44.07188" lon="6.93378">
        <ele>1854.7</ele>
        <time>2019-07-16T08:08:59Z</time>
      </trkpt>
      <trkpt lat="44.07186" lon="6.93375">
        <ele>1855</ele>
        <time>2019-07-16T08:09:04Z</time>
      </trkpt>
      <trkpt lat="44.07185" lon="6.93371">
        <ele>1855.4</ele>
        <time>2019-07-16T08:09:08Z</time>
      </trkpt>
      <trkpt lat="44.07183" lon="6.93368">
        <ele>1855.8</ele>
        <time>2019-07-16T08:09:11Z</time>
      </trkpt>
      <trkpt lat="44.07182" lon="6.93364">
        <ele>1856</ele>
        <time>2019-07-16T08:09:13Z</time>
      </trkpt>
      <trkpt lat="44.07181" lon="6.93361">
        <ele>1856.3</ele>
        <time>2019-07-16T08:09:15Z</time>
      </trkpt>
      <trkpt lat="44.0718" lon="6.93357">
        <ele>1856.5</ele>
        <time>2019-07-16T08:09:17Z</time>
      </trkpt>
      <trkpt lat="44.07177" lon="6.93353">
        <ele>1856.7</ele>
        <time>2019-07-16T08:09:19Z</time>
      </trkpt>
      <trkpt lat="44.07174" lon="6.93351">
        <ele>1856.8</ele>
        <time>2019-07-16T08:09:21Z</time>
      </trkpt>
      <trkpt lat="44.0717" lon="6.93351">
        <ele>1857.1</ele>
        <time>2019-07-16T08:09:23Z</time>
      </trkpt>
      <trkpt lat="44.07167" lon="6.93352">
        <ele>1856.9</ele>
        <time>2019-07-16T08:09:25Z</time>
      </trkpt>
      <trkpt lat="44.07164" lon="6.93349">
        <ele>1856.8</ele>
        <time>2019-07-16T08:09:29Z</time>
      </trkpt>
      <trkpt lat="44.07165" lon="6.93345">
        <ele>1856.7</ele>
        <time>2019-07-16T08:10:15Z</time>
      </trkpt>
      <trkpt lat="44.07165" lon="6.93341">
        <ele>1856.6</ele>
        <time>2019-07-16T08:10:18Z</time>
      </trkpt>
      <trkpt lat="44.07164" lon="6.93336">
        <ele>1856.5</ele>
        <time>2019-07-16T08:10:21Z</time>
      </trkpt>
      <trkpt lat="44.07163" lon="6.93332">
        <ele>1856.4</ele>
        <time>2019-07-16T08:10:23Z</time>
      </trkpt>
      <trkpt lat="44.07159" lon="6.93328">
        <ele>1856.2</ele>
        <time>2019-07-16T08:10:25Z</time>
      </trkpt>
      <trkpt lat="44.07155" lon="6.93325">
        <ele>1856.1</ele>
        <time>2019-07-16T08:10:27Z</time>
      </trkpt>
      <trkpt lat="44.07151" lon="6.93323">
        <ele>1855.9</ele>
        <time>2019-07-16T08:10:29Z</time>
      </trkpt>
      <trkpt lat="44.07148" lon="6.93321">
        <ele>1855.9</ele>
        <time>2019-07-16T08:10:31Z</time>
      </trkpt>
      <trkpt lat="44.07145" lon="6.93317">
        <ele>1855.8</ele>
        <time>2019-07-16T08:10:33Z</time>
      </trkpt>
      <trkpt lat="44.07143" lon="6.93316">
        <ele>1855.7</ele>
        <time>2019-07-16T08:10:35Z</time>
      </trkpt>
      <trkpt lat="44.07141" lon="6.93311">
        <ele>1855.6</ele>
        <time>2019-07-16T08:10:38Z</time>
      </trkpt>
      <trkpt lat="44.07141" lon="6.93307">
        <ele>1855.6</ele>
        <time>2019-07-16T08:10:40Z</time>
      </trkpt>
      <trkpt lat="44.07145" lon="6.93306">
        <ele>1855.5</ele>
        <time>2019-07-16T08:11:18Z</time>
      </trkpt>
      <trkpt lat="44.07148" lon="6.93306">
        <ele>1855.5</ele>
        <time>2019-07-16T08:11:44Z</time>
      </trkpt>
      <trkpt lat="44.07151" lon="6.93308">
        <ele>1855.4</ele>
        <time>2019-07-16T08:11:47Z</time>
      </trkpt>
      <trkpt lat="44.0715" lon="6.93313">
        <ele>1855.4</ele>
        <time>2019-07-16T08:11:50Z</time>
      </trkpt>
      <trkpt lat="44.07147" lon="6.93314">
        <ele>1855.4</ele>
        <time>2019-07-16T08:11:53Z</time>
      </trkpt>
      <trkpt lat="44.07145" lon="6.93312">
        <ele>1855.3</ele>
        <time>2019-07-16T08:11:56Z</time>
      </trkpt>
      <trkpt lat="44.07146" lon="6.93308">
        <ele>1855.3</ele>
        <time>2019-07-16T08:12:09Z</time>
      </trkpt>
      <trkpt lat="44.07149" lon="6.93306">
        <ele>1855.2</ele>
        <time>2019-07-16T08:12:15Z</time>
      </trkpt>
      <trkpt lat="44.07147" lon="6.93302">
        <ele>1855.2</ele>
        <time>2019-07-16T08:12:24Z</time>
      </trkpt>
      <trkpt lat="44.07145" lon="6.93305">
        <ele>1855.1</ele>
        <time>2019-07-16T08:14:58Z</time>
      </trkpt>
      <trkpt lat="44.07144" lon="6.93308">
        <ele>1855.1</ele>
        <time>2019-07-16T08:15:02Z</time>
      </trkpt>
      <trkpt lat="44.07146" lon="6.93305">
        <ele>1855</ele>
        <time>2019-07-16T08:15:21Z</time>
      </trkpt>
      <trkpt lat="44.07141" lon="6.93308">
        <ele>1854.9</ele>
        <time>2019-07-16T08:18:44Z</time>
      </trkpt>
      <trkpt lat="44.07138" lon="6.93309">
        <ele>1854.9</ele>
        <time>2019-07-16T08:18:47Z</time>
      </trkpt>
      <trkpt lat="44.07136" lon="6.9331">
        <ele>1854.8</ele>
        <time>2019-07-16T08:18:50Z</time>
      </trkpt>
      <trkpt lat="44.07132" lon="6.93308">
        <ele>1854.7</ele>
        <time>2019-07-16T08:18:53Z</time>
      </trkpt>
      <trkpt lat="44.07129" lon="6.93308">
        <ele>1854.7</ele>
        <time>2019-07-16T08:18:55Z</time>
      </trkpt>
      <trkpt lat="44.07125" lon="6.93308">
        <ele>1854.6</ele>
        <time>2019-07-16T08:18:57Z</time>
      </trkpt>
      <trkpt lat="44.07122" lon="6.93309">
        <ele>1854.5</ele>
        <time>2019-07-16T08:18:59Z</time>
      </trkpt>
      <trkpt lat="44.07119" lon="6.9331">
        <ele>1854.4</ele>
        <time>2019-07-16T08:19:01Z</time>
      </trkpt>
      <trkpt lat="44.07116" lon="6.93312">
        <ele>1854.3</ele>
        <time>2019-07-16T08:19:03Z</time>
      </trkpt>
      <trkpt lat="44.07113" lon="6.93313">
        <ele>1854.5</ele>
        <time>2019-07-16T08:19:05Z</time>
      </trkpt>
      <trkpt lat="44.07109" lon="6.93315">
        <ele>1855.2</ele>
        <time>2019-07-16T08:19:07Z</time>
      </trkpt>
      <trkpt lat="44.07107" lon="6.93317">
        <ele>1855.9</ele>
        <time>2019-07-16T08:19:09Z</time>
      </trkpt>
      <trkpt lat="44.07104" lon="6.93318">
        <ele>1856.5</ele>
        <time>2019-07-16T08:19:12Z</time>
      </trkpt>
      <trkpt lat="44.07101" lon="6.93321">
        <ele>1857.2</ele>
        <time>2019-07-16T08:19:15Z</time>
      </trkpt>
      <trkpt lat="44.07097" lon="6.93322">
        <ele>1857.9</ele>
        <time>2019-07-16T08:19:18Z</time>
      </trkpt>
      <trkpt lat="44.07094" lon="6.93325">
        <ele>1858.6</ele>
        <time>2019-07-16T08:19:21Z</time>
      </trkpt>
      <trkpt lat="44.07091" lon="6.93327">
        <ele>1859.2</ele>
        <time>2019-07-16T08:19:24Z</time>
      </trkpt>
      <trkpt lat="44.07089" lon="6.93329">
        <ele>1859.8</ele>
        <time>2019-07-16T08:19:27Z</time>
      </trkpt>
      <trkpt lat="44.07087" lon="6.93332">
        <ele>1860.3</ele>
        <time>2019-07-16T08:19:29Z</time>
      </trkpt>
      <trkpt lat="44.07084" lon="6.93335">
        <ele>1860.9</ele>
        <time>2019-07-16T08:19:32Z</time>
      </trkpt>
      <trkpt lat="44.07081" lon="6.93337">
        <ele>1861.6</ele>
        <time>2019-07-16T08:19:35Z</time>
      </trkpt>
      <trkpt lat="44.07078" lon="6.9334">
        <ele>1862.2</ele>
        <time>2019-07-16T08:19:38Z</time>
      </trkpt>
      <trkpt lat="44.07076" lon="6.93342">
        <ele>1862.8</ele>
        <time>2019-07-16T08:19:41Z</time>
      </trkpt>
      <trkpt lat="44.07073" lon="6.93345">
        <ele>1863.4</ele>
        <time>2019-07-16T08:19:44Z</time>
      </trkpt>
      <trkpt lat="44.07071" lon="6.93349">
        <ele>1864</ele>
        <time>2019-07-16T08:19:47Z</time>
      </trkpt>
      <trkpt lat="44.07068" lon="6.93352">
        <ele>1864.6</ele>
        <time>2019-07-16T08:19:50Z</time>
      </trkpt>
      <trkpt lat="44.07066" lon="6.93356">
        <ele>1865.2</ele>
        <time>2019-07-16T08:19:53Z</time>
      </trkpt>
      <trkpt lat="44.07064" lon="6.9336">
        <ele>1865.9</ele>
        <time>2019-07-16T08:19:56Z</time>
      </trkpt>
      <trkpt lat="44.07061" lon="6.93364">
        <ele>1866.6</ele>
        <time>2019-07-16T08:19:59Z</time>
      </trkpt>
      <trkpt lat="44.07059" lon="6.93367">
        <ele>1867.1</ele>
        <time>2019-07-16T08:20:01Z</time>
      </trkpt>
      <trkpt lat="44.07056" lon="6.93371">
        <ele>1867.7</ele>
        <time>2019-07-16T08:20:04Z</time>
      </trkpt>
      <trkpt lat="44.07054" lon="6.93373">
        <ele>1868.2</ele>
        <time>2019-07-16T08:20:06Z</time>
      </trkpt>
      <trkpt lat="44.07051" lon="6.93377">
        <ele>1868.7</ele>
        <time>2019-07-16T08:20:09Z</time>
      </trkpt>
      <trkpt lat="44.07049" lon="6.93381">
        <ele>1869.3</ele>
        <time>2019-07-16T08:20:12Z</time>
      </trkpt>
      <trkpt lat="44.07046" lon="6.93384">
        <ele>1870</ele>
        <time>2019-07-16T08:20:15Z</time>
      </trkpt>
      <trkpt lat="44.07043" lon="6.93388">
        <ele>1870.6</ele>
        <time>2019-07-16T08:20:18Z</time>
      </trkpt>
      <trkpt lat="44.07042" lon="6.93391">
        <ele>1871</ele>
        <time>2019-07-16T08:20:20Z</time>
      </trkpt>
      <trkpt lat="44.0704" lon="6.93395">
        <ele>1871.5</ele>
        <time>2019-07-16T08:20:22Z</time>
      </trkpt>
      <trkpt lat="44.07038" lon="6.93397">
        <ele>1871.9</ele>
        <time>2019-07-16T08:20:24Z</time>
      </trkpt>
      <trkpt lat="44.07036" lon="6.934">
        <ele>1872.4</ele>
        <time>2019-07-16T08:20:26Z</time>
      </trkpt>
      <trkpt lat="44.07033" lon="6.93404">
        <ele>1873</ele>
        <time>2019-07-16T08:20:29Z</time>
      </trkpt>
      <trkpt lat="44.07032" lon="6.93407">
        <ele>1873.4</ele>
        <time>2019-07-16T08:20:31Z</time>
      </trkpt>
      <trkpt lat="44.07029" lon="6.93411">
        <ele>1873.9</ele>
        <time>2019-07-16T08:20:34Z</time>
      </trkpt>
      <trkpt lat="44.07027" lon="6.93414">
        <ele>1874.4</ele>
        <time>2019-07-16T08:20:36Z</time>
      </trkpt>
      <trkpt lat="44.07025" lon="6.93417">
        <ele>1874.9</ele>
        <time>2019-07-16T08:20:38Z</time>
      </trkpt>
      <trkpt lat="44.07022" lon="6.93421">
        <ele>1875.4</ele>
        <time>2019-07-16T08:20:41Z</time>
      </trkpt>
      <trkpt lat="44.07018" lon="6.93424">
        <ele>1876.1</ele>
        <time>2019-07-16T08:20:44Z</time>
      </trkpt>
      <trkpt lat="44.07016" lon="6.93427">
        <ele>1876.4</ele>
        <time>2019-07-16T08:20:46Z</time>
      </trkpt>
      <trkpt lat="44.07014" lon="6.93431">
        <ele>1876.9</ele>
        <time>2019-07-16T08:20:48Z</time>
      </trkpt>
      <trkpt lat="44.07012" lon="6.93435">
        <ele>1877.3</ele>
        <time>2019-07-16T08:20:50Z</time>
      </trkpt>
      <trkpt lat="44.0701" lon="6.93438">
        <ele>1877.7</ele>
        <time>2019-07-16T08:20:52Z</time>
      </trkpt>
      <trkpt lat="44.07008" lon="6.93442">
        <ele>1878.2</ele>
        <time>2019-07-16T08:20:54Z</time>
      </trkpt>
      <trkpt lat="44.07006" lon="6.93446">
        <ele>1878.6</ele>
        <time>2019-07-16T08:20:56Z</time>
      </trkpt>
      <trkpt lat="44.07003" lon="6.9345">
        <ele>1879</ele>
        <time>2019-07-16T08:20:58Z</time>
      </trkpt>
      <trkpt lat="44.07001" lon="6.93453">
        <ele>1879.4</ele>
        <time>2019-07-16T08:21:00Z</time>
      </trkpt>
      <trkpt lat="44.06999" lon="6.93456">
        <ele>1879.7</ele>
        <time>2019-07-16T08:21:02Z</time>
      </trkpt>
      <trkpt lat="44.06996" lon="6.93458">
        <ele>1880.1</ele>
        <time>2019-07-16T08:21:04Z</time>
      </trkpt>
      <trkpt lat="44.06992" lon="6.9346">
        <ele>1880.5</ele>
        <time>2019-07-16T08:21:07Z</time>
      </trkpt>
      <trkpt lat="44.06989" lon="6.93463">
        <ele>1880.9</ele>
        <time>2019-07-16T08:21:09Z</time>
      </trkpt>
      <trkpt lat="44.06986" lon="6.93466">
        <ele>1881.2</ele>
        <time>2019-07-16T08:21:11Z</time>
      </trkpt>
      <trkpt lat="44.06982" lon="6.93468">
        <ele>1881.6</ele>
        <time>2019-07-16T08:21:13Z</time>
      </trkpt>
      <trkpt lat="44.06979" lon="6.93471">
        <ele>1882</ele>
        <time>2019-07-16T08:21:15Z</time>
      </trkpt>
      <trkpt lat="44.06975" lon="6.93473">
        <ele>1882.3</ele>
        <time>2019-07-16T08:21:17Z</time>
      </trkpt>
      <trkpt lat="44.06971" lon="6.93476">
        <ele>1882.6</ele>
        <time>2019-07-16T08:21:19Z</time>
      </trkpt>
      <trkpt lat="44.06967" lon="6.93478">
        <ele>1882.9</ele>
        <time>2019-07-16T08:21:21Z</time>
      </trkpt>
      <trkpt lat="44.06963" lon="6.93479">
        <ele>1883.2</ele>
        <time>2019-07-16T08:21:23Z</time>
      </trkpt>
      <trkpt lat="44.0696" lon="6.9348">
        <ele>1883.5</ele>
        <time>2019-07-16T08:21:25Z</time>
      </trkpt>
      <trkpt lat="44.06955" lon="6.93481">
        <ele>1883.9</ele>
        <time>2019-07-16T08:21:27Z</time>
      </trkpt>
      <trkpt lat="44.06951" lon="6.93482">
        <ele>1884.2</ele>
        <time>2019-07-16T08:21:29Z</time>
      </trkpt>
      <trkpt lat="44.06947" lon="6.93483">
        <ele>1884.5</ele>
        <time>2019-07-16T08:21:31Z</time>
      </trkpt>
      <trkpt lat="44.06943" lon="6.93483">
        <ele>1884.8</ele>
        <time>2019-07-16T08:21:33Z</time>
      </trkpt>
      <trkpt lat="44.06939" lon="6.93484">
        <ele>1885.1</ele>
        <time>2019-07-16T08:21:35Z</time>
      </trkpt>
      <trkpt lat="44.06935" lon="6.93484">
        <ele>1885.4</ele>
        <time>2019-07-16T08:21:37Z</time>
      </trkpt>
      <trkpt lat="44.0693" lon="6.93484">
        <ele>1885.7</ele>
        <time>2019-07-16T08:21:39Z</time>
      </trkpt>
      <trkpt lat="44.06925" lon="6.93484">
        <ele>1886</ele>
        <time>2019-07-16T08:21:41Z</time>
      </trkpt>
      <trkpt lat="44.06923" lon="6.93484">
        <ele>1886.2</ele>
        <time>2019-07-16T08:21:42Z</time>
      </trkpt>
      <trkpt lat="44.06918" lon="6.93484">
        <ele>1886.5</ele>
        <time>2019-07-16T08:21:44Z</time>
      </trkpt>
      <trkpt lat="44.06913" lon="6.93484">
        <ele>1886.8</ele>
        <time>2019-07-16T08:21:46Z</time>
      </trkpt>
      <trkpt lat="44.0691" lon="6.93484">
        <ele>1887</ele>
        <time>2019-07-16T08:21:47Z</time>
      </trkpt>
      <trkpt lat="44.06905" lon="6.93483">
        <ele>1887.2</ele>
        <time>2019-07-16T08:21:49Z</time>
      </trkpt>
      <trkpt lat="44.06901" lon="6.93483">
        <ele>1887.5</ele>
        <time>2019-07-16T08:21:51Z</time>
      </trkpt>
      <trkpt lat="44.06896" lon="6.93482">
        <ele>1887.8</ele>
        <time>2019-07-16T08:21:53Z</time>
      </trkpt>
      <trkpt lat="44.06892" lon="6.93481">
        <ele>1887.8</ele>
        <time>2019-07-16T08:21:55Z</time>
      </trkpt>
      <trkpt lat="44.06888" lon="6.93479">
        <ele>1887.8</ele>
        <time>2019-07-16T08:21:57Z</time>
      </trkpt>
      <trkpt lat="44.06884" lon="6.93477">
        <ele>1887.8</ele>
        <time>2019-07-16T08:21:59Z</time>
      </trkpt>
      <trkpt lat="44.06879" lon="6.93476">
        <ele>1887.8</ele>
        <time>2019-07-16T08:22:01Z</time>
      </trkpt>
      <trkpt lat="44.06874" lon="6.93474">
        <ele>1887.8</ele>
        <time>2019-07-16T08:22:03Z</time>
      </trkpt>
      <trkpt lat="44.06872" lon="6.93473">
        <ele>1887.8</ele>
        <time>2019-07-16T08:22:04Z</time>
      </trkpt>
      <trkpt lat="44.06869" lon="6.93471">
        <ele>1887.8</ele>
        <time>2019-07-16T08:22:05Z</time>
      </trkpt>
      <trkpt lat="44.06864" lon="6.9347">
        <ele>1887.9</ele>
        <time>2019-07-16T08:22:07Z</time>
      </trkpt>
      <trkpt lat="44.06859" lon="6.93468">
        <ele>1887.9</ele>
        <time>2019-07-16T08:22:09Z</time>
      </trkpt>
      <trkpt lat="44.06856" lon="6.93468">
        <ele>1887.9</ele>
        <time>2019-07-16T08:22:10Z</time>
      </trkpt>
      <trkpt lat="44.06851" lon="6.93466">
        <ele>1887.9</ele>
        <time>2019-07-16T08:22:12Z</time>
      </trkpt>
      <trkpt lat="44.06848" lon="6.93465">
        <ele>1887.9</ele>
        <time>2019-07-16T08:22:13Z</time>
      </trkpt>
      <trkpt lat="44.06845" lon="6.93463">
        <ele>1887.9</ele>
        <time>2019-07-16T08:22:14Z</time>
      </trkpt>
      <trkpt lat="44.06842" lon="6.93463">
        <ele>1887.9</ele>
        <time>2019-07-16T08:22:15Z</time>
      </trkpt>
      <trkpt lat="44.06838" lon="6.93462">
        <ele>1887.9</ele>
        <time>2019-07-16T08:22:16Z</time>
      </trkpt>
      <trkpt lat="44.06835" lon="6.93462">
        <ele>1887.9</ele>
        <time>2019-07-16T08:22:17Z</time>
      </trkpt>
      <trkpt lat="44.06831" lon="6.9346">
        <ele>1887.9</ele>
        <time>2019-07-16T08:22:18Z</time>
      </trkpt>
      <trkpt lat="44.06828" lon="6.93459">
        <ele>1887.9</ele>
        <time>2019-07-16T08:22:19Z</time>
      </trkpt>
      <trkpt lat="44.06824" lon="6.93458">
        <ele>1887.9</ele>
        <time>2019-07-16T08:22:20Z</time>
      </trkpt>
      <trkpt lat="44.0682" lon="6.93457">
        <ele>1887.9</ele>
        <time>2019-07-16T08:22:21Z</time>
      </trkpt>
      <trkpt lat="44.06817" lon="6.93456">
        <ele>1887.9</ele>
        <time>2019-07-16T08:22:22Z</time>
      </trkpt>
      <trkpt lat="44.06814" lon="6.93455">
        <ele>1887.9</ele>
        <time>2019-07-16T08:22:23Z</time>
      </trkpt>
      <trkpt lat="44.0681" lon="6.93453">
        <ele>1887.9</ele>
        <time>2019-07-16T08:22:24Z</time>
      </trkpt>
      <trkpt lat="44.06807" lon="6.93451">
        <ele>1887.9</ele>
        <time>2019-07-16T08:22:26Z</time>
      </trkpt>
      <trkpt lat="44.06804" lon="6.9345">
        <ele>1887.9</ele>
        <time>2019-07-16T08:22:32Z</time>
      </trkpt>
      <trkpt lat="44.06802" lon="6.93447">
        <ele>1887.9</ele>
        <time>2019-07-16T08:22:43Z</time>
      </trkpt>
      <trkpt lat="44.06798" lon="6.93446">
        <ele>1887.9</ele>
        <time>2019-07-16T08:22:45Z</time>
      </trkpt>
      <trkpt lat="44.06795" lon="6.93444">
        <ele>1887.9</ele>
        <time>2019-07-16T08:22:47Z</time>
      </trkpt>
      <trkpt lat="44.06791" lon="6.93441">
        <ele>1887.9</ele>
        <time>2019-07-16T08:22:49Z</time>
      </trkpt>
      <trkpt lat="44.06787" lon="6.93438">
        <ele>1887.9</ele>
        <time>2019-07-16T08:22:51Z</time>
      </trkpt>
      <trkpt lat="44.06782" lon="6.93436">
        <ele>1887.9</ele>
        <time>2019-07-16T08:22:53Z</time>
      </trkpt>
      <trkpt lat="44.06777" lon="6.93433">
        <ele>1887.9</ele>
        <time>2019-07-16T08:22:55Z</time>
      </trkpt>
      <trkpt lat="44.06774" lon="6.93428">
        <ele>1887.9</ele>
        <time>2019-07-16T08:22:57Z</time>
      </trkpt>
      <trkpt lat="44.0677" lon="6.93425">
        <ele>1887.9</ele>
        <time>2019-07-16T08:22:59Z</time>
      </trkpt>
      <trkpt lat="44.06766" lon="6.93422">
        <ele>1887.9</ele>
        <time>2019-07-16T08:23:01Z</time>
      </trkpt>
      <trkpt lat="44.06762" lon="6.9342">
        <ele>1887.9</ele>
        <time>2019-07-16T08:23:03Z</time>
      </trkpt>
      <trkpt lat="44.06758" lon="6.93417">
        <ele>1887.9</ele>
        <time>2019-07-16T08:23:05Z</time>
      </trkpt>
      <trkpt lat="44.06756" lon="6.93414">
        <ele>1887.9</ele>
        <time>2019-07-16T08:23:07Z</time>
      </trkpt>
      <trkpt lat="44.06753" lon="6.93411">
        <ele>1887.8</ele>
        <time>2019-07-16T08:23:09Z</time>
      </trkpt>
      <trkpt lat="44.0675" lon="6.93407">
        <ele>1887.8</ele>
        <time>2019-07-16T08:23:11Z</time>
      </trkpt>
      <trkpt lat="44.06748" lon="6.93405">
        <ele>1887.8</ele>
        <time>2019-07-16T08:23:13Z</time>
      </trkpt>
      <trkpt lat="44.06746" lon="6.93401">
        <ele>1887.8</ele>
        <time>2019-07-16T08:23:15Z</time>
      </trkpt>
      <trkpt lat="44.06743" lon="6.93398">
        <ele>1887.8</ele>
        <time>2019-07-16T08:23:17Z</time>
      </trkpt>
      <trkpt lat="44.06741" lon="6.93394">
        <ele>1887.8</ele>
        <time>2019-07-16T08:23:19Z</time>
      </trkpt>
      <trkpt lat="44.06738" lon="6.9339">
        <ele>1887.8</ele>
        <time>2019-07-16T08:23:21Z</time>
      </trkpt>
      <trkpt lat="44.06734" lon="6.93385">
        <ele>1887.8</ele>
        <time>2019-07-16T08:23:23Z</time>
      </trkpt>
      <trkpt lat="44.06731" lon="6.93379">
        <ele>1887.8</ele>
        <time>2019-07-16T08:23:25Z</time>
      </trkpt>
      <trkpt lat="44.06728" lon="6.93374">
        <ele>1887.8</ele>
        <time>2019-07-16T08:23:27Z</time>
      </trkpt>
      <trkpt lat="44.06724" lon="6.93369">
        <ele>1887.8</ele>
        <time>2019-07-16T08:23:29Z</time>
      </trkpt>
      <trkpt lat="44.06721" lon="6.93366">
        <ele>1887.9</ele>
        <time>2019-07-16T08:23:30Z</time>
      </trkpt>
      <trkpt lat="44.06719" lon="6.93363">
        <ele>1887.9</ele>
        <time>2019-07-16T08:23:31Z</time>
      </trkpt>
      <trkpt lat="44.06717" lon="6.93361">
        <ele>1887.9</ele>
        <time>2019-07-16T08:23:32Z</time>
      </trkpt>
      <trkpt lat="44.06715" lon="6.93357">
        <ele>1887.9</ele>
        <time>2019-07-16T08:23:33Z</time>
      </trkpt>
      <trkpt lat="44.06712" lon="6.93354">
        <ele>1887.9</ele>
        <time>2019-07-16T08:23:34Z</time>
      </trkpt>
      <trkpt lat="44.0671" lon="6.93352">
        <ele>1887.9</ele>
        <time>2019-07-16T08:23:35Z</time>
      </trkpt>
      <trkpt lat="44.06708" lon="6.93349">
        <ele>1887.9</ele>
        <time>2019-07-16T08:23:36Z</time>
      </trkpt>
      <trkpt lat="44.06706" lon="6.93346">
        <ele>1887.9</ele>
        <time>2019-07-16T08:23:37Z</time>
      </trkpt>
      <trkpt lat="44.06703" lon="6.93343">
        <ele>1887.9</ele>
        <time>2019-07-16T08:23:38Z</time>
      </trkpt>
      <trkpt lat="44.06701" lon="6.93341">
        <ele>1887.9</ele>
        <time>2019-07-16T08:23:39Z</time>
      </trkpt>
      <trkpt lat="44.06698" lon="6.93339">
        <ele>1887.9</ele>
        <time>2019-07-16T08:23:40Z</time>
      </trkpt>
      <trkpt lat="44.06695" lon="6.93336">
        <ele>1887.9</ele>
        <time>2019-07-16T08:23:42Z</time>
      </trkpt>
      <trkpt lat="44.06691" lon="6.93331">
        <ele>1887.9</ele>
        <time>2019-07-16T08:23:44Z</time>
      </trkpt>
      <trkpt lat="44.06688" lon="6.93329">
        <ele>1887.9</ele>
        <time>2019-07-16T08:23:45Z</time>
      </trkpt>
      <trkpt lat="44.06686" lon="6.93327">
        <ele>1887.9</ele>
        <time>2019-07-16T08:23:46Z</time>
      </trkpt>
      <trkpt lat="44.06682" lon="6.93322">
        <ele>1887.9</ele>
        <time>2019-07-16T08:23:48Z</time>
      </trkpt>
      <trkpt lat="44.06678" lon="6.93319">
        <ele>1887.9</ele>
        <time>2019-07-16T08:23:50Z</time>
      </trkpt>
      <trkpt lat="44.06673" lon="6.93316">
        <ele>1887.9</ele>
        <time>2019-07-16T08:23:52Z</time>
      </trkpt>
      <trkpt lat="44.06669" lon="6.93313">
        <ele>1887.9</ele>
        <time>2019-07-16T08:23:54Z</time>
      </trkpt>
      <trkpt lat="44.06665" lon="6.9331">
        <ele>1887.9</ele>
        <time>2019-07-16T08:23:56Z</time>
      </trkpt>
      <trkpt lat="44.0666" lon="6.93307">
        <ele>1887.9</ele>
        <time>2019-07-16T08:23:58Z</time>
      </trkpt>
      <trkpt lat="44.06658" lon="6.93304">
        <ele>1887.9</ele>
        <time>2019-07-16T08:23:59Z</time>
      </trkpt>
      <trkpt lat="44.06655" lon="6.93302">
        <ele>1887.9</ele>
        <time>2019-07-16T08:24:00Z</time>
      </trkpt>
      <trkpt lat="44.06653" lon="6.933">
        <ele>1887.9</ele>
        <time>2019-07-16T08:24:01Z</time>
      </trkpt>
      <trkpt lat="44.06648" lon="6.93296">
        <ele>1887.9</ele>
        <time>2019-07-16T08:24:03Z</time>
      </trkpt>
      <trkpt lat="44.06644" lon="6.93293">
        <ele>1887.9</ele>
        <time>2019-07-16T08:24:05Z</time>
      </trkpt>
      <trkpt lat="44.06639" lon="6.9329">
        <ele>1887.9</ele>
        <time>2019-07-16T08:24:07Z</time>
      </trkpt>
      <trkpt lat="44.06637" lon="6.93288">
        <ele>1887.9</ele>
        <time>2019-07-16T08:24:08Z</time>
      </trkpt>
      <trkpt lat="44.06634" lon="6.93286">
        <ele>1887.9</ele>
        <time>2019-07-16T08:24:09Z</time>
      </trkpt>
      <trkpt lat="44.0663" lon="6.93282">
        <ele>1887.9</ele>
        <time>2019-07-16T08:24:11Z</time>
      </trkpt>
      <trkpt lat="44.06627" lon="6.93279">
        <ele>1887.8</ele>
        <time>2019-07-16T08:24:13Z</time>
      </trkpt>
      <trkpt lat="44.06623" lon="6.93275">
        <ele>1887.8</ele>
        <time>2019-07-16T08:24:15Z</time>
      </trkpt>
      <trkpt lat="44.0662" lon="6.93271">
        <ele>1887.8</ele>
        <time>2019-07-16T08:24:17Z</time>
      </trkpt>
      <trkpt lat="44.06617" lon="6.93268">
        <ele>1887.8</ele>
        <time>2019-07-16T08:24:19Z</time>
      </trkpt>
      <trkpt lat="44.06614" lon="6.93263">
        <ele>1887.8</ele>
        <time>2019-07-16T08:24:21Z</time>
      </trkpt>
      <trkpt lat="44.06611" lon="6.93257">
        <ele>1887.7</ele>
        <time>2019-07-16T08:24:23Z</time>
      </trkpt>
      <trkpt lat="44.06609" lon="6.93253">
        <ele>1887.7</ele>
        <time>2019-07-16T08:24:25Z</time>
      </trkpt>
      <trkpt lat="44.06608" lon="6.93248">
        <ele>1887.7</ele>
        <time>2019-07-16T08:24:27Z</time>
      </trkpt>
      <trkpt lat="44.06607" lon="6.93243">
        <ele>1887.6</ele>
        <time>2019-07-16T08:24:29Z</time>
      </trkpt>
      <trkpt lat="44.06606" lon="6.93237">
        <ele>1887.6</ele>
        <time>2019-07-16T08:24:31Z</time>
      </trkpt>
      <trkpt lat="44.06604" lon="6.93234">
        <ele>1887.6</ele>
        <time>2019-07-16T08:24:33Z</time>
      </trkpt>
      <trkpt lat="44.06603" lon="6.9323">
        <ele>1887.6</ele>
        <time>2019-07-16T08:24:35Z</time>
      </trkpt>
      <trkpt lat="44.06602" lon="6.93226">
        <ele>1887.5</ele>
        <time>2019-07-16T08:24:37Z</time>
      </trkpt>
      <trkpt lat="44.06601" lon="6.93222">
        <ele>1887.5</ele>
        <time>2019-07-16T08:24:39Z</time>
      </trkpt>
      <trkpt lat="44.06599" lon="6.93218">
        <ele>1887.5</ele>
        <time>2019-07-16T08:24:41Z</time>
      </trkpt>
      <trkpt lat="44.06598" lon="6.93214">
        <ele>1887.5</ele>
        <time>2019-07-16T08:24:43Z</time>
      </trkpt>
      <trkpt lat="44.06597" lon="6.93211">
        <ele>1887.5</ele>
        <time>2019-07-16T08:24:45Z</time>
      </trkpt>
      <trkpt lat="44.06596" lon="6.93205">
        <ele>1887.4</ele>
        <time>2019-07-16T08:24:47Z</time>
      </trkpt>
      <trkpt lat="44.06594" lon="6.93201">
        <ele>1887.4</ele>
        <time>2019-07-16T08:24:49Z</time>
      </trkpt>
      <trkpt lat="44.06593" lon="6.93197">
        <ele>1887.4</ele>
        <time>2019-07-16T08:24:51Z</time>
      </trkpt>
      <trkpt lat="44.06591" lon="6.93193">
        <ele>1887.4</ele>
        <time>2019-07-16T08:24:53Z</time>
      </trkpt>
      <trkpt lat="44.06589" lon="6.93189">
        <ele>1887.3</ele>
        <time>2019-07-16T08:24:55Z</time>
      </trkpt>
      <trkpt lat="44.06587" lon="6.93186">
        <ele>1887.3</ele>
        <time>2019-07-16T08:24:57Z</time>
      </trkpt>
      <trkpt lat="44.06584" lon="6.93182">
        <ele>1887.2</ele>
        <time>2019-07-16T08:24:59Z</time>
      </trkpt>
      <trkpt lat="44.06581" lon="6.93179">
        <ele>1887.2</ele>
        <time>2019-07-16T08:25:01Z</time>
      </trkpt>
      <trkpt lat="44.06579" lon="6.93176">
        <ele>1887.2</ele>
        <time>2019-07-16T08:25:03Z</time>
      </trkpt>
      <trkpt lat="44.06576" lon="6.93174">
        <ele>1887.2</ele>
        <time>2019-07-16T08:25:05Z</time>
      </trkpt>
      <trkpt lat="44.06574" lon="6.93172">
        <ele>1887.2</ele>
        <time>2019-07-16T08:25:07Z</time>
      </trkpt>
      <trkpt lat="44.06571" lon="6.93169">
        <ele>1887.1</ele>
        <time>2019-07-16T08:25:09Z</time>
      </trkpt>
      <trkpt lat="44.06568" lon="6.93165">
        <ele>1887.1</ele>
        <time>2019-07-16T08:25:12Z</time>
      </trkpt>
      <trkpt lat="44.06565" lon="6.93162">
        <ele>1887.1</ele>
        <time>2019-07-16T08:25:14Z</time>
      </trkpt>
      <trkpt lat="44.06564" lon="6.93159">
        <ele>1887.1</ele>
        <time>2019-07-16T08:25:16Z</time>
      </trkpt>
      <trkpt lat="44.06561" lon="6.93156">
        <ele>1887.1</ele>
        <time>2019-07-16T08:25:18Z</time>
      </trkpt>
      <trkpt lat="44.06557" lon="6.93153">
        <ele>1887</ele>
        <time>2019-07-16T08:25:21Z</time>
      </trkpt>
      <trkpt lat="44.06555" lon="6.9315">
        <ele>1887</ele>
        <time>2019-07-16T08:25:23Z</time>
      </trkpt>
      <trkpt lat="44.06553" lon="6.93146">
        <ele>1887</ele>
        <time>2019-07-16T08:25:26Z</time>
      </trkpt>
      <trkpt lat="44.06552" lon="6.93142">
        <ele>1887</ele>
        <time>2019-07-16T08:25:29Z</time>
      </trkpt>
      <trkpt lat="44.06551" lon="6.93138">
        <ele>1886.9</ele>
        <time>2019-07-16T08:25:31Z</time>
      </trkpt>
      <trkpt lat="44.06551" lon="6.93134">
        <ele>1886.9</ele>
        <time>2019-07-16T08:25:33Z</time>
      </trkpt>
      <trkpt lat="44.06551" lon="6.93129">
        <ele>1886.8</ele>
        <time>2019-07-16T08:25:35Z</time>
      </trkpt>
      <trkpt lat="44.06548" lon="6.93126">
        <ele>1886.8</ele>
        <time>2019-07-16T08:25:38Z</time>
      </trkpt>
      <trkpt lat="44.06549" lon="6.93122">
        <ele>1886.7</ele>
        <time>2019-07-16T08:25:42Z</time>
      </trkpt>
      <trkpt lat="44.06549" lon="6.93118">
        <ele>1886.7</ele>
        <time>2019-07-16T08:26:54Z</time>
      </trkpt>
      <trkpt lat="44.0655" lon="6.93113">
        <ele>1886.6</ele>
        <time>2019-07-16T08:26:58Z</time>
      </trkpt>
      <trkpt lat="44.0655" lon="6.93109">
        <ele>1886.5</ele>
        <time>2019-07-16T08:27:00Z</time>
      </trkpt>
      <trkpt lat="44.06549" lon="6.93103">
        <ele>1886.4</ele>
        <time>2019-07-16T08:27:03Z</time>
      </trkpt>
      <trkpt lat="44.06549" lon="6.93098">
        <ele>1886.3</ele>
        <time>2019-07-16T08:27:06Z</time>
      </trkpt>
      <trkpt lat="44.06551" lon="6.93094">
        <ele>1886.3</ele>
        <time>2019-07-16T08:27:10Z</time>
      </trkpt>
      <trkpt lat="44.06553" lon="6.93091">
        <ele>1886.4</ele>
        <time>2019-07-16T08:27:13Z</time>
      </trkpt>
      <trkpt lat="44.06553" lon="6.93086">
        <ele>1886.5</ele>
        <time>2019-07-16T08:27:16Z</time>
      </trkpt>
      <trkpt lat="44.06556" lon="6.93084">
        <ele>1886.5</ele>
        <time>2019-07-16T08:28:11Z</time>
      </trkpt>
      <trkpt lat="44.06558" lon="6.93079">
        <ele>1886.6</ele>
        <time>2019-07-16T08:28:14Z</time>
      </trkpt>
      <trkpt lat="44.0656" lon="6.93075">
        <ele>1886.6</ele>
        <time>2019-07-16T08:28:16Z</time>
      </trkpt>
      <trkpt lat="44.06562" lon="6.93071">
        <ele>1886.7</ele>
        <time>2019-07-16T08:28:18Z</time>
      </trkpt>
      <trkpt lat="44.06565" lon="6.93066">
        <ele>1886.8</ele>
        <time>2019-07-16T08:28:20Z</time>
      </trkpt>
      <trkpt lat="44.06568" lon="6.93061">
        <ele>1886.9</ele>
        <time>2019-07-16T08:28:22Z</time>
      </trkpt>
      <trkpt lat="44.0657" lon="6.93056">
        <ele>1887</ele>
        <time>2019-07-16T08:28:24Z</time>
      </trkpt>
      <trkpt lat="44.06573" lon="6.93051">
        <ele>1887</ele>
        <time>2019-07-16T08:28:26Z</time>
      </trkpt>
      <trkpt lat="44.06574" lon="6.93043">
        <ele>1887.1</ele>
        <time>2019-07-16T08:28:28Z</time>
      </trkpt>
      <trkpt lat="44.06574" lon="6.9304">
        <ele>1887.1</ele>
        <time>2019-07-16T08:28:29Z</time>
      </trkpt>
      <trkpt lat="44.06573" lon="6.93035">
        <ele>1887.1</ele>
        <time>2019-07-16T08:28:30Z</time>
      </trkpt>
      <trkpt lat="44.06572" lon="6.93031">
        <ele>1887.1</ele>
        <time>2019-07-16T08:28:31Z</time>
      </trkpt>
      <trkpt lat="44.06571" lon="6.93027">
        <ele>1887.1</ele>
        <time>2019-07-16T08:28:32Z</time>
      </trkpt>
      <trkpt lat="44.0657" lon="6.93023">
        <ele>1887.1</ele>
        <time>2019-07-16T08:28:33Z</time>
      </trkpt>
      <trkpt lat="44.06569" lon="6.9302">
        <ele>1887</ele>
        <time>2019-07-16T08:28:34Z</time>
      </trkpt>
      <trkpt lat="44.06567" lon="6.93017">
        <ele>1887</ele>
        <time>2019-07-16T08:28:35Z</time>
      </trkpt>
      <trkpt lat="44.06564" lon="6.93015">
        <ele>1886.9</ele>
        <time>2019-07-16T08:28:36Z</time>
      </trkpt>
      <trkpt lat="44.0656" lon="6.93013">
        <ele>1886.7</ele>
        <time>2019-07-16T08:28:38Z</time>
      </trkpt>
      <trkpt lat="44.06555" lon="6.93011">
        <ele>1886.5</ele>
        <time>2019-07-16T08:28:40Z</time>
      </trkpt>
      <trkpt lat="44.0655" lon="6.93013">
        <ele>1886.2</ele>
        <time>2019-07-16T08:28:42Z</time>
      </trkpt>
      <trkpt lat="44.06547" lon="6.93014">
        <ele>1885.9</ele>
        <time>2019-07-16T08:28:44Z</time>
      </trkpt>
      <trkpt lat="44.06543" lon="6.93017">
        <ele>1885.4</ele>
        <time>2019-07-16T08:28:46Z</time>
      </trkpt>
      <trkpt lat="44.06541" lon="6.93019">
        <ele>1885</ele>
        <time>2019-07-16T08:28:48Z</time>
      </trkpt>
      <trkpt lat="44.06539" lon="6.93022">
        <ele>1884.6</ele>
        <time>2019-07-16T08:28:59Z</time>
      </trkpt>
      <trkpt lat="44.06535" lon="6.93023">
        <ele>1884.2</ele>
        <time>2019-07-16T08:29:01Z</time>
      </trkpt>
      <trkpt lat="44.06532" lon="6.93025">
        <ele>1883.8</ele>
        <time>2019-07-16T08:29:03Z</time>
      </trkpt>
      <trkpt lat="44.06529" lon="6.93026">
        <ele>1883.3</ele>
        <time>2019-07-16T08:30:06Z</time>
      </trkpt>
      <trkpt lat="44.06524" lon="6.93029">
        <ele>1882.7</ele>
        <time>2019-07-16T08:30:08Z</time>
      </trkpt>
      <trkpt lat="44.06522" lon="6.9303">
        <ele>1882.4</ele>
        <time>2019-07-16T08:30:09Z</time>
      </trkpt>
      <trkpt lat="44.06519" lon="6.93032">
        <ele>1881.9</ele>
        <time>2019-07-16T08:30:10Z</time>
      </trkpt>
      <trkpt lat="44.06515" lon="6.93035">
        <ele>1881.5</ele>
        <time>2019-07-16T08:30:11Z</time>
      </trkpt>
      <trkpt lat="44.06512" lon="6.93038">
        <ele>1881.1</ele>
        <time>2019-07-16T08:30:12Z</time>
      </trkpt>
      <trkpt lat="44.06508" lon="6.9304">
        <ele>1880.8</ele>
        <time>2019-07-16T08:30:13Z</time>
      </trkpt>
      <trkpt lat="44.06503" lon="6.93043">
        <ele>1880.4</ele>
        <time>2019-07-16T08:30:14Z</time>
      </trkpt>
      <trkpt lat="44.06498" lon="6.93047">
        <ele>1880</ele>
        <time>2019-07-16T08:30:15Z</time>
      </trkpt>
      <trkpt lat="44.06493" lon="6.93051">
        <ele>1879.6</ele>
        <time>2019-07-16T08:30:16Z</time>
      </trkpt>
      <trkpt lat="44.06487" lon="6.93055">
        <ele>1879.2</ele>
        <time>2019-07-16T08:30:17Z</time>
      </trkpt>
      <trkpt lat="44.06482" lon="6.9306">
        <ele>1878.8</ele>
        <time>2019-07-16T08:30:18Z</time>
      </trkpt>
      <trkpt lat="44.06476" lon="6.93065">
        <ele>1878.3</ele>
        <time>2019-07-16T08:30:19Z</time>
      </trkpt>
      <trkpt lat="44.06471" lon="6.93071">
        <ele>1877.8</ele>
        <time>2019-07-16T08:30:20Z</time>
      </trkpt>
      <trkpt lat="44.06467" lon="6.93077">
        <ele>1877.4</ele>
        <time>2019-07-16T08:30:21Z</time>
      </trkpt>
      <trkpt lat="44.06463" lon="6.93083">
        <ele>1876.9</ele>
        <time>2019-07-16T08:30:22Z</time>
      </trkpt>
      <trkpt lat="44.0646" lon="6.9309">
        <ele>1876.4</ele>
        <time>2019-07-16T08:30:23Z</time>
      </trkpt>
      <trkpt lat="44.06456" lon="6.93098">
        <ele>1875.8</ele>
        <time>2019-07-16T08:30:24Z</time>
      </trkpt>
      <trkpt lat="44.06454" lon="6.93106">
        <ele>1875.3</ele>
        <time>2019-07-16T08:30:25Z</time>
      </trkpt>
      <trkpt lat="44.06452" lon="6.93116">
        <ele>1874.8</ele>
        <time>2019-07-16T08:30:26Z</time>
      </trkpt>
      <trkpt lat="44.06451" lon="6.93126">
        <ele>1874.3</ele>
        <time>2019-07-16T08:30:27Z</time>
      </trkpt>
      <trkpt lat="44.06451" lon="6.93136">
        <ele>1873.8</ele>
        <time>2019-07-16T08:30:28Z</time>
      </trkpt>
      <trkpt lat="44.0645" lon="6.93147">
        <ele>1873.3</ele>
        <time>2019-07-16T08:30:29Z</time>
      </trkpt>
      <trkpt lat="44.06449" lon="6.93157">
        <ele>1872.8</ele>
        <time>2019-07-16T08:30:30Z</time>
      </trkpt>
      <trkpt lat="44.06448" lon="6.93168">
        <ele>1872.3</ele>
        <time>2019-07-16T08:30:31Z</time>
      </trkpt>
      <trkpt lat="44.06446" lon="6.93177">
        <ele>1871.6</ele>
        <time>2019-07-16T08:30:32Z</time>
      </trkpt>
      <trkpt lat="44.06445" lon="6.93187">
        <ele>1870.8</ele>
        <time>2019-07-16T08:30:33Z</time>
      </trkpt>
      <trkpt lat="44.06443" lon="6.93197">
        <ele>1870</ele>
        <time>2019-07-16T08:30:34Z</time>
      </trkpt>
      <trkpt lat="44.06441" lon="6.93206">
        <ele>1869.1</ele>
        <time>2019-07-16T08:30:35Z</time>
      </trkpt>
      <trkpt lat="44.06438" lon="6.93213">
        <ele>1868.5</ele>
        <time>2019-07-16T08:30:36Z</time>
      </trkpt>
      <trkpt lat="44.06434" lon="6.9322">
        <ele>1867.8</ele>
        <time>2019-07-16T08:30:37Z</time>
      </trkpt>
      <trkpt lat="44.06431" lon="6.93226">
        <ele>1867.1</ele>
        <time>2019-07-16T08:30:38Z</time>
      </trkpt>
      <trkpt lat="44.06427" lon="6.93233">
        <ele>1866.3</ele>
        <time>2019-07-16T08:30:39Z</time>
      </trkpt>
      <trkpt lat="44.06422" lon="6.93239">
        <ele>1865.5</ele>
        <time>2019-07-16T08:30:40Z</time>
      </trkpt>
      <trkpt lat="44.06416" lon="6.93244">
        <ele>1864.7</ele>
        <time>2019-07-16T08:30:41Z</time>
      </trkpt>
      <trkpt lat="44.0641" lon="6.9325">
        <ele>1863.9</ele>
        <time>2019-07-16T08:30:42Z</time>
      </trkpt>
      <trkpt lat="44.06403" lon="6.93255">
        <ele>1863.1</ele>
        <time>2019-07-16T08:30:43Z</time>
      </trkpt>
      <trkpt lat="44.06396" lon="6.9326">
        <ele>1862.3</ele>
        <time>2019-07-16T08:30:44Z</time>
      </trkpt>
      <trkpt lat="44.06389" lon="6.93266">
        <ele>1861.4</ele>
        <time>2019-07-16T08:30:45Z</time>
      </trkpt>
      <trkpt lat="44.06381" lon="6.93271">
        <ele>1860.4</ele>
        <time>2019-07-16T08:30:46Z</time>
      </trkpt>
      <trkpt lat="44.06373" lon="6.93275">
        <ele>1859.6</ele>
        <time>2019-07-16T08:30:47Z</time>
      </trkpt>
      <trkpt lat="44.06367" lon="6.93278">
        <ele>1858.9</ele>
        <time>2019-07-16T08:30:48Z</time>
      </trkpt>
      <trkpt lat="44.0636" lon="6.93282">
        <ele>1858.2</ele>
        <time>2019-07-16T08:30:49Z</time>
      </trkpt>
      <trkpt lat="44.06354" lon="6.93285">
        <ele>1857.7</ele>
        <time>2019-07-16T08:30:50Z</time>
      </trkpt>
      <trkpt lat="44.06349" lon="6.93288">
        <ele>1857.1</ele>
        <time>2019-07-16T08:30:51Z</time>
      </trkpt>
      <trkpt lat="44.06343" lon="6.93292">
        <ele>1856.5</ele>
        <time>2019-07-16T08:30:52Z</time>
      </trkpt>
      <trkpt lat="44.06337" lon="6.93296">
        <ele>1855.8</ele>
        <time>2019-07-16T08:30:53Z</time>
      </trkpt>
      <trkpt lat="44.06331" lon="6.93301">
        <ele>1855.2</ele>
        <time>2019-07-16T08:30:54Z</time>
      </trkpt>
      <trkpt lat="44.06325" lon="6.93307">
        <ele>1854.3</ele>
        <time>2019-07-16T08:30:55Z</time>
      </trkpt>
      <trkpt lat="44.06319" lon="6.93313">
        <ele>1853.6</ele>
        <time>2019-07-16T08:30:56Z</time>
      </trkpt>
      <trkpt lat="44.06313" lon="6.9332">
        <ele>1852.7</ele>
        <time>2019-07-16T08:30:57Z</time>
      </trkpt>
      <trkpt lat="44.06307" lon="6.93329">
        <ele>1851.7</ele>
        <time>2019-07-16T08:30:58Z</time>
      </trkpt>
      <trkpt lat="44.06301" lon="6.93339">
        <ele>1850.7</ele>
        <time>2019-07-16T08:30:59Z</time>
      </trkpt>
      <trkpt lat="44.06295" lon="6.93348">
        <ele>1849.8</ele>
        <time>2019-07-16T08:31:00Z</time>
      </trkpt>
      <trkpt lat="44.06289" lon="6.93358">
        <ele>1848.8</ele>
        <time>2019-07-16T08:31:01Z</time>
      </trkpt>
      <trkpt lat="44.06282" lon="6.93366">
        <ele>1847.9</ele>
        <time>2019-07-16T08:31:02Z</time>
      </trkpt>
      <trkpt lat="44.06275" lon="6.93374">
        <ele>1847</ele>
        <time>2019-07-16T08:31:03Z</time>
      </trkpt>
      <trkpt lat="44.06269" lon="6.93383">
        <ele>1846.1</ele>
        <time>2019-07-16T08:31:04Z</time>
      </trkpt>
      <trkpt lat="44.06263" lon="6.93392">
        <ele>1845.5</ele>
        <time>2019-07-16T08:31:05Z</time>
      </trkpt>
      <trkpt lat="44.06256" lon="6.934">
        <ele>1844.9</ele>
        <time>2019-07-16T08:31:06Z</time>
      </trkpt>
      <trkpt lat="44.06249" lon="6.93407">
        <ele>1844.3</ele>
        <time>2019-07-16T08:31:07Z</time>
      </trkpt>
      <trkpt lat="44.06243" lon="6.93414">
        <ele>1843.6</ele>
        <time>2019-07-16T08:31:08Z</time>
      </trkpt>
      <trkpt lat="44.06237" lon="6.9342">
        <ele>1843</ele>
        <time>2019-07-16T08:31:09Z</time>
      </trkpt>
      <trkpt lat="44.06232" lon="6.93426">
        <ele>1842.6</ele>
        <time>2019-07-16T08:31:10Z</time>
      </trkpt>
      <trkpt lat="44.06228" lon="6.93432">
        <ele>1842.2</ele>
        <time>2019-07-16T08:31:11Z</time>
      </trkpt>
      <trkpt lat="44.06225" lon="6.93437">
        <ele>1842</ele>
        <time>2019-07-16T08:31:12Z</time>
      </trkpt>
      <trkpt lat="44.06222" lon="6.9344">
        <ele>1841.8</ele>
        <time>2019-07-16T08:31:13Z</time>
      </trkpt>
      <trkpt lat="44.06219" lon="6.93443">
        <ele>1841.7</ele>
        <time>2019-07-16T08:31:14Z</time>
      </trkpt>
      <trkpt lat="44.06215" lon="6.93444">
        <ele>1841.6</ele>
        <time>2019-07-16T08:31:15Z</time>
      </trkpt>
      <trkpt lat="44.06209" lon="6.93442">
        <ele>1841.5</ele>
        <time>2019-07-16T08:31:16Z</time>
      </trkpt>
      <trkpt lat="44.06205" lon="6.93439">
        <ele>1841.4</ele>
        <time>2019-07-16T08:31:17Z</time>
      </trkpt>
      <trkpt lat="44.06201" lon="6.93434">
        <ele>1841.4</ele>
        <time>2019-07-16T08:31:18Z</time>
      </trkpt>
      <trkpt lat="44.06199" lon="6.9343">
        <ele>1841.4</ele>
        <time>2019-07-16T08:31:19Z</time>
      </trkpt>
      <trkpt lat="44.06197" lon="6.93425">
        <ele>1841.4</ele>
        <time>2019-07-16T08:31:20Z</time>
      </trkpt>
      <trkpt lat="44.06196" lon="6.93421">
        <ele>1841.4</ele>
        <time>2019-07-16T08:31:21Z</time>
      </trkpt>
      <trkpt lat="44.06194" lon="6.93416">
        <ele>1841.4</ele>
        <time>2019-07-16T08:31:22Z</time>
      </trkpt>
      <trkpt lat="44.06193" lon="6.93412">
        <ele>1841.4</ele>
        <time>2019-07-16T08:31:23Z</time>
      </trkpt>
      <trkpt lat="44.06191" lon="6.93409">
        <ele>1841.3</ele>
        <time>2019-07-16T08:31:24Z</time>
      </trkpt>
      <trkpt lat="44.06189" lon="6.93406">
        <ele>1841.3</ele>
        <time>2019-07-16T08:31:25Z</time>
      </trkpt>
      <trkpt lat="44.06187" lon="6.93403">
        <ele>1841.3</ele>
        <time>2019-07-16T08:31:26Z</time>
      </trkpt>
      <trkpt lat="44.06185" lon="6.934">
        <ele>1841.3</ele>
        <time>2019-07-16T08:31:27Z</time>
      </trkpt>
      <trkpt lat="44.06182" lon="6.93396">
        <ele>1841.3</ele>
        <time>2019-07-16T08:31:28Z</time>
      </trkpt>
      <trkpt lat="44.0618" lon="6.93393">
        <ele>1841.3</ele>
        <time>2019-07-16T08:31:29Z</time>
      </trkpt>
      <trkpt lat="44.06178" lon="6.9339">
        <ele>1841.3</ele>
        <time>2019-07-16T08:31:30Z</time>
      </trkpt>
      <trkpt lat="44.06176" lon="6.93387">
        <ele>1841.3</ele>
        <time>2019-07-16T08:31:31Z</time>
      </trkpt>
      <trkpt lat="44.06174" lon="6.93384">
        <ele>1841.3</ele>
        <time>2019-07-16T08:31:32Z</time>
      </trkpt>
      <trkpt lat="44.06172" lon="6.93381">
        <ele>1841.3</ele>
        <time>2019-07-16T08:31:33Z</time>
      </trkpt>
      <trkpt lat="44.06169" lon="6.93378">
        <ele>1841.3</ele>
        <time>2019-07-16T08:31:34Z</time>
      </trkpt>
      <trkpt lat="44.06167" lon="6.93375">
        <ele>1841.3</ele>
        <time>2019-07-16T08:31:35Z</time>
      </trkpt>
      <trkpt lat="44.06164" lon="6.93372">
        <ele>1841.3</ele>
        <time>2019-07-16T08:31:36Z</time>
      </trkpt>
      <trkpt lat="44.06162" lon="6.93369">
        <ele>1841.3</ele>
        <time>2019-07-16T08:31:37Z</time>
      </trkpt>
      <trkpt lat="44.0616" lon="6.93366">
        <ele>1841.3</ele>
        <time>2019-07-16T08:31:38Z</time>
      </trkpt>
      <trkpt lat="44.06158" lon="6.93363">
        <ele>1841.3</ele>
        <time>2019-07-16T08:31:39Z</time>
      </trkpt>
      <trkpt lat="44.06155" lon="6.9336">
        <ele>1841.3</ele>
        <time>2019-07-16T08:31:40Z</time>
      </trkpt>
      <trkpt lat="44.06153" lon="6.93356">
        <ele>1841.3</ele>
        <time>2019-07-16T08:31:41Z</time>
      </trkpt>
      <trkpt lat="44.06149" lon="6.93354">
        <ele>1841.3</ele>
        <time>2019-07-16T08:31:42Z</time>
      </trkpt>
      <trkpt lat="44.06146" lon="6.93351">
        <ele>1841.3</ele>
        <time>2019-07-16T08:31:43Z</time>
      </trkpt>
      <trkpt lat="44.06143" lon="6.93349">
        <ele>1841.4</ele>
        <time>2019-07-16T08:31:44Z</time>
      </trkpt>
      <trkpt lat="44.06139" lon="6.93346">
        <ele>1841.4</ele>
        <time>2019-07-16T08:31:45Z</time>
      </trkpt>
      <trkpt lat="44.06135" lon="6.93342">
        <ele>1841.5</ele>
        <time>2019-07-16T08:31:46Z</time>
      </trkpt>
      <trkpt lat="44.06132" lon="6.9334">
        <ele>1841.5</ele>
        <time>2019-07-16T08:31:47Z</time>
      </trkpt>
      <trkpt lat="44.06129" lon="6.93338">
        <ele>1841.6</ele>
        <time>2019-07-16T08:31:48Z</time>
      </trkpt>
      <trkpt lat="44.06126" lon="6.93336">
        <ele>1841.7</ele>
        <time>2019-07-16T08:31:49Z</time>
      </trkpt>
      <trkpt lat="44.06124" lon="6.93333">
        <ele>1841.7</ele>
        <time>2019-07-16T08:31:50Z</time>
      </trkpt>
      <trkpt lat="44.0612" lon="6.93329">
        <ele>1841.8</ele>
        <time>2019-07-16T08:31:51Z</time>
      </trkpt>
      <trkpt lat="44.06117" lon="6.93325">
        <ele>1841.9</ele>
        <time>2019-07-16T08:31:52Z</time>
      </trkpt>
      <trkpt lat="44.06114" lon="6.93322">
        <ele>1841.9</ele>
        <time>2019-07-16T08:31:53Z</time>
      </trkpt>
      <trkpt lat="44.06111" lon="6.93318">
        <ele>1842</ele>
        <time>2019-07-16T08:31:54Z</time>
      </trkpt>
      <trkpt lat="44.06109" lon="6.93314">
        <ele>1842</ele>
        <time>2019-07-16T08:31:55Z</time>
      </trkpt>
      <trkpt lat="44.06107" lon="6.93311">
        <ele>1842.1</ele>
        <time>2019-07-16T08:31:56Z</time>
      </trkpt>
      <trkpt lat="44.06104" lon="6.93307">
        <ele>1842.2</ele>
        <time>2019-07-16T08:31:57Z</time>
      </trkpt>
      <trkpt lat="44.06102" lon="6.93304">
        <ele>1842.2</ele>
        <time>2019-07-16T08:31:58Z</time>
      </trkpt>
      <trkpt lat="44.06099" lon="6.93299">
        <ele>1842.3</ele>
        <time>2019-07-16T08:31:59Z</time>
      </trkpt>
      <trkpt lat="44.06096" lon="6.93297">
        <ele>1842.4</ele>
        <time>2019-07-16T08:32:00Z</time>
      </trkpt>
      <trkpt lat="44.06093" lon="6.93295">
        <ele>1842.4</ele>
        <time>2019-07-16T08:32:01Z</time>
      </trkpt>
      <trkpt lat="44.0609" lon="6.93293">
        <ele>1842.5</ele>
        <time>2019-07-16T08:32:02Z</time>
      </trkpt>
      <trkpt lat="44.06087" lon="6.93291">
        <ele>1842.6</ele>
        <time>2019-07-16T08:32:03Z</time>
      </trkpt>
      <trkpt lat="44.06084" lon="6.93289">
        <ele>1842.6</ele>
        <time>2019-07-16T08:32:04Z</time>
      </trkpt>
      <trkpt lat="44.06081" lon="6.93287">
        <ele>1842.7</ele>
        <time>2019-07-16T08:32:05Z</time>
      </trkpt>
      <trkpt lat="44.06078" lon="6.93285">
        <ele>1842.7</ele>
        <time>2019-07-16T08:32:06Z</time>
      </trkpt>
      <trkpt lat="44.06075" lon="6.93283">
        <ele>1842.7</ele>
        <time>2019-07-16T08:32:07Z</time>
      </trkpt>
      <trkpt lat="44.06072" lon="6.93281">
        <ele>1842.7</ele>
        <time>2019-07-16T08:32:08Z</time>
      </trkpt>
      <trkpt lat="44.06069" lon="6.9328">
        <ele>1842.7</ele>
        <time>2019-07-16T08:32:09Z</time>
      </trkpt>
      <trkpt lat="44.06066" lon="6.93278">
        <ele>1842.7</ele>
        <time>2019-07-16T08:32:10Z</time>
      </trkpt>
      <trkpt lat="44.06062" lon="6.93276">
        <ele>1842.6</ele>
        <time>2019-07-16T08:32:11Z</time>
      </trkpt>
      <trkpt lat="44.0606" lon="6.93274">
        <ele>1842.6</ele>
        <time>2019-07-16T08:32:12Z</time>
      </trkpt>
      <trkpt lat="44.06057" lon="6.93272">
        <ele>1842.6</ele>
        <time>2019-07-16T08:32:13Z</time>
      </trkpt>
      <trkpt lat="44.06054" lon="6.9327">
        <ele>1842.5</ele>
        <time>2019-07-16T08:32:14Z</time>
      </trkpt>
      <trkpt lat="44.06052" lon="6.93268">
        <ele>1842.4</ele>
        <time>2019-07-16T08:32:15Z</time>
      </trkpt>
      <trkpt lat="44.06049" lon="6.93265">
        <ele>1842.4</ele>
        <time>2019-07-16T08:32:16Z</time>
      </trkpt>
      <trkpt lat="44.06046" lon="6.93263">
        <ele>1842.3</ele>
        <time>2019-07-16T08:32:17Z</time>
      </trkpt>
      <trkpt lat="44.06043" lon="6.9326">
        <ele>1842.2</ele>
        <time>2019-07-16T08:32:18Z</time>
      </trkpt>
      <trkpt lat="44.06041" lon="6.93257">
        <ele>1842.1</ele>
        <time>2019-07-16T08:32:19Z</time>
      </trkpt>
      <trkpt lat="44.06038" lon="6.93254">
        <ele>1842</ele>
        <time>2019-07-16T08:32:20Z</time>
      </trkpt>
      <trkpt lat="44.06035" lon="6.93252">
        <ele>1842</ele>
        <time>2019-07-16T08:32:21Z</time>
      </trkpt>
      <trkpt lat="44.06032" lon="6.93249">
        <ele>1841.9</ele>
        <time>2019-07-16T08:32:22Z</time>
      </trkpt>
      <trkpt lat="44.0603" lon="6.93247">
        <ele>1841.8</ele>
        <time>2019-07-16T08:32:23Z</time>
      </trkpt>
      <trkpt lat="44.06028" lon="6.93243">
        <ele>1841.8</ele>
        <time>2019-07-16T08:32:24Z</time>
      </trkpt>
      <trkpt lat="44.06025" lon="6.9324">
        <ele>1841.7</ele>
        <time>2019-07-16T08:32:25Z</time>
      </trkpt>
      <trkpt lat="44.06023" lon="6.93238">
        <ele>1841.7</ele>
        <time>2019-07-16T08:32:26Z</time>
      </trkpt>
      <trkpt lat="44.06021" lon="6.93235">
        <ele>1841.6</ele>
        <time>2019-07-16T08:32:27Z</time>
      </trkpt>
      <trkpt lat="44.06019" lon="6.93231">
        <ele>1841.6</ele>
        <time>2019-07-16T08:32:28Z</time>
      </trkpt>
      <trkpt lat="44.06017" lon="6.93223">
        <ele>1841.5</ele>
        <time>2019-07-16T08:32:30Z</time>
      </trkpt>
      <trkpt lat="44.06016" lon="6.93219">
        <ele>1841.4</ele>
        <time>2019-07-16T08:32:31Z</time>
      </trkpt>
      <trkpt lat="44.06013" lon="6.93215">
        <ele>1841.3</ele>
        <time>2019-07-16T08:32:32Z</time>
      </trkpt>
      <trkpt lat="44.0601" lon="6.93212">
        <ele>1841.1</ele>
        <time>2019-07-16T08:32:33Z</time>
      </trkpt>
      <trkpt lat="44.06006" lon="6.9321">
        <ele>1841</ele>
        <time>2019-07-16T08:32:34Z</time>
      </trkpt>
      <trkpt lat="44.06002" lon="6.93209">
        <ele>1840.8</ele>
        <time>2019-07-16T08:32:35Z</time>
      </trkpt>
      <trkpt lat="44.05998" lon="6.93208">
        <ele>1840.6</ele>
        <time>2019-07-16T08:32:36Z</time>
      </trkpt>
      <trkpt lat="44.05994" lon="6.93208">
        <ele>1840.3</ele>
        <time>2019-07-16T08:32:37Z</time>
      </trkpt>
      <trkpt lat="44.05989" lon="6.93209">
        <ele>1840</ele>
        <time>2019-07-16T08:32:38Z</time>
      </trkpt>
      <trkpt lat="44.05985" lon="6.9321">
        <ele>1839.8</ele>
        <time>2019-07-16T08:32:39Z</time>
      </trkpt>
      <trkpt lat="44.05981" lon="6.93212">
        <ele>1839.6</ele>
        <time>2019-07-16T08:32:40Z</time>
      </trkpt>
      <trkpt lat="44.05978" lon="6.93215">
        <ele>1839.4</ele>
        <time>2019-07-16T08:32:41Z</time>
      </trkpt>
      <trkpt lat="44.05976" lon="6.9322">
        <ele>1839.2</ele>
        <time>2019-07-16T08:32:42Z</time>
      </trkpt>
      <trkpt lat="44.05974" lon="6.93227">
        <ele>1839</ele>
        <time>2019-07-16T08:32:43Z</time>
      </trkpt>
      <trkpt lat="44.05972" lon="6.93234">
        <ele>1838.7</ele>
        <time>2019-07-16T08:32:44Z</time>
      </trkpt>
      <trkpt lat="44.0597" lon="6.93241">
        <ele>1838.5</ele>
        <time>2019-07-16T08:32:45Z</time>
      </trkpt>
      <trkpt lat="44.05969" lon="6.93249">
        <ele>1838.2</ele>
        <time>2019-07-16T08:32:46Z</time>
      </trkpt>
      <trkpt lat="44.05968" lon="6.93257">
        <ele>1837.9</ele>
        <time>2019-07-16T08:32:47Z</time>
      </trkpt>
      <trkpt lat="44.05966" lon="6.93264">
        <ele>1837.7</ele>
        <time>2019-07-16T08:32:48Z</time>
      </trkpt>
      <trkpt lat="44.05964" lon="6.93269">
        <ele>1837.4</ele>
        <time>2019-07-16T08:32:49Z</time>
      </trkpt>
      <trkpt lat="44.05962" lon="6.93273">
        <ele>1837.3</ele>
        <time>2019-07-16T08:32:50Z</time>
      </trkpt>
      <trkpt lat="44.05958" lon="6.93277">
        <ele>1837.1</ele>
        <time>2019-07-16T08:32:51Z</time>
      </trkpt>
      <trkpt lat="44.05953" lon="6.93278">
        <ele>1836.9</ele>
        <time>2019-07-16T08:32:52Z</time>
      </trkpt>
      <trkpt lat="44.05948" lon="6.93276">
        <ele>1836.5</ele>
        <time>2019-07-16T08:32:53Z</time>
      </trkpt>
      <trkpt lat="44.05944" lon="6.93271">
        <ele>1836.1</ele>
        <time>2019-07-16T08:32:54Z</time>
      </trkpt>
      <trkpt lat="44.0594" lon="6.93266">
        <ele>1835.7</ele>
        <time>2019-07-16T08:32:55Z</time>
      </trkpt>
      <trkpt lat="44.05936" lon="6.93263">
        <ele>1835.3</ele>
        <time>2019-07-16T08:32:56Z</time>
      </trkpt>
      <trkpt lat="44.05931" lon="6.93258">
        <ele>1834.8</ele>
        <time>2019-07-16T08:32:57Z</time>
      </trkpt>
      <trkpt lat="44.05927" lon="6.93254">
        <ele>1834.3</ele>
        <time>2019-07-16T08:32:58Z</time>
      </trkpt>
      <trkpt lat="44.05922" lon="6.9325">
        <ele>1833.7</ele>
        <time>2019-07-16T08:32:59Z</time>
      </trkpt>
      <trkpt lat="44.05917" lon="6.93248">
        <ele>1833</ele>
        <time>2019-07-16T08:33:00Z</time>
      </trkpt>
      <trkpt lat="44.05913" lon="6.93247">
        <ele>1832.5</ele>
        <time>2019-07-16T08:33:01Z</time>
      </trkpt>
      <trkpt lat="44.05908" lon="6.93245">
        <ele>1831.7</ele>
        <time>2019-07-16T08:33:02Z</time>
      </trkpt>
      <trkpt lat="44.05902" lon="6.93243">
        <ele>1830.9</ele>
        <time>2019-07-16T08:33:03Z</time>
      </trkpt>
      <trkpt lat="44.05896" lon="6.9324">
        <ele>1830.1</ele>
        <time>2019-07-16T08:33:04Z</time>
      </trkpt>
      <trkpt lat="44.05889" lon="6.93238">
        <ele>1829.4</ele>
        <time>2019-07-16T08:33:05Z</time>
      </trkpt>
      <trkpt lat="44.05882" lon="6.93234">
        <ele>1828.7</ele>
        <time>2019-07-16T08:33:06Z</time>
      </trkpt>
      <trkpt lat="44.05875" lon="6.93229">
        <ele>1828.2</ele>
        <time>2019-07-16T08:33:07Z</time>
      </trkpt>
      <trkpt lat="44.05868" lon="6.93224">
        <ele>1827.6</ele>
        <time>2019-07-16T08:33:08Z</time>
      </trkpt>
      <trkpt lat="44.05862" lon="6.93219">
        <ele>1827.1</ele>
        <time>2019-07-16T08:33:09Z</time>
      </trkpt>
      <trkpt lat="44.05856" lon="6.93214">
        <ele>1826.5</ele>
        <time>2019-07-16T08:33:10Z</time>
      </trkpt>
      <trkpt lat="44.0585" lon="6.93209">
        <ele>1825.9</ele>
        <time>2019-07-16T08:33:11Z</time>
      </trkpt>
      <trkpt lat="44.05844" lon="6.93203">
        <ele>1825</ele>
        <time>2019-07-16T08:33:12Z</time>
      </trkpt>
      <trkpt lat="44.05837" lon="6.93196">
        <ele>1824</ele>
        <time>2019-07-16T08:33:13Z</time>
      </trkpt>
      <trkpt lat="44.05831" lon="6.93191">
        <ele>1822.8</ele>
        <time>2019-07-16T08:33:14Z</time>
      </trkpt>
      <trkpt lat="44.05826" lon="6.93185">
        <ele>1821.9</ele>
        <time>2019-07-16T08:33:15Z</time>
      </trkpt>
      <trkpt lat="44.05821" lon="6.93179">
        <ele>1820.9</ele>
        <time>2019-07-16T08:33:16Z</time>
      </trkpt>
      <trkpt lat="44.05815" lon="6.93174">
        <ele>1819.9</ele>
        <time>2019-07-16T08:33:17Z</time>
      </trkpt>
      <trkpt lat="44.05806" lon="6.9317">
        <ele>1818.9</ele>
        <time>2019-07-16T08:33:18Z</time>
      </trkpt>
      <trkpt lat="44.05798" lon="6.93167">
        <ele>1818</ele>
        <time>2019-07-16T08:33:19Z</time>
      </trkpt>
      <trkpt lat="44.05789" lon="6.93164">
        <ele>1817.4</ele>
        <time>2019-07-16T08:33:20Z</time>
      </trkpt>
      <trkpt lat="44.0578" lon="6.93161">
        <ele>1816.8</ele>
        <time>2019-07-16T08:33:21Z</time>
      </trkpt>
      <trkpt lat="44.05771" lon="6.93158">
        <ele>1816.2</ele>
        <time>2019-07-16T08:33:22Z</time>
      </trkpt>
      <trkpt lat="44.05762" lon="6.93154">
        <ele>1815.7</ele>
        <time>2019-07-16T08:33:23Z</time>
      </trkpt>
      <trkpt lat="44.05753" lon="6.93151">
        <ele>1815.1</ele>
        <time>2019-07-16T08:33:24Z</time>
      </trkpt>
      <trkpt lat="44.05745" lon="6.93147">
        <ele>1814.7</ele>
        <time>2019-07-16T08:33:25Z</time>
      </trkpt>
      <trkpt lat="44.05737" lon="6.93143">
        <ele>1814.2</ele>
        <time>2019-07-16T08:33:26Z</time>
      </trkpt>
      <trkpt lat="44.05731" lon="6.93138">
        <ele>1813.8</ele>
        <time>2019-07-16T08:33:27Z</time>
      </trkpt>
      <trkpt lat="44.05725" lon="6.93131">
        <ele>1813.5</ele>
        <time>2019-07-16T08:33:28Z</time>
      </trkpt>
      <trkpt lat="44.05719" lon="6.93124">
        <ele>1813.2</ele>
        <time>2019-07-16T08:33:29Z</time>
      </trkpt>
      <trkpt lat="44.05714" lon="6.93114">
        <ele>1812.9</ele>
        <time>2019-07-16T08:33:30Z</time>
      </trkpt>
      <trkpt lat="44.0571" lon="6.93104">
        <ele>1812.7</ele>
        <time>2019-07-16T08:33:31Z</time>
      </trkpt>
      <trkpt lat="44.05706" lon="6.93094">
        <ele>1812.4</ele>
        <time>2019-07-16T08:33:32Z</time>
      </trkpt>
      <trkpt lat="44.05703" lon="6.93083">
        <ele>1812.2</ele>
        <time>2019-07-16T08:33:33Z</time>
      </trkpt>
      <trkpt lat="44.05701" lon="6.93073">
        <ele>1811.9</ele>
        <time>2019-07-16T08:33:34Z</time>
      </trkpt>
      <trkpt lat="44.057" lon="6.93064">
        <ele>1811.6</ele>
        <time>2019-07-16T08:33:35Z</time>
      </trkpt>
      <trkpt lat="44.05699" lon="6.93058">
        <ele>1811.4</ele>
        <time>2019-07-16T08:33:36Z</time>
      </trkpt>
      <trkpt lat="44.05697" lon="6.93053">
        <ele>1811.1</ele>
        <time>2019-07-16T08:33:37Z</time>
      </trkpt>
      <trkpt lat="44.05694" lon="6.93051">
        <ele>1810.8</ele>
        <time>2019-07-16T08:33:38Z</time>
      </trkpt>
      <trkpt lat="44.0569" lon="6.93051">
        <ele>1810.3</ele>
        <time>2019-07-16T08:33:39Z</time>
      </trkpt>
      <trkpt lat="44.05686" lon="6.93051">
        <ele>1809.9</ele>
        <time>2019-07-16T08:33:40Z</time>
      </trkpt>
      <trkpt lat="44.05681" lon="6.93053">
        <ele>1809.5</ele>
        <time>2019-07-16T08:33:41Z</time>
      </trkpt>
      <trkpt lat="44.05677" lon="6.93056">
        <ele>1809</ele>
        <time>2019-07-16T08:33:42Z</time>
      </trkpt>
      <trkpt lat="44.05672" lon="6.93059">
        <ele>1808.6</ele>
        <time>2019-07-16T08:33:43Z</time>
      </trkpt>
      <trkpt lat="44.05666" lon="6.93062">
        <ele>1808.2</ele>
        <time>2019-07-16T08:33:44Z</time>
      </trkpt>
      <trkpt lat="44.05662" lon="6.93066">
        <ele>1807.9</ele>
        <time>2019-07-16T08:33:45Z</time>
      </trkpt>
      <trkpt lat="44.05658" lon="6.93069">
        <ele>1807.7</ele>
        <time>2019-07-16T08:33:46Z</time>
      </trkpt>
      <trkpt lat="44.05655" lon="6.93071">
        <ele>1807.5</ele>
        <time>2019-07-16T08:33:47Z</time>
      </trkpt>
      <trkpt lat="44.05652" lon="6.93074">
        <ele>1807.3</ele>
        <time>2019-07-16T08:33:48Z</time>
      </trkpt>
      <trkpt lat="44.05649" lon="6.93075">
        <ele>1807.1</ele>
        <time>2019-07-16T08:33:49Z</time>
      </trkpt>
      <trkpt lat="44.05645" lon="6.93077">
        <ele>1807.8</ele>
        <time>2019-07-16T08:33:51Z</time>
      </trkpt>
      <trkpt lat="44.05642" lon="6.93078">
        <ele>1807.9</ele>
        <time>2019-07-16T08:33:54Z</time>
      </trkpt>
      <trkpt lat="44.05639" lon="6.93075">
        <ele>1808</ele>
        <time>2019-07-16T08:33:58Z</time>
      </trkpt>
      <trkpt lat="44.05641" lon="6.93073">
        <ele>1808.1</ele>
        <time>2019-07-16T08:34:16Z</time>
      </trkpt>
      <trkpt lat="44.05639" lon="6.93076">
        <ele>1808.2</ele>
        <time>2019-07-16T08:35:48Z</time>
      </trkpt>
      <trkpt lat="44.0564" lon="6.9307">
        <ele>1808.4</ele>
        <time>2019-07-16T08:45:48Z</time>
      </trkpt>
      <trkpt lat="44.05637" lon="6.93067">
        <ele>1808.7</ele>
        <time>2019-07-16T08:45:51Z</time>
      </trkpt>
      <trkpt lat="44.05634" lon="6.93064">
        <ele>1808.9</ele>
        <time>2019-07-16T08:45:54Z</time>
      </trkpt>
      <trkpt lat="44.05631" lon="6.93063">
        <ele>1809.1</ele>
        <time>2019-07-16T08:45:56Z</time>
      </trkpt>
      <trkpt lat="44.05629" lon="6.93061">
        <ele>1809.3</ele>
        <time>2019-07-16T08:45:58Z</time>
      </trkpt>
      <trkpt lat="44.05625" lon="6.93057">
        <ele>1809.6</ele>
        <time>2019-07-16T08:46:01Z</time>
      </trkpt>
      <trkpt lat="44.05622" lon="6.93056">
        <ele>1809.9</ele>
        <time>2019-07-16T08:46:03Z</time>
      </trkpt>
      <trkpt lat="44.05619" lon="6.93053">
        <ele>1810.1</ele>
        <time>2019-07-16T08:46:05Z</time>
      </trkpt>
      <trkpt lat="44.05616" lon="6.93052">
        <ele>1810.3</ele>
        <time>2019-07-16T08:46:07Z</time>
      </trkpt>
      <trkpt lat="44.05614" lon="6.9305">
        <ele>1810.5</ele>
        <time>2019-07-16T08:46:09Z</time>
      </trkpt>
      <trkpt lat="44.05609" lon="6.93049">
        <ele>1810.8</ele>
        <time>2019-07-16T08:46:11Z</time>
      </trkpt>
      <trkpt lat="44.05606" lon="6.93049">
        <ele>1811</ele>
        <time>2019-07-16T08:46:12Z</time>
      </trkpt>
      <trkpt lat="44.05603" lon="6.93048">
        <ele>1811.2</ele>
        <time>2019-07-16T08:46:13Z</time>
      </trkpt>
      <trkpt lat="44.05599" lon="6.93048">
        <ele>1811.4</ele>
        <time>2019-07-16T08:46:14Z</time>
      </trkpt>
      <trkpt lat="44.05594" lon="6.93046">
        <ele>1811.8</ele>
        <time>2019-07-16T08:46:15Z</time>
      </trkpt>
      <trkpt lat="44.05588" lon="6.93045">
        <ele>1812.2</ele>
        <time>2019-07-16T08:46:16Z</time>
      </trkpt>
      <trkpt lat="44.05584" lon="6.93043">
        <ele>1812.5</ele>
        <time>2019-07-16T08:46:17Z</time>
      </trkpt>
      <trkpt lat="44.0558" lon="6.93043">
        <ele>1812.8</ele>
        <time>2019-07-16T08:46:18Z</time>
      </trkpt>
      <trkpt lat="44.05577" lon="6.93042">
        <ele>1813.1</ele>
        <time>2019-07-16T08:46:19Z</time>
      </trkpt>
      <trkpt lat="44.05574" lon="6.93041">
        <ele>1813.4</ele>
        <time>2019-07-16T08:46:21Z</time>
      </trkpt>
      <trkpt lat="44.05571" lon="6.9304">
        <ele>1813.6</ele>
        <time>2019-07-16T08:46:23Z</time>
      </trkpt>
      <trkpt lat="44.05567" lon="6.93039">
        <ele>1813.9</ele>
        <time>2019-07-16T08:46:25Z</time>
      </trkpt>
      <trkpt lat="44.05564" lon="6.93039">
        <ele>1814.3</ele>
        <time>2019-07-16T08:46:28Z</time>
      </trkpt>
      <trkpt lat="44.0556" lon="6.93038">
        <ele>1814.6</ele>
        <time>2019-07-16T08:46:30Z</time>
      </trkpt>
      <trkpt lat="44.05557" lon="6.93036">
        <ele>1814.8</ele>
        <time>2019-07-16T08:46:32Z</time>
      </trkpt>
      <trkpt lat="44.05553" lon="6.93035">
        <ele>1815.1</ele>
        <time>2019-07-16T08:46:35Z</time>
      </trkpt>
      <trkpt lat="44.0555" lon="6.93033">
        <ele>1815.4</ele>
        <time>2019-07-16T08:46:38Z</time>
      </trkpt>
      <trkpt lat="44.05547" lon="6.93032">
        <ele>1815.6</ele>
        <time>2019-07-16T08:46:40Z</time>
      </trkpt>
      <trkpt lat="44.05543" lon="6.93031">
        <ele>1815.8</ele>
        <time>2019-07-16T08:46:43Z</time>
      </trkpt>
      <trkpt lat="44.0554" lon="6.9303">
        <ele>1816</ele>
        <time>2019-07-16T08:46:45Z</time>
      </trkpt>
      <trkpt lat="44.05537" lon="6.93028">
        <ele>1816.1</ele>
        <time>2019-07-16T08:46:47Z</time>
      </trkpt>
      <trkpt lat="44.05535" lon="6.93027">
        <ele>1816.3</ele>
        <time>2019-07-16T08:46:49Z</time>
      </trkpt>
      <trkpt lat="44.05532" lon="6.93026">
        <ele>1816.5</ele>
        <time>2019-07-16T08:46:52Z</time>
      </trkpt>
      <trkpt lat="44.05529" lon="6.93024">
        <ele>1816.6</ele>
        <time>2019-07-16T08:46:54Z</time>
      </trkpt>
      <trkpt lat="44.05526" lon="6.93023">
        <ele>1816.7</ele>
        <time>2019-07-16T08:46:56Z</time>
      </trkpt>
      <trkpt lat="44.05522" lon="6.93023">
        <ele>1816.8</ele>
        <time>2019-07-16T08:46:59Z</time>
      </trkpt>
      <trkpt lat="44.05519" lon="6.93022">
        <ele>1816.9</ele>
        <time>2019-07-16T08:47:02Z</time>
      </trkpt>
      <trkpt lat="44.05517" lon="6.93019">
        <ele>1816.9</ele>
        <time>2019-07-16T08:47:06Z</time>
      </trkpt>
      <trkpt lat="44.05513" lon="6.93018">
        <ele>1816.9</ele>
        <time>2019-07-16T08:47:09Z</time>
      </trkpt>
      <trkpt lat="44.05511" lon="6.93013">
        <ele>1816.9</ele>
        <time>2019-07-16T08:47:15Z</time>
      </trkpt>
      <trkpt lat="44.0551" lon="6.9301">
        <ele>1816.9</ele>
        <time>2019-07-16T08:47:18Z</time>
      </trkpt>
      <trkpt lat="44.05507" lon="6.93008">
        <ele>1816.8</ele>
        <time>2019-07-16T08:47:21Z</time>
      </trkpt>
      <trkpt lat="44.05505" lon="6.93011">
        <ele>1816.8</ele>
        <time>2019-07-16T08:47:24Z</time>
      </trkpt>
      <trkpt lat="44.05505" lon="6.93015">
        <ele>1816.7</ele>
        <time>2019-07-16T08:47:27Z</time>
      </trkpt>
      <trkpt lat="44.05511" lon="6.93018">
        <ele>1816.5</ele>
        <time>2019-07-16T08:47:32Z</time>
      </trkpt>
      <trkpt lat="44.05513" lon="6.93013">
        <ele>1816.4</ele>
        <time>2019-07-16T08:47:36Z</time>
      </trkpt>
      <trkpt lat="44.05512" lon="6.93008">
        <ele>1816.3</ele>
        <time>2019-07-16T08:47:39Z</time>
      </trkpt>
      <trkpt lat="44.0551" lon="6.93006">
        <ele>1816.3</ele>
        <time>2019-07-16T08:47:44Z</time>
      </trkpt>
      <trkpt lat="44.05506" lon="6.93004">
        <ele>1816.2</ele>
        <time>2019-07-16T08:48:06Z</time>
      </trkpt>
      <trkpt lat="44.05501" lon="6.92999">
        <ele>1816.3</ele>
        <time>2019-07-16T08:48:08Z</time>
      </trkpt>
      <trkpt lat="44.05497" lon="6.92992">
        <ele>1816.5</ele>
        <time>2019-07-16T08:48:09Z</time>
      </trkpt>
      <trkpt lat="44.05492" lon="6.92984">
        <ele>1816.8</ele>
        <time>2019-07-16T08:48:10Z</time>
      </trkpt>
      <trkpt lat="44.05486" lon="6.92974">
        <ele>1817.4</ele>
        <time>2019-07-16T08:48:11Z</time>
      </trkpt>
      <trkpt lat="44.05479" lon="6.92966">
        <ele>1818</ele>
        <time>2019-07-16T08:48:12Z</time>
      </trkpt>
      <trkpt lat="44.05472" lon="6.92958">
        <ele>1818.7</ele>
        <time>2019-07-16T08:48:13Z</time>
      </trkpt>
      <trkpt lat="44.05466" lon="6.92952">
        <ele>1819.3</ele>
        <time>2019-07-16T08:48:14Z</time>
      </trkpt>
      <trkpt lat="44.05461" lon="6.92948">
        <ele>1819.8</ele>
        <time>2019-07-16T08:48:15Z</time>
      </trkpt>
      <trkpt lat="44.05457" lon="6.92947">
        <ele>1820.2</ele>
        <time>2019-07-16T08:48:16Z</time>
      </trkpt>
      <trkpt lat="44.05453" lon="6.92946">
        <ele>1820.4</ele>
        <time>2019-07-16T08:48:17Z</time>
      </trkpt>
      <trkpt lat="44.05449" lon="6.92944">
        <ele>1820.8</ele>
        <time>2019-07-16T08:48:19Z</time>
      </trkpt>
      <trkpt lat="44.05446" lon="6.92942">
        <ele>1821.1</ele>
        <time>2019-07-16T08:48:21Z</time>
      </trkpt>
      <trkpt lat="44.05444" lon="6.92939">
        <ele>1821.3</ele>
        <time>2019-07-16T08:48:23Z</time>
      </trkpt>
      <trkpt lat="44.05441" lon="6.92935">
        <ele>1821.6</ele>
        <time>2019-07-16T08:48:26Z</time>
      </trkpt>
      <trkpt lat="44.05439" lon="6.92931">
        <ele>1821.9</ele>
        <time>2019-07-16T08:48:29Z</time>
      </trkpt>
      <trkpt lat="44.05438" lon="6.92927">
        <ele>1821.9</ele>
        <time>2019-07-16T08:48:31Z</time>
      </trkpt>
      <trkpt lat="44.05436" lon="6.92923">
        <ele>1821.9</ele>
        <time>2019-07-16T08:48:33Z</time>
      </trkpt>
      <trkpt lat="44.05434" lon="6.92919">
        <ele>1821.9</ele>
        <time>2019-07-16T08:48:35Z</time>
      </trkpt>
      <trkpt lat="44.05432" lon="6.92913">
        <ele>1822</ele>
        <time>2019-07-16T08:48:37Z</time>
      </trkpt>
      <trkpt lat="44.0543" lon="6.92908">
        <ele>1822</ele>
        <time>2019-07-16T08:48:38Z</time>
      </trkpt>
      <trkpt lat="44.05427" lon="6.92903">
        <ele>1822.1</ele>
        <time>2019-07-16T08:48:39Z</time>
      </trkpt>
      <trkpt lat="44.05422" lon="6.92898">
        <ele>1822.2</ele>
        <time>2019-07-16T08:48:40Z</time>
      </trkpt>
      <trkpt lat="44.05417" lon="6.9289">
        <ele>1822.5</ele>
        <time>2019-07-16T08:48:41Z</time>
      </trkpt>
      <trkpt lat="44.05412" lon="6.92883">
        <ele>1822.9</ele>
        <time>2019-07-16T08:48:42Z</time>
      </trkpt>
      <trkpt lat="44.05408" lon="6.92878">
        <ele>1823.4</ele>
        <time>2019-07-16T08:48:43Z</time>
      </trkpt>
      <trkpt lat="44.05404" lon="6.92873">
        <ele>1823.9</ele>
        <time>2019-07-16T08:48:44Z</time>
      </trkpt>
      <trkpt lat="44.05401" lon="6.9287">
        <ele>1824.4</ele>
        <time>2019-07-16T08:48:45Z</time>
      </trkpt>
      <trkpt lat="44.05397" lon="6.92866">
        <ele>1824.9</ele>
        <time>2019-07-16T08:48:47Z</time>
      </trkpt>
      <trkpt lat="44.05395" lon="6.92864">
        <ele>1825.4</ele>
        <time>2019-07-16T08:48:49Z</time>
      </trkpt>
      <trkpt lat="44.05392" lon="6.92863">
        <ele>1825.8</ele>
        <time>2019-07-16T08:48:51Z</time>
      </trkpt>
      <trkpt lat="44.05389" lon="6.9286">
        <ele>1826.3</ele>
        <time>2019-07-16T08:48:53Z</time>
      </trkpt>
      <trkpt lat="44.05385" lon="6.92858">
        <ele>1826.9</ele>
        <time>2019-07-16T08:48:56Z</time>
      </trkpt>
      <trkpt lat="44.05382" lon="6.92856">
        <ele>1827.5</ele>
        <time>2019-07-16T08:48:59Z</time>
      </trkpt>
      <trkpt lat="44.05379" lon="6.92853">
        <ele>1828</ele>
        <time>2019-07-16T08:49:02Z</time>
      </trkpt>
      <trkpt lat="44.05376" lon="6.92851">
        <ele>1828.5</ele>
        <time>2019-07-16T08:49:04Z</time>
      </trkpt>
      <trkpt lat="44.05374" lon="6.92848">
        <ele>1828.9</ele>
        <time>2019-07-16T08:49:06Z</time>
      </trkpt>
      <trkpt lat="44.05371" lon="6.92847">
        <ele>1829.5</ele>
        <time>2019-07-16T08:49:09Z</time>
      </trkpt>
      <trkpt lat="44.05368" lon="6.92845">
        <ele>1830</ele>
        <time>2019-07-16T08:49:12Z</time>
      </trkpt>
      <trkpt lat="44.05365" lon="6.92842">
        <ele>1830.6</ele>
        <time>2019-07-16T08:49:15Z</time>
      </trkpt>
      <trkpt lat="44.05361" lon="6.9284">
        <ele>1831.3</ele>
        <time>2019-07-16T08:49:18Z</time>
      </trkpt>
      <trkpt lat="44.05358" lon="6.92838">
        <ele>1831.8</ele>
        <time>2019-07-16T08:49:21Z</time>
      </trkpt>
      <trkpt lat="44.05355" lon="6.92836">
        <ele>1832.4</ele>
        <time>2019-07-16T08:49:24Z</time>
      </trkpt>
      <trkpt lat="44.05351" lon="6.92835">
        <ele>1833.1</ele>
        <time>2019-07-16T08:49:27Z</time>
      </trkpt>
      <trkpt lat="44.05348" lon="6.92832">
        <ele>1833.8</ele>
        <time>2019-07-16T08:49:30Z</time>
      </trkpt>
      <trkpt lat="44.05346" lon="6.9283">
        <ele>1834.3</ele>
        <time>2019-07-16T08:49:33Z</time>
      </trkpt>
      <trkpt lat="44.05342" lon="6.92827">
        <ele>1835</ele>
        <time>2019-07-16T08:49:36Z</time>
      </trkpt>
      <trkpt lat="44.0534" lon="6.92824">
        <ele>1835.6</ele>
        <time>2019-07-16T08:49:39Z</time>
      </trkpt>
      <trkpt lat="44.05337" lon="6.92821">
        <ele>1836.3</ele>
        <time>2019-07-16T08:49:42Z</time>
      </trkpt>
      <trkpt lat="44.05335" lon="6.92819">
        <ele>1836.9</ele>
        <time>2019-07-16T08:49:44Z</time>
      </trkpt>
      <trkpt lat="44.05332" lon="6.92817">
        <ele>1837.6</ele>
        <time>2019-07-16T08:49:47Z</time>
      </trkpt>
      <trkpt lat="44.05329" lon="6.92815">
        <ele>1838.2</ele>
        <time>2019-07-16T08:49:50Z</time>
      </trkpt>
      <trkpt lat="44.05326" lon="6.92813">
        <ele>1838.8</ele>
        <time>2019-07-16T08:49:53Z</time>
      </trkpt>
      <trkpt lat="44.05323" lon="6.9281">
        <ele>1839.5</ele>
        <time>2019-07-16T08:49:57Z</time>
      </trkpt>
      <trkpt lat="44.05319" lon="6.92806">
        <ele>1840.5</ele>
        <time>2019-07-16T08:50:02Z</time>
      </trkpt>
      <trkpt lat="44.05317" lon="6.92803">
        <ele>1841.2</ele>
        <time>2019-07-16T08:50:05Z</time>
      </trkpt>
      <trkpt lat="44.05313" lon="6.92799">
        <ele>1842.4</ele>
        <time>2019-07-16T08:50:10Z</time>
      </trkpt>
      <trkpt lat="44.05311" lon="6.92796">
        <ele>1843.1</ele>
        <time>2019-07-16T08:50:13Z</time>
      </trkpt>
      <trkpt lat="44.05308" lon="6.92793">
        <ele>1843.8</ele>
        <time>2019-07-16T08:50:16Z</time>
      </trkpt>
      <trkpt lat="44.05305" lon="6.9279">
        <ele>1844.5</ele>
        <time>2019-07-16T08:50:19Z</time>
      </trkpt>
      <trkpt lat="44.05303" lon="6.92787">
        <ele>1845.2</ele>
        <time>2019-07-16T08:50:22Z</time>
      </trkpt>
      <trkpt lat="44.05302" lon="6.92782">
        <ele>1845.9</ele>
        <time>2019-07-16T08:50:25Z</time>
      </trkpt>
      <trkpt lat="44.05299" lon="6.92779">
        <ele>1846.5</ele>
        <time>2019-07-16T08:50:28Z</time>
      </trkpt>
      <trkpt lat="44.05296" lon="6.92778">
        <ele>1847</ele>
        <time>2019-07-16T08:50:31Z</time>
      </trkpt>
      <trkpt lat="44.05294" lon="6.92775">
        <ele>1847.5</ele>
        <time>2019-07-16T08:50:34Z</time>
      </trkpt>
      <trkpt lat="44.05293" lon="6.92771">
        <ele>1848</ele>
        <time>2019-07-16T08:50:37Z</time>
      </trkpt>
      <trkpt lat="44.05292" lon="6.92766">
        <ele>1848.6</ele>
        <time>2019-07-16T08:50:40Z</time>
      </trkpt>
      <trkpt lat="44.05295" lon="6.9277">
        <ele>1849.3</ele>
        <time>2019-07-16T08:51:06Z</time>
      </trkpt>
      <trkpt lat="44.05295" lon="6.92766">
        <ele>1849.9</ele>
        <time>2019-07-16T08:51:47Z</time>
      </trkpt>
      <trkpt lat="44.05294" lon="6.92763">
        <ele>1850.4</ele>
        <time>2019-07-16T08:51:57Z</time>
      </trkpt>
      <trkpt lat="44.05294" lon="6.92767">
        <ele>1850.9</ele>
        <time>2019-07-16T08:52:30Z</time>
      </trkpt>
      <trkpt lat="44.05295" lon="6.92774">
        <ele>1851.7</ele>
        <time>2019-07-16T08:53:21Z</time>
      </trkpt>
      <trkpt lat="44.05297" lon="6.92781">
        <ele>1852.4</ele>
        <time>2019-07-16T08:53:23Z</time>
      </trkpt>
      <trkpt lat="44.053" lon="6.92786">
        <ele>1853</ele>
        <time>2019-07-16T08:53:25Z</time>
      </trkpt>
      <trkpt lat="44.05303" lon="6.92789">
        <ele>1852</ele>
        <time>2019-07-16T08:53:27Z</time>
      </trkpt>
      <trkpt lat="44.05304" lon="6.92796">
        <ele>1850.7</ele>
        <time>2019-07-16T08:53:30Z</time>
      </trkpt>
      <trkpt lat="44.05305" lon="6.92803">
        <ele>1849.6</ele>
        <time>2019-07-16T08:53:32Z</time>
      </trkpt>
      <trkpt lat="44.05306" lon="6.92808">
        <ele>1848.5</ele>
        <time>2019-07-16T08:53:33Z</time>
      </trkpt>
      <trkpt lat="44.05306" lon="6.92813">
        <ele>1846.9</ele>
        <time>2019-07-16T08:53:34Z</time>
      </trkpt>
      <trkpt lat="44.05307" lon="6.92818">
        <ele>1845.7</ele>
        <time>2019-07-16T08:53:35Z</time>
      </trkpt>
      <trkpt lat="44.05308" lon="6.92822">
        <ele>1844.5</ele>
        <time>2019-07-16T08:53:36Z</time>
      </trkpt>
      <trkpt lat="44.05308" lon="6.92826">
        <ele>1843.3</ele>
        <time>2019-07-16T08:53:37Z</time>
      </trkpt>
      <trkpt lat="44.05308" lon="6.92831">
        <ele>1842</ele>
        <time>2019-07-16T08:53:38Z</time>
      </trkpt>
      <trkpt lat="44.05308" lon="6.92836">
        <ele>1840.8</ele>
        <time>2019-07-16T08:53:39Z</time>
      </trkpt>
      <trkpt lat="44.05308" lon="6.92841">
        <ele>1839.5</ele>
        <time>2019-07-16T08:53:40Z</time>
      </trkpt>
      <trkpt lat="44.05308" lon="6.92845">
        <ele>1838.3</ele>
        <time>2019-07-16T08:53:41Z</time>
      </trkpt>
      <trkpt lat="44.05307" lon="6.92849">
        <ele>1837</ele>
        <time>2019-07-16T08:53:42Z</time>
      </trkpt>
      <trkpt lat="44.05306" lon="6.92853">
        <ele>1835.7</ele>
        <time>2019-07-16T08:53:43Z</time>
      </trkpt>
      <trkpt lat="44.05305" lon="6.92857">
        <ele>1834.4</ele>
        <time>2019-07-16T08:53:44Z</time>
      </trkpt>
      <trkpt lat="44.05304" lon="6.92862">
        <ele>1833</ele>
        <time>2019-07-16T08:53:45Z</time>
      </trkpt>
      <trkpt lat="44.05302" lon="6.92867">
        <ele>1831.5</ele>
        <time>2019-07-16T08:53:47Z</time>
      </trkpt>
      <trkpt lat="44.05298" lon="6.92869">
        <ele>1830.1</ele>
        <time>2019-07-16T08:53:49Z</time>
      </trkpt>
      <trkpt lat="44.05295" lon="6.92873">
        <ele>1828.6</ele>
        <time>2019-07-16T08:53:51Z</time>
      </trkpt>
      <trkpt lat="44.05293" lon="6.92877">
        <ele>1827</ele>
        <time>2019-07-16T08:53:53Z</time>
      </trkpt>
      <trkpt lat="44.05289" lon="6.9288">
        <ele>1826</ele>
        <time>2019-07-16T08:53:55Z</time>
      </trkpt>
      <trkpt lat="44.05286" lon="6.92882">
        <ele>1824.3</ele>
        <time>2019-07-16T08:53:57Z</time>
      </trkpt>
      <trkpt lat="44.05282" lon="6.92887">
        <ele>1822.6</ele>
        <time>2019-07-16T08:53:59Z</time>
      </trkpt>
      <trkpt lat="44.05277" lon="6.9289">
        <ele>1820.7</ele>
        <time>2019-07-16T08:54:01Z</time>
      </trkpt>
      <trkpt lat="44.05272" lon="6.92892">
        <ele>1819.7</ele>
        <time>2019-07-16T08:54:03Z</time>
      </trkpt>
      <trkpt lat="44.05268" lon="6.92893">
        <ele>1818.7</ele>
        <time>2019-07-16T08:54:05Z</time>
      </trkpt>
      <trkpt lat="44.05265" lon="6.92893">
        <ele>1817.7</ele>
        <time>2019-07-16T08:54:07Z</time>
      </trkpt>
      <trkpt lat="44.05262" lon="6.92892">
        <ele>1816.4</ele>
        <time>2019-07-16T08:54:09Z</time>
      </trkpt>
      <trkpt lat="44.05257" lon="6.92893">
        <ele>1815.4</ele>
        <time>2019-07-16T08:54:11Z</time>
      </trkpt>
      <trkpt lat="44.05254" lon="6.92893">
        <ele>1814.4</ele>
        <time>2019-07-16T08:54:12Z</time>
      </trkpt>
      <trkpt lat="44.05251" lon="6.92894">
        <ele>1813.5</ele>
        <time>2019-07-16T08:54:13Z</time>
      </trkpt>
      <trkpt lat="44.05247" lon="6.92895">
        <ele>1813.6</ele>
        <time>2019-07-16T08:54:15Z</time>
      </trkpt>
      <trkpt lat="44.05243" lon="6.92894">
        <ele>1813.8</ele>
        <time>2019-07-16T08:54:17Z</time>
      </trkpt>
      <trkpt lat="44.0524" lon="6.92895">
        <ele>1814</ele>
        <time>2019-07-16T08:54:20Z</time>
      </trkpt>
      <trkpt lat="44.05236" lon="6.92896">
        <ele>1814.2</ele>
        <time>2019-07-16T08:54:23Z</time>
      </trkpt>
      <trkpt lat="44.05234" lon="6.92897">
        <ele>1814.5</ele>
        <time>2019-07-16T08:54:25Z</time>
      </trkpt>
      <trkpt lat="44.05231" lon="6.92897">
        <ele>1814.7</ele>
        <time>2019-07-16T08:55:11Z</time>
      </trkpt>
      <trkpt lat="44.05227" lon="6.92899">
        <ele>1815.1</ele>
        <time>2019-07-16T08:55:14Z</time>
      </trkpt>
      <trkpt lat="44.05224" lon="6.929">
        <ele>1815.5</ele>
        <time>2019-07-16T08:55:16Z</time>
      </trkpt>
      <trkpt lat="44.05221" lon="6.92901">
        <ele>1815.9</ele>
        <time>2019-07-16T08:55:18Z</time>
      </trkpt>
      <trkpt lat="44.05219" lon="6.92903">
        <ele>1816.4</ele>
        <time>2019-07-16T08:55:20Z</time>
      </trkpt>
      <trkpt lat="44.05215" lon="6.92904">
        <ele>1816.8</ele>
        <time>2019-07-16T08:55:22Z</time>
      </trkpt>
      <trkpt lat="44.05213" lon="6.92905">
        <ele>1817.3</ele>
        <time>2019-07-16T08:55:24Z</time>
      </trkpt>
      <trkpt lat="44.0521" lon="6.92908">
        <ele>1817.8</ele>
        <time>2019-07-16T08:55:26Z</time>
      </trkpt>
      <trkpt lat="44.05207" lon="6.92908">
        <ele>1818.3</ele>
        <time>2019-07-16T08:55:28Z</time>
      </trkpt>
      <trkpt lat="44.05205" lon="6.9291">
        <ele>1818.8</ele>
        <time>2019-07-16T08:55:30Z</time>
      </trkpt>
      <trkpt lat="44.05202" lon="6.92911">
        <ele>1819.3</ele>
        <time>2019-07-16T08:55:32Z</time>
      </trkpt>
      <trkpt lat="44.05198" lon="6.92912">
        <ele>1820</ele>
        <time>2019-07-16T08:55:35Z</time>
      </trkpt>
      <trkpt lat="44.05195" lon="6.92913">
        <ele>1820.4</ele>
        <time>2019-07-16T08:55:37Z</time>
      </trkpt>
      <trkpt lat="44.05192" lon="6.92914">
        <ele>1820.8</ele>
        <time>2019-07-16T08:55:39Z</time>
      </trkpt>
      <trkpt lat="44.05189" lon="6.92917">
        <ele>1821.3</ele>
        <time>2019-07-16T08:55:42Z</time>
      </trkpt>
      <trkpt lat="44.05186" lon="6.9292">
        <ele>1821.8</ele>
        <time>2019-07-16T08:55:45Z</time>
      </trkpt>
      <trkpt lat="44.05184" lon="6.92924">
        <ele>1822.4</ele>
        <time>2019-07-16T08:55:48Z</time>
      </trkpt>
      <trkpt lat="44.05181" lon="6.92927">
        <ele>1822.7</ele>
        <time>2019-07-16T08:55:50Z</time>
      </trkpt>
      <trkpt lat="44.05179" lon="6.92929">
        <ele>1823.1</ele>
        <time>2019-07-16T08:55:52Z</time>
      </trkpt>
      <trkpt lat="44.05177" lon="6.92932">
        <ele>1823.5</ele>
        <time>2019-07-16T08:55:54Z</time>
      </trkpt>
      <trkpt lat="44.05175" lon="6.92936">
        <ele>1823.9</ele>
        <time>2019-07-16T08:55:56Z</time>
      </trkpt>
      <trkpt lat="44.05172" lon="6.92939">
        <ele>1824.3</ele>
        <time>2019-07-16T08:55:58Z</time>
      </trkpt>
      <trkpt lat="44.0517" lon="6.92943">
        <ele>1824.8</ele>
        <time>2019-07-16T08:56:01Z</time>
      </trkpt>
      <trkpt lat="44.05166" lon="6.92946">
        <ele>1825.4</ele>
        <time>2019-07-16T08:56:04Z</time>
      </trkpt>
      <trkpt lat="44.05163" lon="6.92947">
        <ele>1825.9</ele>
        <time>2019-07-16T08:56:06Z</time>
      </trkpt>
      <trkpt lat="44.05161" lon="6.92949">
        <ele>1826.3</ele>
        <time>2019-07-16T08:56:08Z</time>
      </trkpt>
      <trkpt lat="44.05158" lon="6.92951">
        <ele>1826.8</ele>
        <time>2019-07-16T08:56:10Z</time>
      </trkpt>
      <trkpt lat="44.05156" lon="6.92952">
        <ele>1827.3</ele>
        <time>2019-07-16T08:56:12Z</time>
      </trkpt>
      <trkpt lat="44.05153" lon="6.92954">
        <ele>1827.7</ele>
        <time>2019-07-16T08:56:14Z</time>
      </trkpt>
      <trkpt lat="44.0515" lon="6.92956">
        <ele>1828.2</ele>
        <time>2019-07-16T08:56:16Z</time>
      </trkpt>
      <trkpt lat="44.05148" lon="6.92959">
        <ele>1828.9</ele>
        <time>2019-07-16T08:56:19Z</time>
      </trkpt>
      <trkpt lat="44.05145" lon="6.92962">
        <ele>1829.5</ele>
        <time>2019-07-16T08:56:22Z</time>
      </trkpt>
      <trkpt lat="44.05143" lon="6.92965">
        <ele>1830</ele>
        <time>2019-07-16T08:56:24Z</time>
      </trkpt>
      <trkpt lat="44.05141" lon="6.92969">
        <ele>1830.6</ele>
        <time>2019-07-16T08:56:27Z</time>
      </trkpt>
      <trkpt lat="44.05139" lon="6.92972">
        <ele>1831.1</ele>
        <time>2019-07-16T08:56:29Z</time>
      </trkpt>
      <trkpt lat="44.05135" lon="6.92975">
        <ele>1831.8</ele>
        <time>2019-07-16T08:56:32Z</time>
      </trkpt>
      <trkpt lat="44.05133" lon="6.92977">
        <ele>1832.3</ele>
        <time>2019-07-16T08:56:34Z</time>
      </trkpt>
      <trkpt lat="44.0513" lon="6.92979">
        <ele>1832.8</ele>
        <time>2019-07-16T08:56:36Z</time>
      </trkpt>
      <trkpt lat="44.05128" lon="6.92983">
        <ele>1833.3</ele>
        <time>2019-07-16T08:56:38Z</time>
      </trkpt>
      <trkpt lat="44.05125" lon="6.92984">
        <ele>1833.8</ele>
        <time>2019-07-16T08:56:40Z</time>
      </trkpt>
      <trkpt lat="44.05123" lon="6.92986">
        <ele>1834.3</ele>
        <time>2019-07-16T08:56:43Z</time>
      </trkpt>
      <trkpt lat="44.0512" lon="6.92986">
        <ele>1834.8</ele>
        <time>2019-07-16T08:56:45Z</time>
      </trkpt>
      <trkpt lat="44.05116" lon="6.92988">
        <ele>1835.3</ele>
        <time>2019-07-16T08:56:48Z</time>
      </trkpt>
      <trkpt lat="44.05113" lon="6.92988">
        <ele>1835.9</ele>
        <time>2019-07-16T08:56:51Z</time>
      </trkpt>
      <trkpt lat="44.05109" lon="6.92989">
        <ele>1836.4</ele>
        <time>2019-07-16T08:56:54Z</time>
      </trkpt>
      <trkpt lat="44.05106" lon="6.92989">
        <ele>1836.8</ele>
        <time>2019-07-16T08:56:57Z</time>
      </trkpt>
      <trkpt lat="44.05102" lon="6.92989">
        <ele>1837.3</ele>
        <time>2019-07-16T08:57:00Z</time>
      </trkpt>
      <trkpt lat="44.051" lon="6.92988">
        <ele>1837.6</ele>
        <time>2019-07-16T08:57:02Z</time>
      </trkpt>
      <trkpt lat="44.05096" lon="6.92987">
        <ele>1838</ele>
        <time>2019-07-16T08:57:05Z</time>
      </trkpt>
      <trkpt lat="44.05093" lon="6.92985">
        <ele>1838.4</ele>
        <time>2019-07-16T08:57:08Z</time>
      </trkpt>
      <trkpt lat="44.0509" lon="6.92984">
        <ele>1838.7</ele>
        <time>2019-07-16T08:57:10Z</time>
      </trkpt>
      <trkpt lat="44.05087" lon="6.92983">
        <ele>1839.1</ele>
        <time>2019-07-16T08:57:13Z</time>
      </trkpt>
      <trkpt lat="44.05084" lon="6.92981">
        <ele>1839.5</ele>
        <time>2019-07-16T08:57:15Z</time>
      </trkpt>
      <trkpt lat="44.0508" lon="6.9298">
        <ele>1839.9</ele>
        <time>2019-07-16T08:57:18Z</time>
      </trkpt>
      <trkpt lat="44.05078" lon="6.92979">
        <ele>1840.2</ele>
        <time>2019-07-16T08:57:20Z</time>
      </trkpt>
      <trkpt lat="44.05075" lon="6.92977">
        <ele>1840.5</ele>
        <time>2019-07-16T08:57:22Z</time>
      </trkpt>
      <trkpt lat="44.05072" lon="6.92974">
        <ele>1841</ele>
        <time>2019-07-16T08:57:25Z</time>
      </trkpt>
      <trkpt lat="44.05068" lon="6.92973">
        <ele>1841.4</ele>
        <time>2019-07-16T08:57:28Z</time>
      </trkpt>
      <trkpt lat="44.05065" lon="6.92971">
        <ele>1841.8</ele>
        <time>2019-07-16T08:57:30Z</time>
      </trkpt>
      <trkpt lat="44.05062" lon="6.9297">
        <ele>1842.2</ele>
        <time>2019-07-16T08:57:33Z</time>
      </trkpt>
      <trkpt lat="44.05059" lon="6.92968">
        <ele>1842.6</ele>
        <time>2019-07-16T08:57:36Z</time>
      </trkpt>
      <trkpt lat="44.05054" lon="6.92966">
        <ele>1843.2</ele>
        <time>2019-07-16T08:57:41Z</time>
      </trkpt>
      <trkpt lat="44.05051" lon="6.92964">
        <ele>1843.6</ele>
        <time>2019-07-16T08:57:44Z</time>
      </trkpt>
      <trkpt lat="44.05047" lon="6.92962">
        <ele>1844.1</ele>
        <time>2019-07-16T08:57:47Z</time>
      </trkpt>
      <trkpt lat="44.05044" lon="6.9296">
        <ele>1844.5</ele>
        <time>2019-07-16T08:57:49Z</time>
      </trkpt>
      <trkpt lat="44.05042" lon="6.92958">
        <ele>1844.9</ele>
        <time>2019-07-16T08:57:51Z</time>
      </trkpt>
      <trkpt lat="44.05038" lon="6.92957">
        <ele>1845.4</ele>
        <time>2019-07-16T08:57:54Z</time>
      </trkpt>
      <trkpt lat="44.05034" lon="6.92956">
        <ele>1845.8</ele>
        <time>2019-07-16T08:57:56Z</time>
      </trkpt>
      <trkpt lat="44.05031" lon="6.92955">
        <ele>1846.1</ele>
        <time>2019-07-16T08:57:58Z</time>
      </trkpt>
      <trkpt lat="44.05029" lon="6.92955">
        <ele>1846.4</ele>
        <time>2019-07-16T08:58:00Z</time>
      </trkpt>
      <trkpt lat="44.05024" lon="6.92954">
        <ele>1846.9</ele>
        <time>2019-07-16T08:58:03Z</time>
      </trkpt>
      <trkpt lat="44.05022" lon="6.92955">
        <ele>1847.3</ele>
        <time>2019-07-16T08:58:05Z</time>
      </trkpt>
      <trkpt lat="44.05017" lon="6.92955">
        <ele>1847.8</ele>
        <time>2019-07-16T08:58:08Z</time>
      </trkpt>
      <trkpt lat="44.05014" lon="6.92957">
        <ele>1848.3</ele>
        <time>2019-07-16T08:58:11Z</time>
      </trkpt>
      <trkpt lat="44.05011" lon="6.92957">
        <ele>1848.7</ele>
        <time>2019-07-16T08:58:13Z</time>
      </trkpt>
      <trkpt lat="44.05007" lon="6.92958">
        <ele>1849.1</ele>
        <time>2019-07-16T08:58:15Z</time>
      </trkpt>
      <trkpt lat="44.05005" lon="6.92958">
        <ele>1849.5</ele>
        <time>2019-07-16T08:58:17Z</time>
      </trkpt>
      <trkpt lat="44.05001" lon="6.92961">
        <ele>1850.1</ele>
        <time>2019-07-16T08:58:20Z</time>
      </trkpt>
      <trkpt lat="44.04997" lon="6.92963">
        <ele>1850.6</ele>
        <time>2019-07-16T08:58:22Z</time>
      </trkpt>
      <trkpt lat="44.04994" lon="6.92965">
        <ele>1851</ele>
        <time>2019-07-16T08:58:24Z</time>
      </trkpt>
      <trkpt lat="44.04992" lon="6.92967">
        <ele>1851.4</ele>
        <time>2019-07-16T08:58:26Z</time>
      </trkpt>
      <trkpt lat="44.04989" lon="6.9297">
        <ele>1851.8</ele>
        <time>2019-07-16T08:58:29Z</time>
      </trkpt>
      <trkpt lat="44.04986" lon="6.92971">
        <ele>1852.2</ele>
        <time>2019-07-16T08:58:31Z</time>
      </trkpt>
      <trkpt lat="44.04982" lon="6.92971">
        <ele>1852.8</ele>
        <time>2019-07-16T08:58:34Z</time>
      </trkpt>
      <trkpt lat="44.04978" lon="6.92972">
        <ele>1853.3</ele>
        <time>2019-07-16T08:58:37Z</time>
      </trkpt>
      <trkpt lat="44.04975" lon="6.92973">
        <ele>1853.7</ele>
        <time>2019-07-16T08:58:39Z</time>
      </trkpt>
      <trkpt lat="44.04972" lon="6.92972">
        <ele>1854.1</ele>
        <time>2019-07-16T08:58:41Z</time>
      </trkpt>
      <trkpt lat="44.0497" lon="6.92971">
        <ele>1854.5</ele>
        <time>2019-07-16T08:58:43Z</time>
      </trkpt>
      <trkpt lat="44.04967" lon="6.9297">
        <ele>1855</ele>
        <time>2019-07-16T08:58:45Z</time>
      </trkpt>
      <trkpt lat="44.04964" lon="6.92969">
        <ele>1855.4</ele>
        <time>2019-07-16T08:58:47Z</time>
      </trkpt>
      <trkpt lat="44.04961" lon="6.92968">
        <ele>1855.9</ele>
        <time>2019-07-16T08:58:49Z</time>
      </trkpt>
      <trkpt lat="44.04958" lon="6.92967">
        <ele>1856.3</ele>
        <time>2019-07-16T08:58:51Z</time>
      </trkpt>
      <trkpt lat="44.04955" lon="6.92966">
        <ele>1856.7</ele>
        <time>2019-07-16T08:58:53Z</time>
      </trkpt>
      <trkpt lat="44.04952" lon="6.92965">
        <ele>1857</ele>
        <time>2019-07-16T08:58:55Z</time>
      </trkpt>
      <trkpt lat="44.04949" lon="6.92965">
        <ele>1857.4</ele>
        <time>2019-07-16T08:58:58Z</time>
      </trkpt>
      <trkpt lat="44.04945" lon="6.92965">
        <ele>1857.7</ele>
        <time>2019-07-16T08:59:01Z</time>
      </trkpt>
      <trkpt lat="44.04942" lon="6.92964">
        <ele>1857.9</ele>
        <time>2019-07-16T08:59:03Z</time>
      </trkpt>
      <trkpt lat="44.04939" lon="6.92964">
        <ele>1858</ele>
        <time>2019-07-16T08:59:05Z</time>
      </trkpt>
      <trkpt lat="44.04935" lon="6.92963">
        <ele>1858.1</ele>
        <time>2019-07-16T08:59:08Z</time>
      </trkpt>
      <trkpt lat="44.04933" lon="6.92961">
        <ele>1858.1</ele>
        <time>2019-07-16T08:59:10Z</time>
      </trkpt>
      <trkpt lat="44.0493" lon="6.92957">
        <ele>1858.1</ele>
        <time>2019-07-16T08:59:13Z</time>
      </trkpt>
      <trkpt lat="44.04933" lon="6.92958">
        <ele>1857.9</ele>
        <time>2019-07-16T09:01:12Z</time>
      </trkpt>
      <trkpt lat="44.04935" lon="6.92961">
        <ele>1857.8</ele>
        <time>2019-07-16T09:01:34Z</time>
      </trkpt>
      <trkpt lat="44.04936" lon="6.92965">
        <ele>1857.6</ele>
        <time>2019-07-16T09:02:06Z</time>
      </trkpt>
      <trkpt lat="44.04934" lon="6.92962">
        <ele>1857.4</ele>
        <time>2019-07-16T09:02:38Z</time>
      </trkpt>
      <trkpt lat="44.04931" lon="6.9296">
        <ele>1857.2</ele>
        <time>2019-07-16T09:02:42Z</time>
      </trkpt>
      <trkpt lat="44.04929" lon="6.92958">
        <ele>1857</ele>
        <time>2019-07-16T09:02:47Z</time>
      </trkpt>
      <trkpt lat="44.04927" lon="6.92954">
        <ele>1856.6</ele>
        <time>2019-07-16T09:09:54Z</time>
      </trkpt>
      <trkpt lat="44.04925" lon="6.92949">
        <ele>1856.3</ele>
        <time>2019-07-16T09:09:56Z</time>
      </trkpt>
      <trkpt lat="44.04924" lon="6.92945">
        <ele>1856</ele>
        <time>2019-07-16T09:09:57Z</time>
      </trkpt>
      <trkpt lat="44.04924" lon="6.92941">
        <ele>1855.6</ele>
        <time>2019-07-16T09:09:58Z</time>
      </trkpt>
      <trkpt lat="44.04924" lon="6.92932">
        <ele>1855</ele>
        <time>2019-07-16T09:10:00Z</time>
      </trkpt>
      <trkpt lat="44.04925" lon="6.92928">
        <ele>1854.6</ele>
        <time>2019-07-16T09:10:01Z</time>
      </trkpt>
      <trkpt lat="44.04926" lon="6.92922">
        <ele>1854</ele>
        <time>2019-07-16T09:10:03Z</time>
      </trkpt>
      <trkpt lat="44.04927" lon="6.92917">
        <ele>1853.6</ele>
        <time>2019-07-16T09:10:05Z</time>
      </trkpt>
      <trkpt lat="44.04929" lon="6.92912">
        <ele>1853</ele>
        <time>2019-07-16T09:10:08Z</time>
      </trkpt>
      <trkpt lat="44.0493" lon="6.92909">
        <ele>1852.7</ele>
        <time>2019-07-16T09:10:09Z</time>
      </trkpt>
      <trkpt lat="44.0493" lon="6.92903">
        <ele>1852.2</ele>
        <time>2019-07-16T09:10:10Z</time>
      </trkpt>
      <trkpt lat="44.0493" lon="6.92897">
        <ele>1851.7</ele>
        <time>2019-07-16T09:10:11Z</time>
      </trkpt>
      <trkpt lat="44.04928" lon="6.92892">
        <ele>1851.4</ele>
        <time>2019-07-16T09:10:12Z</time>
      </trkpt>
      <trkpt lat="44.04926" lon="6.92887">
        <ele>1851.1</ele>
        <time>2019-07-16T09:10:13Z</time>
      </trkpt>
      <trkpt lat="44.04925" lon="6.92882">
        <ele>1850.9</ele>
        <time>2019-07-16T09:10:14Z</time>
      </trkpt>
      <trkpt lat="44.04924" lon="6.92875">
        <ele>1850.8</ele>
        <time>2019-07-16T09:10:15Z</time>
      </trkpt>
      <trkpt lat="44.04923" lon="6.92869">
        <ele>1850.7</ele>
        <time>2019-07-16T09:10:16Z</time>
      </trkpt>
      <trkpt lat="44.04922" lon="6.92863">
        <ele>1850.6</ele>
        <time>2019-07-16T09:10:17Z</time>
      </trkpt>
      <trkpt lat="44.04921" lon="6.92858">
        <ele>1850.5</ele>
        <time>2019-07-16T09:10:18Z</time>
      </trkpt>
      <trkpt lat="44.04918" lon="6.92855">
        <ele>1850.4</ele>
        <time>2019-07-16T09:10:19Z</time>
      </trkpt>
      <trkpt lat="44.04915" lon="6.92851">
        <ele>1850.3</ele>
        <time>2019-07-16T09:10:21Z</time>
      </trkpt>
      <trkpt lat="44.04912" lon="6.92846">
        <ele>1850.2</ele>
        <time>2019-07-16T09:10:23Z</time>
      </trkpt>
      <trkpt lat="44.0491" lon="6.92842">
        <ele>1850</ele>
        <time>2019-07-16T09:10:25Z</time>
      </trkpt>
      <trkpt lat="44.04906" lon="6.92837">
        <ele>1849.8</ele>
        <time>2019-07-16T09:10:27Z</time>
      </trkpt>
      <trkpt lat="44.04905" lon="6.92834">
        <ele>1849.7</ele>
        <time>2019-07-16T09:10:28Z</time>
      </trkpt>
      <trkpt lat="44.04902" lon="6.92831">
        <ele>1849.5</ele>
        <time>2019-07-16T09:10:29Z</time>
      </trkpt>
      <trkpt lat="44.049" lon="6.92828">
        <ele>1849.4</ele>
        <time>2019-07-16T09:10:30Z</time>
      </trkpt>
      <trkpt lat="44.04898" lon="6.92825">
        <ele>1849.2</ele>
        <time>2019-07-16T09:10:31Z</time>
      </trkpt>
      <trkpt lat="44.04895" lon="6.92819">
        <ele>1848.9</ele>
        <time>2019-07-16T09:10:33Z</time>
      </trkpt>
      <trkpt lat="44.04892" lon="6.92814">
        <ele>1848.5</ele>
        <time>2019-07-16T09:10:35Z</time>
      </trkpt>
      <trkpt lat="44.0489" lon="6.9281">
        <ele>1848.3</ele>
        <time>2019-07-16T09:10:36Z</time>
      </trkpt>
      <trkpt lat="44.04889" lon="6.92806">
        <ele>1847.9</ele>
        <time>2019-07-16T09:10:37Z</time>
      </trkpt>
      <trkpt lat="44.04886" lon="6.92801">
        <ele>1847.6</ele>
        <time>2019-07-16T09:10:38Z</time>
      </trkpt>
      <trkpt lat="44.04883" lon="6.92797">
        <ele>1847.2</ele>
        <time>2019-07-16T09:10:39Z</time>
      </trkpt>
      <trkpt lat="44.04882" lon="6.92793">
        <ele>1846.9</ele>
        <time>2019-07-16T09:10:40Z</time>
      </trkpt>
      <trkpt lat="44.0488" lon="6.92789">
        <ele>1846.6</ele>
        <time>2019-07-16T09:10:41Z</time>
      </trkpt>
      <trkpt lat="44.04879" lon="6.92785">
        <ele>1846.3</ele>
        <time>2019-07-16T09:10:42Z</time>
      </trkpt>
      <trkpt lat="44.04877" lon="6.9278">
        <ele>1846.1</ele>
        <time>2019-07-16T09:10:43Z</time>
      </trkpt>
      <trkpt lat="44.04876" lon="6.92776">
        <ele>1845.8</ele>
        <time>2019-07-16T09:10:44Z</time>
      </trkpt>
      <trkpt lat="44.04874" lon="6.92772">
        <ele>1845.6</ele>
        <time>2019-07-16T09:10:45Z</time>
      </trkpt>
      <trkpt lat="44.04872" lon="6.92767">
        <ele>1845.4</ele>
        <time>2019-07-16T09:10:46Z</time>
      </trkpt>
      <trkpt lat="44.04871" lon="6.9276">
        <ele>1845.3</ele>
        <time>2019-07-16T09:10:47Z</time>
      </trkpt>
      <trkpt lat="44.04869" lon="6.92754">
        <ele>1845.2</ele>
        <time>2019-07-16T09:10:48Z</time>
      </trkpt>
      <trkpt lat="44.04867" lon="6.92748">
        <ele>1845.1</ele>
        <time>2019-07-16T09:10:49Z</time>
      </trkpt>
      <trkpt lat="44.04866" lon="6.92744">
        <ele>1845</ele>
        <time>2019-07-16T09:10:50Z</time>
      </trkpt>
      <trkpt lat="44.04865" lon="6.92739">
        <ele>1845</ele>
        <time>2019-07-16T09:10:51Z</time>
      </trkpt>
      <trkpt lat="44.04865" lon="6.92735">
        <ele>1844.9</ele>
        <time>2019-07-16T09:10:52Z</time>
      </trkpt>
      <trkpt lat="44.04865" lon="6.92729">
        <ele>1844.8</ele>
        <time>2019-07-16T09:10:54Z</time>
      </trkpt>
      <trkpt lat="44.04867" lon="6.92725">
        <ele>1844.7</ele>
        <time>2019-07-16T09:10:56Z</time>
      </trkpt>
      <trkpt lat="44.04869" lon="6.92722">
        <ele>1844.6</ele>
        <time>2019-07-16T09:10:57Z</time>
      </trkpt>
      <trkpt lat="44.04872" lon="6.92717">
        <ele>1844.5</ele>
        <time>2019-07-16T09:10:59Z</time>
      </trkpt>
      <trkpt lat="44.04873" lon="6.92712">
        <ele>1844.4</ele>
        <time>2019-07-16T09:11:01Z</time>
      </trkpt>
      <trkpt lat="44.04873" lon="6.92706">
        <ele>1844.4</ele>
        <time>2019-07-16T09:11:03Z</time>
      </trkpt>
      <trkpt lat="44.04872" lon="6.92701">
        <ele>1844.4</ele>
        <time>2019-07-16T09:11:05Z</time>
      </trkpt>
      <trkpt lat="44.04869" lon="6.92695">
        <ele>1844.4</ele>
        <time>2019-07-16T09:11:07Z</time>
      </trkpt>
      <trkpt lat="44.04868" lon="6.92692">
        <ele>1844.5</ele>
        <time>2019-07-16T09:11:08Z</time>
      </trkpt>
      <trkpt lat="44.04865" lon="6.92689">
        <ele>1844.7</ele>
        <time>2019-07-16T09:11:09Z</time>
      </trkpt>
      <trkpt lat="44.04863" lon="6.92687">
        <ele>1844.9</ele>
        <time>2019-07-16T09:11:10Z</time>
      </trkpt>
      <trkpt lat="44.04857" lon="6.92683">
        <ele>1845.3</ele>
        <time>2019-07-16T09:11:12Z</time>
      </trkpt>
      <trkpt lat="44.04854" lon="6.92682">
        <ele>1845.5</ele>
        <time>2019-07-16T09:11:13Z</time>
      </trkpt>
      <trkpt lat="44.04852" lon="6.92682">
        <ele>1845.7</ele>
        <time>2019-07-16T09:11:14Z</time>
      </trkpt>
      <trkpt lat="44.04846" lon="6.92681">
        <ele>1846.1</ele>
        <time>2019-07-16T09:11:16Z</time>
      </trkpt>
      <trkpt lat="44.04842" lon="6.9268">
        <ele>1846.5</ele>
        <time>2019-07-16T09:11:18Z</time>
      </trkpt>
      <trkpt lat="44.04838" lon="6.92678">
        <ele>1846.9</ele>
        <time>2019-07-16T09:11:20Z</time>
      </trkpt>
      <trkpt lat="44.04835" lon="6.92676">
        <ele>1847.2</ele>
        <time>2019-07-16T09:11:22Z</time>
      </trkpt>
      <trkpt lat="44.04831" lon="6.92677">
        <ele>1847.5</ele>
        <time>2019-07-16T09:11:24Z</time>
      </trkpt>
      <trkpt lat="44.04828" lon="6.92676">
        <ele>1847.7</ele>
        <time>2019-07-16T09:11:26Z</time>
      </trkpt>
      <trkpt lat="44.04825" lon="6.92674">
        <ele>1848</ele>
        <time>2019-07-16T09:11:28Z</time>
      </trkpt>
      <trkpt lat="44.04821" lon="6.92672">
        <ele>1848.2</ele>
        <time>2019-07-16T09:11:30Z</time>
      </trkpt>
      <trkpt lat="44.04817" lon="6.9267">
        <ele>1848.5</ele>
        <time>2019-07-16T09:11:32Z</time>
      </trkpt>
      <trkpt lat="44.04812" lon="6.92668">
        <ele>1848.7</ele>
        <time>2019-07-16T09:11:34Z</time>
      </trkpt>
      <trkpt lat="44.04808" lon="6.92666">
        <ele>1849</ele>
        <time>2019-07-16T09:11:36Z</time>
      </trkpt>
      <trkpt lat="44.04805" lon="6.92664">
        <ele>1849.1</ele>
        <time>2019-07-16T09:11:38Z</time>
      </trkpt>
      <trkpt lat="44.04801" lon="6.92664">
        <ele>1849.3</ele>
        <time>2019-07-16T09:11:40Z</time>
      </trkpt>
      <trkpt lat="44.04796" lon="6.92662">
        <ele>1849.5</ele>
        <time>2019-07-16T09:11:42Z</time>
      </trkpt>
      <trkpt lat="44.04792" lon="6.92661">
        <ele>1849.7</ele>
        <time>2019-07-16T09:11:44Z</time>
      </trkpt>
      <trkpt lat="44.04789" lon="6.92658">
        <ele>1849.8</ele>
        <time>2019-07-16T09:11:46Z</time>
      </trkpt>
      <trkpt lat="44.04785" lon="6.92656">
        <ele>1850</ele>
        <time>2019-07-16T09:11:48Z</time>
      </trkpt>
      <trkpt lat="44.04781" lon="6.92653">
        <ele>1850.1</ele>
        <time>2019-07-16T09:11:50Z</time>
      </trkpt>
      <trkpt lat="44.04779" lon="6.92651">
        <ele>1850.1</ele>
        <time>2019-07-16T09:11:52Z</time>
      </trkpt>
      <trkpt lat="44.04775" lon="6.92649">
        <ele>1850.1</ele>
        <time>2019-07-16T09:11:54Z</time>
      </trkpt>
      <trkpt lat="44.04772" lon="6.92646">
        <ele>1850.1</ele>
        <time>2019-07-16T09:11:56Z</time>
      </trkpt>
      <trkpt lat="44.0477" lon="6.92644">
        <ele>1850.1</ele>
        <time>2019-07-16T09:11:58Z</time>
      </trkpt>
      <trkpt lat="44.04767" lon="6.92642">
        <ele>1850</ele>
        <time>2019-07-16T09:12:00Z</time>
      </trkpt>
      <trkpt lat="44.04764" lon="6.9264">
        <ele>1849.9</ele>
        <time>2019-07-16T09:12:02Z</time>
      </trkpt>
      <trkpt lat="44.04761" lon="6.92637">
        <ele>1849.8</ele>
        <time>2019-07-16T09:12:04Z</time>
      </trkpt>
      <trkpt lat="44.04758" lon="6.92633">
        <ele>1849.7</ele>
        <time>2019-07-16T09:12:06Z</time>
      </trkpt>
      <trkpt lat="44.04755" lon="6.92628">
        <ele>1849.5</ele>
        <time>2019-07-16T09:12:08Z</time>
      </trkpt>
      <trkpt lat="44.04752" lon="6.92623">
        <ele>1849.3</ele>
        <time>2019-07-16T09:12:10Z</time>
      </trkpt>
      <trkpt lat="44.0475" lon="6.9262">
        <ele>1849.1</ele>
        <time>2019-07-16T09:12:11Z</time>
      </trkpt>
      <trkpt lat="44.04749" lon="6.92616">
        <ele>1848.9</ele>
        <time>2019-07-16T09:12:12Z</time>
      </trkpt>
      <trkpt lat="44.04748" lon="6.92612">
        <ele>1848.7</ele>
        <time>2019-07-16T09:12:13Z</time>
      </trkpt>
      <trkpt lat="44.04748" lon="6.92607">
        <ele>1848.4</ele>
        <time>2019-07-16T09:12:14Z</time>
      </trkpt>
      <trkpt lat="44.04749" lon="6.92603">
        <ele>1848.1</ele>
        <time>2019-07-16T09:12:15Z</time>
      </trkpt>
      <trkpt lat="44.04751" lon="6.92597">
        <ele>1847.6</ele>
        <time>2019-07-16T09:12:17Z</time>
      </trkpt>
      <trkpt lat="44.04755" lon="6.92592">
        <ele>1846.9</ele>
        <time>2019-07-16T09:12:19Z</time>
      </trkpt>
      <trkpt lat="44.04757" lon="6.9259">
        <ele>1846.4</ele>
        <time>2019-07-16T09:12:21Z</time>
      </trkpt>
      <trkpt lat="44.04759" lon="6.92584">
        <ele>1845.7</ele>
        <time>2019-07-16T09:12:23Z</time>
      </trkpt>
      <trkpt lat="44.04759" lon="6.92577">
        <ele>1844.9</ele>
        <time>2019-07-16T09:12:25Z</time>
      </trkpt>
      <trkpt lat="44.04757" lon="6.92573">
        <ele>1844.4</ele>
        <time>2019-07-16T09:12:27Z</time>
      </trkpt>
      <trkpt lat="44.04758" lon="6.92568">
        <ele>1843.8</ele>
        <time>2019-07-16T09:12:29Z</time>
      </trkpt>
      <trkpt lat="44.04759" lon="6.92564">
        <ele>1843.4</ele>
        <time>2019-07-16T09:12:30Z</time>
      </trkpt>
      <trkpt lat="44.04759" lon="6.9256">
        <ele>1843</ele>
        <time>2019-07-16T09:12:31Z</time>
      </trkpt>
      <trkpt lat="44.04758" lon="6.92554">
        <ele>1842.5</ele>
        <time>2019-07-16T09:12:33Z</time>
      </trkpt>
      <trkpt lat="44.04757" lon="6.92547">
        <ele>1842</ele>
        <time>2019-07-16T09:12:36Z</time>
      </trkpt>
      <trkpt lat="44.04758" lon="6.9254">
        <ele>1841.6</ele>
        <time>2019-07-16T09:12:37Z</time>
      </trkpt>
      <trkpt lat="44.04758" lon="6.92533">
        <ele>1841.4</ele>
        <time>2019-07-16T09:12:38Z</time>
      </trkpt>
      <trkpt lat="44.04758" lon="6.92527">
        <ele>1841.1</ele>
        <time>2019-07-16T09:12:39Z</time>
      </trkpt>
      <trkpt lat="44.04757" lon="6.92523">
        <ele>1840.9</ele>
        <time>2019-07-16T09:12:40Z</time>
      </trkpt>
      <trkpt lat="44.04757" lon="6.92517">
        <ele>1840.6</ele>
        <time>2019-07-16T09:12:42Z</time>
      </trkpt>
      <trkpt lat="44.04756" lon="6.92513">
        <ele>1840.4</ele>
        <time>2019-07-16T09:12:43Z</time>
      </trkpt>
      <trkpt lat="44.04756" lon="6.92508">
        <ele>1840</ele>
        <time>2019-07-16T09:12:44Z</time>
      </trkpt>
      <trkpt lat="44.04756" lon="6.92504">
        <ele>1839.6</ele>
        <time>2019-07-16T09:12:45Z</time>
      </trkpt>
      <trkpt lat="44.04756" lon="6.92499">
        <ele>1839.1</ele>
        <time>2019-07-16T09:12:46Z</time>
      </trkpt>
      <trkpt lat="44.04757" lon="6.92492">
        <ele>1838.3</ele>
        <time>2019-07-16T09:12:48Z</time>
      </trkpt>
      <trkpt lat="44.04757" lon="6.92488">
        <ele>1837.8</ele>
        <time>2019-07-16T09:12:49Z</time>
      </trkpt>
      <trkpt lat="44.04758" lon="6.92484">
        <ele>1837.3</ele>
        <time>2019-07-16T09:12:50Z</time>
      </trkpt>
      <trkpt lat="44.04759" lon="6.9248">
        <ele>1836.7</ele>
        <time>2019-07-16T09:12:51Z</time>
      </trkpt>
      <trkpt lat="44.0476" lon="6.92475">
        <ele>1836.2</ele>
        <time>2019-07-16T09:12:52Z</time>
      </trkpt>
      <trkpt lat="44.04759" lon="6.92471">
        <ele>1835.6</ele>
        <time>2019-07-16T09:12:53Z</time>
      </trkpt>
      <trkpt lat="44.04758" lon="6.92465">
        <ele>1835.1</ele>
        <time>2019-07-16T09:12:54Z</time>
      </trkpt>
      <trkpt lat="44.04758" lon="6.9246">
        <ele>1834.7</ele>
        <time>2019-07-16T09:12:55Z</time>
      </trkpt>
      <trkpt lat="44.04758" lon="6.92455">
        <ele>1834.3</ele>
        <time>2019-07-16T09:12:56Z</time>
      </trkpt>
      <trkpt lat="44.04758" lon="6.9245">
        <ele>1833.8</ele>
        <time>2019-07-16T09:12:57Z</time>
      </trkpt>
      <trkpt lat="44.04758" lon="6.92444">
        <ele>1833.4</ele>
        <time>2019-07-16T09:12:58Z</time>
      </trkpt>
      <trkpt lat="44.04758" lon="6.92439">
        <ele>1833</ele>
        <time>2019-07-16T09:12:59Z</time>
      </trkpt>
      <trkpt lat="44.04759" lon="6.92435">
        <ele>1832.7</ele>
        <time>2019-07-16T09:13:00Z</time>
      </trkpt>
      <trkpt lat="44.04759" lon="6.92431">
        <ele>1832.3</ele>
        <time>2019-07-16T09:13:01Z</time>
      </trkpt>
      <trkpt lat="44.04759" lon="6.92423">
        <ele>1831.6</ele>
        <time>2019-07-16T09:13:03Z</time>
      </trkpt>
      <trkpt lat="44.04759" lon="6.92419">
        <ele>1831.2</ele>
        <time>2019-07-16T09:13:04Z</time>
      </trkpt>
      <trkpt lat="44.04758" lon="6.92415">
        <ele>1830.8</ele>
        <time>2019-07-16T09:13:05Z</time>
      </trkpt>
      <trkpt lat="44.04758" lon="6.92406">
        <ele>1830.1</ele>
        <time>2019-07-16T09:13:07Z</time>
      </trkpt>
      <trkpt lat="44.04759" lon="6.92401">
        <ele>1829.7</ele>
        <time>2019-07-16T09:13:08Z</time>
      </trkpt>
      <trkpt lat="44.04759" lon="6.92396">
        <ele>1829.3</ele>
        <time>2019-07-16T09:13:09Z</time>
      </trkpt>
      <trkpt lat="44.04759" lon="6.92391">
        <ele>1828.8</ele>
        <time>2019-07-16T09:13:10Z</time>
      </trkpt>
      <trkpt lat="44.04759" lon="6.92384">
        <ele>1828.2</ele>
        <time>2019-07-16T09:13:11Z</time>
      </trkpt>
      <trkpt lat="44.04759" lon="6.92378">
        <ele>1827.6</ele>
        <time>2019-07-16T09:13:12Z</time>
      </trkpt>
      <trkpt lat="44.0476" lon="6.92372">
        <ele>1827.1</ele>
        <time>2019-07-16T09:13:13Z</time>
      </trkpt>
      <trkpt lat="44.0476" lon="6.92368">
        <ele>1826.7</ele>
        <time>2019-07-16T09:13:14Z</time>
      </trkpt>
      <trkpt lat="44.0476" lon="6.92364">
        <ele>1826.4</ele>
        <time>2019-07-16T09:13:15Z</time>
      </trkpt>
      <trkpt lat="44.0476" lon="6.92358">
        <ele>1825.7</ele>
        <time>2019-07-16T09:13:17Z</time>
      </trkpt>
      <trkpt lat="44.0476" lon="6.92352">
        <ele>1825</ele>
        <time>2019-07-16T09:13:19Z</time>
      </trkpt>
      <trkpt lat="44.0476" lon="6.92348">
        <ele>1824.5</ele>
        <time>2019-07-16T09:13:20Z</time>
      </trkpt>
      <trkpt lat="44.0476" lon="6.92343">
        <ele>1823.8</ele>
        <time>2019-07-16T09:13:21Z</time>
      </trkpt>
      <trkpt lat="44.0476" lon="6.92339">
        <ele>1823.3</ele>
        <time>2019-07-16T09:13:22Z</time>
      </trkpt>
      <trkpt lat="44.0476" lon="6.92336">
        <ele>1822.9</ele>
        <time>2019-07-16T09:13:23Z</time>
      </trkpt>
      <trkpt lat="44.0476" lon="6.9233">
        <ele>1822.2</ele>
        <time>2019-07-16T09:13:25Z</time>
      </trkpt>
      <trkpt lat="44.04761" lon="6.92324">
        <ele>1821.6</ele>
        <time>2019-07-16T09:13:29Z</time>
      </trkpt>
      <trkpt lat="44.04761" lon="6.9232">
        <ele>1821.2</ele>
        <time>2019-07-16T09:13:31Z</time>
      </trkpt>
      <trkpt lat="44.0476" lon="6.92316">
        <ele>1820.8</ele>
        <time>2019-07-16T09:13:33Z</time>
      </trkpt>
      <trkpt lat="44.04759" lon="6.9231">
        <ele>1820.3</ele>
        <time>2019-07-16T09:13:35Z</time>
      </trkpt>
      <trkpt lat="44.04759" lon="6.92302">
        <ele>1819.9</ele>
        <time>2019-07-16T09:13:37Z</time>
      </trkpt>
      <trkpt lat="44.04758" lon="6.92298">
        <ele>1819.7</ele>
        <time>2019-07-16T09:13:38Z</time>
      </trkpt>
      <trkpt lat="44.04757" lon="6.92294">
        <ele>1819.5</ele>
        <time>2019-07-16T09:13:39Z</time>
      </trkpt>
      <trkpt lat="44.04756" lon="6.92291">
        <ele>1819.3</ele>
        <time>2019-07-16T09:13:40Z</time>
      </trkpt>
      <trkpt lat="44.04756" lon="6.92287">
        <ele>1819.2</ele>
        <time>2019-07-16T09:13:41Z</time>
      </trkpt>
      <trkpt lat="44.04755" lon="6.92283">
        <ele>1819.1</ele>
        <time>2019-07-16T09:13:42Z</time>
      </trkpt>
      <trkpt lat="44.04754" lon="6.9228">
        <ele>1819.1</ele>
        <time>2019-07-16T09:13:43Z</time>
      </trkpt>
      <trkpt lat="44.0475" lon="6.92277">
        <ele>1819.1</ele>
        <time>2019-07-16T09:13:45Z</time>
      </trkpt>
      <trkpt lat="44.04747" lon="6.92275">
        <ele>1819.1</ele>
        <time>2019-07-16T09:13:47Z</time>
      </trkpt>
      <trkpt lat="44.04744" lon="6.92274">
        <ele>1819.1</ele>
        <time>2019-07-16T09:15:01Z</time>
      </trkpt>
      <trkpt lat="44.04741" lon="6.92274">
        <ele>1819.2</ele>
        <time>2019-07-16T09:15:03Z</time>
      </trkpt>
      <trkpt lat="44.04738" lon="6.92274">
        <ele>1819.3</ele>
        <time>2019-07-16T09:15:07Z</time>
      </trkpt>
      <trkpt lat="44.04733" lon="6.92277">
        <ele>1819.6</ele>
        <time>2019-07-16T09:15:12Z</time>
      </trkpt>
      <trkpt lat="44.04729" lon="6.9228">
        <ele>1819.9</ele>
        <time>2019-07-16T09:15:15Z</time>
      </trkpt>
      <trkpt lat="44.04725" lon="6.92281">
        <ele>1820.1</ele>
        <time>2019-07-16T09:15:17Z</time>
      </trkpt>
      <trkpt lat="44.04721" lon="6.92281">
        <ele>1820.4</ele>
        <time>2019-07-16T09:15:19Z</time>
      </trkpt>
      <trkpt lat="44.04718" lon="6.92283">
        <ele>1820.7</ele>
        <time>2019-07-16T09:15:21Z</time>
      </trkpt>
      <trkpt lat="44.04715" lon="6.92285">
        <ele>1821</ele>
        <time>2019-07-16T09:15:23Z</time>
      </trkpt>
      <trkpt lat="44.04711" lon="6.92286">
        <ele>1821.3</ele>
        <time>2019-07-16T09:15:25Z</time>
      </trkpt>
      <trkpt lat="44.04708" lon="6.92286">
        <ele>1821.6</ele>
        <time>2019-07-16T09:15:27Z</time>
      </trkpt>
      <trkpt lat="44.04705" lon="6.92287">
        <ele>1822</ele>
        <time>2019-07-16T09:15:29Z</time>
      </trkpt>
      <trkpt lat="44.04701" lon="6.92287">
        <ele>1822.3</ele>
        <time>2019-07-16T09:15:31Z</time>
      </trkpt>
      <trkpt lat="44.04698" lon="6.92287">
        <ele>1822.7</ele>
        <time>2019-07-16T09:15:33Z</time>
      </trkpt>
      <trkpt lat="44.04694" lon="6.92287">
        <ele>1823</ele>
        <time>2019-07-16T09:15:35Z</time>
      </trkpt>
      <trkpt lat="44.04692" lon="6.92289">
        <ele>1823.4</ele>
        <time>2019-07-16T09:15:37Z</time>
      </trkpt>
      <trkpt lat="44.04688" lon="6.92291">
        <ele>1823.9</ele>
        <time>2019-07-16T09:15:40Z</time>
      </trkpt>
      <trkpt lat="44.04685" lon="6.92292">
        <ele>1824.2</ele>
        <time>2019-07-16T09:15:42Z</time>
      </trkpt>
      <trkpt lat="44.04681" lon="6.92292">
        <ele>1824.7</ele>
        <time>2019-07-16T09:15:45Z</time>
      </trkpt>
      <trkpt lat="44.04678" lon="6.92292">
        <ele>1825</ele>
        <time>2019-07-16T09:15:47Z</time>
      </trkpt>
      <trkpt lat="44.04675" lon="6.92293">
        <ele>1825.3</ele>
        <time>2019-07-16T09:15:49Z</time>
      </trkpt>
      <trkpt lat="44.04672" lon="6.92294">
        <ele>1825.7</ele>
        <time>2019-07-16T09:15:51Z</time>
      </trkpt>
      <trkpt lat="44.04668" lon="6.92295">
        <ele>1826</ele>
        <time>2019-07-16T09:15:54Z</time>
      </trkpt>
      <trkpt lat="44.04664" lon="6.92295">
        <ele>1826.3</ele>
        <time>2019-07-16T09:15:56Z</time>
      </trkpt>
      <trkpt lat="44.04661" lon="6.92297">
        <ele>1826.6</ele>
        <time>2019-07-16T09:15:58Z</time>
      </trkpt>
      <trkpt lat="44.04658" lon="6.92297">
        <ele>1826.9</ele>
        <time>2019-07-16T09:16:00Z</time>
      </trkpt>
      <trkpt lat="44.04655" lon="6.92298">
        <ele>1827.1</ele>
        <time>2019-07-16T09:16:02Z</time>
      </trkpt>
      <trkpt lat="44.04652" lon="6.92299">
        <ele>1827.4</ele>
        <time>2019-07-16T09:16:04Z</time>
      </trkpt>
      <trkpt lat="44.04649" lon="6.923">
        <ele>1827.6</ele>
        <time>2019-07-16T09:16:06Z</time>
      </trkpt>
      <trkpt lat="44.04646" lon="6.92299">
        <ele>1827.8</ele>
        <time>2019-07-16T09:16:08Z</time>
      </trkpt>
      <trkpt lat="44.04641" lon="6.923">
        <ele>1828.1</ele>
        <time>2019-07-16T09:16:11Z</time>
      </trkpt>
      <trkpt lat="44.04639" lon="6.92301">
        <ele>1828.3</ele>
        <time>2019-07-16T09:16:13Z</time>
      </trkpt>
      <trkpt lat="44.04636" lon="6.92301">
        <ele>1828.5</ele>
        <time>2019-07-16T09:16:15Z</time>
      </trkpt>
      <trkpt lat="44.04633" lon="6.92302">
        <ele>1828.7</ele>
        <time>2019-07-16T09:16:17Z</time>
      </trkpt>
      <trkpt lat="44.0463" lon="6.92303">
        <ele>1829</ele>
        <time>2019-07-16T09:16:19Z</time>
      </trkpt>
      <trkpt lat="44.04626" lon="6.92304">
        <ele>1829.2</ele>
        <time>2019-07-16T09:16:21Z</time>
      </trkpt>
      <trkpt lat="44.04622" lon="6.92306">
        <ele>1829.6</ele>
        <time>2019-07-16T09:16:24Z</time>
      </trkpt>
      <trkpt lat="44.04619" lon="6.92308">
        <ele>1829.9</ele>
        <time>2019-07-16T09:16:26Z</time>
      </trkpt>
      <trkpt lat="44.04616" lon="6.92309">
        <ele>1830.3</ele>
        <time>2019-07-16T09:16:28Z</time>
      </trkpt>
      <trkpt lat="44.04613" lon="6.9231">
        <ele>1830.7</ele>
        <time>2019-07-16T09:16:30Z</time>
      </trkpt>
      <trkpt lat="44.0461" lon="6.92311">
        <ele>1831.2</ele>
        <time>2019-07-16T09:16:32Z</time>
      </trkpt>
      <trkpt lat="44.04606" lon="6.92312">
        <ele>1831.7</ele>
        <time>2019-07-16T09:16:35Z</time>
      </trkpt>
      <trkpt lat="44.04603" lon="6.92313">
        <ele>1832.1</ele>
        <time>2019-07-16T09:16:37Z</time>
      </trkpt>
      <trkpt lat="44.046" lon="6.92314">
        <ele>1832.6</ele>
        <time>2019-07-16T09:16:39Z</time>
      </trkpt>
      <trkpt lat="44.04597" lon="6.92315">
        <ele>1833</ele>
        <time>2019-07-16T09:16:41Z</time>
      </trkpt>
      <trkpt lat="44.04594" lon="6.92315">
        <ele>1833.5</ele>
        <time>2019-07-16T09:16:43Z</time>
      </trkpt>
      <trkpt lat="44.04591" lon="6.92316">
        <ele>1833.9</ele>
        <time>2019-07-16T09:16:45Z</time>
      </trkpt>
      <trkpt lat="44.04589" lon="6.92317">
        <ele>1834.3</ele>
        <time>2019-07-16T09:16:47Z</time>
      </trkpt>
      <trkpt lat="44.04586" lon="6.92317">
        <ele>1834.6</ele>
        <time>2019-07-16T09:16:49Z</time>
      </trkpt>
      <trkpt lat="44.04582" lon="6.92316">
        <ele>1835.1</ele>
        <time>2019-07-16T09:16:52Z</time>
      </trkpt>
      <trkpt lat="44.04579" lon="6.92317">
        <ele>1835.5</ele>
        <time>2019-07-16T09:16:54Z</time>
      </trkpt>
      <trkpt lat="44.04575" lon="6.92317">
        <ele>1836.1</ele>
        <time>2019-07-16T09:16:57Z</time>
      </trkpt>
      <trkpt lat="44.04572" lon="6.92317">
        <ele>1836.4</ele>
        <time>2019-07-16T09:16:59Z</time>
      </trkpt>
      <trkpt lat="44.04569" lon="6.92317">
        <ele>1836.9</ele>
        <time>2019-07-16T09:17:01Z</time>
      </trkpt>
      <trkpt lat="44.04565" lon="6.92317">
        <ele>1837.4</ele>
        <time>2019-07-16T09:17:04Z</time>
      </trkpt>
      <trkpt lat="44.04562" lon="6.92317">
        <ele>1837.9</ele>
        <time>2019-07-16T09:17:07Z</time>
      </trkpt>
      <trkpt lat="44.04559" lon="6.92316">
        <ele>1838.3</ele>
        <time>2019-07-16T09:17:09Z</time>
      </trkpt>
      <trkpt lat="44.04556" lon="6.92316">
        <ele>1838.8</ele>
        <time>2019-07-16T09:17:11Z</time>
      </trkpt>
      <trkpt lat="44.04552" lon="6.92316">
        <ele>1839.4</ele>
        <time>2019-07-16T09:17:13Z</time>
      </trkpt>
      <trkpt lat="44.04549" lon="6.92316">
        <ele>1839.9</ele>
        <time>2019-07-16T09:17:15Z</time>
      </trkpt>
      <trkpt lat="44.04545" lon="6.92317">
        <ele>1840.5</ele>
        <time>2019-07-16T09:17:18Z</time>
      </trkpt>
      <trkpt lat="44.04542" lon="6.92318">
        <ele>1841</ele>
        <time>2019-07-16T09:17:20Z</time>
      </trkpt>
      <trkpt lat="44.04539" lon="6.92318">
        <ele>1841.6</ele>
        <time>2019-07-16T09:17:23Z</time>
      </trkpt>
      <trkpt lat="44.04535" lon="6.92317">
        <ele>1842.2</ele>
        <time>2019-07-16T09:17:26Z</time>
      </trkpt>
      <trkpt lat="44.04533" lon="6.92315">
        <ele>1842.6</ele>
        <time>2019-07-16T09:17:29Z</time>
      </trkpt>
      <trkpt lat="44.0453" lon="6.92314">
        <ele>1843.1</ele>
        <time>2019-07-16T09:17:45Z</time>
      </trkpt>
      <trkpt lat="44.04527" lon="6.92312">
        <ele>1843.6</ele>
        <time>2019-07-16T09:17:48Z</time>
      </trkpt>
      <trkpt lat="44.04524" lon="6.92309">
        <ele>1844.1</ele>
        <time>2019-07-16T09:17:50Z</time>
      </trkpt>
      <trkpt lat="44.04521" lon="6.92308">
        <ele>1844.7</ele>
        <time>2019-07-16T09:17:53Z</time>
      </trkpt>
      <trkpt lat="44.04518" lon="6.92306">
        <ele>1845.2</ele>
        <time>2019-07-16T09:17:55Z</time>
      </trkpt>
      <trkpt lat="44.04516" lon="6.92303">
        <ele>1845.7</ele>
        <time>2019-07-16T09:17:57Z</time>
      </trkpt>
      <trkpt lat="44.04513" lon="6.92301">
        <ele>1846.2</ele>
        <time>2019-07-16T09:17:59Z</time>
      </trkpt>
      <trkpt lat="44.04511" lon="6.92298">
        <ele>1846.7</ele>
        <time>2019-07-16T09:18:02Z</time>
      </trkpt>
      <trkpt lat="44.04508" lon="6.92295">
        <ele>1847.2</ele>
        <time>2019-07-16T09:18:05Z</time>
      </trkpt>
      <trkpt lat="44.04506" lon="6.92291">
        <ele>1847.8</ele>
        <time>2019-07-16T09:18:09Z</time>
      </trkpt>
      <trkpt lat="44.04503" lon="6.92287">
        <ele>1848.5</ele>
        <time>2019-07-16T09:18:12Z</time>
      </trkpt>
      <trkpt lat="44.04501" lon="6.92283">
        <ele>1848.9</ele>
        <time>2019-07-16T09:18:16Z</time>
      </trkpt>
      <trkpt lat="44.04501" lon="6.9228">
        <ele>1849.4</ele>
        <time>2019-07-16T09:18:19Z</time>
      </trkpt>
      <trkpt lat="44.04501" lon="6.92275">
        <ele>1850</ele>
        <time>2019-07-16T09:18:22Z</time>
      </trkpt>
      <trkpt lat="44.045" lon="6.92271">
        <ele>1850.5</ele>
        <time>2019-07-16T09:18:24Z</time>
      </trkpt>
      <trkpt lat="44.045" lon="6.92267">
        <ele>1851</ele>
        <time>2019-07-16T09:18:26Z</time>
      </trkpt>
      <trkpt lat="44.04498" lon="6.92262">
        <ele>1851.5</ele>
        <time>2019-07-16T09:18:29Z</time>
      </trkpt>
      <trkpt lat="44.04498" lon="6.92258">
        <ele>1852.1</ele>
        <time>2019-07-16T09:18:32Z</time>
      </trkpt>
      <trkpt lat="44.04498" lon="6.92253">
        <ele>1852.6</ele>
        <time>2019-07-16T09:18:35Z</time>
      </trkpt>
      <trkpt lat="44.04497" lon="6.92247">
        <ele>1853.3</ele>
        <time>2019-07-16T09:18:38Z</time>
      </trkpt>
      <trkpt lat="44.04497" lon="6.92243">
        <ele>1853.8</ele>
        <time>2019-07-16T09:18:41Z</time>
      </trkpt>
      <trkpt lat="44.04495" lon="6.92237">
        <ele>1854.4</ele>
        <time>2019-07-16T09:18:44Z</time>
      </trkpt>
      <trkpt lat="44.04494" lon="6.92233">
        <ele>1854.8</ele>
        <time>2019-07-16T09:18:46Z</time>
      </trkpt>
      <trkpt lat="44.04493" lon="6.92228">
        <ele>1855.3</ele>
        <time>2019-07-16T09:18:49Z</time>
      </trkpt>
      <trkpt lat="44.04493" lon="6.92223">
        <ele>1855.9</ele>
        <time>2019-07-16T09:18:52Z</time>
      </trkpt>
      <trkpt lat="44.04494" lon="6.92218">
        <ele>1856.2</ele>
        <time>2019-07-16T09:18:55Z</time>
      </trkpt>
      <trkpt lat="44.04496" lon="6.92215">
        <ele>1856.7</ele>
        <time>2019-07-16T09:18:58Z</time>
      </trkpt>
      <trkpt lat="44.04497" lon="6.9221">
        <ele>1857.1</ele>
        <time>2019-07-16T09:19:00Z</time>
      </trkpt>
      <trkpt lat="44.04497" lon="6.92206">
        <ele>1857.3</ele>
        <time>2019-07-16T09:19:13Z</time>
      </trkpt>
      <trkpt lat="44.04497" lon="6.92202">
        <ele>1857.4</ele>
        <time>2019-07-16T09:19:21Z</time>
      </trkpt>
      <trkpt lat="44.04495" lon="6.92197">
        <ele>1857.5</ele>
        <time>2019-07-16T09:19:23Z</time>
      </trkpt>
      <trkpt lat="44.04494" lon="6.92192">
        <ele>1857.6</ele>
        <time>2019-07-16T09:19:25Z</time>
      </trkpt>
      <trkpt lat="44.04492" lon="6.92185">
        <ele>1857.7</ele>
        <time>2019-07-16T09:19:27Z</time>
      </trkpt>
      <trkpt lat="44.04491" lon="6.92182">
        <ele>1857.8</ele>
        <time>2019-07-16T09:19:29Z</time>
      </trkpt>
      <trkpt lat="44.04489" lon="6.92178">
        <ele>1857.9</ele>
        <time>2019-07-16T09:21:32Z</time>
      </trkpt>
      <trkpt lat="44.04488" lon="6.92172">
        <ele>1858</ele>
        <time>2019-07-16T09:21:34Z</time>
      </trkpt>
      <trkpt lat="44.04488" lon="6.92165">
        <ele>1858.1</ele>
        <time>2019-07-16T09:21:36Z</time>
      </trkpt>
      <trkpt lat="44.04489" lon="6.92157">
        <ele>1858.2</ele>
        <time>2019-07-16T09:21:38Z</time>
      </trkpt>
      <trkpt lat="44.0449" lon="6.92151">
        <ele>1858.3</ele>
        <time>2019-07-16T09:21:39Z</time>
      </trkpt>
      <trkpt lat="44.0449" lon="6.92145">
        <ele>1858.4</ele>
        <time>2019-07-16T09:21:40Z</time>
      </trkpt>
      <trkpt lat="44.0449" lon="6.92139">
        <ele>1858.4</ele>
        <time>2019-07-16T09:21:41Z</time>
      </trkpt>
      <trkpt lat="44.04488" lon="6.92132">
        <ele>1858.5</ele>
        <time>2019-07-16T09:21:42Z</time>
      </trkpt>
      <trkpt lat="44.04486" lon="6.92125">
        <ele>1858.6</ele>
        <time>2019-07-16T09:21:43Z</time>
      </trkpt>
      <trkpt lat="44.04485" lon="6.92119">
        <ele>1858.6</ele>
        <time>2019-07-16T09:21:44Z</time>
      </trkpt>
      <trkpt lat="44.04484" lon="6.92113">
        <ele>1858.7</ele>
        <time>2019-07-16T09:21:45Z</time>
      </trkpt>
      <trkpt lat="44.04483" lon="6.92107">
        <ele>1858.8</ele>
        <time>2019-07-16T09:21:46Z</time>
      </trkpt>
      <trkpt lat="44.04482" lon="6.921">
        <ele>1858.8</ele>
        <time>2019-07-16T09:21:47Z</time>
      </trkpt>
      <trkpt lat="44.0448" lon="6.92094">
        <ele>1858.9</ele>
        <time>2019-07-16T09:21:48Z</time>
      </trkpt>
      <trkpt lat="44.04479" lon="6.92089">
        <ele>1858.9</ele>
        <time>2019-07-16T09:21:49Z</time>
      </trkpt>
      <trkpt lat="44.04477" lon="6.92084">
        <ele>1859</ele>
        <time>2019-07-16T09:21:50Z</time>
      </trkpt>
      <trkpt lat="44.04477" lon="6.92079">
        <ele>1859</ele>
        <time>2019-07-16T09:21:51Z</time>
      </trkpt>
      <trkpt lat="44.04475" lon="6.92074">
        <ele>1859.1</ele>
        <time>2019-07-16T09:21:52Z</time>
      </trkpt>
      <trkpt lat="44.04475" lon="6.9207">
        <ele>1859.1</ele>
        <time>2019-07-16T09:21:53Z</time>
      </trkpt>
      <trkpt lat="44.04473" lon="6.92065">
        <ele>1859.1</ele>
        <time>2019-07-16T09:21:55Z</time>
      </trkpt>
      <trkpt lat="44.04471" lon="6.92061">
        <ele>1859.2</ele>
        <time>2019-07-16T09:21:57Z</time>
      </trkpt>
      <trkpt lat="44.0447" lon="6.92055">
        <ele>1859.3</ele>
        <time>2019-07-16T09:21:59Z</time>
      </trkpt>
      <trkpt lat="44.04468" lon="6.92049">
        <ele>1859.3</ele>
        <time>2019-07-16T09:22:01Z</time>
      </trkpt>
      <trkpt lat="44.04466" lon="6.92044">
        <ele>1859.4</ele>
        <time>2019-07-16T09:22:03Z</time>
      </trkpt>
      <trkpt lat="44.04464" lon="6.92039">
        <ele>1859.4</ele>
        <time>2019-07-16T09:22:05Z</time>
      </trkpt>
      <trkpt lat="44.04462" lon="6.92035">
        <ele>1859.5</ele>
        <time>2019-07-16T09:22:07Z</time>
      </trkpt>
      <trkpt lat="44.04459" lon="6.9203">
        <ele>1859.5</ele>
        <time>2019-07-16T09:22:09Z</time>
      </trkpt>
      <trkpt lat="44.04458" lon="6.92024">
        <ele>1859.6</ele>
        <time>2019-07-16T09:22:11Z</time>
      </trkpt>
      <trkpt lat="44.04456" lon="6.92021">
        <ele>1859.7</ele>
        <time>2019-07-16T09:22:13Z</time>
      </trkpt>
      <trkpt lat="44.04453" lon="6.92017">
        <ele>1859.7</ele>
        <time>2019-07-16T09:22:15Z</time>
      </trkpt>
      <trkpt lat="44.04452" lon="6.92012">
        <ele>1859.8</ele>
        <time>2019-07-16T09:22:17Z</time>
      </trkpt>
      <trkpt lat="44.0445" lon="6.92008">
        <ele>1859.9</ele>
        <time>2019-07-16T09:22:19Z</time>
      </trkpt>
      <trkpt lat="44.04448" lon="6.92004">
        <ele>1859.9</ele>
        <time>2019-07-16T09:22:21Z</time>
      </trkpt>
      <trkpt lat="44.04445" lon="6.92001">
        <ele>1860</ele>
        <time>2019-07-16T09:22:23Z</time>
      </trkpt>
      <trkpt lat="44.04441" lon="6.91998">
        <ele>1860.1</ele>
        <time>2019-07-16T09:22:25Z</time>
      </trkpt>
      <trkpt lat="44.04438" lon="6.91994">
        <ele>1860.2</ele>
        <time>2019-07-16T09:22:28Z</time>
      </trkpt>
      <trkpt lat="44.04436" lon="6.91991">
        <ele>1860.3</ele>
        <time>2019-07-16T09:22:30Z</time>
      </trkpt>
      <trkpt lat="44.04432" lon="6.9199">
        <ele>1860.4</ele>
        <time>2019-07-16T09:22:32Z</time>
      </trkpt>
      <trkpt lat="44.04429" lon="6.91991">
        <ele>1860.5</ele>
        <time>2019-07-16T09:22:34Z</time>
      </trkpt>
      <trkpt lat="44.04428" lon="6.91995">
        <ele>1860.6</ele>
        <time>2019-07-16T09:22:38Z</time>
      </trkpt>
      <trkpt lat="44.04427" lon="6.91999">
        <ele>1860.7</ele>
        <time>2019-07-16T09:22:44Z</time>
      </trkpt>
      <trkpt lat="44.04427" lon="6.92003">
        <ele>1860.8</ele>
        <time>2019-07-16T09:22:46Z</time>
      </trkpt>
      <trkpt lat="44.04424" lon="6.92005">
        <ele>1861</ele>
        <time>2019-07-16T09:22:49Z</time>
      </trkpt>
      <trkpt lat="44.04421" lon="6.92008">
        <ele>1861.1</ele>
        <time>2019-07-16T09:22:52Z</time>
      </trkpt>
      <trkpt lat="44.04418" lon="6.92009">
        <ele>1861.2</ele>
        <time>2019-07-16T09:22:54Z</time>
      </trkpt>
      <trkpt lat="44.04415" lon="6.92011">
        <ele>1861.3</ele>
        <time>2019-07-16T09:22:56Z</time>
      </trkpt>
      <trkpt lat="44.04412" lon="6.92011">
        <ele>1861.3</ele>
        <time>2019-07-16T09:22:58Z</time>
      </trkpt>
      <trkpt lat="44.0441" lon="6.92013">
        <ele>1861.4</ele>
        <time>2019-07-16T09:23:00Z</time>
      </trkpt>
      <trkpt lat="44.04407" lon="6.92014">
        <ele>1861.5</ele>
        <time>2019-07-16T09:23:03Z</time>
      </trkpt>
      <trkpt lat="44.04404" lon="6.92015">
        <ele>1861.5</ele>
        <time>2019-07-16T09:23:06Z</time>
      </trkpt>
      <trkpt lat="44.044" lon="6.92013">
        <ele>1861.6</ele>
        <time>2019-07-16T09:23:10Z</time>
      </trkpt>
      <trkpt lat="44.04398" lon="6.92011">
        <ele>1861.7</ele>
        <time>2019-07-16T09:23:12Z</time>
      </trkpt>
      <trkpt lat="44.04396" lon="6.92008">
        <ele>1861.7</ele>
        <time>2019-07-16T09:23:14Z</time>
      </trkpt>
      <trkpt lat="44.04392" lon="6.92008">
        <ele>1861.8</ele>
        <time>2019-07-16T09:23:16Z</time>
      </trkpt>
      <trkpt lat="44.04388" lon="6.92008">
        <ele>1863.6</ele>
        <time>2019-07-16T09:23:19Z</time>
      </trkpt>
      <trkpt lat="44.04384" lon="6.92007">
        <ele>1864.7</ele>
        <time>2019-07-16T09:23:22Z</time>
      </trkpt>
      <trkpt lat="44.04382" lon="6.92009">
        <ele>1865.5</ele>
        <time>2019-07-16T09:23:24Z</time>
      </trkpt>
      <trkpt lat="44.04379" lon="6.9201">
        <ele>1866.2</ele>
        <time>2019-07-16T09:23:26Z</time>
      </trkpt>
      <trkpt lat="44.04375" lon="6.9201">
        <ele>1867.1</ele>
        <time>2019-07-16T09:23:29Z</time>
      </trkpt>
      <trkpt lat="44.04372" lon="6.9201">
        <ele>1868</ele>
        <time>2019-07-16T09:23:32Z</time>
      </trkpt>
      <trkpt lat="44.04367" lon="6.92009">
        <ele>1868.9</ele>
        <time>2019-07-16T09:23:36Z</time>
      </trkpt>
      <trkpt lat="44.04364" lon="6.92009">
        <ele>1869.3</ele>
        <time>2019-07-16T09:23:39Z</time>
      </trkpt>
      <trkpt lat="44.04361" lon="6.92009">
        <ele>1869.7</ele>
        <time>2019-07-16T09:23:43Z</time>
      </trkpt>
      <trkpt lat="44.04359" lon="6.92004">
        <ele>1870.2</ele>
        <time>2019-07-16T09:23:47Z</time>
      </trkpt>
      <trkpt lat="44.04356" lon="6.92003">
        <ele>1870.7</ele>
        <time>2019-07-16T09:23:49Z</time>
      </trkpt>
      <trkpt lat="44.04353" lon="6.92001">
        <ele>1871.6</ele>
        <time>2019-07-16T09:23:52Z</time>
      </trkpt>
      <trkpt lat="44.0435" lon="6.92">
        <ele>1872.3</ele>
        <time>2019-07-16T09:23:54Z</time>
      </trkpt>
      <trkpt lat="44.04347" lon="6.92003">
        <ele>1873.1</ele>
        <time>2019-07-16T09:23:57Z</time>
      </trkpt>
      <trkpt lat="44.04346" lon="6.92006">
        <ele>1873.7</ele>
        <time>2019-07-16T09:23:59Z</time>
      </trkpt>
      <trkpt lat="44.04345" lon="6.9201">
        <ele>1874.4</ele>
        <time>2019-07-16T09:25:22Z</time>
      </trkpt>
      <trkpt lat="44.04342" lon="6.92012">
        <ele>1875.1</ele>
        <time>2019-07-16T09:25:25Z</time>
      </trkpt>
      <trkpt lat="44.04339" lon="6.92012">
        <ele>1875.7</ele>
        <time>2019-07-16T09:25:27Z</time>
      </trkpt>
      <trkpt lat="44.04336" lon="6.92012">
        <ele>1876.3</ele>
        <time>2019-07-16T09:25:29Z</time>
      </trkpt>
      <trkpt lat="44.04332" lon="6.92012">
        <ele>1877</ele>
        <time>2019-07-16T09:25:31Z</time>
      </trkpt>
      <trkpt lat="44.04329" lon="6.92011">
        <ele>1877.8</ele>
        <time>2019-07-16T09:25:34Z</time>
      </trkpt>
      <trkpt lat="44.04325" lon="6.92011">
        <ele>1878.4</ele>
        <time>2019-07-16T09:25:36Z</time>
      </trkpt>
      <trkpt lat="44.04322" lon="6.92013">
        <ele>1879.1</ele>
        <time>2019-07-16T09:25:38Z</time>
      </trkpt>
      <trkpt lat="44.0432" lon="6.92015">
        <ele>1879.7</ele>
        <time>2019-07-16T09:25:41Z</time>
      </trkpt>
      <trkpt lat="44.04316" lon="6.92016">
        <ele>1880.4</ele>
        <time>2019-07-16T09:25:44Z</time>
      </trkpt>
      <trkpt lat="44.04313" lon="6.92016">
        <ele>1880.9</ele>
        <time>2019-07-16T09:25:46Z</time>
      </trkpt>
      <trkpt lat="44.0431" lon="6.92013">
        <ele>1881.6</ele>
        <time>2019-07-16T09:25:49Z</time>
      </trkpt>
      <trkpt lat="44.04307" lon="6.92014">
        <ele>1882.2</ele>
        <time>2019-07-16T09:25:51Z</time>
      </trkpt>
      <trkpt lat="44.04304" lon="6.92015">
        <ele>1882.8</ele>
        <time>2019-07-16T09:25:53Z</time>
      </trkpt>
      <trkpt lat="44.04302" lon="6.92017">
        <ele>1883.4</ele>
        <time>2019-07-16T09:25:55Z</time>
      </trkpt>
      <trkpt lat="44.04298" lon="6.92017">
        <ele>1884.2</ele>
        <time>2019-07-16T09:25:58Z</time>
      </trkpt>
      <trkpt lat="44.04295" lon="6.92017">
        <ele>1884.8</ele>
        <time>2019-07-16T09:26:01Z</time>
      </trkpt>
      <trkpt lat="44.04292" lon="6.92019">
        <ele>1885.4</ele>
        <time>2019-07-16T09:26:04Z</time>
      </trkpt>
      <trkpt lat="44.04288" lon="6.9202">
        <ele>1886</ele>
        <time>2019-07-16T09:26:08Z</time>
      </trkpt>
      <trkpt lat="44.04285" lon="6.92019">
        <ele>1886.7</ele>
        <time>2019-07-16T09:26:11Z</time>
      </trkpt>
      <trkpt lat="44.04281" lon="6.92019">
        <ele>1887.3</ele>
        <time>2019-07-16T09:26:14Z</time>
      </trkpt>
      <trkpt lat="44.04278" lon="6.9202">
        <ele>1887.9</ele>
        <time>2019-07-16T09:26:17Z</time>
      </trkpt>
      <trkpt lat="44.04275" lon="6.92021">
        <ele>1888.5</ele>
        <time>2019-07-16T09:26:19Z</time>
      </trkpt>
      <trkpt lat="44.04272" lon="6.92022">
        <ele>1889.2</ele>
        <time>2019-07-16T09:26:26Z</time>
      </trkpt>
      <trkpt lat="44.04268" lon="6.92023">
        <ele>1889.9</ele>
        <time>2019-07-16T09:26:33Z</time>
      </trkpt>
      <trkpt lat="44.04266" lon="6.92026">
        <ele>1890.8</ele>
        <time>2019-07-16T09:26:56Z</time>
      </trkpt>
      <trkpt lat="44.04263" lon="6.92027">
        <ele>1891.5</ele>
        <time>2019-07-16T09:26:59Z</time>
      </trkpt>
      <trkpt lat="44.0426" lon="6.92028">
        <ele>1892.1</ele>
        <time>2019-07-16T09:27:01Z</time>
      </trkpt>
      <trkpt lat="44.04257" lon="6.92029">
        <ele>1892.7</ele>
        <time>2019-07-16T09:27:03Z</time>
      </trkpt>
      <trkpt lat="44.04254" lon="6.92031">
        <ele>1893.5</ele>
        <time>2019-07-16T09:27:06Z</time>
      </trkpt>
      <trkpt lat="44.04251" lon="6.92032">
        <ele>1894.2</ele>
        <time>2019-07-16T09:27:08Z</time>
      </trkpt>
      <trkpt lat="44.04248" lon="6.92033">
        <ele>1894.8</ele>
        <time>2019-07-16T09:27:10Z</time>
      </trkpt>
      <trkpt lat="44.04246" lon="6.92035">
        <ele>1895.5</ele>
        <time>2019-07-16T09:27:13Z</time>
      </trkpt>
      <trkpt lat="44.04242" lon="6.92037">
        <ele>1896.3</ele>
        <time>2019-07-16T09:27:16Z</time>
      </trkpt>
      <trkpt lat="44.0424" lon="6.9204">
        <ele>1896.9</ele>
        <time>2019-07-16T09:27:19Z</time>
      </trkpt>
      <trkpt lat="44.04237" lon="6.92043">
        <ele>1897.7</ele>
        <time>2019-07-16T09:27:22Z</time>
      </trkpt>
      <trkpt lat="44.04234" lon="6.92044">
        <ele>1898.3</ele>
        <time>2019-07-16T09:27:24Z</time>
      </trkpt>
      <trkpt lat="44.04231" lon="6.92045">
        <ele>1898.9</ele>
        <time>2019-07-16T09:27:27Z</time>
      </trkpt>
      <trkpt lat="44.04228" lon="6.92045">
        <ele>1899.4</ele>
        <time>2019-07-16T09:27:32Z</time>
      </trkpt>
      <trkpt lat="44.04225" lon="6.92047">
        <ele>1900.1</ele>
        <time>2019-07-16T09:27:39Z</time>
      </trkpt>
      <trkpt lat="44.04222" lon="6.92048">
        <ele>1900.7</ele>
        <time>2019-07-16T09:27:47Z</time>
      </trkpt>
      <trkpt lat="44.04219" lon="6.92048">
        <ele>1901.2</ele>
        <time>2019-07-16T09:27:51Z</time>
      </trkpt>
      <trkpt lat="44.04216" lon="6.92049">
        <ele>1901.7</ele>
        <time>2019-07-16T09:27:55Z</time>
      </trkpt>
      <trkpt lat="44.04213" lon="6.92051">
        <ele>1902.2</ele>
        <time>2019-07-16T09:28:07Z</time>
      </trkpt>
      <trkpt lat="44.04209" lon="6.92053">
        <ele>1902.8</ele>
        <time>2019-07-16T09:28:10Z</time>
      </trkpt>
      <trkpt lat="44.04206" lon="6.92052">
        <ele>1903.2</ele>
        <time>2019-07-16T09:28:12Z</time>
      </trkpt>
      <trkpt lat="44.04203" lon="6.92053">
        <ele>1903.6</ele>
        <time>2019-07-16T09:28:14Z</time>
      </trkpt>
      <trkpt lat="44.042" lon="6.92053">
        <ele>1904</ele>
        <time>2019-07-16T09:28:16Z</time>
      </trkpt>
      <trkpt lat="44.04196" lon="6.92054">
        <ele>1904.4</ele>
        <time>2019-07-16T09:28:18Z</time>
      </trkpt>
      <trkpt lat="44.04193" lon="6.92055">
        <ele>1904.8</ele>
        <time>2019-07-16T09:28:20Z</time>
      </trkpt>
      <trkpt lat="44.04191" lon="6.92056">
        <ele>1905.1</ele>
        <time>2019-07-16T09:28:22Z</time>
      </trkpt>
      <trkpt lat="44.04188" lon="6.92056">
        <ele>1905.5</ele>
        <time>2019-07-16T09:28:24Z</time>
      </trkpt>
      <trkpt lat="44.04185" lon="6.92055">
        <ele>1905.9</ele>
        <time>2019-07-16T09:28:26Z</time>
      </trkpt>
      <trkpt lat="44.04182" lon="6.92053">
        <ele>1906.2</ele>
        <time>2019-07-16T09:28:28Z</time>
      </trkpt>
      <trkpt lat="44.04179" lon="6.92051">
        <ele>1906.5</ele>
        <time>2019-07-16T09:28:30Z</time>
      </trkpt>
      <trkpt lat="44.04176" lon="6.92051">
        <ele>1906.8</ele>
        <time>2019-07-16T09:28:33Z</time>
      </trkpt>
      <trkpt lat="44.04173" lon="6.92054">
        <ele>1907.1</ele>
        <time>2019-07-16T09:28:35Z</time>
      </trkpt>
      <trkpt lat="44.0417" lon="6.92058">
        <ele>1907.3</ele>
        <time>2019-07-16T09:28:37Z</time>
      </trkpt>
      <trkpt lat="44.04168" lon="6.92058">
        <ele>1907.4</ele>
        <time>2019-07-16T09:28:39Z</time>
      </trkpt>
      <trkpt lat="44.04165" lon="6.92058">
        <ele>1907.4</ele>
        <time>2019-07-16T09:28:42Z</time>
      </trkpt>
      <trkpt lat="44.04162" lon="6.92057">
        <ele>1907.5</ele>
        <time>2019-07-16T09:28:45Z</time>
      </trkpt>
      <trkpt lat="44.04159" lon="6.92055">
        <ele>1907.5</ele>
        <time>2019-07-16T09:28:47Z</time>
      </trkpt>
      <trkpt lat="44.04157" lon="6.92058">
        <ele>1907.5</ele>
        <time>2019-07-16T09:28:49Z</time>
      </trkpt>
      <trkpt lat="44.04155" lon="6.92062">
        <ele>1907.4</ele>
        <time>2019-07-16T09:28:51Z</time>
      </trkpt>
      <trkpt lat="44.04153" lon="6.92065">
        <ele>1907.4</ele>
        <time>2019-07-16T09:28:53Z</time>
      </trkpt>
      <trkpt lat="44.04154" lon="6.92069">
        <ele>1907.4</ele>
        <time>2019-07-16T09:28:57Z</time>
      </trkpt>
      <trkpt lat="44.04152" lon="6.92065">
        <ele>1907.3</ele>
        <time>2019-07-16T09:29:13Z</time>
      </trkpt>
      <trkpt lat="44.0415" lon="6.92062">
        <ele>1907.3</ele>
        <time>2019-07-16T09:29:28Z</time>
      </trkpt>
      <trkpt lat="44.04147" lon="6.92064">
        <ele>1907.4</ele>
        <time>2019-07-16T09:29:40Z</time>
      </trkpt>
      <trkpt lat="44.04144" lon="6.92066">
        <ele>1907.4</ele>
        <time>2019-07-16T09:29:43Z</time>
      </trkpt>
      <trkpt lat="44.04141" lon="6.92069">
        <ele>1907.5</ele>
        <time>2019-07-16T09:29:46Z</time>
      </trkpt>
      <trkpt lat="44.04138" lon="6.92072">
        <ele>1907.6</ele>
        <time>2019-07-16T09:29:48Z</time>
      </trkpt>
      <trkpt lat="44.04136" lon="6.92075">
        <ele>1907.7</ele>
        <time>2019-07-16T09:29:51Z</time>
      </trkpt>
      <trkpt lat="44.04133" lon="6.92078">
        <ele>1907.9</ele>
        <time>2019-07-16T09:29:55Z</time>
      </trkpt>
      <trkpt lat="44.0413" lon="6.9208">
        <ele>1908</ele>
        <time>2019-07-16T09:29:58Z</time>
      </trkpt>
      <trkpt lat="44.04128" lon="6.92082">
        <ele>1908.1</ele>
        <time>2019-07-16T09:30:00Z</time>
      </trkpt>
      <trkpt lat="44.04125" lon="6.92086">
        <ele>1908.3</ele>
        <time>2019-07-16T09:30:02Z</time>
      </trkpt>
      <trkpt lat="44.04121" lon="6.92089">
        <ele>1908.6</ele>
        <time>2019-07-16T09:30:04Z</time>
      </trkpt>
      <trkpt lat="44.04119" lon="6.92091">
        <ele>1908.8</ele>
        <time>2019-07-16T09:30:06Z</time>
      </trkpt>
      <trkpt lat="44.04117" lon="6.92094">
        <ele>1909.1</ele>
        <time>2019-07-16T09:30:08Z</time>
      </trkpt>
      <trkpt lat="44.04115" lon="6.92097">
        <ele>1909.4</ele>
        <time>2019-07-16T09:30:10Z</time>
      </trkpt>
      <trkpt lat="44.04112" lon="6.92099">
        <ele>1909.8</ele>
        <time>2019-07-16T09:30:12Z</time>
      </trkpt>
      <trkpt lat="44.0411" lon="6.92101">
        <ele>1910.2</ele>
        <time>2019-07-16T09:30:14Z</time>
      </trkpt>
      <trkpt lat="44.04107" lon="6.92103">
        <ele>1910.7</ele>
        <time>2019-07-16T09:30:16Z</time>
      </trkpt>
      <trkpt lat="44.04104" lon="6.92104">
        <ele>1911.2</ele>
        <time>2019-07-16T09:30:18Z</time>
      </trkpt>
      <trkpt lat="44.041" lon="6.92104">
        <ele>1911.7</ele>
        <time>2019-07-16T09:30:21Z</time>
      </trkpt>
      <trkpt lat="44.04098" lon="6.92107">
        <ele>1912</ele>
        <time>2019-07-16T09:30:24Z</time>
      </trkpt>
      <trkpt lat="44.04096" lon="6.9211">
        <ele>1912.4</ele>
        <time>2019-07-16T09:30:27Z</time>
      </trkpt>
      <trkpt lat="44.04093" lon="6.9211">
        <ele>1912.7</ele>
        <time>2019-07-16T09:30:31Z</time>
      </trkpt>
      <trkpt lat="44.04091" lon="6.92108">
        <ele>1913.2</ele>
        <time>2019-07-16T09:30:37Z</time>
      </trkpt>
      <trkpt lat="44.04087" lon="6.92106">
        <ele>1914</ele>
        <time>2019-07-16T09:30:43Z</time>
      </trkpt>
      <trkpt lat="44.04085" lon="6.92109">
        <ele>1914.4</ele>
        <time>2019-07-16T09:30:47Z</time>
      </trkpt>
      <trkpt lat="44.04081" lon="6.92108">
        <ele>1915</ele>
        <time>2019-07-16T09:30:53Z</time>
      </trkpt>
      <trkpt lat="44.04081" lon="6.92113">
        <ele>1915.5</ele>
        <time>2019-07-16T09:35:05Z</time>
      </trkpt>
      <trkpt lat="44.04078" lon="6.92113">
        <ele>1915.9</ele>
        <time>2019-07-16T09:36:33Z</time>
      </trkpt>
      <trkpt lat="44.04074" lon="6.92114">
        <ele>1916.4</ele>
        <time>2019-07-16T09:36:36Z</time>
      </trkpt>
      <trkpt lat="44.0407" lon="6.92116">
        <ele>1916.8</ele>
        <time>2019-07-16T09:36:39Z</time>
      </trkpt>
      <trkpt lat="44.04067" lon="6.92116">
        <ele>1917.1</ele>
        <time>2019-07-16T09:36:41Z</time>
      </trkpt>
      <trkpt lat="44.04063" lon="6.92116">
        <ele>1917.4</ele>
        <time>2019-07-16T09:36:44Z</time>
      </trkpt>
      <trkpt lat="44.0406" lon="6.92117">
        <ele>1917.7</ele>
        <time>2019-07-16T09:36:46Z</time>
      </trkpt>
      <trkpt lat="44.04056" lon="6.92119">
        <ele>1918</ele>
        <time>2019-07-16T09:36:49Z</time>
      </trkpt>
      <trkpt lat="44.04054" lon="6.92121">
        <ele>1918.2</ele>
        <time>2019-07-16T09:36:54Z</time>
      </trkpt>
      <trkpt lat="44.04051" lon="6.9212">
        <ele>1918.4</ele>
        <time>2019-07-16T09:37:00Z</time>
      </trkpt>
      <trkpt lat="44.04048" lon="6.92119">
        <ele>1918.7</ele>
        <time>2019-07-16T09:37:06Z</time>
      </trkpt>
      <trkpt lat="44.04045" lon="6.92121">
        <ele>1919</ele>
        <time>2019-07-16T09:37:09Z</time>
      </trkpt>
      <trkpt lat="44.04042" lon="6.92124">
        <ele>1919.3</ele>
        <time>2019-07-16T09:37:11Z</time>
      </trkpt>
      <trkpt lat="44.04039" lon="6.92126">
        <ele>1919.6</ele>
        <time>2019-07-16T09:37:13Z</time>
      </trkpt>
      <trkpt lat="44.04035" lon="6.92128">
        <ele>1919.9</ele>
        <time>2019-07-16T09:37:15Z</time>
      </trkpt>
      <trkpt lat="44.04032" lon="6.92129">
        <ele>1920.2</ele>
        <time>2019-07-16T09:37:17Z</time>
      </trkpt>
      <trkpt lat="44.0403" lon="6.9213">
        <ele>1920.4</ele>
        <time>2019-07-16T09:37:19Z</time>
      </trkpt>
      <trkpt lat="44.04027" lon="6.9213">
        <ele>1920.7</ele>
        <time>2019-07-16T09:37:21Z</time>
      </trkpt>
      <trkpt lat="44.04024" lon="6.9213">
        <ele>1921</ele>
        <time>2019-07-16T09:37:23Z</time>
      </trkpt>
      <trkpt lat="44.0402" lon="6.92131">
        <ele>1921.3</ele>
        <time>2019-07-16T09:37:25Z</time>
      </trkpt>
      <trkpt lat="44.04017" lon="6.92132">
        <ele>1921.6</ele>
        <time>2019-07-16T09:37:27Z</time>
      </trkpt>
      <trkpt lat="44.04013" lon="6.92133">
        <ele>1922</ele>
        <time>2019-07-16T09:37:30Z</time>
      </trkpt>
      <trkpt lat="44.0401" lon="6.92134">
        <ele>1922.4</ele>
        <time>2019-07-16T09:37:33Z</time>
      </trkpt>
      <trkpt lat="44.04006" lon="6.92134">
        <ele>1922.8</ele>
        <time>2019-07-16T09:37:36Z</time>
      </trkpt>
      <trkpt lat="44.04003" lon="6.92134">
        <ele>1923.1</ele>
        <time>2019-07-16T09:37:38Z</time>
      </trkpt>
      <trkpt lat="44.04" lon="6.92135">
        <ele>1923.4</ele>
        <time>2019-07-16T09:37:40Z</time>
      </trkpt>
      <trkpt lat="44.03997" lon="6.92135">
        <ele>1923.8</ele>
        <time>2019-07-16T09:37:42Z</time>
      </trkpt>
      <trkpt lat="44.03994" lon="6.92134">
        <ele>1924.2</ele>
        <time>2019-07-16T09:37:44Z</time>
      </trkpt>
      <trkpt lat="44.03991" lon="6.92135">
        <ele>1924.5</ele>
        <time>2019-07-16T09:37:46Z</time>
      </trkpt>
      <trkpt lat="44.03988" lon="6.92136">
        <ele>1924.9</ele>
        <time>2019-07-16T09:37:48Z</time>
      </trkpt>
      <trkpt lat="44.03985" lon="6.92138">
        <ele>1925.2</ele>
        <time>2019-07-16T09:37:54Z</time>
      </trkpt>
      <trkpt lat="44.03982" lon="6.92137">
        <ele>1925.5</ele>
        <time>2019-07-16T09:37:58Z</time>
      </trkpt>
      <trkpt lat="44.03979" lon="6.92139">
        <ele>1925.8</ele>
        <time>2019-07-16T09:38:03Z</time>
      </trkpt>
      <trkpt lat="44.03976" lon="6.9214">
        <ele>1926.1</ele>
        <time>2019-07-16T09:38:10Z</time>
      </trkpt>
      <trkpt lat="44.03974" lon="6.92143">
        <ele>1926.3</ele>
        <time>2019-07-16T09:38:17Z</time>
      </trkpt>
      <trkpt lat="44.03971" lon="6.92144">
        <ele>1926.5</ele>
        <time>2019-07-16T09:38:19Z</time>
      </trkpt>
      <trkpt lat="44.03968" lon="6.92144">
        <ele>1926.7</ele>
        <time>2019-07-16T09:38:21Z</time>
      </trkpt>
      <trkpt lat="44.03965" lon="6.92144">
        <ele>1926.9</ele>
        <time>2019-07-16T09:38:23Z</time>
      </trkpt>
      <trkpt lat="44.03962" lon="6.92146">
        <ele>1927.1</ele>
        <time>2019-07-16T09:38:25Z</time>
      </trkpt>
      <trkpt lat="44.03959" lon="6.92146">
        <ele>1927.3</ele>
        <time>2019-07-16T09:38:28Z</time>
      </trkpt>
      <trkpt lat="44.03955" lon="6.92146">
        <ele>1927.5</ele>
        <time>2019-07-16T09:38:31Z</time>
      </trkpt>
      <trkpt lat="44.03952" lon="6.92146">
        <ele>1927.7</ele>
        <time>2019-07-16T09:38:33Z</time>
      </trkpt>
      <trkpt lat="44.03949" lon="6.92147">
        <ele>1927.9</ele>
        <time>2019-07-16T09:38:35Z</time>
      </trkpt>
      <trkpt lat="44.03947" lon="6.9215">
        <ele>1928.1</ele>
        <time>2019-07-16T09:38:37Z</time>
      </trkpt>
      <trkpt lat="44.03944" lon="6.92152">
        <ele>1928.3</ele>
        <time>2019-07-16T09:38:39Z</time>
      </trkpt>
      <trkpt lat="44.0394" lon="6.92154">
        <ele>1928.6</ele>
        <time>2019-07-16T09:38:41Z</time>
      </trkpt>
      <trkpt lat="44.03938" lon="6.92155">
        <ele>1928.8</ele>
        <time>2019-07-16T09:38:43Z</time>
      </trkpt>
      <trkpt lat="44.03935" lon="6.92157">
        <ele>1928.9</ele>
        <time>2019-07-16T09:38:45Z</time>
      </trkpt>
      <trkpt lat="44.03932" lon="6.92159">
        <ele>1929.2</ele>
        <time>2019-07-16T09:38:47Z</time>
      </trkpt>
      <trkpt lat="44.03929" lon="6.92159">
        <ele>1929.4</ele>
        <time>2019-07-16T09:38:49Z</time>
      </trkpt>
      <trkpt lat="44.03925" lon="6.92161">
        <ele>1929.8</ele>
        <time>2019-07-16T09:38:52Z</time>
      </trkpt>
      <trkpt lat="44.03922" lon="6.92162">
        <ele>1930.1</ele>
        <time>2019-07-16T09:38:54Z</time>
      </trkpt>
      <trkpt lat="44.03919" lon="6.92163">
        <ele>1930.3</ele>
        <time>2019-07-16T09:38:56Z</time>
      </trkpt>
      <trkpt lat="44.03916" lon="6.92162">
        <ele>1930.6</ele>
        <time>2019-07-16T09:38:58Z</time>
      </trkpt>
      <trkpt lat="44.03913" lon="6.92163">
        <ele>1930.9</ele>
        <time>2019-07-16T09:39:00Z</time>
      </trkpt>
      <trkpt lat="44.0391" lon="6.92164">
        <ele>1931.1</ele>
        <time>2019-07-16T09:39:02Z</time>
      </trkpt>
      <trkpt lat="44.03906" lon="6.92165">
        <ele>1931.4</ele>
        <time>2019-07-16T09:39:04Z</time>
      </trkpt>
      <trkpt lat="44.03904" lon="6.92167">
        <ele>1931.7</ele>
        <time>2019-07-16T09:39:06Z</time>
      </trkpt>
      <trkpt lat="44.03901" lon="6.92168">
        <ele>1932</ele>
        <time>2019-07-16T09:39:08Z</time>
      </trkpt>
      <trkpt lat="44.03897" lon="6.92169">
        <ele>1932.3</ele>
        <time>2019-07-16T09:39:11Z</time>
      </trkpt>
      <trkpt lat="44.03894" lon="6.92169">
        <ele>1932.5</ele>
        <time>2019-07-16T09:39:13Z</time>
      </trkpt>
      <trkpt lat="44.03891" lon="6.9217">
        <ele>1932.7</ele>
        <time>2019-07-16T09:39:15Z</time>
      </trkpt>
      <trkpt lat="44.03887" lon="6.9217">
        <ele>1933</ele>
        <time>2019-07-16T09:39:18Z</time>
      </trkpt>
      <trkpt lat="44.03884" lon="6.92172">
        <ele>1933.1</ele>
        <time>2019-07-16T09:39:20Z</time>
      </trkpt>
      <trkpt lat="44.03881" lon="6.92172">
        <ele>1933.3</ele>
        <time>2019-07-16T09:39:23Z</time>
      </trkpt>
      <trkpt lat="44.03877" lon="6.92172">
        <ele>1933.4</ele>
        <time>2019-07-16T09:39:26Z</time>
      </trkpt>
      <trkpt lat="44.03873" lon="6.92172">
        <ele>1933.5</ele>
        <time>2019-07-16T09:39:28Z</time>
      </trkpt>
      <trkpt lat="44.0387" lon="6.92172">
        <ele>1933.6</ele>
        <time>2019-07-16T09:39:30Z</time>
      </trkpt>
      <trkpt lat="44.03867" lon="6.92172">
        <ele>1933.7</ele>
        <time>2019-07-16T09:39:32Z</time>
      </trkpt>
      <trkpt lat="44.03862" lon="6.92174">
        <ele>1933.8</ele>
        <time>2019-07-16T09:39:34Z</time>
      </trkpt>
      <trkpt lat="44.03859" lon="6.92175">
        <ele>1933.9</ele>
        <time>2019-07-16T09:39:35Z</time>
      </trkpt>
      <trkpt lat="44.03856" lon="6.92175">
        <ele>1933.9</ele>
        <time>2019-07-16T09:39:36Z</time>
      </trkpt>
      <trkpt lat="44.03854" lon="6.92176">
        <ele>1934</ele>
        <time>2019-07-16T09:39:37Z</time>
      </trkpt>
      <trkpt lat="44.03851" lon="6.92176">
        <ele>1934.1</ele>
        <time>2019-07-16T09:39:38Z</time>
      </trkpt>
      <trkpt lat="44.03845" lon="6.92175">
        <ele>1934.3</ele>
        <time>2019-07-16T09:39:40Z</time>
      </trkpt>
      <trkpt lat="44.03843" lon="6.92174">
        <ele>1934.3</ele>
        <time>2019-07-16T09:39:41Z</time>
      </trkpt>
      <trkpt lat="44.0384" lon="6.92173">
        <ele>1934.3</ele>
        <time>2019-07-16T09:39:42Z</time>
      </trkpt>
      <trkpt lat="44.03835" lon="6.92172">
        <ele>1934.3</ele>
        <time>2019-07-16T09:39:44Z</time>
      </trkpt>
      <trkpt lat="44.0383" lon="6.92174">
        <ele>1934.1</ele>
        <time>2019-07-16T09:39:46Z</time>
      </trkpt>
      <trkpt lat="44.03827" lon="6.92175">
        <ele>1934.1</ele>
        <time>2019-07-16T09:39:47Z</time>
      </trkpt>
      <trkpt lat="44.03824" lon="6.92176">
        <ele>1933.9</ele>
        <time>2019-07-16T09:39:48Z</time>
      </trkpt>
      <trkpt lat="44.03821" lon="6.92177">
        <ele>1933.8</ele>
        <time>2019-07-16T09:39:49Z</time>
      </trkpt>
      <trkpt lat="44.03817" lon="6.92178">
        <ele>1933.6</ele>
        <time>2019-07-16T09:39:50Z</time>
      </trkpt>
      <trkpt lat="44.03814" lon="6.92179">
        <ele>1933.4</ele>
        <time>2019-07-16T09:39:51Z</time>
      </trkpt>
      <trkpt lat="44.0381" lon="6.9218">
        <ele>1933.1</ele>
        <time>2019-07-16T09:39:52Z</time>
      </trkpt>
      <trkpt lat="44.03808" lon="6.92182">
        <ele>1933</ele>
        <time>2019-07-16T09:39:53Z</time>
      </trkpt>
      <trkpt lat="44.03805" lon="6.92183">
        <ele>1932.8</ele>
        <time>2019-07-16T09:39:54Z</time>
      </trkpt>
      <trkpt lat="44.038" lon="6.92186">
        <ele>1932.3</ele>
        <time>2019-07-16T09:39:56Z</time>
      </trkpt>
      <trkpt lat="44.03796" lon="6.92188">
        <ele>1932.1</ele>
        <time>2019-07-16T09:39:57Z</time>
      </trkpt>
      <trkpt lat="44.03793" lon="6.9219">
        <ele>1931.8</ele>
        <time>2019-07-16T09:39:58Z</time>
      </trkpt>
      <trkpt lat="44.03789" lon="6.92192">
        <ele>1931.5</ele>
        <time>2019-07-16T09:39:59Z</time>
      </trkpt>
      <trkpt lat="44.03786" lon="6.92194">
        <ele>1931.2</ele>
        <time>2019-07-16T09:40:00Z</time>
      </trkpt>
      <trkpt lat="44.03783" lon="6.92195">
        <ele>1931</ele>
        <time>2019-07-16T09:40:01Z</time>
      </trkpt>
      <trkpt lat="44.03779" lon="6.92197">
        <ele>1930.8</ele>
        <time>2019-07-16T09:40:03Z</time>
      </trkpt>
      <trkpt lat="44.03777" lon="6.92199">
        <ele>1930.6</ele>
        <time>2019-07-16T09:40:05Z</time>
      </trkpt>
      <trkpt lat="44.03774" lon="6.922">
        <ele>1930.5</ele>
        <time>2019-07-16T09:40:07Z</time>
      </trkpt>
      <trkpt lat="44.0377" lon="6.922">
        <ele>1930.3</ele>
        <time>2019-07-16T09:40:10Z</time>
      </trkpt>
      <trkpt lat="44.03767" lon="6.92199">
        <ele>1930.2</ele>
        <time>2019-07-16T09:40:12Z</time>
      </trkpt>
      <trkpt lat="44.03763" lon="6.92201">
        <ele>1930</ele>
        <time>2019-07-16T09:40:14Z</time>
      </trkpt>
      <trkpt lat="44.0376" lon="6.92203">
        <ele>1929.9</ele>
        <time>2019-07-16T09:40:16Z</time>
      </trkpt>
      <trkpt lat="44.03757" lon="6.92204">
        <ele>1929.8</ele>
        <time>2019-07-16T09:40:18Z</time>
      </trkpt>
      <trkpt lat="44.03752" lon="6.92207">
        <ele>1929.7</ele>
        <time>2019-07-16T09:40:20Z</time>
      </trkpt>
      <trkpt lat="44.03749" lon="6.92209">
        <ele>1929.6</ele>
        <time>2019-07-16T09:40:22Z</time>
      </trkpt>
      <trkpt lat="44.03746" lon="6.92215">
        <ele>1929.6</ele>
        <time>2019-07-16T09:40:24Z</time>
      </trkpt>
      <trkpt lat="44.03744" lon="6.92218">
        <ele>1929.7</ele>
        <time>2019-07-16T09:40:25Z</time>
      </trkpt>
      <trkpt lat="44.03741" lon="6.92221">
        <ele>1929.7</ele>
        <time>2019-07-16T09:40:26Z</time>
      </trkpt>
      <trkpt lat="44.03738" lon="6.92226">
        <ele>1929.8</ele>
        <time>2019-07-16T09:40:27Z</time>
      </trkpt>
      <trkpt lat="44.03736" lon="6.9223">
        <ele>1930</ele>
        <time>2019-07-16T09:40:28Z</time>
      </trkpt>
      <trkpt lat="44.03733" lon="6.92233">
        <ele>1930.1</ele>
        <time>2019-07-16T09:40:29Z</time>
      </trkpt>
      <trkpt lat="44.0373" lon="6.92238">
        <ele>1930.2</ele>
        <time>2019-07-16T09:40:31Z</time>
      </trkpt>
      <trkpt lat="44.03728" lon="6.92241">
        <ele>1930.3</ele>
        <time>2019-07-16T09:40:33Z</time>
      </trkpt>
      <trkpt lat="44.03726" lon="6.92245">
        <ele>1930.3</ele>
        <time>2019-07-16T09:40:36Z</time>
      </trkpt>
      <trkpt lat="44.03724" lon="6.92249">
        <ele>1930.4</ele>
        <time>2019-07-16T09:40:39Z</time>
      </trkpt>
      <trkpt lat="44.03721" lon="6.92252">
        <ele>1930.4</ele>
        <time>2019-07-16T09:40:41Z</time>
      </trkpt>
      <trkpt lat="44.03719" lon="6.92256">
        <ele>1930.4</ele>
        <time>2019-07-16T09:40:43Z</time>
      </trkpt>
      <trkpt lat="44.03717" lon="6.9226">
        <ele>1930.4</ele>
        <time>2019-07-16T09:40:45Z</time>
      </trkpt>
      <trkpt lat="44.03715" lon="6.92263">
        <ele>1930.4</ele>
        <time>2019-07-16T09:40:47Z</time>
      </trkpt>
      <trkpt lat="44.03713" lon="6.92266">
        <ele>1930.4</ele>
        <time>2019-07-16T09:40:50Z</time>
      </trkpt>
      <trkpt lat="44.0371" lon="6.92269">
        <ele>1930.4</ele>
        <time>2019-07-16T09:40:52Z</time>
      </trkpt>
      <trkpt lat="44.03708" lon="6.92274">
        <ele>1930.4</ele>
        <time>2019-07-16T09:40:54Z</time>
      </trkpt>
      <trkpt lat="44.03706" lon="6.92277">
        <ele>1930.5</ele>
        <time>2019-07-16T09:40:56Z</time>
      </trkpt>
      <trkpt lat="44.03704" lon="6.92281">
        <ele>1930.6</ele>
        <time>2019-07-16T09:40:58Z</time>
      </trkpt>
      <trkpt lat="44.03702" lon="6.92284">
        <ele>1930.7</ele>
        <time>2019-07-16T09:41:00Z</time>
      </trkpt>
      <trkpt lat="44.037" lon="6.92287">
        <ele>1930.8</ele>
        <time>2019-07-16T09:41:02Z</time>
      </trkpt>
      <trkpt lat="44.03697" lon="6.92291">
        <ele>1931</ele>
        <time>2019-07-16T09:41:05Z</time>
      </trkpt>
      <trkpt lat="44.03695" lon="6.92294">
        <ele>1931.2</ele>
        <time>2019-07-16T09:41:07Z</time>
      </trkpt>
      <trkpt lat="44.03693" lon="6.92298">
        <ele>1931.4</ele>
        <time>2019-07-16T09:41:09Z</time>
      </trkpt>
      <trkpt lat="44.03691" lon="6.92302">
        <ele>1931.6</ele>
        <time>2019-07-16T09:41:11Z</time>
      </trkpt>
      <trkpt lat="44.03688" lon="6.92305">
        <ele>1931.9</ele>
        <time>2019-07-16T09:41:13Z</time>
      </trkpt>
      <trkpt lat="44.03687" lon="6.92309">
        <ele>1932.1</ele>
        <time>2019-07-16T09:41:15Z</time>
      </trkpt>
      <trkpt lat="44.03685" lon="6.92312">
        <ele>1932.3</ele>
        <time>2019-07-16T09:41:17Z</time>
      </trkpt>
      <trkpt lat="44.03683" lon="6.92315">
        <ele>1932.4</ele>
        <time>2019-07-16T09:41:20Z</time>
      </trkpt>
      <trkpt lat="44.03681" lon="6.92317">
        <ele>1932.5</ele>
        <time>2019-07-16T09:41:24Z</time>
      </trkpt>
      <trkpt lat="44.03679" lon="6.92321">
        <ele>1932.7</ele>
        <time>2019-07-16T09:41:31Z</time>
      </trkpt>
      <trkpt lat="44.03677" lon="6.92323">
        <ele>1932.8</ele>
        <time>2019-07-16T09:41:34Z</time>
      </trkpt>
      <trkpt lat="44.03674" lon="6.92326">
        <ele>1933</ele>
        <time>2019-07-16T09:41:38Z</time>
      </trkpt>
      <trkpt lat="44.03672" lon="6.9233">
        <ele>1933.1</ele>
        <time>2019-07-16T09:41:40Z</time>
      </trkpt>
      <trkpt lat="44.0367" lon="6.92334">
        <ele>1933.2</ele>
        <time>2019-07-16T09:41:42Z</time>
      </trkpt>
      <trkpt lat="44.03667" lon="6.92338">
        <ele>1933.3</ele>
        <time>2019-07-16T09:41:44Z</time>
      </trkpt>
      <trkpt lat="44.03665" lon="6.92341">
        <ele>1933.4</ele>
        <time>2019-07-16T09:41:46Z</time>
      </trkpt>
      <trkpt lat="44.03662" lon="6.92345">
        <ele>1933.5</ele>
        <time>2019-07-16T09:41:48Z</time>
      </trkpt>
      <trkpt lat="44.0366" lon="6.92349">
        <ele>1933.7</ele>
        <time>2019-07-16T09:41:50Z</time>
      </trkpt>
      <trkpt lat="44.03657" lon="6.92352">
        <ele>1933.8</ele>
        <time>2019-07-16T09:41:52Z</time>
      </trkpt>
      <trkpt lat="44.03656" lon="6.92355">
        <ele>1933.8</ele>
        <time>2019-07-16T09:41:54Z</time>
      </trkpt>
      <trkpt lat="44.03653" lon="6.92358">
        <ele>1934</ele>
        <time>2019-07-16T09:41:57Z</time>
      </trkpt>
      <trkpt lat="44.03651" lon="6.92361">
        <ele>1934.1</ele>
        <time>2019-07-16T09:41:59Z</time>
      </trkpt>
      <trkpt lat="44.03649" lon="6.92363">
        <ele>1934.2</ele>
        <time>2019-07-16T09:42:01Z</time>
      </trkpt>
      <trkpt lat="44.03645" lon="6.92364">
        <ele>1934.3</ele>
        <time>2019-07-16T09:42:04Z</time>
      </trkpt>
      <trkpt lat="44.03642" lon="6.92366">
        <ele>1934.4</ele>
        <time>2019-07-16T09:42:06Z</time>
      </trkpt>
      <trkpt lat="44.03638" lon="6.92366">
        <ele>1934.6</ele>
        <time>2019-07-16T09:42:29Z</time>
      </trkpt>
      <trkpt lat="44.03635" lon="6.92365">
        <ele>1934.8</ele>
        <time>2019-07-16T09:42:32Z</time>
      </trkpt>
      <trkpt lat="44.03631" lon="6.92366">
        <ele>1935</ele>
        <time>2019-07-16T09:42:34Z</time>
      </trkpt>
      <trkpt lat="44.03626" lon="6.92368">
        <ele>1935.2</ele>
        <time>2019-07-16T09:42:36Z</time>
      </trkpt>
      <trkpt lat="44.03621" lon="6.92369">
        <ele>1935.5</ele>
        <time>2019-07-16T09:42:38Z</time>
      </trkpt>
      <trkpt lat="44.03618" lon="6.92369">
        <ele>1935.7</ele>
        <time>2019-07-16T09:42:39Z</time>
      </trkpt>
      <trkpt lat="44.03614" lon="6.92371">
        <ele>1936</ele>
        <time>2019-07-16T09:42:41Z</time>
      </trkpt>
      <trkpt lat="44.03611" lon="6.92371">
        <ele>1936.2</ele>
        <time>2019-07-16T09:42:43Z</time>
      </trkpt>
      <trkpt lat="44.03609" lon="6.9237">
        <ele>1936.4</ele>
        <time>2019-07-16T09:42:45Z</time>
      </trkpt>
      <trkpt lat="44.03606" lon="6.92368">
        <ele>1936.6</ele>
        <time>2019-07-16T09:42:47Z</time>
      </trkpt>
      <trkpt lat="44.03603" lon="6.92367">
        <ele>1936.8</ele>
        <time>2019-07-16T09:42:49Z</time>
      </trkpt>
      <trkpt lat="44.03599" lon="6.92366">
        <ele>1937.1</ele>
        <time>2019-07-16T09:42:52Z</time>
      </trkpt>
      <trkpt lat="44.03597" lon="6.92362">
        <ele>1937.3</ele>
        <time>2019-07-16T09:42:55Z</time>
      </trkpt>
      <trkpt lat="44.03593" lon="6.92364">
        <ele>1937.6</ele>
        <time>2019-07-16T09:42:58Z</time>
      </trkpt>
      <trkpt lat="44.03591" lon="6.92365">
        <ele>1937.8</ele>
        <time>2019-07-16T09:43:00Z</time>
      </trkpt>
      <trkpt lat="44.03588" lon="6.92364">
        <ele>1938</ele>
        <time>2019-07-16T09:43:02Z</time>
      </trkpt>
      <trkpt lat="44.03584" lon="6.92365">
        <ele>1938.2</ele>
        <time>2019-07-16T09:43:04Z</time>
      </trkpt>
      <trkpt lat="44.03581" lon="6.92366">
        <ele>1938.3</ele>
        <time>2019-07-16T09:43:06Z</time>
      </trkpt>
      <trkpt lat="44.03578" lon="6.92366">
        <ele>1938.5</ele>
        <time>2019-07-16T09:43:08Z</time>
      </trkpt>
      <trkpt lat="44.03575" lon="6.92366">
        <ele>1938.6</ele>
        <time>2019-07-16T09:43:10Z</time>
      </trkpt>
      <trkpt lat="44.03572" lon="6.92366">
        <ele>1938.7</ele>
        <time>2019-07-16T09:43:12Z</time>
      </trkpt>
      <trkpt lat="44.03569" lon="6.92367">
        <ele>1938.8</ele>
        <time>2019-07-16T09:43:14Z</time>
      </trkpt>
      <trkpt lat="44.03566" lon="6.92368">
        <ele>1938.8</ele>
        <time>2019-07-16T09:43:16Z</time>
      </trkpt>
      <trkpt lat="44.03563" lon="6.92369">
        <ele>1938.9</ele>
        <time>2019-07-16T09:43:18Z</time>
      </trkpt>
      <trkpt lat="44.03559" lon="6.9237">
        <ele>1938.9</ele>
        <time>2019-07-16T09:43:20Z</time>
      </trkpt>
      <trkpt lat="44.03556" lon="6.9237">
        <ele>1939</ele>
        <time>2019-07-16T09:43:22Z</time>
      </trkpt>
      <trkpt lat="44.03553" lon="6.92371">
        <ele>1939</ele>
        <time>2019-07-16T09:43:24Z</time>
      </trkpt>
      <trkpt lat="44.03549" lon="6.92371">
        <ele>1939.1</ele>
        <time>2019-07-16T09:43:27Z</time>
      </trkpt>
      <trkpt lat="44.03546" lon="6.9237">
        <ele>1939.1</ele>
        <time>2019-07-16T09:43:29Z</time>
      </trkpt>
      <trkpt lat="44.03544" lon="6.9237">
        <ele>1939.2</ele>
        <time>2019-07-16T09:43:56Z</time>
      </trkpt>
      <trkpt lat="44.0354" lon="6.92371">
        <ele>1939.3</ele>
        <time>2019-07-16T09:43:59Z</time>
      </trkpt>
      <trkpt lat="44.03537" lon="6.9237">
        <ele>1939.4</ele>
        <time>2019-07-16T09:44:02Z</time>
      </trkpt>
      <trkpt lat="44.03535" lon="6.92376">
        <ele>1939.6</ele>
        <time>2019-07-16T09:44:09Z</time>
      </trkpt>
      <trkpt lat="44.03533" lon="6.92378">
        <ele>1939.7</ele>
        <time>2019-07-16T09:44:14Z</time>
      </trkpt>
      <trkpt lat="44.03531" lon="6.92381">
        <ele>1939.8</ele>
        <time>2019-07-16T09:44:16Z</time>
      </trkpt>
      <trkpt lat="44.03528" lon="6.92384">
        <ele>1939.9</ele>
        <time>2019-07-16T09:44:18Z</time>
      </trkpt>
      <trkpt lat="44.03525" lon="6.92386">
        <ele>1940.1</ele>
        <time>2019-07-16T09:44:21Z</time>
      </trkpt>
      <trkpt lat="44.03522" lon="6.92389">
        <ele>1940.3</ele>
        <time>2019-07-16T09:44:24Z</time>
      </trkpt>
      <trkpt lat="44.0352" lon="6.92392">
        <ele>1940.4</ele>
        <time>2019-07-16T09:44:26Z</time>
      </trkpt>
      <trkpt lat="44.03518" lon="6.92395">
        <ele>1940.5</ele>
        <time>2019-07-16T09:44:28Z</time>
      </trkpt>
      <trkpt lat="44.03515" lon="6.92396">
        <ele>1940.6</ele>
        <time>2019-07-16T09:44:30Z</time>
      </trkpt>
      <trkpt lat="44.03512" lon="6.92398">
        <ele>1940.7</ele>
        <time>2019-07-16T09:44:32Z</time>
      </trkpt>
      <trkpt lat="44.03509" lon="6.924">
        <ele>1940.8</ele>
        <time>2019-07-16T09:44:35Z</time>
      </trkpt>
      <trkpt lat="44.03506" lon="6.92402">
        <ele>1940.9</ele>
        <time>2019-07-16T09:44:38Z</time>
      </trkpt>
      <trkpt lat="44.03503" lon="6.92406">
        <ele>1941</ele>
        <time>2019-07-16T09:44:41Z</time>
      </trkpt>
      <trkpt lat="44.035" lon="6.92407">
        <ele>1941.1</ele>
        <time>2019-07-16T09:44:43Z</time>
      </trkpt>
      <trkpt lat="44.03497" lon="6.92408">
        <ele>1941.2</ele>
        <time>2019-07-16T09:44:45Z</time>
      </trkpt>
      <trkpt lat="44.03494" lon="6.92411">
        <ele>1941.3</ele>
        <time>2019-07-16T09:44:48Z</time>
      </trkpt>
      <trkpt lat="44.03491" lon="6.92413">
        <ele>1941.4</ele>
        <time>2019-07-16T09:44:50Z</time>
      </trkpt>
      <trkpt lat="44.03489" lon="6.92415">
        <ele>1941.5</ele>
        <time>2019-07-16T09:44:52Z</time>
      </trkpt>
      <trkpt lat="44.03486" lon="6.92418">
        <ele>1941.7</ele>
        <time>2019-07-16T09:44:55Z</time>
      </trkpt>
      <trkpt lat="44.03483" lon="6.92421">
        <ele>1942</ele>
        <time>2019-07-16T09:44:57Z</time>
      </trkpt>
      <trkpt lat="44.0348" lon="6.92422">
        <ele>1942.2</ele>
        <time>2019-07-16T09:44:59Z</time>
      </trkpt>
      <trkpt lat="44.03478" lon="6.92424">
        <ele>1942.4</ele>
        <time>2019-07-16T09:45:01Z</time>
      </trkpt>
      <trkpt lat="44.03475" lon="6.92425">
        <ele>1942.7</ele>
        <time>2019-07-16T09:45:03Z</time>
      </trkpt>
      <trkpt lat="44.03473" lon="6.92428">
        <ele>1943</ele>
        <time>2019-07-16T09:45:05Z</time>
      </trkpt>
      <trkpt lat="44.0347" lon="6.9243">
        <ele>1943.3</ele>
        <time>2019-07-16T09:45:07Z</time>
      </trkpt>
      <trkpt lat="44.03468" lon="6.92433">
        <ele>1943.7</ele>
        <time>2019-07-16T09:45:09Z</time>
      </trkpt>
      <trkpt lat="44.03466" lon="6.92436">
        <ele>1944</ele>
        <time>2019-07-16T09:45:11Z</time>
      </trkpt>
      <trkpt lat="44.03463" lon="6.92438">
        <ele>1944.3</ele>
        <time>2019-07-16T09:45:13Z</time>
      </trkpt>
      <trkpt lat="44.0346" lon="6.92441">
        <ele>1944.7</ele>
        <time>2019-07-16T09:45:16Z</time>
      </trkpt>
      <trkpt lat="44.03457" lon="6.92443">
        <ele>1945.1</ele>
        <time>2019-07-16T09:45:18Z</time>
      </trkpt>
      <trkpt lat="44.03454" lon="6.92447">
        <ele>1945.5</ele>
        <time>2019-07-16T09:45:21Z</time>
      </trkpt>
      <trkpt lat="44.03451" lon="6.92448">
        <ele>1945.8</ele>
        <time>2019-07-16T09:45:23Z</time>
      </trkpt>
      <trkpt lat="44.03448" lon="6.92451">
        <ele>1946.1</ele>
        <time>2019-07-16T09:45:25Z</time>
      </trkpt>
      <trkpt lat="44.03445" lon="6.92452">
        <ele>1946.4</ele>
        <time>2019-07-16T09:45:27Z</time>
      </trkpt>
      <trkpt lat="44.03442" lon="6.92454">
        <ele>1946.8</ele>
        <time>2019-07-16T09:45:30Z</time>
      </trkpt>
      <trkpt lat="44.03439" lon="6.92456">
        <ele>1947</ele>
        <time>2019-07-16T09:45:32Z</time>
      </trkpt>
      <trkpt lat="44.03437" lon="6.92458">
        <ele>1947.2</ele>
        <time>2019-07-16T09:45:34Z</time>
      </trkpt>
      <trkpt lat="44.03434" lon="6.9246">
        <ele>1947.4</ele>
        <time>2019-07-16T09:45:36Z</time>
      </trkpt>
      <trkpt lat="44.03432" lon="6.92461">
        <ele>1947.6</ele>
        <time>2019-07-16T09:45:38Z</time>
      </trkpt>
      <trkpt lat="44.03429" lon="6.92462">
        <ele>1947.9</ele>
        <time>2019-07-16T09:45:40Z</time>
      </trkpt>
      <trkpt lat="44.03426" lon="6.92463">
        <ele>1948.1</ele>
        <time>2019-07-16T09:45:43Z</time>
      </trkpt>
      <trkpt lat="44.03423" lon="6.92464">
        <ele>1948.4</ele>
        <time>2019-07-16T09:45:45Z</time>
      </trkpt>
      <trkpt lat="44.0342" lon="6.92466">
        <ele>1948.7</ele>
        <time>2019-07-16T09:45:47Z</time>
      </trkpt>
      <trkpt lat="44.03416" lon="6.92468">
        <ele>1949</ele>
        <time>2019-07-16T09:45:50Z</time>
      </trkpt>
      <trkpt lat="44.03413" lon="6.92471">
        <ele>1949.3</ele>
        <time>2019-07-16T09:45:52Z</time>
      </trkpt>
      <trkpt lat="44.0341" lon="6.92472">
        <ele>1949.6</ele>
        <time>2019-07-16T09:45:54Z</time>
      </trkpt>
      <trkpt lat="44.03407" lon="6.92475">
        <ele>1950</ele>
        <time>2019-07-16T09:45:57Z</time>
      </trkpt>
      <trkpt lat="44.03403" lon="6.92477">
        <ele>1950.3</ele>
        <time>2019-07-16T09:46:00Z</time>
      </trkpt>
      <trkpt lat="44.034" lon="6.92478">
        <ele>1950.7</ele>
        <time>2019-07-16T09:46:03Z</time>
      </trkpt>
      <trkpt lat="44.03397" lon="6.9248">
        <ele>1951</ele>
        <time>2019-07-16T09:46:05Z</time>
      </trkpt>
      <trkpt lat="44.03394" lon="6.92481">
        <ele>1951.4</ele>
        <time>2019-07-16T09:46:08Z</time>
      </trkpt>
      <trkpt lat="44.03391" lon="6.92482">
        <ele>1951.7</ele>
        <time>2019-07-16T09:46:10Z</time>
      </trkpt>
      <trkpt lat="44.03388" lon="6.92484">
        <ele>1952.1</ele>
        <time>2019-07-16T09:46:12Z</time>
      </trkpt>
      <trkpt lat="44.03385" lon="6.92487">
        <ele>1952.5</ele>
        <time>2019-07-16T09:46:15Z</time>
      </trkpt>
      <trkpt lat="44.03381" lon="6.92489">
        <ele>1953</ele>
        <time>2019-07-16T09:46:18Z</time>
      </trkpt>
      <trkpt lat="44.03378" lon="6.9249">
        <ele>1953.4</ele>
        <time>2019-07-16T09:46:20Z</time>
      </trkpt>
      <trkpt lat="44.03375" lon="6.92492">
        <ele>1953.7</ele>
        <time>2019-07-16T09:46:22Z</time>
      </trkpt>
      <trkpt lat="44.03372" lon="6.92494">
        <ele>1954.2</ele>
        <time>2019-07-16T09:46:25Z</time>
      </trkpt>
      <trkpt lat="44.0337" lon="6.92497">
        <ele>1954.5</ele>
        <time>2019-07-16T09:46:27Z</time>
      </trkpt>
      <trkpt lat="44.03366" lon="6.92499">
        <ele>1955</ele>
        <time>2019-07-16T09:46:30Z</time>
      </trkpt>
      <trkpt lat="44.03363" lon="6.925">
        <ele>1955.4</ele>
        <time>2019-07-16T09:46:33Z</time>
      </trkpt>
      <trkpt lat="44.0336" lon="6.92501">
        <ele>1955.8</ele>
        <time>2019-07-16T09:46:35Z</time>
      </trkpt>
      <trkpt lat="44.03356" lon="6.92502">
        <ele>1956.2</ele>
        <time>2019-07-16T09:46:38Z</time>
      </trkpt>
      <trkpt lat="44.03353" lon="6.92501">
        <ele>1956.6</ele>
        <time>2019-07-16T09:46:40Z</time>
      </trkpt>
      <trkpt lat="44.0335" lon="6.92501">
        <ele>1957</ele>
        <time>2019-07-16T09:46:43Z</time>
      </trkpt>
      <trkpt lat="44.03346" lon="6.925">
        <ele>1957.4</ele>
        <time>2019-07-16T09:46:46Z</time>
      </trkpt>
      <trkpt lat="44.03343" lon="6.925">
        <ele>1957.8</ele>
        <time>2019-07-16T09:46:49Z</time>
      </trkpt>
      <trkpt lat="44.0334" lon="6.92499">
        <ele>1958.2</ele>
        <time>2019-07-16T09:46:51Z</time>
      </trkpt>
      <trkpt lat="44.03337" lon="6.92498">
        <ele>1958.6</ele>
        <time>2019-07-16T09:46:54Z</time>
      </trkpt>
      <trkpt lat="44.03333" lon="6.92498">
        <ele>1959.1</ele>
        <time>2019-07-16T09:46:57Z</time>
      </trkpt>
      <trkpt lat="44.0333" lon="6.92497">
        <ele>1959.6</ele>
        <time>2019-07-16T09:47:00Z</time>
      </trkpt>
      <trkpt lat="44.03329" lon="6.92493">
        <ele>1960</ele>
        <time>2019-07-16T09:47:05Z</time>
      </trkpt>
      <trkpt lat="44.03327" lon="6.92491">
        <ele>1960.4</ele>
        <time>2019-07-16T09:47:09Z</time>
      </trkpt>
      <trkpt lat="44.03329" lon="6.92492">
        <ele>1960.8</ele>
        <time>2019-07-16T09:47:43Z</time>
      </trkpt>
      <trkpt lat="44.03328" lon="6.92489">
        <ele>1961.3</ele>
        <time>2019-07-16T09:47:52Z</time>
      </trkpt>
      <trkpt lat="44.03326" lon="6.92493">
        <ele>1961.7</ele>
        <time>2019-07-16T09:47:59Z</time>
      </trkpt>
      <trkpt lat="44.03324" lon="6.92494">
        <ele>1962</ele>
        <time>2019-07-16T09:48:02Z</time>
      </trkpt>
      <trkpt lat="44.03321" lon="6.92496">
        <ele>1962.4</ele>
        <time>2019-07-16T09:48:08Z</time>
      </trkpt>
      <trkpt lat="44.03325" lon="6.92495">
        <ele>1962.9</ele>
        <time>2019-07-16T09:48:55Z</time>
      </trkpt>
      <trkpt lat="44.03322" lon="6.92492">
        <ele>1963.3</ele>
        <time>2019-07-16T09:49:25Z</time>
      </trkpt>
      <trkpt lat="44.03324" lon="6.92496">
        <ele>1963.7</ele>
        <time>2019-07-16T09:49:51Z</time>
      </trkpt>
      <trkpt lat="44.03327" lon="6.92496">
        <ele>1964.1</ele>
        <time>2019-07-16T09:49:54Z</time>
      </trkpt>
      <trkpt lat="44.03327" lon="6.92492">
        <ele>1964.4</ele>
        <time>2019-07-16T09:50:27Z</time>
      </trkpt>
      <trkpt lat="44.0333" lon="6.92491">
        <ele>1964.8</ele>
        <time>2019-07-16T09:50:42Z</time>
      </trkpt>
      <trkpt lat="44.03333" lon="6.92495">
        <ele>1965.2</ele>
        <time>2019-07-16T10:18:42Z</time>
      </trkpt>
      <trkpt lat="44.0333" lon="6.92492">
        <ele>1965.7</ele>
        <time>2019-07-16T10:19:07Z</time>
      </trkpt>
      <trkpt lat="44.03332" lon="6.92494">
        <ele>1966.1</ele>
        <time>2019-07-16T10:21:46Z</time>
      </trkpt>
      <trkpt lat="44.03335" lon="6.92496">
        <ele>1966.5</ele>
        <time>2019-07-16T10:21:49Z</time>
      </trkpt>
      <trkpt lat="44.03336" lon="6.92502">
        <ele>1967</ele>
        <time>2019-07-16T10:21:52Z</time>
      </trkpt>
      <trkpt lat="44.03334" lon="6.92505">
        <ele>1967.4</ele>
        <time>2019-07-16T10:21:55Z</time>
      </trkpt>
      <trkpt lat="44.03333" lon="6.92501">
        <ele>1967.8</ele>
        <time>2019-07-16T10:21:59Z</time>
      </trkpt>
      <trkpt lat="44.03333" lon="6.92496">
        <ele>1968.3</ele>
        <time>2019-07-16T10:22:02Z</time>
      </trkpt>
      <trkpt lat="44.0333" lon="6.92493">
        <ele>1968.7</ele>
        <time>2019-07-16T10:22:05Z</time>
      </trkpt>
      <trkpt lat="44.03327" lon="6.92493">
        <ele>1968.6</ele>
        <time>2019-07-16T10:22:08Z</time>
      </trkpt>
      <trkpt lat="44.03325" lon="6.9249">
        <ele>1968.4</ele>
        <time>2019-07-16T10:22:19Z</time>
      </trkpt>
      <trkpt lat="44.03322" lon="6.92488">
        <ele>1968.2</ele>
        <time>2019-07-16T10:22:21Z</time>
      </trkpt>
      <trkpt lat="44.03318" lon="6.92486">
        <ele>1967.6</ele>
        <time>2019-07-16T10:22:23Z</time>
      </trkpt>
      <trkpt lat="44.03315" lon="6.92481">
        <ele>1967</ele>
        <time>2019-07-16T10:22:25Z</time>
      </trkpt>
      <trkpt lat="44.03315" lon="6.92477">
        <ele>1966.6</ele>
        <time>2019-07-16T10:22:26Z</time>
      </trkpt>
      <trkpt lat="44.03315" lon="6.92473">
        <ele>1966.2</ele>
        <time>2019-07-16T10:22:27Z</time>
      </trkpt>
      <trkpt lat="44.03314" lon="6.92469">
        <ele>1965.7</ele>
        <time>2019-07-16T10:22:28Z</time>
      </trkpt>
      <trkpt lat="44.03313" lon="6.92465">
        <ele>1965.3</ele>
        <time>2019-07-16T10:22:29Z</time>
      </trkpt>
      <trkpt lat="44.03312" lon="6.92461">
        <ele>1964.5</ele>
        <time>2019-07-16T10:22:30Z</time>
      </trkpt>
      <trkpt lat="44.03312" lon="6.92457">
        <ele>1963.7</ele>
        <time>2019-07-16T10:22:31Z</time>
      </trkpt>
      <trkpt lat="44.03312" lon="6.92452">
        <ele>1962.7</ele>
        <time>2019-07-16T10:22:33Z</time>
      </trkpt>
      <trkpt lat="44.03313" lon="6.92446">
        <ele>1961.7</ele>
        <time>2019-07-16T10:22:35Z</time>
      </trkpt>
      <trkpt lat="44.03312" lon="6.92441">
        <ele>1960.9</ele>
        <time>2019-07-16T10:22:37Z</time>
      </trkpt>
      <trkpt lat="44.0331" lon="6.92435">
        <ele>1960</ele>
        <time>2019-07-16T10:22:39Z</time>
      </trkpt>
      <trkpt lat="44.03311" lon="6.92431">
        <ele>1959.4</ele>
        <time>2019-07-16T10:22:42Z</time>
      </trkpt>
      <trkpt lat="44.0331" lon="6.92427">
        <ele>1958.8</ele>
        <time>2019-07-16T10:22:45Z</time>
      </trkpt>
      <trkpt lat="44.0331" lon="6.92422">
        <ele>1958.1</ele>
        <time>2019-07-16T10:22:47Z</time>
      </trkpt>
      <trkpt lat="44.0331" lon="6.92417">
        <ele>1957.4</ele>
        <time>2019-07-16T10:22:49Z</time>
      </trkpt>
      <trkpt lat="44.03307" lon="6.92412">
        <ele>1956.6</ele>
        <time>2019-07-16T10:22:51Z</time>
      </trkpt>
      <trkpt lat="44.03303" lon="6.92406">
        <ele>1955.8</ele>
        <time>2019-07-16T10:22:53Z</time>
      </trkpt>
      <trkpt lat="44.033" lon="6.92404">
        <ele>1955.4</ele>
        <time>2019-07-16T10:22:54Z</time>
      </trkpt>
      <trkpt lat="44.03295" lon="6.924">
        <ele>1954.8</ele>
        <time>2019-07-16T10:22:56Z</time>
      </trkpt>
      <trkpt lat="44.03291" lon="6.92398">
        <ele>1954.4</ele>
        <time>2019-07-16T10:22:57Z</time>
      </trkpt>
      <trkpt lat="44.03288" lon="6.92396">
        <ele>1954.1</ele>
        <time>2019-07-16T10:22:58Z</time>
      </trkpt>
      <trkpt lat="44.03285" lon="6.92393">
        <ele>1953.8</ele>
        <time>2019-07-16T10:22:59Z</time>
      </trkpt>
      <trkpt lat="44.03283" lon="6.92391">
        <ele>1953.5</ele>
        <time>2019-07-16T10:23:00Z</time>
      </trkpt>
      <trkpt lat="44.0328" lon="6.92388">
        <ele>1953.2</ele>
        <time>2019-07-16T10:23:01Z</time>
      </trkpt>
      <trkpt lat="44.03278" lon="6.92386">
        <ele>1952.9</ele>
        <time>2019-07-16T10:23:02Z</time>
      </trkpt>
      <trkpt lat="44.03274" lon="6.92382">
        <ele>1952.4</ele>
        <time>2019-07-16T10:23:04Z</time>
      </trkpt>
      <trkpt lat="44.03271" lon="6.92377">
        <ele>1951.8</ele>
        <time>2019-07-16T10:23:06Z</time>
      </trkpt>
      <trkpt lat="44.03267" lon="6.92372">
        <ele>1951.2</ele>
        <time>2019-07-16T10:23:08Z</time>
      </trkpt>
      <trkpt lat="44.03264" lon="6.92368">
        <ele>1950.6</ele>
        <time>2019-07-16T10:23:10Z</time>
      </trkpt>
      <trkpt lat="44.03262" lon="6.92365">
        <ele>1950.2</ele>
        <time>2019-07-16T10:23:12Z</time>
      </trkpt>
      <trkpt lat="44.03259" lon="6.92361">
        <ele>1949.6</ele>
        <time>2019-07-16T10:23:15Z</time>
      </trkpt>
      <trkpt lat="44.03257" lon="6.92357">
        <ele>1949.1</ele>
        <time>2019-07-16T10:23:18Z</time>
      </trkpt>
      <trkpt lat="44.03255" lon="6.92353">
        <ele>1948.7</ele>
        <time>2019-07-16T10:23:20Z</time>
      </trkpt>
      <trkpt lat="44.03252" lon="6.92349">
        <ele>1948.2</ele>
        <time>2019-07-16T10:23:22Z</time>
      </trkpt>
      <trkpt lat="44.03249" lon="6.92345">
        <ele>1947.6</ele>
        <time>2019-07-16T10:23:24Z</time>
      </trkpt>
      <trkpt lat="44.03246" lon="6.9234">
        <ele>1947</ele>
        <time>2019-07-16T10:23:26Z</time>
      </trkpt>
      <trkpt lat="44.03243" lon="6.92336">
        <ele>1946.5</ele>
        <time>2019-07-16T10:23:28Z</time>
      </trkpt>
      <trkpt lat="44.0324" lon="6.92332">
        <ele>1945.9</ele>
        <time>2019-07-16T10:23:30Z</time>
      </trkpt>
      <trkpt lat="44.03237" lon="6.9233">
        <ele>1945.4</ele>
        <time>2019-07-16T10:23:32Z</time>
      </trkpt>
      <trkpt lat="44.03235" lon="6.92327">
        <ele>1944.9</ele>
        <time>2019-07-16T10:23:34Z</time>
      </trkpt>
      <trkpt lat="44.03232" lon="6.92326">
        <ele>1944.6</ele>
        <time>2019-07-16T10:23:36Z</time>
      </trkpt>
      <trkpt lat="44.03229" lon="6.92324">
        <ele>1944.2</ele>
        <time>2019-07-16T10:23:39Z</time>
      </trkpt>
      <trkpt lat="44.03228" lon="6.92321">
        <ele>1943.9</ele>
        <time>2019-07-16T10:23:42Z</time>
      </trkpt>
      <trkpt lat="44.03225" lon="6.92316">
        <ele>1943.5</ele>
        <time>2019-07-16T10:23:44Z</time>
      </trkpt>
      <trkpt lat="44.03222" lon="6.92314">
        <ele>1943.1</ele>
        <time>2019-07-16T10:23:46Z</time>
      </trkpt>
      <trkpt lat="44.03219" lon="6.92309">
        <ele>1942.7</ele>
        <time>2019-07-16T10:23:48Z</time>
      </trkpt>
      <trkpt lat="44.03215" lon="6.92306">
        <ele>1942.3</ele>
        <time>2019-07-16T10:23:50Z</time>
      </trkpt>
      <trkpt lat="44.0321" lon="6.92304">
        <ele>1941.9</ele>
        <time>2019-07-16T10:23:52Z</time>
      </trkpt>
      <trkpt lat="44.03206" lon="6.92298">
        <ele>1941.5</ele>
        <time>2019-07-16T10:23:54Z</time>
      </trkpt>
      <trkpt lat="44.03203" lon="6.92296">
        <ele>1941.3</ele>
        <time>2019-07-16T10:23:55Z</time>
      </trkpt>
      <trkpt lat="44.03201" lon="6.92293">
        <ele>1941.1</ele>
        <time>2019-07-16T10:23:56Z</time>
      </trkpt>
      <trkpt lat="44.03198" lon="6.92291">
        <ele>1940.9</ele>
        <time>2019-07-16T10:23:57Z</time>
      </trkpt>
      <trkpt lat="44.03196" lon="6.92289">
        <ele>1940.7</ele>
        <time>2019-07-16T10:23:58Z</time>
      </trkpt>
      <trkpt lat="44.03193" lon="6.92287">
        <ele>1940.5</ele>
        <time>2019-07-16T10:23:59Z</time>
      </trkpt>
      <trkpt lat="44.03189" lon="6.92285">
        <ele>1940.3</ele>
        <time>2019-07-16T10:24:00Z</time>
      </trkpt>
      <trkpt lat="44.03186" lon="6.92282">
        <ele>1940.1</ele>
        <time>2019-07-16T10:24:01Z</time>
      </trkpt>
      <trkpt lat="44.03183" lon="6.9228">
        <ele>1939.8</ele>
        <time>2019-07-16T10:24:02Z</time>
      </trkpt>
      <trkpt lat="44.0318" lon="6.92278">
        <ele>1939.6</ele>
        <time>2019-07-16T10:24:03Z</time>
      </trkpt>
      <trkpt lat="44.03178" lon="6.92276">
        <ele>1939.5</ele>
        <time>2019-07-16T10:24:04Z</time>
      </trkpt>
      <trkpt lat="44.03176" lon="6.92272">
        <ele>1939.2</ele>
        <time>2019-07-16T10:24:06Z</time>
      </trkpt>
      <trkpt lat="44.03173" lon="6.92265">
        <ele>1938.8</ele>
        <time>2019-07-16T10:24:08Z</time>
      </trkpt>
      <trkpt lat="44.03171" lon="6.92259">
        <ele>1938.3</ele>
        <time>2019-07-16T10:24:10Z</time>
      </trkpt>
      <trkpt lat="44.03169" lon="6.92256">
        <ele>1938</ele>
        <time>2019-07-16T10:24:11Z</time>
      </trkpt>
      <trkpt lat="44.03168" lon="6.92252">
        <ele>1937.7</ele>
        <time>2019-07-16T10:24:12Z</time>
      </trkpt>
      <trkpt lat="44.03166" lon="6.92248">
        <ele>1937.4</ele>
        <time>2019-07-16T10:24:13Z</time>
      </trkpt>
      <trkpt lat="44.03164" lon="6.92243">
        <ele>1936.9</ele>
        <time>2019-07-16T10:24:14Z</time>
      </trkpt>
      <trkpt lat="44.03163" lon="6.9224">
        <ele>1936.4</ele>
        <time>2019-07-16T10:24:15Z</time>
      </trkpt>
      <trkpt lat="44.03161" lon="6.92235">
        <ele>1936</ele>
        <time>2019-07-16T10:24:16Z</time>
      </trkpt>
      <trkpt lat="44.03159" lon="6.92231">
        <ele>1935.5</ele>
        <time>2019-07-16T10:24:17Z</time>
      </trkpt>
      <trkpt lat="44.03158" lon="6.92226">
        <ele>1934.9</ele>
        <time>2019-07-16T10:24:18Z</time>
      </trkpt>
      <trkpt lat="44.03156" lon="6.92221">
        <ele>1934.4</ele>
        <time>2019-07-16T10:24:19Z</time>
      </trkpt>
      <trkpt lat="44.03155" lon="6.92217">
        <ele>1933.9</ele>
        <time>2019-07-16T10:24:20Z</time>
      </trkpt>
      <trkpt lat="44.03154" lon="6.92213">
        <ele>1933.4</ele>
        <time>2019-07-16T10:24:21Z</time>
      </trkpt>
      <trkpt lat="44.03152" lon="6.92208">
        <ele>1933.1</ele>
        <time>2019-07-16T10:24:23Z</time>
      </trkpt>
      <trkpt lat="44.03153" lon="6.92204">
        <ele>1932.9</ele>
        <time>2019-07-16T10:24:25Z</time>
      </trkpt>
      <trkpt lat="44.03152" lon="6.92198">
        <ele>1932.6</ele>
        <time>2019-07-16T10:24:28Z</time>
      </trkpt>
      <trkpt lat="44.03151" lon="6.92193">
        <ele>1932.3</ele>
        <time>2019-07-16T10:25:41Z</time>
      </trkpt>
      <trkpt lat="44.0315" lon="6.92188">
        <ele>1932</ele>
        <time>2019-07-16T10:25:43Z</time>
      </trkpt>
      <trkpt lat="44.03151" lon="6.92184">
        <ele>1931.7</ele>
        <time>2019-07-16T10:25:45Z</time>
      </trkpt>
      <trkpt lat="44.03154" lon="6.92179">
        <ele>1931.3</ele>
        <time>2019-07-16T10:25:47Z</time>
      </trkpt>
      <trkpt lat="44.03156" lon="6.92174">
        <ele>1930.5</ele>
        <time>2019-07-16T10:25:49Z</time>
      </trkpt>
      <trkpt lat="44.03159" lon="6.9217">
        <ele>1929.7</ele>
        <time>2019-07-16T10:25:51Z</time>
      </trkpt>
      <trkpt lat="44.03161" lon="6.92166">
        <ele>1928.8</ele>
        <time>2019-07-16T10:25:53Z</time>
      </trkpt>
      <trkpt lat="44.03163" lon="6.92162">
        <ele>1927.9</ele>
        <time>2019-07-16T10:25:55Z</time>
      </trkpt>
      <trkpt lat="44.03166" lon="6.92157">
        <ele>1927</ele>
        <time>2019-07-16T10:25:57Z</time>
      </trkpt>
      <trkpt lat="44.0317" lon="6.92154">
        <ele>1926.1</ele>
        <time>2019-07-16T10:25:59Z</time>
      </trkpt>
      <trkpt lat="44.03173" lon="6.92152">
        <ele>1925.1</ele>
        <time>2019-07-16T10:26:01Z</time>
      </trkpt>
      <trkpt lat="44.03175" lon="6.92149">
        <ele>1924.4</ele>
        <time>2019-07-16T10:26:03Z</time>
      </trkpt>
      <trkpt lat="44.03178" lon="6.92146">
        <ele>1923.7</ele>
        <time>2019-07-16T10:26:08Z</time>
      </trkpt>
      <trkpt lat="44.0318" lon="6.92142">
        <ele>1923</ele>
        <time>2019-07-16T10:26:10Z</time>
      </trkpt>
      <trkpt lat="44.03182" lon="6.92138">
        <ele>1922.3</ele>
        <time>2019-07-16T10:26:14Z</time>
      </trkpt>
      <trkpt lat="44.03185" lon="6.92133">
        <ele>1921.2</ele>
        <time>2019-07-16T10:26:17Z</time>
      </trkpt>
      <trkpt lat="44.03189" lon="6.92128">
        <ele>1920.2</ele>
        <time>2019-07-16T10:26:19Z</time>
      </trkpt>
      <trkpt lat="44.03191" lon="6.92121">
        <ele>1918.9</ele>
        <time>2019-07-16T10:26:21Z</time>
      </trkpt>
      <trkpt lat="44.03192" lon="6.92116">
        <ele>1918.1</ele>
        <time>2019-07-16T10:26:23Z</time>
      </trkpt>
      <trkpt lat="44.03193" lon="6.92113">
        <ele>1917.5</ele>
        <time>2019-07-16T10:26:47Z</time>
      </trkpt>
      <trkpt lat="44.03194" lon="6.92109">
        <ele>1917</ele>
        <time>2019-07-16T10:26:49Z</time>
      </trkpt>
      <trkpt lat="44.03196" lon="6.92105">
        <ele>1916.3</ele>
        <time>2019-07-16T10:26:51Z</time>
      </trkpt>
      <trkpt lat="44.03199" lon="6.92102">
        <ele>1915.6</ele>
        <time>2019-07-16T10:26:53Z</time>
      </trkpt>
      <trkpt lat="44.032" lon="6.92098">
        <ele>1915</ele>
        <time>2019-07-16T10:26:56Z</time>
      </trkpt>
      <trkpt lat="44.032" lon="6.92094">
        <ele>1914.5</ele>
        <time>2019-07-16T10:26:59Z</time>
      </trkpt>
      <trkpt lat="44.03199" lon="6.9209">
        <ele>1913.9</ele>
        <time>2019-07-16T10:27:08Z</time>
      </trkpt>
      <trkpt lat="44.032" lon="6.92086">
        <ele>1913.4</ele>
        <time>2019-07-16T10:27:48Z</time>
      </trkpt>
      <trkpt lat="44.03201" lon="6.92082">
        <ele>1912.9</ele>
        <time>2019-07-16T10:27:52Z</time>
      </trkpt>
      <trkpt lat="44.03201" lon="6.92078">
        <ele>1912.4</ele>
        <time>2019-07-16T10:27:55Z</time>
      </trkpt>
      <trkpt lat="44.03202" lon="6.92073">
        <ele>1911.8</ele>
        <time>2019-07-16T10:28:01Z</time>
      </trkpt>
      <trkpt lat="44.03203" lon="6.9207">
        <ele>1911.4</ele>
        <time>2019-07-16T10:28:10Z</time>
      </trkpt>
      <trkpt lat="44.03202" lon="6.92064">
        <ele>1910.8</ele>
        <time>2019-07-16T10:28:12Z</time>
      </trkpt>
      <trkpt lat="44.03201" lon="6.92058">
        <ele>1910.1</ele>
        <time>2019-07-16T10:28:14Z</time>
      </trkpt>
      <trkpt lat="44.03201" lon="6.92054">
        <ele>1909.7</ele>
        <time>2019-07-16T10:28:16Z</time>
      </trkpt>
      <trkpt lat="44.032" lon="6.92051">
        <ele>1909.3</ele>
        <time>2019-07-16T10:28:17Z</time>
      </trkpt>
      <trkpt lat="44.03199" lon="6.92047">
        <ele>1908.9</ele>
        <time>2019-07-16T10:28:18Z</time>
      </trkpt>
      <trkpt lat="44.032" lon="6.92041">
        <ele>1908.3</ele>
        <time>2019-07-16T10:28:20Z</time>
      </trkpt>
      <trkpt lat="44.032" lon="6.92036">
        <ele>1908</ele>
        <time>2019-07-16T10:28:22Z</time>
      </trkpt>
      <trkpt lat="44.03199" lon="6.92031">
        <ele>1907.6</ele>
        <time>2019-07-16T10:28:25Z</time>
      </trkpt>
      <trkpt lat="44.03199" lon="6.92027">
        <ele>1907.2</ele>
        <time>2019-07-16T10:28:27Z</time>
      </trkpt>
      <trkpt lat="44.03199" lon="6.92021">
        <ele>1906.7</ele>
        <time>2019-07-16T10:28:29Z</time>
      </trkpt>
      <trkpt lat="44.03201" lon="6.92018">
        <ele>1906.3</ele>
        <time>2019-07-16T10:28:35Z</time>
      </trkpt>
      <trkpt lat="44.032" lon="6.92021">
        <ele>1906</ele>
        <time>2019-07-16T10:28:42Z</time>
      </trkpt>
      <trkpt lat="44.03201" lon="6.92017">
        <ele>1905.5</ele>
        <time>2019-07-16T10:29:12Z</time>
      </trkpt>
      <trkpt lat="44.03204" lon="6.92012">
        <ele>1904.8</ele>
        <time>2019-07-16T10:29:34Z</time>
      </trkpt>
      <trkpt lat="44.03205" lon="6.92006">
        <ele>1904</ele>
        <time>2019-07-16T10:29:36Z</time>
      </trkpt>
      <trkpt lat="44.03204" lon="6.92">
        <ele>1903.4</ele>
        <time>2019-07-16T10:29:38Z</time>
      </trkpt>
      <trkpt lat="44.03205" lon="6.91994">
        <ele>1902.8</ele>
        <time>2019-07-16T10:29:40Z</time>
      </trkpt>
      <trkpt lat="44.03205" lon="6.91991">
        <ele>1902.5</ele>
        <time>2019-07-16T10:29:41Z</time>
      </trkpt>
      <trkpt lat="44.03204" lon="6.91984">
        <ele>1902</ele>
        <time>2019-07-16T10:29:43Z</time>
      </trkpt>
      <trkpt lat="44.03204" lon="6.91978">
        <ele>1901.7</ele>
        <time>2019-07-16T10:29:45Z</time>
      </trkpt>
      <trkpt lat="44.03205" lon="6.91972">
        <ele>1901.4</ele>
        <time>2019-07-16T10:29:47Z</time>
      </trkpt>
      <trkpt lat="44.03205" lon="6.91968">
        <ele>1901.2</ele>
        <time>2019-07-16T10:30:11Z</time>
      </trkpt>
      <trkpt lat="44.03207" lon="6.91962">
        <ele>1900.9</ele>
        <time>2019-07-16T10:30:13Z</time>
      </trkpt>
      <trkpt lat="44.03208" lon="6.91957">
        <ele>1900.6</ele>
        <time>2019-07-16T10:30:15Z</time>
      </trkpt>
      <trkpt lat="44.03209" lon="6.91953">
        <ele>1900.3</ele>
        <time>2019-07-16T10:30:17Z</time>
      </trkpt>
      <trkpt lat="44.03211" lon="6.91949">
        <ele>1899.9</ele>
        <time>2019-07-16T10:30:19Z</time>
      </trkpt>
      <trkpt lat="44.03214" lon="6.91944">
        <ele>1899.2</ele>
        <time>2019-07-16T10:30:21Z</time>
      </trkpt>
      <trkpt lat="44.03216" lon="6.91941">
        <ele>1898.8</ele>
        <time>2019-07-16T10:30:22Z</time>
      </trkpt>
      <trkpt lat="44.03218" lon="6.91935">
        <ele>1897.9</ele>
        <time>2019-07-16T10:30:24Z</time>
      </trkpt>
      <trkpt lat="44.0322" lon="6.9193">
        <ele>1897</ele>
        <time>2019-07-16T10:30:26Z</time>
      </trkpt>
      <trkpt lat="44.03222" lon="6.91924">
        <ele>1896.2</ele>
        <time>2019-07-16T10:30:28Z</time>
      </trkpt>
      <trkpt lat="44.03223" lon="6.9192">
        <ele>1895.5</ele>
        <time>2019-07-16T10:30:29Z</time>
      </trkpt>
      <trkpt lat="44.03224" lon="6.91916">
        <ele>1894.8</ele>
        <time>2019-07-16T10:30:30Z</time>
      </trkpt>
      <trkpt lat="44.03226" lon="6.91911">
        <ele>1893.9</ele>
        <time>2019-07-16T10:30:31Z</time>
      </trkpt>
      <trkpt lat="44.03227" lon="6.91906">
        <ele>1893</ele>
        <time>2019-07-16T10:30:32Z</time>
      </trkpt>
      <trkpt lat="44.03227" lon="6.91902">
        <ele>1892.3</ele>
        <time>2019-07-16T10:30:33Z</time>
      </trkpt>
      <trkpt lat="44.03226" lon="6.91897">
        <ele>1891.4</ele>
        <time>2019-07-16T10:30:35Z</time>
      </trkpt>
      <trkpt lat="44.03227" lon="6.91892">
        <ele>1890.5</ele>
        <time>2019-07-16T10:30:39Z</time>
      </trkpt>
      <trkpt lat="44.03227" lon="6.91887">
        <ele>1889.3</ele>
        <time>2019-07-16T10:30:41Z</time>
      </trkpt>
      <trkpt lat="44.03226" lon="6.91883">
        <ele>1888.4</ele>
        <time>2019-07-16T10:30:45Z</time>
      </trkpt>
      <trkpt lat="44.03226" lon="6.91887">
        <ele>1887.5</ele>
        <time>2019-07-16T10:31:15Z</time>
      </trkpt>
      <trkpt lat="44.03227" lon="6.91891">
        <ele>1886.6</ele>
        <time>2019-07-16T10:31:24Z</time>
      </trkpt>
      <trkpt lat="44.03227" lon="6.91887">
        <ele>1885.8</ele>
        <time>2019-07-16T10:31:44Z</time>
      </trkpt>
      <trkpt lat="44.03227" lon="6.91882">
        <ele>1885</ele>
        <time>2019-07-16T10:32:02Z</time>
      </trkpt>
      <trkpt lat="44.03228" lon="6.91877">
        <ele>1883.9</ele>
        <time>2019-07-16T10:32:05Z</time>
      </trkpt>
      <trkpt lat="44.03229" lon="6.91871">
        <ele>1882.9</ele>
        <time>2019-07-16T10:32:07Z</time>
      </trkpt>
      <trkpt lat="44.0323" lon="6.91863">
        <ele>1881.6</ele>
        <time>2019-07-16T10:32:09Z</time>
      </trkpt>
      <trkpt lat="44.0323" lon="6.91858">
        <ele>1880.7</ele>
        <time>2019-07-16T10:32:10Z</time>
      </trkpt>
      <trkpt lat="44.03229" lon="6.91852">
        <ele>1879.6</ele>
        <time>2019-07-16T10:32:12Z</time>
      </trkpt>
      <trkpt lat="44.0323" lon="6.91847">
        <ele>1878.9</ele>
        <time>2019-07-16T10:32:16Z</time>
      </trkpt>
      <trkpt lat="44.03229" lon="6.91843">
        <ele>1878.2</ele>
        <time>2019-07-16T10:32:19Z</time>
      </trkpt>
      <trkpt lat="44.03228" lon="6.91839">
        <ele>1877.5</ele>
        <time>2019-07-16T10:32:37Z</time>
      </trkpt>
      <trkpt lat="44.03225" lon="6.91836">
        <ele>1876.7</ele>
        <time>2019-07-16T10:32:48Z</time>
      </trkpt>
      <trkpt lat="44.03222" lon="6.91834">
        <ele>1876.1</ele>
        <time>2019-07-16T10:32:50Z</time>
      </trkpt>
      <trkpt lat="44.0322" lon="6.91831">
        <ele>1875.6</ele>
        <time>2019-07-16T10:32:52Z</time>
      </trkpt>
      <trkpt lat="44.03219" lon="6.91827">
        <ele>1875</ele>
        <time>2019-07-16T10:32:55Z</time>
      </trkpt>
      <trkpt lat="44.03218" lon="6.91823">
        <ele>1874.5</ele>
        <time>2019-07-16T10:33:01Z</time>
      </trkpt>
      <trkpt lat="44.03215" lon="6.91821">
        <ele>1873.9</ele>
        <time>2019-07-16T10:33:09Z</time>
      </trkpt>
      <trkpt lat="44.03212" lon="6.91819">
        <ele>1873.4</ele>
        <time>2019-07-16T10:33:11Z</time>
      </trkpt>
      <trkpt lat="44.0321" lon="6.91816">
        <ele>1872.9</ele>
        <time>2019-07-16T10:33:18Z</time>
      </trkpt>
      <trkpt lat="44.0321" lon="6.9182">
        <ele>1872.5</ele>
        <time>2019-07-16T10:34:25Z</time>
      </trkpt>
      <trkpt lat="44.03213" lon="6.91822">
        <ele>1872</ele>
        <time>2019-07-16T10:34:27Z</time>
      </trkpt>
      <trkpt lat="44.03216" lon="6.91823">
        <ele>1871.6</ele>
        <time>2019-07-16T10:34:29Z</time>
      </trkpt>
      <trkpt lat="44.03214" lon="6.91819">
        <ele>1871.1</ele>
        <time>2019-07-16T10:34:52Z</time>
      </trkpt>
      <trkpt lat="44.03211" lon="6.91817">
        <ele>1870.7</ele>
        <time>2019-07-16T10:34:57Z</time>
      </trkpt>
      <trkpt lat="44.03209" lon="6.91814">
        <ele>1870.3</ele>
        <time>2019-07-16T10:35:07Z</time>
      </trkpt>
      <trkpt lat="44.03206" lon="6.9181">
        <ele>1869.9</ele>
        <time>2019-07-16T10:35:10Z</time>
      </trkpt>
      <trkpt lat="44.03205" lon="6.91805">
        <ele>1869.4</ele>
        <time>2019-07-16T10:35:12Z</time>
      </trkpt>
      <trkpt lat="44.03203" lon="6.91798">
        <ele>1868.8</ele>
        <time>2019-07-16T10:35:14Z</time>
      </trkpt>
      <trkpt lat="44.03201" lon="6.91793">
        <ele>1868</ele>
        <time>2019-07-16T10:35:16Z</time>
      </trkpt>
      <trkpt lat="44.03199" lon="6.91789">
        <ele>1867.5</ele>
        <time>2019-07-16T10:35:18Z</time>
      </trkpt>
      <trkpt lat="44.03199" lon="6.91784">
        <ele>1866.9</ele>
        <time>2019-07-16T10:35:22Z</time>
      </trkpt>
      <trkpt lat="44.03199" lon="6.9178">
        <ele>1866.3</ele>
        <time>2019-07-16T10:35:24Z</time>
      </trkpt>
      <trkpt lat="44.03198" lon="6.91776">
        <ele>1865.5</ele>
        <time>2019-07-16T10:35:26Z</time>
      </trkpt>
      <trkpt lat="44.03197" lon="6.9177">
        <ele>1864.3</ele>
        <time>2019-07-16T10:35:28Z</time>
      </trkpt>
      <trkpt lat="44.03196" lon="6.91764">
        <ele>1862.8</ele>
        <time>2019-07-16T10:35:30Z</time>
      </trkpt>
      <trkpt lat="44.03196" lon="6.91758">
        <ele>1861.6</ele>
        <time>2019-07-16T10:35:32Z</time>
      </trkpt>
      <trkpt lat="44.03195" lon="6.91752">
        <ele>1860.5</ele>
        <time>2019-07-16T10:35:34Z</time>
      </trkpt>
      <trkpt lat="44.03195" lon="6.91747">
        <ele>1859.4</ele>
        <time>2019-07-16T10:35:36Z</time>
      </trkpt>
      <trkpt lat="44.03197" lon="6.91742">
        <ele>1858.3</ele>
        <time>2019-07-16T10:35:38Z</time>
      </trkpt>
      <trkpt lat="44.03196" lon="6.91736">
        <ele>1857.2</ele>
        <time>2019-07-16T10:35:40Z</time>
      </trkpt>
      <trkpt lat="44.03193" lon="6.9173">
        <ele>1856.1</ele>
        <time>2019-07-16T10:35:42Z</time>
      </trkpt>
      <trkpt lat="44.03192" lon="6.91725">
        <ele>1855.5</ele>
        <time>2019-07-16T10:35:44Z</time>
      </trkpt>
      <trkpt lat="44.0319" lon="6.91722">
        <ele>1855.1</ele>
        <time>2019-07-16T10:35:46Z</time>
      </trkpt>
      <trkpt lat="44.0319" lon="6.91717">
        <ele>1854.7</ele>
        <time>2019-07-16T10:35:52Z</time>
      </trkpt>
      <trkpt lat="44.03193" lon="6.91713">
        <ele>1854.3</ele>
        <time>2019-07-16T10:35:55Z</time>
      </trkpt>
      <trkpt lat="44.03193" lon="6.91708">
        <ele>1853.8</ele>
        <time>2019-07-16T10:36:44Z</time>
      </trkpt>
      <trkpt lat="44.03193" lon="6.91702">
        <ele>1853.4</ele>
        <time>2019-07-16T10:36:46Z</time>
      </trkpt>
      <trkpt lat="44.03194" lon="6.91694">
        <ele>1852.8</ele>
        <time>2019-07-16T10:36:48Z</time>
      </trkpt>
      <trkpt lat="44.03195" lon="6.91691">
        <ele>1852.6</ele>
        <time>2019-07-16T10:36:49Z</time>
      </trkpt>
      <trkpt lat="44.03195" lon="6.91687">
        <ele>1852.4</ele>
        <time>2019-07-16T10:36:50Z</time>
      </trkpt>
      <trkpt lat="44.03196" lon="6.91681">
        <ele>1851.5</ele>
        <time>2019-07-16T10:36:52Z</time>
      </trkpt>
      <trkpt lat="44.03196" lon="6.91676">
        <ele>1850.5</ele>
        <time>2019-07-16T10:36:54Z</time>
      </trkpt>
      <trkpt lat="44.03195" lon="6.9167">
        <ele>1849.7</ele>
        <time>2019-07-16T10:36:56Z</time>
      </trkpt>
      <trkpt lat="44.03194" lon="6.91662">
        <ele>1849.2</ele>
        <time>2019-07-16T10:36:58Z</time>
      </trkpt>
      <trkpt lat="44.03194" lon="6.91656">
        <ele>1848.8</ele>
        <time>2019-07-16T10:37:00Z</time>
      </trkpt>
      <trkpt lat="44.03195" lon="6.9165">
        <ele>1848.2</ele>
        <time>2019-07-16T10:37:02Z</time>
      </trkpt>
      <trkpt lat="44.03194" lon="6.91644">
        <ele>1847.4</ele>
        <time>2019-07-16T10:37:04Z</time>
      </trkpt>
      <trkpt lat="44.03193" lon="6.91639">
        <ele>1846.8</ele>
        <time>2019-07-16T10:37:06Z</time>
      </trkpt>
      <trkpt lat="44.03193" lon="6.91635">
        <ele>1846.3</ele>
        <time>2019-07-16T10:37:07Z</time>
      </trkpt>
      <trkpt lat="44.03191" lon="6.91628">
        <ele>1845.7</ele>
        <time>2019-07-16T10:37:09Z</time>
      </trkpt>
      <trkpt lat="44.0319" lon="6.9162">
        <ele>1844.9</ele>
        <time>2019-07-16T10:37:11Z</time>
      </trkpt>
      <trkpt lat="44.03189" lon="6.91616">
        <ele>1844.5</ele>
        <time>2019-07-16T10:37:12Z</time>
      </trkpt>
      <trkpt lat="44.03187" lon="6.9161">
        <ele>1843.8</ele>
        <time>2019-07-16T10:37:14Z</time>
      </trkpt>
      <trkpt lat="44.03186" lon="6.91606">
        <ele>1843.2</ele>
        <time>2019-07-16T10:37:15Z</time>
      </trkpt>
      <trkpt lat="44.03184" lon="6.91603">
        <ele>1842.6</ele>
        <time>2019-07-16T10:37:16Z</time>
      </trkpt>
      <trkpt lat="44.03182" lon="6.91599">
        <ele>1842</ele>
        <time>2019-07-16T10:37:17Z</time>
      </trkpt>
      <trkpt lat="44.03181" lon="6.91596">
        <ele>1841.5</ele>
        <time>2019-07-16T10:37:18Z</time>
      </trkpt>
      <trkpt lat="44.03176" lon="6.91592">
        <ele>1840.5</ele>
        <time>2019-07-16T10:37:20Z</time>
      </trkpt>
      <trkpt lat="44.03173" lon="6.91588">
        <ele>1839.7</ele>
        <time>2019-07-16T10:37:22Z</time>
      </trkpt>
      <trkpt lat="44.03172" lon="6.91583">
        <ele>1839</ele>
        <time>2019-07-16T10:37:24Z</time>
      </trkpt>
      <trkpt lat="44.03171" lon="6.91576">
        <ele>1838</ele>
        <time>2019-07-16T10:37:26Z</time>
      </trkpt>
      <trkpt lat="44.03171" lon="6.9157">
        <ele>1837.2</ele>
        <time>2019-07-16T10:37:28Z</time>
      </trkpt>
      <trkpt lat="44.0317" lon="6.91565">
        <ele>1836.5</ele>
        <time>2019-07-16T10:37:30Z</time>
      </trkpt>
      <trkpt lat="44.0317" lon="6.9156">
        <ele>1836</ele>
        <time>2019-07-16T10:37:32Z</time>
      </trkpt>
      <trkpt lat="44.03172" lon="6.91556">
        <ele>1835.5</ele>
        <time>2019-07-16T10:37:34Z</time>
      </trkpt>
      <trkpt lat="44.03175" lon="6.91556">
        <ele>1834.7</ele>
        <time>2019-07-16T10:37:38Z</time>
      </trkpt>
      <trkpt lat="44.03178" lon="6.91556">
        <ele>1833.9</ele>
        <time>2019-07-16T10:37:41Z</time>
      </trkpt>
      <trkpt lat="44.03181" lon="6.91556">
        <ele>1833.2</ele>
        <time>2019-07-16T10:37:48Z</time>
      </trkpt>
      <trkpt lat="44.03184" lon="6.91556">
        <ele>1833.7</ele>
        <time>2019-07-16T10:37:53Z</time>
      </trkpt>
      <trkpt lat="44.03188" lon="6.91556">
        <ele>1834.5</ele>
        <time>2019-07-16T10:37:55Z</time>
      </trkpt>
      <trkpt lat="44.03191" lon="6.91555">
        <ele>1835.4</ele>
        <time>2019-07-16T10:38:02Z</time>
      </trkpt>
      <trkpt lat="44.03194" lon="6.91557">
        <ele>1836.5</ele>
        <time>2019-07-16T10:38:21Z</time>
      </trkpt>
      <trkpt lat="44.03197" lon="6.91557">
        <ele>1837.4</ele>
        <time>2019-07-16T10:38:23Z</time>
      </trkpt>
      <trkpt lat="44.03199" lon="6.91555">
        <ele>1838.3</ele>
        <time>2019-07-16T10:38:28Z</time>
      </trkpt>
      <trkpt lat="44.03203" lon="6.91556">
        <ele>1839.2</ele>
        <time>2019-07-16T10:38:49Z</time>
      </trkpt>
      <trkpt lat="44.03206" lon="6.91555">
        <ele>1840</ele>
        <time>2019-07-16T10:38:52Z</time>
      </trkpt>
      <trkpt lat="44.0321" lon="6.91554">
        <ele>1841.3</ele>
        <time>2019-07-16T10:38:54Z</time>
      </trkpt>
      <trkpt lat="44.03213" lon="6.91552">
        <ele>1842.4</ele>
        <time>2019-07-16T10:38:57Z</time>
      </trkpt>
      <trkpt lat="44.03215" lon="6.91549">
        <ele>1843.3</ele>
        <time>2019-07-16T10:38:59Z</time>
      </trkpt>
      <trkpt lat="44.03218" lon="6.91547">
        <ele>1844.2</ele>
        <time>2019-07-16T10:39:07Z</time>
      </trkpt>
      <trkpt lat="44.03218" lon="6.91542">
        <ele>1845.2</ele>
        <time>2019-07-16T10:39:10Z</time>
      </trkpt>
      <trkpt lat="44.03218" lon="6.91538">
        <ele>1845</ele>
        <time>2019-07-16T10:39:15Z</time>
      </trkpt>
      <trkpt lat="44.03219" lon="6.91533">
        <ele>1844.8</ele>
        <time>2019-07-16T10:39:18Z</time>
      </trkpt>
      <trkpt lat="44.0322" lon="6.9153">
        <ele>1844.6</ele>
        <time>2019-07-16T10:39:20Z</time>
      </trkpt>
      <trkpt lat="44.03222" lon="6.91526">
        <ele>1844.4</ele>
        <time>2019-07-16T10:39:23Z</time>
      </trkpt>
      <trkpt lat="44.03219" lon="6.9154">
        <ele>1843</ele>
        <time>2019-07-16T10:40:44Z</time>
      </trkpt>
      <trkpt lat="44.03218" lon="6.91544">
        <ele>1842.6</ele>
        <time>2019-07-16T10:40:47Z</time>
      </trkpt>
      <trkpt lat="44.03219" lon="6.91549">
        <ele>1842.3</ele>
        <time>2019-07-16T10:40:50Z</time>
      </trkpt>
      <trkpt lat="44.03216" lon="6.91549">
        <ele>1842.1</ele>
        <time>2019-07-16T10:40:57Z</time>
      </trkpt>
      <trkpt lat="44.03212" lon="6.91552">
        <ele>1842</ele>
        <time>2019-07-16T10:41:03Z</time>
      </trkpt>
      <trkpt lat="44.0321" lon="6.91554">
        <ele>1842</ele>
        <time>2019-07-16T10:41:08Z</time>
      </trkpt>
      <trkpt lat="44.03216" lon="6.91553">
        <ele>1841.7</ele>
        <time>2019-07-16T10:41:44Z</time>
      </trkpt>
      <trkpt lat="44.03219" lon="6.91552">
        <ele>1841.4</ele>
        <time>2019-07-16T10:41:46Z</time>
      </trkpt>
      <trkpt lat="44.03221" lon="6.91547">
        <ele>1842.5</ele>
        <time>2019-07-16T10:41:49Z</time>
      </trkpt>
      <trkpt lat="44.0322" lon="6.91543">
        <ele>1843.6</ele>
        <time>2019-07-16T10:41:52Z</time>
      </trkpt>
      <trkpt lat="44.03222" lon="6.91537">
        <ele>1844.5</ele>
        <time>2019-07-16T10:42:02Z</time>
      </trkpt>
      <trkpt lat="44.03222" lon="6.91533">
        <ele>1844.7</ele>
        <time>2019-07-16T10:42:06Z</time>
      </trkpt>
      <trkpt lat="44.03223" lon="6.91528">
        <ele>1845.1</ele>
        <time>2019-07-16T10:42:14Z</time>
      </trkpt>
      <trkpt lat="44.03225" lon="6.91525">
        <ele>1845.7</ele>
        <time>2019-07-16T10:42:18Z</time>
      </trkpt>
      <trkpt lat="44.03227" lon="6.91521">
        <ele>1846.3</ele>
        <time>2019-07-16T10:42:47Z</time>
      </trkpt>
      <trkpt lat="44.03228" lon="6.91517">
        <ele>1847.1</ele>
        <time>2019-07-16T10:42:49Z</time>
      </trkpt>
      <trkpt lat="44.0323" lon="6.91512">
        <ele>1848.5</ele>
        <time>2019-07-16T10:42:52Z</time>
      </trkpt>
      <trkpt lat="44.03231" lon="6.91508">
        <ele>1849.6</ele>
        <time>2019-07-16T10:42:54Z</time>
      </trkpt>
      <trkpt lat="44.03234" lon="6.91504">
        <ele>1850.3</ele>
        <time>2019-07-16T10:42:56Z</time>
      </trkpt>
      <trkpt lat="44.03237" lon="6.91502">
        <ele>1851</ele>
        <time>2019-07-16T10:42:58Z</time>
      </trkpt>
      <trkpt lat="44.03239" lon="6.915">
        <ele>1851.6</ele>
        <time>2019-07-16T10:43:00Z</time>
      </trkpt>
      <trkpt lat="44.03242" lon="6.91498">
        <ele>1852.3</ele>
        <time>2019-07-16T10:43:10Z</time>
      </trkpt>
      <trkpt lat="44.03245" lon="6.91497">
        <ele>1852.9</ele>
        <time>2019-07-16T10:43:18Z</time>
      </trkpt>
      <trkpt lat="44.03246" lon="6.91493">
        <ele>1853.2</ele>
        <time>2019-07-16T10:43:22Z</time>
      </trkpt>
      <trkpt lat="44.03247" lon="6.91489">
        <ele>1852.4</ele>
        <time>2019-07-16T10:43:25Z</time>
      </trkpt>
      <trkpt lat="44.03249" lon="6.91484">
        <ele>1851.4</ele>
        <time>2019-07-16T10:43:28Z</time>
      </trkpt>
      <trkpt lat="44.03251" lon="6.91481">
        <ele>1850.5</ele>
        <time>2019-07-16T10:43:34Z</time>
      </trkpt>
      <trkpt lat="44.03253" lon="6.91479">
        <ele>1849.5</ele>
        <time>2019-07-16T10:43:37Z</time>
      </trkpt>
      <trkpt lat="44.03255" lon="6.91477">
        <ele>1848.4</ele>
        <time>2019-07-16T10:43:40Z</time>
      </trkpt>
      <trkpt lat="44.03259" lon="6.91475">
        <ele>1847</ele>
        <time>2019-07-16T10:43:45Z</time>
      </trkpt>
      <trkpt lat="44.03261" lon="6.91472">
        <ele>1845.9</ele>
        <time>2019-07-16T10:43:50Z</time>
      </trkpt>
      <trkpt lat="44.03263" lon="6.9147">
        <ele>1844.8</ele>
        <time>2019-07-16T10:44:02Z</time>
      </trkpt>
      <trkpt lat="44.03266" lon="6.91469">
        <ele>1843.6</ele>
        <time>2019-07-16T10:44:04Z</time>
      </trkpt>
      <trkpt lat="44.03269" lon="6.91466">
        <ele>1842.5</ele>
        <time>2019-07-16T10:44:13Z</time>
      </trkpt>
      <trkpt lat="44.03271" lon="6.91461">
        <ele>1841</ele>
        <time>2019-07-16T10:44:21Z</time>
      </trkpt>
      <trkpt lat="44.03273" lon="6.91457">
        <ele>1839.7</ele>
        <time>2019-07-16T10:44:23Z</time>
      </trkpt>
      <trkpt lat="44.03274" lon="6.91453">
        <ele>1838.8</ele>
        <time>2019-07-16T10:44:25Z</time>
      </trkpt>
      <trkpt lat="44.03274" lon="6.91446">
        <ele>1837.6</ele>
        <time>2019-07-16T10:44:28Z</time>
      </trkpt>
      <trkpt lat="44.03275" lon="6.91441">
        <ele>1837</ele>
        <time>2019-07-16T10:44:29Z</time>
      </trkpt>
      <trkpt lat="44.03273" lon="6.91436">
        <ele>1836.7</ele>
        <time>2019-07-16T10:44:31Z</time>
      </trkpt>
      <trkpt lat="44.03272" lon="6.9143">
        <ele>1836.3</ele>
        <time>2019-07-16T10:44:34Z</time>
      </trkpt>
      <trkpt lat="44.03272" lon="6.91425">
        <ele>1835.6</ele>
        <time>2019-07-16T10:44:36Z</time>
      </trkpt>
      <trkpt lat="44.03272" lon="6.91421">
        <ele>1835</ele>
        <time>2019-07-16T10:45:41Z</time>
      </trkpt>
      <trkpt lat="44.03273" lon="6.91417">
        <ele>1834.6</ele>
        <time>2019-07-16T10:45:43Z</time>
      </trkpt>
      <trkpt lat="44.03273" lon="6.91411">
        <ele>1834.5</ele>
        <time>2019-07-16T10:45:45Z</time>
      </trkpt>
      <trkpt lat="44.03272" lon="6.91404">
        <ele>1834.3</ele>
        <time>2019-07-16T10:45:47Z</time>
      </trkpt>
      <trkpt lat="44.03271" lon="6.91399">
        <ele>1834</ele>
        <time>2019-07-16T10:45:50Z</time>
      </trkpt>
      <trkpt lat="44.03271" lon="6.91395">
        <ele>1833.6</ele>
        <time>2019-07-16T10:45:52Z</time>
      </trkpt>
      <trkpt lat="44.03272" lon="6.91391">
        <ele>1833.3</ele>
        <time>2019-07-16T10:45:54Z</time>
      </trkpt>
      <trkpt lat="44.03272" lon="6.91387">
        <ele>1832.9</ele>
        <time>2019-07-16T10:45:57Z</time>
      </trkpt>
      <trkpt lat="44.03274" lon="6.91383">
        <ele>1832.5</ele>
        <time>2019-07-16T10:46:00Z</time>
      </trkpt>
      <trkpt lat="44.03274" lon="6.91379">
        <ele>1832.4</ele>
        <time>2019-07-16T10:46:02Z</time>
      </trkpt>
      <trkpt lat="44.03274" lon="6.91376">
        <ele>1832.5</ele>
        <time>2019-07-16T10:46:04Z</time>
      </trkpt>
      <trkpt lat="44.03276" lon="6.9137">
        <ele>1832.7</ele>
        <time>2019-07-16T10:46:11Z</time>
      </trkpt>
      <trkpt lat="44.03276" lon="6.91366">
        <ele>1832.5</ele>
        <time>2019-07-16T10:46:17Z</time>
      </trkpt>
      <trkpt lat="44.03278" lon="6.91365">
        <ele>1832.3</ele>
        <time>2019-07-16T10:46:26Z</time>
      </trkpt>
      <trkpt lat="44.03278" lon="6.91361">
        <ele>1832</ele>
        <time>2019-07-16T10:46:31Z</time>
      </trkpt>
      <trkpt lat="44.03277" lon="6.91356">
        <ele>1831.6</ele>
        <time>2019-07-16T10:46:34Z</time>
      </trkpt>
      <trkpt lat="44.03279" lon="6.91353">
        <ele>1831.2</ele>
        <time>2019-07-16T10:46:38Z</time>
      </trkpt>
      <trkpt lat="44.03278" lon="6.91349">
        <ele>1830.8</ele>
        <time>2019-07-16T10:46:43Z</time>
      </trkpt>
      <trkpt lat="44.03275" lon="6.91348">
        <ele>1830.7</ele>
        <time>2019-07-16T10:46:51Z</time>
      </trkpt>
      <trkpt lat="44.03275" lon="6.91343">
        <ele>1830.9</ele>
        <time>2019-07-16T10:46:59Z</time>
      </trkpt>
      <trkpt lat="44.03273" lon="6.9134">
        <ele>1831.1</ele>
        <time>2019-07-16T10:47:15Z</time>
      </trkpt>
      <trkpt lat="44.03273" lon="6.91335">
        <ele>1830.9</ele>
        <time>2019-07-16T10:47:19Z</time>
      </trkpt>
      <trkpt lat="44.03272" lon="6.91331">
        <ele>1830.4</ele>
        <time>2019-07-16T10:47:22Z</time>
      </trkpt>
      <trkpt lat="44.03272" lon="6.91326">
        <ele>1829.9</ele>
        <time>2019-07-16T10:47:25Z</time>
      </trkpt>
      <trkpt lat="44.03272" lon="6.91321">
        <ele>1830</ele>
        <time>2019-07-16T10:47:47Z</time>
      </trkpt>
      <trkpt lat="44.03274" lon="6.91317">
        <ele>1830.2</ele>
        <time>2019-07-16T10:47:49Z</time>
      </trkpt>
      <trkpt lat="44.03275" lon="6.91313">
        <ele>1830.4</ele>
        <time>2019-07-16T10:47:51Z</time>
      </trkpt>
      <trkpt lat="44.03276" lon="6.91305">
        <ele>1829.5</ele>
        <time>2019-07-16T10:47:53Z</time>
      </trkpt>
      <trkpt lat="44.03277" lon="6.91301">
        <ele>1829.1</ele>
        <time>2019-07-16T10:47:54Z</time>
      </trkpt>
      <trkpt lat="44.03278" lon="6.91297">
        <ele>1828.6</ele>
        <time>2019-07-16T10:47:55Z</time>
      </trkpt>
      <trkpt lat="44.03279" lon="6.91291">
        <ele>1827.8</ele>
        <time>2019-07-16T10:47:57Z</time>
      </trkpt>
      <trkpt lat="44.03279" lon="6.91287">
        <ele>1827.5</ele>
        <time>2019-07-16T10:47:58Z</time>
      </trkpt>
      <trkpt lat="44.0328" lon="6.91283">
        <ele>1827.6</ele>
        <time>2019-07-16T10:47:59Z</time>
      </trkpt>
      <trkpt lat="44.0328" lon="6.91279">
        <ele>1827.7</ele>
        <time>2019-07-16T10:48:00Z</time>
      </trkpt>
      <trkpt lat="44.03281" lon="6.91273">
        <ele>1827.5</ele>
        <time>2019-07-16T10:48:02Z</time>
      </trkpt>
      <trkpt lat="44.03279" lon="6.91266">
        <ele>1826.4</ele>
        <time>2019-07-16T10:48:04Z</time>
      </trkpt>
      <trkpt lat="44.03279" lon="6.91261">
        <ele>1825.9</ele>
        <time>2019-07-16T10:48:05Z</time>
      </trkpt>
      <trkpt lat="44.03278" lon="6.91255">
        <ele>1825.8</ele>
        <time>2019-07-16T10:48:07Z</time>
      </trkpt>
      <trkpt lat="44.03278" lon="6.9125">
        <ele>1825.7</ele>
        <time>2019-07-16T10:48:09Z</time>
      </trkpt>
      <trkpt lat="44.03278" lon="6.91245">
        <ele>1825.6</ele>
        <time>2019-07-16T10:48:12Z</time>
      </trkpt>
      <trkpt lat="44.03279" lon="6.9124">
        <ele>1825.5</ele>
        <time>2019-07-16T10:48:14Z</time>
      </trkpt>
      <trkpt lat="44.0328" lon="6.91235">
        <ele>1825.5</ele>
        <time>2019-07-16T10:48:16Z</time>
      </trkpt>
      <trkpt lat="44.03282" lon="6.91231">
        <ele>1825.5</ele>
        <time>2019-07-16T10:48:18Z</time>
      </trkpt>
      <trkpt lat="44.03284" lon="6.91227">
        <ele>1825.6</ele>
        <time>2019-07-16T10:48:19Z</time>
      </trkpt>
      <trkpt lat="44.03287" lon="6.91221">
        <ele>1825.1</ele>
        <time>2019-07-16T10:48:21Z</time>
      </trkpt>
      <trkpt lat="44.03288" lon="6.91216">
        <ele>1824.4</ele>
        <time>2019-07-16T10:48:23Z</time>
      </trkpt>
      <trkpt lat="44.03288" lon="6.91212">
        <ele>1823.8</ele>
        <time>2019-07-16T10:48:24Z</time>
      </trkpt>
      <trkpt lat="44.03289" lon="6.91207">
        <ele>1823.7</ele>
        <time>2019-07-16T10:48:26Z</time>
      </trkpt>
      <trkpt lat="44.03291" lon="6.91203">
        <ele>1823.6</ele>
        <time>2019-07-16T10:48:28Z</time>
      </trkpt>
      <trkpt lat="44.03292" lon="6.91197">
        <ele>1823.4</ele>
        <time>2019-07-16T10:48:30Z</time>
      </trkpt>
      <trkpt lat="44.03294" lon="6.91193">
        <ele>1823.3</ele>
        <time>2019-07-16T10:48:32Z</time>
      </trkpt>
      <trkpt lat="44.03296" lon="6.9119">
        <ele>1823.2</ele>
        <time>2019-07-16T10:48:33Z</time>
      </trkpt>
      <trkpt lat="44.03298" lon="6.91186">
        <ele>1823.2</ele>
        <time>2019-07-16T10:48:35Z</time>
      </trkpt>
      <trkpt lat="44.033" lon="6.9118">
        <ele>1823.3</ele>
        <time>2019-07-16T10:48:47Z</time>
      </trkpt>
      <trkpt lat="44.033" lon="6.91176">
        <ele>1823.4</ele>
        <time>2019-07-16T10:48:55Z</time>
      </trkpt>
      <trkpt lat="44.033" lon="6.91172">
        <ele>1823.2</ele>
        <time>2019-07-16T10:48:58Z</time>
      </trkpt>
      <trkpt lat="44.03302" lon="6.9117">
        <ele>1823.1</ele>
        <time>2019-07-16T10:49:05Z</time>
      </trkpt>
      <trkpt lat="44.03303" lon="6.91166">
        <ele>1822.9</ele>
        <time>2019-07-16T10:49:10Z</time>
      </trkpt>
      <trkpt lat="44.03301" lon="6.91169">
        <ele>1822.4</ele>
        <time>2019-07-16T10:49:39Z</time>
      </trkpt>
      <trkpt lat="44.03299" lon="6.91173">
        <ele>1821.6</ele>
        <time>2019-07-16T10:49:48Z</time>
      </trkpt>
      <trkpt lat="44.03301" lon="6.9117">
        <ele>1820.8</ele>
        <time>2019-07-16T10:51:43Z</time>
      </trkpt>
      <trkpt lat="44.03302" lon="6.91166">
        <ele>1820.3</ele>
        <time>2019-07-16T10:51:52Z</time>
      </trkpt>
      <trkpt lat="44.03302" lon="6.91162">
        <ele>1819.8</ele>
        <time>2019-07-16T10:52:06Z</time>
      </trkpt>
      <trkpt lat="44.03302" lon="6.91157">
        <ele>1819.2</ele>
        <time>2019-07-16T10:52:08Z</time>
      </trkpt>
      <trkpt lat="44.03302" lon="6.91153">
        <ele>1818.4</ele>
        <time>2019-07-16T10:52:10Z</time>
      </trkpt>
      <trkpt lat="44.03303" lon="6.91149">
        <ele>1817.7</ele>
        <time>2019-07-16T10:52:12Z</time>
      </trkpt>
      <trkpt lat="44.03304" lon="6.91145">
        <ele>1817</ele>
        <time>2019-07-16T10:52:14Z</time>
      </trkpt>
      <trkpt lat="44.03304" lon="6.91138">
        <ele>1816.3</ele>
        <time>2019-07-16T10:52:16Z</time>
      </trkpt>
      <trkpt lat="44.03303" lon="6.91132">
        <ele>1815.6</ele>
        <time>2019-07-16T10:52:18Z</time>
      </trkpt>
      <trkpt lat="44.03304" lon="6.91126">
        <ele>1815</ele>
        <time>2019-07-16T10:52:20Z</time>
      </trkpt>
      <trkpt lat="44.03305" lon="6.91123">
        <ele>1814.5</ele>
        <time>2019-07-16T10:52:21Z</time>
      </trkpt>
      <trkpt lat="44.03306" lon="6.91118">
        <ele>1813.7</ele>
        <time>2019-07-16T10:52:22Z</time>
      </trkpt>
      <trkpt lat="44.03305" lon="6.91114">
        <ele>1813.1</ele>
        <time>2019-07-16T10:52:23Z</time>
      </trkpt>
      <trkpt lat="44.03305" lon="6.91108">
        <ele>1813.1</ele>
        <time>2019-07-16T10:52:25Z</time>
      </trkpt>
      <trkpt lat="44.03304" lon="6.91103">
        <ele>1813.6</ele>
        <time>2019-07-16T10:52:26Z</time>
      </trkpt>
      <trkpt lat="44.03303" lon="6.91097">
        <ele>1814.6</ele>
        <time>2019-07-16T10:52:27Z</time>
      </trkpt>
      <trkpt lat="44.03302" lon="6.91091">
        <ele>1815.6</ele>
        <time>2019-07-16T10:52:28Z</time>
      </trkpt>
      <trkpt lat="44.03302" lon="6.91087">
        <ele>1816.5</ele>
        <time>2019-07-16T10:52:29Z</time>
      </trkpt>
      <trkpt lat="44.03303" lon="6.91081">
        <ele>1817.1</ele>
        <time>2019-07-16T10:52:31Z</time>
      </trkpt>
      <trkpt lat="44.03303" lon="6.91076">
        <ele>1817.5</ele>
        <time>2019-07-16T10:52:33Z</time>
      </trkpt>
      <trkpt lat="44.03303" lon="6.91072">
        <ele>1817.8</ele>
        <time>2019-07-16T10:52:34Z</time>
      </trkpt>
      <trkpt lat="44.03304" lon="6.91068">
        <ele>1816.7</ele>
        <time>2019-07-16T10:52:35Z</time>
      </trkpt>
      <trkpt lat="44.03304" lon="6.91061">
        <ele>1814.8</ele>
        <time>2019-07-16T10:52:37Z</time>
      </trkpt>
      <trkpt lat="44.03305" lon="6.91058">
        <ele>1813.9</ele>
        <time>2019-07-16T10:52:39Z</time>
      </trkpt>
      <trkpt lat="44.03309" lon="6.91055">
        <ele>1812.5</ele>
        <time>2019-07-16T10:52:41Z</time>
      </trkpt>
      <trkpt lat="44.03313" lon="6.91053">
        <ele>1811</ele>
        <time>2019-07-16T10:52:43Z</time>
      </trkpt>
      <trkpt lat="44.03317" lon="6.91052">
        <ele>1810</ele>
        <time>2019-07-16T10:52:45Z</time>
      </trkpt>
      <trkpt lat="44.0332" lon="6.9105">
        <ele>1809</ele>
        <time>2019-07-16T10:52:47Z</time>
      </trkpt>
      <trkpt lat="44.03323" lon="6.91049">
        <ele>1808</ele>
        <time>2019-07-16T10:52:52Z</time>
      </trkpt>
      <trkpt lat="44.03325" lon="6.91045">
        <ele>1807.3</ele>
        <time>2019-07-16T10:52:55Z</time>
      </trkpt>
      <trkpt lat="44.03325" lon="6.91042">
        <ele>1807.1</ele>
        <time>2019-07-16T10:52:58Z</time>
      </trkpt>
      <trkpt lat="44.03325" lon="6.91038">
        <ele>1806.9</ele>
        <time>2019-07-16T10:53:02Z</time>
      </trkpt>
      <trkpt lat="44.03325" lon="6.91034">
        <ele>1806.7</ele>
        <time>2019-07-16T10:53:06Z</time>
      </trkpt>
      <trkpt lat="44.03326" lon="6.91029">
        <ele>1806.7</ele>
        <time>2019-07-16T10:53:10Z</time>
      </trkpt>
      <trkpt lat="44.03325" lon="6.91025">
        <ele>1806.7</ele>
        <time>2019-07-16T10:53:16Z</time>
      </trkpt>
      <trkpt lat="44.03323" lon="6.91022">
        <ele>1806.7</ele>
        <time>2019-07-16T10:53:23Z</time>
      </trkpt>
      <trkpt lat="44.0332" lon="6.91018">
        <ele>1805.9</ele>
        <time>2019-07-16T10:53:26Z</time>
      </trkpt>
      <trkpt lat="44.03319" lon="6.91014">
        <ele>1805.3</ele>
        <time>2019-07-16T10:53:28Z</time>
      </trkpt>
      <trkpt lat="44.03317" lon="6.91018">
        <ele>1805.1</ele>
        <time>2019-07-16T10:53:52Z</time>
      </trkpt>
      <trkpt lat="44.03319" lon="6.9102">
        <ele>1805.1</ele>
        <time>2019-07-16T10:54:11Z</time>
      </trkpt>
      <trkpt lat="44.03318" lon="6.91016">
        <ele>1805.2</ele>
        <time>2019-07-16T10:54:13Z</time>
      </trkpt>
      <trkpt lat="44.03317" lon="6.91013">
        <ele>1805.1</ele>
        <time>2019-07-16T10:54:17Z</time>
      </trkpt>
      <trkpt lat="44.03317" lon="6.91009">
        <ele>1805.1</ele>
        <time>2019-07-16T10:54:20Z</time>
      </trkpt>
      <trkpt lat="44.03318" lon="6.91005">
        <ele>1805</ele>
        <time>2019-07-16T10:54:22Z</time>
      </trkpt>
      <trkpt lat="44.03318" lon="6.91001">
        <ele>1805</ele>
        <time>2019-07-16T10:54:24Z</time>
      </trkpt>
      <trkpt lat="44.03319" lon="6.90997">
        <ele>1805</ele>
        <time>2019-07-16T10:54:35Z</time>
      </trkpt>
      <trkpt lat="44.0332" lon="6.90991">
        <ele>1805</ele>
        <time>2019-07-16T10:54:38Z</time>
      </trkpt>
      <trkpt lat="44.03322" lon="6.90986">
        <ele>1804.6</ele>
        <time>2019-07-16T10:54:40Z</time>
      </trkpt>
      <trkpt lat="44.03322" lon="6.90981">
        <ele>1804.2</ele>
        <time>2019-07-16T10:54:41Z</time>
      </trkpt>
      <trkpt lat="44.03325" lon="6.90976">
        <ele>1804</ele>
        <time>2019-07-16T10:54:43Z</time>
      </trkpt>
      <trkpt lat="44.03328" lon="6.9097">
        <ele>1804.1</ele>
        <time>2019-07-16T10:54:45Z</time>
      </trkpt>
      <trkpt lat="44.03328" lon="6.90964">
        <ele>1804.2</ele>
        <time>2019-07-16T10:54:47Z</time>
      </trkpt>
      <trkpt lat="44.03328" lon="6.90959">
        <ele>1804.4</ele>
        <time>2019-07-16T10:54:49Z</time>
      </trkpt>
      <trkpt lat="44.03328" lon="6.90955">
        <ele>1804.5</ele>
        <time>2019-07-16T10:54:51Z</time>
      </trkpt>
      <trkpt lat="44.03328" lon="6.9095">
        <ele>1803.9</ele>
        <time>2019-07-16T10:54:55Z</time>
      </trkpt>
      <trkpt lat="44.03329" lon="6.90944">
        <ele>1803.2</ele>
        <time>2019-07-16T10:54:57Z</time>
      </trkpt>
      <trkpt lat="44.03329" lon="6.9094">
        <ele>1803.1</ele>
        <time>2019-07-16T10:54:59Z</time>
      </trkpt>
      <trkpt lat="44.03331" lon="6.90935">
        <ele>1803.2</ele>
        <time>2019-07-16T10:55:01Z</time>
      </trkpt>
      <trkpt lat="44.03333" lon="6.90929">
        <ele>1802.8</ele>
        <time>2019-07-16T10:55:03Z</time>
      </trkpt>
      <trkpt lat="44.03333" lon="6.90921">
        <ele>1801.8</ele>
        <time>2019-07-16T10:55:05Z</time>
      </trkpt>
      <trkpt lat="44.03333" lon="6.90916">
        <ele>1800.9</ele>
        <time>2019-07-16T10:55:06Z</time>
      </trkpt>
      <trkpt lat="44.03333" lon="6.9091">
        <ele>1799.9</ele>
        <time>2019-07-16T10:55:08Z</time>
      </trkpt>
      <trkpt lat="44.03332" lon="6.90904">
        <ele>1799.2</ele>
        <time>2019-07-16T10:55:10Z</time>
      </trkpt>
      <trkpt lat="44.03332" lon="6.90898">
        <ele>1798.3</ele>
        <time>2019-07-16T10:55:12Z</time>
      </trkpt>
      <trkpt lat="44.03332" lon="6.90894">
        <ele>1797.3</ele>
        <time>2019-07-16T10:55:15Z</time>
      </trkpt>
      <trkpt lat="44.03332" lon="6.90888">
        <ele>1796</ele>
        <time>2019-07-16T10:55:17Z</time>
      </trkpt>
      <trkpt lat="44.03331" lon="6.90882">
        <ele>1794.9</ele>
        <time>2019-07-16T10:55:19Z</time>
      </trkpt>
      <trkpt lat="44.03331" lon="6.90875">
        <ele>1793.9</ele>
        <time>2019-07-16T10:55:21Z</time>
      </trkpt>
      <trkpt lat="44.03332" lon="6.90869">
        <ele>1792.5</ele>
        <time>2019-07-16T10:55:23Z</time>
      </trkpt>
      <trkpt lat="44.03332" lon="6.90863">
        <ele>1791.2</ele>
        <time>2019-07-16T10:55:25Z</time>
      </trkpt>
      <trkpt lat="44.03333" lon="6.90857">
        <ele>1789.7</ele>
        <time>2019-07-16T10:55:27Z</time>
      </trkpt>
      <trkpt lat="44.03334" lon="6.90853">
        <ele>1788.5</ele>
        <time>2019-07-16T10:55:29Z</time>
      </trkpt>
      <trkpt lat="44.03335" lon="6.90848">
        <ele>1787.3</ele>
        <time>2019-07-16T10:55:31Z</time>
      </trkpt>
      <trkpt lat="44.03334" lon="6.90843">
        <ele>1786.3</ele>
        <time>2019-07-16T10:55:33Z</time>
      </trkpt>
      <trkpt lat="44.03333" lon="6.90838">
        <ele>1785.6</ele>
        <time>2019-07-16T10:55:34Z</time>
      </trkpt>
      <trkpt lat="44.03332" lon="6.90835">
        <ele>1784.8</ele>
        <time>2019-07-16T10:55:35Z</time>
      </trkpt>
      <trkpt lat="44.03331" lon="6.90829">
        <ele>1783.3</ele>
        <time>2019-07-16T10:55:37Z</time>
      </trkpt>
      <trkpt lat="44.03331" lon="6.90822">
        <ele>1781.8</ele>
        <time>2019-07-16T10:55:39Z</time>
      </trkpt>
      <trkpt lat="44.03332" lon="6.90815">
        <ele>1780.5</ele>
        <time>2019-07-16T10:55:41Z</time>
      </trkpt>
      <trkpt lat="44.0333" lon="6.90808">
        <ele>1778.7</ele>
        <time>2019-07-16T10:55:43Z</time>
      </trkpt>
      <trkpt lat="44.03329" lon="6.90802">
        <ele>1777</ele>
        <time>2019-07-16T10:55:45Z</time>
      </trkpt>
      <trkpt lat="44.03328" lon="6.90796">
        <ele>1775.3</ele>
        <time>2019-07-16T10:55:47Z</time>
      </trkpt>
      <trkpt lat="44.03326" lon="6.90789">
        <ele>1773.7</ele>
        <time>2019-07-16T10:55:49Z</time>
      </trkpt>
      <trkpt lat="44.03326" lon="6.90785">
        <ele>1772.8</ele>
        <time>2019-07-16T10:55:50Z</time>
      </trkpt>
      <trkpt lat="44.03326" lon="6.90781">
        <ele>1772.8</ele>
        <time>2019-07-16T10:55:52Z</time>
      </trkpt>
      <trkpt lat="44.03325" lon="6.90777">
        <ele>1772.8</ele>
        <time>2019-07-16T10:55:54Z</time>
      </trkpt>
      <trkpt lat="44.03325" lon="6.90772">
        <ele>1772.9</ele>
        <time>2019-07-16T10:55:58Z</time>
      </trkpt>
      <trkpt lat="44.03325" lon="6.90767">
        <ele>1772.6</ele>
        <time>2019-07-16T10:56:00Z</time>
      </trkpt>
      <trkpt lat="44.03324" lon="6.9076">
        <ele>1772</ele>
        <time>2019-07-16T10:56:02Z</time>
      </trkpt>
      <trkpt lat="44.03322" lon="6.90753">
        <ele>1771.9</ele>
        <time>2019-07-16T10:56:04Z</time>
      </trkpt>
      <trkpt lat="44.03325" lon="6.9075">
        <ele>1771.8</ele>
        <time>2019-07-16T10:56:19Z</time>
      </trkpt>
      <trkpt lat="44.03327" lon="6.90746">
        <ele>1771.6</ele>
        <time>2019-07-16T10:57:13Z</time>
      </trkpt>
      <trkpt lat="44.03327" lon="6.9074">
        <ele>1771</ele>
        <time>2019-07-16T10:57:15Z</time>
      </trkpt>
      <trkpt lat="44.03328" lon="6.90736">
        <ele>1770.5</ele>
        <time>2019-07-16T10:57:17Z</time>
      </trkpt>
      <trkpt lat="44.03328" lon="6.90731">
        <ele>1770.2</ele>
        <time>2019-07-16T10:57:19Z</time>
      </trkpt>
      <trkpt lat="44.0333" lon="6.90725">
        <ele>1769.7</ele>
        <time>2019-07-16T10:57:21Z</time>
      </trkpt>
      <trkpt lat="44.03332" lon="6.90718">
        <ele>1769.1</ele>
        <time>2019-07-16T10:57:23Z</time>
      </trkpt>
      <trkpt lat="44.03335" lon="6.90714">
        <ele>1768.6</ele>
        <time>2019-07-16T10:57:25Z</time>
      </trkpt>
      <trkpt lat="44.03338" lon="6.9071">
        <ele>1768.2</ele>
        <time>2019-07-16T10:57:27Z</time>
      </trkpt>
      <trkpt lat="44.03339" lon="6.90706">
        <ele>1767.9</ele>
        <time>2019-07-16T10:57:28Z</time>
      </trkpt>
      <trkpt lat="44.0334" lon="6.907">
        <ele>1767.4</ele>
        <time>2019-07-16T10:57:30Z</time>
      </trkpt>
      <trkpt lat="44.03341" lon="6.90694">
        <ele>1766.6</ele>
        <time>2019-07-16T10:57:32Z</time>
      </trkpt>
      <trkpt lat="44.03344" lon="6.90688">
        <ele>1765.7</ele>
        <time>2019-07-16T10:57:34Z</time>
      </trkpt>
      <trkpt lat="44.03345" lon="6.90682">
        <ele>1763.9</ele>
        <time>2019-07-16T10:57:36Z</time>
      </trkpt>
      <trkpt lat="44.03347" lon="6.90676">
        <ele>1762.2</ele>
        <time>2019-07-16T10:57:38Z</time>
      </trkpt>
      <trkpt lat="44.0335" lon="6.90671">
        <ele>1760.5</ele>
        <time>2019-07-16T10:57:40Z</time>
      </trkpt>
      <trkpt lat="44.03351" lon="6.90668">
        <ele>1759.5</ele>
        <time>2019-07-16T10:57:41Z</time>
      </trkpt>
      <trkpt lat="44.03353" lon="6.90663">
        <ele>1758.6</ele>
        <time>2019-07-16T10:57:42Z</time>
      </trkpt>
      <trkpt lat="44.03354" lon="6.90658">
        <ele>1757.7</ele>
        <time>2019-07-16T10:57:43Z</time>
      </trkpt>
      <trkpt lat="44.03355" lon="6.90654">
        <ele>1756.9</ele>
        <time>2019-07-16T10:57:44Z</time>
      </trkpt>
      <trkpt lat="44.03357" lon="6.90647">
        <ele>1755.5</ele>
        <time>2019-07-16T10:57:46Z</time>
      </trkpt>
      <trkpt lat="44.03359" lon="6.90641">
        <ele>1754.9</ele>
        <time>2019-07-16T10:57:48Z</time>
      </trkpt>
      <trkpt lat="44.03361" lon="6.90635">
        <ele>1753.8</ele>
        <time>2019-07-16T10:57:50Z</time>
      </trkpt>
      <trkpt lat="44.03361" lon="6.9063">
        <ele>1752.6</ele>
        <time>2019-07-16T10:57:51Z</time>
      </trkpt>
      <trkpt lat="44.03361" lon="6.90623">
        <ele>1750.6</ele>
        <time>2019-07-16T10:57:53Z</time>
      </trkpt>
      <trkpt lat="44.0336" lon="6.90617">
        <ele>1748.9</ele>
        <time>2019-07-16T10:57:55Z</time>
      </trkpt>
      <trkpt lat="44.03359" lon="6.90612">
        <ele>1747.4</ele>
        <time>2019-07-16T10:57:57Z</time>
      </trkpt>
      <trkpt lat="44.03358" lon="6.90606">
        <ele>1746.3</ele>
        <time>2019-07-16T10:57:59Z</time>
      </trkpt>
      <trkpt lat="44.03358" lon="6.90601">
        <ele>1745.3</ele>
        <time>2019-07-16T10:58:01Z</time>
      </trkpt>
      <trkpt lat="44.03357" lon="6.90597">
        <ele>1744.2</ele>
        <time>2019-07-16T10:58:03Z</time>
      </trkpt>
      <trkpt lat="44.03355" lon="6.90592">
        <ele>1742.6</ele>
        <time>2019-07-16T10:58:05Z</time>
      </trkpt>
      <trkpt lat="44.03353" lon="6.90587">
        <ele>1740.8</ele>
        <time>2019-07-16T10:58:07Z</time>
      </trkpt>
      <trkpt lat="44.0335" lon="6.90582">
        <ele>1739.7</ele>
        <time>2019-07-16T10:58:09Z</time>
      </trkpt>
      <trkpt lat="44.03348" lon="6.90578">
        <ele>1739.1</ele>
        <time>2019-07-16T10:58:10Z</time>
      </trkpt>
      <trkpt lat="44.03346" lon="6.90575">
        <ele>1738.4</ele>
        <time>2019-07-16T10:58:11Z</time>
      </trkpt>
      <trkpt lat="44.03345" lon="6.90571">
        <ele>1737.8</ele>
        <time>2019-07-16T10:58:12Z</time>
      </trkpt>
      <trkpt lat="44.03344" lon="6.90568">
        <ele>1737.2</ele>
        <time>2019-07-16T10:58:13Z</time>
      </trkpt>
      <trkpt lat="44.03342" lon="6.90564">
        <ele>1736.5</ele>
        <time>2019-07-16T10:58:14Z</time>
      </trkpt>
      <trkpt lat="44.03341" lon="6.9056">
        <ele>1735.8</ele>
        <time>2019-07-16T10:58:15Z</time>
      </trkpt>
      <trkpt lat="44.03338" lon="6.90556">
        <ele>1735.1</ele>
        <time>2019-07-16T10:58:16Z</time>
      </trkpt>
      <trkpt lat="44.03335" lon="6.90552">
        <ele>1734.4</ele>
        <time>2019-07-16T10:58:17Z</time>
      </trkpt>
      <trkpt lat="44.03334" lon="6.90548">
        <ele>1733.6</ele>
        <time>2019-07-16T10:58:18Z</time>
      </trkpt>
      <trkpt lat="44.03333" lon="6.90544">
        <ele>1732.8</ele>
        <time>2019-07-16T10:58:19Z</time>
      </trkpt>
      <trkpt lat="44.03331" lon="6.90539">
        <ele>1731.8</ele>
        <time>2019-07-16T10:58:20Z</time>
      </trkpt>
      <trkpt lat="44.03329" lon="6.90536">
        <ele>1731</ele>
        <time>2019-07-16T10:58:21Z</time>
      </trkpt>
      <trkpt lat="44.03327" lon="6.90532">
        <ele>1730.2</ele>
        <time>2019-07-16T10:58:22Z</time>
      </trkpt>
      <trkpt lat="44.03324" lon="6.90528">
        <ele>1729.4</ele>
        <time>2019-07-16T10:58:23Z</time>
      </trkpt>
      <trkpt lat="44.03321" lon="6.90523">
        <ele>1728.5</ele>
        <time>2019-07-16T10:58:24Z</time>
      </trkpt>
      <trkpt lat="44.03317" lon="6.90518">
        <ele>1727.7</ele>
        <time>2019-07-16T10:58:25Z</time>
      </trkpt>
      <trkpt lat="44.03314" lon="6.90512">
        <ele>1727</ele>
        <time>2019-07-16T10:58:26Z</time>
      </trkpt>
      <trkpt lat="44.03312" lon="6.90509">
        <ele>1726.4</ele>
        <time>2019-07-16T10:58:27Z</time>
      </trkpt>
      <trkpt lat="44.0331" lon="6.90504">
        <ele>1725.9</ele>
        <time>2019-07-16T10:58:28Z</time>
      </trkpt>
      <trkpt lat="44.03308" lon="6.90499">
        <ele>1725.5</ele>
        <time>2019-07-16T10:58:29Z</time>
      </trkpt>
      <trkpt lat="44.03307" lon="6.90495">
        <ele>1725.1</ele>
        <time>2019-07-16T10:58:30Z</time>
      </trkpt>
      <trkpt lat="44.03306" lon="6.90491">
        <ele>1724.8</ele>
        <time>2019-07-16T10:58:31Z</time>
      </trkpt>
      <trkpt lat="44.03305" lon="6.90487">
        <ele>1724.5</ele>
        <time>2019-07-16T10:58:32Z</time>
      </trkpt>
      <trkpt lat="44.03305" lon="6.90483">
        <ele>1724.1</ele>
        <time>2019-07-16T10:58:33Z</time>
      </trkpt>
      <trkpt lat="44.03304" lon="6.90478">
        <ele>1723.5</ele>
        <time>2019-07-16T10:58:34Z</time>
      </trkpt>
      <trkpt lat="44.03302" lon="6.90473">
        <ele>1722.9</ele>
        <time>2019-07-16T10:58:35Z</time>
      </trkpt>
      <trkpt lat="44.033" lon="6.90467">
        <ele>1722.3</ele>
        <time>2019-07-16T10:58:36Z</time>
      </trkpt>
      <trkpt lat="44.03298" lon="6.9046">
        <ele>1721.6</ele>
        <time>2019-07-16T10:58:37Z</time>
      </trkpt>
      <trkpt lat="44.03297" lon="6.90455">
        <ele>1721.6</ele>
        <time>2019-07-16T10:58:38Z</time>
      </trkpt>
      <trkpt lat="44.03297" lon="6.9045">
        <ele>1721.6</ele>
        <time>2019-07-16T10:58:39Z</time>
      </trkpt>
      <trkpt lat="44.03296" lon="6.90446">
        <ele>1721.4</ele>
        <time>2019-07-16T10:58:40Z</time>
      </trkpt>
      <trkpt lat="44.03296" lon="6.90441">
        <ele>1721.1</ele>
        <time>2019-07-16T10:58:42Z</time>
      </trkpt>
      <trkpt lat="44.03299" lon="6.90439">
        <ele>1720.8</ele>
        <time>2019-07-16T10:59:52Z</time>
      </trkpt>
      <trkpt lat="44.03301" lon="6.90435">
        <ele>1720.5</ele>
        <time>2019-07-16T10:59:54Z</time>
      </trkpt>
      <trkpt lat="44.03303" lon="6.90427">
        <ele>1720.1</ele>
        <time>2019-07-16T10:59:56Z</time>
      </trkpt>
      <trkpt lat="44.03304" lon="6.90423">
        <ele>1719.9</ele>
        <time>2019-07-16T10:59:57Z</time>
      </trkpt>
      <trkpt lat="44.03306" lon="6.9042">
        <ele>1719.7</ele>
        <time>2019-07-16T10:59:58Z</time>
      </trkpt>
      <trkpt lat="44.03309" lon="6.90414">
        <ele>1719.3</ele>
        <time>2019-07-16T11:00:00Z</time>
      </trkpt>
      <trkpt lat="44.0331" lon="6.90409">
        <ele>1719</ele>
        <time>2019-07-16T11:00:01Z</time>
      </trkpt>
      <trkpt lat="44.03312" lon="6.90403">
        <ele>1718.5</ele>
        <time>2019-07-16T11:00:03Z</time>
      </trkpt>
      <trkpt lat="44.03315" lon="6.90398">
        <ele>1718</ele>
        <time>2019-07-16T11:00:05Z</time>
      </trkpt>
      <trkpt lat="44.03316" lon="6.90393">
        <ele>1717.6</ele>
        <time>2019-07-16T11:00:07Z</time>
      </trkpt>
      <trkpt lat="44.03318" lon="6.90388">
        <ele>1716.9</ele>
        <time>2019-07-16T11:00:09Z</time>
      </trkpt>
      <trkpt lat="44.03319" lon="6.90382">
        <ele>1716</ele>
        <time>2019-07-16T11:00:11Z</time>
      </trkpt>
      <trkpt lat="44.03321" lon="6.90375">
        <ele>1715.1</ele>
        <time>2019-07-16T11:00:13Z</time>
      </trkpt>
      <trkpt lat="44.03323" lon="6.90372">
        <ele>1714.6</ele>
        <time>2019-07-16T11:00:15Z</time>
      </trkpt>
      <trkpt lat="44.03326" lon="6.9037">
        <ele>1714.1</ele>
        <time>2019-07-16T11:00:17Z</time>
      </trkpt>
      <trkpt lat="44.03327" lon="6.90365">
        <ele>1713.6</ele>
        <time>2019-07-16T11:00:18Z</time>
      </trkpt>
      <trkpt lat="44.03327" lon="6.90359">
        <ele>1712.9</ele>
        <time>2019-07-16T11:00:19Z</time>
      </trkpt>
      <trkpt lat="44.03328" lon="6.90353">
        <ele>1712</ele>
        <time>2019-07-16T11:00:20Z</time>
      </trkpt>
      <trkpt lat="44.0333" lon="6.90348">
        <ele>1711.3</ele>
        <time>2019-07-16T11:00:21Z</time>
      </trkpt>
      <trkpt lat="44.03331" lon="6.90342">
        <ele>1710.7</ele>
        <time>2019-07-16T11:00:22Z</time>
      </trkpt>
      <trkpt lat="44.03333" lon="6.90337">
        <ele>1710</ele>
        <time>2019-07-16T11:00:24Z</time>
      </trkpt>
      <trkpt lat="44.03335" lon="6.90334">
        <ele>1709.5</ele>
        <time>2019-07-16T11:00:26Z</time>
      </trkpt>
      <trkpt lat="44.03337" lon="6.90332">
        <ele>1709.1</ele>
        <time>2019-07-16T11:00:27Z</time>
      </trkpt>
      <trkpt lat="44.03342" lon="6.90328">
        <ele>1708.5</ele>
        <time>2019-07-16T11:00:29Z</time>
      </trkpt>
      <trkpt lat="44.03344" lon="6.90325">
        <ele>1708.1</ele>
        <time>2019-07-16T11:00:30Z</time>
      </trkpt>
      <trkpt lat="44.03346" lon="6.90319">
        <ele>1707.5</ele>
        <time>2019-07-16T11:00:31Z</time>
      </trkpt>
      <trkpt lat="44.03347" lon="6.90314">
        <ele>1706.9</ele>
        <time>2019-07-16T11:00:32Z</time>
      </trkpt>
      <trkpt lat="44.03349" lon="6.90308">
        <ele>1706.3</ele>
        <time>2019-07-16T11:00:33Z</time>
      </trkpt>
      <trkpt lat="44.0335" lon="6.90303">
        <ele>1705.8</ele>
        <time>2019-07-16T11:00:34Z</time>
      </trkpt>
      <trkpt lat="44.03352" lon="6.90299">
        <ele>1705.3</ele>
        <time>2019-07-16T11:00:36Z</time>
      </trkpt>
      <trkpt lat="44.03354" lon="6.90293">
        <ele>1704.7</ele>
        <time>2019-07-16T11:00:38Z</time>
      </trkpt>
      <trkpt lat="44.03356" lon="6.9029">
        <ele>1704.5</ele>
        <time>2019-07-16T11:00:39Z</time>
      </trkpt>
      <trkpt lat="44.03358" lon="6.90285">
        <ele>1704.2</ele>
        <time>2019-07-16T11:00:40Z</time>
      </trkpt>
      <trkpt lat="44.0336" lon="6.9028">
        <ele>1703.9</ele>
        <time>2019-07-16T11:00:41Z</time>
      </trkpt>
      <trkpt lat="44.03361" lon="6.90276">
        <ele>1703.6</ele>
        <time>2019-07-16T11:00:42Z</time>
      </trkpt>
      <trkpt lat="44.03363" lon="6.9027">
        <ele>1703.4</ele>
        <time>2019-07-16T11:00:43Z</time>
      </trkpt>
      <trkpt lat="44.03364" lon="6.90266">
        <ele>1703.2</ele>
        <time>2019-07-16T11:00:44Z</time>
      </trkpt>
      <trkpt lat="44.03364" lon="6.90261">
        <ele>1703</ele>
        <time>2019-07-16T11:00:45Z</time>
      </trkpt>
      <trkpt lat="44.03365" lon="6.90257">
        <ele>1702.8</ele>
        <time>2019-07-16T11:00:46Z</time>
      </trkpt>
      <trkpt lat="44.03366" lon="6.90253">
        <ele>1702.7</ele>
        <time>2019-07-16T11:00:47Z</time>
      </trkpt>
      <trkpt lat="44.03367" lon="6.9025">
        <ele>1702.5</ele>
        <time>2019-07-16T11:00:48Z</time>
      </trkpt>
      <trkpt lat="44.03368" lon="6.90246">
        <ele>1702.3</ele>
        <time>2019-07-16T11:00:49Z</time>
      </trkpt>
      <trkpt lat="44.03368" lon="6.90242">
        <ele>1702.1</ele>
        <time>2019-07-16T11:00:50Z</time>
      </trkpt>
      <trkpt lat="44.03368" lon="6.90235">
        <ele>1701.7</ele>
        <time>2019-07-16T11:00:52Z</time>
      </trkpt>
      <trkpt lat="44.03368" lon="6.90229">
        <ele>1701.5</ele>
        <time>2019-07-16T11:00:54Z</time>
      </trkpt>
      <trkpt lat="44.03367" lon="6.90222">
        <ele>1701.3</ele>
        <time>2019-07-16T11:00:56Z</time>
      </trkpt>
      <trkpt lat="44.03365" lon="6.90216">
        <ele>1701.2</ele>
        <time>2019-07-16T11:00:58Z</time>
      </trkpt>
      <trkpt lat="44.03362" lon="6.90212">
        <ele>1701.1</ele>
        <time>2019-07-16T11:01:00Z</time>
      </trkpt>
      <trkpt lat="44.0336" lon="6.90208">
        <ele>1701</ele>
        <time>2019-07-16T11:01:02Z</time>
      </trkpt>
      <trkpt lat="44.03359" lon="6.90203">
        <ele>1701</ele>
        <time>2019-07-16T11:01:04Z</time>
      </trkpt>
      <trkpt lat="44.03358" lon="6.90197">
        <ele>1701</ele>
        <time>2019-07-16T11:01:07Z</time>
      </trkpt>
      <trkpt lat="44.03358" lon="6.90193">
        <ele>1701</ele>
        <time>2019-07-16T11:01:11Z</time>
      </trkpt>
      <trkpt lat="44.03357" lon="6.90189">
        <ele>1701</ele>
        <time>2019-07-16T11:01:14Z</time>
      </trkpt>
      <trkpt lat="44.03356" lon="6.90183">
        <ele>1701.1</ele>
        <time>2019-07-16T11:01:16Z</time>
      </trkpt>
      <trkpt lat="44.03356" lon="6.90177">
        <ele>1701.2</ele>
        <time>2019-07-16T11:01:18Z</time>
      </trkpt>
      <trkpt lat="44.03355" lon="6.90171">
        <ele>1701.3</ele>
        <time>2019-07-16T11:01:20Z</time>
      </trkpt>
      <trkpt lat="44.03354" lon="6.90168">
        <ele>1701.3</ele>
        <time>2019-07-16T11:01:22Z</time>
      </trkpt>
      <trkpt lat="44.03351" lon="6.90164">
        <ele>1701.4</ele>
        <time>2019-07-16T11:01:24Z</time>
      </trkpt>
      <trkpt lat="44.03346" lon="6.90161">
        <ele>1701.5</ele>
        <time>2019-07-16T11:01:26Z</time>
      </trkpt>
      <trkpt lat="44.03343" lon="6.90158">
        <ele>1701.7</ele>
        <time>2019-07-16T11:01:28Z</time>
      </trkpt>
      <trkpt lat="44.03339" lon="6.90154">
        <ele>1701.8</ele>
        <time>2019-07-16T11:01:30Z</time>
      </trkpt>
      <trkpt lat="44.03338" lon="6.90147">
        <ele>1701.9</ele>
        <time>2019-07-16T11:01:32Z</time>
      </trkpt>
      <trkpt lat="44.03336" lon="6.90141">
        <ele>1702</ele>
        <time>2019-07-16T11:01:34Z</time>
      </trkpt>
      <trkpt lat="44.03335" lon="6.90138">
        <ele>1702</ele>
        <time>2019-07-16T11:01:37Z</time>
      </trkpt>
      <trkpt lat="44.03335" lon="6.90134">
        <ele>1702.1</ele>
        <time>2019-07-16T11:01:46Z</time>
      </trkpt>
      <trkpt lat="44.03332" lon="6.90136">
        <ele>1702.1</ele>
        <time>2019-07-16T11:01:54Z</time>
      </trkpt>
      <trkpt lat="44.03332" lon="6.9014">
        <ele>1702.2</ele>
        <time>2019-07-16T11:02:04Z</time>
      </trkpt>
      <trkpt lat="44.03334" lon="6.90142">
        <ele>1702.2</ele>
        <time>2019-07-16T11:02:21Z</time>
      </trkpt>
      <trkpt lat="44.03333" lon="6.90138">
        <ele>1702.2</ele>
        <time>2019-07-16T11:03:05Z</time>
      </trkpt>
      <trkpt lat="44.03334" lon="6.90133">
        <ele>1702.2</ele>
        <time>2019-07-16T11:03:10Z</time>
      </trkpt>
      <trkpt lat="44.03333" lon="6.9013">
        <ele>1702.2</ele>
        <time>2019-07-16T11:03:18Z</time>
      </trkpt>
      <trkpt lat="44.0333" lon="6.90129">
        <ele>1702.2</ele>
        <time>2019-07-16T11:03:21Z</time>
      </trkpt>
      <trkpt lat="44.03328" lon="6.90125">
        <ele>1702.1</ele>
        <time>2019-07-16T11:03:32Z</time>
      </trkpt>
      <trkpt lat="44.03326" lon="6.9012">
        <ele>1702.1</ele>
        <time>2019-07-16T11:03:34Z</time>
      </trkpt>
      <trkpt lat="44.03323" lon="6.90115">
        <ele>1702.1</ele>
        <time>2019-07-16T11:03:36Z</time>
      </trkpt>
      <trkpt lat="44.03322" lon="6.9011">
        <ele>1702.1</ele>
        <time>2019-07-16T11:03:37Z</time>
      </trkpt>
      <trkpt lat="44.03321" lon="6.90106">
        <ele>1702.1</ele>
        <time>2019-07-16T11:03:38Z</time>
      </trkpt>
      <trkpt lat="44.0332" lon="6.90097">
        <ele>1701.9</ele>
        <time>2019-07-16T11:03:40Z</time>
      </trkpt>
      <trkpt lat="44.03319" lon="6.90092">
        <ele>1701.8</ele>
        <time>2019-07-16T11:03:41Z</time>
      </trkpt>
      <trkpt lat="44.03319" lon="6.90087">
        <ele>1701.7</ele>
        <time>2019-07-16T11:03:42Z</time>
      </trkpt>
      <trkpt lat="44.03318" lon="6.90081">
        <ele>1701.5</ele>
        <time>2019-07-16T11:03:43Z</time>
      </trkpt>
      <trkpt lat="44.03318" lon="6.90075">
        <ele>1701.4</ele>
        <time>2019-07-16T11:03:44Z</time>
      </trkpt>
      <trkpt lat="44.03317" lon="6.90071">
        <ele>1701.2</ele>
        <time>2019-07-16T11:03:45Z</time>
      </trkpt>
      <trkpt lat="44.03315" lon="6.90064">
        <ele>1701</ele>
        <time>2019-07-16T11:03:47Z</time>
      </trkpt>
      <trkpt lat="44.0331" lon="6.90062">
        <ele>1700.4</ele>
        <time>2019-07-16T11:03:49Z</time>
      </trkpt>
      <trkpt lat="44.03305" lon="6.90061">
        <ele>1699.6</ele>
        <time>2019-07-16T11:03:51Z</time>
      </trkpt>
      <trkpt lat="44.03301" lon="6.90062">
        <ele>1698.9</ele>
        <time>2019-07-16T11:03:52Z</time>
      </trkpt>
      <trkpt lat="44.03298" lon="6.90064">
        <ele>1698.4</ele>
        <time>2019-07-16T11:03:53Z</time>
      </trkpt>
      <trkpt lat="44.03296" lon="6.90067">
        <ele>1697.6</ele>
        <time>2019-07-16T11:03:55Z</time>
      </trkpt>
      <trkpt lat="44.03294" lon="6.90069">
        <ele>1696.8</ele>
        <time>2019-07-16T11:04:04Z</time>
      </trkpt>
      <trkpt lat="44.03293" lon="6.90066">
        <ele>1696</ele>
        <time>2019-07-16T11:04:06Z</time>
      </trkpt>
      <trkpt lat="44.03291" lon="6.90062">
        <ele>1695.1</ele>
        <time>2019-07-16T11:04:08Z</time>
      </trkpt>
      <trkpt lat="44.03288" lon="6.90058">
        <ele>1694.1</ele>
        <time>2019-07-16T11:04:14Z</time>
      </trkpt>
      <trkpt lat="44.03286" lon="6.90055">
        <ele>1693.3</ele>
        <time>2019-07-16T11:04:20Z</time>
      </trkpt>
      <trkpt lat="44.03284" lon="6.90051">
        <ele>1692.4</ele>
        <time>2019-07-16T11:04:26Z</time>
      </trkpt>
      <trkpt lat="44.03281" lon="6.9005">
        <ele>1691.8</ele>
        <time>2019-07-16T11:05:06Z</time>
      </trkpt>
      <trkpt lat="44.03279" lon="6.9005">
        <ele>1691.3</ele>
        <time>2019-07-16T11:05:07Z</time>
      </trkpt>
      <trkpt lat="44.03275" lon="6.9005">
        <ele>1690.8</ele>
        <time>2019-07-16T11:05:08Z</time>
      </trkpt>
      <trkpt lat="44.03271" lon="6.9005">
        <ele>1690.3</ele>
        <time>2019-07-16T11:05:09Z</time>
      </trkpt>
      <trkpt lat="44.03267" lon="6.9005">
        <ele>1689.7</ele>
        <time>2019-07-16T11:05:10Z</time>
      </trkpt>
      <trkpt lat="44.03263" lon="6.9005">
        <ele>1689.1</ele>
        <time>2019-07-16T11:05:11Z</time>
      </trkpt>
      <trkpt lat="44.03259" lon="6.90049">
        <ele>1688.4</ele>
        <time>2019-07-16T11:05:12Z</time>
      </trkpt>
      <trkpt lat="44.03255" lon="6.90047">
        <ele>1688.1</ele>
        <time>2019-07-16T11:05:13Z</time>
      </trkpt>
      <trkpt lat="44.03253" lon="6.90044">
        <ele>1687.9</ele>
        <time>2019-07-16T11:05:14Z</time>
      </trkpt>
      <trkpt lat="44.03251" lon="6.90041">
        <ele>1687.7</ele>
        <time>2019-07-16T11:05:15Z</time>
      </trkpt>
      <trkpt lat="44.03248" lon="6.90039">
        <ele>1687.5</ele>
        <time>2019-07-16T11:05:16Z</time>
      </trkpt>
      <trkpt lat="44.03245" lon="6.90037">
        <ele>1687.4</ele>
        <time>2019-07-16T11:05:17Z</time>
      </trkpt>
      <trkpt lat="44.03242" lon="6.90035">
        <ele>1687.2</ele>
        <time>2019-07-16T11:05:18Z</time>
      </trkpt>
      <trkpt lat="44.03238" lon="6.90034">
        <ele>1686.9</ele>
        <time>2019-07-16T11:05:19Z</time>
      </trkpt>
      <trkpt lat="44.03235" lon="6.90032">
        <ele>1686.7</ele>
        <time>2019-07-16T11:05:20Z</time>
      </trkpt>
      <trkpt lat="44.03232" lon="6.9003">
        <ele>1686.6</ele>
        <time>2019-07-16T11:05:21Z</time>
      </trkpt>
      <trkpt lat="44.03229" lon="6.90027">
        <ele>1686.4</ele>
        <time>2019-07-16T11:05:22Z</time>
      </trkpt>
      <trkpt lat="44.03226" lon="6.90024">
        <ele>1686.2</ele>
        <time>2019-07-16T11:05:24Z</time>
      </trkpt>
      <trkpt lat="44.03221" lon="6.90021">
        <ele>1686</ele>
        <time>2019-07-16T11:05:26Z</time>
      </trkpt>
      <trkpt lat="44.03217" lon="6.90018">
        <ele>1685.8</ele>
        <time>2019-07-16T11:05:28Z</time>
      </trkpt>
      <trkpt lat="44.03215" lon="6.90013">
        <ele>1685.5</ele>
        <time>2019-07-16T11:05:30Z</time>
      </trkpt>
      <trkpt lat="44.03214" lon="6.90008">
        <ele>1685.4</ele>
        <time>2019-07-16T11:05:32Z</time>
      </trkpt>
      <trkpt lat="44.03217" lon="6.90003">
        <ele>1685.1</ele>
        <time>2019-07-16T11:05:34Z</time>
      </trkpt>
      <trkpt lat="44.03218" lon="6.89999">
        <ele>1685</ele>
        <time>2019-07-16T11:05:37Z</time>
      </trkpt>
      <trkpt lat="44.03221" lon="6.89995">
        <ele>1684.9</ele>
        <time>2019-07-16T11:05:39Z</time>
      </trkpt>
      <trkpt lat="44.03224" lon="6.89994">
        <ele>1684.8</ele>
        <time>2019-07-16T11:05:41Z</time>
      </trkpt>
      <trkpt lat="44.03227" lon="6.89994">
        <ele>1684.6</ele>
        <time>2019-07-16T11:05:44Z</time>
      </trkpt>
      <trkpt lat="44.0323" lon="6.89992">
        <ele>1684.5</ele>
        <time>2019-07-16T11:05:46Z</time>
      </trkpt>
      <trkpt lat="44.03233" lon="6.89989">
        <ele>1684.4</ele>
        <time>2019-07-16T11:05:48Z</time>
      </trkpt>
      <trkpt lat="44.03235" lon="6.89986">
        <ele>1684.2</ele>
        <time>2019-07-16T11:05:50Z</time>
      </trkpt>
      <trkpt lat="44.03238" lon="6.89983">
        <ele>1684.2</ele>
        <time>2019-07-16T11:05:52Z</time>
      </trkpt>
      <trkpt lat="44.03241" lon="6.89982">
        <ele>1684.1</ele>
        <time>2019-07-16T11:05:55Z</time>
      </trkpt>
      <trkpt lat="44.03244" lon="6.8998">
        <ele>1684</ele>
        <time>2019-07-16T11:05:57Z</time>
      </trkpt>
      <trkpt lat="44.03244" lon="6.89975">
        <ele>1683.9</ele>
        <time>2019-07-16T11:05:59Z</time>
      </trkpt>
      <trkpt lat="44.03245" lon="6.8997">
        <ele>1683.8</ele>
        <time>2019-07-16T11:06:01Z</time>
      </trkpt>
      <trkpt lat="44.03245" lon="6.89965">
        <ele>1683.7</ele>
        <time>2019-07-16T11:06:03Z</time>
      </trkpt>
      <trkpt lat="44.03244" lon="6.8996">
        <ele>1683.5</ele>
        <time>2019-07-16T11:06:05Z</time>
      </trkpt>
      <trkpt lat="44.03244" lon="6.89956">
        <ele>1683.5</ele>
        <time>2019-07-16T11:06:07Z</time>
      </trkpt>
      <trkpt lat="44.03243" lon="6.89951">
        <ele>1683.4</ele>
        <time>2019-07-16T11:06:09Z</time>
      </trkpt>
      <trkpt lat="44.03243" lon="6.89946">
        <ele>1683.2</ele>
        <time>2019-07-16T11:06:12Z</time>
      </trkpt>
      <trkpt lat="44.03242" lon="6.8994">
        <ele>1683.1</ele>
        <time>2019-07-16T11:06:14Z</time>
      </trkpt>
      <trkpt lat="44.03239" lon="6.89936">
        <ele>1683</ele>
        <time>2019-07-16T11:06:16Z</time>
      </trkpt>
      <trkpt lat="44.03235" lon="6.89936">
        <ele>1682.9</ele>
        <time>2019-07-16T11:06:18Z</time>
      </trkpt>
      <trkpt lat="44.03232" lon="6.89935">
        <ele>1682.8</ele>
        <time>2019-07-16T11:06:20Z</time>
      </trkpt>
      <trkpt lat="44.0323" lon="6.89933">
        <ele>1682.8</ele>
        <time>2019-07-16T11:06:22Z</time>
      </trkpt>
      <trkpt lat="44.03228" lon="6.8993">
        <ele>1682.7</ele>
        <time>2019-07-16T11:06:24Z</time>
      </trkpt>
      <trkpt lat="44.03228" lon="6.89926">
        <ele>1682.6</ele>
        <time>2019-07-16T11:06:27Z</time>
      </trkpt>
      <trkpt lat="44.0323" lon="6.89922">
        <ele>1682.5</ele>
        <time>2019-07-16T11:06:30Z</time>
      </trkpt>
      <trkpt lat="44.03231" lon="6.89915">
        <ele>1682.4</ele>
        <time>2019-07-16T11:06:32Z</time>
      </trkpt>
      <trkpt lat="44.03228" lon="6.89911">
        <ele>1682.3</ele>
        <time>2019-07-16T11:06:34Z</time>
      </trkpt>
      <trkpt lat="44.03226" lon="6.89909">
        <ele>1682.2</ele>
        <time>2019-07-16T11:06:36Z</time>
      </trkpt>
      <trkpt lat="44.03226" lon="6.89904">
        <ele>1682.1</ele>
        <time>2019-07-16T11:06:39Z</time>
      </trkpt>
      <trkpt lat="44.03228" lon="6.899">
        <ele>1682.1</ele>
        <time>2019-07-16T11:06:42Z</time>
      </trkpt>
      <trkpt lat="44.03228" lon="6.89894">
        <ele>1682.1</ele>
        <time>2019-07-16T11:06:45Z</time>
      </trkpt>
      <trkpt lat="44.0323" lon="6.89891">
        <ele>1682.1</ele>
        <time>2019-07-16T11:06:47Z</time>
      </trkpt>
      <trkpt lat="44.0323" lon="6.89887">
        <ele>1682.1</ele>
        <time>2019-07-16T11:06:49Z</time>
      </trkpt>
      <trkpt lat="44.03232" lon="6.89881">
        <ele>1682</ele>
        <time>2019-07-16T11:06:52Z</time>
      </trkpt>
      <trkpt lat="44.03233" lon="6.89877">
        <ele>1682</ele>
        <time>2019-07-16T11:06:54Z</time>
      </trkpt>
      <trkpt lat="44.03235" lon="6.89874">
        <ele>1682</ele>
        <time>2019-07-16T11:06:56Z</time>
      </trkpt>
      <trkpt lat="44.03237" lon="6.8987">
        <ele>1682</ele>
        <time>2019-07-16T11:06:58Z</time>
      </trkpt>
      <trkpt lat="44.03238" lon="6.89867">
        <ele>1682.1</ele>
        <time>2019-07-16T11:07:00Z</time>
      </trkpt>
      <trkpt lat="44.03239" lon="6.89863">
        <ele>1682.1</ele>
        <time>2019-07-16T11:07:02Z</time>
      </trkpt>
      <trkpt lat="44.0324" lon="6.89859">
        <ele>1682.2</ele>
        <time>2019-07-16T11:07:04Z</time>
      </trkpt>
      <trkpt lat="44.03242" lon="6.89855">
        <ele>1682.2</ele>
        <time>2019-07-16T11:07:06Z</time>
      </trkpt>
      <trkpt lat="44.03244" lon="6.89852">
        <ele>1682.2</ele>
        <time>2019-07-16T11:07:08Z</time>
      </trkpt>
      <trkpt lat="44.03246" lon="6.89849">
        <ele>1682.2</ele>
        <time>2019-07-16T11:07:10Z</time>
      </trkpt>
      <trkpt lat="44.03248" lon="6.89846">
        <ele>1682.3</ele>
        <time>2019-07-16T11:07:12Z</time>
      </trkpt>
      <trkpt lat="44.0325" lon="6.89842">
        <ele>1682.3</ele>
        <time>2019-07-16T11:08:11Z</time>
      </trkpt>
      <trkpt lat="44.03251" lon="6.89838">
        <ele>1682.3</ele>
        <time>2019-07-16T11:08:13Z</time>
      </trkpt>
      <trkpt lat="44.03249" lon="6.89832">
        <ele>1682.4</ele>
        <time>2019-07-16T11:08:15Z</time>
      </trkpt>
      <trkpt lat="44.03245" lon="6.89829">
        <ele>1682.5</ele>
        <time>2019-07-16T11:08:17Z</time>
      </trkpt>
      <trkpt lat="44.03242" lon="6.89824">
        <ele>1682.6</ele>
        <time>2019-07-16T11:08:19Z</time>
      </trkpt>
      <trkpt lat="44.0324" lon="6.89819">
        <ele>1682.8</ele>
        <time>2019-07-16T11:08:21Z</time>
      </trkpt>
      <trkpt lat="44.03238" lon="6.89813">
        <ele>1682.9</ele>
        <time>2019-07-16T11:08:23Z</time>
      </trkpt>
      <trkpt lat="44.03236" lon="6.89807">
        <ele>1683.1</ele>
        <time>2019-07-16T11:08:25Z</time>
      </trkpt>
      <trkpt lat="44.03234" lon="6.89802">
        <ele>1683.3</ele>
        <time>2019-07-16T11:08:27Z</time>
      </trkpt>
      <trkpt lat="44.03233" lon="6.89798">
        <ele>1683.4</ele>
        <time>2019-07-16T11:08:29Z</time>
      </trkpt>
      <trkpt lat="44.03232" lon="6.89793">
        <ele>1683.5</ele>
        <time>2019-07-16T11:08:31Z</time>
      </trkpt>
      <trkpt lat="44.03232" lon="6.89789">
        <ele>1683.7</ele>
        <time>2019-07-16T11:08:33Z</time>
      </trkpt>
      <trkpt lat="44.03231" lon="6.89785">
        <ele>1683.8</ele>
        <time>2019-07-16T11:08:35Z</time>
      </trkpt>
      <trkpt lat="44.03231" lon="6.89779">
        <ele>1684.1</ele>
        <time>2019-07-16T11:08:37Z</time>
      </trkpt>
      <trkpt lat="44.03229" lon="6.89775">
        <ele>1684.3</ele>
        <time>2019-07-16T11:08:39Z</time>
      </trkpt>
      <trkpt lat="44.03228" lon="6.89771">
        <ele>1684.4</ele>
        <time>2019-07-16T11:08:41Z</time>
      </trkpt>
      <trkpt lat="44.03225" lon="6.89767">
        <ele>1684.6</ele>
        <time>2019-07-16T11:08:43Z</time>
      </trkpt>
      <trkpt lat="44.03222" lon="6.89763">
        <ele>1684.8</ele>
        <time>2019-07-16T11:08:45Z</time>
      </trkpt>
      <trkpt lat="44.03221" lon="6.89759">
        <ele>1685.1</ele>
        <time>2019-07-16T11:08:47Z</time>
      </trkpt>
      <trkpt lat="44.03222" lon="6.89755">
        <ele>1685.4</ele>
        <time>2019-07-16T11:10:53Z</time>
      </trkpt>
      <trkpt lat="44.03222" lon="6.8975">
        <ele>1685.7</ele>
        <time>2019-07-16T11:10:55Z</time>
      </trkpt>
      <trkpt lat="44.03221" lon="6.89743">
        <ele>1686.2</ele>
        <time>2019-07-16T11:10:57Z</time>
      </trkpt>
      <trkpt lat="44.03221" lon="6.89739">
        <ele>1686.5</ele>
        <time>2019-07-16T11:10:58Z</time>
      </trkpt>
      <trkpt lat="44.0322" lon="6.89734">
        <ele>1686.9</ele>
        <time>2019-07-16T11:10:59Z</time>
      </trkpt>
      <trkpt lat="44.0322" lon="6.89729">
        <ele>1687.4</ele>
        <time>2019-07-16T11:11:00Z</time>
      </trkpt>
      <trkpt lat="44.0322" lon="6.89725">
        <ele>1687.8</ele>
        <time>2019-07-16T11:11:01Z</time>
      </trkpt>
      <trkpt lat="44.03221" lon="6.89721">
        <ele>1688.2</ele>
        <time>2019-07-16T11:11:02Z</time>
      </trkpt>
      <trkpt lat="44.03221" lon="6.89714">
        <ele>1688.8</ele>
        <time>2019-07-16T11:11:04Z</time>
      </trkpt>
      <trkpt lat="44.03222" lon="6.89707">
        <ele>1689.3</ele>
        <time>2019-07-16T11:11:06Z</time>
      </trkpt>
      <trkpt lat="44.03225" lon="6.89701">
        <ele>1689.5</ele>
        <time>2019-07-16T11:11:08Z</time>
      </trkpt>
      <trkpt lat="44.03226" lon="6.89696">
        <ele>1689.6</ele>
        <time>2019-07-16T11:11:10Z</time>
      </trkpt>
      <trkpt lat="44.03227" lon="6.89691">
        <ele>1689.5</ele>
        <time>2019-07-16T11:11:12Z</time>
      </trkpt>
      <trkpt lat="44.03228" lon="6.89685">
        <ele>1689.5</ele>
        <time>2019-07-16T11:11:14Z</time>
      </trkpt>
      <trkpt lat="44.03227" lon="6.89679">
        <ele>1689.6</ele>
        <time>2019-07-16T11:11:16Z</time>
      </trkpt>
      <trkpt lat="44.03227" lon="6.89675">
        <ele>1689.7</ele>
        <time>2019-07-16T11:11:25Z</time>
      </trkpt>
      <trkpt lat="44.03226" lon="6.89671">
        <ele>1689.8</ele>
        <time>2019-07-16T11:11:30Z</time>
      </trkpt>
      <trkpt lat="44.03225" lon="6.89668">
        <ele>1689.8</ele>
        <time>2019-07-16T11:11:34Z</time>
      </trkpt>
      <trkpt lat="44.03222" lon="6.89666">
        <ele>1689.6</ele>
        <time>2019-07-16T11:11:37Z</time>
      </trkpt>
      <trkpt lat="44.03219" lon="6.89664">
        <ele>1689.5</ele>
        <time>2019-07-16T11:11:47Z</time>
      </trkpt>
      <trkpt lat="44.03217" lon="6.8966">
        <ele>1689.4</ele>
        <time>2019-07-16T11:11:50Z</time>
      </trkpt>
      <trkpt lat="44.03215" lon="6.89656">
        <ele>1689.2</ele>
        <time>2019-07-16T11:11:52Z</time>
      </trkpt>
      <trkpt lat="44.03214" lon="6.89652">
        <ele>1689.1</ele>
        <time>2019-07-16T11:11:55Z</time>
      </trkpt>
      <trkpt lat="44.03214" lon="6.89647">
        <ele>1688.9</ele>
        <time>2019-07-16T11:11:59Z</time>
      </trkpt>
      <trkpt lat="44.03215" lon="6.89642">
        <ele>1688.7</ele>
        <time>2019-07-16T11:12:02Z</time>
      </trkpt>
      <trkpt lat="44.03215" lon="6.89637">
        <ele>1688.4</ele>
        <time>2019-07-16T11:12:05Z</time>
      </trkpt>
      <trkpt lat="44.03215" lon="6.89631">
        <ele>1688</ele>
        <time>2019-07-16T11:12:07Z</time>
      </trkpt>
      <trkpt lat="44.03213" lon="6.89625">
        <ele>1687.5</ele>
        <time>2019-07-16T11:12:09Z</time>
      </trkpt>
      <trkpt lat="44.03212" lon="6.8962">
        <ele>1686.7</ele>
        <time>2019-07-16T11:12:11Z</time>
      </trkpt>
      <trkpt lat="44.03212" lon="6.89616">
        <ele>1686.1</ele>
        <time>2019-07-16T11:12:22Z</time>
      </trkpt>
      <trkpt lat="44.03209" lon="6.89612">
        <ele>1685.5</ele>
        <time>2019-07-16T11:12:27Z</time>
      </trkpt>
      <trkpt lat="44.03207" lon="6.89609">
        <ele>1685</ele>
        <time>2019-07-16T11:12:29Z</time>
      </trkpt>
      <trkpt lat="44.03205" lon="6.89605">
        <ele>1684.3</ele>
        <time>2019-07-16T11:12:31Z</time>
      </trkpt>
      <trkpt lat="44.03204" lon="6.896">
        <ele>1682.9</ele>
        <time>2019-07-16T11:12:33Z</time>
      </trkpt>
      <trkpt lat="44.03201" lon="6.89596">
        <ele>1681.5</ele>
        <time>2019-07-16T11:12:35Z</time>
      </trkpt>
      <trkpt lat="44.03198" lon="6.89592">
        <ele>1680.4</ele>
        <time>2019-07-16T11:12:37Z</time>
      </trkpt>
      <trkpt lat="44.03197" lon="6.89589">
        <ele>1679.7</ele>
        <time>2019-07-16T11:12:39Z</time>
      </trkpt>
      <trkpt lat="44.03195" lon="6.89584">
        <ele>1678.3</ele>
        <time>2019-07-16T11:12:42Z</time>
      </trkpt>
      <trkpt lat="44.03194" lon="6.89578">
        <ele>1676.3</ele>
        <time>2019-07-16T11:12:44Z</time>
      </trkpt>
      <trkpt lat="44.03193" lon="6.89574">
        <ele>1674.9</ele>
        <time>2019-07-16T11:12:46Z</time>
      </trkpt>
      <trkpt lat="44.03191" lon="6.89569">
        <ele>1673.5</ele>
        <time>2019-07-16T11:12:48Z</time>
      </trkpt>
      <trkpt lat="44.03189" lon="6.89566">
        <ele>1672.5</ele>
        <time>2019-07-16T11:12:49Z</time>
      </trkpt>
      <trkpt lat="44.03185" lon="6.89565">
        <ele>1670.1</ele>
        <time>2019-07-16T11:12:51Z</time>
      </trkpt>
      <trkpt lat="44.03183" lon="6.89562">
        <ele>1668.5</ele>
        <time>2019-07-16T11:12:56Z</time>
      </trkpt>
      <trkpt lat="44.03181" lon="6.89559">
        <ele>1667</ele>
        <time>2019-07-16T11:12:58Z</time>
      </trkpt>
      <trkpt lat="44.03177" lon="6.89556">
        <ele>1665.4</ele>
        <time>2019-07-16T11:13:00Z</time>
      </trkpt>
      <trkpt lat="44.03174" lon="6.89555">
        <ele>1664</ele>
        <time>2019-07-16T11:13:02Z</time>
      </trkpt>
      <trkpt lat="44.03172" lon="6.89551">
        <ele>1662.2</ele>
        <time>2019-07-16T11:13:05Z</time>
      </trkpt>
      <trkpt lat="44.03169" lon="6.89549">
        <ele>1660.5</ele>
        <time>2019-07-16T11:13:08Z</time>
      </trkpt>
      <trkpt lat="44.03166" lon="6.89547">
        <ele>1658.7</ele>
        <time>2019-07-16T11:13:10Z</time>
      </trkpt>
      <trkpt lat="44.03163" lon="6.89545">
        <ele>1656.8</ele>
        <time>2019-07-16T11:13:12Z</time>
      </trkpt>
      <trkpt lat="44.03159" lon="6.89545">
        <ele>1654.6</ele>
        <time>2019-07-16T11:13:14Z</time>
      </trkpt>
      <trkpt lat="44.03154" lon="6.89547">
        <ele>1652</ele>
        <time>2019-07-16T11:13:16Z</time>
      </trkpt>
      <trkpt lat="44.03151" lon="6.89551">
        <ele>1649.6</ele>
        <time>2019-07-16T11:13:18Z</time>
      </trkpt>
      <trkpt lat="44.03148" lon="6.89555">
        <ele>1648.3</ele>
        <time>2019-07-16T11:13:20Z</time>
      </trkpt>
      <trkpt lat="44.03146" lon="6.89558">
        <ele>1647</ele>
        <time>2019-07-16T11:13:22Z</time>
      </trkpt>
      <trkpt lat="44.03142" lon="6.89557">
        <ele>1645</ele>
        <time>2019-07-16T11:13:24Z</time>
      </trkpt>
      <trkpt lat="44.03139" lon="6.89554">
        <ele>1643</ele>
        <time>2019-07-16T11:13:26Z</time>
      </trkpt>
      <trkpt lat="44.03137" lon="6.89551">
        <ele>1641.6</ele>
        <time>2019-07-16T11:13:28Z</time>
      </trkpt>
      <trkpt lat="44.03135" lon="6.89545">
        <ele>1640.5</ele>
        <time>2019-07-16T11:13:30Z</time>
      </trkpt>
      <trkpt lat="44.03134" lon="6.89539">
        <ele>1639.4</ele>
        <time>2019-07-16T11:13:32Z</time>
      </trkpt>
      <trkpt lat="44.03134" lon="6.89533">
        <ele>1638.2</ele>
        <time>2019-07-16T11:13:34Z</time>
      </trkpt>
      <trkpt lat="44.03132" lon="6.89526">
        <ele>1636.7</ele>
        <time>2019-07-16T11:13:36Z</time>
      </trkpt>
      <trkpt lat="44.03132" lon="6.89521">
        <ele>1635.8</ele>
        <time>2019-07-16T11:13:37Z</time>
      </trkpt>
      <trkpt lat="44.03131" lon="6.89517">
        <ele>1634.7</ele>
        <time>2019-07-16T11:13:38Z</time>
      </trkpt>
      <trkpt lat="44.03129" lon="6.89511">
        <ele>1632.5</ele>
        <time>2019-07-16T11:13:40Z</time>
      </trkpt>
      <trkpt lat="44.03125" lon="6.89506">
        <ele>1630.8</ele>
        <time>2019-07-16T11:13:42Z</time>
      </trkpt>
      <trkpt lat="44.03124" lon="6.89503">
        <ele>1630</ele>
        <time>2019-07-16T11:13:43Z</time>
      </trkpt>
      <trkpt lat="44.03123" lon="6.89499">
        <ele>1629.2</ele>
        <time>2019-07-16T11:13:44Z</time>
      </trkpt>
      <trkpt lat="44.0312" lon="6.89494">
        <ele>1627.6</ele>
        <time>2019-07-16T11:13:46Z</time>
      </trkpt>
      <trkpt lat="44.03119" lon="6.8949">
        <ele>1626.6</ele>
        <time>2019-07-16T11:13:48Z</time>
      </trkpt>
      <trkpt lat="44.03115" lon="6.89487">
        <ele>1625.1</ele>
        <time>2019-07-16T11:13:50Z</time>
      </trkpt>
      <trkpt lat="44.03111" lon="6.89484">
        <ele>1623.1</ele>
        <time>2019-07-16T11:13:52Z</time>
      </trkpt>
      <trkpt lat="44.03106" lon="6.89483">
        <ele>1620.9</ele>
        <time>2019-07-16T11:13:54Z</time>
      </trkpt>
      <trkpt lat="44.031" lon="6.89484">
        <ele>1618.5</ele>
        <time>2019-07-16T11:13:56Z</time>
      </trkpt>
      <trkpt lat="44.03095" lon="6.89484">
        <ele>1616.4</ele>
        <time>2019-07-16T11:13:58Z</time>
      </trkpt>
      <trkpt lat="44.0309" lon="6.89484">
        <ele>1614.8</ele>
        <time>2019-07-16T11:14:00Z</time>
      </trkpt>
      <trkpt lat="44.03085" lon="6.89487">
        <ele>1613.4</ele>
        <time>2019-07-16T11:14:01Z</time>
      </trkpt>
      <trkpt lat="44.03082" lon="6.89489">
        <ele>1612.2</ele>
        <time>2019-07-16T11:14:02Z</time>
      </trkpt>
      <trkpt lat="44.03078" lon="6.89489">
        <ele>1611.3</ele>
        <time>2019-07-16T11:14:04Z</time>
      </trkpt>
      <trkpt lat="44.03081" lon="6.89492">
        <ele>1610.6</ele>
        <time>2019-07-16T11:14:26Z</time>
      </trkpt>
      <trkpt lat="44.03082" lon="6.89488">
        <ele>1610</ele>
        <time>2019-07-16T11:14:31Z</time>
      </trkpt>
      <trkpt lat="44.03079" lon="6.89491">
        <ele>1609</ele>
        <time>2019-07-16T11:14:42Z</time>
      </trkpt>
      <trkpt lat="44.0308" lon="6.89488">
        <ele>1608.3</ele>
        <time>2019-07-16T11:15:15Z</time>
      </trkpt>
      <trkpt lat="44.03083" lon="6.89489">
        <ele>1607.6</ele>
        <time>2019-07-16T11:15:21Z</time>
      </trkpt>
      <trkpt lat="44.0308" lon="6.89488">
        <ele>1606.7</ele>
        <time>2019-07-16T11:15:34Z</time>
      </trkpt>
      <trkpt lat="44.03076" lon="6.89488">
        <ele>1605.9</ele>
        <time>2019-07-16T11:15:36Z</time>
      </trkpt>
      <trkpt lat="44.03072" lon="6.89487">
        <ele>1604.8</ele>
        <time>2019-07-16T11:15:38Z</time>
      </trkpt>
      <trkpt lat="44.03069" lon="6.89487">
        <ele>1604</ele>
        <time>2019-07-16T11:15:39Z</time>
      </trkpt>
      <trkpt lat="44.03065" lon="6.89487">
        <ele>1603.2</ele>
        <time>2019-07-16T11:15:40Z</time>
      </trkpt>
      <trkpt lat="44.03062" lon="6.89488">
        <ele>1602.8</ele>
        <time>2019-07-16T11:15:41Z</time>
      </trkpt>
      <trkpt lat="44.03059" lon="6.89488">
        <ele>1602.4</ele>
        <time>2019-07-16T11:15:42Z</time>
      </trkpt>
      <trkpt lat="44.03056" lon="6.89489">
        <ele>1601.9</ele>
        <time>2019-07-16T11:15:43Z</time>
      </trkpt>
      <trkpt lat="44.03053" lon="6.8949">
        <ele>1601.3</ele>
        <time>2019-07-16T11:15:44Z</time>
      </trkpt>
      <trkpt lat="44.0305" lon="6.89491">
        <ele>1600.7</ele>
        <time>2019-07-16T11:15:45Z</time>
      </trkpt>
      <trkpt lat="44.03047" lon="6.89492">
        <ele>1600.1</ele>
        <time>2019-07-16T11:15:47Z</time>
      </trkpt>
      <trkpt lat="44.03044" lon="6.89493">
        <ele>1599.4</ele>
        <time>2019-07-16T11:16:05Z</time>
      </trkpt>
      <trkpt lat="44.03041" lon="6.89491">
        <ele>1598.7</ele>
        <time>2019-07-16T11:16:11Z</time>
      </trkpt>
      <trkpt lat="44.03038" lon="6.89491">
        <ele>1597.9</ele>
        <time>2019-07-16T11:16:15Z</time>
      </trkpt>
      <trkpt lat="44.03034" lon="6.89488">
        <ele>1597.1</ele>
        <time>2019-07-16T11:16:17Z</time>
      </trkpt>
      <trkpt lat="44.03032" lon="6.89485">
        <ele>1596.5</ele>
        <time>2019-07-16T11:16:18Z</time>
      </trkpt>
      <trkpt lat="44.03029" lon="6.89482">
        <ele>1595.6</ele>
        <time>2019-07-16T11:16:19Z</time>
      </trkpt>
      <trkpt lat="44.03026" lon="6.89479">
        <ele>1594.6</ele>
        <time>2019-07-16T11:16:21Z</time>
      </trkpt>
      <trkpt lat="44.03025" lon="6.89476">
        <ele>1593.9</ele>
        <time>2019-07-16T11:16:28Z</time>
      </trkpt>
      <trkpt lat="44.03022" lon="6.89473">
        <ele>1593.1</ele>
        <time>2019-07-16T11:16:32Z</time>
      </trkpt>
      <trkpt lat="44.03018" lon="6.89471">
        <ele>1592.1</ele>
        <time>2019-07-16T11:16:35Z</time>
      </trkpt>
      <trkpt lat="44.03016" lon="6.8947">
        <ele>1591.5</ele>
        <time>2019-07-16T11:16:38Z</time>
      </trkpt>
      <trkpt lat="44.03013" lon="6.89469">
        <ele>1591</ele>
        <time>2019-07-16T11:16:40Z</time>
      </trkpt>
      <trkpt lat="44.03009" lon="6.89469">
        <ele>1590.1</ele>
        <time>2019-07-16T11:16:42Z</time>
      </trkpt>
      <trkpt lat="44.03005" lon="6.89468">
        <ele>1588.7</ele>
        <time>2019-07-16T11:16:44Z</time>
      </trkpt>
      <trkpt lat="44.03001" lon="6.89467">
        <ele>1587.4</ele>
        <time>2019-07-16T11:16:46Z</time>
      </trkpt>
      <trkpt lat="44.02997" lon="6.89463">
        <ele>1586.4</ele>
        <time>2019-07-16T11:16:48Z</time>
      </trkpt>
      <trkpt lat="44.02994" lon="6.89457">
        <ele>1584.9</ele>
        <time>2019-07-16T11:16:50Z</time>
      </trkpt>
      <trkpt lat="44.02991" lon="6.89451">
        <ele>1583.4</ele>
        <time>2019-07-16T11:16:52Z</time>
      </trkpt>
      <trkpt lat="44.02989" lon="6.89448">
        <ele>1582.6</ele>
        <time>2019-07-16T11:16:56Z</time>
      </trkpt>
      <trkpt lat="44.02986" lon="6.89447">
        <ele>1581.9</ele>
        <time>2019-07-16T11:16:58Z</time>
      </trkpt>
      <trkpt lat="44.02982" lon="6.89444">
        <ele>1581.5</ele>
        <time>2019-07-16T11:17:00Z</time>
      </trkpt>
      <trkpt lat="44.02979" lon="6.89442">
        <ele>1581.4</ele>
        <time>2019-07-16T11:17:01Z</time>
      </trkpt>
      <trkpt lat="44.02976" lon="6.89441">
        <ele>1581.3</ele>
        <time>2019-07-16T11:17:02Z</time>
      </trkpt>
      <trkpt lat="44.02973" lon="6.8944">
        <ele>1581.1</ele>
        <time>2019-07-16T11:17:03Z</time>
      </trkpt>
      <trkpt lat="44.02968" lon="6.89438">
        <ele>1580.7</ele>
        <time>2019-07-16T11:17:05Z</time>
      </trkpt>
      <trkpt lat="44.02964" lon="6.89433">
        <ele>1580.4</ele>
        <time>2019-07-16T11:17:07Z</time>
      </trkpt>
      <trkpt lat="44.02961" lon="6.8943">
        <ele>1580.3</ele>
        <time>2019-07-16T11:17:09Z</time>
      </trkpt>
      <trkpt lat="44.02962" lon="6.89425">
        <ele>1579.6</ele>
        <time>2019-07-16T11:17:12Z</time>
      </trkpt>
      <trkpt lat="44.02965" lon="6.89419">
        <ele>1578.5</ele>
        <time>2019-07-16T11:17:14Z</time>
      </trkpt>
      <trkpt lat="44.02966" lon="6.89415">
        <ele>1578</ele>
        <time>2019-07-16T11:17:17Z</time>
      </trkpt>
      <trkpt lat="44.0297" lon="6.8941">
        <ele>1577.7</ele>
        <time>2019-07-16T11:17:19Z</time>
      </trkpt>
      <trkpt lat="44.02972" lon="6.89408">
        <ele>1577.4</ele>
        <time>2019-07-16T11:17:20Z</time>
      </trkpt>
      <trkpt lat="44.02977" lon="6.89407">
        <ele>1577</ele>
        <time>2019-07-16T11:17:22Z</time>
      </trkpt>
      <trkpt lat="44.02981" lon="6.89408">
        <ele>1576.9</ele>
        <time>2019-07-16T11:17:24Z</time>
      </trkpt>
      <trkpt lat="44.02985" lon="6.89408">
        <ele>1576.7</ele>
        <time>2019-07-16T11:17:26Z</time>
      </trkpt>
      <trkpt lat="44.02988" lon="6.89408">
        <ele>1577.1</ele>
        <time>2019-07-16T11:17:29Z</time>
      </trkpt>
      <trkpt lat="44.02993" lon="6.89408">
        <ele>1577.2</ele>
        <time>2019-07-16T11:17:31Z</time>
      </trkpt>
      <trkpt lat="44.02995" lon="6.89409">
        <ele>1577.1</ele>
        <time>2019-07-16T11:17:34Z</time>
      </trkpt>
      <trkpt lat="44.02999" lon="6.89408">
        <ele>1577.4</ele>
        <time>2019-07-16T11:17:41Z</time>
      </trkpt>
      <trkpt lat="44.03003" lon="6.89404">
        <ele>1578.5</ele>
        <time>2019-07-16T11:17:47Z</time>
      </trkpt>
      <trkpt lat="44.03004" lon="6.894">
        <ele>1579.1</ele>
        <time>2019-07-16T11:17:49Z</time>
      </trkpt>
      <trkpt lat="44.03003" lon="6.89396">
        <ele>1579.5</ele>
        <time>2019-07-16T11:17:53Z</time>
      </trkpt>
      <trkpt lat="44.03003" lon="6.89391">
        <ele>1580.1</ele>
        <time>2019-07-16T11:17:56Z</time>
      </trkpt>
      <trkpt lat="44.03006" lon="6.89392">
        <ele>1580.6</ele>
        <time>2019-07-16T11:18:02Z</time>
      </trkpt>
      <trkpt lat="44.03009" lon="6.89391">
        <ele>1581.2</ele>
        <time>2019-07-16T11:18:07Z</time>
      </trkpt>
      <trkpt lat="44.03009" lon="6.89386">
        <ele>1582</ele>
        <time>2019-07-16T11:18:15Z</time>
      </trkpt>
      <trkpt lat="44.03008" lon="6.8938">
        <ele>1582</ele>
        <time>2019-07-16T11:18:18Z</time>
      </trkpt>
      <trkpt lat="44.03006" lon="6.89375">
        <ele>1580.5</ele>
        <time>2019-07-16T11:18:21Z</time>
      </trkpt>
      <trkpt lat="44.03006" lon="6.8937">
        <ele>1579.3</ele>
        <time>2019-07-16T11:18:24Z</time>
      </trkpt>
      <trkpt lat="44.03005" lon="6.89367">
        <ele>1579.3</ele>
        <time>2019-07-16T11:18:26Z</time>
      </trkpt>
      <trkpt lat="44.03004" lon="6.89362">
        <ele>1579.8</ele>
        <time>2019-07-16T11:18:28Z</time>
      </trkpt>
      <trkpt lat="44.03001" lon="6.89358">
        <ele>1578.8</ele>
        <time>2019-07-16T11:18:30Z</time>
      </trkpt>
      <trkpt lat="44.02998" lon="6.89357">
        <ele>1577.5</ele>
        <time>2019-07-16T11:18:33Z</time>
      </trkpt>
      <trkpt lat="44.02995" lon="6.89356">
        <ele>1576</ele>
        <time>2019-07-16T11:18:37Z</time>
      </trkpt>
      <trkpt lat="44.02992" lon="6.89352">
        <ele>1574.2</ele>
        <time>2019-07-16T11:18:46Z</time>
      </trkpt>
      <trkpt lat="44.02991" lon="6.89349">
        <ele>1572.8</ele>
        <time>2019-07-16T11:18:55Z</time>
      </trkpt>
      <trkpt lat="44.02989" lon="6.89344">
        <ele>1571.1</ele>
        <time>2019-07-16T11:18:57Z</time>
      </trkpt>
      <trkpt lat="44.02986" lon="6.89341">
        <ele>1569.2</ele>
        <time>2019-07-16T11:18:59Z</time>
      </trkpt>
      <trkpt lat="44.02983" lon="6.89336">
        <ele>1567</ele>
        <time>2019-07-16T11:19:01Z</time>
      </trkpt>
      <trkpt lat="44.0298" lon="6.89334">
        <ele>1565.6</ele>
        <time>2019-07-16T11:19:03Z</time>
      </trkpt>
      <trkpt lat="44.02977" lon="6.89332">
        <ele>1564.3</ele>
        <time>2019-07-16T11:19:05Z</time>
      </trkpt>
      <trkpt lat="44.02974" lon="6.89327">
        <ele>1561.7</ele>
        <time>2019-07-16T11:19:07Z</time>
      </trkpt>
      <trkpt lat="44.02971" lon="6.89323">
        <ele>1559.7</ele>
        <time>2019-07-16T11:19:09Z</time>
      </trkpt>
      <trkpt lat="44.02969" lon="6.89321">
        <ele>1558.8</ele>
        <time>2019-07-16T11:19:13Z</time>
      </trkpt>
      <trkpt lat="44.02964" lon="6.89322">
        <ele>1557</ele>
        <time>2019-07-16T11:19:18Z</time>
      </trkpt>
      <trkpt lat="44.02964" lon="6.89326">
        <ele>1555.8</ele>
        <time>2019-07-16T11:19:25Z</time>
      </trkpt>
      <trkpt lat="44.02966" lon="6.89322">
        <ele>1554.4</ele>
        <time>2019-07-16T11:19:32Z</time>
      </trkpt>
      <trkpt lat="44.02966" lon="6.89316">
        <ele>1552.8</ele>
        <time>2019-07-16T11:19:34Z</time>
      </trkpt>
      <trkpt lat="44.02968" lon="6.89309">
        <ele>1551.3</ele>
        <time>2019-07-16T11:19:36Z</time>
      </trkpt>
      <trkpt lat="44.02968" lon="6.89305">
        <ele>1550.9</ele>
        <time>2019-07-16T11:19:37Z</time>
      </trkpt>
      <trkpt lat="44.02969" lon="6.89301">
        <ele>1550.4</ele>
        <time>2019-07-16T11:19:38Z</time>
      </trkpt>
      <trkpt lat="44.02969" lon="6.89297">
        <ele>1549.6</ele>
        <time>2019-07-16T11:19:39Z</time>
      </trkpt>
      <trkpt lat="44.0297" lon="6.89293">
        <ele>1548.5</ele>
        <time>2019-07-16T11:19:40Z</time>
      </trkpt>
      <trkpt lat="44.0297" lon="6.89286">
        <ele>1546.5</ele>
        <time>2019-07-16T11:19:42Z</time>
      </trkpt>
      <trkpt lat="44.02971" lon="6.89279">
        <ele>1545.5</ele>
        <time>2019-07-16T11:19:44Z</time>
      </trkpt>
      <trkpt lat="44.02971" lon="6.89274">
        <ele>1545.3</ele>
        <time>2019-07-16T11:19:46Z</time>
      </trkpt>
      <trkpt lat="44.02973" lon="6.89269">
        <ele>1544.6</ele>
        <time>2019-07-16T11:19:48Z</time>
      </trkpt>
      <trkpt lat="44.02978" lon="6.89264">
        <ele>1542.6</ele>
        <time>2019-07-16T11:23:06Z</time>
      </trkpt>
      <trkpt lat="44.02981" lon="6.89264">
        <ele>1542.1</ele>
        <time>2019-07-16T11:23:09Z</time>
      </trkpt>
      <trkpt lat="44.02984" lon="6.89266">
        <ele>1541.5</ele>
        <time>2019-07-16T11:23:12Z</time>
      </trkpt>
      <trkpt lat="44.02986" lon="6.8927">
        <ele>1540.8</ele>
        <time>2019-07-16T11:23:18Z</time>
      </trkpt>
      <trkpt lat="44.02987" lon="6.89274">
        <ele>1540</ele>
        <time>2019-07-16T11:23:21Z</time>
      </trkpt>
      <trkpt lat="44.0299" lon="6.89279">
        <ele>1539.3</ele>
        <time>2019-07-16T11:23:23Z</time>
      </trkpt>
      <trkpt lat="44.02993" lon="6.89279">
        <ele>1539.2</ele>
        <time>2019-07-16T11:23:26Z</time>
      </trkpt>
      <trkpt lat="44.02997" lon="6.89279">
        <ele>1539.1</ele>
        <time>2019-07-16T11:23:29Z</time>
      </trkpt>
      <trkpt lat="44.03" lon="6.89276">
        <ele>1539.2</ele>
        <time>2019-07-16T11:23:31Z</time>
      </trkpt>
      <trkpt lat="44.03002" lon="6.89272">
        <ele>1539.3</ele>
        <time>2019-07-16T11:23:34Z</time>
      </trkpt>
      <trkpt lat="44.03004" lon="6.89269">
        <ele>1539.3</ele>
        <time>2019-07-16T11:23:36Z</time>
      </trkpt>
      <trkpt lat="44.03008" lon="6.89269">
        <ele>1539.3</ele>
        <time>2019-07-16T11:23:39Z</time>
      </trkpt>
      <trkpt lat="44.03011" lon="6.89269">
        <ele>1539.2</ele>
        <time>2019-07-16T11:23:40Z</time>
      </trkpt>
      <trkpt lat="44.03014" lon="6.89266">
        <ele>1539.2</ele>
        <time>2019-07-16T11:23:42Z</time>
      </trkpt>
      <trkpt lat="44.03016" lon="6.89262">
        <ele>1539</ele>
        <time>2019-07-16T11:23:45Z</time>
      </trkpt>
      <trkpt lat="44.03017" lon="6.89257">
        <ele>1538.5</ele>
        <time>2019-07-16T11:23:49Z</time>
      </trkpt>
      <trkpt lat="44.03019" lon="6.89252">
        <ele>1537.9</ele>
        <time>2019-07-16T11:23:54Z</time>
      </trkpt>
      <trkpt lat="44.0302" lon="6.89248">
        <ele>1537.5</ele>
        <time>2019-07-16T11:23:56Z</time>
      </trkpt>
      <trkpt lat="44.03021" lon="6.89243">
        <ele>1537</ele>
        <time>2019-07-16T11:23:58Z</time>
      </trkpt>
      <trkpt lat="44.03023" lon="6.89239">
        <ele>1536.6</ele>
        <time>2019-07-16T11:24:00Z</time>
      </trkpt>
      <trkpt lat="44.03024" lon="6.89235">
        <ele>1536.3</ele>
        <time>2019-07-16T11:24:06Z</time>
      </trkpt>
      <trkpt lat="44.03026" lon="6.89231">
        <ele>1536.3</ele>
        <time>2019-07-16T11:24:10Z</time>
      </trkpt>
      <trkpt lat="44.03028" lon="6.89226">
        <ele>1536.4</ele>
        <time>2019-07-16T11:24:12Z</time>
      </trkpt>
      <trkpt lat="44.03028" lon="6.89221">
        <ele>1536.2</ele>
        <time>2019-07-16T11:24:15Z</time>
      </trkpt>
      <trkpt lat="44.03028" lon="6.89217">
        <ele>1535.4</ele>
        <time>2019-07-16T11:24:18Z</time>
      </trkpt>
      <trkpt lat="44.03027" lon="6.89213">
        <ele>1534.4</ele>
        <time>2019-07-16T11:24:21Z</time>
      </trkpt>
      <trkpt lat="44.03027" lon="6.89207">
        <ele>1533.5</ele>
        <time>2019-07-16T11:24:23Z</time>
      </trkpt>
      <trkpt lat="44.03027" lon="6.89203">
        <ele>1532.9</ele>
        <time>2019-07-16T11:24:25Z</time>
      </trkpt>
      <trkpt lat="44.03026" lon="6.89199">
        <ele>1532.3</ele>
        <time>2019-07-16T11:24:28Z</time>
      </trkpt>
      <trkpt lat="44.03027" lon="6.89195">
        <ele>1531.3</ele>
        <time>2019-07-16T11:24:33Z</time>
      </trkpt>
      <trkpt lat="44.03027" lon="6.89191">
        <ele>1530.2</ele>
        <time>2019-07-16T11:24:39Z</time>
      </trkpt>
      <trkpt lat="44.03026" lon="6.89185">
        <ele>1528.9</ele>
        <time>2019-07-16T11:24:41Z</time>
      </trkpt>
      <trkpt lat="44.03026" lon="6.89179">
        <ele>1527.9</ele>
        <time>2019-07-16T11:24:43Z</time>
      </trkpt>
      <trkpt lat="44.03026" lon="6.89173">
        <ele>1526.7</ele>
        <time>2019-07-16T11:24:45Z</time>
      </trkpt>
      <trkpt lat="44.03024" lon="6.89167">
        <ele>1525.2</ele>
        <time>2019-07-16T11:24:47Z</time>
      </trkpt>
      <trkpt lat="44.03021" lon="6.89162">
        <ele>1524</ele>
        <time>2019-07-16T11:24:49Z</time>
      </trkpt>
      <trkpt lat="44.0302" lon="6.89155">
        <ele>1523.2</ele>
        <time>2019-07-16T11:24:51Z</time>
      </trkpt>
      <trkpt lat="44.03019" lon="6.89151">
        <ele>1522.7</ele>
        <time>2019-07-16T11:24:52Z</time>
      </trkpt>
      <trkpt lat="44.03019" lon="6.89145">
        <ele>1521.9</ele>
        <time>2019-07-16T11:24:54Z</time>
      </trkpt>
      <trkpt lat="44.03019" lon="6.89139">
        <ele>1521</ele>
        <time>2019-07-16T11:24:56Z</time>
      </trkpt>
      <trkpt lat="44.03019" lon="6.89134">
        <ele>1519.9</ele>
        <time>2019-07-16T11:24:58Z</time>
      </trkpt>
      <trkpt lat="44.03019" lon="6.89127">
        <ele>1518.6</ele>
        <time>2019-07-16T11:25:00Z</time>
      </trkpt>
      <trkpt lat="44.0302" lon="6.89121">
        <ele>1518.3</ele>
        <time>2019-07-16T11:25:02Z</time>
      </trkpt>
      <trkpt lat="44.0302" lon="6.89117">
        <ele>1518.1</ele>
        <time>2019-07-16T11:25:03Z</time>
      </trkpt>
      <trkpt lat="44.0302" lon="6.89112">
        <ele>1517.5</ele>
        <time>2019-07-16T11:25:04Z</time>
      </trkpt>
      <trkpt lat="44.0302" lon="6.89106">
        <ele>1516.8</ele>
        <time>2019-07-16T11:25:05Z</time>
      </trkpt>
      <trkpt lat="44.0302" lon="6.891">
        <ele>1516.1</ele>
        <time>2019-07-16T11:25:06Z</time>
      </trkpt>
      <trkpt lat="44.0302" lon="6.89094">
        <ele>1515.3</ele>
        <time>2019-07-16T11:25:07Z</time>
      </trkpt>
      <trkpt lat="44.0302" lon="6.89089">
        <ele>1514.5</ele>
        <time>2019-07-16T11:25:08Z</time>
      </trkpt>
      <trkpt lat="44.0302" lon="6.89084">
        <ele>1513.9</ele>
        <time>2019-07-16T11:25:09Z</time>
      </trkpt>
      <trkpt lat="44.0302" lon="6.8908">
        <ele>1513.4</ele>
        <time>2019-07-16T11:25:11Z</time>
      </trkpt>
      <trkpt lat="44.03021" lon="6.89075">
        <ele>1513</ele>
        <time>2019-07-16T11:25:19Z</time>
      </trkpt>
      <trkpt lat="44.0302" lon="6.89069">
        <ele>1511.5</ele>
        <time>2019-07-16T11:25:21Z</time>
      </trkpt>
      <trkpt lat="44.0302" lon="6.89064">
        <ele>1510.2</ele>
        <time>2019-07-16T11:25:23Z</time>
      </trkpt>
      <trkpt lat="44.03023" lon="6.89061">
        <ele>1509.6</ele>
        <time>2019-07-16T11:25:26Z</time>
      </trkpt>
      <trkpt lat="44.03025" lon="6.89058">
        <ele>1509.2</ele>
        <time>2019-07-16T11:25:31Z</time>
      </trkpt>
      <trkpt lat="44.03025" lon="6.89054">
        <ele>1508.8</ele>
        <time>2019-07-16T11:25:34Z</time>
      </trkpt>
      <trkpt lat="44.03026" lon="6.8905">
        <ele>1508.5</ele>
        <time>2019-07-16T11:25:40Z</time>
      </trkpt>
      <trkpt lat="44.03025" lon="6.89046">
        <ele>1508.1</ele>
        <time>2019-07-16T11:25:44Z</time>
      </trkpt>
      <trkpt lat="44.03024" lon="6.89042">
        <ele>1507.5</ele>
        <time>2019-07-16T11:25:47Z</time>
      </trkpt>
      <trkpt lat="44.03025" lon="6.89037">
        <ele>1507</ele>
        <time>2019-07-16T11:25:51Z</time>
      </trkpt>
      <trkpt lat="44.03023" lon="6.8903">
        <ele>1506.5</ele>
        <time>2019-07-16T11:25:53Z</time>
      </trkpt>
      <trkpt lat="44.03022" lon="6.89027">
        <ele>1506.4</ele>
        <time>2019-07-16T11:25:54Z</time>
      </trkpt>
      <trkpt lat="44.0302" lon="6.89022">
        <ele>1505.1</ele>
        <time>2019-07-16T11:25:56Z</time>
      </trkpt>
      <trkpt lat="44.03019" lon="6.89018">
        <ele>1504.1</ele>
        <time>2019-07-16T11:25:57Z</time>
      </trkpt>
      <trkpt lat="44.0302" lon="6.89011">
        <ele>1502.4</ele>
        <time>2019-07-16T11:25:59Z</time>
      </trkpt>
      <trkpt lat="44.0302" lon="6.89005">
        <ele>1501.1</ele>
        <time>2019-07-16T11:26:01Z</time>
      </trkpt>
      <trkpt lat="44.03021" lon="6.89001">
        <ele>1500.2</ele>
        <time>2019-07-16T11:26:03Z</time>
      </trkpt>
      <trkpt lat="44.03022" lon="6.88995">
        <ele>1499.3</ele>
        <time>2019-07-16T11:26:05Z</time>
      </trkpt>
      <trkpt lat="44.03022" lon="6.88991">
        <ele>1498.6</ele>
        <time>2019-07-16T11:26:07Z</time>
      </trkpt>
      <trkpt lat="44.03022" lon="6.88984">
        <ele>1497.2</ele>
        <time>2019-07-16T11:26:09Z</time>
      </trkpt>
      <trkpt lat="44.03023" lon="6.8898">
        <ele>1496.2</ele>
        <time>2019-07-16T11:26:11Z</time>
      </trkpt>
      <trkpt lat="44.03025" lon="6.88975">
        <ele>1494.9</ele>
        <time>2019-07-16T11:26:13Z</time>
      </trkpt>
      <trkpt lat="44.03026" lon="6.88969">
        <ele>1493.5</ele>
        <time>2019-07-16T11:26:15Z</time>
      </trkpt>
      <trkpt lat="44.03027" lon="6.88964">
        <ele>1492.3</ele>
        <time>2019-07-16T11:26:17Z</time>
      </trkpt>
      <trkpt lat="44.03029" lon="6.8896">
        <ele>1491.8</ele>
        <time>2019-07-16T11:26:19Z</time>
      </trkpt>
      <trkpt lat="44.0303" lon="6.88957">
        <ele>1491.2</ele>
        <time>2019-07-16T11:26:25Z</time>
      </trkpt>
      <trkpt lat="44.0303" lon="6.88953">
        <ele>1490.6</ele>
        <time>2019-07-16T11:26:28Z</time>
      </trkpt>
      <trkpt lat="44.0303" lon="6.88949">
        <ele>1490.1</ele>
        <time>2019-07-16T11:26:38Z</time>
      </trkpt>
      <trkpt lat="44.03029" lon="6.88945">
        <ele>1489.5</ele>
        <time>2019-07-16T11:26:40Z</time>
      </trkpt>
      <trkpt lat="44.03027" lon="6.8894">
        <ele>1488.3</ele>
        <time>2019-07-16T11:26:42Z</time>
      </trkpt>
      <trkpt lat="44.03025" lon="6.88936">
        <ele>1487.4</ele>
        <time>2019-07-16T11:26:44Z</time>
      </trkpt>
      <trkpt lat="44.03023" lon="6.8893">
        <ele>1486.4</ele>
        <time>2019-07-16T11:26:46Z</time>
      </trkpt>
      <trkpt lat="44.03022" lon="6.88926">
        <ele>1485.7</ele>
        <time>2019-07-16T11:26:47Z</time>
      </trkpt>
      <trkpt lat="44.03021" lon="6.88922">
        <ele>1484.9</ele>
        <time>2019-07-16T11:26:48Z</time>
      </trkpt>
      <trkpt lat="44.03018" lon="6.88915">
        <ele>1483.2</ele>
        <time>2019-07-16T11:26:50Z</time>
      </trkpt>
      <trkpt lat="44.03016" lon="6.88911">
        <ele>1481.6</ele>
        <time>2019-07-16T11:26:52Z</time>
      </trkpt>
      <trkpt lat="44.03014" lon="6.88908">
        <ele>1480.6</ele>
        <time>2019-07-16T11:26:54Z</time>
      </trkpt>
      <trkpt lat="44.03011" lon="6.88904">
        <ele>1479.6</ele>
        <time>2019-07-16T11:26:56Z</time>
      </trkpt>
      <trkpt lat="44.03008" lon="6.88899">
        <ele>1479.1</ele>
        <time>2019-07-16T11:26:58Z</time>
      </trkpt>
      <trkpt lat="44.03008" lon="6.88893">
        <ele>1478.6</ele>
        <time>2019-07-16T11:27:00Z</time>
      </trkpt>
      <trkpt lat="44.03007" lon="6.88888">
        <ele>1478</ele>
        <time>2019-07-16T11:27:01Z</time>
      </trkpt>
      <trkpt lat="44.03007" lon="6.88883">
        <ele>1477.4</ele>
        <time>2019-07-16T11:27:02Z</time>
      </trkpt>
      <trkpt lat="44.03006" lon="6.88878">
        <ele>1476.8</ele>
        <time>2019-07-16T11:27:03Z</time>
      </trkpt>
      <trkpt lat="44.03005" lon="6.88874">
        <ele>1476.3</ele>
        <time>2019-07-16T11:27:05Z</time>
      </trkpt>
      <trkpt lat="44.03006" lon="6.8887">
        <ele>1475.8</ele>
        <time>2019-07-16T11:27:18Z</time>
      </trkpt>
      <trkpt lat="44.03005" lon="6.88865">
        <ele>1475.3</ele>
        <time>2019-07-16T11:27:20Z</time>
      </trkpt>
      <trkpt lat="44.03006" lon="6.8886">
        <ele>1474.9</ele>
        <time>2019-07-16T11:27:22Z</time>
      </trkpt>
      <trkpt lat="44.03006" lon="6.88856">
        <ele>1474.7</ele>
        <time>2019-07-16T11:27:23Z</time>
      </trkpt>
      <trkpt lat="44.03005" lon="6.88851">
        <ele>1474.3</ele>
        <time>2019-07-16T11:27:25Z</time>
      </trkpt>
      <trkpt lat="44.03005" lon="6.88846">
        <ele>1474</ele>
        <time>2019-07-16T11:27:27Z</time>
      </trkpt>
      <trkpt lat="44.03006" lon="6.88842">
        <ele>1473.7</ele>
        <time>2019-07-16T11:27:30Z</time>
      </trkpt>
      <trkpt lat="44.03007" lon="6.88838">
        <ele>1473.3</ele>
        <time>2019-07-16T11:27:42Z</time>
      </trkpt>
      <trkpt lat="44.03009" lon="6.88834">
        <ele>1473</ele>
        <time>2019-07-16T11:27:45Z</time>
      </trkpt>
      <trkpt lat="44.03011" lon="6.88831">
        <ele>1472.8</ele>
        <time>2019-07-16T11:27:48Z</time>
      </trkpt>
      <trkpt lat="44.03013" lon="6.88828">
        <ele>1472.5</ele>
        <time>2019-07-16T11:27:50Z</time>
      </trkpt>
      <trkpt lat="44.03015" lon="6.88823">
        <ele>1472.2</ele>
        <time>2019-07-16T11:27:54Z</time>
      </trkpt>
      <trkpt lat="44.03012" lon="6.88823">
        <ele>1471.9</ele>
        <time>2019-07-16T11:28:33Z</time>
      </trkpt>
      <trkpt lat="44.03011" lon="6.88827">
        <ele>1471.6</ele>
        <time>2019-07-16T11:28:49Z</time>
      </trkpt>
      <trkpt lat="44.03009" lon="6.88831">
        <ele>1471.3</ele>
        <time>2019-07-16T11:28:52Z</time>
      </trkpt>
      <trkpt lat="44.03008" lon="6.88834">
        <ele>1471.1</ele>
        <time>2019-07-16T11:28:55Z</time>
      </trkpt>
      <trkpt lat="44.03005" lon="6.88837">
        <ele>1470.8</ele>
        <time>2019-07-16T11:28:59Z</time>
      </trkpt>
      <trkpt lat="44.03002" lon="6.88839">
        <ele>1470.5</ele>
        <time>2019-07-16T11:29:02Z</time>
      </trkpt>
      <trkpt lat="44.03005" lon="6.88842">
        <ele>1470.2</ele>
        <time>2019-07-16T11:29:12Z</time>
      </trkpt>
      <trkpt lat="44.03003" lon="6.88844">
        <ele>1469.9</ele>
        <time>2019-07-16T11:29:18Z</time>
      </trkpt>
      <trkpt lat="44.03" lon="6.88846">
        <ele>1469.6</ele>
        <time>2019-07-16T11:29:21Z</time>
      </trkpt>
      <trkpt lat="44.02997" lon="6.88848">
        <ele>1469.3</ele>
        <time>2019-07-16T11:29:25Z</time>
      </trkpt>
      <trkpt lat="44.02993" lon="6.88851">
        <ele>1468.9</ele>
        <time>2019-07-16T11:29:33Z</time>
      </trkpt>
      <trkpt lat="44.02991" lon="6.88854">
        <ele>1468.6</ele>
        <time>2019-07-16T11:29:35Z</time>
      </trkpt>
      <trkpt lat="44.02989" lon="6.88856">
        <ele>1468.4</ele>
        <time>2019-07-16T11:29:37Z</time>
      </trkpt>
      <trkpt lat="44.02985" lon="6.88859">
        <ele>1468</ele>
        <time>2019-07-16T11:29:39Z</time>
      </trkpt>
      <trkpt lat="44.02983" lon="6.88863">
        <ele>1467.7</ele>
        <time>2019-07-16T11:29:41Z</time>
      </trkpt>
      <trkpt lat="44.02979" lon="6.88863">
        <ele>1467.3</ele>
        <time>2019-07-16T11:29:43Z</time>
      </trkpt>
      <trkpt lat="44.02976" lon="6.88865">
        <ele>1466.9</ele>
        <time>2019-07-16T11:29:45Z</time>
      </trkpt>
      <trkpt lat="44.02973" lon="6.88867">
        <ele>1466.4</ele>
        <time>2019-07-16T11:29:47Z</time>
      </trkpt>
      <trkpt lat="44.0297" lon="6.88868">
        <ele>1465.9</ele>
        <time>2019-07-16T11:29:49Z</time>
      </trkpt>
      <trkpt lat="44.02973" lon="6.8887">
        <ele>1465.5</ele>
        <time>2019-07-16T11:29:56Z</time>
      </trkpt>
      <trkpt lat="44.0297" lon="6.88868">
        <ele>1465</ele>
        <time>2019-07-16T11:30:46Z</time>
      </trkpt>
      <trkpt lat="44.02972" lon="6.88866">
        <ele>1464.5</ele>
        <time>2019-07-16T11:30:50Z</time>
      </trkpt>
      <trkpt lat="44.02972" lon="6.88862">
        <ele>1464.5</ele>
        <time>2019-07-16T11:31:14Z</time>
      </trkpt>
      <trkpt lat="44.02971" lon="6.88858">
        <ele>1464.5</ele>
        <time>2019-07-16T11:31:18Z</time>
      </trkpt>
      <trkpt lat="44.02968" lon="6.88859">
        <ele>1464.5</ele>
        <time>2019-07-16T11:31:23Z</time>
      </trkpt>
      <trkpt lat="44.02966" lon="6.88858">
        <ele>1464.5</ele>
        <time>2019-07-16T11:31:26Z</time>
      </trkpt>
      <trkpt lat="44.02965" lon="6.88853">
        <ele>1464.5</ele>
        <time>2019-07-16T11:31:30Z</time>
      </trkpt>
      <trkpt lat="44.02966" lon="6.88847">
        <ele>1464.3</ele>
        <time>2019-07-16T11:31:32Z</time>
      </trkpt>
      <trkpt lat="44.02967" lon="6.88843">
        <ele>1464.4</ele>
        <time>2019-07-16T11:31:33Z</time>
      </trkpt>
      <trkpt lat="44.02968" lon="6.88839">
        <ele>1464.5</ele>
        <time>2019-07-16T11:31:34Z</time>
      </trkpt>
      <trkpt lat="44.02969" lon="6.88833">
        <ele>1464.6</ele>
        <time>2019-07-16T11:31:35Z</time>
      </trkpt>
      <trkpt lat="44.0297" lon="6.88828">
        <ele>1464.7</ele>
        <time>2019-07-16T11:31:36Z</time>
      </trkpt>
      <trkpt lat="44.02971" lon="6.88821">
        <ele>1464.7</ele>
        <time>2019-07-16T11:31:37Z</time>
      </trkpt>
      <trkpt lat="44.02972" lon="6.88815">
        <ele>1464</ele>
        <time>2019-07-16T11:31:38Z</time>
      </trkpt>
      <trkpt lat="44.02973" lon="6.88809">
        <ele>1463.3</ele>
        <time>2019-07-16T11:31:39Z</time>
      </trkpt>
      <trkpt lat="44.02975" lon="6.88803">
        <ele>1463.4</ele>
        <time>2019-07-16T11:31:41Z</time>
      </trkpt>
      <trkpt lat="44.02975" lon="6.88795">
        <ele>1463.1</ele>
        <time>2019-07-16T11:31:43Z</time>
      </trkpt>
      <trkpt lat="44.02975" lon="6.88789">
        <ele>1462.5</ele>
        <time>2019-07-16T11:31:44Z</time>
      </trkpt>
      <trkpt lat="44.02975" lon="6.88783">
        <ele>1461.9</ele>
        <time>2019-07-16T11:31:45Z</time>
      </trkpt>
      <trkpt lat="44.02976" lon="6.88778">
        <ele>1461.3</ele>
        <time>2019-07-16T11:31:46Z</time>
      </trkpt>
      <trkpt lat="44.02976" lon="6.88772">
        <ele>1460.2</ele>
        <time>2019-07-16T11:31:48Z</time>
      </trkpt>
      <trkpt lat="44.02975" lon="6.88768">
        <ele>1459.5</ele>
        <time>2019-07-16T11:31:51Z</time>
      </trkpt>
      <trkpt lat="44.02976" lon="6.88764">
        <ele>1459.8</ele>
        <time>2019-07-16T11:31:53Z</time>
      </trkpt>
      <trkpt lat="44.02979" lon="6.88761">
        <ele>1460.1</ele>
        <time>2019-07-16T11:31:56Z</time>
      </trkpt>
      <trkpt lat="44.02979" lon="6.88756">
        <ele>1460.4</ele>
        <time>2019-07-16T11:32:00Z</time>
      </trkpt>
      <trkpt lat="44.02979" lon="6.88752">
        <ele>1460.6</ele>
        <time>2019-07-16T11:32:02Z</time>
      </trkpt>
      <trkpt lat="44.02981" lon="6.88748">
        <ele>1460.9</ele>
        <time>2019-07-16T11:32:04Z</time>
      </trkpt>
      <trkpt lat="44.02982" lon="6.88744">
        <ele>1461.1</ele>
        <time>2019-07-16T11:32:06Z</time>
      </trkpt>
      <trkpt lat="44.02984" lon="6.8874">
        <ele>1461</ele>
        <time>2019-07-16T11:32:12Z</time>
      </trkpt>
      <trkpt lat="44.02984" lon="6.88735">
        <ele>1460.9</ele>
        <time>2019-07-16T11:32:16Z</time>
      </trkpt>
      <trkpt lat="44.02984" lon="6.8873">
        <ele>1460.9</ele>
        <time>2019-07-16T11:32:21Z</time>
      </trkpt>
      <trkpt lat="44.02987" lon="6.88729">
        <ele>1460.9</ele>
        <time>2019-07-16T11:32:24Z</time>
      </trkpt>
      <trkpt lat="44.02986" lon="6.88725">
        <ele>1460.8</ele>
        <time>2019-07-16T11:32:28Z</time>
      </trkpt>
      <trkpt lat="44.02986" lon="6.88721">
        <ele>1460.5</ele>
        <time>2019-07-16T11:32:38Z</time>
      </trkpt>
      <trkpt lat="44.02986" lon="6.88716">
        <ele>1460.1</ele>
        <time>2019-07-16T11:32:40Z</time>
      </trkpt>
      <trkpt lat="44.02985" lon="6.88713">
        <ele>1459.8</ele>
        <time>2019-07-16T11:32:42Z</time>
      </trkpt>
      <trkpt lat="44.02985" lon="6.88707">
        <ele>1459.8</ele>
        <time>2019-07-16T11:32:45Z</time>
      </trkpt>
      <trkpt lat="44.02985" lon="6.88702">
        <ele>1459.9</ele>
        <time>2019-07-16T11:32:47Z</time>
      </trkpt>
      <trkpt lat="44.02984" lon="6.88695">
        <ele>1459.4</ele>
        <time>2019-07-16T11:32:49Z</time>
      </trkpt>
      <trkpt lat="44.02982" lon="6.8869">
        <ele>1458.9</ele>
        <time>2019-07-16T11:32:51Z</time>
      </trkpt>
      <trkpt lat="44.02981" lon="6.88684">
        <ele>1458.3</ele>
        <time>2019-07-16T11:32:53Z</time>
      </trkpt>
      <trkpt lat="44.02978" lon="6.88678">
        <ele>1457.7</ele>
        <time>2019-07-16T11:32:55Z</time>
      </trkpt>
      <trkpt lat="44.02976" lon="6.88675">
        <ele>1457.8</ele>
        <time>2019-07-16T11:32:56Z</time>
      </trkpt>
      <trkpt lat="44.02974" lon="6.88668">
        <ele>1458.1</ele>
        <time>2019-07-16T11:32:58Z</time>
      </trkpt>
      <trkpt lat="44.02974" lon="6.88663">
        <ele>1457.8</ele>
        <time>2019-07-16T11:33:01Z</time>
      </trkpt>
      <trkpt lat="44.02974" lon="6.88659">
        <ele>1457.4</ele>
        <time>2019-07-16T11:33:03Z</time>
      </trkpt>
      <trkpt lat="44.02971" lon="6.88657">
        <ele>1457</ele>
        <time>2019-07-16T11:33:05Z</time>
      </trkpt>
      <trkpt lat="44.02968" lon="6.88656">
        <ele>1456.3</ele>
        <time>2019-07-16T11:33:07Z</time>
      </trkpt>
      <trkpt lat="44.02965" lon="6.88655">
        <ele>1455.5</ele>
        <time>2019-07-16T11:33:09Z</time>
      </trkpt>
      <trkpt lat="44.02962" lon="6.88654">
        <ele>1454.3</ele>
        <time>2019-07-16T11:33:11Z</time>
      </trkpt>
      <trkpt lat="44.02959" lon="6.88653">
        <ele>1452.9</ele>
        <time>2019-07-16T11:33:13Z</time>
      </trkpt>
      <trkpt lat="44.02955" lon="6.88651">
        <ele>1451.7</ele>
        <time>2019-07-16T11:33:15Z</time>
      </trkpt>
      <trkpt lat="44.0295" lon="6.88649">
        <ele>1449.7</ele>
        <time>2019-07-16T11:33:17Z</time>
      </trkpt>
      <trkpt lat="44.02947" lon="6.88646">
        <ele>1447.4</ele>
        <time>2019-07-16T11:33:19Z</time>
      </trkpt>
      <trkpt lat="44.02942" lon="6.88642">
        <ele>1445.3</ele>
        <time>2019-07-16T11:33:21Z</time>
      </trkpt>
      <trkpt lat="44.02938" lon="6.88638">
        <ele>1443.7</ele>
        <time>2019-07-16T11:33:23Z</time>
      </trkpt>
      <trkpt lat="44.02936" lon="6.88635">
        <ele>1442.8</ele>
        <time>2019-07-16T11:33:24Z</time>
      </trkpt>
      <trkpt lat="44.02934" lon="6.88632">
        <ele>1441.9</ele>
        <time>2019-07-16T11:33:25Z</time>
      </trkpt>
      <trkpt lat="44.02929" lon="6.8863">
        <ele>1440.4</ele>
        <time>2019-07-16T11:33:27Z</time>
      </trkpt>
      <trkpt lat="44.02926" lon="6.88626">
        <ele>1439.1</ele>
        <time>2019-07-16T11:33:29Z</time>
      </trkpt>
      <trkpt lat="44.02922" lon="6.8862">
        <ele>1437.9</ele>
        <time>2019-07-16T11:33:31Z</time>
      </trkpt>
      <trkpt lat="44.0292" lon="6.88617">
        <ele>1437.1</ele>
        <time>2019-07-16T11:33:32Z</time>
      </trkpt>
      <trkpt lat="44.02918" lon="6.88614">
        <ele>1436.1</ele>
        <time>2019-07-16T11:33:33Z</time>
      </trkpt>
      <trkpt lat="44.02915" lon="6.8861">
        <ele>1435.2</ele>
        <time>2019-07-16T11:33:35Z</time>
      </trkpt>
      <trkpt lat="44.02913" lon="6.88607">
        <ele>1434.9</ele>
        <time>2019-07-16T11:33:37Z</time>
      </trkpt>
      <trkpt lat="44.02913" lon="6.88603">
        <ele>1434.6</ele>
        <time>2019-07-16T11:33:39Z</time>
      </trkpt>
      <trkpt lat="44.02912" lon="6.88599">
        <ele>1434.3</ele>
        <time>2019-07-16T11:33:41Z</time>
      </trkpt>
      <trkpt lat="44.02909" lon="6.88595">
        <ele>1434</ele>
        <time>2019-07-16T11:33:43Z</time>
      </trkpt>
      <trkpt lat="44.02907" lon="6.88591">
        <ele>1433.5</ele>
        <time>2019-07-16T11:33:45Z</time>
      </trkpt>
      <trkpt lat="44.02905" lon="6.88587">
        <ele>1432.6</ele>
        <time>2019-07-16T11:33:47Z</time>
      </trkpt>
      <trkpt lat="44.02902" lon="6.88582">
        <ele>1432.1</ele>
        <time>2019-07-16T11:33:49Z</time>
      </trkpt>
      <trkpt lat="44.029" lon="6.88575">
        <ele>1431.9</ele>
        <time>2019-07-16T11:33:51Z</time>
      </trkpt>
      <trkpt lat="44.02899" lon="6.8857">
        <ele>1432</ele>
        <time>2019-07-16T11:33:52Z</time>
      </trkpt>
      <trkpt lat="44.02898" lon="6.88566">
        <ele>1432.1</ele>
        <time>2019-07-16T11:33:53Z</time>
      </trkpt>
      <trkpt lat="44.02896" lon="6.8856">
        <ele>1432.1</ele>
        <time>2019-07-16T11:33:55Z</time>
      </trkpt>
      <trkpt lat="44.02894" lon="6.88553">
        <ele>1432.1</ele>
        <time>2019-07-16T11:33:57Z</time>
      </trkpt>
      <trkpt lat="44.02892" lon="6.8855">
        <ele>1432.3</ele>
        <time>2019-07-16T11:33:58Z</time>
      </trkpt>
      <trkpt lat="44.0289" lon="6.88546">
        <ele>1432.5</ele>
        <time>2019-07-16T11:33:59Z</time>
      </trkpt>
      <trkpt lat="44.02888" lon="6.88542">
        <ele>1432.7</ele>
        <time>2019-07-16T11:34:00Z</time>
      </trkpt>
      <trkpt lat="44.02888" lon="6.88535">
        <ele>1432.9</ele>
        <time>2019-07-16T11:34:02Z</time>
      </trkpt>
      <trkpt lat="44.02889" lon="6.8853">
        <ele>1433.2</ele>
        <time>2019-07-16T11:34:03Z</time>
      </trkpt>
      <trkpt lat="44.02888" lon="6.88526">
        <ele>1433.6</ele>
        <time>2019-07-16T11:34:04Z</time>
      </trkpt>
      <trkpt lat="44.02883" lon="6.88524">
        <ele>1433.7</ele>
        <time>2019-07-16T11:34:06Z</time>
      </trkpt>
      <trkpt lat="44.0288" lon="6.88522">
        <ele>1433.4</ele>
        <time>2019-07-16T11:34:07Z</time>
      </trkpt>
      <trkpt lat="44.02878" lon="6.8852">
        <ele>1433</ele>
        <time>2019-07-16T11:34:08Z</time>
      </trkpt>
      <trkpt lat="44.02876" lon="6.88518">
        <ele>1432.7</ele>
        <time>2019-07-16T11:34:09Z</time>
      </trkpt>
      <trkpt lat="44.02871" lon="6.88512">
        <ele>1432.2</ele>
        <time>2019-07-16T11:34:11Z</time>
      </trkpt>
      <trkpt lat="44.02869" lon="6.88509">
        <ele>1432.2</ele>
        <time>2019-07-16T11:34:12Z</time>
      </trkpt>
      <trkpt lat="44.02866" lon="6.88506">
        <ele>1432.2</ele>
        <time>2019-07-16T11:34:13Z</time>
      </trkpt>
      <trkpt lat="44.02862" lon="6.88504">
        <ele>1431.9</ele>
        <time>2019-07-16T11:34:14Z</time>
      </trkpt>
      <trkpt lat="44.02859" lon="6.88502">
        <ele>1431.5</ele>
        <time>2019-07-16T11:34:15Z</time>
      </trkpt>
      <trkpt lat="44.02857" lon="6.88499">
        <ele>1431.2</ele>
        <time>2019-07-16T11:34:16Z</time>
      </trkpt>
      <trkpt lat="44.02855" lon="6.88496">
        <ele>1430.9</ele>
        <time>2019-07-16T11:34:17Z</time>
      </trkpt>
      <trkpt lat="44.02853" lon="6.88493">
        <ele>1430.7</ele>
        <time>2019-07-16T11:34:18Z</time>
      </trkpt>
      <trkpt lat="44.02851" lon="6.8849">
        <ele>1430.7</ele>
        <time>2019-07-16T11:34:19Z</time>
      </trkpt>
      <trkpt lat="44.02849" lon="6.88486">
        <ele>1430.8</ele>
        <time>2019-07-16T11:34:21Z</time>
      </trkpt>
      <trkpt lat="44.02846" lon="6.88482">
        <ele>1431</ele>
        <time>2019-07-16T11:34:23Z</time>
      </trkpt>
      <trkpt lat="44.02844" lon="6.88476">
        <ele>1431.3</ele>
        <time>2019-07-16T11:34:25Z</time>
      </trkpt>
      <trkpt lat="44.02842" lon="6.88474">
        <ele>1431.9</ele>
        <time>2019-07-16T11:34:26Z</time>
      </trkpt>
      <trkpt lat="44.02838" lon="6.88472">
        <ele>1432.6</ele>
        <time>2019-07-16T11:34:27Z</time>
      </trkpt>
      <trkpt lat="44.02834" lon="6.8847">
        <ele>1433</ele>
        <time>2019-07-16T11:34:29Z</time>
      </trkpt>
      <trkpt lat="44.02828" lon="6.88472">
        <ele>1432.5</ele>
        <time>2019-07-16T11:34:31Z</time>
      </trkpt>
      <trkpt lat="44.02823" lon="6.88474">
        <ele>1431.3</ele>
        <time>2019-07-16T11:34:32Z</time>
      </trkpt>
      <trkpt lat="44.02817" lon="6.88477">
        <ele>1429.2</ele>
        <time>2019-07-16T11:34:33Z</time>
      </trkpt>
      <trkpt lat="44.02812" lon="6.8848">
        <ele>1427.9</ele>
        <time>2019-07-16T11:34:34Z</time>
      </trkpt>
      <trkpt lat="44.02807" lon="6.88482">
        <ele>1427</ele>
        <time>2019-07-16T11:34:35Z</time>
      </trkpt>
      <trkpt lat="44.02804" lon="6.88483">
        <ele>1425.8</ele>
        <time>2019-07-16T11:34:36Z</time>
      </trkpt>
      <trkpt lat="44.02801" lon="6.88485">
        <ele>1424.7</ele>
        <time>2019-07-16T11:34:37Z</time>
      </trkpt>
      <trkpt lat="44.02798" lon="6.88483">
        <ele>1424.3</ele>
        <time>2019-07-16T11:34:39Z</time>
      </trkpt>
      <trkpt lat="44.02795" lon="6.8848">
        <ele>1424.1</ele>
        <time>2019-07-16T11:34:41Z</time>
      </trkpt>
      <trkpt lat="44.02792" lon="6.88478">
        <ele>1423.9</ele>
        <time>2019-07-16T11:34:42Z</time>
      </trkpt>
      <trkpt lat="44.02789" lon="6.88477">
        <ele>1423.2</ele>
        <time>2019-07-16T11:34:43Z</time>
      </trkpt>
      <trkpt lat="44.02786" lon="6.88477">
        <ele>1422.7</ele>
        <time>2019-07-16T11:34:44Z</time>
      </trkpt>
      <trkpt lat="44.02783" lon="6.88478">
        <ele>1422.1</ele>
        <time>2019-07-16T11:34:45Z</time>
      </trkpt>
      <trkpt lat="44.02778" lon="6.88478">
        <ele>1421.3</ele>
        <time>2019-07-16T11:34:46Z</time>
      </trkpt>
      <trkpt lat="44.02772" lon="6.88478">
        <ele>1420.2</ele>
        <time>2019-07-16T11:34:47Z</time>
      </trkpt>
      <trkpt lat="44.02768" lon="6.88478">
        <ele>1419.3</ele>
        <time>2019-07-16T11:34:48Z</time>
      </trkpt>
      <trkpt lat="44.02763" lon="6.88479">
        <ele>1418.5</ele>
        <time>2019-07-16T11:34:49Z</time>
      </trkpt>
      <trkpt lat="44.02759" lon="6.88479">
        <ele>1417.7</ele>
        <time>2019-07-16T11:34:50Z</time>
      </trkpt>
      <trkpt lat="44.02754" lon="6.88478">
        <ele>1416.7</ele>
        <time>2019-07-16T11:34:51Z</time>
      </trkpt>
      <trkpt lat="44.02751" lon="6.88479">
        <ele>1415.7</ele>
        <time>2019-07-16T11:34:52Z</time>
      </trkpt>
      <trkpt lat="44.02748" lon="6.8848">
        <ele>1414.9</ele>
        <time>2019-07-16T11:34:53Z</time>
      </trkpt>
      <trkpt lat="44.02745" lon="6.88481">
        <ele>1414.1</ele>
        <time>2019-07-16T11:34:54Z</time>
      </trkpt>
      <trkpt lat="44.02742" lon="6.88483">
        <ele>1413.3</ele>
        <time>2019-07-16T11:34:55Z</time>
      </trkpt>
      <trkpt lat="44.02739" lon="6.88484">
        <ele>1412.6</ele>
        <time>2019-07-16T11:34:56Z</time>
      </trkpt>
      <trkpt lat="44.02735" lon="6.88482">
        <ele>1412.6</ele>
        <time>2019-07-16T11:34:57Z</time>
      </trkpt>
      <trkpt lat="44.02731" lon="6.8848">
        <ele>1412.7</ele>
        <time>2019-07-16T11:34:58Z</time>
      </trkpt>
      <trkpt lat="44.02727" lon="6.8848">
        <ele>1412.2</ele>
        <time>2019-07-16T11:34:59Z</time>
      </trkpt>
      <trkpt lat="44.02724" lon="6.8848">
        <ele>1411.7</ele>
        <time>2019-07-16T11:35:00Z</time>
      </trkpt>
      <trkpt lat="44.0272" lon="6.8848">
        <ele>1411.1</ele>
        <time>2019-07-16T11:35:01Z</time>
      </trkpt>
      <trkpt lat="44.02716" lon="6.8848">
        <ele>1410.7</ele>
        <time>2019-07-16T11:35:02Z</time>
      </trkpt>
      <trkpt lat="44.02712" lon="6.88479">
        <ele>1410.2</ele>
        <time>2019-07-16T11:35:03Z</time>
      </trkpt>
      <trkpt lat="44.02709" lon="6.88479">
        <ele>1409.6</ele>
        <time>2019-07-16T11:35:04Z</time>
      </trkpt>
      <trkpt lat="44.02706" lon="6.88476">
        <ele>1408.7</ele>
        <time>2019-07-16T11:35:05Z</time>
      </trkpt>
      <trkpt lat="44.02701" lon="6.88472">
        <ele>1408.5</ele>
        <time>2019-07-16T11:35:06Z</time>
      </trkpt>
      <trkpt lat="44.02697" lon="6.88468">
        <ele>1408.6</ele>
        <time>2019-07-16T11:35:07Z</time>
      </trkpt>
      <trkpt lat="44.02693" lon="6.88465">
        <ele>1408.2</ele>
        <time>2019-07-16T11:35:09Z</time>
      </trkpt>
      <trkpt lat="44.02689" lon="6.88461">
        <ele>1407.8</ele>
        <time>2019-07-16T11:35:11Z</time>
      </trkpt>
      <trkpt lat="44.02686" lon="6.88457">
        <ele>1407.3</ele>
        <time>2019-07-16T11:35:13Z</time>
      </trkpt>
      <trkpt lat="44.02683" lon="6.88454">
        <ele>1406.8</ele>
        <time>2019-07-16T11:35:16Z</time>
      </trkpt>
      <trkpt lat="44.02679" lon="6.88452">
        <ele>1406.7</ele>
        <time>2019-07-16T11:35:19Z</time>
      </trkpt>
      <trkpt lat="44.02676" lon="6.88451">
        <ele>1406.6</ele>
        <time>2019-07-16T11:35:22Z</time>
      </trkpt>
      <trkpt lat="44.02678" lon="6.88442">
        <ele>1406.5</ele>
        <time>2019-07-16T11:36:51Z</time>
      </trkpt>
      <trkpt lat="44.02676" lon="6.88437">
        <ele>1406.5</ele>
        <time>2019-07-16T11:36:53Z</time>
      </trkpt>
      <trkpt lat="44.02674" lon="6.88431">
        <ele>1406.9</ele>
        <time>2019-07-16T11:36:55Z</time>
      </trkpt>
      <trkpt lat="44.02672" lon="6.88424">
        <ele>1407</ele>
        <time>2019-07-16T11:36:57Z</time>
      </trkpt>
      <trkpt lat="44.02671" lon="6.8842">
        <ele>1407.1</ele>
        <time>2019-07-16T11:36:58Z</time>
      </trkpt>
      <trkpt lat="44.02671" lon="6.88411">
        <ele>1407.4</ele>
        <time>2019-07-16T11:37:00Z</time>
      </trkpt>
      <trkpt lat="44.0267" lon="6.88406">
        <ele>1407.7</ele>
        <time>2019-07-16T11:37:01Z</time>
      </trkpt>
      <trkpt lat="44.0267" lon="6.88402">
        <ele>1408.1</ele>
        <time>2019-07-16T11:37:02Z</time>
      </trkpt>
      <trkpt lat="44.02669" lon="6.88398">
        <ele>1408.4</ele>
        <time>2019-07-16T11:37:03Z</time>
      </trkpt>
      <trkpt lat="44.02668" lon="6.88394">
        <ele>1408.5</ele>
        <time>2019-07-16T11:37:04Z</time>
      </trkpt>
      <trkpt lat="44.02667" lon="6.8839">
        <ele>1408.4</ele>
        <time>2019-07-16T11:37:05Z</time>
      </trkpt>
      <trkpt lat="44.02667" lon="6.88385">
        <ele>1408.2</ele>
        <time>2019-07-16T11:37:06Z</time>
      </trkpt>
      <trkpt lat="44.02667" lon="6.8838">
        <ele>1408.3</ele>
        <time>2019-07-16T11:37:07Z</time>
      </trkpt>
      <trkpt lat="44.02667" lon="6.88376">
        <ele>1408.4</ele>
        <time>2019-07-16T11:37:08Z</time>
      </trkpt>
      <trkpt lat="44.02666" lon="6.88371">
        <ele>1408.6</ele>
        <time>2019-07-16T11:37:09Z</time>
      </trkpt>
      <trkpt lat="44.02667" lon="6.88368">
        <ele>1408.3</ele>
        <time>2019-07-16T11:37:10Z</time>
      </trkpt>
      <trkpt lat="44.02668" lon="6.88364">
        <ele>1408</ele>
        <time>2019-07-16T11:37:11Z</time>
      </trkpt>
      <trkpt lat="44.02668" lon="6.8836">
        <ele>1407.6</ele>
        <time>2019-07-16T11:37:12Z</time>
      </trkpt>
      <trkpt lat="44.02668" lon="6.88354">
        <ele>1407.5</ele>
        <time>2019-07-16T11:37:14Z</time>
      </trkpt>
      <trkpt lat="44.02669" lon="6.8835">
        <ele>1407.4</ele>
        <time>2019-07-16T11:37:16Z</time>
      </trkpt>
      <trkpt lat="44.02671" lon="6.88344">
        <ele>1407.7</ele>
        <time>2019-07-16T11:37:18Z</time>
      </trkpt>
      <trkpt lat="44.02671" lon="6.8834">
        <ele>1408</ele>
        <time>2019-07-16T11:37:20Z</time>
      </trkpt>
      <trkpt lat="44.02671" lon="6.88335">
        <ele>1408.1</ele>
        <time>2019-07-16T11:37:22Z</time>
      </trkpt>
      <trkpt lat="44.0267" lon="6.88328">
        <ele>1407.6</ele>
        <time>2019-07-16T11:37:24Z</time>
      </trkpt>
      <trkpt lat="44.0267" lon="6.88324">
        <ele>1407.4</ele>
        <time>2019-07-16T11:37:26Z</time>
      </trkpt>
      <trkpt lat="44.0267" lon="6.88318">
        <ele>1407.7</ele>
        <time>2019-07-16T11:37:28Z</time>
      </trkpt>
      <trkpt lat="44.02671" lon="6.88312">
        <ele>1407.4</ele>
        <time>2019-07-16T11:37:30Z</time>
      </trkpt>
      <trkpt lat="44.02672" lon="6.88308">
        <ele>1406.9</ele>
        <time>2019-07-16T11:37:31Z</time>
      </trkpt>
      <trkpt lat="44.02673" lon="6.88303">
        <ele>1406.3</ele>
        <time>2019-07-16T11:37:32Z</time>
      </trkpt>
      <trkpt lat="44.02676" lon="6.88296">
        <ele>1405.5</ele>
        <time>2019-07-16T11:37:34Z</time>
      </trkpt>
      <trkpt lat="44.02677" lon="6.88291">
        <ele>1405.2</ele>
        <time>2019-07-16T11:37:35Z</time>
      </trkpt>
      <trkpt lat="44.02677" lon="6.88286">
        <ele>1404.9</ele>
        <time>2019-07-16T11:37:36Z</time>
      </trkpt>
      <trkpt lat="44.02678" lon="6.88282">
        <ele>1404.7</ele>
        <time>2019-07-16T11:37:37Z</time>
      </trkpt>
      <trkpt lat="44.02679" lon="6.88277">
        <ele>1404.2</ele>
        <time>2019-07-16T11:37:38Z</time>
      </trkpt>
      <trkpt lat="44.02681" lon="6.88274">
        <ele>1403.7</ele>
        <time>2019-07-16T11:37:39Z</time>
      </trkpt>
      <trkpt lat="44.02682" lon="6.88269">
        <ele>1403.3</ele>
        <time>2019-07-16T11:37:40Z</time>
      </trkpt>
      <trkpt lat="44.02683" lon="6.88265">
        <ele>1402.8</ele>
        <time>2019-07-16T11:37:41Z</time>
      </trkpt>
      <trkpt lat="44.02684" lon="6.88261">
        <ele>1402.5</ele>
        <time>2019-07-16T11:37:42Z</time>
      </trkpt>
      <trkpt lat="44.02685" lon="6.88258">
        <ele>1402.3</ele>
        <time>2019-07-16T11:37:43Z</time>
      </trkpt>
      <trkpt lat="44.02687" lon="6.88252">
        <ele>1402</ele>
        <time>2019-07-16T11:37:45Z</time>
      </trkpt>
      <trkpt lat="44.02689" lon="6.88247">
        <ele>1401.8</ele>
        <time>2019-07-16T11:37:47Z</time>
      </trkpt>
      <trkpt lat="44.0269" lon="6.88242">
        <ele>1401.6</ele>
        <time>2019-07-16T11:37:49Z</time>
      </trkpt>
      <trkpt lat="44.02691" lon="6.88239">
        <ele>1400.9</ele>
        <time>2019-07-16T11:37:50Z</time>
      </trkpt>
      <trkpt lat="44.02693" lon="6.88234">
        <ele>1400</ele>
        <time>2019-07-16T11:37:51Z</time>
      </trkpt>
      <trkpt lat="44.02694" lon="6.8823">
        <ele>1399.5</ele>
        <time>2019-07-16T11:37:52Z</time>
      </trkpt>
      <trkpt lat="44.02696" lon="6.88225">
        <ele>1399.3</ele>
        <time>2019-07-16T11:37:54Z</time>
      </trkpt>
      <trkpt lat="44.02697" lon="6.88221">
        <ele>1399.2</ele>
        <time>2019-07-16T11:38:07Z</time>
      </trkpt>
      <trkpt lat="44.02696" lon="6.88217">
        <ele>1399</ele>
        <time>2019-07-16T11:38:11Z</time>
      </trkpt>
      <trkpt lat="44.02698" lon="6.88213">
        <ele>1398.7</ele>
        <time>2019-07-16T11:38:13Z</time>
      </trkpt>
      <trkpt lat="44.02701" lon="6.88208">
        <ele>1399</ele>
        <time>2019-07-16T11:38:15Z</time>
      </trkpt>
      <trkpt lat="44.02705" lon="6.88205">
        <ele>1399.1</ele>
        <time>2019-07-16T11:38:17Z</time>
      </trkpt>
      <trkpt lat="44.02711" lon="6.88201">
        <ele>1398.8</ele>
        <time>2019-07-16T11:38:19Z</time>
      </trkpt>
      <trkpt lat="44.02713" lon="6.882">
        <ele>1399</ele>
        <time>2019-07-16T11:38:20Z</time>
      </trkpt>
      <trkpt lat="44.02716" lon="6.88198">
        <ele>1399.1</ele>
        <time>2019-07-16T11:38:21Z</time>
      </trkpt>
      <trkpt lat="44.02719" lon="6.88196">
        <ele>1399.4</ele>
        <time>2019-07-16T11:38:22Z</time>
      </trkpt>
      <trkpt lat="44.02723" lon="6.88191">
        <ele>1399.9</ele>
        <time>2019-07-16T11:38:24Z</time>
      </trkpt>
      <trkpt lat="44.02725" lon="6.88186">
        <ele>1400.5</ele>
        <time>2019-07-16T11:38:26Z</time>
      </trkpt>
      <trkpt lat="44.02725" lon="6.88179">
        <ele>1401.3</ele>
        <time>2019-07-16T11:38:28Z</time>
      </trkpt>
      <trkpt lat="44.02724" lon="6.88174">
        <ele>1401.8</ele>
        <time>2019-07-16T11:38:30Z</time>
      </trkpt>
      <trkpt lat="44.02722" lon="6.88169">
        <ele>1402.3</ele>
        <time>2019-07-16T11:38:32Z</time>
      </trkpt>
      <trkpt lat="44.0272" lon="6.88165">
        <ele>1402.6</ele>
        <time>2019-07-16T11:38:34Z</time>
      </trkpt>
      <trkpt lat="44.02719" lon="6.88162">
        <ele>1402</ele>
        <time>2019-07-16T11:38:36Z</time>
      </trkpt>
      <trkpt lat="44.02716" lon="6.88162">
        <ele>1401.3</ele>
        <time>2019-07-16T11:39:05Z</time>
      </trkpt>
      <trkpt lat="44.02717" lon="6.88165">
        <ele>1400.8</ele>
        <time>2019-07-16T11:39:09Z</time>
      </trkpt>
      <trkpt lat="44.02719" lon="6.88169">
        <ele>1400.4</ele>
        <time>2019-07-16T11:39:20Z</time>
      </trkpt>
      <trkpt lat="44.02722" lon="6.88168">
        <ele>1400</ele>
        <time>2019-07-16T11:39:24Z</time>
      </trkpt>
      <trkpt lat="44.02723" lon="6.88164">
        <ele>1399.4</ele>
        <time>2019-07-16T11:39:31Z</time>
      </trkpt>
      <trkpt lat="44.02724" lon="6.8816">
        <ele>1398.7</ele>
        <time>2019-07-16T11:39:34Z</time>
      </trkpt>
      <trkpt lat="44.02723" lon="6.88155">
        <ele>1397.8</ele>
        <time>2019-07-16T11:39:40Z</time>
      </trkpt>
      <trkpt lat="44.02724" lon="6.8815">
        <ele>1397.3</ele>
        <time>2019-07-16T11:39:49Z</time>
      </trkpt>
      <trkpt lat="44.02724" lon="6.88145">
        <ele>1396.9</ele>
        <time>2019-07-16T11:39:53Z</time>
      </trkpt>
      <trkpt lat="44.02725" lon="6.88141">
        <ele>1396.7</ele>
        <time>2019-07-16T11:39:56Z</time>
      </trkpt>
      <trkpt lat="44.02724" lon="6.88137">
        <ele>1396.8</ele>
        <time>2019-07-16T11:39:59Z</time>
      </trkpt>
      <trkpt lat="44.02723" lon="6.88134">
        <ele>1396.9</ele>
        <time>2019-07-16T11:40:05Z</time>
      </trkpt>
      <trkpt lat="44.02723" lon="6.88129">
        <ele>1397.1</ele>
        <time>2019-07-16T11:40:13Z</time>
      </trkpt>
      <trkpt lat="44.02724" lon="6.88124">
        <ele>1397.4</ele>
        <time>2019-07-16T11:40:19Z</time>
      </trkpt>
      <trkpt lat="44.02727" lon="6.88119">
        <ele>1397.8</ele>
        <time>2019-07-16T11:40:21Z</time>
      </trkpt>
      <trkpt lat="44.0273" lon="6.88115">
        <ele>1398.1</ele>
        <time>2019-07-16T11:40:23Z</time>
      </trkpt>
      <trkpt lat="44.02733" lon="6.88111">
        <ele>1398.1</ele>
        <time>2019-07-16T11:40:26Z</time>
      </trkpt>
      <trkpt lat="44.02735" lon="6.88107">
        <ele>1398.1</ele>
        <time>2019-07-16T11:40:37Z</time>
      </trkpt>
      <trkpt lat="44.02737" lon="6.88103">
        <ele>1398.5</ele>
        <time>2019-07-16T11:40:41Z</time>
      </trkpt>
      <trkpt lat="44.02737" lon="6.88098">
        <ele>1399</ele>
        <time>2019-07-16T11:40:49Z</time>
      </trkpt>
      <trkpt lat="44.02735" lon="6.88092">
        <ele>1398.8</ele>
        <time>2019-07-16T11:40:51Z</time>
      </trkpt>
      <trkpt lat="44.02732" lon="6.88092">
        <ele>1398.6</ele>
        <time>2019-07-16T11:41:12Z</time>
      </trkpt>
      <trkpt lat="44.02727" lon="6.8809">
        <ele>1397.6</ele>
        <time>2019-07-16T11:41:15Z</time>
      </trkpt>
      <trkpt lat="44.02723" lon="6.88091">
        <ele>1396.6</ele>
        <time>2019-07-16T11:41:17Z</time>
      </trkpt>
      <trkpt lat="44.0272" lon="6.8809">
        <ele>1395.8</ele>
        <time>2019-07-16T11:41:19Z</time>
      </trkpt>
      <trkpt lat="44.02716" lon="6.88087">
        <ele>1394.6</ele>
        <time>2019-07-16T11:41:22Z</time>
      </trkpt>
      <trkpt lat="44.02713" lon="6.88085">
        <ele>1393.9</ele>
        <time>2019-07-16T11:41:23Z</time>
      </trkpt>
      <trkpt lat="44.02709" lon="6.88082">
        <ele>1392.6</ele>
        <time>2019-07-16T11:41:25Z</time>
      </trkpt>
      <trkpt lat="44.02706" lon="6.8808">
        <ele>1391.8</ele>
        <time>2019-07-16T11:41:26Z</time>
      </trkpt>
      <trkpt lat="44.02704" lon="6.88077">
        <ele>1391</ele>
        <time>2019-07-16T11:41:27Z</time>
      </trkpt>
      <trkpt lat="44.02702" lon="6.88074">
        <ele>1390.3</ele>
        <time>2019-07-16T11:41:28Z</time>
      </trkpt>
      <trkpt lat="44.027" lon="6.88071">
        <ele>1389.8</ele>
        <time>2019-07-16T11:41:29Z</time>
      </trkpt>
      <trkpt lat="44.02698" lon="6.88067">
        <ele>1389.2</ele>
        <time>2019-07-16T11:41:30Z</time>
      </trkpt>
      <trkpt lat="44.02697" lon="6.88064">
        <ele>1389.1</ele>
        <time>2019-07-16T11:41:31Z</time>
      </trkpt>
      <trkpt lat="44.02694" lon="6.88059">
        <ele>1388.9</ele>
        <time>2019-07-16T11:41:32Z</time>
      </trkpt>
      <trkpt lat="44.02692" lon="6.88054">
        <ele>1388.5</ele>
        <time>2019-07-16T11:41:33Z</time>
      </trkpt>
      <trkpt lat="44.02689" lon="6.8805">
        <ele>1387.8</ele>
        <time>2019-07-16T11:41:34Z</time>
      </trkpt>
      <trkpt lat="44.02687" lon="6.88045">
        <ele>1387.4</ele>
        <time>2019-07-16T11:41:35Z</time>
      </trkpt>
      <trkpt lat="44.02687" lon="6.88041">
        <ele>1387.5</ele>
        <time>2019-07-16T11:41:36Z</time>
      </trkpt>
      <trkpt lat="44.02685" lon="6.88036">
        <ele>1387.5</ele>
        <time>2019-07-16T11:41:38Z</time>
      </trkpt>
      <trkpt lat="44.02685" lon="6.88031">
        <ele>1388</ele>
        <time>2019-07-16T11:41:40Z</time>
      </trkpt>
      <trkpt lat="44.02685" lon="6.88023">
        <ele>1388.7</ele>
        <time>2019-07-16T11:41:42Z</time>
      </trkpt>
      <trkpt lat="44.02685" lon="6.88017">
        <ele>1389.3</ele>
        <time>2019-07-16T11:41:43Z</time>
      </trkpt>
      <trkpt lat="44.02685" lon="6.88012">
        <ele>1389.7</ele>
        <time>2019-07-16T11:41:44Z</time>
      </trkpt>
      <trkpt lat="44.02682" lon="6.88009">
        <ele>1390</ele>
        <time>2019-07-16T11:41:45Z</time>
      </trkpt>
      <trkpt lat="44.02679" lon="6.88007">
        <ele>1390.3</ele>
        <time>2019-07-16T11:41:46Z</time>
      </trkpt>
      <trkpt lat="44.02676" lon="6.88005">
        <ele>1390.7</ele>
        <time>2019-07-16T11:41:48Z</time>
      </trkpt>
      <trkpt lat="44.02675" lon="6.88001">
        <ele>1391</ele>
        <time>2019-07-16T11:41:56Z</time>
      </trkpt>
      <trkpt lat="44.02677" lon="6.87997">
        <ele>1391.2</ele>
        <time>2019-07-16T11:41:58Z</time>
      </trkpt>
      <trkpt lat="44.02678" lon="6.87992">
        <ele>1391.3</ele>
        <time>2019-07-16T11:42:00Z</time>
      </trkpt>
      <trkpt lat="44.02677" lon="6.87988">
        <ele>1391.4</ele>
        <time>2019-07-16T11:42:02Z</time>
      </trkpt>
      <trkpt lat="44.02676" lon="6.87983">
        <ele>1391.8</ele>
        <time>2019-07-16T11:42:05Z</time>
      </trkpt>
      <trkpt lat="44.02673" lon="6.8798">
        <ele>1392</ele>
        <time>2019-07-16T11:42:08Z</time>
      </trkpt>
      <trkpt lat="44.02671" lon="6.87978">
        <ele>1392.1</ele>
        <time>2019-07-16T11:42:10Z</time>
      </trkpt>
      <trkpt lat="44.02669" lon="6.87975">
        <ele>1391.8</ele>
        <time>2019-07-16T11:42:14Z</time>
      </trkpt>
      <trkpt lat="44.02667" lon="6.87971">
        <ele>1391.4</ele>
        <time>2019-07-16T11:42:17Z</time>
      </trkpt>
      <trkpt lat="44.02665" lon="6.87967">
        <ele>1391.4</ele>
        <time>2019-07-16T11:42:21Z</time>
      </trkpt>
      <trkpt lat="44.02663" lon="6.87963">
        <ele>1391.6</ele>
        <time>2019-07-16T11:43:05Z</time>
      </trkpt>
      <trkpt lat="44.02662" lon="6.87959">
        <ele>1391.7</ele>
        <time>2019-07-16T11:43:07Z</time>
      </trkpt>
      <trkpt lat="44.0266" lon="6.87955">
        <ele>1391.5</ele>
        <time>2019-07-16T11:43:09Z</time>
      </trkpt>
      <trkpt lat="44.02659" lon="6.87951">
        <ele>1391.3</ele>
        <time>2019-07-16T11:43:11Z</time>
      </trkpt>
      <trkpt lat="44.02658" lon="6.87946">
        <ele>1391.2</ele>
        <time>2019-07-16T11:43:13Z</time>
      </trkpt>
      <trkpt lat="44.02657" lon="6.87942">
        <ele>1391.4</ele>
        <time>2019-07-16T11:43:15Z</time>
      </trkpt>
      <trkpt lat="44.02654" lon="6.87938">
        <ele>1391.6</ele>
        <time>2019-07-16T11:43:17Z</time>
      </trkpt>
      <trkpt lat="44.02652" lon="6.87934">
        <ele>1391.4</ele>
        <time>2019-07-16T11:43:18Z</time>
      </trkpt>
      <trkpt lat="44.02649" lon="6.87929">
        <ele>1391.1</ele>
        <time>2019-07-16T11:43:19Z</time>
      </trkpt>
      <trkpt lat="44.02646" lon="6.87925">
        <ele>1391.1</ele>
        <time>2019-07-16T11:43:20Z</time>
      </trkpt>
      <trkpt lat="44.02644" lon="6.87922">
        <ele>1391.2</ele>
        <time>2019-07-16T11:43:21Z</time>
      </trkpt>
      <trkpt lat="44.0264" lon="6.87918">
        <ele>1391.1</ele>
        <time>2019-07-16T11:43:23Z</time>
      </trkpt>
      <trkpt lat="44.02637" lon="6.87916">
        <ele>1390.8</ele>
        <time>2019-07-16T11:43:24Z</time>
      </trkpt>
      <trkpt lat="44.02634" lon="6.87913">
        <ele>1390.4</ele>
        <time>2019-07-16T11:43:26Z</time>
      </trkpt>
      <trkpt lat="44.02631" lon="6.87908">
        <ele>1390</ele>
        <time>2019-07-16T11:43:28Z</time>
      </trkpt>
      <trkpt lat="44.02629" lon="6.87905">
        <ele>1389.7</ele>
        <time>2019-07-16T11:43:30Z</time>
      </trkpt>
      <trkpt lat="44.02626" lon="6.87901">
        <ele>1389.5</ele>
        <time>2019-07-16T11:43:32Z</time>
      </trkpt>
      <trkpt lat="44.02624" lon="6.87895">
        <ele>1389.2</ele>
        <time>2019-07-16T11:43:34Z</time>
      </trkpt>
      <trkpt lat="44.02622" lon="6.87891">
        <ele>1388.9</ele>
        <time>2019-07-16T11:43:35Z</time>
      </trkpt>
      <trkpt lat="44.02619" lon="6.87887">
        <ele>1388.5</ele>
        <time>2019-07-16T11:43:36Z</time>
      </trkpt>
      <trkpt lat="44.02616" lon="6.87882">
        <ele>1388.4</ele>
        <time>2019-07-16T11:43:37Z</time>
      </trkpt>
      <trkpt lat="44.02613" lon="6.87877">
        <ele>1388.6</ele>
        <time>2019-07-16T11:43:38Z</time>
      </trkpt>
      <trkpt lat="44.02609" lon="6.87871">
        <ele>1387.9</ele>
        <time>2019-07-16T11:43:39Z</time>
      </trkpt>
      <trkpt lat="44.02605" lon="6.87866">
        <ele>1387.2</ele>
        <time>2019-07-16T11:43:40Z</time>
      </trkpt>
      <trkpt lat="44.02601" lon="6.8786">
        <ele>1386.6</ele>
        <time>2019-07-16T11:43:41Z</time>
      </trkpt>
      <trkpt lat="44.02598" lon="6.87855">
        <ele>1386</ele>
        <time>2019-07-16T11:43:42Z</time>
      </trkpt>
      <trkpt lat="44.02595" lon="6.87851">
        <ele>1385.6</ele>
        <time>2019-07-16T11:43:43Z</time>
      </trkpt>
      <trkpt lat="44.02592" lon="6.87846">
        <ele>1385</ele>
        <time>2019-07-16T11:43:44Z</time>
      </trkpt>
      <trkpt lat="44.0259" lon="6.87843">
        <ele>1384.6</ele>
        <time>2019-07-16T11:43:45Z</time>
      </trkpt>
      <trkpt lat="44.02588" lon="6.8784">
        <ele>1384.6</ele>
        <time>2019-07-16T11:43:48Z</time>
      </trkpt>
      <trkpt lat="44.02587" lon="6.87837">
        <ele>1384.6</ele>
        <time>2019-07-16T11:43:52Z</time>
      </trkpt>
      <trkpt lat="44.02586" lon="6.87832">
        <ele>1384.7</ele>
        <time>2019-07-16T11:43:57Z</time>
      </trkpt>
      <trkpt lat="44.02584" lon="6.87827">
        <ele>1384.2</ele>
        <time>2019-07-16T11:44:01Z</time>
      </trkpt>
      <trkpt lat="44.02583" lon="6.87822">
        <ele>1383.6</ele>
        <time>2019-07-16T11:44:03Z</time>
      </trkpt>
      <trkpt lat="44.02581" lon="6.87818">
        <ele>1383.6</ele>
        <time>2019-07-16T11:44:04Z</time>
      </trkpt>
      <trkpt lat="44.0258" lon="6.87814">
        <ele>1383.7</ele>
        <time>2019-07-16T11:44:05Z</time>
      </trkpt>
      <trkpt lat="44.02578" lon="6.8781">
        <ele>1383.9</ele>
        <time>2019-07-16T11:44:06Z</time>
      </trkpt>
      <trkpt lat="44.02576" lon="6.87806">
        <ele>1384</ele>
        <time>2019-07-16T11:44:07Z</time>
      </trkpt>
      <trkpt lat="44.02575" lon="6.87802">
        <ele>1384.1</ele>
        <time>2019-07-16T11:44:08Z</time>
      </trkpt>
      <trkpt lat="44.02573" lon="6.87798">
        <ele>1384.3</ele>
        <time>2019-07-16T11:44:09Z</time>
      </trkpt>
      <trkpt lat="44.02571" lon="6.87794">
        <ele>1384.5</ele>
        <time>2019-07-16T11:44:10Z</time>
      </trkpt>
      <trkpt lat="44.02569" lon="6.8779">
        <ele>1384.6</ele>
        <time>2019-07-16T11:44:11Z</time>
      </trkpt>
      <trkpt lat="44.02568" lon="6.87787">
        <ele>1384.8</ele>
        <time>2019-07-16T11:44:12Z</time>
      </trkpt>
      <trkpt lat="44.02566" lon="6.87784">
        <ele>1384.6</ele>
        <time>2019-07-16T11:44:13Z</time>
      </trkpt>
      <trkpt lat="44.02564" lon="6.8778">
        <ele>1384.3</ele>
        <time>2019-07-16T11:44:15Z</time>
      </trkpt>
      <trkpt lat="44.02561" lon="6.87775">
        <ele>1384.3</ele>
        <time>2019-07-16T11:44:17Z</time>
      </trkpt>
      <trkpt lat="44.02558" lon="6.87772">
        <ele>1384.5</ele>
        <time>2019-07-16T11:44:18Z</time>
      </trkpt>
      <trkpt lat="44.02556" lon="6.8777">
        <ele>1384.7</ele>
        <time>2019-07-16T11:44:19Z</time>
      </trkpt>
      <trkpt lat="44.02555" lon="6.87766">
        <ele>1384.3</ele>
        <time>2019-07-16T11:44:20Z</time>
      </trkpt>
      <trkpt lat="44.02553" lon="6.8776">
        <ele>1383.7</ele>
        <time>2019-07-16T11:44:22Z</time>
      </trkpt>
      <trkpt lat="44.02555" lon="6.87757">
        <ele>1384.7</ele>
        <time>2019-07-16T11:44:27Z</time>
      </trkpt>
      <trkpt lat="44.02554" lon="6.87751">
        <ele>1386</ele>
        <time>2019-07-16T11:44:32Z</time>
      </trkpt>
      <trkpt lat="44.02554" lon="6.87747">
        <ele>1386.7</ele>
        <time>2019-07-16T11:45:09Z</time>
      </trkpt>
      <trkpt lat="44.02551" lon="6.87744">
        <ele>1387.1</ele>
        <time>2019-07-16T11:45:11Z</time>
      </trkpt>
      <trkpt lat="44.02547" lon="6.8774">
        <ele>1386.9</ele>
        <time>2019-07-16T11:45:13Z</time>
      </trkpt>
      <trkpt lat="44.02544" lon="6.87737">
        <ele>1386.1</ele>
        <time>2019-07-16T11:45:14Z</time>
      </trkpt>
      <trkpt lat="44.02541" lon="6.87735">
        <ele>1385.4</ele>
        <time>2019-07-16T11:45:15Z</time>
      </trkpt>
      <trkpt lat="44.02538" lon="6.87732">
        <ele>1385.1</ele>
        <time>2019-07-16T11:45:16Z</time>
      </trkpt>
      <trkpt lat="44.02535" lon="6.87728">
        <ele>1384.6</ele>
        <time>2019-07-16T11:45:17Z</time>
      </trkpt>
      <trkpt lat="44.02533" lon="6.87725">
        <ele>1383.7</ele>
        <time>2019-07-16T11:45:18Z</time>
      </trkpt>
      <trkpt lat="44.0253" lon="6.87723">
        <ele>1382.9</ele>
        <time>2019-07-16T11:45:19Z</time>
      </trkpt>
      <trkpt lat="44.02527" lon="6.87721">
        <ele>1381.6</ele>
        <time>2019-07-16T11:45:20Z</time>
      </trkpt>
      <trkpt lat="44.02523" lon="6.87718">
        <ele>1379.3</ele>
        <time>2019-07-16T11:45:22Z</time>
      </trkpt>
      <trkpt lat="44.0252" lon="6.87713">
        <ele>1378.1</ele>
        <time>2019-07-16T11:45:24Z</time>
      </trkpt>
      <trkpt lat="44.02517" lon="6.87712">
        <ele>1377.3</ele>
        <time>2019-07-16T11:45:25Z</time>
      </trkpt>
      <trkpt lat="44.02513" lon="6.87709">
        <ele>1376.5</ele>
        <time>2019-07-16T11:45:26Z</time>
      </trkpt>
      <trkpt lat="44.02509" lon="6.87706">
        <ele>1375.9</ele>
        <time>2019-07-16T11:45:27Z</time>
      </trkpt>
      <trkpt lat="44.02507" lon="6.87703">
        <ele>1375</ele>
        <time>2019-07-16T11:45:28Z</time>
      </trkpt>
      <trkpt lat="44.02504" lon="6.87701">
        <ele>1374</ele>
        <time>2019-07-16T11:45:29Z</time>
      </trkpt>
      <trkpt lat="44.02501" lon="6.87697">
        <ele>1373.4</ele>
        <time>2019-07-16T11:45:30Z</time>
      </trkpt>
      <trkpt lat="44.02498" lon="6.87689">
        <ele>1373.4</ele>
        <time>2019-07-16T11:45:32Z</time>
      </trkpt>
      <trkpt lat="44.02498" lon="6.87683">
        <ele>1374.1</ele>
        <time>2019-07-16T11:45:33Z</time>
      </trkpt>
      <trkpt lat="44.02498" lon="6.87677">
        <ele>1374.7</ele>
        <time>2019-07-16T11:45:34Z</time>
      </trkpt>
      <trkpt lat="44.02498" lon="6.87672">
        <ele>1375.2</ele>
        <time>2019-07-16T11:45:35Z</time>
      </trkpt>
      <trkpt lat="44.025" lon="6.87669">
        <ele>1375.6</ele>
        <time>2019-07-16T11:45:37Z</time>
      </trkpt>
      <trkpt lat="44.02501" lon="6.87663">
        <ele>1376</ele>
        <time>2019-07-16T11:45:39Z</time>
      </trkpt>
      <trkpt lat="44.02502" lon="6.87659">
        <ele>1376.3</ele>
        <time>2019-07-16T11:45:40Z</time>
      </trkpt>
      <trkpt lat="44.02502" lon="6.87653">
        <ele>1376.6</ele>
        <time>2019-07-16T11:45:42Z</time>
      </trkpt>
      <trkpt lat="44.02503" lon="6.87647">
        <ele>1376.9</ele>
        <time>2019-07-16T11:45:44Z</time>
      </trkpt>
      <trkpt lat="44.02504" lon="6.87643">
        <ele>1377.1</ele>
        <time>2019-07-16T11:45:47Z</time>
      </trkpt>
      <trkpt lat="44.02502" lon="6.87637">
        <ele>1377.4</ele>
        <time>2019-07-16T11:45:50Z</time>
      </trkpt>
      <trkpt lat="44.02502" lon="6.87631">
        <ele>1377.6</ele>
        <time>2019-07-16T11:45:52Z</time>
      </trkpt>
      <trkpt lat="44.02502" lon="6.87627">
        <ele>1377.8</ele>
        <time>2019-07-16T11:45:53Z</time>
      </trkpt>
      <trkpt lat="44.02501" lon="6.87623">
        <ele>1377.9</ele>
        <time>2019-07-16T11:45:54Z</time>
      </trkpt>
      <trkpt lat="44.02499" lon="6.87618">
        <ele>1378</ele>
        <time>2019-07-16T11:45:55Z</time>
      </trkpt>
      <trkpt lat="44.02498" lon="6.87614">
        <ele>1378</ele>
        <time>2019-07-16T11:45:56Z</time>
      </trkpt>
      <trkpt lat="44.02498" lon="6.8761">
        <ele>1378.1</ele>
        <time>2019-07-16T11:45:58Z</time>
      </trkpt>
      <trkpt lat="44.02499" lon="6.87605">
        <ele>1378</ele>
        <time>2019-07-16T11:46:00Z</time>
      </trkpt>
      <trkpt lat="44.025" lon="6.87598">
        <ele>1377.9</ele>
        <time>2019-07-16T11:46:02Z</time>
      </trkpt>
      <trkpt lat="44.025" lon="6.87593">
        <ele>1377.8</ele>
        <time>2019-07-16T11:46:03Z</time>
      </trkpt>
      <trkpt lat="44.025" lon="6.87589">
        <ele>1377.6</ele>
        <time>2019-07-16T11:46:04Z</time>
      </trkpt>
      <trkpt lat="44.02499" lon="6.87584">
        <ele>1377.4</ele>
        <time>2019-07-16T11:46:05Z</time>
      </trkpt>
      <trkpt lat="44.02501" lon="6.8758">
        <ele>1377.1</ele>
        <time>2019-07-16T11:46:06Z</time>
      </trkpt>
      <trkpt lat="44.02502" lon="6.87574">
        <ele>1376.7</ele>
        <time>2019-07-16T11:46:08Z</time>
      </trkpt>
      <trkpt lat="44.02503" lon="6.87567">
        <ele>1376.3</ele>
        <time>2019-07-16T11:46:10Z</time>
      </trkpt>
      <trkpt lat="44.02502" lon="6.87563">
        <ele>1376.1</ele>
        <time>2019-07-16T11:46:11Z</time>
      </trkpt>
      <trkpt lat="44.02502" lon="6.87555">
        <ele>1375.5</ele>
        <time>2019-07-16T11:46:13Z</time>
      </trkpt>
      <trkpt lat="44.02503" lon="6.8755">
        <ele>1375</ele>
        <time>2019-07-16T11:46:14Z</time>
      </trkpt>
      <trkpt lat="44.02503" lon="6.87546">
        <ele>1374.7</ele>
        <time>2019-07-16T11:46:15Z</time>
      </trkpt>
      <trkpt lat="44.02502" lon="6.87543">
        <ele>1374.2</ele>
        <time>2019-07-16T11:46:16Z</time>
      </trkpt>
      <trkpt lat="44.02501" lon="6.87539">
        <ele>1373.8</ele>
        <time>2019-07-16T11:46:17Z</time>
      </trkpt>
      <trkpt lat="44.02501" lon="6.87533">
        <ele>1373.2</ele>
        <time>2019-07-16T11:46:19Z</time>
      </trkpt>
      <trkpt lat="44.025" lon="6.87527">
        <ele>1372.5</ele>
        <time>2019-07-16T11:46:21Z</time>
      </trkpt>
      <trkpt lat="44.025" lon="6.8752">
        <ele>1371.4</ele>
        <time>2019-07-16T11:46:23Z</time>
      </trkpt>
      <trkpt lat="44.02499" lon="6.87516">
        <ele>1370.2</ele>
        <time>2019-07-16T11:46:25Z</time>
      </trkpt>
      <trkpt lat="44.02497" lon="6.87512">
        <ele>1368.9</ele>
        <time>2019-07-16T11:46:27Z</time>
      </trkpt>
      <trkpt lat="44.02494" lon="6.87508">
        <ele>1367.4</ele>
        <time>2019-07-16T11:46:29Z</time>
      </trkpt>
      <trkpt lat="44.02492" lon="6.87504">
        <ele>1366.1</ele>
        <time>2019-07-16T11:46:32Z</time>
      </trkpt>
      <trkpt lat="44.0249" lon="6.875">
        <ele>1364.8</ele>
        <time>2019-07-16T11:46:35Z</time>
      </trkpt>
      <trkpt lat="44.02486" lon="6.87496">
        <ele>1363.2</ele>
        <time>2019-07-16T11:46:37Z</time>
      </trkpt>
      <trkpt lat="44.02485" lon="6.87493">
        <ele>1362.2</ele>
        <time>2019-07-16T11:46:38Z</time>
      </trkpt>
      <trkpt lat="44.02482" lon="6.8749">
        <ele>1361.3</ele>
        <time>2019-07-16T11:46:39Z</time>
      </trkpt>
      <trkpt lat="44.02481" lon="6.87485">
        <ele>1359.3</ele>
        <time>2019-07-16T11:46:41Z</time>
      </trkpt>
      <trkpt lat="44.02482" lon="6.87481">
        <ele>1357.7</ele>
        <time>2019-07-16T11:46:42Z</time>
      </trkpt>
      <trkpt lat="44.02483" lon="6.87475">
        <ele>1356.4</ele>
        <time>2019-07-16T11:46:44Z</time>
      </trkpt>
      <trkpt lat="44.02485" lon="6.8747">
        <ele>1355.5</ele>
        <time>2019-07-16T11:46:46Z</time>
      </trkpt>
      <trkpt lat="44.02486" lon="6.87466">
        <ele>1354.9</ele>
        <time>2019-07-16T11:46:48Z</time>
      </trkpt>
      <trkpt lat="44.02486" lon="6.87462">
        <ele>1354.4</ele>
        <time>2019-07-16T11:46:49Z</time>
      </trkpt>
      <trkpt lat="44.02485" lon="6.87457">
        <ele>1353.8</ele>
        <time>2019-07-16T11:46:50Z</time>
      </trkpt>
      <trkpt lat="44.02485" lon="6.87452">
        <ele>1352.9</ele>
        <time>2019-07-16T11:46:51Z</time>
      </trkpt>
      <trkpt lat="44.02485" lon="6.87447">
        <ele>1352</ele>
        <time>2019-07-16T11:46:52Z</time>
      </trkpt>
      <trkpt lat="44.02485" lon="6.87442">
        <ele>1351.4</ele>
        <time>2019-07-16T11:46:53Z</time>
      </trkpt>
      <trkpt lat="44.02485" lon="6.87438">
        <ele>1350.8</ele>
        <time>2019-07-16T11:46:54Z</time>
      </trkpt>
      <trkpt lat="44.02484" lon="6.87433">
        <ele>1350</ele>
        <time>2019-07-16T11:46:55Z</time>
      </trkpt>
      <trkpt lat="44.02483" lon="6.87429">
        <ele>1348.9</ele>
        <time>2019-07-16T11:46:56Z</time>
      </trkpt>
      <trkpt lat="44.02481" lon="6.87424">
        <ele>1347.4</ele>
        <time>2019-07-16T11:46:57Z</time>
      </trkpt>
      <trkpt lat="44.0248" lon="6.87419">
        <ele>1346</ele>
        <time>2019-07-16T11:46:58Z</time>
      </trkpt>
      <trkpt lat="44.02479" lon="6.87414">
        <ele>1344.7</ele>
        <time>2019-07-16T11:46:59Z</time>
      </trkpt>
      <trkpt lat="44.02478" lon="6.8741">
        <ele>1343.6</ele>
        <time>2019-07-16T11:47:01Z</time>
      </trkpt>
      <trkpt lat="44.02478" lon="6.87406">
        <ele>1343.1</ele>
        <time>2019-07-16T11:47:03Z</time>
      </trkpt>
      <trkpt lat="44.02478" lon="6.87401">
        <ele>1342.4</ele>
        <time>2019-07-16T11:47:05Z</time>
      </trkpt>
      <trkpt lat="44.02478" lon="6.87397">
        <ele>1341.9</ele>
        <time>2019-07-16T11:47:07Z</time>
      </trkpt>
      <trkpt lat="44.02476" lon="6.87399">
        <ele>1341.4</ele>
        <time>2019-07-16T11:47:13Z</time>
      </trkpt>
      <trkpt lat="44.02478" lon="6.87396">
        <ele>1340.8</ele>
        <time>2019-07-16T11:47:17Z</time>
      </trkpt>
      <trkpt lat="44.02477" lon="6.87388">
        <ele>1340</ele>
        <time>2019-07-16T11:48:02Z</time>
      </trkpt>
      <trkpt lat="44.02478" lon="6.8738">
        <ele>1339.6</ele>
        <time>2019-07-16T11:48:04Z</time>
      </trkpt>
      <trkpt lat="44.02479" lon="6.87373">
        <ele>1339.3</ele>
        <time>2019-07-16T11:48:05Z</time>
      </trkpt>
      <trkpt lat="44.0248" lon="6.87369">
        <ele>1339</ele>
        <time>2019-07-16T11:48:06Z</time>
      </trkpt>
      <trkpt lat="44.02482" lon="6.87365">
        <ele>1339</ele>
        <time>2019-07-16T11:48:07Z</time>
      </trkpt>
      <trkpt lat="44.02484" lon="6.87361">
        <ele>1339</ele>
        <time>2019-07-16T11:48:08Z</time>
      </trkpt>
      <trkpt lat="44.02487" lon="6.87357">
        <ele>1339.5</ele>
        <time>2019-07-16T11:48:10Z</time>
      </trkpt>
      <trkpt lat="44.0249" lon="6.87355">
        <ele>1340.4</ele>
        <time>2019-07-16T11:48:14Z</time>
      </trkpt>
      <trkpt lat="44.02494" lon="6.87347">
        <ele>1340.9</ele>
        <time>2019-07-16T11:48:16Z</time>
      </trkpt>
      <trkpt lat="44.02496" lon="6.87342">
        <ele>1341</ele>
        <time>2019-07-16T11:48:17Z</time>
      </trkpt>
      <trkpt lat="44.02497" lon="6.87338">
        <ele>1341.4</ele>
        <time>2019-07-16T11:48:18Z</time>
      </trkpt>
      <trkpt lat="44.025" lon="6.87332">
        <ele>1341.8</ele>
        <time>2019-07-16T11:48:20Z</time>
      </trkpt>
      <trkpt lat="44.02502" lon="6.87328">
        <ele>1341.7</ele>
        <time>2019-07-16T11:48:21Z</time>
      </trkpt>
      <trkpt lat="44.02504" lon="6.87325">
        <ele>1341.6</ele>
        <time>2019-07-16T11:48:22Z</time>
      </trkpt>
      <trkpt lat="44.02506" lon="6.87323">
        <ele>1341.6</ele>
        <time>2019-07-16T11:48:24Z</time>
      </trkpt>
      <trkpt lat="44.02509" lon="6.8732">
        <ele>1341.6</ele>
        <time>2019-07-16T11:48:26Z</time>
      </trkpt>
      <trkpt lat="44.02512" lon="6.87317">
        <ele>1341.5</ele>
        <time>2019-07-16T11:48:28Z</time>
      </trkpt>
      <trkpt lat="44.02516" lon="6.87315">
        <ele>1341.4</ele>
        <time>2019-07-16T11:48:30Z</time>
      </trkpt>
      <trkpt lat="44.02519" lon="6.87313">
        <ele>1341.2</ele>
        <time>2019-07-16T11:48:32Z</time>
      </trkpt>
      <trkpt lat="44.02523" lon="6.87312">
        <ele>1341.1</ele>
        <time>2019-07-16T11:48:34Z</time>
      </trkpt>
      <trkpt lat="44.02526" lon="6.87308">
        <ele>1341</ele>
        <time>2019-07-16T11:48:36Z</time>
      </trkpt>
      <trkpt lat="44.02527" lon="6.87304">
        <ele>1340.9</ele>
        <time>2019-07-16T11:48:37Z</time>
      </trkpt>
      <trkpt lat="44.02527" lon="6.87298">
        <ele>1340.8</ele>
        <time>2019-07-16T11:48:39Z</time>
      </trkpt>
      <trkpt lat="44.02525" lon="6.87291">
        <ele>1340.5</ele>
        <time>2019-07-16T11:48:41Z</time>
      </trkpt>
      <trkpt lat="44.02523" lon="6.87287">
        <ele>1340.4</ele>
        <time>2019-07-16T11:48:42Z</time>
      </trkpt>
      <trkpt lat="44.02521" lon="6.87282">
        <ele>1340.1</ele>
        <time>2019-07-16T11:48:44Z</time>
      </trkpt>
      <trkpt lat="44.02519" lon="6.87276">
        <ele>1339.9</ele>
        <time>2019-07-16T11:48:46Z</time>
      </trkpt>
      <trkpt lat="44.02519" lon="6.87272">
        <ele>1339.8</ele>
        <time>2019-07-16T11:48:48Z</time>
      </trkpt>
      <trkpt lat="44.02517" lon="6.87268">
        <ele>1339.6</ele>
        <time>2019-07-16T11:48:50Z</time>
      </trkpt>
      <trkpt lat="44.02516" lon="6.87264">
        <ele>1339.4</ele>
        <time>2019-07-16T11:48:54Z</time>
      </trkpt>
      <trkpt lat="44.02516" lon="6.87259">
        <ele>1339.1</ele>
        <time>2019-07-16T11:48:57Z</time>
      </trkpt>
      <trkpt lat="44.02517" lon="6.87253">
        <ele>1338.8</ele>
        <time>2019-07-16T11:48:59Z</time>
      </trkpt>
      <trkpt lat="44.02517" lon="6.87246">
        <ele>1338.5</ele>
        <time>2019-07-16T11:49:01Z</time>
      </trkpt>
      <trkpt lat="44.02517" lon="6.87242">
        <ele>1338.3</ele>
        <time>2019-07-16T11:49:02Z</time>
      </trkpt>
      <trkpt lat="44.02518" lon="6.87239">
        <ele>1338.2</ele>
        <time>2019-07-16T11:49:03Z</time>
      </trkpt>
      <trkpt lat="44.02517" lon="6.87235">
        <ele>1338</ele>
        <time>2019-07-16T11:49:04Z</time>
      </trkpt>
      <trkpt lat="44.02516" lon="6.87231">
        <ele>1337.8</ele>
        <time>2019-07-16T11:49:06Z</time>
      </trkpt>
      <trkpt lat="44.02517" lon="6.87226">
        <ele>1337.6</ele>
        <time>2019-07-16T11:49:08Z</time>
      </trkpt>
      <trkpt lat="44.02518" lon="6.8722">
        <ele>1337.3</ele>
        <time>2019-07-16T11:49:10Z</time>
      </trkpt>
      <trkpt lat="44.02519" lon="6.87214">
        <ele>1337</ele>
        <time>2019-07-16T11:49:11Z</time>
      </trkpt>
      <trkpt lat="44.0252" lon="6.87209">
        <ele>1336.7</ele>
        <time>2019-07-16T11:49:12Z</time>
      </trkpt>
      <trkpt lat="44.0252" lon="6.87205">
        <ele>1336.3</ele>
        <time>2019-07-16T11:49:13Z</time>
      </trkpt>
      <trkpt lat="44.02519" lon="6.872">
        <ele>1336.1</ele>
        <time>2019-07-16T11:49:14Z</time>
      </trkpt>
      <trkpt lat="44.0252" lon="6.87195">
        <ele>1335.7</ele>
        <time>2019-07-16T11:49:16Z</time>
      </trkpt>
      <trkpt lat="44.02523" lon="6.87195">
        <ele>1335.5</ele>
        <time>2019-07-16T11:49:22Z</time>
      </trkpt>
      <trkpt lat="44.02526" lon="6.87192">
        <ele>1335.2</ele>
        <time>2019-07-16T11:49:49Z</time>
      </trkpt>
      <trkpt lat="44.02528" lon="6.8719">
        <ele>1335</ele>
        <time>2019-07-16T11:49:53Z</time>
      </trkpt>
      <trkpt lat="44.0253" lon="6.87186">
        <ele>1334.8</ele>
        <time>2019-07-16T11:49:59Z</time>
      </trkpt>
      <trkpt lat="44.02533" lon="6.87184">
        <ele>1334.5</ele>
        <time>2019-07-16T11:50:10Z</time>
      </trkpt>
      <trkpt lat="44.02536" lon="6.87183">
        <ele>1334.3</ele>
        <time>2019-07-16T11:50:13Z</time>
      </trkpt>
      <trkpt lat="44.02539" lon="6.87181">
        <ele>1334</ele>
        <time>2019-07-16T11:50:21Z</time>
      </trkpt>
      <trkpt lat="44.02541" lon="6.87177">
        <ele>1333.7</ele>
        <time>2019-07-16T11:50:29Z</time>
      </trkpt>
      <trkpt lat="44.02546" lon="6.87176">
        <ele>1333.3</ele>
        <time>2019-07-16T11:50:31Z</time>
      </trkpt>
      <trkpt lat="44.02551" lon="6.87173">
        <ele>1332.9</ele>
        <time>2019-07-16T11:50:33Z</time>
      </trkpt>
      <trkpt lat="44.02553" lon="6.87171">
        <ele>1332.7</ele>
        <time>2019-07-16T11:50:34Z</time>
      </trkpt>
      <trkpt lat="44.02556" lon="6.87168">
        <ele>1332.5</ele>
        <time>2019-07-16T11:50:35Z</time>
      </trkpt>
      <trkpt lat="44.02559" lon="6.87166">
        <ele>1332.2</ele>
        <time>2019-07-16T11:50:36Z</time>
      </trkpt>
      <trkpt lat="44.02561" lon="6.87163">
        <ele>1332</ele>
        <time>2019-07-16T11:50:37Z</time>
      </trkpt>
      <trkpt lat="44.02562" lon="6.8716">
        <ele>1331.7</ele>
        <time>2019-07-16T11:50:38Z</time>
      </trkpt>
      <trkpt lat="44.02564" lon="6.87157">
        <ele>1331.3</ele>
        <time>2019-07-16T11:50:39Z</time>
      </trkpt>
      <trkpt lat="44.02566" lon="6.87154">
        <ele>1331</ele>
        <time>2019-07-16T11:50:40Z</time>
      </trkpt>
      <trkpt lat="44.02569" lon="6.87153">
        <ele>1330.5</ele>
        <time>2019-07-16T11:50:41Z</time>
      </trkpt>
      <trkpt lat="44.02574" lon="6.87151">
        <ele>1329.8</ele>
        <time>2019-07-16T11:50:42Z</time>
      </trkpt>
      <trkpt lat="44.02578" lon="6.8715">
        <ele>1329.4</ele>
        <time>2019-07-16T11:50:43Z</time>
      </trkpt>
      <trkpt lat="44.02582" lon="6.87148">
        <ele>1328.9</ele>
        <time>2019-07-16T11:50:44Z</time>
      </trkpt>
      <trkpt lat="44.02586" lon="6.87146">
        <ele>1328.5</ele>
        <time>2019-07-16T11:50:45Z</time>
      </trkpt>
      <trkpt lat="44.0259" lon="6.87144">
        <ele>1328.1</ele>
        <time>2019-07-16T11:50:46Z</time>
      </trkpt>
      <trkpt lat="44.02593" lon="6.87142">
        <ele>1327.8</ele>
        <time>2019-07-16T11:50:47Z</time>
      </trkpt>
      <trkpt lat="44.02596" lon="6.87139">
        <ele>1327.4</ele>
        <time>2019-07-16T11:50:48Z</time>
      </trkpt>
      <trkpt lat="44.02598" lon="6.87135">
        <ele>1327</ele>
        <time>2019-07-16T11:50:50Z</time>
      </trkpt>
      <trkpt lat="44.02603" lon="6.87131">
        <ele>1326.5</ele>
        <time>2019-07-16T11:50:52Z</time>
      </trkpt>
      <trkpt lat="44.02607" lon="6.87126">
        <ele>1325.9</ele>
        <time>2019-07-16T11:50:54Z</time>
      </trkpt>
      <trkpt lat="44.02608" lon="6.8712">
        <ele>1325.4</ele>
        <time>2019-07-16T11:50:56Z</time>
      </trkpt>
      <trkpt lat="44.0261" lon="6.87115">
        <ele>1325</ele>
        <time>2019-07-16T11:50:58Z</time>
      </trkpt>
      <trkpt lat="44.02612" lon="6.87111">
        <ele>1324.7</ele>
        <time>2019-07-16T11:51:00Z</time>
      </trkpt>
      <trkpt lat="44.02615" lon="6.87108">
        <ele>1324.4</ele>
        <time>2019-07-16T11:51:03Z</time>
      </trkpt>
      <trkpt lat="44.02616" lon="6.87101">
        <ele>1324</ele>
        <time>2019-07-16T11:51:05Z</time>
      </trkpt>
      <trkpt lat="44.02618" lon="6.87096">
        <ele>1323.7</ele>
        <time>2019-07-16T11:51:07Z</time>
      </trkpt>
      <trkpt lat="44.02618" lon="6.87089">
        <ele>1323.4</ele>
        <time>2019-07-16T11:51:09Z</time>
      </trkpt>
      <trkpt lat="44.02619" lon="6.87086">
        <ele>1323.2</ele>
        <time>2019-07-16T11:51:10Z</time>
      </trkpt>
      <trkpt lat="44.02621" lon="6.87083">
        <ele>1323</ele>
        <time>2019-07-16T11:51:11Z</time>
      </trkpt>
      <trkpt lat="44.02623" lon="6.87077">
        <ele>1322.6</ele>
        <time>2019-07-16T11:51:13Z</time>
      </trkpt>
      <trkpt lat="44.02624" lon="6.8707">
        <ele>1322.2</ele>
        <time>2019-07-16T11:51:15Z</time>
      </trkpt>
      <trkpt lat="44.02627" lon="6.87067">
        <ele>1321.9</ele>
        <time>2019-07-16T11:51:17Z</time>
      </trkpt>
      <trkpt lat="44.0263" lon="6.87065">
        <ele>1321.5</ele>
        <time>2019-07-16T11:51:20Z</time>
      </trkpt>
      <trkpt lat="44.02632" lon="6.87061">
        <ele>1321.2</ele>
        <time>2019-07-16T11:51:22Z</time>
      </trkpt>
      <trkpt lat="44.02632" lon="6.87055">
        <ele>1320.8</ele>
        <time>2019-07-16T11:51:24Z</time>
      </trkpt>
      <trkpt lat="44.02631" lon="6.87049">
        <ele>1320.4</ele>
        <time>2019-07-16T11:51:26Z</time>
      </trkpt>
      <trkpt lat="44.02629" lon="6.87046">
        <ele>1320.2</ele>
        <time>2019-07-16T11:51:28Z</time>
      </trkpt>
      <trkpt lat="44.02627" lon="6.87042">
        <ele>1319.9</ele>
        <time>2019-07-16T11:51:30Z</time>
      </trkpt>
      <trkpt lat="44.02625" lon="6.87039">
        <ele>1319.6</ele>
        <time>2019-07-16T11:51:33Z</time>
      </trkpt>
      <trkpt lat="44.02623" lon="6.87035">
        <ele>1319.1</ele>
        <time>2019-07-16T11:51:35Z</time>
      </trkpt>
      <trkpt lat="44.02622" lon="6.87031">
        <ele>1318.8</ele>
        <time>2019-07-16T11:51:36Z</time>
      </trkpt>
      <trkpt lat="44.0262" lon="6.87027">
        <ele>1318.4</ele>
        <time>2019-07-16T11:51:37Z</time>
      </trkpt>
      <trkpt lat="44.02618" lon="6.87022">
        <ele>1318</ele>
        <time>2019-07-16T11:51:38Z</time>
      </trkpt>
      <trkpt lat="44.02618" lon="6.87018">
        <ele>1317.8</ele>
        <time>2019-07-16T11:51:39Z</time>
      </trkpt>
      <trkpt lat="44.02621" lon="6.8702">
        <ele>1317.5</ele>
        <time>2019-07-16T11:51:51Z</time>
      </trkpt>
      <trkpt lat="44.02624" lon="6.87018">
        <ele>1317.2</ele>
        <time>2019-07-16T11:52:01Z</time>
      </trkpt>
      <trkpt lat="44.02626" lon="6.87012">
        <ele>1316.9</ele>
        <time>2019-07-16T11:52:03Z</time>
      </trkpt>
      <trkpt lat="44.02628" lon="6.87009">
        <ele>1316.8</ele>
        <time>2019-07-16T11:52:04Z</time>
      </trkpt>
      <trkpt lat="44.02629" lon="6.87005">
        <ele>1316.6</ele>
        <time>2019-07-16T11:52:07Z</time>
      </trkpt>
      <trkpt lat="44.0263" lon="6.87001">
        <ele>1316.5</ele>
        <time>2019-07-16T11:52:12Z</time>
      </trkpt>
      <trkpt lat="44.02631" lon="6.86998">
        <ele>1316.3</ele>
        <time>2019-07-16T11:52:27Z</time>
      </trkpt>
      <trkpt lat="44.02634" lon="6.86994">
        <ele>1316.1</ele>
        <time>2019-07-16T11:52:31Z</time>
      </trkpt>
      <trkpt lat="44.02635" lon="6.8699">
        <ele>1315.7</ele>
        <time>2019-07-16T11:52:35Z</time>
      </trkpt>
      <trkpt lat="44.02635" lon="6.86986">
        <ele>1315.3</ele>
        <time>2019-07-16T11:52:38Z</time>
      </trkpt>
      <trkpt lat="44.02635" lon="6.86981">
        <ele>1314.9</ele>
        <time>2019-07-16T11:52:43Z</time>
      </trkpt>
      <trkpt lat="44.02635" lon="6.86977">
        <ele>1314.6</ele>
        <time>2019-07-16T11:52:48Z</time>
      </trkpt>
      <trkpt lat="44.02635" lon="6.86973">
        <ele>1314.2</ele>
        <time>2019-07-16T11:52:54Z</time>
      </trkpt>
      <trkpt lat="44.02629" lon="6.86972">
        <ele>1313.6</ele>
        <time>2019-07-16T11:53:24Z</time>
      </trkpt>
      <trkpt lat="44.02626" lon="6.8697">
        <ele>1313.2</ele>
        <time>2019-07-16T11:53:27Z</time>
      </trkpt>
      <trkpt lat="44.02627" lon="6.86964">
        <ele>1312.1</ele>
        <time>2019-07-16T11:53:32Z</time>
      </trkpt>
      <trkpt lat="44.02628" lon="6.86961">
        <ele>1311.3</ele>
        <time>2019-07-16T11:53:33Z</time>
      </trkpt>
      <trkpt lat="44.02629" lon="6.86957">
        <ele>1310.4</ele>
        <time>2019-07-16T11:53:34Z</time>
      </trkpt>
      <trkpt lat="44.02631" lon="6.86953">
        <ele>1309.6</ele>
        <time>2019-07-16T11:53:35Z</time>
      </trkpt>
      <trkpt lat="44.02632" lon="6.86949">
        <ele>1308.9</ele>
        <time>2019-07-16T11:53:36Z</time>
      </trkpt>
      <trkpt lat="44.02633" lon="6.86944">
        <ele>1308.3</ele>
        <time>2019-07-16T11:53:37Z</time>
      </trkpt>
      <trkpt lat="44.02634" lon="6.8694">
        <ele>1307.9</ele>
        <time>2019-07-16T11:53:38Z</time>
      </trkpt>
      <trkpt lat="44.02635" lon="6.86937">
        <ele>1307.5</ele>
        <time>2019-07-16T11:53:39Z</time>
      </trkpt>
      <trkpt lat="44.02637" lon="6.8693">
        <ele>1306.9</ele>
        <time>2019-07-16T11:53:41Z</time>
      </trkpt>
      <trkpt lat="44.02638" lon="6.86923">
        <ele>1306.2</ele>
        <time>2019-07-16T11:53:43Z</time>
      </trkpt>
      <trkpt lat="44.0264" lon="6.86919">
        <ele>1305.7</ele>
        <time>2019-07-16T11:53:44Z</time>
      </trkpt>
      <trkpt lat="44.0264" lon="6.86913">
        <ele>1304.8</ele>
        <time>2019-07-16T11:53:46Z</time>
      </trkpt>
      <trkpt lat="44.0264" lon="6.86907">
        <ele>1303.8</ele>
        <time>2019-07-16T11:53:48Z</time>
      </trkpt>
      <trkpt lat="44.02642" lon="6.86903">
        <ele>1303.3</ele>
        <time>2019-07-16T11:53:51Z</time>
      </trkpt>
      <trkpt lat="44.02646" lon="6.86902">
        <ele>1302.6</ele>
        <time>2019-07-16T11:53:53Z</time>
      </trkpt>
      <trkpt lat="44.02647" lon="6.86896">
        <ele>1301.8</ele>
        <time>2019-07-16T11:53:55Z</time>
      </trkpt>
      <trkpt lat="44.02647" lon="6.86892">
        <ele>1301.1</ele>
        <time>2019-07-16T11:53:56Z</time>
      </trkpt>
      <trkpt lat="44.02646" lon="6.86887">
        <ele>1300.3</ele>
        <time>2019-07-16T11:53:58Z</time>
      </trkpt>
      <trkpt lat="44.02644" lon="6.86884">
        <ele>1299.6</ele>
        <time>2019-07-16T11:54:00Z</time>
      </trkpt>
      <trkpt lat="44.02642" lon="6.86879">
        <ele>1298.6</ele>
        <time>2019-07-16T11:54:04Z</time>
      </trkpt>
      <trkpt lat="44.02643" lon="6.86873">
        <ele>1297.6</ele>
        <time>2019-07-16T11:54:06Z</time>
      </trkpt>
      <trkpt lat="44.02644" lon="6.86865">
        <ele>1296.3</ele>
        <time>2019-07-16T11:54:08Z</time>
      </trkpt>
      <trkpt lat="44.02644" lon="6.86862">
        <ele>1295.7</ele>
        <time>2019-07-16T11:54:09Z</time>
      </trkpt>
      <trkpt lat="44.02644" lon="6.86858">
        <ele>1295.2</ele>
        <time>2019-07-16T11:54:10Z</time>
      </trkpt>
      <trkpt lat="44.02644" lon="6.86852">
        <ele>1294.5</ele>
        <time>2019-07-16T11:54:11Z</time>
      </trkpt>
      <trkpt lat="44.02643" lon="6.86847">
        <ele>1293.8</ele>
        <time>2019-07-16T11:54:12Z</time>
      </trkpt>
      <trkpt lat="44.02643" lon="6.86843">
        <ele>1293.3</ele>
        <time>2019-07-16T11:54:13Z</time>
      </trkpt>
      <trkpt lat="44.0264" lon="6.86837">
        <ele>1292.6</ele>
        <time>2019-07-16T11:54:15Z</time>
      </trkpt>
      <trkpt lat="44.0264" lon="6.8683">
        <ele>1291.7</ele>
        <time>2019-07-16T11:54:17Z</time>
      </trkpt>
      <trkpt lat="44.02641" lon="6.86822">
        <ele>1290.8</ele>
        <time>2019-07-16T11:54:19Z</time>
      </trkpt>
      <trkpt lat="44.02642" lon="6.86817">
        <ele>1290.2</ele>
        <time>2019-07-16T11:54:20Z</time>
      </trkpt>
      <trkpt lat="44.02642" lon="6.86813">
        <ele>1289.7</ele>
        <time>2019-07-16T11:54:21Z</time>
      </trkpt>
      <trkpt lat="44.02642" lon="6.86808">
        <ele>1289.3</ele>
        <time>2019-07-16T11:54:22Z</time>
      </trkpt>
      <trkpt lat="44.02642" lon="6.86803">
        <ele>1288.9</ele>
        <time>2019-07-16T11:54:23Z</time>
      </trkpt>
      <trkpt lat="44.02643" lon="6.86798">
        <ele>1288.6</ele>
        <time>2019-07-16T11:54:24Z</time>
      </trkpt>
      <trkpt lat="44.02643" lon="6.86794">
        <ele>1288.3</ele>
        <time>2019-07-16T11:54:25Z</time>
      </trkpt>
      <trkpt lat="44.02643" lon="6.86786">
        <ele>1287.8</ele>
        <time>2019-07-16T11:54:27Z</time>
      </trkpt>
      <trkpt lat="44.02643" lon="6.86782">
        <ele>1287.5</ele>
        <time>2019-07-16T11:54:28Z</time>
      </trkpt>
      <trkpt lat="44.02642" lon="6.86778">
        <ele>1287.3</ele>
        <time>2019-07-16T11:54:29Z</time>
      </trkpt>
      <trkpt lat="44.0264" lon="6.86772">
        <ele>1286.9</ele>
        <time>2019-07-16T11:54:31Z</time>
      </trkpt>
      <trkpt lat="44.02638" lon="6.86769">
        <ele>1286.7</ele>
        <time>2019-07-16T11:54:32Z</time>
      </trkpt>
      <trkpt lat="44.02634" lon="6.86763">
        <ele>1286.3</ele>
        <time>2019-07-16T11:54:34Z</time>
      </trkpt>
      <trkpt lat="44.02633" lon="6.86759">
        <ele>1286</ele>
        <time>2019-07-16T11:54:35Z</time>
      </trkpt>
      <trkpt lat="44.02633" lon="6.86753">
        <ele>1285.7</ele>
        <time>2019-07-16T11:54:36Z</time>
      </trkpt>
      <trkpt lat="44.02633" lon="6.86749">
        <ele>1285.3</ele>
        <time>2019-07-16T11:54:37Z</time>
      </trkpt>
      <trkpt lat="44.02632" lon="6.86745">
        <ele>1285</ele>
        <time>2019-07-16T11:54:38Z</time>
      </trkpt>
      <trkpt lat="44.0263" lon="6.86741">
        <ele>1284.7</ele>
        <time>2019-07-16T11:54:39Z</time>
      </trkpt>
      <trkpt lat="44.02627" lon="6.86736">
        <ele>1284.2</ele>
        <time>2019-07-16T11:54:40Z</time>
      </trkpt>
      <trkpt lat="44.02625" lon="6.8673">
        <ele>1283.7</ele>
        <time>2019-07-16T11:54:41Z</time>
      </trkpt>
      <trkpt lat="44.02623" lon="6.86726">
        <ele>1283.2</ele>
        <time>2019-07-16T11:54:42Z</time>
      </trkpt>
      <trkpt lat="44.0262" lon="6.86721">
        <ele>1282.7</ele>
        <time>2019-07-16T11:54:44Z</time>
      </trkpt>
      <trkpt lat="44.02618" lon="6.8672">
        <ele>1282.4</ele>
        <time>2019-07-16T11:54:48Z</time>
      </trkpt>
      <trkpt lat="44.02617" lon="6.86715">
        <ele>1282</ele>
        <time>2019-07-16T11:54:52Z</time>
      </trkpt>
      <trkpt lat="44.02614" lon="6.86712">
        <ele>1281.6</ele>
        <time>2019-07-16T11:54:55Z</time>
      </trkpt>
      <trkpt lat="44.02613" lon="6.86708">
        <ele>1281.2</ele>
        <time>2019-07-16T11:54:58Z</time>
      </trkpt>
      <trkpt lat="44.02615" lon="6.86703">
        <ele>1280.7</ele>
        <time>2019-07-16T11:55:08Z</time>
      </trkpt>
      <trkpt lat="44.02614" lon="6.86698">
        <ele>1280.2</ele>
        <time>2019-07-16T11:55:10Z</time>
      </trkpt>
      <trkpt lat="44.02613" lon="6.86694">
        <ele>1279.8</ele>
        <time>2019-07-16T11:55:12Z</time>
      </trkpt>
      <trkpt lat="44.02611" lon="6.86689">
        <ele>1279.3</ele>
        <time>2019-07-16T11:55:14Z</time>
      </trkpt>
      <trkpt lat="44.02609" lon="6.86683">
        <ele>1278.6</ele>
        <time>2019-07-16T11:55:16Z</time>
      </trkpt>
      <trkpt lat="44.02607" lon="6.86679">
        <ele>1278.3</ele>
        <time>2019-07-16T11:55:18Z</time>
      </trkpt>
      <trkpt lat="44.02606" lon="6.86675">
        <ele>1278</ele>
        <time>2019-07-16T11:55:20Z</time>
      </trkpt>
      <trkpt lat="44.02604" lon="6.86672">
        <ele>1277.7</ele>
        <time>2019-07-16T11:55:22Z</time>
      </trkpt>
      <trkpt lat="44.02601" lon="6.86669">
        <ele>1277.4</ele>
        <time>2019-07-16T11:55:24Z</time>
      </trkpt>
      <trkpt lat="44.02596" lon="6.86667">
        <ele>1277.2</ele>
        <time>2019-07-16T11:55:26Z</time>
      </trkpt>
      <trkpt lat="44.02594" lon="6.86666">
        <ele>1277.1</ele>
        <time>2019-07-16T11:55:27Z</time>
      </trkpt>
      <trkpt lat="44.02592" lon="6.86662">
        <ele>1277.1</ele>
        <time>2019-07-16T11:55:29Z</time>
      </trkpt>
      <trkpt lat="44.02591" lon="6.86658">
        <ele>1277</ele>
        <time>2019-07-16T11:55:35Z</time>
      </trkpt>
      <trkpt lat="44.02589" lon="6.86655">
        <ele>1277</ele>
        <time>2019-07-16T11:55:45Z</time>
      </trkpt>
      <trkpt lat="44.02587" lon="6.86652">
        <ele>1277</ele>
        <time>2019-07-16T11:55:51Z</time>
      </trkpt>
      <trkpt lat="44.02584" lon="6.86646">
        <ele>1277</ele>
        <time>2019-07-16T11:55:53Z</time>
      </trkpt>
      <trkpt lat="44.02582" lon="6.86643">
        <ele>1277</ele>
        <time>2019-07-16T11:55:55Z</time>
      </trkpt>
      <trkpt lat="44.0258" lon="6.86641">
        <ele>1277.1</ele>
        <time>2019-07-16T11:55:57Z</time>
      </trkpt>
      <trkpt lat="44.02577" lon="6.86638">
        <ele>1277.2</ele>
        <time>2019-07-16T11:55:59Z</time>
      </trkpt>
      <trkpt lat="44.02575" lon="6.86634">
        <ele>1277.4</ele>
        <time>2019-07-16T11:56:01Z</time>
      </trkpt>
      <trkpt lat="44.02573" lon="6.86629">
        <ele>1277.6</ele>
        <time>2019-07-16T11:56:03Z</time>
      </trkpt>
      <trkpt lat="44.02571" lon="6.86625">
        <ele>1277.8</ele>
        <time>2019-07-16T11:56:05Z</time>
      </trkpt>
      <trkpt lat="44.02569" lon="6.86621">
        <ele>1277.9</ele>
        <time>2019-07-16T11:56:07Z</time>
      </trkpt>
      <trkpt lat="44.02567" lon="6.86616">
        <ele>1278.1</ele>
        <time>2019-07-16T11:56:09Z</time>
      </trkpt>
      <trkpt lat="44.02565" lon="6.86611">
        <ele>1278.2</ele>
        <time>2019-07-16T11:56:11Z</time>
      </trkpt>
      <trkpt lat="44.02562" lon="6.86607">
        <ele>1278.4</ele>
        <time>2019-07-16T11:56:13Z</time>
      </trkpt>
      <trkpt lat="44.0256" lon="6.86604">
        <ele>1278.5</ele>
        <time>2019-07-16T11:56:15Z</time>
      </trkpt>
      <trkpt lat="44.02557" lon="6.86603">
        <ele>1278.6</ele>
        <time>2019-07-16T11:56:18Z</time>
      </trkpt>
      <trkpt lat="44.02554" lon="6.86602">
        <ele>1278.8</ele>
        <time>2019-07-16T11:56:20Z</time>
      </trkpt>
      <trkpt lat="44.02552" lon="6.86599">
        <ele>1279</ele>
        <time>2019-07-16T11:56:26Z</time>
      </trkpt>
      <trkpt lat="44.0255" lon="6.86596">
        <ele>1279.1</ele>
        <time>2019-07-16T11:56:31Z</time>
      </trkpt>
      <trkpt lat="44.02547" lon="6.86596">
        <ele>1279.3</ele>
        <time>2019-07-16T11:56:34Z</time>
      </trkpt>
      <trkpt lat="44.02545" lon="6.86592">
        <ele>1279.4</ele>
        <time>2019-07-16T11:56:45Z</time>
      </trkpt>
      <trkpt lat="44.02544" lon="6.86588">
        <ele>1279.5</ele>
        <time>2019-07-16T11:56:47Z</time>
      </trkpt>
      <trkpt lat="44.02544" lon="6.86583">
        <ele>1279.6</ele>
        <time>2019-07-16T11:56:49Z</time>
      </trkpt>
      <trkpt lat="44.02545" lon="6.8658">
        <ele>1279.8</ele>
        <time>2019-07-16T11:56:51Z</time>
      </trkpt>
      <trkpt lat="44.02547" lon="6.86575">
        <ele>1279.9</ele>
        <time>2019-07-16T11:56:54Z</time>
      </trkpt>
      <trkpt lat="44.02549" lon="6.86571">
        <ele>1280.1</ele>
        <time>2019-07-16T11:56:57Z</time>
      </trkpt>
      <trkpt lat="44.02551" lon="6.86566">
        <ele>1280.4</ele>
        <time>2019-07-16T11:56:59Z</time>
      </trkpt>
      <trkpt lat="44.02553" lon="6.86562">
        <ele>1280.6</ele>
        <time>2019-07-16T11:57:01Z</time>
      </trkpt>
      <trkpt lat="44.02553" lon="6.86557">
        <ele>1280.9</ele>
        <time>2019-07-16T11:57:04Z</time>
      </trkpt>
      <trkpt lat="44.02553" lon="6.86552">
        <ele>1281.2</ele>
        <time>2019-07-16T11:57:06Z</time>
      </trkpt>
      <trkpt lat="44.02554" lon="6.86548">
        <ele>1281.5</ele>
        <time>2019-07-16T11:57:08Z</time>
      </trkpt>
      <trkpt lat="44.02554" lon="6.86544">
        <ele>1281.7</ele>
        <time>2019-07-16T11:57:10Z</time>
      </trkpt>
      <trkpt lat="44.02557" lon="6.8654">
        <ele>1282</ele>
        <time>2019-07-16T11:57:12Z</time>
      </trkpt>
      <trkpt lat="44.02558" lon="6.86535">
        <ele>1282.3</ele>
        <time>2019-07-16T11:57:14Z</time>
      </trkpt>
      <trkpt lat="44.0256" lon="6.8653">
        <ele>1282.6</ele>
        <time>2019-07-16T11:57:16Z</time>
      </trkpt>
      <trkpt lat="44.02562" lon="6.86526">
        <ele>1282.9</ele>
        <time>2019-07-16T11:57:18Z</time>
      </trkpt>
      <trkpt lat="44.02563" lon="6.86522">
        <ele>1283.2</ele>
        <time>2019-07-16T11:57:20Z</time>
      </trkpt>
      <trkpt lat="44.02566" lon="6.86518">
        <ele>1283.6</ele>
        <time>2019-07-16T11:57:23Z</time>
      </trkpt>
      <trkpt lat="44.02567" lon="6.86514">
        <ele>1283.9</ele>
        <time>2019-07-16T11:57:28Z</time>
      </trkpt>
      <trkpt lat="44.02564" lon="6.86511">
        <ele>1284.3</ele>
        <time>2019-07-16T11:57:38Z</time>
      </trkpt>
      <trkpt lat="44.02565" lon="6.86515">
        <ele>1284.6</ele>
        <time>2019-07-16T11:57:45Z</time>
      </trkpt>
      <trkpt lat="44.02562" lon="6.86517">
        <ele>1284.8</ele>
        <time>2019-07-16T11:57:54Z</time>
      </trkpt>
      <trkpt lat="44.0256" lon="6.86521">
        <ele>1285.2</ele>
        <time>2019-07-16T11:58:03Z</time>
      </trkpt>
      <trkpt lat="44.02558" lon="6.86527">
        <ele>1285.6</ele>
        <time>2019-07-16T11:58:08Z</time>
      </trkpt>
      <trkpt lat="44.02558" lon="6.86533">
        <ele>1286.1</ele>
        <time>2019-07-16T11:58:11Z</time>
      </trkpt>
      <trkpt lat="44.02556" lon="6.86537">
        <ele>1286.6</ele>
        <time>2019-07-16T11:58:14Z</time>
      </trkpt>
      <trkpt lat="44.02554" lon="6.8654">
        <ele>1287</ele>
        <time>2019-07-16T11:58:17Z</time>
      </trkpt>
      <trkpt lat="44.02556" lon="6.86537">
        <ele>1287.3</ele>
        <time>2019-07-16T11:59:11Z</time>
      </trkpt>
      <trkpt lat="44.02558" lon="6.86534">
        <ele>1287.7</ele>
        <time>2019-07-16T11:59:16Z</time>
      </trkpt>
      <trkpt lat="44.0256" lon="6.86527">
        <ele>1288.1</ele>
        <time>2019-07-16T11:59:21Z</time>
      </trkpt>
      <trkpt lat="44.02561" lon="6.86524">
        <ele>1288.3</ele>
        <time>2019-07-16T11:59:24Z</time>
      </trkpt>
      <trkpt lat="44.02563" lon="6.8652">
        <ele>1288.6</ele>
        <time>2019-07-16T11:59:28Z</time>
      </trkpt>
      <trkpt lat="44.02565" lon="6.86517">
        <ele>1289.2</ele>
        <time>2019-07-16T11:59:32Z</time>
      </trkpt>
      <trkpt lat="44.02566" lon="6.86513">
        <ele>1289.4</ele>
        <time>2019-07-16T11:59:35Z</time>
      </trkpt>
      <trkpt lat="44.0257" lon="6.86512">
        <ele>1289.5</ele>
        <time>2019-07-16T11:59:44Z</time>
      </trkpt>
      <trkpt lat="44.02568" lon="6.86508">
        <ele>1289.5</ele>
        <time>2019-07-16T11:59:48Z</time>
      </trkpt>
      <trkpt lat="44.02575" lon="6.86507">
        <ele>1289.6</ele>
        <time>2019-07-16T12:03:21Z</time>
      </trkpt>
      <trkpt lat="44.02578" lon="6.86505">
        <ele>1289.6</ele>
        <time>2019-07-16T12:03:23Z</time>
      </trkpt>
      <trkpt lat="44.02582" lon="6.86503">
        <ele>1289.4</ele>
        <time>2019-07-16T12:03:25Z</time>
      </trkpt>
      <trkpt lat="44.02585" lon="6.86502">
        <ele>1289.3</ele>
        <time>2019-07-16T12:03:26Z</time>
      </trkpt>
      <trkpt lat="44.02589" lon="6.86502">
        <ele>1289.1</ele>
        <time>2019-07-16T12:03:27Z</time>
      </trkpt>
      <trkpt lat="44.02592" lon="6.86501">
        <ele>1288.8</ele>
        <time>2019-07-16T12:03:28Z</time>
      </trkpt>
      <trkpt lat="44.02595" lon="6.86501">
        <ele>1288.6</ele>
        <time>2019-07-16T12:03:29Z</time>
      </trkpt>
      <trkpt lat="44.02599" lon="6.86498">
        <ele>1288.2</ele>
        <time>2019-07-16T12:03:31Z</time>
      </trkpt>
      <trkpt lat="44.02602" lon="6.86498">
        <ele>1287.8</ele>
        <time>2019-07-16T12:03:33Z</time>
      </trkpt>
      <trkpt lat="44.02607" lon="6.86497">
        <ele>1287.3</ele>
        <time>2019-07-16T12:03:35Z</time>
      </trkpt>
      <trkpt lat="44.02611" lon="6.86495">
        <ele>1286.7</ele>
        <time>2019-07-16T12:03:37Z</time>
      </trkpt>
      <trkpt lat="44.02616" lon="6.86498">
        <ele>1286.1</ele>
        <time>2019-07-16T12:03:39Z</time>
      </trkpt>
      <trkpt lat="44.02621" lon="6.865">
        <ele>1285.4</ele>
        <time>2019-07-16T12:03:41Z</time>
      </trkpt>
      <trkpt lat="44.02625" lon="6.86501">
        <ele>1284.8</ele>
        <time>2019-07-16T12:03:43Z</time>
      </trkpt>
      <trkpt lat="44.02629" lon="6.86501">
        <ele>1284.2</ele>
        <time>2019-07-16T12:03:44Z</time>
      </trkpt>
      <trkpt lat="44.02631" lon="6.865">
        <ele>1283.8</ele>
        <time>2019-07-16T12:03:45Z</time>
      </trkpt>
      <trkpt lat="44.02635" lon="6.865">
        <ele>1283.3</ele>
        <time>2019-07-16T12:03:47Z</time>
      </trkpt>
      <trkpt lat="44.0264" lon="6.86502">
        <ele>1282.6</ele>
        <time>2019-07-16T12:03:49Z</time>
      </trkpt>
      <trkpt lat="44.02643" lon="6.86504">
        <ele>1282.2</ele>
        <time>2019-07-16T12:03:50Z</time>
      </trkpt>
      <trkpt lat="44.02646" lon="6.86506">
        <ele>1281.7</ele>
        <time>2019-07-16T12:03:51Z</time>
      </trkpt>
      <trkpt lat="44.02651" lon="6.86509">
        <ele>1280.8</ele>
        <time>2019-07-16T12:03:53Z</time>
      </trkpt>
      <trkpt lat="44.02654" lon="6.8651">
        <ele>1280.3</ele>
        <time>2019-07-16T12:03:54Z</time>
      </trkpt>
      <trkpt lat="44.02657" lon="6.86512">
        <ele>1279.8</ele>
        <time>2019-07-16T12:03:55Z</time>
      </trkpt>
      <trkpt lat="44.0266" lon="6.86515">
        <ele>1279.1</ele>
        <time>2019-07-16T12:03:56Z</time>
      </trkpt>
      <trkpt lat="44.02663" lon="6.86517">
        <ele>1278.6</ele>
        <time>2019-07-16T12:03:57Z</time>
      </trkpt>
      <trkpt lat="44.02666" lon="6.86518">
        <ele>1278</ele>
        <time>2019-07-16T12:03:58Z</time>
      </trkpt>
      <trkpt lat="44.02668" lon="6.8652">
        <ele>1277.5</ele>
        <time>2019-07-16T12:03:59Z</time>
      </trkpt>
      <trkpt lat="44.02671" lon="6.86522">
        <ele>1277</ele>
        <time>2019-07-16T12:04:00Z</time>
      </trkpt>
      <trkpt lat="44.02675" lon="6.86524">
        <ele>1276.3</ele>
        <time>2019-07-16T12:04:02Z</time>
      </trkpt>
      <trkpt lat="44.02681" lon="6.86527">
        <ele>1275.2</ele>
        <time>2019-07-16T12:04:04Z</time>
      </trkpt>
      <trkpt lat="44.02684" lon="6.86528">
        <ele>1274.6</ele>
        <time>2019-07-16T12:04:05Z</time>
      </trkpt>
      <trkpt lat="44.02687" lon="6.8653">
        <ele>1273.9</ele>
        <time>2019-07-16T12:04:06Z</time>
      </trkpt>
      <trkpt lat="44.02691" lon="6.86533">
        <ele>1272.9</ele>
        <time>2019-07-16T12:04:08Z</time>
      </trkpt>
      <trkpt lat="44.02696" lon="6.86535">
        <ele>1271.8</ele>
        <time>2019-07-16T12:04:10Z</time>
      </trkpt>
      <trkpt lat="44.02699" lon="6.86534">
        <ele>1271.2</ele>
        <time>2019-07-16T12:04:11Z</time>
      </trkpt>
      <trkpt lat="44.02702" lon="6.86535">
        <ele>1270.5</ele>
        <time>2019-07-16T12:04:12Z</time>
      </trkpt>
      <trkpt lat="44.02705" lon="6.86536">
        <ele>1269.7</ele>
        <time>2019-07-16T12:04:13Z</time>
      </trkpt>
      <trkpt lat="44.02708" lon="6.86537">
        <ele>1268.8</ele>
        <time>2019-07-16T12:04:14Z</time>
      </trkpt>
      <trkpt lat="44.02712" lon="6.86538">
        <ele>1268.1</ele>
        <time>2019-07-16T12:04:15Z</time>
      </trkpt>
      <trkpt lat="44.02714" lon="6.86539">
        <ele>1267.5</ele>
        <time>2019-07-16T12:04:16Z</time>
      </trkpt>
      <trkpt lat="44.02718" lon="6.86541">
        <ele>1266.8</ele>
        <time>2019-07-16T12:04:17Z</time>
      </trkpt>
      <trkpt lat="44.02721" lon="6.86543">
        <ele>1266.1</ele>
        <time>2019-07-16T12:04:18Z</time>
      </trkpt>
      <trkpt lat="44.02724" lon="6.86544">
        <ele>1265.2</ele>
        <time>2019-07-16T12:04:19Z</time>
      </trkpt>
      <trkpt lat="44.02727" lon="6.86547">
        <ele>1264.4</ele>
        <time>2019-07-16T12:04:20Z</time>
      </trkpt>
      <trkpt lat="44.0273" lon="6.86551">
        <ele>1263.7</ele>
        <time>2019-07-16T12:04:21Z</time>
      </trkpt>
      <trkpt lat="44.02731" lon="6.86554">
        <ele>1263</ele>
        <time>2019-07-16T12:04:22Z</time>
      </trkpt>
      <trkpt lat="44.02735" lon="6.8656">
        <ele>1261.8</ele>
        <time>2019-07-16T12:04:24Z</time>
      </trkpt>
      <trkpt lat="44.02737" lon="6.86564">
        <ele>1261.1</ele>
        <time>2019-07-16T12:04:25Z</time>
      </trkpt>
      <trkpt lat="44.02739" lon="6.86569">
        <ele>1260.4</ele>
        <time>2019-07-16T12:04:26Z</time>
      </trkpt>
      <trkpt lat="44.0274" lon="6.86573">
        <ele>1259.7</ele>
        <time>2019-07-16T12:04:27Z</time>
      </trkpt>
      <trkpt lat="44.02742" lon="6.86577">
        <ele>1259.1</ele>
        <time>2019-07-16T12:04:28Z</time>
      </trkpt>
      <trkpt lat="44.02744" lon="6.86584">
        <ele>1257.9</ele>
        <time>2019-07-16T12:04:30Z</time>
      </trkpt>
      <trkpt lat="44.02746" lon="6.86586">
        <ele>1257.2</ele>
        <time>2019-07-16T12:04:31Z</time>
      </trkpt>
      <trkpt lat="44.02749" lon="6.86589">
        <ele>1256.5</ele>
        <time>2019-07-16T12:04:32Z</time>
      </trkpt>
      <trkpt lat="44.02754" lon="6.86591">
        <ele>1255.2</ele>
        <time>2019-07-16T12:04:34Z</time>
      </trkpt>
      <trkpt lat="44.02757" lon="6.86593">
        <ele>1254.4</ele>
        <time>2019-07-16T12:04:35Z</time>
      </trkpt>
      <trkpt lat="44.0276" lon="6.86595">
        <ele>1253.7</ele>
        <time>2019-07-16T12:04:36Z</time>
      </trkpt>
      <trkpt lat="44.02762" lon="6.86595">
        <ele>1253</ele>
        <time>2019-07-16T12:04:37Z</time>
      </trkpt>
      <trkpt lat="44.02766" lon="6.86597">
        <ele>1252.2</ele>
        <time>2019-07-16T12:04:38Z</time>
      </trkpt>
      <trkpt lat="44.02769" lon="6.86598">
        <ele>1251.3</ele>
        <time>2019-07-16T12:04:39Z</time>
      </trkpt>
      <trkpt lat="44.02773" lon="6.866">
        <ele>1250.3</ele>
        <time>2019-07-16T12:04:41Z</time>
      </trkpt>
      <trkpt lat="44.02779" lon="6.86601">
        <ele>1249.3</ele>
        <time>2019-07-16T12:04:43Z</time>
      </trkpt>
      <trkpt lat="44.02783" lon="6.86602">
        <ele>1248</ele>
        <time>2019-07-16T12:04:45Z</time>
      </trkpt>
      <trkpt lat="44.02788" lon="6.86603">
        <ele>1246.9</ele>
        <time>2019-07-16T12:04:47Z</time>
      </trkpt>
      <trkpt lat="44.02791" lon="6.86605">
        <ele>1246.2</ele>
        <time>2019-07-16T12:04:48Z</time>
      </trkpt>
      <trkpt lat="44.02793" lon="6.86606">
        <ele>1245.6</ele>
        <time>2019-07-16T12:04:49Z</time>
      </trkpt>
      <trkpt lat="44.02796" lon="6.86609">
        <ele>1244.9</ele>
        <time>2019-07-16T12:04:50Z</time>
      </trkpt>
      <trkpt lat="44.02799" lon="6.86611">
        <ele>1244.2</ele>
        <time>2019-07-16T12:04:51Z</time>
      </trkpt>
      <trkpt lat="44.02802" lon="6.86613">
        <ele>1243.4</ele>
        <time>2019-07-16T12:04:52Z</time>
      </trkpt>
      <trkpt lat="44.02804" lon="6.86615">
        <ele>1242.7</ele>
        <time>2019-07-16T12:04:53Z</time>
      </trkpt>
      <trkpt lat="44.02807" lon="6.86615">
        <ele>1242</ele>
        <time>2019-07-16T12:04:54Z</time>
      </trkpt>
      <trkpt lat="44.02811" lon="6.86616">
        <ele>1241.2</ele>
        <time>2019-07-16T12:04:55Z</time>
      </trkpt>
      <trkpt lat="44.02815" lon="6.86617">
        <ele>1240.3</ele>
        <time>2019-07-16T12:04:56Z</time>
      </trkpt>
      <trkpt lat="44.02819" lon="6.86619">
        <ele>1239.5</ele>
        <time>2019-07-16T12:04:57Z</time>
      </trkpt>
      <trkpt lat="44.02822" lon="6.8662">
        <ele>1238.9</ele>
        <time>2019-07-16T12:04:58Z</time>
      </trkpt>
      <trkpt lat="44.02825" lon="6.86621">
        <ele>1238.2</ele>
        <time>2019-07-16T12:04:59Z</time>
      </trkpt>
      <trkpt lat="44.02829" lon="6.86621">
        <ele>1237.1</ele>
        <time>2019-07-16T12:05:01Z</time>
      </trkpt>
      <trkpt lat="44.02833" lon="6.86621">
        <ele>1236.3</ele>
        <time>2019-07-16T12:05:03Z</time>
      </trkpt>
      <trkpt lat="44.02838" lon="6.86621">
        <ele>1235</ele>
        <time>2019-07-16T12:05:05Z</time>
      </trkpt>
      <trkpt lat="44.02842" lon="6.86618">
        <ele>1234</ele>
        <time>2019-07-16T12:05:07Z</time>
      </trkpt>
      <trkpt lat="44.02845" lon="6.86614">
        <ele>1233</ele>
        <time>2019-07-16T12:05:09Z</time>
      </trkpt>
      <trkpt lat="44.02849" lon="6.8661">
        <ele>1231.9</ele>
        <time>2019-07-16T12:05:11Z</time>
      </trkpt>
      <trkpt lat="44.02851" lon="6.86607">
        <ele>1231.5</ele>
        <time>2019-07-16T12:05:12Z</time>
      </trkpt>
      <trkpt lat="44.02853" lon="6.86603">
        <ele>1230.8</ele>
        <time>2019-07-16T12:05:13Z</time>
      </trkpt>
      <trkpt lat="44.02855" lon="6.86599">
        <ele>1230.1</ele>
        <time>2019-07-16T12:05:14Z</time>
      </trkpt>
      <trkpt lat="44.02858" lon="6.86603">
        <ele>1229.2</ele>
        <time>2019-07-16T12:05:48Z</time>
      </trkpt>
      <trkpt lat="44.02861" lon="6.86605">
        <ele>1228.4</ele>
        <time>2019-07-16T12:05:50Z</time>
      </trkpt>
      <trkpt lat="44.02865" lon="6.86611">
        <ele>1227.9</ele>
        <time>2019-07-16T12:05:52Z</time>
      </trkpt>
      <trkpt lat="44.02867" lon="6.86614">
        <ele>1227.8</ele>
        <time>2019-07-16T12:05:53Z</time>
      </trkpt>
      <trkpt lat="44.0287" lon="6.86618">
        <ele>1227.6</ele>
        <time>2019-07-16T12:05:54Z</time>
      </trkpt>
      <trkpt lat="44.02874" lon="6.86622">
        <ele>1227.6</ele>
        <time>2019-07-16T12:05:55Z</time>
      </trkpt>
      <trkpt lat="44.02877" lon="6.86624">
        <ele>1227.6</ele>
        <time>2019-07-16T12:05:56Z</time>
      </trkpt>
      <trkpt lat="44.0288" lon="6.86626">
        <ele>1227.6</ele>
        <time>2019-07-16T12:05:57Z</time>
      </trkpt>
      <trkpt lat="44.02883" lon="6.86629">
        <ele>1227.6</ele>
        <time>2019-07-16T12:05:58Z</time>
      </trkpt>
      <trkpt lat="44.02885" lon="6.86632">
        <ele>1227.7</ele>
        <time>2019-07-16T12:05:59Z</time>
      </trkpt>
      <trkpt lat="44.02888" lon="6.86636">
        <ele>1227.8</ele>
        <time>2019-07-16T12:06:00Z</time>
      </trkpt>
      <trkpt lat="44.0289" lon="6.86638">
        <ele>1227.9</ele>
        <time>2019-07-16T12:06:01Z</time>
      </trkpt>
      <trkpt lat="44.02894" lon="6.8664">
        <ele>1228.1</ele>
        <time>2019-07-16T12:06:03Z</time>
      </trkpt>
      <trkpt lat="44.02897" lon="6.86638">
        <ele>1228.2</ele>
        <time>2019-07-16T12:06:05Z</time>
      </trkpt>
      <trkpt lat="44.02897" lon="6.86642">
        <ele>1228.4</ele>
        <time>2019-07-16T12:06:09Z</time>
      </trkpt>
      <trkpt lat="44.02901" lon="6.86638">
        <ele>1228.6</ele>
        <time>2019-07-16T12:06:43Z</time>
      </trkpt>
      <trkpt lat="44.02903" lon="6.86634">
        <ele>1228.7</ele>
        <time>2019-07-16T12:06:44Z</time>
      </trkpt>
      <trkpt lat="44.02904" lon="6.8663">
        <ele>1228.9</ele>
        <time>2019-07-16T12:06:45Z</time>
      </trkpt>
      <trkpt lat="44.02905" lon="6.86627">
        <ele>1229.1</ele>
        <time>2019-07-16T12:06:46Z</time>
      </trkpt>
      <trkpt lat="44.02907" lon="6.86623">
        <ele>1229.3</ele>
        <time>2019-07-16T12:06:47Z</time>
      </trkpt>
      <trkpt lat="44.02909" lon="6.8662">
        <ele>1229.5</ele>
        <time>2019-07-16T12:06:48Z</time>
      </trkpt>
      <trkpt lat="44.02912" lon="6.86615">
        <ele>1229.7</ele>
        <time>2019-07-16T12:06:50Z</time>
      </trkpt>
      <trkpt lat="44.02915" lon="6.86613">
        <ele>1229.8</ele>
        <time>2019-07-16T12:06:52Z</time>
      </trkpt>
      <trkpt lat="44.02918" lon="6.86612">
        <ele>1229.9</ele>
        <time>2019-07-16T12:06:54Z</time>
      </trkpt>
      <trkpt lat="44.02921" lon="6.86612">
        <ele>1229.9</ele>
        <time>2019-07-16T12:06:56Z</time>
      </trkpt>
      <trkpt lat="44.02927" lon="6.86613">
        <ele>1230</ele>
        <time>2019-07-16T12:06:58Z</time>
      </trkpt>
      <trkpt lat="44.02931" lon="6.86615">
        <ele>1230</ele>
        <time>2019-07-16T12:06:59Z</time>
      </trkpt>
      <trkpt lat="44.02935" lon="6.86617">
        <ele>1230</ele>
        <time>2019-07-16T12:07:00Z</time>
      </trkpt>
      <trkpt lat="44.02941" lon="6.8662">
        <ele>1230</ele>
        <time>2019-07-16T12:07:01Z</time>
      </trkpt>
      <trkpt lat="44.02945" lon="6.86621">
        <ele>1230</ele>
        <time>2019-07-16T12:07:02Z</time>
      </trkpt>
      <trkpt lat="44.02949" lon="6.86618">
        <ele>1230</ele>
        <time>2019-07-16T12:07:03Z</time>
      </trkpt>
      <trkpt lat="44.02951" lon="6.8661">
        <ele>1230</ele>
        <time>2019-07-16T12:07:04Z</time>
      </trkpt>
      <trkpt lat="44.02952" lon="6.86601">
        <ele>1230.1</ele>
        <time>2019-07-16T12:07:05Z</time>
      </trkpt>
      <trkpt lat="44.02952" lon="6.86593">
        <ele>1230.1</ele>
        <time>2019-07-16T12:07:06Z</time>
      </trkpt>
      <trkpt lat="44.02952" lon="6.86587">
        <ele>1230.2</ele>
        <time>2019-07-16T12:07:07Z</time>
      </trkpt>
      <trkpt lat="44.02953" lon="6.86582">
        <ele>1228.7</ele>
        <time>2019-07-16T12:07:09Z</time>
      </trkpt>
      <trkpt lat="44.02954" lon="6.86577">
        <ele>1227.9</ele>
        <time>2019-07-16T12:07:11Z</time>
      </trkpt>
      <trkpt lat="44.02954" lon="6.86573">
        <ele>1227.5</ele>
        <time>2019-07-16T12:07:13Z</time>
      </trkpt>
      <trkpt lat="44.02955" lon="6.86568">
        <ele>1226.9</ele>
        <time>2019-07-16T12:07:15Z</time>
      </trkpt>
      <trkpt lat="44.02957" lon="6.86564">
        <ele>1226.4</ele>
        <time>2019-07-16T12:07:17Z</time>
      </trkpt>
      <trkpt lat="44.0296" lon="6.86561">
        <ele>1225.8</ele>
        <time>2019-07-16T12:07:19Z</time>
      </trkpt>
      <trkpt lat="44.02962" lon="6.86559">
        <ele>1225.4</ele>
        <time>2019-07-16T12:07:21Z</time>
      </trkpt>
      <trkpt lat="44.02965" lon="6.86556">
        <ele>1224.9</ele>
        <time>2019-07-16T12:07:23Z</time>
      </trkpt>
      <trkpt lat="44.02967" lon="6.86552">
        <ele>1224.5</ele>
        <time>2019-07-16T12:07:25Z</time>
      </trkpt>
      <trkpt lat="44.0297" lon="6.86548">
        <ele>1224</ele>
        <time>2019-07-16T12:07:27Z</time>
      </trkpt>
      <trkpt lat="44.02972" lon="6.86543">
        <ele>1223.7</ele>
        <time>2019-07-16T12:07:29Z</time>
      </trkpt>
      <trkpt lat="44.02975" lon="6.8654">
        <ele>1223.5</ele>
        <time>2019-07-16T12:07:31Z</time>
      </trkpt>
      <trkpt lat="44.02977" lon="6.86537">
        <ele>1223.3</ele>
        <time>2019-07-16T12:07:33Z</time>
      </trkpt>
      <trkpt lat="44.0298" lon="6.86534">
        <ele>1223.3</ele>
        <time>2019-07-16T12:07:36Z</time>
      </trkpt>
      <trkpt lat="44.02983" lon="6.8653">
        <ele>1223.3</ele>
        <time>2019-07-16T12:07:39Z</time>
      </trkpt>
      <trkpt lat="44.02986" lon="6.86529">
        <ele>1223.3</ele>
        <time>2019-07-16T12:07:41Z</time>
      </trkpt>
      <trkpt lat="44.02989" lon="6.86527">
        <ele>1223.5</ele>
        <time>2019-07-16T12:07:43Z</time>
      </trkpt>
      <trkpt lat="44.02992" lon="6.86525">
        <ele>1223.6</ele>
        <time>2019-07-16T12:07:45Z</time>
      </trkpt>
      <trkpt lat="44.02995" lon="6.86524">
        <ele>1223.9</ele>
        <time>2019-07-16T12:07:47Z</time>
      </trkpt>
      <trkpt lat="44.02997" lon="6.8652">
        <ele>1224.2</ele>
        <time>2019-07-16T12:07:49Z</time>
      </trkpt>
      <trkpt lat="44.02999" lon="6.86514">
        <ele>1224.6</ele>
        <time>2019-07-16T12:07:51Z</time>
      </trkpt>
      <trkpt lat="44.03" lon="6.86509">
        <ele>1225.1</ele>
        <time>2019-07-16T12:07:53Z</time>
      </trkpt>
      <trkpt lat="44.03" lon="6.86503">
        <ele>1225.5</ele>
        <time>2019-07-16T12:07:55Z</time>
      </trkpt>
      <trkpt lat="44.03001" lon="6.86499">
        <ele>1225.9</ele>
        <time>2019-07-16T12:07:57Z</time>
      </trkpt>
      <trkpt lat="44.03003" lon="6.86495">
        <ele>1226.4</ele>
        <time>2019-07-16T12:07:59Z</time>
      </trkpt>
      <trkpt lat="44.03004" lon="6.8649">
        <ele>1226.8</ele>
        <time>2019-07-16T12:08:01Z</time>
      </trkpt>
      <trkpt lat="44.03005" lon="6.86486">
        <ele>1227.3</ele>
        <time>2019-07-16T12:08:03Z</time>
      </trkpt>
      <trkpt lat="44.03006" lon="6.86481">
        <ele>1227.7</ele>
        <time>2019-07-16T12:08:05Z</time>
      </trkpt>
      <trkpt lat="44.03007" lon="6.86475">
        <ele>1228.1</ele>
        <time>2019-07-16T12:08:07Z</time>
      </trkpt>
      <trkpt lat="44.03008" lon="6.86469">
        <ele>1228.7</ele>
        <time>2019-07-16T12:08:09Z</time>
      </trkpt>
      <trkpt lat="44.03011" lon="6.86464">
        <ele>1229.1</ele>
        <time>2019-07-16T12:08:11Z</time>
      </trkpt>
      <trkpt lat="44.03012" lon="6.86459">
        <ele>1229.5</ele>
        <time>2019-07-16T12:08:13Z</time>
      </trkpt>
      <trkpt lat="44.03012" lon="6.86454">
        <ele>1229.9</ele>
        <time>2019-07-16T12:08:15Z</time>
      </trkpt>
      <trkpt lat="44.03012" lon="6.86449">
        <ele>1230.2</ele>
        <time>2019-07-16T12:08:17Z</time>
      </trkpt>
      <trkpt lat="44.03013" lon="6.86445">
        <ele>1230.5</ele>
        <time>2019-07-16T12:08:19Z</time>
      </trkpt>
      <trkpt lat="44.03012" lon="6.8644">
        <ele>1230.9</ele>
        <time>2019-07-16T12:08:21Z</time>
      </trkpt>
      <trkpt lat="44.03012" lon="6.86435">
        <ele>1231.2</ele>
        <time>2019-07-16T12:08:23Z</time>
      </trkpt>
      <trkpt lat="44.03011" lon="6.86431">
        <ele>1231.5</ele>
        <time>2019-07-16T12:08:25Z</time>
      </trkpt>
      <trkpt lat="44.03011" lon="6.86426">
        <ele>1231.9</ele>
        <time>2019-07-16T12:08:27Z</time>
      </trkpt>
      <trkpt lat="44.03011" lon="6.86421">
        <ele>1232.3</ele>
        <time>2019-07-16T12:08:29Z</time>
      </trkpt>
      <trkpt lat="44.03012" lon="6.86415">
        <ele>1232.7</ele>
        <time>2019-07-16T12:08:31Z</time>
      </trkpt>
      <trkpt lat="44.03012" lon="6.8641">
        <ele>1233.2</ele>
        <time>2019-07-16T12:08:33Z</time>
      </trkpt>
      <trkpt lat="44.03013" lon="6.86405">
        <ele>1233.5</ele>
        <time>2019-07-16T12:08:35Z</time>
      </trkpt>
      <trkpt lat="44.03014" lon="6.864">
        <ele>1233.9</ele>
        <time>2019-07-16T12:08:37Z</time>
      </trkpt>
      <trkpt lat="44.03014" lon="6.86395">
        <ele>1234.3</ele>
        <time>2019-07-16T12:08:39Z</time>
      </trkpt>
      <trkpt lat="44.03014" lon="6.8639">
        <ele>1234.7</ele>
        <time>2019-07-16T12:08:41Z</time>
      </trkpt>
      <trkpt lat="44.03016" lon="6.86387">
        <ele>1235.1</ele>
        <time>2019-07-16T12:08:43Z</time>
      </trkpt>
      <trkpt lat="44.03018" lon="6.86383">
        <ele>1235.5</ele>
        <time>2019-07-16T12:08:45Z</time>
      </trkpt>
      <trkpt lat="44.03021" lon="6.8638">
        <ele>1235.8</ele>
        <time>2019-07-16T12:08:47Z</time>
      </trkpt>
      <trkpt lat="44.03023" lon="6.86378">
        <ele>1236.1</ele>
        <time>2019-07-16T12:08:49Z</time>
      </trkpt>
      <trkpt lat="44.03025" lon="6.86376">
        <ele>1236.5</ele>
        <time>2019-07-16T12:08:51Z</time>
      </trkpt>
      <trkpt lat="44.03028" lon="6.86375">
        <ele>1236.9</ele>
        <time>2019-07-16T12:08:53Z</time>
      </trkpt>
      <trkpt lat="44.03032" lon="6.86374">
        <ele>1237.3</ele>
        <time>2019-07-16T12:08:55Z</time>
      </trkpt>
      <trkpt lat="44.03035" lon="6.86374">
        <ele>1237.6</ele>
        <time>2019-07-16T12:08:57Z</time>
      </trkpt>
      <trkpt lat="44.03039" lon="6.86374">
        <ele>1238.1</ele>
        <time>2019-07-16T12:08:59Z</time>
      </trkpt>
      <trkpt lat="44.03042" lon="6.86375">
        <ele>1238.4</ele>
        <time>2019-07-16T12:09:01Z</time>
      </trkpt>
      <trkpt lat="44.03046" lon="6.86375">
        <ele>1238.8</ele>
        <time>2019-07-16T12:09:03Z</time>
      </trkpt>
      <trkpt lat="44.03049" lon="6.86376">
        <ele>1239.2</ele>
        <time>2019-07-16T12:09:05Z</time>
      </trkpt>
      <trkpt lat="44.03052" lon="6.86378">
        <ele>1239.7</ele>
        <time>2019-07-16T12:09:07Z</time>
      </trkpt>
      <trkpt lat="44.03056" lon="6.8638">
        <ele>1240.2</ele>
        <time>2019-07-16T12:09:09Z</time>
      </trkpt>
      <trkpt lat="44.03059" lon="6.86382">
        <ele>1240.6</ele>
        <time>2019-07-16T12:09:11Z</time>
      </trkpt>
      <trkpt lat="44.03062" lon="6.86385">
        <ele>1241</ele>
        <time>2019-07-16T12:09:13Z</time>
      </trkpt>
      <trkpt lat="44.03065" lon="6.86388">
        <ele>1241.3</ele>
        <time>2019-07-16T12:09:16Z</time>
      </trkpt>
      <trkpt lat="44.03068" lon="6.86389">
        <ele>1241.7</ele>
        <time>2019-07-16T12:09:39Z</time>
      </trkpt>
      <trkpt lat="44.03071" lon="6.8639">
        <ele>1242</ele>
        <time>2019-07-16T12:09:41Z</time>
      </trkpt>
      <trkpt lat="44.03074" lon="6.86392">
        <ele>1242.4</ele>
        <time>2019-07-16T12:09:43Z</time>
      </trkpt>
      <trkpt lat="44.03078" lon="6.86394">
        <ele>1242.8</ele>
        <time>2019-07-16T12:09:45Z</time>
      </trkpt>
      <trkpt lat="44.03083" lon="6.86396">
        <ele>1243.2</ele>
        <time>2019-07-16T12:09:47Z</time>
      </trkpt>
      <trkpt lat="44.03086" lon="6.86397">
        <ele>1243.5</ele>
        <time>2019-07-16T12:09:48Z</time>
      </trkpt>
      <trkpt lat="44.0309" lon="6.86397">
        <ele>1243.7</ele>
        <time>2019-07-16T12:09:49Z</time>
      </trkpt>
      <trkpt lat="44.03093" lon="6.86399">
        <ele>1243.9</ele>
        <time>2019-07-16T12:09:50Z</time>
      </trkpt>
      <trkpt lat="44.03096" lon="6.864">
        <ele>1244.1</ele>
        <time>2019-07-16T12:09:52Z</time>
      </trkpt>
      <trkpt lat="44.03098" lon="6.86402">
        <ele>1244.2</ele>
        <time>2019-07-16T12:09:54Z</time>
      </trkpt>
      <trkpt lat="44.03102" lon="6.86404">
        <ele>1244.4</ele>
        <time>2019-07-16T12:09:56Z</time>
      </trkpt>
      <trkpt lat="44.03104" lon="6.86406">
        <ele>1244.5</ele>
        <time>2019-07-16T12:09:58Z</time>
      </trkpt>
      <trkpt lat="44.03108" lon="6.86407">
        <ele>1244.7</ele>
        <time>2019-07-16T12:10:00Z</time>
      </trkpt>
      <trkpt lat="44.03111" lon="6.86409">
        <ele>1244.8</ele>
        <time>2019-07-16T12:10:02Z</time>
      </trkpt>
      <trkpt lat="44.03114" lon="6.86409">
        <ele>1244.9</ele>
        <time>2019-07-16T12:10:04Z</time>
      </trkpt>
      <trkpt lat="44.03118" lon="6.86408">
        <ele>1245</ele>
        <time>2019-07-16T12:10:06Z</time>
      </trkpt>
      <trkpt lat="44.03121" lon="6.86407">
        <ele>1245</ele>
        <time>2019-07-16T12:10:08Z</time>
      </trkpt>
      <trkpt lat="44.03123" lon="6.86404">
        <ele>1245.1</ele>
        <time>2019-07-16T12:10:26Z</time>
      </trkpt>
      <trkpt lat="44.03125" lon="6.86399">
        <ele>1245.1</ele>
        <time>2019-07-16T12:10:28Z</time>
      </trkpt>
      <trkpt lat="44.03129" lon="6.86395">
        <ele>1245.2</ele>
        <time>2019-07-16T12:10:30Z</time>
      </trkpt>
      <trkpt lat="44.03131" lon="6.86392">
        <ele>1245.2</ele>
        <time>2019-07-16T12:10:31Z</time>
      </trkpt>
      <trkpt lat="44.03134" lon="6.86389">
        <ele>1245.1</ele>
        <time>2019-07-16T12:10:32Z</time>
      </trkpt>
      <trkpt lat="44.03137" lon="6.86385">
        <ele>1245.1</ele>
        <time>2019-07-16T12:10:33Z</time>
      </trkpt>
      <trkpt lat="44.03141" lon="6.86383">
        <ele>1245.1</ele>
        <time>2019-07-16T12:10:34Z</time>
      </trkpt>
      <trkpt lat="44.03144" lon="6.8638">
        <ele>1245</ele>
        <time>2019-07-16T12:10:35Z</time>
      </trkpt>
      <trkpt lat="44.03148" lon="6.86379">
        <ele>1244.9</ele>
        <time>2019-07-16T12:10:37Z</time>
      </trkpt>
      <trkpt lat="44.03152" lon="6.8638">
        <ele>1244.8</ele>
        <time>2019-07-16T12:10:39Z</time>
      </trkpt>
      <trkpt lat="44.03154" lon="6.86381">
        <ele>1244.7</ele>
        <time>2019-07-16T12:10:41Z</time>
      </trkpt>
      <trkpt lat="44.03158" lon="6.86383">
        <ele>1244.6</ele>
        <time>2019-07-16T12:10:44Z</time>
      </trkpt>
      <trkpt lat="44.03162" lon="6.86383">
        <ele>1244.5</ele>
        <time>2019-07-16T12:10:46Z</time>
      </trkpt>
      <trkpt lat="44.03165" lon="6.86383">
        <ele>1244.4</ele>
        <time>2019-07-16T12:10:48Z</time>
      </trkpt>
      <trkpt lat="44.03168" lon="6.86383">
        <ele>1244.4</ele>
        <time>2019-07-16T12:10:50Z</time>
      </trkpt>
      <trkpt lat="44.03172" lon="6.86382">
        <ele>1244.4</ele>
        <time>2019-07-16T12:10:52Z</time>
      </trkpt>
      <trkpt lat="44.03175" lon="6.86381">
        <ele>1244.4</ele>
        <time>2019-07-16T12:10:54Z</time>
      </trkpt>
      <trkpt lat="44.03178" lon="6.86377">
        <ele>1244.5</ele>
        <time>2019-07-16T12:10:56Z</time>
      </trkpt>
      <trkpt lat="44.0318" lon="6.86372">
        <ele>1244.7</ele>
        <time>2019-07-16T12:10:58Z</time>
      </trkpt>
      <trkpt lat="44.03181" lon="6.86368">
        <ele>1244.8</ele>
        <time>2019-07-16T12:11:00Z</time>
      </trkpt>
      <trkpt lat="44.03183" lon="6.86364">
        <ele>1245.1</ele>
        <time>2019-07-16T12:11:02Z</time>
      </trkpt>
      <trkpt lat="44.03185" lon="6.8636">
        <ele>1245.4</ele>
        <time>2019-07-16T12:11:04Z</time>
      </trkpt>
      <trkpt lat="44.03187" lon="6.86357">
        <ele>1245.6</ele>
        <time>2019-07-16T12:11:06Z</time>
      </trkpt>
      <trkpt lat="44.0319" lon="6.86354">
        <ele>1245.9</ele>
        <time>2019-07-16T12:11:08Z</time>
      </trkpt>
      <trkpt lat="44.03193" lon="6.86353">
        <ele>1246.3</ele>
        <time>2019-07-16T12:11:10Z</time>
      </trkpt>
      <trkpt lat="44.03196" lon="6.86351">
        <ele>1246.8</ele>
        <time>2019-07-16T12:11:12Z</time>
      </trkpt>
      <trkpt lat="44.032" lon="6.86349">
        <ele>1247.1</ele>
        <time>2019-07-16T12:11:14Z</time>
      </trkpt>
      <trkpt lat="44.03203" lon="6.86347">
        <ele>1247.5</ele>
        <time>2019-07-16T12:11:16Z</time>
      </trkpt>
      <trkpt lat="44.03206" lon="6.86344">
        <ele>1248</ele>
        <time>2019-07-16T12:11:18Z</time>
      </trkpt>
      <trkpt lat="44.03208" lon="6.86341">
        <ele>1248.5</ele>
        <time>2019-07-16T12:11:20Z</time>
      </trkpt>
      <trkpt lat="44.03212" lon="6.86338">
        <ele>1249</ele>
        <time>2019-07-16T12:11:23Z</time>
      </trkpt>
      <trkpt lat="44.03215" lon="6.86336">
        <ele>1249.4</ele>
        <time>2019-07-16T12:11:26Z</time>
      </trkpt>
      <trkpt lat="44.03217" lon="6.86333">
        <ele>1249.8</ele>
        <time>2019-07-16T12:11:29Z</time>
      </trkpt>
      <trkpt lat="44.03219" lon="6.86331">
        <ele>1250.1</ele>
        <time>2019-07-16T12:11:31Z</time>
      </trkpt>
      <trkpt lat="44.03222" lon="6.86329">
        <ele>1250.5</ele>
        <time>2019-07-16T12:11:33Z</time>
      </trkpt>
      <trkpt lat="44.03225" lon="6.86327">
        <ele>1250.9</ele>
        <time>2019-07-16T12:11:36Z</time>
      </trkpt>
      <trkpt lat="44.03228" lon="6.86324">
        <ele>1251.4</ele>
        <time>2019-07-16T12:11:39Z</time>
      </trkpt>
      <trkpt lat="44.03231" lon="6.86323">
        <ele>1251.8</ele>
        <time>2019-07-16T12:11:41Z</time>
      </trkpt>
      <trkpt lat="44.03235" lon="6.86321">
        <ele>1252.3</ele>
        <time>2019-07-16T12:11:44Z</time>
      </trkpt>
      <trkpt lat="44.03238" lon="6.8632">
        <ele>1252.7</ele>
        <time>2019-07-16T12:11:46Z</time>
      </trkpt>
      <trkpt lat="44.03241" lon="6.86318">
        <ele>1253</ele>
        <time>2019-07-16T12:11:48Z</time>
      </trkpt>
      <trkpt lat="44.03244" lon="6.86316">
        <ele>1253.5</ele>
        <time>2019-07-16T12:11:51Z</time>
      </trkpt>
      <trkpt lat="44.03247" lon="6.86315">
        <ele>1253.8</ele>
        <time>2019-07-16T12:11:53Z</time>
      </trkpt>
      <trkpt lat="44.0325" lon="6.86315">
        <ele>1254.1</ele>
        <time>2019-07-16T12:11:55Z</time>
      </trkpt>
      <trkpt lat="44.03253" lon="6.86316">
        <ele>1254.4</ele>
        <time>2019-07-16T12:11:57Z</time>
      </trkpt>
      <trkpt lat="44.03256" lon="6.86316">
        <ele>1254.7</ele>
        <time>2019-07-16T12:11:59Z</time>
      </trkpt>
      <trkpt lat="44.0326" lon="6.86317">
        <ele>1255</ele>
        <time>2019-07-16T12:12:01Z</time>
      </trkpt>
      <trkpt lat="44.03263" lon="6.86317">
        <ele>1255.3</ele>
        <time>2019-07-16T12:12:03Z</time>
      </trkpt>
      <trkpt lat="44.03266" lon="6.86318">
        <ele>1255.6</ele>
        <time>2019-07-16T12:12:06Z</time>
      </trkpt>
      <trkpt lat="44.03271" lon="6.86319">
        <ele>1255.9</ele>
        <time>2019-07-16T12:12:09Z</time>
      </trkpt>
      <trkpt lat="44.03275" lon="6.86321">
        <ele>1256.2</ele>
        <time>2019-07-16T12:12:11Z</time>
      </trkpt>
      <trkpt lat="44.03278" lon="6.86322">
        <ele>1256.4</ele>
        <time>2019-07-16T12:12:13Z</time>
      </trkpt>
      <trkpt lat="44.03282" lon="6.86321">
        <ele>1256.7</ele>
        <time>2019-07-16T12:12:15Z</time>
      </trkpt>
      <trkpt lat="44.03285" lon="6.86321">
        <ele>1256.9</ele>
        <time>2019-07-16T12:12:17Z</time>
      </trkpt>
      <trkpt lat="44.03288" lon="6.86319">
        <ele>1257</ele>
        <time>2019-07-16T12:12:19Z</time>
      </trkpt>
      <trkpt lat="44.03291" lon="6.86319">
        <ele>1257.2</ele>
        <time>2019-07-16T12:12:22Z</time>
      </trkpt>
      <trkpt lat="44.03295" lon="6.86319">
        <ele>1257.4</ele>
        <time>2019-07-16T12:12:24Z</time>
      </trkpt>
      <trkpt lat="44.03298" lon="6.8632">
        <ele>1257.6</ele>
        <time>2019-07-16T12:12:26Z</time>
      </trkpt>
      <trkpt lat="44.03302" lon="6.86321">
        <ele>1257.7</ele>
        <time>2019-07-16T12:12:28Z</time>
      </trkpt>
      <trkpt lat="44.03306" lon="6.86323">
        <ele>1257.8</ele>
        <time>2019-07-16T12:12:30Z</time>
      </trkpt>
      <trkpt lat="44.03308" lon="6.86323">
        <ele>1257.9</ele>
        <time>2019-07-16T12:12:32Z</time>
      </trkpt>
      <trkpt lat="44.03311" lon="6.86322">
        <ele>1258</ele>
        <time>2019-07-16T12:12:34Z</time>
      </trkpt>
      <trkpt lat="44.03314" lon="6.86321">
        <ele>1258</ele>
        <time>2019-07-16T12:12:36Z</time>
      </trkpt>
      <trkpt lat="44.03318" lon="6.86319">
        <ele>1258.1</ele>
        <time>2019-07-16T12:12:39Z</time>
      </trkpt>
      <trkpt lat="44.0332" lon="6.86318">
        <ele>1258.2</ele>
        <time>2019-07-16T12:12:41Z</time>
      </trkpt>
      <trkpt lat="44.03323" lon="6.86318">
        <ele>1258.2</ele>
        <time>2019-07-16T12:12:43Z</time>
      </trkpt>
      <trkpt lat="44.03326" lon="6.86319">
        <ele>1258.3</ele>
        <time>2019-07-16T12:12:45Z</time>
      </trkpt>
      <trkpt lat="44.03329" lon="6.86319">
        <ele>1258.4</ele>
        <time>2019-07-16T12:12:47Z</time>
      </trkpt>
      <trkpt lat="44.03333" lon="6.8632">
        <ele>1258.6</ele>
        <time>2019-07-16T12:12:49Z</time>
      </trkpt>
      <trkpt lat="44.03336" lon="6.86321">
        <ele>1258.7</ele>
        <time>2019-07-16T12:12:51Z</time>
      </trkpt>
      <trkpt lat="44.03338" lon="6.86322">
        <ele>1258.9</ele>
        <time>2019-07-16T12:12:54Z</time>
      </trkpt>
      <trkpt lat="44.03342" lon="6.86326">
        <ele>1259.2</ele>
        <time>2019-07-16T12:12:57Z</time>
      </trkpt>
      <trkpt lat="44.03345" lon="6.86328">
        <ele>1259.5</ele>
        <time>2019-07-16T12:13:00Z</time>
      </trkpt>
      <trkpt lat="44.03349" lon="6.86328">
        <ele>1259.9</ele>
        <time>2019-07-16T12:13:03Z</time>
      </trkpt>
      <trkpt lat="44.03352" lon="6.86328">
        <ele>1260.2</ele>
        <time>2019-07-16T12:13:09Z</time>
      </trkpt>
      <trkpt lat="44.03355" lon="6.86332">
        <ele>1260.5</ele>
        <time>2019-07-16T12:13:15Z</time>
      </trkpt>
      <trkpt lat="44.03358" lon="6.86333">
        <ele>1260.8</ele>
        <time>2019-07-16T12:13:18Z</time>
      </trkpt>
      <trkpt lat="44.03362" lon="6.86336">
        <ele>1261.2</ele>
        <time>2019-07-16T12:13:21Z</time>
      </trkpt>
      <trkpt lat="44.03365" lon="6.86338">
        <ele>1261.4</ele>
        <time>2019-07-16T12:13:24Z</time>
      </trkpt>
      <trkpt lat="44.03368" lon="6.86339">
        <ele>1261.6</ele>
        <time>2019-07-16T12:13:26Z</time>
      </trkpt>
      <trkpt lat="44.03371" lon="6.8634">
        <ele>1261.9</ele>
        <time>2019-07-16T12:13:28Z</time>
      </trkpt>
      <trkpt lat="44.03374" lon="6.86341">
        <ele>1262</ele>
        <time>2019-07-16T12:13:31Z</time>
      </trkpt>
      <trkpt lat="44.03381" lon="6.86342">
        <ele>1262.4</ele>
        <time>2019-07-16T12:17:24Z</time>
      </trkpt>
      <trkpt lat="44.03384" lon="6.86343">
        <ele>1262.6</ele>
        <time>2019-07-16T12:17:26Z</time>
      </trkpt>
      <trkpt lat="44.03387" lon="6.86345">
        <ele>1262.7</ele>
        <time>2019-07-16T12:17:28Z</time>
      </trkpt>
      <trkpt lat="44.03391" lon="6.86345">
        <ele>1262.8</ele>
        <time>2019-07-16T12:17:30Z</time>
      </trkpt>
      <trkpt lat="44.03395" lon="6.86344">
        <ele>1262.9</ele>
        <time>2019-07-16T12:17:32Z</time>
      </trkpt>
      <trkpt lat="44.03399" lon="6.86345">
        <ele>1263</ele>
        <time>2019-07-16T12:17:34Z</time>
      </trkpt>
      <trkpt lat="44.03404" lon="6.86346">
        <ele>1263</ele>
        <time>2019-07-16T12:17:36Z</time>
      </trkpt>
      <trkpt lat="44.03408" lon="6.86348">
        <ele>1263.1</ele>
        <time>2019-07-16T12:17:38Z</time>
      </trkpt>
      <trkpt lat="44.03413" lon="6.8635">
        <ele>1263.1</ele>
        <time>2019-07-16T12:17:40Z</time>
      </trkpt>
      <trkpt lat="44.03417" lon="6.86352">
        <ele>1263.1</ele>
        <time>2019-07-16T12:17:42Z</time>
      </trkpt>
      <trkpt lat="44.0342" lon="6.86353">
        <ele>1263.1</ele>
        <time>2019-07-16T12:17:44Z</time>
      </trkpt>
      <trkpt lat="44.03423" lon="6.86353">
        <ele>1263.2</ele>
        <time>2019-07-16T12:17:46Z</time>
      </trkpt>
      <trkpt lat="44.03427" lon="6.86354">
        <ele>1263.2</ele>
        <time>2019-07-16T12:17:49Z</time>
      </trkpt>
      <trkpt lat="44.03431" lon="6.86355">
        <ele>1263.2</ele>
        <time>2019-07-16T12:17:52Z</time>
      </trkpt>
      <trkpt lat="44.03433" lon="6.86358">
        <ele>1263.3</ele>
        <time>2019-07-16T12:17:54Z</time>
      </trkpt>
      <trkpt lat="44.03437" lon="6.8636">
        <ele>1263.3</ele>
        <time>2019-07-16T12:17:56Z</time>
      </trkpt>
      <trkpt lat="44.0344" lon="6.86362">
        <ele>1263.4</ele>
        <time>2019-07-16T12:18:00Z</time>
      </trkpt>
      <trkpt lat="44.03443" lon="6.86362">
        <ele>1263.5</ele>
        <time>2019-07-16T12:18:02Z</time>
      </trkpt>
      <trkpt lat="44.03446" lon="6.86364">
        <ele>1263.6</ele>
        <time>2019-07-16T12:18:05Z</time>
      </trkpt>
      <trkpt lat="44.0345" lon="6.86365">
        <ele>1263.8</ele>
        <time>2019-07-16T12:18:07Z</time>
      </trkpt>
      <trkpt lat="44.03453" lon="6.86367">
        <ele>1264</ele>
        <time>2019-07-16T12:18:09Z</time>
      </trkpt>
      <trkpt lat="44.03456" lon="6.86369">
        <ele>1264.1</ele>
        <time>2019-07-16T12:18:11Z</time>
      </trkpt>
      <trkpt lat="44.03458" lon="6.86371">
        <ele>1264.2</ele>
        <time>2019-07-16T12:18:14Z</time>
      </trkpt>
      <trkpt lat="44.03461" lon="6.86373">
        <ele>1264.4</ele>
        <time>2019-07-16T12:18:16Z</time>
      </trkpt>
      <trkpt lat="44.03464" lon="6.86374">
        <ele>1264.6</ele>
        <time>2019-07-16T12:18:18Z</time>
      </trkpt>
      <trkpt lat="44.03467" lon="6.86375">
        <ele>1264.9</ele>
        <time>2019-07-16T12:18:20Z</time>
      </trkpt>
      <trkpt lat="44.0347" lon="6.86377">
        <ele>1265.2</ele>
        <time>2019-07-16T12:18:22Z</time>
      </trkpt>
      <trkpt lat="44.03473" lon="6.86379">
        <ele>1265.4</ele>
        <time>2019-07-16T12:18:24Z</time>
      </trkpt>
      <trkpt lat="44.03476" lon="6.8638">
        <ele>1265.7</ele>
        <time>2019-07-16T12:18:26Z</time>
      </trkpt>
      <trkpt lat="44.03479" lon="6.86382">
        <ele>1266</ele>
        <time>2019-07-16T12:18:28Z</time>
      </trkpt>
      <trkpt lat="44.03483" lon="6.86384">
        <ele>1266.3</ele>
        <time>2019-07-16T12:18:31Z</time>
      </trkpt>
      <trkpt lat="44.03486" lon="6.86385">
        <ele>1266.5</ele>
        <time>2019-07-16T12:18:33Z</time>
      </trkpt>
      <trkpt lat="44.0349" lon="6.86386">
        <ele>1266.9</ele>
        <time>2019-07-16T12:18:36Z</time>
      </trkpt>
      <trkpt lat="44.03493" lon="6.86385">
        <ele>1267.1</ele>
        <time>2019-07-16T12:18:38Z</time>
      </trkpt>
      <trkpt lat="44.03495" lon="6.86382">
        <ele>1267.4</ele>
        <time>2019-07-16T12:18:40Z</time>
      </trkpt>
      <trkpt lat="44.03497" lon="6.86379">
        <ele>1267.6</ele>
        <time>2019-07-16T12:18:42Z</time>
      </trkpt>
      <trkpt lat="44.035" lon="6.86376">
        <ele>1267.8</ele>
        <time>2019-07-16T12:18:44Z</time>
      </trkpt>
      <trkpt lat="44.03503" lon="6.8637">
        <ele>1268.1</ele>
        <time>2019-07-16T12:18:46Z</time>
      </trkpt>
      <trkpt lat="44.03508" lon="6.86367">
        <ele>1268.4</ele>
        <time>2019-07-16T12:18:48Z</time>
      </trkpt>
      <trkpt lat="44.03511" lon="6.86364">
        <ele>1268.5</ele>
        <time>2019-07-16T12:18:49Z</time>
      </trkpt>
      <trkpt lat="44.03513" lon="6.86361">
        <ele>1268.6</ele>
        <time>2019-07-16T12:18:50Z</time>
      </trkpt>
      <trkpt lat="44.03515" lon="6.86358">
        <ele>1268.7</ele>
        <time>2019-07-16T12:18:51Z</time>
      </trkpt>
      <trkpt lat="44.03517" lon="6.86355">
        <ele>1268.8</ele>
        <time>2019-07-16T12:18:52Z</time>
      </trkpt>
      <trkpt lat="44.03519" lon="6.86353">
        <ele>1268.9</ele>
        <time>2019-07-16T12:18:53Z</time>
      </trkpt>
      <trkpt lat="44.0352" lon="6.8635">
        <ele>1269.1</ele>
        <time>2019-07-16T12:18:54Z</time>
      </trkpt>
      <trkpt lat="44.03524" lon="6.86344">
        <ele>1269.3</ele>
        <time>2019-07-16T12:18:56Z</time>
      </trkpt>
      <trkpt lat="44.03526" lon="6.86341">
        <ele>1269.5</ele>
        <time>2019-07-16T12:18:57Z</time>
      </trkpt>
      <trkpt lat="44.0353" lon="6.86337">
        <ele>1269.8</ele>
        <time>2019-07-16T12:18:58Z</time>
      </trkpt>
      <trkpt lat="44.03536" lon="6.86332">
        <ele>1270.1</ele>
        <time>2019-07-16T12:18:59Z</time>
      </trkpt>
      <trkpt lat="44.03541" lon="6.86326">
        <ele>1270.3</ele>
        <time>2019-07-16T12:19:00Z</time>
      </trkpt>
      <trkpt lat="44.03546" lon="6.86321">
        <ele>1270.5</ele>
        <time>2019-07-16T12:19:01Z</time>
      </trkpt>
      <trkpt lat="44.0355" lon="6.86316">
        <ele>1270.6</ele>
        <time>2019-07-16T12:19:02Z</time>
      </trkpt>
      <trkpt lat="44.03553" lon="6.86312">
        <ele>1270.7</ele>
        <time>2019-07-16T12:19:03Z</time>
      </trkpt>
      <trkpt lat="44.03557" lon="6.86309">
        <ele>1270.8</ele>
        <time>2019-07-16T12:19:04Z</time>
      </trkpt>
      <trkpt lat="44.03561" lon="6.86307">
        <ele>1270.9</ele>
        <time>2019-07-16T12:19:05Z</time>
      </trkpt>
      <trkpt lat="44.03563" lon="6.86305">
        <ele>1270.9</ele>
        <time>2019-07-16T12:19:06Z</time>
      </trkpt>
      <trkpt lat="44.03567" lon="6.86301">
        <ele>1271</ele>
        <time>2019-07-16T12:19:08Z</time>
      </trkpt>
      <trkpt lat="44.03572" lon="6.86299">
        <ele>1271.1</ele>
        <time>2019-07-16T12:19:10Z</time>
      </trkpt>
      <trkpt lat="44.03575" lon="6.86299">
        <ele>1271.2</ele>
        <time>2019-07-16T12:19:12Z</time>
      </trkpt>
      <trkpt lat="44.03578" lon="6.86299">
        <ele>1271.2</ele>
        <time>2019-07-16T12:19:14Z</time>
      </trkpt>
      <trkpt lat="44.03581" lon="6.86299">
        <ele>1271.3</ele>
        <time>2019-07-16T12:19:16Z</time>
      </trkpt>
      <trkpt lat="44.03584" lon="6.86299">
        <ele>1271.4</ele>
        <time>2019-07-16T12:19:18Z</time>
      </trkpt>
      <trkpt lat="44.03588" lon="6.86299">
        <ele>1271.7</ele>
        <time>2019-07-16T12:19:20Z</time>
      </trkpt>
      <trkpt lat="44.03592" lon="6.863">
        <ele>1272.4</ele>
        <time>2019-07-16T12:19:22Z</time>
      </trkpt>
      <trkpt lat="44.03595" lon="6.863">
        <ele>1273</ele>
        <time>2019-07-16T12:19:24Z</time>
      </trkpt>
      <trkpt lat="44.036" lon="6.863">
        <ele>1273.9</ele>
        <time>2019-07-16T12:19:26Z</time>
      </trkpt>
      <trkpt lat="44.03603" lon="6.863">
        <ele>1274.6</ele>
        <time>2019-07-16T12:19:28Z</time>
      </trkpt>
      <trkpt lat="44.03607" lon="6.86299">
        <ele>1275.4</ele>
        <time>2019-07-16T12:19:30Z</time>
      </trkpt>
      <trkpt lat="44.03611" lon="6.86298">
        <ele>1275.9</ele>
        <time>2019-07-16T12:19:32Z</time>
      </trkpt>
      <trkpt lat="44.03616" lon="6.863">
        <ele>1276.7</ele>
        <time>2019-07-16T12:19:34Z</time>
      </trkpt>
      <trkpt lat="44.0362" lon="6.86299">
        <ele>1277.3</ele>
        <time>2019-07-16T12:19:36Z</time>
      </trkpt>
      <trkpt lat="44.03624" lon="6.86299">
        <ele>1277.5</ele>
        <time>2019-07-16T12:19:38Z</time>
      </trkpt>
      <trkpt lat="44.03629" lon="6.86299">
        <ele>1277.7</ele>
        <time>2019-07-16T12:19:40Z</time>
      </trkpt>
      <trkpt lat="44.03632" lon="6.86299">
        <ele>1277.9</ele>
        <time>2019-07-16T12:19:42Z</time>
      </trkpt>
      <trkpt lat="44.03635" lon="6.863">
        <ele>1278</ele>
        <time>2019-07-16T12:19:44Z</time>
      </trkpt>
      <trkpt lat="44.03638" lon="6.863">
        <ele>1278.2</ele>
        <time>2019-07-16T12:19:46Z</time>
      </trkpt>
      <trkpt lat="44.03641" lon="6.86301">
        <ele>1278.3</ele>
        <time>2019-07-16T12:19:48Z</time>
      </trkpt>
      <trkpt lat="44.03644" lon="6.86301">
        <ele>1278.4</ele>
        <time>2019-07-16T12:19:51Z</time>
      </trkpt>
      <trkpt lat="44.03647" lon="6.86299">
        <ele>1278.4</ele>
        <time>2019-07-16T12:19:53Z</time>
      </trkpt>
      <trkpt lat="44.0365" lon="6.86299">
        <ele>1278.3</ele>
        <time>2019-07-16T12:19:55Z</time>
      </trkpt>
      <trkpt lat="44.03654" lon="6.86294">
        <ele>1278.2</ele>
        <time>2019-07-16T12:19:57Z</time>
      </trkpt>
      <trkpt lat="44.03657" lon="6.86287">
        <ele>1277.9</ele>
        <time>2019-07-16T12:19:59Z</time>
      </trkpt>
      <trkpt lat="44.03658" lon="6.86283">
        <ele>1277.7</ele>
        <time>2019-07-16T12:20:00Z</time>
      </trkpt>
      <trkpt lat="44.03659" lon="6.86278">
        <ele>1277.4</ele>
        <time>2019-07-16T12:20:01Z</time>
      </trkpt>
      <trkpt lat="44.03659" lon="6.86271">
        <ele>1276.9</ele>
        <time>2019-07-16T12:20:02Z</time>
      </trkpt>
      <trkpt lat="44.0366" lon="6.86263">
        <ele>1276.3</ele>
        <time>2019-07-16T12:20:03Z</time>
      </trkpt>
      <trkpt lat="44.03662" lon="6.86255">
        <ele>1275.9</ele>
        <time>2019-07-16T12:20:04Z</time>
      </trkpt>
      <trkpt lat="44.03663" lon="6.86245">
        <ele>1275.6</ele>
        <time>2019-07-16T12:20:05Z</time>
      </trkpt>
      <trkpt lat="44.03665" lon="6.86238">
        <ele>1275.5</ele>
        <time>2019-07-16T12:20:06Z</time>
      </trkpt>
      <trkpt lat="44.03667" lon="6.86232">
        <ele>1275.4</ele>
        <time>2019-07-16T12:20:07Z</time>
      </trkpt>
      <trkpt lat="44.0367" lon="6.86227">
        <ele>1275.4</ele>
        <time>2019-07-16T12:20:08Z</time>
      </trkpt>
      <trkpt lat="44.03671" lon="6.86223">
        <ele>1275.4</ele>
        <time>2019-07-16T12:20:09Z</time>
      </trkpt>
      <trkpt lat="44.03673" lon="6.8622">
        <ele>1275.5</ele>
        <time>2019-07-16T12:20:10Z</time>
      </trkpt>
      <trkpt lat="44.03674" lon="6.86214">
        <ele>1275.6</ele>
        <time>2019-07-16T12:20:12Z</time>
      </trkpt>
      <trkpt lat="44.03676" lon="6.86208">
        <ele>1275.7</ele>
        <time>2019-07-16T12:20:14Z</time>
      </trkpt>
      <trkpt lat="44.03679" lon="6.86202">
        <ele>1275.8</ele>
        <time>2019-07-16T12:20:16Z</time>
      </trkpt>
      <trkpt lat="44.0368" lon="6.86198">
        <ele>1275.9</ele>
        <time>2019-07-16T12:20:17Z</time>
      </trkpt>
      <trkpt lat="44.03682" lon="6.86192">
        <ele>1276.1</ele>
        <time>2019-07-16T12:20:19Z</time>
      </trkpt>
      <trkpt lat="44.03684" lon="6.86187">
        <ele>1276.3</ele>
        <time>2019-07-16T12:20:21Z</time>
      </trkpt>
      <trkpt lat="44.03685" lon="6.86181">
        <ele>1276.6</ele>
        <time>2019-07-16T12:20:23Z</time>
      </trkpt>
      <trkpt lat="44.03686" lon="6.86176">
        <ele>1276.8</ele>
        <time>2019-07-16T12:20:25Z</time>
      </trkpt>
      <trkpt lat="44.03688" lon="6.86171">
        <ele>1277</ele>
        <time>2019-07-16T12:20:27Z</time>
      </trkpt>
      <trkpt lat="44.0369" lon="6.86166">
        <ele>1277.3</ele>
        <time>2019-07-16T12:20:29Z</time>
      </trkpt>
      <trkpt lat="44.03692" lon="6.8616">
        <ele>1277.5</ele>
        <time>2019-07-16T12:20:31Z</time>
      </trkpt>
      <trkpt lat="44.03695" lon="6.86156">
        <ele>1277.8</ele>
        <time>2019-07-16T12:20:33Z</time>
      </trkpt>
      <trkpt lat="44.03696" lon="6.8615">
        <ele>1278</ele>
        <time>2019-07-16T12:20:35Z</time>
      </trkpt>
      <trkpt lat="44.03698" lon="6.86145">
        <ele>1278.3</ele>
        <time>2019-07-16T12:20:37Z</time>
      </trkpt>
      <trkpt lat="44.037" lon="6.8614">
        <ele>1278.5</ele>
        <time>2019-07-16T12:20:39Z</time>
      </trkpt>
      <trkpt lat="44.03701" lon="6.86135">
        <ele>1278.7</ele>
        <time>2019-07-16T12:20:41Z</time>
      </trkpt>
      <trkpt lat="44.03703" lon="6.86129">
        <ele>1278.9</ele>
        <time>2019-07-16T12:20:43Z</time>
      </trkpt>
      <trkpt lat="44.03704" lon="6.86124">
        <ele>1279.1</ele>
        <time>2019-07-16T12:20:45Z</time>
      </trkpt>
      <trkpt lat="44.03706" lon="6.86118">
        <ele>1279.3</ele>
        <time>2019-07-16T12:20:47Z</time>
      </trkpt>
      <trkpt lat="44.03707" lon="6.86114">
        <ele>1279.5</ele>
        <time>2019-07-16T12:20:49Z</time>
      </trkpt>
      <trkpt lat="44.03707" lon="6.86109">
        <ele>1279.7</ele>
        <time>2019-07-16T12:20:51Z</time>
      </trkpt>
      <trkpt lat="44.03708" lon="6.86102">
        <ele>1280</ele>
        <time>2019-07-16T12:20:53Z</time>
      </trkpt>
      <trkpt lat="44.03709" lon="6.86097">
        <ele>1280.3</ele>
        <time>2019-07-16T12:20:55Z</time>
      </trkpt>
      <trkpt lat="44.03709" lon="6.86092">
        <ele>1280.5</ele>
        <time>2019-07-16T12:20:57Z</time>
      </trkpt>
      <trkpt lat="44.03711" lon="6.86085">
        <ele>1280.8</ele>
        <time>2019-07-16T12:20:59Z</time>
      </trkpt>
      <trkpt lat="44.03712" lon="6.86079">
        <ele>1281.2</ele>
        <time>2019-07-16T12:21:01Z</time>
      </trkpt>
      <trkpt lat="44.03714" lon="6.86074">
        <ele>1281.5</ele>
        <time>2019-07-16T12:21:03Z</time>
      </trkpt>
      <trkpt lat="44.03715" lon="6.86069">
        <ele>1281.8</ele>
        <time>2019-07-16T12:21:05Z</time>
      </trkpt>
      <trkpt lat="44.03715" lon="6.86065">
        <ele>1282.3</ele>
        <time>2019-07-16T12:21:07Z</time>
      </trkpt>
      <trkpt lat="44.03716" lon="6.86059">
        <ele>1282.8</ele>
        <time>2019-07-16T12:21:09Z</time>
      </trkpt>
      <trkpt lat="44.03717" lon="6.86055">
        <ele>1283.1</ele>
        <time>2019-07-16T12:21:10Z</time>
      </trkpt>
      <trkpt lat="44.0372" lon="6.8605">
        <ele>1283.6</ele>
        <time>2019-07-16T12:21:12Z</time>
      </trkpt>
      <trkpt lat="44.03721" lon="6.86046">
        <ele>1283.9</ele>
        <time>2019-07-16T12:21:14Z</time>
      </trkpt>
      <trkpt lat="44.03723" lon="6.8604">
        <ele>1284.3</ele>
        <time>2019-07-16T12:21:16Z</time>
      </trkpt>
      <trkpt lat="44.03724" lon="6.86035">
        <ele>1284.6</ele>
        <time>2019-07-16T12:21:18Z</time>
      </trkpt>
      <trkpt lat="44.03725" lon="6.86029">
        <ele>1285.1</ele>
        <time>2019-07-16T12:21:20Z</time>
      </trkpt>
      <trkpt lat="44.03726" lon="6.86023">
        <ele>1285.4</ele>
        <time>2019-07-16T12:21:22Z</time>
      </trkpt>
      <trkpt lat="44.03727" lon="6.86018">
        <ele>1285.6</ele>
        <time>2019-07-16T12:21:24Z</time>
      </trkpt>
      <trkpt lat="44.03728" lon="6.86012">
        <ele>1285.8</ele>
        <time>2019-07-16T12:21:26Z</time>
      </trkpt>
      <trkpt lat="44.03729" lon="6.86007">
        <ele>1286</ele>
        <time>2019-07-16T12:21:28Z</time>
      </trkpt>
      <trkpt lat="44.0373" lon="6.86003">
        <ele>1286.1</ele>
        <time>2019-07-16T12:21:30Z</time>
      </trkpt>
      <trkpt lat="44.0373" lon="6.85998">
        <ele>1286.1</ele>
        <time>2019-07-16T12:21:32Z</time>
      </trkpt>
      <trkpt lat="44.0373" lon="6.85993">
        <ele>1286.3</ele>
        <time>2019-07-16T12:21:35Z</time>
      </trkpt>
      <trkpt lat="44.0373" lon="6.85989">
        <ele>1286.3</ele>
        <time>2019-07-16T12:22:25Z</time>
      </trkpt>
      <trkpt lat="44.0373" lon="6.85985">
        <ele>1286.4</ele>
        <time>2019-07-16T12:22:27Z</time>
      </trkpt>
      <trkpt lat="44.0373" lon="6.85981">
        <ele>1286.4</ele>
        <time>2019-07-16T12:22:29Z</time>
      </trkpt>
      <trkpt lat="44.0373" lon="6.85975">
        <ele>1286.5</ele>
        <time>2019-07-16T12:22:31Z</time>
      </trkpt>
      <trkpt lat="44.03731" lon="6.85971">
        <ele>1286.2</ele>
        <time>2019-07-16T12:22:32Z</time>
      </trkpt>
      <trkpt lat="44.03731" lon="6.85966">
        <ele>1286</ele>
        <time>2019-07-16T12:22:33Z</time>
      </trkpt>
      <trkpt lat="44.03731" lon="6.8596">
        <ele>1285.6</ele>
        <time>2019-07-16T12:22:34Z</time>
      </trkpt>
      <trkpt lat="44.03731" lon="6.85953">
        <ele>1285.3</ele>
        <time>2019-07-16T12:22:35Z</time>
      </trkpt>
      <trkpt lat="44.03731" lon="6.85946">
        <ele>1284.9</ele>
        <time>2019-07-16T12:22:36Z</time>
      </trkpt>
      <trkpt lat="44.03732" lon="6.85939">
        <ele>1284.5</ele>
        <time>2019-07-16T12:22:37Z</time>
      </trkpt>
      <trkpt lat="44.03733" lon="6.85932">
        <ele>1284</ele>
        <time>2019-07-16T12:22:38Z</time>
      </trkpt>
      <trkpt lat="44.03735" lon="6.85925">
        <ele>1283.6</ele>
        <time>2019-07-16T12:22:39Z</time>
      </trkpt>
      <trkpt lat="44.03737" lon="6.85919">
        <ele>1283.3</ele>
        <time>2019-07-16T12:22:40Z</time>
      </trkpt>
      <trkpt lat="44.0374" lon="6.85914">
        <ele>1283</ele>
        <time>2019-07-16T12:22:41Z</time>
      </trkpt>
      <trkpt lat="44.03743" lon="6.85909">
        <ele>1282.8</ele>
        <time>2019-07-16T12:22:42Z</time>
      </trkpt>
      <trkpt lat="44.03746" lon="6.85904">
        <ele>1282.6</ele>
        <time>2019-07-16T12:22:43Z</time>
      </trkpt>
      <trkpt lat="44.0375" lon="6.85901">
        <ele>1282.3</ele>
        <time>2019-07-16T12:22:44Z</time>
      </trkpt>
      <trkpt lat="44.03756" lon="6.85899">
        <ele>1282.1</ele>
        <time>2019-07-16T12:22:45Z</time>
      </trkpt>
      <trkpt lat="44.03762" lon="6.85897">
        <ele>1281.8</ele>
        <time>2019-07-16T12:22:46Z</time>
      </trkpt>
      <trkpt lat="44.03767" lon="6.85895">
        <ele>1281.5</ele>
        <time>2019-07-16T12:22:47Z</time>
      </trkpt>
      <trkpt lat="44.03772" lon="6.85894">
        <ele>1281.2</ele>
        <time>2019-07-16T12:22:48Z</time>
      </trkpt>
      <trkpt lat="44.03777" lon="6.85893">
        <ele>1281</ele>
        <time>2019-07-16T12:22:49Z</time>
      </trkpt>
      <trkpt lat="44.03782" lon="6.85892">
        <ele>1280.8</ele>
        <time>2019-07-16T12:22:50Z</time>
      </trkpt>
      <trkpt lat="44.03787" lon="6.85891">
        <ele>1280.6</ele>
        <time>2019-07-16T12:22:51Z</time>
      </trkpt>
      <trkpt lat="44.03792" lon="6.8589">
        <ele>1280.4</ele>
        <time>2019-07-16T12:22:52Z</time>
      </trkpt>
      <trkpt lat="44.03796" lon="6.8589">
        <ele>1280.3</ele>
        <time>2019-07-16T12:22:53Z</time>
      </trkpt>
      <trkpt lat="44.03799" lon="6.85889">
        <ele>1280.2</ele>
        <time>2019-07-16T12:22:54Z</time>
      </trkpt>
      <trkpt lat="44.03802" lon="6.85889">
        <ele>1280.2</ele>
        <time>2019-07-16T12:22:55Z</time>
      </trkpt>
      <trkpt lat="44.03805" lon="6.85889">
        <ele>1280.2</ele>
        <time>2019-07-16T12:22:56Z</time>
      </trkpt>
      <trkpt lat="44.03808" lon="6.85889">
        <ele>1280.2</ele>
        <time>2019-07-16T12:22:57Z</time>
      </trkpt>
      <trkpt lat="44.03811" lon="6.8589">
        <ele>1280.2</ele>
        <time>2019-07-16T12:22:58Z</time>
      </trkpt>
      <trkpt lat="44.03814" lon="6.8589">
        <ele>1280.2</ele>
        <time>2019-07-16T12:22:59Z</time>
      </trkpt>
      <trkpt lat="44.03817" lon="6.8589">
        <ele>1280.2</ele>
        <time>2019-07-16T12:23:00Z</time>
      </trkpt>
      <trkpt lat="44.03821" lon="6.85889">
        <ele>1280.2</ele>
        <time>2019-07-16T12:23:01Z</time>
      </trkpt>
      <trkpt lat="44.03824" lon="6.85889">
        <ele>1280.2</ele>
        <time>2019-07-16T12:23:02Z</time>
      </trkpt>
      <trkpt lat="44.03828" lon="6.85889">
        <ele>1280.3</ele>
        <time>2019-07-16T12:23:03Z</time>
      </trkpt>
      <trkpt lat="44.03831" lon="6.85888">
        <ele>1280.3</ele>
        <time>2019-07-16T12:23:04Z</time>
      </trkpt>
      <trkpt lat="44.03835" lon="6.85889">
        <ele>1280.3</ele>
        <time>2019-07-16T12:23:05Z</time>
      </trkpt>
      <trkpt lat="44.03839" lon="6.8589">
        <ele>1280.4</ele>
        <time>2019-07-16T12:23:06Z</time>
      </trkpt>
      <trkpt lat="44.03843" lon="6.8589">
        <ele>1280.4</ele>
        <time>2019-07-16T12:23:07Z</time>
      </trkpt>
      <trkpt lat="44.03847" lon="6.8589">
        <ele>1280.5</ele>
        <time>2019-07-16T12:23:08Z</time>
      </trkpt>
      <trkpt lat="44.03851" lon="6.8589">
        <ele>1280.5</ele>
        <time>2019-07-16T12:23:09Z</time>
      </trkpt>
      <trkpt lat="44.03856" lon="6.8589">
        <ele>1280.5</ele>
        <time>2019-07-16T12:23:10Z</time>
      </trkpt>
      <trkpt lat="44.0386" lon="6.8589">
        <ele>1280.4</ele>
        <time>2019-07-16T12:23:11Z</time>
      </trkpt>
      <trkpt lat="44.03864" lon="6.85889">
        <ele>1280.4</ele>
        <time>2019-07-16T12:23:12Z</time>
      </trkpt>
      <trkpt lat="44.03868" lon="6.85887">
        <ele>1280.3</ele>
        <time>2019-07-16T12:23:13Z</time>
      </trkpt>
      <trkpt lat="44.03872" lon="6.85886">
        <ele>1280.2</ele>
        <time>2019-07-16T12:23:14Z</time>
      </trkpt>
      <trkpt lat="44.03876" lon="6.85884">
        <ele>1280.1</ele>
        <time>2019-07-16T12:23:15Z</time>
      </trkpt>
      <trkpt lat="44.0388" lon="6.85882">
        <ele>1280</ele>
        <time>2019-07-16T12:23:16Z</time>
      </trkpt>
      <trkpt lat="44.03883" lon="6.8588">
        <ele>1279.8</ele>
        <time>2019-07-16T12:23:17Z</time>
      </trkpt>
      <trkpt lat="44.03888" lon="6.85878">
        <ele>1279.7</ele>
        <time>2019-07-16T12:23:18Z</time>
      </trkpt>
      <trkpt lat="44.03892" lon="6.85875">
        <ele>1279.5</ele>
        <time>2019-07-16T12:23:19Z</time>
      </trkpt>
      <trkpt lat="44.03899" lon="6.85871">
        <ele>1279.3</ele>
        <time>2019-07-16T12:23:20Z</time>
      </trkpt>
      <trkpt lat="44.03905" lon="6.85868">
        <ele>1279</ele>
        <time>2019-07-16T12:23:21Z</time>
      </trkpt>
      <trkpt lat="44.0391" lon="6.85862">
        <ele>1278.6</ele>
        <time>2019-07-16T12:23:22Z</time>
      </trkpt>
      <trkpt lat="44.03916" lon="6.85858">
        <ele>1278.1</ele>
        <time>2019-07-16T12:23:23Z</time>
      </trkpt>
      <trkpt lat="44.03922" lon="6.85855">
        <ele>1277.7</ele>
        <time>2019-07-16T12:23:24Z</time>
      </trkpt>
      <trkpt lat="44.03928" lon="6.85852">
        <ele>1277.1</ele>
        <time>2019-07-16T12:23:25Z</time>
      </trkpt>
      <trkpt lat="44.03935" lon="6.85849">
        <ele>1276.4</ele>
        <time>2019-07-16T12:23:26Z</time>
      </trkpt>
      <trkpt lat="44.03941" lon="6.85847">
        <ele>1275.7</ele>
        <time>2019-07-16T12:23:27Z</time>
      </trkpt>
      <trkpt lat="44.03947" lon="6.85845">
        <ele>1274.9</ele>
        <time>2019-07-16T12:23:28Z</time>
      </trkpt>
      <trkpt lat="44.03953" lon="6.85843">
        <ele>1274.4</ele>
        <time>2019-07-16T12:23:29Z</time>
      </trkpt>
      <trkpt lat="44.0396" lon="6.85842">
        <ele>1274</ele>
        <time>2019-07-16T12:23:30Z</time>
      </trkpt>
      <trkpt lat="44.03965" lon="6.85841">
        <ele>1273.7</ele>
        <time>2019-07-16T12:23:31Z</time>
      </trkpt>
      <trkpt lat="44.0397" lon="6.85841">
        <ele>1273.6</ele>
        <time>2019-07-16T12:23:32Z</time>
      </trkpt>
      <trkpt lat="44.03975" lon="6.85839">
        <ele>1273.5</ele>
        <time>2019-07-16T12:23:33Z</time>
      </trkpt>
      <trkpt lat="44.0398" lon="6.85836">
        <ele>1273.6</ele>
        <time>2019-07-16T12:23:34Z</time>
      </trkpt>
      <trkpt lat="44.03984" lon="6.85834">
        <ele>1273.7</ele>
        <time>2019-07-16T12:23:35Z</time>
      </trkpt>
      <trkpt lat="44.03988" lon="6.85831">
        <ele>1273.9</ele>
        <time>2019-07-16T12:23:36Z</time>
      </trkpt>
      <trkpt lat="44.03992" lon="6.85829">
        <ele>1274.1</ele>
        <time>2019-07-16T12:23:37Z</time>
      </trkpt>
      <trkpt lat="44.03995" lon="6.85828">
        <ele>1274.3</ele>
        <time>2019-07-16T12:23:38Z</time>
      </trkpt>
      <trkpt lat="44.03998" lon="6.85827">
        <ele>1274.5</ele>
        <time>2019-07-16T12:23:39Z</time>
      </trkpt>
      <trkpt lat="44.04002" lon="6.85826">
        <ele>1274.8</ele>
        <time>2019-07-16T12:23:40Z</time>
      </trkpt>
      <trkpt lat="44.04005" lon="6.85825">
        <ele>1275</ele>
        <time>2019-07-16T12:23:41Z</time>
      </trkpt>
      <trkpt lat="44.04008" lon="6.85824">
        <ele>1275.2</ele>
        <time>2019-07-16T12:23:42Z</time>
      </trkpt>
      <trkpt lat="44.04011" lon="6.85822">
        <ele>1275.3</ele>
        <time>2019-07-16T12:23:43Z</time>
      </trkpt>
      <trkpt lat="44.04014" lon="6.85821">
        <ele>1275.5</ele>
        <time>2019-07-16T12:23:45Z</time>
      </trkpt>
      <trkpt lat="44.04019" lon="6.8582">
        <ele>1275.7</ele>
        <time>2019-07-16T12:23:47Z</time>
      </trkpt>
      <trkpt lat="44.04023" lon="6.8582">
        <ele>1275.8</ele>
        <time>2019-07-16T12:23:49Z</time>
      </trkpt>
      <trkpt lat="44.04026" lon="6.85819">
        <ele>1276</ele>
        <time>2019-07-16T12:23:51Z</time>
      </trkpt>
      <trkpt lat="44.0403" lon="6.8582">
        <ele>1276.1</ele>
        <time>2019-07-16T12:23:53Z</time>
      </trkpt>
      <trkpt lat="44.04033" lon="6.85819">
        <ele>1276.1</ele>
        <time>2019-07-16T12:23:55Z</time>
      </trkpt>
      <trkpt lat="44.04036" lon="6.8582">
        <ele>1276.2</ele>
        <time>2019-07-16T12:23:58Z</time>
      </trkpt>
      <trkpt lat="44.0404" lon="6.85819">
        <ele>1276.3</ele>
        <time>2019-07-16T12:24:03Z</time>
      </trkpt>
      <trkpt lat="44.04042" lon="6.85817">
        <ele>1276.4</ele>
        <time>2019-07-16T12:24:06Z</time>
      </trkpt>
      <trkpt lat="44.04044" lon="6.85813">
        <ele>1276.4</ele>
        <time>2019-07-16T12:24:15Z</time>
      </trkpt>
      <trkpt lat="44.0404" lon="6.85812">
        <ele>1276.5</ele>
        <time>2019-07-16T12:25:08Z</time>
      </trkpt>
      <trkpt lat="44.04034" lon="6.85811">
        <ele>1276.6</ele>
        <time>2019-07-16T12:25:10Z</time>
      </trkpt>
      <trkpt lat="44.04031" lon="6.8581">
        <ele>1276.6</ele>
        <time>2019-07-16T12:25:11Z</time>
      </trkpt>
      <trkpt lat="44.04027" lon="6.85809">
        <ele>1276.6</ele>
        <time>2019-07-16T12:25:12Z</time>
      </trkpt>
      <trkpt lat="44.04023" lon="6.85808">
        <ele>1276.6</ele>
        <time>2019-07-16T12:25:13Z</time>
      </trkpt>
      <trkpt lat="44.0402" lon="6.85808">
        <ele>1276.5</ele>
        <time>2019-07-16T12:25:14Z</time>
      </trkpt>
      <trkpt lat="44.04017" lon="6.85807">
        <ele>1276.5</ele>
        <time>2019-07-16T12:25:15Z</time>
      </trkpt>
      <trkpt lat="44.04012" lon="6.85807">
        <ele>1276.5</ele>
        <time>2019-07-16T12:25:17Z</time>
      </trkpt>
      <trkpt lat="44.04018" lon="6.85807">
        <ele>1276.4</ele>
        <time>2019-07-16T12:26:52Z</time>
      </trkpt>
      <trkpt lat="44.04021" lon="6.85808">
        <ele>1276.3</ele>
        <time>2019-07-16T12:27:03Z</time>
      </trkpt>
      <trkpt lat="44.04019" lon="6.85805">
        <ele>1276.2</ele>
        <time>2019-07-16T12:27:25Z</time>
      </trkpt>
      <trkpt lat="44.04015" lon="6.85805">
        <ele>1276.2</ele>
        <time>2019-07-16T12:27:27Z</time>
      </trkpt>
      <trkpt lat="44.04018" lon="6.85804">
        <ele>1276.1</ele>
        <time>2019-07-16T12:27:37Z</time>
      </trkpt>
      <trkpt lat="44.04021" lon="6.85804">
        <ele>1276</ele>
        <time>2019-07-16T12:27:40Z</time>
      </trkpt>
      <trkpt lat="44.04024" lon="6.85803">
        <ele>1275.9</ele>
        <time>2019-07-16T12:27:42Z</time>
      </trkpt>
      <trkpt lat="44.04027" lon="6.85804">
        <ele>1275.8</ele>
        <time>2019-07-16T12:27:44Z</time>
      </trkpt>
      <trkpt lat="44.04031" lon="6.85804">
        <ele>1275.7</ele>
        <time>2019-07-16T12:27:46Z</time>
      </trkpt>
      <trkpt lat="44.04035" lon="6.85803">
        <ele>1275.5</ele>
        <time>2019-07-16T12:27:48Z</time>
      </trkpt>
      <trkpt lat="44.0404" lon="6.85804">
        <ele>1275.3</ele>
        <time>2019-07-16T12:27:50Z</time>
      </trkpt>
      <trkpt lat="44.04044" lon="6.85804">
        <ele>1275</ele>
        <time>2019-07-16T12:27:52Z</time>
      </trkpt>
      <trkpt lat="44.04048" lon="6.85805">
        <ele>1274.8</ele>
        <time>2019-07-16T12:27:54Z</time>
      </trkpt>
      <trkpt lat="44.04051" lon="6.85808">
        <ele>1274.6</ele>
        <time>2019-07-16T12:27:56Z</time>
      </trkpt>
      <trkpt lat="44.04056" lon="6.85808">
        <ele>1274.2</ele>
        <time>2019-07-16T12:27:58Z</time>
      </trkpt>
      <trkpt lat="44.0406" lon="6.85807">
        <ele>1274</ele>
        <time>2019-07-16T12:28:00Z</time>
      </trkpt>
      <trkpt lat="44.04064" lon="6.85803">
        <ele>1273.7</ele>
        <time>2019-07-16T12:28:02Z</time>
      </trkpt>
      <trkpt lat="44.04067" lon="6.85801">
        <ele>1273.5</ele>
        <time>2019-07-16T12:28:03Z</time>
      </trkpt>
      <trkpt lat="44.04071" lon="6.85801">
        <ele>1273.4</ele>
        <time>2019-07-16T12:28:04Z</time>
      </trkpt>
      <trkpt lat="44.04075" lon="6.85801">
        <ele>1273.3</ele>
        <time>2019-07-16T12:28:05Z</time>
      </trkpt>
      <trkpt lat="44.04078" lon="6.85801">
        <ele>1273.2</ele>
        <time>2019-07-16T12:28:06Z</time>
      </trkpt>
      <trkpt lat="44.04082" lon="6.85801">
        <ele>1273.2</ele>
        <time>2019-07-16T12:28:08Z</time>
      </trkpt>
      <trkpt lat="44.04086" lon="6.858">
        <ele>1273.1</ele>
        <time>2019-07-16T12:28:11Z</time>
      </trkpt>
      <trkpt lat="44.04089" lon="6.85799">
        <ele>1273.1</ele>
        <time>2019-07-16T12:28:12Z</time>
      </trkpt>
      <trkpt lat="44.04092" lon="6.85799">
        <ele>1273.1</ele>
        <time>2019-07-16T12:28:13Z</time>
      </trkpt>
      <trkpt lat="44.04095" lon="6.85796">
        <ele>1273.1</ele>
        <time>2019-07-16T12:28:15Z</time>
      </trkpt>
      <trkpt lat="44.041" lon="6.85794">
        <ele>1273.1</ele>
        <time>2019-07-16T12:28:17Z</time>
      </trkpt>
      <trkpt lat="44.04104" lon="6.85793">
        <ele>1273.1</ele>
        <time>2019-07-16T12:28:18Z</time>
      </trkpt>
      <trkpt lat="44.04107" lon="6.85794">
        <ele>1273</ele>
        <time>2019-07-16T12:28:19Z</time>
      </trkpt>
      <trkpt lat="44.0411" lon="6.85795">
        <ele>1273</ele>
        <time>2019-07-16T12:28:20Z</time>
      </trkpt>
      <trkpt lat="44.04113" lon="6.85796">
        <ele>1273</ele>
        <time>2019-07-16T12:28:21Z</time>
      </trkpt>
      <trkpt lat="44.04117" lon="6.85798">
        <ele>1272.9</ele>
        <time>2019-07-16T12:28:22Z</time>
      </trkpt>
      <trkpt lat="44.04121" lon="6.858">
        <ele>1272.8</ele>
        <time>2019-07-16T12:28:24Z</time>
      </trkpt>
      <trkpt lat="44.04126" lon="6.85803">
        <ele>1272.7</ele>
        <time>2019-07-16T12:28:26Z</time>
      </trkpt>
      <trkpt lat="44.0413" lon="6.85807">
        <ele>1272.7</ele>
        <time>2019-07-16T12:28:28Z</time>
      </trkpt>
      <trkpt lat="44.04133" lon="6.85811">
        <ele>1272.6</ele>
        <time>2019-07-16T12:28:30Z</time>
      </trkpt>
      <trkpt lat="44.04137" lon="6.85815">
        <ele>1272.6</ele>
        <time>2019-07-16T12:28:32Z</time>
      </trkpt>
      <trkpt lat="44.04139" lon="6.85819">
        <ele>1272.6</ele>
        <time>2019-07-16T12:28:34Z</time>
      </trkpt>
      <trkpt lat="44.04143" lon="6.85824">
        <ele>1272.7</ele>
        <time>2019-07-16T12:28:36Z</time>
      </trkpt>
      <trkpt lat="44.04145" lon="6.85828">
        <ele>1272.7</ele>
        <time>2019-07-16T12:28:38Z</time>
      </trkpt>
      <trkpt lat="44.04147" lon="6.8583">
        <ele>1272.7</ele>
        <time>2019-07-16T12:28:39Z</time>
      </trkpt>
      <trkpt lat="44.04149" lon="6.85832">
        <ele>1272.8</ele>
        <time>2019-07-16T12:28:40Z</time>
      </trkpt>
      <trkpt lat="44.04151" lon="6.85836">
        <ele>1272.8</ele>
        <time>2019-07-16T12:28:41Z</time>
      </trkpt>
      <trkpt lat="44.04152" lon="6.85842">
        <ele>1272.9</ele>
        <time>2019-07-16T12:28:43Z</time>
      </trkpt>
      <trkpt lat="44.04155" lon="6.8584">
        <ele>1273</ele>
        <time>2019-07-16T12:28:48Z</time>
      </trkpt>
      <trkpt lat="44.04157" lon="6.85844">
        <ele>1273.2</ele>
        <time>2019-07-16T12:28:53Z</time>
      </trkpt>
      <trkpt lat="44.0416" lon="6.85846">
        <ele>1273.3</ele>
        <time>2019-07-16T12:28:59Z</time>
      </trkpt>
      <trkpt lat="44.0416" lon="6.85849">
        <ele>1273.4</ele>
        <time>2019-07-16T12:29:03Z</time>
      </trkpt>
      <trkpt lat="44.0416" lon="6.85854">
        <ele>1273.5</ele>
        <time>2019-07-16T12:29:05Z</time>
      </trkpt>
      <trkpt lat="44.04161" lon="6.85861">
        <ele>1273.7</ele>
        <time>2019-07-16T12:29:07Z</time>
      </trkpt>
      <trkpt lat="44.04162" lon="6.85866">
        <ele>1273.8</ele>
        <time>2019-07-16T12:29:09Z</time>
      </trkpt>
      <trkpt lat="44.04161" lon="6.8587">
        <ele>1273.8</ele>
        <time>2019-07-16T12:29:11Z</time>
      </trkpt>
      <trkpt lat="44.04162" lon="6.85876">
        <ele>1273.9</ele>
        <time>2019-07-16T12:29:13Z</time>
      </trkpt>
      <trkpt lat="44.04161" lon="6.85881">
        <ele>1273.9</ele>
        <time>2019-07-16T12:29:15Z</time>
      </trkpt>
      <trkpt lat="44.04161" lon="6.85886">
        <ele>1273.8</ele>
        <time>2019-07-16T12:29:40Z</time>
      </trkpt>
      <trkpt lat="44.0416" lon="6.85892">
        <ele>1273.8</ele>
        <time>2019-07-16T12:29:46Z</time>
      </trkpt>
      <trkpt lat="44.0416" lon="6.85897">
        <ele>1273.6</ele>
        <time>2019-07-16T12:29:49Z</time>
      </trkpt>
      <trkpt lat="44.04158" lon="6.85902">
        <ele>1273.5</ele>
        <time>2019-07-16T12:29:52Z</time>
      </trkpt>
      <trkpt lat="44.04156" lon="6.85907">
        <ele>1273.3</ele>
        <time>2019-07-16T12:29:54Z</time>
      </trkpt>
      <trkpt lat="44.04153" lon="6.85911">
        <ele>1273.1</ele>
        <time>2019-07-16T12:29:56Z</time>
      </trkpt>
      <trkpt lat="44.04151" lon="6.85913">
        <ele>1272.9</ele>
        <time>2019-07-16T12:29:58Z</time>
      </trkpt>
      <trkpt lat="44.04147" lon="6.85918">
        <ele>1272.6</ele>
        <time>2019-07-16T12:30:00Z</time>
      </trkpt>
      <trkpt lat="44.04143" lon="6.85921">
        <ele>1272.1</ele>
        <time>2019-07-16T12:30:02Z</time>
      </trkpt>
      <trkpt lat="44.04139" lon="6.85926">
        <ele>1271.6</ele>
        <time>2019-07-16T12:30:04Z</time>
      </trkpt>
      <trkpt lat="44.04136" lon="6.8593">
        <ele>1271.1</ele>
        <time>2019-07-16T12:30:06Z</time>
      </trkpt>
      <trkpt lat="44.04134" lon="6.85934">
        <ele>1270.8</ele>
        <time>2019-07-16T12:30:08Z</time>
      </trkpt>
      <trkpt lat="44.04132" lon="6.85938">
        <ele>1270.4</ele>
        <time>2019-07-16T12:30:10Z</time>
      </trkpt>
      <trkpt lat="44.04129" lon="6.85942">
        <ele>1270.1</ele>
        <time>2019-07-16T12:30:12Z</time>
      </trkpt>
      <trkpt lat="44.04124" lon="6.85946">
        <ele>1269.5</ele>
        <time>2019-07-16T12:30:14Z</time>
      </trkpt>
      <trkpt lat="44.04121" lon="6.8595">
        <ele>1269</ele>
        <time>2019-07-16T12:30:16Z</time>
      </trkpt>
      <trkpt lat="44.04119" lon="6.85953">
        <ele>1268.7</ele>
        <time>2019-07-16T12:30:18Z</time>
      </trkpt>
      <trkpt lat="44.04117" lon="6.85959">
        <ele>1268.2</ele>
        <time>2019-07-16T12:30:20Z</time>
      </trkpt>
      <trkpt lat="44.04115" lon="6.85962">
        <ele>1267.9</ele>
        <time>2019-07-16T12:30:21Z</time>
      </trkpt>
      <trkpt lat="44.04112" lon="6.85969">
        <ele>1267.4</ele>
        <time>2019-07-16T12:30:23Z</time>
      </trkpt>
      <trkpt lat="44.04109" lon="6.85973">
        <ele>1267</ele>
        <time>2019-07-16T12:30:24Z</time>
      </trkpt>
      <trkpt lat="44.04105" lon="6.85977">
        <ele>1266.7</ele>
        <time>2019-07-16T12:30:25Z</time>
      </trkpt>
      <trkpt lat="44.04102" lon="6.8598">
        <ele>1266.3</ele>
        <time>2019-07-16T12:30:26Z</time>
      </trkpt>
      <trkpt lat="44.04099" lon="6.85985">
        <ele>1265.9</ele>
        <time>2019-07-16T12:30:27Z</time>
      </trkpt>
      <trkpt lat="44.04095" lon="6.85989">
        <ele>1265.6</ele>
        <time>2019-07-16T12:30:28Z</time>
      </trkpt>
      <trkpt lat="44.0409" lon="6.85994">
        <ele>1265.3</ele>
        <time>2019-07-16T12:30:29Z</time>
      </trkpt>
      <trkpt lat="44.04086" lon="6.85999">
        <ele>1264.9</ele>
        <time>2019-07-16T12:30:30Z</time>
      </trkpt>
      <trkpt lat="44.04082" lon="6.86005">
        <ele>1264.7</ele>
        <time>2019-07-16T12:30:31Z</time>
      </trkpt>
      <trkpt lat="44.04079" lon="6.86009">
        <ele>1264.6</ele>
        <time>2019-07-16T12:30:32Z</time>
      </trkpt>
      <trkpt lat="44.04075" lon="6.86014">
        <ele>1264.5</ele>
        <time>2019-07-16T12:30:33Z</time>
      </trkpt>
      <trkpt lat="44.04072" lon="6.86017">
        <ele>1264.5</ele>
        <time>2019-07-16T12:30:34Z</time>
      </trkpt>
      <trkpt lat="44.0407" lon="6.8602">
        <ele>1264.5</ele>
        <time>2019-07-16T12:30:36Z</time>
      </trkpt>
      <trkpt lat="44.04067" lon="6.86023">
        <ele>1264.6</ele>
        <time>2019-07-16T12:30:38Z</time>
      </trkpt>
      <trkpt lat="44.04064" lon="6.86028">
        <ele>1264.7</ele>
        <time>2019-07-16T12:30:40Z</time>
      </trkpt>
      <trkpt lat="44.04062" lon="6.86035">
        <ele>1264.8</ele>
        <time>2019-07-16T12:30:42Z</time>
      </trkpt>
      <trkpt lat="44.0406" lon="6.86042">
        <ele>1265</ele>
        <time>2019-07-16T12:30:44Z</time>
      </trkpt>
      <trkpt lat="44.04058" lon="6.86046">
        <ele>1265.1</ele>
        <time>2019-07-16T12:30:45Z</time>
      </trkpt>
      <trkpt lat="44.04056" lon="6.8605">
        <ele>1265.2</ele>
        <time>2019-07-16T12:30:46Z</time>
      </trkpt>
      <trkpt lat="44.04056" lon="6.86058">
        <ele>1265.4</ele>
        <time>2019-07-16T12:30:48Z</time>
      </trkpt>
      <trkpt lat="44.04057" lon="6.86062">
        <ele>1265.5</ele>
        <time>2019-07-16T12:30:49Z</time>
      </trkpt>
      <trkpt lat="44.04058" lon="6.86067">
        <ele>1265.7</ele>
        <time>2019-07-16T12:30:50Z</time>
      </trkpt>
      <trkpt lat="44.0406" lon="6.86072">
        <ele>1265.8</ele>
        <time>2019-07-16T12:30:51Z</time>
      </trkpt>
      <trkpt lat="44.04061" lon="6.86077">
        <ele>1266</ele>
        <time>2019-07-16T12:30:53Z</time>
      </trkpt>
      <trkpt lat="44.04062" lon="6.86082">
        <ele>1266.1</ele>
        <time>2019-07-16T12:30:55Z</time>
      </trkpt>
      <trkpt lat="44.04063" lon="6.86087">
        <ele>1266.3</ele>
        <time>2019-07-16T12:30:57Z</time>
      </trkpt>
      <trkpt lat="44.04065" lon="6.86093">
        <ele>1266.5</ele>
        <time>2019-07-16T12:30:59Z</time>
      </trkpt>
      <trkpt lat="44.04066" lon="6.86099">
        <ele>1266.6</ele>
        <time>2019-07-16T12:31:01Z</time>
      </trkpt>
      <trkpt lat="44.04069" lon="6.86101">
        <ele>1266.7</ele>
        <time>2019-07-16T12:31:02Z</time>
      </trkpt>
      <trkpt lat="44.04071" lon="6.86104">
        <ele>1266.7</ele>
        <time>2019-07-16T12:31:03Z</time>
      </trkpt>
      <trkpt lat="44.04073" lon="6.86108">
        <ele>1266.8</ele>
        <time>2019-07-16T12:31:04Z</time>
      </trkpt>
      <trkpt lat="44.04075" lon="6.86111">
        <ele>1266.8</ele>
        <time>2019-07-16T12:31:05Z</time>
      </trkpt>
      <trkpt lat="44.04078" lon="6.86115">
        <ele>1266.9</ele>
        <time>2019-07-16T12:31:06Z</time>
      </trkpt>
      <trkpt lat="44.04081" lon="6.86117">
        <ele>1266.9</ele>
        <time>2019-07-16T12:31:07Z</time>
      </trkpt>
      <trkpt lat="44.04083" lon="6.8612">
        <ele>1267</ele>
        <time>2019-07-16T12:31:08Z</time>
      </trkpt>
      <trkpt lat="44.04085" lon="6.86124">
        <ele>1267</ele>
        <time>2019-07-16T12:31:09Z</time>
      </trkpt>
      <trkpt lat="44.04087" lon="6.86129">
        <ele>1267.1</ele>
        <time>2019-07-16T12:31:10Z</time>
      </trkpt>
      <trkpt lat="44.04088" lon="6.86134">
        <ele>1267.1</ele>
        <time>2019-07-16T12:31:11Z</time>
      </trkpt>
      <trkpt lat="44.0409" lon="6.86137">
        <ele>1267.2</ele>
        <time>2019-07-16T12:31:12Z</time>
      </trkpt>
      <trkpt lat="44.04092" lon="6.8614">
        <ele>1267.2</ele>
        <time>2019-07-16T12:31:13Z</time>
      </trkpt>
      <trkpt lat="44.04094" lon="6.86144">
        <ele>1267.3</ele>
        <time>2019-07-16T12:31:14Z</time>
      </trkpt>
      <trkpt lat="44.04095" lon="6.86149">
        <ele>1267.3</ele>
        <time>2019-07-16T12:31:16Z</time>
      </trkpt>
      <trkpt lat="44.04097" lon="6.86152">
        <ele>1267.4</ele>
        <time>2019-07-16T12:31:18Z</time>
      </trkpt>
      <trkpt lat="44.041" lon="6.86154">
        <ele>1267.4</ele>
        <time>2019-07-16T12:31:19Z</time>
      </trkpt>
      <trkpt lat="44.04102" lon="6.86158">
        <ele>1267.5</ele>
        <time>2019-07-16T12:31:20Z</time>
      </trkpt>
      <trkpt lat="44.04103" lon="6.86162">
        <ele>1267.5</ele>
        <time>2019-07-16T12:31:21Z</time>
      </trkpt>
      <trkpt lat="44.04105" lon="6.86165">
        <ele>1267.6</ele>
        <time>2019-07-16T12:31:22Z</time>
      </trkpt>
      <trkpt lat="44.04107" lon="6.86169">
        <ele>1267.7</ele>
        <time>2019-07-16T12:31:23Z</time>
      </trkpt>
      <trkpt lat="44.04108" lon="6.86173">
        <ele>1267.7</ele>
        <time>2019-07-16T12:31:24Z</time>
      </trkpt>
      <trkpt lat="44.0411" lon="6.86177">
        <ele>1267.8</ele>
        <time>2019-07-16T12:31:26Z</time>
      </trkpt>
      <trkpt lat="44.04113" lon="6.86182">
        <ele>1267.9</ele>
        <time>2019-07-16T12:31:28Z</time>
      </trkpt>
      <trkpt lat="44.04114" lon="6.86186">
        <ele>1268</ele>
        <time>2019-07-16T12:31:29Z</time>
      </trkpt>
      <trkpt lat="44.04117" lon="6.86191">
        <ele>1268.1</ele>
        <time>2019-07-16T12:31:31Z</time>
      </trkpt>
      <trkpt lat="44.04118" lon="6.86195">
        <ele>1268.2</ele>
        <time>2019-07-16T12:31:32Z</time>
      </trkpt>
      <trkpt lat="44.04121" lon="6.86199">
        <ele>1268.3</ele>
        <time>2019-07-16T12:31:33Z</time>
      </trkpt>
      <trkpt lat="44.04123" lon="6.86204">
        <ele>1268.5</ele>
        <time>2019-07-16T12:31:34Z</time>
      </trkpt>
      <trkpt lat="44.04125" lon="6.86209">
        <ele>1268.6</ele>
        <time>2019-07-16T12:31:35Z</time>
      </trkpt>
      <trkpt lat="44.04126" lon="6.86213">
        <ele>1268.7</ele>
        <time>2019-07-16T12:31:36Z</time>
      </trkpt>
      <trkpt lat="44.04128" lon="6.86218">
        <ele>1268.8</ele>
        <time>2019-07-16T12:31:37Z</time>
      </trkpt>
      <trkpt lat="44.0413" lon="6.86223">
        <ele>1268.9</ele>
        <time>2019-07-16T12:31:38Z</time>
      </trkpt>
      <trkpt lat="44.04131" lon="6.86228">
        <ele>1269</ele>
        <time>2019-07-16T12:31:39Z</time>
      </trkpt>
      <trkpt lat="44.04133" lon="6.86231">
        <ele>1269.1</ele>
        <time>2019-07-16T12:31:40Z</time>
      </trkpt>
      <trkpt lat="44.04137" lon="6.86236">
        <ele>1269.3</ele>
        <time>2019-07-16T12:31:42Z</time>
      </trkpt>
      <trkpt lat="44.04139" lon="6.86243">
        <ele>1269.6</ele>
        <time>2019-07-16T12:31:44Z</time>
      </trkpt>
      <trkpt lat="44.04141" lon="6.86248">
        <ele>1269.8</ele>
        <time>2019-07-16T12:31:45Z</time>
      </trkpt>
      <trkpt lat="44.04143" lon="6.86251">
        <ele>1269.9</ele>
        <time>2019-07-16T12:31:46Z</time>
      </trkpt>
      <trkpt lat="44.04144" lon="6.86255">
        <ele>1270</ele>
        <time>2019-07-16T12:31:47Z</time>
      </trkpt>
      <trkpt lat="44.04146" lon="6.86258">
        <ele>1270.1</ele>
        <time>2019-07-16T12:31:48Z</time>
      </trkpt>
      <trkpt lat="44.04148" lon="6.86262">
        <ele>1270.3</ele>
        <time>2019-07-16T12:31:49Z</time>
      </trkpt>
      <trkpt lat="44.04151" lon="6.86266">
        <ele>1270.3</ele>
        <time>2019-07-16T12:31:50Z</time>
      </trkpt>
      <trkpt lat="44.04152" lon="6.86269">
        <ele>1270.4</ele>
        <time>2019-07-16T12:31:51Z</time>
      </trkpt>
      <trkpt lat="44.04155" lon="6.86272">
        <ele>1270.4</ele>
        <time>2019-07-16T12:31:52Z</time>
      </trkpt>
      <trkpt lat="44.04158" lon="6.86278">
        <ele>1270.5</ele>
        <time>2019-07-16T12:31:54Z</time>
      </trkpt>
      <trkpt lat="44.04158" lon="6.86284">
        <ele>1270.5</ele>
        <time>2019-07-16T12:31:56Z</time>
      </trkpt>
      <trkpt lat="44.04159" lon="6.86288">
        <ele>1270.5</ele>
        <time>2019-07-16T12:31:57Z</time>
      </trkpt>
      <trkpt lat="44.0416" lon="6.86292">
        <ele>1270.4</ele>
        <time>2019-07-16T12:31:58Z</time>
      </trkpt>
      <trkpt lat="44.04161" lon="6.86297">
        <ele>1270.3</ele>
        <time>2019-07-16T12:32:00Z</time>
      </trkpt>
      <trkpt lat="44.04161" lon="6.86301">
        <ele>1270.2</ele>
        <time>2019-07-16T12:32:02Z</time>
      </trkpt>
      <trkpt lat="44.04161" lon="6.86307">
        <ele>1270.1</ele>
        <time>2019-07-16T12:32:06Z</time>
      </trkpt>
      <trkpt lat="44.04162" lon="6.86311">
        <ele>1270</ele>
        <time>2019-07-16T12:32:09Z</time>
      </trkpt>
      <trkpt lat="44.04167" lon="6.8632">
        <ele>1269.7</ele>
        <time>2019-07-16T12:32:50Z</time>
      </trkpt>
      <trkpt lat="44.04169" lon="6.86323">
        <ele>1269.5</ele>
        <time>2019-07-16T12:32:52Z</time>
      </trkpt>
      <trkpt lat="44.04172" lon="6.86327">
        <ele>1269.3</ele>
        <time>2019-07-16T12:32:54Z</time>
      </trkpt>
      <trkpt lat="44.04175" lon="6.86332">
        <ele>1269.3</ele>
        <time>2019-07-16T12:32:56Z</time>
      </trkpt>
      <trkpt lat="44.04177" lon="6.86336">
        <ele>1269.3</ele>
        <time>2019-07-16T12:32:57Z</time>
      </trkpt>
      <trkpt lat="44.04179" lon="6.86341">
        <ele>1269.3</ele>
        <time>2019-07-16T12:32:58Z</time>
      </trkpt>
      <trkpt lat="44.04182" lon="6.86345">
        <ele>1269.2</ele>
        <time>2019-07-16T12:32:59Z</time>
      </trkpt>
      <trkpt lat="44.04185" lon="6.86349">
        <ele>1268.3</ele>
        <time>2019-07-16T12:33:00Z</time>
      </trkpt>
      <trkpt lat="44.04187" lon="6.86353">
        <ele>1267.4</ele>
        <time>2019-07-16T12:33:01Z</time>
      </trkpt>
      <trkpt lat="44.04189" lon="6.86358">
        <ele>1266.8</ele>
        <time>2019-07-16T12:33:02Z</time>
      </trkpt>
      <trkpt lat="44.04192" lon="6.86364">
        <ele>1266.3</ele>
        <time>2019-07-16T12:33:04Z</time>
      </trkpt>
      <trkpt lat="44.04194" lon="6.86368">
        <ele>1265.9</ele>
        <time>2019-07-16T12:33:05Z</time>
      </trkpt>
      <trkpt lat="44.04195" lon="6.86373">
        <ele>1265.6</ele>
        <time>2019-07-16T12:33:06Z</time>
      </trkpt>
      <trkpt lat="44.04197" lon="6.86378">
        <ele>1265.3</ele>
        <time>2019-07-16T12:33:07Z</time>
      </trkpt>
      <trkpt lat="44.04199" lon="6.86382">
        <ele>1264.9</ele>
        <time>2019-07-16T12:33:08Z</time>
      </trkpt>
      <trkpt lat="44.04201" lon="6.86387">
        <ele>1264.4</ele>
        <time>2019-07-16T12:33:09Z</time>
      </trkpt>
      <trkpt lat="44.04204" lon="6.8639">
        <ele>1263.6</ele>
        <time>2019-07-16T12:33:10Z</time>
      </trkpt>
      <trkpt lat="44.04205" lon="6.86395">
        <ele>1262.8</ele>
        <time>2019-07-16T12:33:11Z</time>
      </trkpt>
      <trkpt lat="44.04206" lon="6.86401">
        <ele>1262.6</ele>
        <time>2019-07-16T12:33:12Z</time>
      </trkpt>
      <trkpt lat="44.04205" lon="6.86408">
        <ele>1262.6</ele>
        <time>2019-07-16T12:33:13Z</time>
      </trkpt>
      <trkpt lat="44.04205" lon="6.86414">
        <ele>1262.6</ele>
        <time>2019-07-16T12:33:14Z</time>
      </trkpt>
      <trkpt lat="44.04204" lon="6.86422">
        <ele>1263</ele>
        <time>2019-07-16T12:33:15Z</time>
      </trkpt>
      <trkpt lat="44.04202" lon="6.86429">
        <ele>1263.4</ele>
        <time>2019-07-16T12:33:16Z</time>
      </trkpt>
      <trkpt lat="44.04201" lon="6.86436">
        <ele>1263.2</ele>
        <time>2019-07-16T12:33:17Z</time>
      </trkpt>
      <trkpt lat="44.042" lon="6.86443">
        <ele>1263.1</ele>
        <time>2019-07-16T12:33:18Z</time>
      </trkpt>
      <trkpt lat="44.042" lon="6.86449">
        <ele>1263.3</ele>
        <time>2019-07-16T12:33:19Z</time>
      </trkpt>
      <trkpt lat="44.042" lon="6.86454">
        <ele>1263.4</ele>
        <time>2019-07-16T12:33:20Z</time>
      </trkpt>
      <trkpt lat="44.04199" lon="6.86457">
        <ele>1263.2</ele>
        <time>2019-07-16T12:33:21Z</time>
      </trkpt>
      <trkpt lat="44.04198" lon="6.86464">
        <ele>1262.9</ele>
        <time>2019-07-16T12:33:23Z</time>
      </trkpt>
      <trkpt lat="44.04196" lon="6.8647">
        <ele>1262.9</ele>
        <time>2019-07-16T12:33:25Z</time>
      </trkpt>
      <trkpt lat="44.04195" lon="6.86474">
        <ele>1263</ele>
        <time>2019-07-16T12:33:26Z</time>
      </trkpt>
      <trkpt lat="44.04193" lon="6.86479">
        <ele>1263</ele>
        <time>2019-07-16T12:33:27Z</time>
      </trkpt>
      <trkpt lat="44.04193" lon="6.86485">
        <ele>1262.4</ele>
        <time>2019-07-16T12:33:28Z</time>
      </trkpt>
      <trkpt lat="44.04193" lon="6.86489">
        <ele>1262</ele>
        <time>2019-07-16T12:33:29Z</time>
      </trkpt>
      <trkpt lat="44.04193" lon="6.86493">
        <ele>1261.9</ele>
        <time>2019-07-16T12:33:30Z</time>
      </trkpt>
      <trkpt lat="44.04192" lon="6.86498">
        <ele>1261.9</ele>
        <time>2019-07-16T12:33:32Z</time>
      </trkpt>
      <trkpt lat="44.04191" lon="6.86502">
        <ele>1262</ele>
        <time>2019-07-16T12:33:33Z</time>
      </trkpt>
      <trkpt lat="44.0419" lon="6.86506">
        <ele>1261.7</ele>
        <time>2019-07-16T12:33:34Z</time>
      </trkpt>
      <trkpt lat="44.0419" lon="6.86513">
        <ele>1261.2</ele>
        <time>2019-07-16T12:33:36Z</time>
      </trkpt>
      <trkpt lat="44.04188" lon="6.86519">
        <ele>1261.1</ele>
        <time>2019-07-16T12:33:38Z</time>
      </trkpt>
      <trkpt lat="44.04188" lon="6.86524">
        <ele>1261.1</ele>
        <time>2019-07-16T12:33:40Z</time>
      </trkpt>
      <trkpt lat="44.0419" lon="6.86529">
        <ele>1260.9</ele>
        <time>2019-07-16T12:33:41Z</time>
      </trkpt>
      <trkpt lat="44.04194" lon="6.86533">
        <ele>1260</ele>
        <time>2019-07-16T12:33:42Z</time>
      </trkpt>
      <trkpt lat="44.04198" lon="6.86535">
        <ele>1258.7</ele>
        <time>2019-07-16T12:33:43Z</time>
      </trkpt>
      <trkpt lat="44.04201" lon="6.86534">
        <ele>1257.4</ele>
        <time>2019-07-16T12:33:44Z</time>
      </trkpt>
      <trkpt lat="44.04207" lon="6.86533">
        <ele>1254.6</ele>
        <time>2019-07-16T12:33:46Z</time>
      </trkpt>
      <trkpt lat="44.0421" lon="6.86532">
        <ele>1253</ele>
        <time>2019-07-16T12:33:47Z</time>
      </trkpt>
      <trkpt lat="44.04212" lon="6.86531">
        <ele>1252.5</ele>
        <time>2019-07-16T12:33:48Z</time>
      </trkpt>
      <trkpt lat="44.04216" lon="6.8653">
        <ele>1252</ele>
        <time>2019-07-16T12:33:49Z</time>
      </trkpt>
      <trkpt lat="44.04218" lon="6.86528">
        <ele>1251.4</ele>
        <time>2019-07-16T12:33:50Z</time>
      </trkpt>
      <trkpt lat="44.04221" lon="6.86525">
        <ele>1250.4</ele>
        <time>2019-07-16T12:33:51Z</time>
      </trkpt>
      <trkpt lat="44.04224" lon="6.86523">
        <ele>1249.5</ele>
        <time>2019-07-16T12:33:52Z</time>
      </trkpt>
      <trkpt lat="44.04227" lon="6.86518">
        <ele>1248</ele>
        <time>2019-07-16T12:33:54Z</time>
      </trkpt>
      <trkpt lat="44.0423" lon="6.86516">
        <ele>1247.2</ele>
        <time>2019-07-16T12:33:55Z</time>
      </trkpt>
      <trkpt lat="44.0423" lon="6.8652">
        <ele>1246.3</ele>
        <time>2019-07-16T12:34:06Z</time>
      </trkpt>
      <trkpt lat="44.04228" lon="6.86525">
        <ele>1245</ele>
        <time>2019-07-16T12:34:08Z</time>
      </trkpt>
      <trkpt lat="44.04226" lon="6.86531">
        <ele>1243.7</ele>
        <time>2019-07-16T12:34:10Z</time>
      </trkpt>
      <trkpt lat="44.04224" lon="6.86535">
        <ele>1243.1</ele>
        <time>2019-07-16T12:34:11Z</time>
      </trkpt>
      <trkpt lat="44.04221" lon="6.86539">
        <ele>1242.5</ele>
        <time>2019-07-16T12:34:13Z</time>
      </trkpt>
      <trkpt lat="44.0422" lon="6.86544">
        <ele>1242.7</ele>
        <time>2019-07-16T12:34:15Z</time>
      </trkpt>
      <trkpt lat="44.04221" lon="6.86551">
        <ele>1242.8</ele>
        <time>2019-07-16T12:34:17Z</time>
      </trkpt>
      <trkpt lat="44.04225" lon="6.86555">
        <ele>1242</ele>
        <time>2019-07-16T12:34:19Z</time>
      </trkpt>
      <trkpt lat="44.04228" lon="6.86555">
        <ele>1241.5</ele>
        <time>2019-07-16T12:34:21Z</time>
      </trkpt>
      <trkpt lat="44.0423" lon="6.86552">
        <ele>1241.6</ele>
        <time>2019-07-16T12:34:33Z</time>
      </trkpt>
      <trkpt lat="44.04232" lon="6.86549">
        <ele>1241.8</ele>
        <time>2019-07-16T12:34:39Z</time>
      </trkpt>
      <trkpt lat="44.04235" lon="6.86546">
        <ele>1242</ele>
        <time>2019-07-16T12:34:43Z</time>
      </trkpt>
      <trkpt lat="44.04235" lon="6.8655">
        <ele>1240.3</ele>
        <time>2019-07-16T12:34:58Z</time>
      </trkpt>
      <trkpt lat="44.04232" lon="6.86552">
        <ele>1238.4</ele>
        <time>2019-07-16T12:35:09Z</time>
      </trkpt>
      <trkpt lat="44.0423" lon="6.86554">
        <ele>1237</ele>
        <time>2019-07-16T12:35:11Z</time>
      </trkpt>
      <trkpt lat="44.04229" lon="6.86558">
        <ele>1235.7</ele>
        <time>2019-07-16T12:35:13Z</time>
      </trkpt>
      <trkpt lat="44.04228" lon="6.86563">
        <ele>1234.4</ele>
        <time>2019-07-16T12:35:15Z</time>
      </trkpt>
      <trkpt lat="44.04227" lon="6.86567">
        <ele>1234.6</ele>
        <time>2019-07-16T12:35:17Z</time>
      </trkpt>
      <trkpt lat="44.04226" lon="6.86572">
        <ele>1234.9</ele>
        <time>2019-07-16T12:35:19Z</time>
      </trkpt>
      <trkpt lat="44.04227" lon="6.86575">
        <ele>1234.9</ele>
        <time>2019-07-16T12:35:20Z</time>
      </trkpt>
      <trkpt lat="44.0423" lon="6.8658">
        <ele>1234.7</ele>
        <time>2019-07-16T12:35:22Z</time>
      </trkpt>
      <trkpt lat="44.04233" lon="6.86582">
        <ele>1234.6</ele>
        <time>2019-07-16T12:35:24Z</time>
      </trkpt>
      <trkpt lat="44.04238" lon="6.8658">
        <ele>1234.7</ele>
        <time>2019-07-16T12:35:26Z</time>
      </trkpt>
      <trkpt lat="44.04241" lon="6.86578">
        <ele>1233.4</ele>
        <time>2019-07-16T12:35:27Z</time>
      </trkpt>
      <trkpt lat="44.04244" lon="6.86577">
        <ele>1231.5</ele>
        <time>2019-07-16T12:35:28Z</time>
      </trkpt>
      <trkpt lat="44.04246" lon="6.86575">
        <ele>1229.9</ele>
        <time>2019-07-16T12:35:29Z</time>
      </trkpt>
      <trkpt lat="44.04251" lon="6.8657">
        <ele>1228.2</ele>
        <time>2019-07-16T12:35:31Z</time>
      </trkpt>
      <trkpt lat="44.04255" lon="6.86568">
        <ele>1226.5</ele>
        <time>2019-07-16T12:35:33Z</time>
      </trkpt>
      <trkpt lat="44.04259" lon="6.86567">
        <ele>1225.3</ele>
        <time>2019-07-16T12:35:35Z</time>
      </trkpt>
      <trkpt lat="44.04255" lon="6.8657">
        <ele>1223.8</ele>
        <time>2019-07-16T12:35:41Z</time>
      </trkpt>
      <trkpt lat="44.04253" lon="6.86574">
        <ele>1222.5</ele>
        <time>2019-07-16T12:35:43Z</time>
      </trkpt>
      <trkpt lat="44.04251" lon="6.86579">
        <ele>1221.5</ele>
        <time>2019-07-16T12:35:45Z</time>
      </trkpt>
      <trkpt lat="44.04248" lon="6.86584">
        <ele>1221.8</ele>
        <time>2019-07-16T12:35:47Z</time>
      </trkpt>
      <trkpt lat="44.04247" lon="6.86589">
        <ele>1222.1</ele>
        <time>2019-07-16T12:35:49Z</time>
      </trkpt>
      <trkpt lat="44.04245" lon="6.86595">
        <ele>1222.1</ele>
        <time>2019-07-16T12:35:51Z</time>
      </trkpt>
      <trkpt lat="44.04243" lon="6.86599">
        <ele>1222.2</ele>
        <time>2019-07-16T12:35:55Z</time>
      </trkpt>
      <trkpt lat="44.04242" lon="6.86603">
        <ele>1222.2</ele>
        <time>2019-07-16T12:35:57Z</time>
      </trkpt>
      <trkpt lat="44.0424" lon="6.86606">
        <ele>1222.1</ele>
        <time>2019-07-16T12:35:59Z</time>
      </trkpt>
      <trkpt lat="44.0424" lon="6.86611">
        <ele>1222.1</ele>
        <time>2019-07-16T12:36:02Z</time>
      </trkpt>
      <trkpt lat="44.04243" lon="6.86617">
        <ele>1222.1</ele>
        <time>2019-07-16T12:36:04Z</time>
      </trkpt>
      <trkpt lat="44.04242" lon="6.86622">
        <ele>1222.2</ele>
        <time>2019-07-16T12:36:06Z</time>
      </trkpt>
      <trkpt lat="44.04239" lon="6.86625">
        <ele>1222.1</ele>
        <time>2019-07-16T12:36:08Z</time>
      </trkpt>
      <trkpt lat="44.04236" lon="6.86626">
        <ele>1221.8</ele>
        <time>2019-07-16T12:36:10Z</time>
      </trkpt>
      <trkpt lat="44.04233" lon="6.86629">
        <ele>1221.5</ele>
        <time>2019-07-16T12:36:12Z</time>
      </trkpt>
      <trkpt lat="44.0423" lon="6.86631">
        <ele>1221.4</ele>
        <time>2019-07-16T12:36:14Z</time>
      </trkpt>
      <trkpt lat="44.04227" lon="6.86633">
        <ele>1221.4</ele>
        <time>2019-07-16T12:36:16Z</time>
      </trkpt>
      <trkpt lat="44.04224" lon="6.86633">
        <ele>1221.6</ele>
        <time>2019-07-16T12:36:19Z</time>
      </trkpt>
      <trkpt lat="44.0422" lon="6.86634">
        <ele>1222.3</ele>
        <time>2019-07-16T12:36:21Z</time>
      </trkpt>
      <trkpt lat="44.04217" lon="6.86636">
        <ele>1222.8</ele>
        <time>2019-07-16T12:36:24Z</time>
      </trkpt>
      <trkpt lat="44.04215" lon="6.86639">
        <ele>1224</ele>
        <time>2019-07-16T12:36:28Z</time>
      </trkpt>
      <trkpt lat="44.04211" lon="6.8664">
        <ele>1225.9</ele>
        <time>2019-07-16T12:36:30Z</time>
      </trkpt>
      <trkpt lat="44.04207" lon="6.86643">
        <ele>1227.9</ele>
        <time>2019-07-16T12:36:32Z</time>
      </trkpt>
      <trkpt lat="44.04206" lon="6.86646">
        <ele>1228.7</ele>
        <time>2019-07-16T12:36:35Z</time>
      </trkpt>
      <trkpt lat="44.04205" lon="6.8665">
        <ele>1229</ele>
        <time>2019-07-16T12:36:38Z</time>
      </trkpt>
      <trkpt lat="44.04208" lon="6.86653">
        <ele>1229.3</ele>
        <time>2019-07-16T12:36:49Z</time>
      </trkpt>
      <trkpt lat="44.04204" lon="6.86652">
        <ele>1229.9</ele>
        <time>2019-07-16T12:38:12Z</time>
      </trkpt>
      <trkpt lat="44.04202" lon="6.86655">
        <ele>1230.3</ele>
        <time>2019-07-16T12:38:14Z</time>
      </trkpt>
      <trkpt lat="44.04198" lon="6.86658">
        <ele>1231.1</ele>
        <time>2019-07-16T12:38:16Z</time>
      </trkpt>
      <trkpt lat="44.04195" lon="6.86662">
        <ele>1231.1</ele>
        <time>2019-07-16T12:38:18Z</time>
      </trkpt>
      <trkpt lat="44.04193" lon="6.86666">
        <ele>1232.8</ele>
        <time>2019-07-16T12:38:20Z</time>
      </trkpt>
      <trkpt lat="44.04191" lon="6.86672">
        <ele>1233.1</ele>
        <time>2019-07-16T12:38:22Z</time>
      </trkpt>
      <trkpt lat="44.0419" lon="6.86677">
        <ele>1232.6</ele>
        <time>2019-07-16T12:38:24Z</time>
      </trkpt>
      <trkpt lat="44.04191" lon="6.86682">
        <ele>1231.5</ele>
        <time>2019-07-16T12:38:26Z</time>
      </trkpt>
      <trkpt lat="44.04192" lon="6.86688">
        <ele>1230.4</ele>
        <time>2019-07-16T12:38:28Z</time>
      </trkpt>
      <trkpt lat="44.04194" lon="6.86693">
        <ele>1230</ele>
        <time>2019-07-16T12:38:30Z</time>
      </trkpt>
      <trkpt lat="44.04196" lon="6.86699">
        <ele>1228.1</ele>
        <time>2019-07-16T12:38:32Z</time>
      </trkpt>
      <trkpt lat="44.04198" lon="6.86704">
        <ele>1226.4</ele>
        <time>2019-07-16T12:38:33Z</time>
      </trkpt>
      <trkpt lat="44.042" lon="6.86708">
        <ele>1224.8</ele>
        <time>2019-07-16T12:38:34Z</time>
      </trkpt>
      <trkpt lat="44.04201" lon="6.86712">
        <ele>1223.3</ele>
        <time>2019-07-16T12:38:35Z</time>
      </trkpt>
      <trkpt lat="44.04203" lon="6.86716">
        <ele>1221.7</ele>
        <time>2019-07-16T12:38:36Z</time>
      </trkpt>
      <trkpt lat="44.04204" lon="6.8672">
        <ele>1220.2</ele>
        <time>2019-07-16T12:38:37Z</time>
      </trkpt>
      <trkpt lat="44.04204" lon="6.86724">
        <ele>1218.8</ele>
        <time>2019-07-16T12:38:38Z</time>
      </trkpt>
      <trkpt lat="44.04204" lon="6.86729">
        <ele>1216.8</ele>
        <time>2019-07-16T12:38:39Z</time>
      </trkpt>
      <trkpt lat="44.04204" lon="6.86733">
        <ele>1214.9</ele>
        <time>2019-07-16T12:38:40Z</time>
      </trkpt>
      <trkpt lat="44.04203" lon="6.86737">
        <ele>1212.8</ele>
        <time>2019-07-16T12:38:41Z</time>
      </trkpt>
      <trkpt lat="44.04203" lon="6.86741">
        <ele>1211.4</ele>
        <time>2019-07-16T12:38:42Z</time>
      </trkpt>
      <trkpt lat="44.04201" lon="6.8675">
        <ele>1208.4</ele>
        <time>2019-07-16T12:38:44Z</time>
      </trkpt>
      <trkpt lat="44.042" lon="6.86756">
        <ele>1206.8</ele>
        <time>2019-07-16T12:38:45Z</time>
      </trkpt>
      <trkpt lat="44.04197" lon="6.86761">
        <ele>1205.5</ele>
        <time>2019-07-16T12:38:46Z</time>
      </trkpt>
      <trkpt lat="44.04195" lon="6.86765">
        <ele>1204.7</ele>
        <time>2019-07-16T12:38:47Z</time>
      </trkpt>
      <trkpt lat="44.04192" lon="6.86768">
        <ele>1203.8</ele>
        <time>2019-07-16T12:38:48Z</time>
      </trkpt>
      <trkpt lat="44.04189" lon="6.86771">
        <ele>1202.4</ele>
        <time>2019-07-16T12:38:49Z</time>
      </trkpt>
      <trkpt lat="44.04186" lon="6.86775">
        <ele>1201.1</ele>
        <time>2019-07-16T12:38:50Z</time>
      </trkpt>
      <trkpt lat="44.04182" lon="6.86778">
        <ele>1199.9</ele>
        <time>2019-07-16T12:38:51Z</time>
      </trkpt>
      <trkpt lat="44.0418" lon="6.86782">
        <ele>1199.3</ele>
        <time>2019-07-16T12:38:52Z</time>
      </trkpt>
      <trkpt lat="44.04177" lon="6.86788">
        <ele>1199</ele>
        <time>2019-07-16T12:38:54Z</time>
      </trkpt>
      <trkpt lat="44.04176" lon="6.86794">
        <ele>1199.1</ele>
        <time>2019-07-16T12:38:56Z</time>
      </trkpt>
      <trkpt lat="44.04177" lon="6.86799">
        <ele>1198.4</ele>
        <time>2019-07-16T12:38:58Z</time>
      </trkpt>
      <trkpt lat="44.04178" lon="6.86802">
        <ele>1197.9</ele>
        <time>2019-07-16T12:39:01Z</time>
      </trkpt>
      <trkpt lat="44.0418" lon="6.86805">
        <ele>1197.1</ele>
        <time>2019-07-16T12:39:06Z</time>
      </trkpt>
      <trkpt lat="44.04183" lon="6.86806">
        <ele>1196.4</ele>
        <time>2019-07-16T12:39:09Z</time>
      </trkpt>
      <trkpt lat="44.0418" lon="6.8681">
        <ele>1195.3</ele>
        <time>2019-07-16T12:39:13Z</time>
      </trkpt>
      <trkpt lat="44.04178" lon="6.8681">
        <ele>1194.1</ele>
        <time>2019-07-16T12:39:17Z</time>
      </trkpt>
      <trkpt lat="44.04177" lon="6.86815">
        <ele>1192.7</ele>
        <time>2019-07-16T12:39:27Z</time>
      </trkpt>
      <trkpt lat="44.04176" lon="6.86818">
        <ele>1191.4</ele>
        <time>2019-07-16T12:39:28Z</time>
      </trkpt>
      <trkpt lat="44.04176" lon="6.86823">
        <ele>1189.9</ele>
        <time>2019-07-16T12:39:29Z</time>
      </trkpt>
      <trkpt lat="44.04177" lon="6.86829">
        <ele>1188.6</ele>
        <time>2019-07-16T12:39:30Z</time>
      </trkpt>
      <trkpt lat="44.04175" lon="6.86833">
        <ele>1187.5</ele>
        <time>2019-07-16T12:39:31Z</time>
      </trkpt>
      <trkpt lat="44.04173" lon="6.86836">
        <ele>1186.4</ele>
        <time>2019-07-16T12:39:32Z</time>
      </trkpt>
      <trkpt lat="44.04172" lon="6.8684">
        <ele>1185.2</ele>
        <time>2019-07-16T12:39:33Z</time>
      </trkpt>
      <trkpt lat="44.04169" lon="6.86844">
        <ele>1183.6</ele>
        <time>2019-07-16T12:39:35Z</time>
      </trkpt>
      <trkpt lat="44.04168" lon="6.86848">
        <ele>1182.8</ele>
        <time>2019-07-16T12:39:37Z</time>
      </trkpt>
      <trkpt lat="44.04167" lon="6.86852">
        <ele>1182.1</ele>
        <time>2019-07-16T12:39:39Z</time>
      </trkpt>
      <trkpt lat="44.04168" lon="6.86857">
        <ele>1181.3</ele>
        <time>2019-07-16T12:39:54Z</time>
      </trkpt>
      <trkpt lat="44.0417" lon="6.86861">
        <ele>1179.8</ele>
        <time>2019-07-16T12:39:57Z</time>
      </trkpt>
      <trkpt lat="44.04171" lon="6.86865">
        <ele>1178.7</ele>
        <time>2019-07-16T12:40:26Z</time>
      </trkpt>
      <trkpt lat="44.04174" lon="6.86866">
        <ele>1177.5</ele>
        <time>2019-07-16T12:40:36Z</time>
      </trkpt>
      <trkpt lat="44.04175" lon="6.86861">
        <ele>1176.3</ele>
        <time>2019-07-16T12:40:42Z</time>
      </trkpt>
      <trkpt lat="44.04174" lon="6.86857">
        <ele>1175.4</ele>
        <time>2019-07-16T12:41:05Z</time>
      </trkpt>
      <trkpt lat="44.04177" lon="6.86855">
        <ele>1174.3</ele>
        <time>2019-07-16T12:41:15Z</time>
      </trkpt>
      <trkpt lat="44.04181" lon="6.86854">
        <ele>1173.3</ele>
        <time>2019-07-16T12:41:22Z</time>
      </trkpt>
      <trkpt lat="44.04183" lon="6.86851">
        <ele>1172.3</ele>
        <time>2019-07-16T12:41:24Z</time>
      </trkpt>
      <trkpt lat="44.04185" lon="6.86848">
        <ele>1171.3</ele>
        <time>2019-07-16T12:41:30Z</time>
      </trkpt>
      <trkpt lat="44.04188" lon="6.86846">
        <ele>1170.2</ele>
        <time>2019-07-16T12:41:32Z</time>
      </trkpt>
      <trkpt lat="44.0419" lon="6.86843">
        <ele>1169.1</ele>
        <time>2019-07-16T12:41:34Z</time>
      </trkpt>
      <trkpt lat="44.04193" lon="6.86841">
        <ele>1168.3</ele>
        <time>2019-07-16T12:41:36Z</time>
      </trkpt>
      <trkpt lat="44.04196" lon="6.86838">
        <ele>1167.8</ele>
        <time>2019-07-16T12:41:39Z</time>
      </trkpt>
      <trkpt lat="44.04199" lon="6.86836">
        <ele>1167.3</ele>
        <time>2019-07-16T12:41:42Z</time>
      </trkpt>
      <trkpt lat="44.04199" lon="6.86841">
        <ele>1166.9</ele>
        <time>2019-07-16T12:41:46Z</time>
      </trkpt>
      <trkpt lat="44.04197" lon="6.86845">
        <ele>1166.5</ele>
        <time>2019-07-16T12:41:48Z</time>
      </trkpt>
      <trkpt lat="44.04196" lon="6.8685">
        <ele>1165</ele>
        <time>2019-07-16T12:41:51Z</time>
      </trkpt>
      <trkpt lat="44.04196" lon="6.86854">
        <ele>1163.5</ele>
        <time>2019-07-16T12:41:54Z</time>
      </trkpt>
      <trkpt lat="44.04194" lon="6.8686">
        <ele>1162.4</ele>
        <time>2019-07-16T12:41:56Z</time>
      </trkpt>
      <trkpt lat="44.04194" lon="6.86866">
        <ele>1161.9</ele>
        <time>2019-07-16T12:41:58Z</time>
      </trkpt>
      <trkpt lat="44.04193" lon="6.86871">
        <ele>1161.2</ele>
        <time>2019-07-16T12:42:00Z</time>
      </trkpt>
      <trkpt lat="44.04192" lon="6.86876">
        <ele>1160.4</ele>
        <time>2019-07-16T12:42:02Z</time>
      </trkpt>
      <trkpt lat="44.04191" lon="6.86881">
        <ele>1159.6</ele>
        <time>2019-07-16T12:42:04Z</time>
      </trkpt>
      <trkpt lat="44.04189" lon="6.86887">
        <ele>1159.1</ele>
        <time>2019-07-16T12:42:06Z</time>
      </trkpt>
      <trkpt lat="44.04188" lon="6.86893">
        <ele>1157.9</ele>
        <time>2019-07-16T12:42:08Z</time>
      </trkpt>
      <trkpt lat="44.04187" lon="6.869">
        <ele>1155.9</ele>
        <time>2019-07-16T12:42:10Z</time>
      </trkpt>
      <trkpt lat="44.04186" lon="6.86903">
        <ele>1154.6</ele>
        <time>2019-07-16T12:42:11Z</time>
      </trkpt>
      <trkpt lat="44.04183" lon="6.86906">
        <ele>1153</ele>
        <time>2019-07-16T12:42:15Z</time>
      </trkpt>
      <trkpt lat="44.04182" lon="6.8691">
        <ele>1152</ele>
        <time>2019-07-16T12:42:24Z</time>
      </trkpt>
      <trkpt lat="44.04184" lon="6.86915">
        <ele>1151.1</ele>
        <time>2019-07-16T12:42:27Z</time>
      </trkpt>
      <trkpt lat="44.04187" lon="6.86916">
        <ele>1150.9</ele>
        <time>2019-07-16T12:42:32Z</time>
      </trkpt>
      <trkpt lat="44.0419" lon="6.86917">
        <ele>1150.7</ele>
        <time>2019-07-16T12:42:34Z</time>
      </trkpt>
      <trkpt lat="44.04194" lon="6.86916">
        <ele>1150.2</ele>
        <time>2019-07-16T12:42:36Z</time>
      </trkpt>
      <trkpt lat="44.04198" lon="6.86914">
        <ele>1149.7</ele>
        <time>2019-07-16T12:42:38Z</time>
      </trkpt>
      <trkpt lat="44.04201" lon="6.86912">
        <ele>1149.3</ele>
        <time>2019-07-16T12:42:39Z</time>
      </trkpt>
      <trkpt lat="44.04204" lon="6.86908">
        <ele>1149.4</ele>
        <time>2019-07-16T12:42:41Z</time>
      </trkpt>
      <trkpt lat="44.04204" lon="6.86912">
        <ele>1149.4</ele>
        <time>2019-07-16T12:42:45Z</time>
      </trkpt>
      <trkpt lat="44.04203" lon="6.86916">
        <ele>1149.3</ele>
        <time>2019-07-16T12:42:47Z</time>
      </trkpt>
      <trkpt lat="44.042" lon="6.8692">
        <ele>1149.1</ele>
        <time>2019-07-16T12:42:49Z</time>
      </trkpt>
      <trkpt lat="44.04198" lon="6.86923">
        <ele>1148.8</ele>
        <time>2019-07-16T12:42:51Z</time>
      </trkpt>
      <trkpt lat="44.04195" lon="6.86927">
        <ele>1146.5</ele>
        <time>2019-07-16T12:42:53Z</time>
      </trkpt>
      <trkpt lat="44.04193" lon="6.8693">
        <ele>1144.5</ele>
        <time>2019-07-16T12:42:55Z</time>
      </trkpt>
      <trkpt lat="44.04191" lon="6.86934">
        <ele>1142.5</ele>
        <time>2019-07-16T12:42:57Z</time>
      </trkpt>
      <trkpt lat="44.04187" lon="6.86938">
        <ele>1144.3</ele>
        <time>2019-07-16T12:42:59Z</time>
      </trkpt>
      <trkpt lat="44.04184" lon="6.8694">
        <ele>1145.6</ele>
        <time>2019-07-16T12:43:01Z</time>
      </trkpt>
      <trkpt lat="44.04181" lon="6.86941">
        <ele>1146</ele>
        <time>2019-07-16T12:43:06Z</time>
      </trkpt>
      <trkpt lat="44.04182" lon="6.86945">
        <ele>1146.1</ele>
        <time>2019-07-16T12:43:08Z</time>
      </trkpt>
      <trkpt lat="44.04184" lon="6.86948">
        <ele>1146.3</ele>
        <time>2019-07-16T12:43:11Z</time>
      </trkpt>
      <trkpt lat="44.04186" lon="6.86951">
        <ele>1147</ele>
        <time>2019-07-16T12:43:25Z</time>
      </trkpt>
      <trkpt lat="44.0419" lon="6.86953">
        <ele>1148.3</ele>
        <time>2019-07-16T12:43:27Z</time>
      </trkpt>
      <trkpt lat="44.04188" lon="6.86956">
        <ele>1149</ele>
        <time>2019-07-16T12:43:30Z</time>
      </trkpt>
      <trkpt lat="44.04184" lon="6.86957">
        <ele>1148.1</ele>
        <time>2019-07-16T12:43:32Z</time>
      </trkpt>
      <trkpt lat="44.04182" lon="6.86956">
        <ele>1147.4</ele>
        <time>2019-07-16T12:43:33Z</time>
      </trkpt>
      <trkpt lat="44.04179" lon="6.86954">
        <ele>1146.7</ele>
        <time>2019-07-16T12:43:34Z</time>
      </trkpt>
      <trkpt lat="44.04176" lon="6.86953">
        <ele>1146.1</ele>
        <time>2019-07-16T12:43:35Z</time>
      </trkpt>
      <trkpt lat="44.04173" lon="6.86953">
        <ele>1145.6</ele>
        <time>2019-07-16T12:43:36Z</time>
      </trkpt>
      <trkpt lat="44.04169" lon="6.86957">
        <ele>1144.1</ele>
        <time>2019-07-16T12:43:38Z</time>
      </trkpt>
      <trkpt lat="44.04165" lon="6.8696">
        <ele>1142.7</ele>
        <time>2019-07-16T12:43:40Z</time>
      </trkpt>
      <trkpt lat="44.04163" lon="6.86967">
        <ele>1140.4</ele>
        <time>2019-07-16T12:43:42Z</time>
      </trkpt>
      <trkpt lat="44.04161" lon="6.86972">
        <ele>1139.4</ele>
        <time>2019-07-16T12:43:43Z</time>
      </trkpt>
      <trkpt lat="44.0416" lon="6.86976">
        <ele>1139</ele>
        <time>2019-07-16T12:43:44Z</time>
      </trkpt>
      <trkpt lat="44.04158" lon="6.8698">
        <ele>1138.5</ele>
        <time>2019-07-16T12:43:45Z</time>
      </trkpt>
      <trkpt lat="44.04157" lon="6.86985">
        <ele>1137.5</ele>
        <time>2019-07-16T12:43:46Z</time>
      </trkpt>
      <trkpt lat="44.04155" lon="6.86988">
        <ele>1136.5</ele>
        <time>2019-07-16T12:43:47Z</time>
      </trkpt>
      <trkpt lat="44.0415" lon="6.86992">
        <ele>1133.8</ele>
        <time>2019-07-16T12:43:49Z</time>
      </trkpt>
      <trkpt lat="44.04147" lon="6.86996">
        <ele>1133.9</ele>
        <time>2019-07-16T12:43:51Z</time>
      </trkpt>
      <trkpt lat="44.04145" lon="6.86999">
        <ele>1133.8</ele>
        <time>2019-07-16T12:43:53Z</time>
      </trkpt>
      <trkpt lat="44.04143" lon="6.87002">
        <ele>1132.9</ele>
        <time>2019-07-16T12:43:59Z</time>
      </trkpt>
      <trkpt lat="44.04143" lon="6.87006">
        <ele>1132.1</ele>
        <time>2019-07-16T12:44:02Z</time>
      </trkpt>
      <trkpt lat="44.04146" lon="6.87009">
        <ele>1131</ele>
        <time>2019-07-16T12:44:05Z</time>
      </trkpt>
      <trkpt lat="44.04148" lon="6.8701">
        <ele>1130</ele>
        <time>2019-07-16T12:44:09Z</time>
      </trkpt>
      <trkpt lat="44.04152" lon="6.87011">
        <ele>1128.2</ele>
        <time>2019-07-16T12:44:14Z</time>
      </trkpt>
      <trkpt lat="44.04156" lon="6.87007">
        <ele>1126.1</ele>
        <time>2019-07-16T12:44:16Z</time>
      </trkpt>
      <trkpt lat="44.04155" lon="6.87011">
        <ele>1124.8</ele>
        <time>2019-07-16T12:44:23Z</time>
      </trkpt>
      <trkpt lat="44.04153" lon="6.87013">
        <ele>1123.7</ele>
        <time>2019-07-16T12:44:25Z</time>
      </trkpt>
      <trkpt lat="44.0415" lon="6.87015">
        <ele>1122.4</ele>
        <time>2019-07-16T12:44:27Z</time>
      </trkpt>
      <trkpt lat="44.04146" lon="6.87017">
        <ele>1121.5</ele>
        <time>2019-07-16T12:44:29Z</time>
      </trkpt>
      <trkpt lat="44.04145" lon="6.8702">
        <ele>1121.4</ele>
        <time>2019-07-16T12:44:31Z</time>
      </trkpt>
      <trkpt lat="44.04146" lon="6.87024">
        <ele>1121.3</ele>
        <time>2019-07-16T12:44:35Z</time>
      </trkpt>
      <trkpt lat="44.04148" lon="6.87027">
        <ele>1121.1</ele>
        <time>2019-07-16T12:44:43Z</time>
      </trkpt>
      <trkpt lat="44.04152" lon="6.87027">
        <ele>1120.9</ele>
        <time>2019-07-16T12:44:46Z</time>
      </trkpt>
      <trkpt lat="44.04155" lon="6.87026">
        <ele>1120.7</ele>
        <time>2019-07-16T12:44:48Z</time>
      </trkpt>
      <trkpt lat="44.04158" lon="6.87028">
        <ele>1120.2</ele>
        <time>2019-07-16T12:44:51Z</time>
      </trkpt>
      <trkpt lat="44.04161" lon="6.87031">
        <ele>1119.5</ele>
        <time>2019-07-16T12:44:54Z</time>
      </trkpt>
      <trkpt lat="44.04165" lon="6.87034">
        <ele>1118.5</ele>
        <time>2019-07-16T12:44:56Z</time>
      </trkpt>
      <trkpt lat="44.04168" lon="6.87032">
        <ele>1118.1</ele>
        <time>2019-07-16T12:44:59Z</time>
      </trkpt>
      <trkpt lat="44.04168" lon="6.87036">
        <ele>1117.6</ele>
        <time>2019-07-16T12:45:07Z</time>
      </trkpt>
      <trkpt lat="44.04164" lon="6.87039">
        <ele>1117.2</ele>
        <time>2019-07-16T12:45:09Z</time>
      </trkpt>
      <trkpt lat="44.04162" lon="6.87041">
        <ele>1116.9</ele>
        <time>2019-07-16T12:45:10Z</time>
      </trkpt>
      <trkpt lat="44.04159" lon="6.87043">
        <ele>1116.5</ele>
        <time>2019-07-16T12:45:11Z</time>
      </trkpt>
      <trkpt lat="44.04156" lon="6.87048">
        <ele>1115.1</ele>
        <time>2019-07-16T12:45:13Z</time>
      </trkpt>
      <trkpt lat="44.04154" lon="6.87052">
        <ele>1113.7</ele>
        <time>2019-07-16T12:45:15Z</time>
      </trkpt>
      <trkpt lat="44.04151" lon="6.87056">
        <ele>1112.6</ele>
        <time>2019-07-16T12:45:17Z</time>
      </trkpt>
      <trkpt lat="44.0415" lon="6.87061">
        <ele>1111.5</ele>
        <time>2019-07-16T12:45:19Z</time>
      </trkpt>
      <trkpt lat="44.04147" lon="6.87066">
        <ele>1110.1</ele>
        <time>2019-07-16T12:45:21Z</time>
      </trkpt>
      <trkpt lat="44.04147" lon="6.8707">
        <ele>1109.2</ele>
        <time>2019-07-16T12:45:23Z</time>
      </trkpt>
      <trkpt lat="44.04149" lon="6.87073">
        <ele>1108.1</ele>
        <time>2019-07-16T12:45:24Z</time>
      </trkpt>
      <trkpt lat="44.04151" lon="6.87075">
        <ele>1107.2</ele>
        <time>2019-07-16T12:45:25Z</time>
      </trkpt>
      <trkpt lat="44.04154" lon="6.87074">
        <ele>1106.3</ele>
        <time>2019-07-16T12:45:27Z</time>
      </trkpt>
      <trkpt lat="44.04158" lon="6.87072">
        <ele>1104.8</ele>
        <time>2019-07-16T12:45:29Z</time>
      </trkpt>
      <trkpt lat="44.04162" lon="6.87071">
        <ele>1103.1</ele>
        <time>2019-07-16T12:45:31Z</time>
      </trkpt>
      <trkpt lat="44.04166" lon="6.8707">
        <ele>1101.9</ele>
        <time>2019-07-16T12:45:33Z</time>
      </trkpt>
      <trkpt lat="44.04168" lon="6.87073">
        <ele>1101.1</ele>
        <time>2019-07-16T12:45:38Z</time>
      </trkpt>
      <trkpt lat="44.04169" lon="6.87077">
        <ele>1100.7</ele>
        <time>2019-07-16T12:45:40Z</time>
      </trkpt>
      <trkpt lat="44.04169" lon="6.87082">
        <ele>1100.6</ele>
        <time>2019-07-16T12:45:42Z</time>
      </trkpt>
      <trkpt lat="44.04169" lon="6.87087">
        <ele>1101.2</ele>
        <time>2019-07-16T12:45:44Z</time>
      </trkpt>
      <trkpt lat="44.04168" lon="6.87093">
        <ele>1101</ele>
        <time>2019-07-16T12:45:46Z</time>
      </trkpt>
      <trkpt lat="44.04167" lon="6.87098">
        <ele>1099.2</ele>
        <time>2019-07-16T12:45:48Z</time>
      </trkpt>
      <trkpt lat="44.0417" lon="6.87103">
        <ele>1097.2</ele>
        <time>2019-07-16T12:45:50Z</time>
      </trkpt>
      <trkpt lat="44.04174" lon="6.87104">
        <ele>1096.3</ele>
        <time>2019-07-16T12:45:52Z</time>
      </trkpt>
      <trkpt lat="44.04176" lon="6.871">
        <ele>1095.3</ele>
        <time>2019-07-16T12:45:54Z</time>
      </trkpt>
      <trkpt lat="44.04176" lon="6.87105">
        <ele>1094.2</ele>
        <time>2019-07-16T12:45:59Z</time>
      </trkpt>
      <trkpt lat="44.04177" lon="6.8711">
        <ele>1093</ele>
        <time>2019-07-16T12:46:01Z</time>
      </trkpt>
      <trkpt lat="44.04177" lon="6.87114">
        <ele>1093.1</ele>
        <time>2019-07-16T12:46:02Z</time>
      </trkpt>
      <trkpt lat="44.04177" lon="6.87119">
        <ele>1093.3</ele>
        <time>2019-07-16T12:46:03Z</time>
      </trkpt>
      <trkpt lat="44.04175" lon="6.87126">
        <ele>1093.2</ele>
        <time>2019-07-16T12:46:05Z</time>
      </trkpt>
      <trkpt lat="44.04174" lon="6.8713">
        <ele>1093</ele>
        <time>2019-07-16T12:46:57Z</time>
      </trkpt>
      <trkpt lat="44.04173" lon="6.87134">
        <ele>1092.5</ele>
        <time>2019-07-16T12:46:59Z</time>
      </trkpt>
      <trkpt lat="44.04171" lon="6.87137">
        <ele>1091.5</ele>
        <time>2019-07-16T12:47:03Z</time>
      </trkpt>
      <trkpt lat="44.04168" lon="6.87142">
        <ele>1090</ele>
        <time>2019-07-16T12:47:06Z</time>
      </trkpt>
      <trkpt lat="44.04172" lon="6.87147">
        <ele>1088.5</ele>
        <time>2019-07-16T12:47:08Z</time>
      </trkpt>
      <trkpt lat="44.04175" lon="6.87151">
        <ele>1087.8</ele>
        <time>2019-07-16T12:47:10Z</time>
      </trkpt>
      <trkpt lat="44.04179" lon="6.87153">
        <ele>1087.2</ele>
        <time>2019-07-16T12:47:12Z</time>
      </trkpt>
      <trkpt lat="44.04183" lon="6.87152">
        <ele>1086.4</ele>
        <time>2019-07-16T12:47:14Z</time>
      </trkpt>
      <trkpt lat="44.04184" lon="6.87148">
        <ele>1085.9</ele>
        <time>2019-07-16T12:47:16Z</time>
      </trkpt>
      <trkpt lat="44.04188" lon="6.87145">
        <ele>1085.4</ele>
        <time>2019-07-16T12:47:18Z</time>
      </trkpt>
      <trkpt lat="44.04191" lon="6.87143">
        <ele>1084.5</ele>
        <time>2019-07-16T12:47:20Z</time>
      </trkpt>
      <trkpt lat="44.04191" lon="6.87148">
        <ele>1083.6</ele>
        <time>2019-07-16T12:47:24Z</time>
      </trkpt>
      <trkpt lat="44.04191" lon="6.87152">
        <ele>1083</ele>
        <time>2019-07-16T12:47:26Z</time>
      </trkpt>
      <trkpt lat="44.04193" lon="6.87155">
        <ele>1082.5</ele>
        <time>2019-07-16T12:47:29Z</time>
      </trkpt>
      <trkpt lat="44.04197" lon="6.87154">
        <ele>1081.9</ele>
        <time>2019-07-16T12:47:31Z</time>
      </trkpt>
      <trkpt lat="44.04201" lon="6.87153">
        <ele>1081.5</ele>
        <time>2019-07-16T12:47:33Z</time>
      </trkpt>
      <trkpt lat="44.04205" lon="6.87153">
        <ele>1080.9</ele>
        <time>2019-07-16T12:47:35Z</time>
      </trkpt>
      <trkpt lat="44.04207" lon="6.8715">
        <ele>1080.5</ele>
        <time>2019-07-16T12:47:36Z</time>
      </trkpt>
      <trkpt lat="44.04209" lon="6.87146">
        <ele>1079.8</ele>
        <time>2019-07-16T12:47:37Z</time>
      </trkpt>
      <trkpt lat="44.04211" lon="6.87142">
        <ele>1079.2</ele>
        <time>2019-07-16T12:47:38Z</time>
      </trkpt>
      <trkpt lat="44.04213" lon="6.87139">
        <ele>1078.5</ele>
        <time>2019-07-16T12:47:39Z</time>
      </trkpt>
      <trkpt lat="44.04213" lon="6.87146">
        <ele>1077.3</ele>
        <time>2019-07-16T12:47:44Z</time>
      </trkpt>
      <trkpt lat="44.04213" lon="6.87151">
        <ele>1076.6</ele>
        <time>2019-07-16T12:47:46Z</time>
      </trkpt>
      <trkpt lat="44.04211" lon="6.87157">
        <ele>1076</ele>
        <time>2019-07-16T12:47:48Z</time>
      </trkpt>
      <trkpt lat="44.04213" lon="6.87164">
        <ele>1075.8</ele>
        <time>2019-07-16T12:47:50Z</time>
      </trkpt>
      <trkpt lat="44.04211" lon="6.87167">
        <ele>1075.7</ele>
        <time>2019-07-16T12:47:52Z</time>
      </trkpt>
      <trkpt lat="44.04208" lon="6.87172">
        <ele>1075.7</ele>
        <time>2019-07-16T12:47:54Z</time>
      </trkpt>
      <trkpt lat="44.04206" lon="6.87177">
        <ele>1075.6</ele>
        <time>2019-07-16T12:47:56Z</time>
      </trkpt>
      <trkpt lat="44.04206" lon="6.87183">
        <ele>1074.1</ele>
        <time>2019-07-16T12:47:58Z</time>
      </trkpt>
      <trkpt lat="44.04207" lon="6.87188">
        <ele>1073.5</ele>
        <time>2019-07-16T12:47:59Z</time>
      </trkpt>
      <trkpt lat="44.04208" lon="6.87192">
        <ele>1073</ele>
        <time>2019-07-16T12:48:00Z</time>
      </trkpt>
      <trkpt lat="44.04211" lon="6.87195">
        <ele>1072.7</ele>
        <time>2019-07-16T12:48:01Z</time>
      </trkpt>
      <trkpt lat="44.04214" lon="6.87196">
        <ele>1072.5</ele>
        <time>2019-07-16T12:48:02Z</time>
      </trkpt>
      <trkpt lat="44.04216" lon="6.87195">
        <ele>1072.3</ele>
        <time>2019-07-16T12:48:03Z</time>
      </trkpt>
      <trkpt lat="44.04219" lon="6.87193">
        <ele>1072.4</ele>
        <time>2019-07-16T12:48:04Z</time>
      </trkpt>
      <trkpt lat="44.04221" lon="6.87189">
        <ele>1072.4</ele>
        <time>2019-07-16T12:48:05Z</time>
      </trkpt>
      <trkpt lat="44.04222" lon="6.87185">
        <ele>1072.3</ele>
        <time>2019-07-16T12:48:06Z</time>
      </trkpt>
      <trkpt lat="44.04223" lon="6.87181">
        <ele>1072.2</ele>
        <time>2019-07-16T12:48:07Z</time>
      </trkpt>
      <trkpt lat="44.04224" lon="6.87177">
        <ele>1072.1</ele>
        <time>2019-07-16T12:48:08Z</time>
      </trkpt>
      <trkpt lat="44.04226" lon="6.87173">
        <ele>1072</ele>
        <time>2019-07-16T12:48:09Z</time>
      </trkpt>
      <trkpt lat="44.04228" lon="6.8717">
        <ele>1071.9</ele>
        <time>2019-07-16T12:48:11Z</time>
      </trkpt>
      <trkpt lat="44.04231" lon="6.87169">
        <ele>1071.5</ele>
        <time>2019-07-16T12:48:23Z</time>
      </trkpt>
      <trkpt lat="44.04234" lon="6.87167">
        <ele>1071</ele>
        <time>2019-07-16T12:48:37Z</time>
      </trkpt>
      <trkpt lat="44.04235" lon="6.87163">
        <ele>1070.6</ele>
        <time>2019-07-16T12:48:39Z</time>
      </trkpt>
      <trkpt lat="44.04236" lon="6.87168">
        <ele>1070.3</ele>
        <time>2019-07-16T12:48:50Z</time>
      </trkpt>
      <trkpt lat="44.04234" lon="6.8717">
        <ele>1070</ele>
        <time>2019-07-16T12:48:53Z</time>
      </trkpt>
      <trkpt lat="44.04234" lon="6.87176">
        <ele>1069.6</ele>
        <time>2019-07-16T12:48:56Z</time>
      </trkpt>
      <trkpt lat="44.04234" lon="6.8718">
        <ele>1069.3</ele>
        <time>2019-07-16T12:48:59Z</time>
      </trkpt>
      <trkpt lat="44.04234" lon="6.87186">
        <ele>1068.7</ele>
        <time>2019-07-16T12:49:02Z</time>
      </trkpt>
      <trkpt lat="44.04234" lon="6.8719">
        <ele>1068.3</ele>
        <time>2019-07-16T12:49:04Z</time>
      </trkpt>
      <trkpt lat="44.04235" lon="6.87194">
        <ele>1067.9</ele>
        <time>2019-07-16T12:49:06Z</time>
      </trkpt>
      <trkpt lat="44.04238" lon="6.87197">
        <ele>1067.5</ele>
        <time>2019-07-16T12:49:08Z</time>
      </trkpt>
      <trkpt lat="44.04241" lon="6.87198">
        <ele>1067.4</ele>
        <time>2019-07-16T12:49:11Z</time>
      </trkpt>
      <trkpt lat="44.04244" lon="6.87197">
        <ele>1067.2</ele>
        <time>2019-07-16T12:49:16Z</time>
      </trkpt>
      <trkpt lat="44.04246" lon="6.87195">
        <ele>1067</ele>
        <time>2019-07-16T12:49:19Z</time>
      </trkpt>
      <trkpt lat="44.04249" lon="6.87192">
        <ele>1066.6</ele>
        <time>2019-07-16T12:49:22Z</time>
      </trkpt>
      <trkpt lat="44.04252" lon="6.8719">
        <ele>1066.5</ele>
        <time>2019-07-16T12:49:24Z</time>
      </trkpt>
      <trkpt lat="44.04254" lon="6.87186">
        <ele>1066.4</ele>
        <time>2019-07-16T12:49:27Z</time>
      </trkpt>
      <trkpt lat="44.04257" lon="6.87185">
        <ele>1066.1</ele>
        <time>2019-07-16T12:49:33Z</time>
      </trkpt>
      <trkpt lat="44.04266" lon="6.87184">
        <ele>1065.4</ele>
        <time>2019-07-16T12:50:03Z</time>
      </trkpt>
      <trkpt lat="44.0427" lon="6.87186">
        <ele>1065.1</ele>
        <time>2019-07-16T12:50:05Z</time>
      </trkpt>
      <trkpt lat="44.04274" lon="6.87187">
        <ele>1064.8</ele>
        <time>2019-07-16T12:50:07Z</time>
      </trkpt>
      <trkpt lat="44.04278" lon="6.87188">
        <ele>1064.5</ele>
        <time>2019-07-16T12:50:09Z</time>
      </trkpt>
      <trkpt lat="44.04282" lon="6.8719">
        <ele>1064.2</ele>
        <time>2019-07-16T12:50:11Z</time>
      </trkpt>
      <trkpt lat="44.04285" lon="6.87191">
        <ele>1064</ele>
        <time>2019-07-16T12:50:13Z</time>
      </trkpt>
      <trkpt lat="44.04289" lon="6.87193">
        <ele>1063.9</ele>
        <time>2019-07-16T12:50:15Z</time>
      </trkpt>
      <trkpt lat="44.04293" lon="6.87194">
        <ele>1063.9</ele>
        <time>2019-07-16T12:50:17Z</time>
      </trkpt>
      <trkpt lat="44.04297" lon="6.87192">
        <ele>1063.9</ele>
        <time>2019-07-16T12:50:19Z</time>
      </trkpt>
      <trkpt lat="44.043" lon="6.87188">
        <ele>1063.8</ele>
        <time>2019-07-16T12:50:21Z</time>
      </trkpt>
      <trkpt lat="44.04303" lon="6.87185">
        <ele>1063.8</ele>
        <time>2019-07-16T12:50:23Z</time>
      </trkpt>
      <trkpt lat="44.04307" lon="6.87182">
        <ele>1063.8</ele>
        <time>2019-07-16T12:50:26Z</time>
      </trkpt>
      <trkpt lat="44.04306" lon="6.87177">
        <ele>1063.8</ele>
        <time>2019-07-16T12:50:29Z</time>
      </trkpt>
      <trkpt lat="44.04311" lon="6.87179">
        <ele>1063.8</ele>
        <time>2019-07-16T12:58:35Z</time>
      </trkpt>
      <trkpt lat="44.04314" lon="6.87179">
        <ele>1063.9</ele>
        <time>2019-07-16T12:58:39Z</time>
      </trkpt>
      <trkpt lat="44.04317" lon="6.87178">
        <ele>1064.1</ele>
        <time>2019-07-16T12:58:47Z</time>
      </trkpt>
      <trkpt lat="44.04319" lon="6.87181">
        <ele>1064.2</ele>
        <time>2019-07-16T12:58:52Z</time>
      </trkpt>
      <trkpt lat="44.04321" lon="6.87187">
        <ele>1064.7</ele>
        <time>2019-07-16T12:59:01Z</time>
      </trkpt>
      <trkpt lat="44.04322" lon="6.87193">
        <ele>1065.1</ele>
        <time>2019-07-16T12:59:03Z</time>
      </trkpt>
      <trkpt lat="44.04321" lon="6.872">
        <ele>1065.2</ele>
        <time>2019-07-16T12:59:05Z</time>
      </trkpt>
      <trkpt lat="44.04319" lon="6.87206">
        <ele>1065.4</ele>
        <time>2019-07-16T12:59:07Z</time>
      </trkpt>
      <trkpt lat="44.04317" lon="6.8721">
        <ele>1065.5</ele>
        <time>2019-07-16T12:59:09Z</time>
      </trkpt>
      <trkpt lat="44.04316" lon="6.87216">
        <ele>1065.7</ele>
        <time>2019-07-16T12:59:11Z</time>
      </trkpt>
      <trkpt lat="44.04317" lon="6.87223">
        <ele>1066.1</ele>
        <time>2019-07-16T12:59:13Z</time>
      </trkpt>
      <trkpt lat="44.04317" lon="6.87229">
        <ele>1066.6</ele>
        <time>2019-07-16T12:59:15Z</time>
      </trkpt>
      <trkpt lat="44.04316" lon="6.87236">
        <ele>1067</ele>
        <time>2019-07-16T12:59:17Z</time>
      </trkpt>
      <trkpt lat="44.04316" lon="6.87242">
        <ele>1067.6</ele>
        <time>2019-07-16T12:59:19Z</time>
      </trkpt>
      <trkpt lat="44.04315" lon="6.87249">
        <ele>1068.4</ele>
        <time>2019-07-16T12:59:21Z</time>
      </trkpt>
      <trkpt lat="44.04314" lon="6.87256">
        <ele>1069</ele>
        <time>2019-07-16T12:59:23Z</time>
      </trkpt>
      <trkpt lat="44.04314" lon="6.8726">
        <ele>1069.4</ele>
        <time>2019-07-16T12:59:24Z</time>
      </trkpt>
      <trkpt lat="44.04313" lon="6.87264">
        <ele>1069.8</ele>
        <time>2019-07-16T12:59:25Z</time>
      </trkpt>
      <trkpt lat="44.04314" lon="6.87268">
        <ele>1070.2</ele>
        <time>2019-07-16T12:59:26Z</time>
      </trkpt>
      <trkpt lat="44.04317" lon="6.87274">
        <ele>1071.2</ele>
        <time>2019-07-16T12:59:28Z</time>
      </trkpt>
      <trkpt lat="44.04321" lon="6.87278">
        <ele>1071.9</ele>
        <time>2019-07-16T12:59:30Z</time>
      </trkpt>
      <trkpt lat="44.04324" lon="6.87281">
        <ele>1072.5</ele>
        <time>2019-07-16T12:59:32Z</time>
      </trkpt>
      <trkpt lat="44.04327" lon="6.87285">
        <ele>1072.9</ele>
        <time>2019-07-16T12:59:34Z</time>
      </trkpt>
      <trkpt lat="44.0433" lon="6.87288">
        <ele>1073.3</ele>
        <time>2019-07-16T12:59:36Z</time>
      </trkpt>
      <trkpt lat="44.04335" lon="6.87292">
        <ele>1073.9</ele>
        <time>2019-07-16T12:59:38Z</time>
      </trkpt>
      <trkpt lat="44.04337" lon="6.87295">
        <ele>1074.6</ele>
        <time>2019-07-16T12:59:39Z</time>
      </trkpt>
      <trkpt lat="44.04341" lon="6.87296">
        <ele>1074.6</ele>
        <time>2019-07-16T12:59:41Z</time>
      </trkpt>
      <trkpt lat="44.04338" lon="6.87297">
        <ele>1074.5</ele>
        <time>2019-07-16T13:00:41Z</time>
      </trkpt>
      <trkpt lat="44.04336" lon="6.87301">
        <ele>1074.5</ele>
        <time>2019-07-16T13:00:45Z</time>
      </trkpt>
      <trkpt lat="44.04335" lon="6.87305">
        <ele>1074.5</ele>
        <time>2019-07-16T13:00:50Z</time>
      </trkpt>
      <trkpt lat="44.04333" lon="6.87308">
        <ele>1074.5</ele>
        <time>2019-07-16T13:00:54Z</time>
      </trkpt>
      <trkpt lat="44.04331" lon="6.87312">
        <ele>1074.5</ele>
        <time>2019-07-16T13:00:57Z</time>
      </trkpt>
      <trkpt lat="44.04331" lon="6.87318">
        <ele>1074.5</ele>
        <time>2019-07-16T13:01:02Z</time>
      </trkpt>
      <trkpt lat="44.04333" lon="6.87321">
        <ele>1074.6</ele>
        <time>2019-07-16T13:01:05Z</time>
      </trkpt>
      <trkpt lat="44.04332" lon="6.87326">
        <ele>1074.7</ele>
        <time>2019-07-16T13:01:17Z</time>
      </trkpt>
      <trkpt lat="44.04332" lon="6.87329">
        <ele>1074.8</ele>
        <time>2019-07-16T13:01:31Z</time>
      </trkpt>
      <trkpt lat="44.04329" lon="6.87334">
        <ele>1075</ele>
        <time>2019-07-16T13:01:34Z</time>
      </trkpt>
      <trkpt lat="44.04329" lon="6.87338">
        <ele>1075.2</ele>
        <time>2019-07-16T13:01:37Z</time>
      </trkpt>
      <trkpt lat="44.0433" lon="6.87343">
        <ele>1075.3</ele>
        <time>2019-07-16T13:01:39Z</time>
      </trkpt>
      <trkpt lat="44.0433" lon="6.87347">
        <ele>1075.4</ele>
        <time>2019-07-16T13:01:43Z</time>
      </trkpt>
      <trkpt lat="44.04333" lon="6.8735">
        <ele>1075.5</ele>
        <time>2019-07-16T13:01:47Z</time>
      </trkpt>
      <trkpt lat="44.04335" lon="6.87349">
        <ele>1075.6</ele>
        <time>2019-07-16T13:01:49Z</time>
      </trkpt>
      <trkpt lat="44.04337" lon="6.87345">
        <ele>1075.7</ele>
        <time>2019-07-16T13:01:52Z</time>
      </trkpt>
      <trkpt lat="44.0434" lon="6.87343">
        <ele>1075.8</ele>
        <time>2019-07-16T13:01:58Z</time>
      </trkpt>
      <trkpt lat="44.04342" lon="6.8734">
        <ele>1075.8</ele>
        <time>2019-07-16T13:02:24Z</time>
      </trkpt>
      <trkpt lat="44.04344" lon="6.87337">
        <ele>1075.9</ele>
        <time>2019-07-16T13:02:29Z</time>
      </trkpt>
      <trkpt lat="44.04346" lon="6.87334">
        <ele>1075.9</ele>
        <time>2019-07-16T13:02:35Z</time>
      </trkpt>
      <trkpt lat="44.04348" lon="6.87331">
        <ele>1076</ele>
        <time>2019-07-16T13:02:39Z</time>
      </trkpt>
      <trkpt lat="44.0435" lon="6.87328">
        <ele>1076</ele>
        <time>2019-07-16T13:02:42Z</time>
      </trkpt>
      <trkpt lat="44.04352" lon="6.87326">
        <ele>1076</ele>
        <time>2019-07-16T13:02:46Z</time>
      </trkpt>
      <trkpt lat="44.04354" lon="6.87322">
        <ele>1075.9</ele>
        <time>2019-07-16T13:02:50Z</time>
      </trkpt>
      <trkpt lat="44.04356" lon="6.87318">
        <ele>1075.8</ele>
        <time>2019-07-16T13:02:56Z</time>
      </trkpt>
      <trkpt lat="44.04359" lon="6.87316">
        <ele>1075.7</ele>
        <time>2019-07-16T13:02:59Z</time>
      </trkpt>
      <trkpt lat="44.04362" lon="6.87315">
        <ele>1075.5</ele>
        <time>2019-07-16T13:03:05Z</time>
      </trkpt>
      <trkpt lat="44.04366" lon="6.87311">
        <ele>1075.3</ele>
        <time>2019-07-16T13:03:12Z</time>
      </trkpt>
      <trkpt lat="44.04367" lon="6.87308">
        <ele>1075.2</ele>
        <time>2019-07-16T13:03:15Z</time>
      </trkpt>
      <trkpt lat="44.0437" lon="6.87306">
        <ele>1075.1</ele>
        <time>2019-07-16T13:03:19Z</time>
      </trkpt>
      <trkpt lat="44.04372" lon="6.87302">
        <ele>1075</ele>
        <time>2019-07-16T13:03:23Z</time>
      </trkpt>
      <trkpt lat="44.04374" lon="6.87298">
        <ele>1074.9</ele>
        <time>2019-07-16T13:03:25Z</time>
      </trkpt>
      <trkpt lat="44.04376" lon="6.87296">
        <ele>1074.8</ele>
        <time>2019-07-16T13:03:28Z</time>
      </trkpt>
      <trkpt lat="44.04378" lon="6.87292">
        <ele>1074.7</ele>
        <time>2019-07-16T13:03:32Z</time>
      </trkpt>
      <trkpt lat="44.04378" lon="6.87288">
        <ele>1074.6</ele>
        <time>2019-07-16T13:03:35Z</time>
      </trkpt>
      <trkpt lat="44.0438" lon="6.87284">
        <ele>1074.5</ele>
        <time>2019-07-16T13:03:39Z</time>
      </trkpt>
      <trkpt lat="44.04381" lon="6.87279">
        <ele>1074.3</ele>
        <time>2019-07-16T13:03:47Z</time>
      </trkpt>
      <trkpt lat="44.04383" lon="6.87275">
        <ele>1074.2</ele>
        <time>2019-07-16T13:03:50Z</time>
      </trkpt>
      <trkpt lat="44.04384" lon="6.87271">
        <ele>1074.2</ele>
        <time>2019-07-16T13:03:53Z</time>
      </trkpt>
      <trkpt lat="44.04385" lon="6.87267">
        <ele>1074.1</ele>
        <time>2019-07-16T13:03:59Z</time>
      </trkpt>
      <trkpt lat="44.04386" lon="6.87262">
        <ele>1074.1</ele>
        <time>2019-07-16T13:04:46Z</time>
      </trkpt>
      <trkpt lat="44.04389" lon="6.87257">
        <ele>1074</ele>
        <time>2019-07-16T13:04:48Z</time>
      </trkpt>
      <trkpt lat="44.04392" lon="6.87252">
        <ele>1074</ele>
        <time>2019-07-16T13:04:50Z</time>
      </trkpt>
      <trkpt lat="44.04394" lon="6.87249">
        <ele>1073.9</ele>
        <time>2019-07-16T13:04:51Z</time>
      </trkpt>
      <trkpt lat="44.04396" lon="6.87246">
        <ele>1073.9</ele>
        <time>2019-07-16T13:04:53Z</time>
      </trkpt>
      <trkpt lat="44.04398" lon="6.87243">
        <ele>1073.9</ele>
        <time>2019-07-16T13:04:56Z</time>
      </trkpt>
      <trkpt lat="44.04398" lon="6.87239">
        <ele>1073.8</ele>
        <time>2019-07-16T13:04:58Z</time>
      </trkpt>
      <trkpt lat="44.04399" lon="6.87235">
        <ele>1073.8</ele>
        <time>2019-07-16T13:05:03Z</time>
      </trkpt>
      <trkpt lat="44.044" lon="6.8723">
        <ele>1073.8</ele>
        <time>2019-07-16T13:05:07Z</time>
      </trkpt>
      <trkpt lat="44.044" lon="6.87225">
        <ele>1073.7</ele>
        <time>2019-07-16T13:05:11Z</time>
      </trkpt>
      <trkpt lat="44.04401" lon="6.87221">
        <ele>1073.7</ele>
        <time>2019-07-16T13:05:13Z</time>
      </trkpt>
      <trkpt lat="44.044" lon="6.87217">
        <ele>1073.7</ele>
        <time>2019-07-16T13:05:17Z</time>
      </trkpt>
      <trkpt lat="44.04401" lon="6.87214">
        <ele>1073.7</ele>
        <time>2019-07-16T13:05:24Z</time>
      </trkpt>
      <trkpt lat="44.04403" lon="6.8721">
        <ele>1073.7</ele>
        <time>2019-07-16T13:05:29Z</time>
      </trkpt>
      <trkpt lat="44.04404" lon="6.87207">
        <ele>1073.7</ele>
        <time>2019-07-16T13:05:33Z</time>
      </trkpt>
      <trkpt lat="44.04405" lon="6.87202">
        <ele>1073.8</ele>
        <time>2019-07-16T13:05:37Z</time>
      </trkpt>
      <trkpt lat="44.04407" lon="6.872">
        <ele>1073.8</ele>
        <time>2019-07-16T13:05:41Z</time>
      </trkpt>
      <trkpt lat="44.04411" lon="6.87198">
        <ele>1073.9</ele>
        <time>2019-07-16T13:05:52Z</time>
      </trkpt>
      <trkpt lat="44.04414" lon="6.87196">
        <ele>1074.1</ele>
        <time>2019-07-16T13:05:54Z</time>
      </trkpt>
      <trkpt lat="44.04418" lon="6.87194">
        <ele>1074.2</ele>
        <time>2019-07-16T13:05:56Z</time>
      </trkpt>
      <trkpt lat="44.04421" lon="6.87192">
        <ele>1074.6</ele>
        <time>2019-07-16T13:05:58Z</time>
      </trkpt>
      <trkpt lat="44.04424" lon="6.87191">
        <ele>1074.9</ele>
        <time>2019-07-16T13:08:34Z</time>
      </trkpt>
      <trkpt lat="44.04428" lon="6.87189">
        <ele>1075.3</ele>
        <time>2019-07-16T13:08:36Z</time>
      </trkpt>
      <trkpt lat="44.04431" lon="6.87187">
        <ele>1075.6</ele>
        <time>2019-07-16T13:08:38Z</time>
      </trkpt>
      <trkpt lat="44.04435" lon="6.87186">
        <ele>1075.9</ele>
        <time>2019-07-16T13:08:40Z</time>
      </trkpt>
      <trkpt lat="44.0444" lon="6.87184">
        <ele>1076.2</ele>
        <time>2019-07-16T13:08:42Z</time>
      </trkpt>
      <trkpt lat="44.04444" lon="6.87181">
        <ele>1076.5</ele>
        <time>2019-07-16T13:08:44Z</time>
      </trkpt>
      <trkpt lat="44.04448" lon="6.87178">
        <ele>1076.8</ele>
        <time>2019-07-16T13:08:46Z</time>
      </trkpt>
      <trkpt lat="44.04451" lon="6.87178">
        <ele>1077</ele>
        <time>2019-07-16T13:08:48Z</time>
      </trkpt>
      <trkpt lat="44.04455" lon="6.87179">
        <ele>1077.2</ele>
        <time>2019-07-16T13:08:50Z</time>
      </trkpt>
      <trkpt lat="44.04457" lon="6.87181">
        <ele>1077.4</ele>
        <time>2019-07-16T13:08:52Z</time>
      </trkpt>
      <trkpt lat="44.04461" lon="6.87182">
        <ele>1077.6</ele>
        <time>2019-07-16T13:09:09Z</time>
      </trkpt>
      <trkpt lat="44.04465" lon="6.87184">
        <ele>1077.8</ele>
        <time>2019-07-16T13:09:13Z</time>
      </trkpt>
      <trkpt lat="44.04467" lon="6.87185">
        <ele>1077.9</ele>
        <time>2019-07-16T13:09:16Z</time>
      </trkpt>
      <trkpt lat="44.0447" lon="6.87185">
        <ele>1078</ele>
        <time>2019-07-16T13:09:22Z</time>
      </trkpt>
      <trkpt lat="44.04473" lon="6.87186">
        <ele>1078.1</ele>
        <time>2019-07-16T13:09:25Z</time>
      </trkpt>
      <trkpt lat="44.04476" lon="6.87187">
        <ele>1078.2</ele>
        <time>2019-07-16T13:09:35Z</time>
      </trkpt>
      <trkpt lat="44.04479" lon="6.8719">
        <ele>1078.4</ele>
        <time>2019-07-16T13:09:42Z</time>
      </trkpt>
      <trkpt lat="44.04481" lon="6.87192">
        <ele>1078.5</ele>
        <time>2019-07-16T13:09:46Z</time>
      </trkpt>
      <trkpt lat="44.04484" lon="6.87193">
        <ele>1078.6</ele>
        <time>2019-07-16T13:09:50Z</time>
      </trkpt>
      <trkpt lat="44.04486" lon="6.87195">
        <ele>1078.8</ele>
        <time>2019-07-16T13:09:53Z</time>
      </trkpt>
      <trkpt lat="44.04489" lon="6.87199">
        <ele>1078.9</ele>
        <time>2019-07-16T13:09:56Z</time>
      </trkpt>
      <trkpt lat="44.04491" lon="6.87201">
        <ele>1079</ele>
        <time>2019-07-16T13:09:59Z</time>
      </trkpt>
      <trkpt lat="44.04495" lon="6.87202">
        <ele>1079.2</ele>
        <time>2019-07-16T13:10:02Z</time>
      </trkpt>
      <trkpt lat="44.04497" lon="6.87204">
        <ele>1079.3</ele>
        <time>2019-07-16T13:10:05Z</time>
      </trkpt>
      <trkpt lat="44.04499" lon="6.87208">
        <ele>1079.5</ele>
        <time>2019-07-16T13:10:09Z</time>
      </trkpt>
      <trkpt lat="44.045" lon="6.87212">
        <ele>1079.7</ele>
        <time>2019-07-16T13:10:12Z</time>
      </trkpt>
      <trkpt lat="44.04501" lon="6.87215">
        <ele>1079.8</ele>
        <time>2019-07-16T13:10:15Z</time>
      </trkpt>
      <trkpt lat="44.04503" lon="6.87221">
        <ele>1080</ele>
        <time>2019-07-16T13:10:18Z</time>
      </trkpt>
      <trkpt lat="44.04505" lon="6.87223">
        <ele>1080.2</ele>
        <time>2019-07-16T13:10:21Z</time>
      </trkpt>
      <trkpt lat="44.04509" lon="6.87225">
        <ele>1080.5</ele>
        <time>2019-07-16T13:10:29Z</time>
      </trkpt>
      <trkpt lat="44.04512" lon="6.87227">
        <ele>1080.7</ele>
        <time>2019-07-16T13:10:31Z</time>
      </trkpt>
      <trkpt lat="44.04515" lon="6.8723">
        <ele>1080.8</ele>
        <time>2019-07-16T13:10:33Z</time>
      </trkpt>
      <trkpt lat="44.04518" lon="6.87232">
        <ele>1081</ele>
        <time>2019-07-16T13:10:35Z</time>
      </trkpt>
      <trkpt lat="44.04523" lon="6.87233">
        <ele>1081.3</ele>
        <time>2019-07-16T13:10:37Z</time>
      </trkpt>
      <trkpt lat="44.04527" lon="6.87235">
        <ele>1081.5</ele>
        <time>2019-07-16T13:10:39Z</time>
      </trkpt>
      <trkpt lat="44.04532" lon="6.87238">
        <ele>1081.6</ele>
        <time>2019-07-16T13:10:41Z</time>
      </trkpt>
      <trkpt lat="44.04536" lon="6.87239">
        <ele>1081.7</ele>
        <time>2019-07-16T13:10:43Z</time>
      </trkpt>
      <trkpt lat="44.0454" lon="6.87235">
        <ele>1081.9</ele>
        <time>2019-07-16T13:10:45Z</time>
      </trkpt>
      <trkpt lat="44.04542" lon="6.87231">
        <ele>1082</ele>
        <time>2019-07-16T13:10:47Z</time>
      </trkpt>
      <trkpt lat="44.04546" lon="6.87228">
        <ele>1082.1</ele>
        <time>2019-07-16T13:10:49Z</time>
      </trkpt>
      <trkpt lat="44.0455" lon="6.87225">
        <ele>1082.2</ele>
        <time>2019-07-16T13:10:51Z</time>
      </trkpt>
      <trkpt lat="44.04553" lon="6.87223">
        <ele>1082.3</ele>
        <time>2019-07-16T13:10:53Z</time>
      </trkpt>
      <trkpt lat="44.04558" lon="6.87219">
        <ele>1082.5</ele>
        <time>2019-07-16T13:10:55Z</time>
      </trkpt>
      <trkpt lat="44.04562" lon="6.87217">
        <ele>1082.6</ele>
        <time>2019-07-16T13:10:57Z</time>
      </trkpt>
      <trkpt lat="44.04566" lon="6.87215">
        <ele>1082.7</ele>
        <time>2019-07-16T13:10:59Z</time>
      </trkpt>
      <trkpt lat="44.0457" lon="6.87212">
        <ele>1082.9</ele>
        <time>2019-07-16T13:11:01Z</time>
      </trkpt>
      <trkpt lat="44.04574" lon="6.87212">
        <ele>1083</ele>
        <time>2019-07-16T13:11:03Z</time>
      </trkpt>
      <trkpt lat="44.04578" lon="6.87211">
        <ele>1083.1</ele>
        <time>2019-07-16T13:11:05Z</time>
      </trkpt>
      <trkpt lat="44.04582" lon="6.87209">
        <ele>1083.2</ele>
        <time>2019-07-16T13:11:07Z</time>
      </trkpt>
      <trkpt lat="44.04585" lon="6.87207">
        <ele>1083.3</ele>
        <time>2019-07-16T13:11:09Z</time>
      </trkpt>
      <trkpt lat="44.04589" lon="6.87205">
        <ele>1083.4</ele>
        <time>2019-07-16T13:11:11Z</time>
      </trkpt>
      <trkpt lat="44.04594" lon="6.87204">
        <ele>1083.5</ele>
        <time>2019-07-16T13:11:13Z</time>
      </trkpt>
      <trkpt lat="44.04597" lon="6.87203">
        <ele>1083.6</ele>
        <time>2019-07-16T13:11:14Z</time>
      </trkpt>
      <trkpt lat="44.04599" lon="6.87202">
        <ele>1083.7</ele>
        <time>2019-07-16T13:11:15Z</time>
      </trkpt>
      <trkpt lat="44.04603" lon="6.872">
        <ele>1083.8</ele>
        <time>2019-07-16T13:11:17Z</time>
      </trkpt>
      <trkpt lat="44.04607" lon="6.872">
        <ele>1083.9</ele>
        <time>2019-07-16T13:11:19Z</time>
      </trkpt>
      <trkpt lat="44.04611" lon="6.87199">
        <ele>1084</ele>
        <time>2019-07-16T13:11:21Z</time>
      </trkpt>
      <trkpt lat="44.04615" lon="6.87198">
        <ele>1084.1</ele>
        <time>2019-07-16T13:11:23Z</time>
      </trkpt>
      <trkpt lat="44.0462" lon="6.87198">
        <ele>1084.2</ele>
        <time>2019-07-16T13:11:25Z</time>
      </trkpt>
      <trkpt lat="44.04624" lon="6.87197">
        <ele>1084.3</ele>
        <time>2019-07-16T13:11:27Z</time>
      </trkpt>
      <trkpt lat="44.04628" lon="6.87195">
        <ele>1084.4</ele>
        <time>2019-07-16T13:11:29Z</time>
      </trkpt>
      <trkpt lat="44.04631" lon="6.87191">
        <ele>1084.5</ele>
        <time>2019-07-16T13:11:32Z</time>
      </trkpt>
      <trkpt lat="44.04634" lon="6.8719">
        <ele>1084.6</ele>
        <time>2019-07-16T13:11:39Z</time>
      </trkpt>
      <trkpt lat="44.04637" lon="6.87191">
        <ele>1084.7</ele>
        <time>2019-07-16T13:11:44Z</time>
      </trkpt>
      <trkpt lat="44.0464" lon="6.87192">
        <ele>1084.8</ele>
        <time>2019-07-16T13:11:50Z</time>
      </trkpt>
      <trkpt lat="44.04639" lon="6.87196">
        <ele>1085</ele>
        <time>2019-07-16T13:11:57Z</time>
      </trkpt>
      <trkpt lat="44.04642" lon="6.87194">
        <ele>1085.1</ele>
        <time>2019-07-16T13:12:01Z</time>
      </trkpt>
      <trkpt lat="44.04645" lon="6.87193">
        <ele>1085.2</ele>
        <time>2019-07-16T13:12:05Z</time>
      </trkpt>
      <trkpt lat="44.04648" lon="6.87192">
        <ele>1085.4</ele>
        <time>2019-07-16T13:12:10Z</time>
      </trkpt>
      <trkpt lat="44.04651" lon="6.87189">
        <ele>1085.5</ele>
        <time>2019-07-16T13:12:14Z</time>
      </trkpt>
      <trkpt lat="44.04654" lon="6.87184">
        <ele>1085.7</ele>
        <time>2019-07-16T13:12:16Z</time>
      </trkpt>
      <trkpt lat="44.04656" lon="6.87179">
        <ele>1085.7</ele>
        <time>2019-07-16T13:12:18Z</time>
      </trkpt>
      <trkpt lat="44.04658" lon="6.87175">
        <ele>1085.8</ele>
        <time>2019-07-16T13:12:20Z</time>
      </trkpt>
      <trkpt lat="44.04658" lon="6.87171">
        <ele>1085.8</ele>
        <time>2019-07-16T13:12:23Z</time>
      </trkpt>
      <trkpt lat="44.04659" lon="6.87166">
        <ele>1085.8</ele>
        <time>2019-07-16T13:12:25Z</time>
      </trkpt>
      <trkpt lat="44.04659" lon="6.87161">
        <ele>1085.7</ele>
        <time>2019-07-16T13:12:27Z</time>
      </trkpt>
      <trkpt lat="44.04657" lon="6.87156">
        <ele>1085.7</ele>
        <time>2019-07-16T13:12:29Z</time>
      </trkpt>
      <trkpt lat="44.04655" lon="6.87152">
        <ele>1085.6</ele>
        <time>2019-07-16T13:12:31Z</time>
      </trkpt>
      <trkpt lat="44.04652" lon="6.87148">
        <ele>1085.5</ele>
        <time>2019-07-16T13:12:33Z</time>
      </trkpt>
      <trkpt lat="44.04649" lon="6.87143">
        <ele>1085.4</ele>
        <time>2019-07-16T13:12:35Z</time>
      </trkpt>
      <trkpt lat="44.04647" lon="6.87137">
        <ele>1085.2</ele>
        <time>2019-07-16T13:12:37Z</time>
      </trkpt>
      <trkpt lat="44.04645" lon="6.87134">
        <ele>1085.1</ele>
        <time>2019-07-16T13:12:38Z</time>
      </trkpt>
      <trkpt lat="44.04642" lon="6.8713">
        <ele>1084.9</ele>
        <time>2019-07-16T13:12:40Z</time>
      </trkpt>
      <trkpt lat="44.04637" lon="6.87128">
        <ele>1084.7</ele>
        <time>2019-07-16T13:12:42Z</time>
      </trkpt>
      <trkpt lat="44.04633" lon="6.87125">
        <ele>1084.5</ele>
        <time>2019-07-16T13:12:44Z</time>
      </trkpt>
      <trkpt lat="44.04633" lon="6.8712">
        <ele>1084.4</ele>
        <time>2019-07-16T13:12:46Z</time>
      </trkpt>
      <trkpt lat="44.04633" lon="6.87116">
        <ele>1084.2</ele>
        <time>2019-07-16T13:12:47Z</time>
      </trkpt>
      <trkpt lat="44.0463" lon="6.87113">
        <ele>1084.1</ele>
        <time>2019-07-16T13:12:49Z</time>
      </trkpt>
      <trkpt lat="44.04627" lon="6.87109">
        <ele>1083.9</ele>
        <time>2019-07-16T13:12:50Z</time>
      </trkpt>
      <trkpt lat="44.04626" lon="6.87104">
        <ele>1083.7</ele>
        <time>2019-07-16T13:12:51Z</time>
      </trkpt>
      <trkpt lat="44.04624" lon="6.87101">
        <ele>1083.5</ele>
        <time>2019-07-16T13:12:52Z</time>
      </trkpt>
      <trkpt lat="44.04621" lon="6.871">
        <ele>1083.4</ele>
        <time>2019-07-16T13:12:54Z</time>
      </trkpt>
      <trkpt lat="44.04618" lon="6.871">
        <ele>1083.3</ele>
        <time>2019-07-16T13:12:59Z</time>
      </trkpt>
      <trkpt lat="44.04619" lon="6.87094">
        <ele>1083.1</ele>
        <time>2019-07-16T13:13:05Z</time>
      </trkpt>
      <trkpt lat="44.04619" lon="6.8709">
        <ele>1083</ele>
        <time>2019-07-16T13:13:08Z</time>
      </trkpt>
      <trkpt lat="44.04617" lon="6.87086">
        <ele>1082.8</ele>
        <time>2019-07-16T13:13:11Z</time>
      </trkpt>
      <trkpt lat="44.04616" lon="6.87082">
        <ele>1082.7</ele>
        <time>2019-07-16T13:13:12Z</time>
      </trkpt>
      <trkpt lat="44.04615" lon="6.87076">
        <ele>1082.6</ele>
        <time>2019-07-16T13:13:14Z</time>
      </trkpt>
      <trkpt lat="44.04615" lon="6.87072">
        <ele>1082.5</ele>
        <time>2019-07-16T13:13:15Z</time>
      </trkpt>
      <trkpt lat="44.04614" lon="6.87068">
        <ele>1082.4</ele>
        <time>2019-07-16T13:13:16Z</time>
      </trkpt>
      <trkpt lat="44.04613" lon="6.87064">
        <ele>1082.4</ele>
        <time>2019-07-16T13:13:18Z</time>
      </trkpt>
      <trkpt lat="44.04611" lon="6.87059">
        <ele>1082.3</ele>
        <time>2019-07-16T13:13:20Z</time>
      </trkpt>
      <trkpt lat="44.0461" lon="6.87055">
        <ele>1082.2</ele>
        <time>2019-07-16T13:13:21Z</time>
      </trkpt>
      <trkpt lat="44.04609" lon="6.87051">
        <ele>1082.2</ele>
        <time>2019-07-16T13:13:22Z</time>
      </trkpt>
      <trkpt lat="44.04607" lon="6.87048">
        <ele>1082.2</ele>
        <time>2019-07-16T13:13:23Z</time>
      </trkpt>
      <trkpt lat="44.04605" lon="6.87044">
        <ele>1082.2</ele>
        <time>2019-07-16T13:13:24Z</time>
      </trkpt>
      <trkpt lat="44.04602" lon="6.87041">
        <ele>1082.2</ele>
        <time>2019-07-16T13:13:26Z</time>
      </trkpt>
      <trkpt lat="44.046" lon="6.87037">
        <ele>1082.3</ele>
        <time>2019-07-16T13:13:27Z</time>
      </trkpt>
      <trkpt lat="44.04597" lon="6.87034">
        <ele>1082.4</ele>
        <time>2019-07-16T13:13:28Z</time>
      </trkpt>
      <trkpt lat="44.04596" lon="6.87027">
        <ele>1082.5</ele>
        <time>2019-07-16T13:13:30Z</time>
      </trkpt>
      <trkpt lat="44.04597" lon="6.87021">
        <ele>1082.7</ele>
        <time>2019-07-16T13:13:32Z</time>
      </trkpt>
      <trkpt lat="44.04598" lon="6.87017">
        <ele>1082.8</ele>
        <time>2019-07-16T13:13:34Z</time>
      </trkpt>
      <trkpt lat="44.046" lon="6.87015">
        <ele>1083</ele>
        <time>2019-07-16T13:14:48Z</time>
      </trkpt>
      <trkpt lat="44.04604" lon="6.87012">
        <ele>1083.1</ele>
        <time>2019-07-16T13:14:52Z</time>
      </trkpt>
      <trkpt lat="44.04609" lon="6.87011">
        <ele>1083.3</ele>
        <time>2019-07-16T13:14:54Z</time>
      </trkpt>
      <trkpt lat="44.04613" lon="6.87009">
        <ele>1083.4</ele>
        <time>2019-07-16T13:14:57Z</time>
      </trkpt>
      <trkpt lat="44.04618" lon="6.87008">
        <ele>1083.6</ele>
        <time>2019-07-16T13:14:59Z</time>
      </trkpt>
      <trkpt lat="44.0462" lon="6.87003">
        <ele>1083.7</ele>
        <time>2019-07-16T13:15:01Z</time>
      </trkpt>
      <trkpt lat="44.04622" lon="6.87">
        <ele>1083.8</ele>
        <time>2019-07-16T13:15:02Z</time>
      </trkpt>
      <trkpt lat="44.04624" lon="6.86997">
        <ele>1084</ele>
        <time>2019-07-16T13:15:03Z</time>
      </trkpt>
      <trkpt lat="44.04627" lon="6.86995">
        <ele>1084</ele>
        <time>2019-07-16T13:15:04Z</time>
      </trkpt>
      <trkpt lat="44.0463" lon="6.86993">
        <ele>1084.1</ele>
        <time>2019-07-16T13:15:05Z</time>
      </trkpt>
      <trkpt lat="44.04633" lon="6.86992">
        <ele>1084.2</ele>
        <time>2019-07-16T13:15:06Z</time>
      </trkpt>
      <trkpt lat="44.04636" lon="6.86989">
        <ele>1084.3</ele>
        <time>2019-07-16T13:15:07Z</time>
      </trkpt>
      <trkpt lat="44.04638" lon="6.86984">
        <ele>1084.3</ele>
        <time>2019-07-16T13:15:09Z</time>
      </trkpt>
      <trkpt lat="44.0464" lon="6.86977">
        <ele>1084.4</ele>
        <time>2019-07-16T13:15:11Z</time>
      </trkpt>
      <trkpt lat="44.04642" lon="6.86971">
        <ele>1084.4</ele>
        <time>2019-07-16T13:15:13Z</time>
      </trkpt>
      <trkpt lat="44.04644" lon="6.86967">
        <ele>1084.5</ele>
        <time>2019-07-16T13:15:15Z</time>
      </trkpt>
      <trkpt lat="44.04643" lon="6.86963">
        <ele>1084.5</ele>
        <time>2019-07-16T13:15:22Z</time>
      </trkpt>
      <trkpt lat="44.04645" lon="6.86959">
        <ele>1084.6</ele>
        <time>2019-07-16T13:15:26Z</time>
      </trkpt>
      <trkpt lat="44.04647" lon="6.86956">
        <ele>1084.7</ele>
        <time>2019-07-16T13:15:29Z</time>
      </trkpt>
      <trkpt lat="44.0465" lon="6.86953">
        <ele>1084.8</ele>
        <time>2019-07-16T13:15:31Z</time>
      </trkpt>
      <trkpt lat="44.04653" lon="6.8695">
        <ele>1085</ele>
        <time>2019-07-16T13:15:33Z</time>
      </trkpt>
      <trkpt lat="44.04653" lon="6.86946">
        <ele>1085.2</ele>
        <time>2019-07-16T13:15:36Z</time>
      </trkpt>
      <trkpt lat="44.04656" lon="6.86945">
        <ele>1085.5</ele>
        <time>2019-07-16T13:15:42Z</time>
      </trkpt>
      <trkpt lat="44.04659" lon="6.86943">
        <ele>1085.8</ele>
        <time>2019-07-16T13:15:46Z</time>
      </trkpt>
      <trkpt lat="44.04662" lon="6.86941">
        <ele>1086.1</ele>
        <time>2019-07-16T13:15:48Z</time>
      </trkpt>
      <trkpt lat="44.04666" lon="6.86942">
        <ele>1086.4</ele>
        <time>2019-07-16T13:15:51Z</time>
      </trkpt>
      <trkpt lat="44.04669" lon="6.86944">
        <ele>1086.9</ele>
        <time>2019-07-16T13:15:54Z</time>
      </trkpt>
      <trkpt lat="44.04672" lon="6.86948">
        <ele>1087.4</ele>
        <time>2019-07-16T13:15:57Z</time>
      </trkpt>
      <trkpt lat="44.04676" lon="6.8695">
        <ele>1087.9</ele>
        <time>2019-07-16T13:16:08Z</time>
      </trkpt>
      <trkpt lat="44.04678" lon="6.86952">
        <ele>1088.3</ele>
        <time>2019-07-16T13:16:10Z</time>
      </trkpt>
      <trkpt lat="44.04682" lon="6.86954">
        <ele>1088.8</ele>
        <time>2019-07-16T13:16:12Z</time>
      </trkpt>
      <trkpt lat="44.04685" lon="6.86957">
        <ele>1089.2</ele>
        <time>2019-07-16T13:16:14Z</time>
      </trkpt>
      <trkpt lat="44.04688" lon="6.86955">
        <ele>1089.6</ele>
        <time>2019-07-16T13:16:19Z</time>
      </trkpt>
      <trkpt lat="44.04691" lon="6.86954">
        <ele>1090</ele>
        <time>2019-07-16T13:16:26Z</time>
      </trkpt>
      <trkpt lat="44.04694" lon="6.86955">
        <ele>1090.3</ele>
        <time>2019-07-16T13:16:29Z</time>
      </trkpt>
      <trkpt lat="44.04697" lon="6.86956">
        <ele>1090.6</ele>
        <time>2019-07-16T13:16:32Z</time>
      </trkpt>
      <trkpt lat="44.04699" lon="6.86953">
        <ele>1090.8</ele>
        <time>2019-07-16T13:16:38Z</time>
      </trkpt>
      <trkpt lat="44.04701" lon="6.86951">
        <ele>1091.1</ele>
        <time>2019-07-16T13:16:43Z</time>
      </trkpt>
      <trkpt lat="44.04704" lon="6.86949">
        <ele>1091.3</ele>
        <time>2019-07-16T13:16:45Z</time>
      </trkpt>
      <trkpt lat="44.04702" lon="6.86946">
        <ele>1091.5</ele>
        <time>2019-07-16T13:16:48Z</time>
      </trkpt>
      <trkpt lat="44.047" lon="6.86944">
        <ele>1091.8</ele>
        <time>2019-07-16T13:16:50Z</time>
      </trkpt>
      <trkpt lat="44.04699" lon="6.86939">
        <ele>1092.1</ele>
        <time>2019-07-16T13:16:52Z</time>
      </trkpt>
      <trkpt lat="44.04699" lon="6.86935">
        <ele>1092.4</ele>
        <time>2019-07-16T13:16:55Z</time>
      </trkpt>
      <trkpt lat="44.04701" lon="6.86931">
        <ele>1092.7</ele>
        <time>2019-07-16T13:17:00Z</time>
      </trkpt>
      <trkpt lat="44.04699" lon="6.86927">
        <ele>1093</ele>
        <time>2019-07-16T13:17:03Z</time>
      </trkpt>
      <trkpt lat="44.04702" lon="6.86922">
        <ele>1093.4</ele>
        <time>2019-07-16T13:17:06Z</time>
      </trkpt>
      <trkpt lat="44.04702" lon="6.86918">
        <ele>1093.6</ele>
        <time>2019-07-16T13:17:11Z</time>
      </trkpt>
      <trkpt lat="44.04701" lon="6.86914">
        <ele>1093.8</ele>
        <time>2019-07-16T13:17:22Z</time>
      </trkpt>
      <trkpt lat="44.04702" lon="6.8691">
        <ele>1094</ele>
        <time>2019-07-16T13:17:51Z</time>
      </trkpt>
      <trkpt lat="44.047" lon="6.86906">
        <ele>1094.2</ele>
        <time>2019-07-16T13:17:59Z</time>
      </trkpt>
      <trkpt lat="44.04701" lon="6.86901">
        <ele>1094.3</ele>
        <time>2019-07-16T13:18:01Z</time>
      </trkpt>
      <trkpt lat="44.04701" lon="6.86895">
        <ele>1094.4</ele>
        <time>2019-07-16T13:18:03Z</time>
      </trkpt>
      <trkpt lat="44.047" lon="6.86889">
        <ele>1094.4</ele>
        <time>2019-07-16T13:18:05Z</time>
      </trkpt>
      <trkpt lat="44.047" lon="6.86885">
        <ele>1094.4</ele>
        <time>2019-07-16T13:18:06Z</time>
      </trkpt>
      <trkpt lat="44.047" lon="6.86878">
        <ele>1094.5</ele>
        <time>2019-07-16T13:18:08Z</time>
      </trkpt>
      <trkpt lat="44.047" lon="6.86871">
        <ele>1094.5</ele>
        <time>2019-07-16T13:18:10Z</time>
      </trkpt>
      <trkpt lat="44.04699" lon="6.86867">
        <ele>1094.5</ele>
        <time>2019-07-16T13:18:19Z</time>
      </trkpt>
      <trkpt lat="44.04701" lon="6.86864">
        <ele>1094.5</ele>
        <time>2019-07-16T13:18:57Z</time>
      </trkpt>
      <trkpt lat="44.04705" lon="6.86862">
        <ele>1094.5</ele>
        <time>2019-07-16T13:18:59Z</time>
      </trkpt>
      <trkpt lat="44.04709" lon="6.86859">
        <ele>1094.5</ele>
        <time>2019-07-16T13:19:01Z</time>
      </trkpt>
      <trkpt lat="44.04712" lon="6.86857">
        <ele>1094.5</ele>
        <time>2019-07-16T13:19:02Z</time>
      </trkpt>
      <trkpt lat="44.04715" lon="6.86855">
        <ele>1094.5</ele>
        <time>2019-07-16T13:19:03Z</time>
      </trkpt>
      <trkpt lat="44.04717" lon="6.86853">
        <ele>1094.5</ele>
        <time>2019-07-16T13:19:04Z</time>
      </trkpt>
      <trkpt lat="44.04722" lon="6.86851">
        <ele>1094.5</ele>
        <time>2019-07-16T13:19:06Z</time>
      </trkpt>
      <trkpt lat="44.04726" lon="6.86848">
        <ele>1094.5</ele>
        <time>2019-07-16T13:19:08Z</time>
      </trkpt>
      <trkpt lat="44.04729" lon="6.86847">
        <ele>1094.5</ele>
        <time>2019-07-16T13:19:11Z</time>
      </trkpt>
      <trkpt lat="44.04733" lon="6.86846">
        <ele>1094.5</ele>
        <time>2019-07-16T13:19:20Z</time>
      </trkpt>
      <trkpt lat="44.04736" lon="6.86844">
        <ele>1094.5</ele>
        <time>2019-07-16T13:19:27Z</time>
      </trkpt>
      <trkpt lat="44.04739" lon="6.86842">
        <ele>1094.5</ele>
        <time>2019-07-16T13:19:29Z</time>
      </trkpt>
      <trkpt lat="44.04742" lon="6.8684">
        <ele>1094.5</ele>
        <time>2019-07-16T13:19:32Z</time>
      </trkpt>
      <trkpt lat="44.04745" lon="6.86839">
        <ele>1094.5</ele>
        <time>2019-07-16T13:19:34Z</time>
      </trkpt>
      <trkpt lat="44.04747" lon="6.86838">
        <ele>1094.5</ele>
        <time>2019-07-16T13:19:37Z</time>
      </trkpt>
      <trkpt lat="44.04749" lon="6.86836">
        <ele>1094.5</ele>
        <time>2019-07-16T13:19:39Z</time>
      </trkpt>
      <trkpt lat="44.04752" lon="6.86833">
        <ele>1094.5</ele>
        <time>2019-07-16T13:19:46Z</time>
      </trkpt>
      <trkpt lat="44.04755" lon="6.8683">
        <ele>1094.5</ele>
        <time>2019-07-16T13:19:50Z</time>
      </trkpt>
      <trkpt lat="44.04756" lon="6.86827">
        <ele>1094.4</ele>
        <time>2019-07-16T13:20:16Z</time>
      </trkpt>
      <trkpt lat="44.04759" lon="6.86822">
        <ele>1094.3</ele>
        <time>2019-07-16T13:20:19Z</time>
      </trkpt>
      <trkpt lat="44.04763" lon="6.8682">
        <ele>1094.2</ele>
        <time>2019-07-16T13:20:21Z</time>
      </trkpt>
      <trkpt lat="44.04765" lon="6.86816">
        <ele>1094.1</ele>
        <time>2019-07-16T13:20:27Z</time>
      </trkpt>
      <trkpt lat="44.04768" lon="6.86813">
        <ele>1094</ele>
        <time>2019-07-16T13:20:29Z</time>
      </trkpt>
      <trkpt lat="44.04772" lon="6.8681">
        <ele>1093.9</ele>
        <time>2019-07-16T13:20:31Z</time>
      </trkpt>
      <trkpt lat="44.04774" lon="6.86806">
        <ele>1093.7</ele>
        <time>2019-07-16T13:20:33Z</time>
      </trkpt>
      <trkpt lat="44.04778" lon="6.86801">
        <ele>1093.6</ele>
        <time>2019-07-16T13:20:35Z</time>
      </trkpt>
      <trkpt lat="44.04781" lon="6.86799">
        <ele>1093.5</ele>
        <time>2019-07-16T13:20:36Z</time>
      </trkpt>
      <trkpt lat="44.04783" lon="6.86795">
        <ele>1093.4</ele>
        <time>2019-07-16T13:20:38Z</time>
      </trkpt>
      <trkpt lat="44.04784" lon="6.86791">
        <ele>1093.3</ele>
        <time>2019-07-16T13:20:41Z</time>
      </trkpt>
      <trkpt lat="44.04786" lon="6.86788">
        <ele>1093.2</ele>
        <time>2019-07-16T13:20:44Z</time>
      </trkpt>
      <trkpt lat="44.04787" lon="6.86784">
        <ele>1093.1</ele>
        <time>2019-07-16T13:20:47Z</time>
      </trkpt>
      <trkpt lat="44.04786" lon="6.8678">
        <ele>1093</ele>
        <time>2019-07-16T13:20:51Z</time>
      </trkpt>
      <trkpt lat="44.04788" lon="6.86776">
        <ele>1092.9</ele>
        <time>2019-07-16T13:20:53Z</time>
      </trkpt>
      <trkpt lat="44.04789" lon="6.86772">
        <ele>1092.8</ele>
        <time>2019-07-16T13:20:56Z</time>
      </trkpt>
      <trkpt lat="44.04791" lon="6.86769">
        <ele>1092.7</ele>
        <time>2019-07-16T13:20:58Z</time>
      </trkpt>
      <trkpt lat="44.04791" lon="6.86764">
        <ele>1092.7</ele>
        <time>2019-07-16T13:21:00Z</time>
      </trkpt>
      <trkpt lat="44.04789" lon="6.86758">
        <ele>1092.6</ele>
        <time>2019-07-16T13:21:02Z</time>
      </trkpt>
      <trkpt lat="44.04787" lon="6.86752">
        <ele>1092.6</ele>
        <time>2019-07-16T13:21:04Z</time>
      </trkpt>
      <trkpt lat="44.04786" lon="6.86748">
        <ele>1092.5</ele>
        <time>2019-07-16T13:21:05Z</time>
      </trkpt>
      <trkpt lat="44.04783" lon="6.86742">
        <ele>1092.4</ele>
        <time>2019-07-16T13:21:07Z</time>
      </trkpt>
      <trkpt lat="44.04781" lon="6.86738">
        <ele>1092.4</ele>
        <time>2019-07-16T13:21:09Z</time>
      </trkpt>
      <trkpt lat="44.04777" lon="6.86734">
        <ele>1092.2</ele>
        <time>2019-07-16T13:21:11Z</time>
      </trkpt>
      <trkpt lat="44.04775" lon="6.86732">
        <ele>1092.2</ele>
        <time>2019-07-16T13:21:13Z</time>
      </trkpt>
      <trkpt lat="44.04772" lon="6.86729">
        <ele>1092.1</ele>
        <time>2019-07-16T13:21:15Z</time>
      </trkpt>
      <trkpt lat="44.04768" lon="6.86724">
        <ele>1091.9</ele>
        <time>2019-07-16T13:21:17Z</time>
      </trkpt>
      <trkpt lat="44.04767" lon="6.86718">
        <ele>1091.8</ele>
        <time>2019-07-16T13:21:19Z</time>
      </trkpt>
      <trkpt lat="44.04768" lon="6.86712">
        <ele>1091.8</ele>
        <time>2019-07-16T13:21:21Z</time>
      </trkpt>
      <trkpt lat="44.04769" lon="6.86708">
        <ele>1091.8</ele>
        <time>2019-07-16T13:21:22Z</time>
      </trkpt>
      <trkpt lat="44.0477" lon="6.86705">
        <ele>1091.8</ele>
        <time>2019-07-16T13:21:23Z</time>
      </trkpt>
      <trkpt lat="44.04772" lon="6.86698">
        <ele>1091.8</ele>
        <time>2019-07-16T13:21:25Z</time>
      </trkpt>
      <trkpt lat="44.04773" lon="6.86694">
        <ele>1091.8</ele>
        <time>2019-07-16T13:21:26Z</time>
      </trkpt>
      <trkpt lat="44.04775" lon="6.86692">
        <ele>1091.8</ele>
        <time>2019-07-16T13:21:27Z</time>
      </trkpt>
      <trkpt lat="44.04776" lon="6.86688">
        <ele>1091.7</ele>
        <time>2019-07-16T13:21:28Z</time>
      </trkpt>
      <trkpt lat="44.04777" lon="6.86683">
        <ele>1091.7</ele>
        <time>2019-07-16T13:21:29Z</time>
      </trkpt>
      <trkpt lat="44.04778" lon="6.8668">
        <ele>1091.7</ele>
        <time>2019-07-16T13:21:30Z</time>
      </trkpt>
      <trkpt lat="44.0478" lon="6.86676">
        <ele>1091.7</ele>
        <time>2019-07-16T13:21:31Z</time>
      </trkpt>
      <trkpt lat="44.04782" lon="6.86672">
        <ele>1091.7</ele>
        <time>2019-07-16T13:21:32Z</time>
      </trkpt>
      <trkpt lat="44.04784" lon="6.86668">
        <ele>1091.6</ele>
        <time>2019-07-16T13:21:33Z</time>
      </trkpt>
      <trkpt lat="44.04786" lon="6.86665">
        <ele>1091.6</ele>
        <time>2019-07-16T13:21:34Z</time>
      </trkpt>
      <trkpt lat="44.04788" lon="6.86661">
        <ele>1091.6</ele>
        <time>2019-07-16T13:21:35Z</time>
      </trkpt>
      <trkpt lat="44.0479" lon="6.86657">
        <ele>1091.6</ele>
        <time>2019-07-16T13:21:36Z</time>
      </trkpt>
      <trkpt lat="44.04792" lon="6.86653">
        <ele>1091.5</ele>
        <time>2019-07-16T13:21:37Z</time>
      </trkpt>
      <trkpt lat="44.04793" lon="6.8665">
        <ele>1091.5</ele>
        <time>2019-07-16T13:21:38Z</time>
      </trkpt>
      <trkpt lat="44.04795" lon="6.86647">
        <ele>1091.4</ele>
        <time>2019-07-16T13:21:39Z</time>
      </trkpt>
      <trkpt lat="44.04796" lon="6.86643">
        <ele>1091.3</ele>
        <time>2019-07-16T13:21:40Z</time>
      </trkpt>
      <trkpt lat="44.04796" lon="6.86636">
        <ele>1091.2</ele>
        <time>2019-07-16T13:21:42Z</time>
      </trkpt>
      <trkpt lat="44.04797" lon="6.86629">
        <ele>1091</ele>
        <time>2019-07-16T13:21:44Z</time>
      </trkpt>
      <trkpt lat="44.04799" lon="6.86626">
        <ele>1090.9</ele>
        <time>2019-07-16T13:21:45Z</time>
      </trkpt>
      <trkpt lat="44.04802" lon="6.86622">
        <ele>1090.8</ele>
        <time>2019-07-16T13:21:46Z</time>
      </trkpt>
      <trkpt lat="44.04804" lon="6.86618">
        <ele>1090.7</ele>
        <time>2019-07-16T13:21:47Z</time>
      </trkpt>
      <trkpt lat="44.04806" lon="6.86613">
        <ele>1090.7</ele>
        <time>2019-07-16T13:21:48Z</time>
      </trkpt>
      <trkpt lat="44.04807" lon="6.86609">
        <ele>1090.6</ele>
        <time>2019-07-16T13:21:49Z</time>
      </trkpt>
      <trkpt lat="44.0481" lon="6.86605">
        <ele>1090.5</ele>
        <time>2019-07-16T13:21:50Z</time>
      </trkpt>
      <trkpt lat="44.04812" lon="6.86602">
        <ele>1090.4</ele>
        <time>2019-07-16T13:21:51Z</time>
      </trkpt>
      <trkpt lat="44.04815" lon="6.86599">
        <ele>1090.3</ele>
        <time>2019-07-16T13:21:52Z</time>
      </trkpt>
      <trkpt lat="44.04818" lon="6.86594">
        <ele>1090.2</ele>
        <time>2019-07-16T13:21:53Z</time>
      </trkpt>
      <trkpt lat="44.04821" lon="6.8659">
        <ele>1090</ele>
        <time>2019-07-16T13:21:54Z</time>
      </trkpt>
      <trkpt lat="44.04823" lon="6.86586">
        <ele>1090</ele>
        <time>2019-07-16T13:21:55Z</time>
      </trkpt>
      <trkpt lat="44.04824" lon="6.86582">
        <ele>1089.9</ele>
        <time>2019-07-16T13:21:56Z</time>
      </trkpt>
      <trkpt lat="44.04826" lon="6.86579">
        <ele>1089.9</ele>
        <time>2019-07-16T13:21:57Z</time>
      </trkpt>
      <trkpt lat="44.04829" lon="6.86575">
        <ele>1089.9</ele>
        <time>2019-07-16T13:21:58Z</time>
      </trkpt>
      <trkpt lat="44.04831" lon="6.86572">
        <ele>1090</ele>
        <time>2019-07-16T13:21:59Z</time>
      </trkpt>
      <trkpt lat="44.04834" lon="6.86569">
        <ele>1090.1</ele>
        <time>2019-07-16T13:22:00Z</time>
      </trkpt>
      <trkpt lat="44.04838" lon="6.86565">
        <ele>1090.2</ele>
        <time>2019-07-16T13:22:02Z</time>
      </trkpt>
      <trkpt lat="44.04843" lon="6.86564">
        <ele>1090.3</ele>
        <time>2019-07-16T13:22:04Z</time>
      </trkpt>
      <trkpt lat="44.04847" lon="6.86561">
        <ele>1090.5</ele>
        <time>2019-07-16T13:22:06Z</time>
      </trkpt>
      <trkpt lat="44.0485" lon="6.86555">
        <ele>1090.5</ele>
        <time>2019-07-16T13:22:08Z</time>
      </trkpt>
      <trkpt lat="44.04854" lon="6.86552">
        <ele>1090.6</ele>
        <time>2019-07-16T13:22:10Z</time>
      </trkpt>
      <trkpt lat="44.04856" lon="6.8655">
        <ele>1090.6</ele>
        <time>2019-07-16T13:22:11Z</time>
      </trkpt>
      <trkpt lat="44.04859" lon="6.86548">
        <ele>1090.6</ele>
        <time>2019-07-16T13:22:12Z</time>
      </trkpt>
      <trkpt lat="44.04862" lon="6.86545">
        <ele>1090.6</ele>
        <time>2019-07-16T13:22:14Z</time>
      </trkpt>
      <trkpt lat="44.04867" lon="6.86544">
        <ele>1090.6</ele>
        <time>2019-07-16T13:22:16Z</time>
      </trkpt>
      <trkpt lat="44.04871" lon="6.86543">
        <ele>1090.5</ele>
        <time>2019-07-16T13:22:18Z</time>
      </trkpt>
      <trkpt lat="44.04876" lon="6.86544">
        <ele>1090.5</ele>
        <time>2019-07-16T13:22:20Z</time>
      </trkpt>
      <trkpt lat="44.0488" lon="6.86542">
        <ele>1090.4</ele>
        <time>2019-07-16T13:22:22Z</time>
      </trkpt>
      <trkpt lat="44.04883" lon="6.86541">
        <ele>1090.3</ele>
        <time>2019-07-16T13:22:24Z</time>
      </trkpt>
      <trkpt lat="44.04887" lon="6.86541">
        <ele>1090.2</ele>
        <time>2019-07-16T13:22:26Z</time>
      </trkpt>
      <trkpt lat="44.0489" lon="6.86542">
        <ele>1090.1</ele>
        <time>2019-07-16T13:22:27Z</time>
      </trkpt>
      <trkpt lat="44.04893" lon="6.86543">
        <ele>1090.1</ele>
        <time>2019-07-16T13:22:28Z</time>
      </trkpt>
      <trkpt lat="44.04896" lon="6.86543">
        <ele>1090.1</ele>
        <time>2019-07-16T13:22:29Z</time>
      </trkpt>
      <trkpt lat="44.04898" lon="6.86541">
        <ele>1090.1</ele>
        <time>2019-07-16T13:22:30Z</time>
      </trkpt>
      <trkpt lat="44.04902" lon="6.8654">
        <ele>1090.1</ele>
        <time>2019-07-16T13:22:32Z</time>
      </trkpt>
      <trkpt lat="44.04908" lon="6.86539">
        <ele>1090.2</ele>
        <time>2019-07-16T13:22:34Z</time>
      </trkpt>
      <trkpt lat="44.04911" lon="6.86539">
        <ele>1090.3</ele>
        <time>2019-07-16T13:22:36Z</time>
      </trkpt>
      <trkpt lat="44.04915" lon="6.86541">
        <ele>1090.3</ele>
        <time>2019-07-16T13:22:39Z</time>
      </trkpt>
      <trkpt lat="44.04915" lon="6.86544">
        <ele>1090.3</ele>
        <time>2019-07-16T13:22:41Z</time>
      </trkpt>
      <trkpt lat="44.04919" lon="6.86543">
        <ele>1090.2</ele>
        <time>2019-07-16T13:22:43Z</time>
      </trkpt>
      <trkpt lat="44.04922" lon="6.86538">
        <ele>1090.2</ele>
        <time>2019-07-16T13:22:45Z</time>
      </trkpt>
      <trkpt lat="44.04924" lon="6.86535">
        <ele>1090.1</ele>
        <time>2019-07-16T13:22:46Z</time>
      </trkpt>
      <trkpt lat="44.04926" lon="6.86533">
        <ele>1090</ele>
        <time>2019-07-16T13:22:47Z</time>
      </trkpt>
      <trkpt lat="44.04931" lon="6.86531">
        <ele>1089.9</ele>
        <time>2019-07-16T13:22:49Z</time>
      </trkpt>
      <trkpt lat="44.04935" lon="6.86527">
        <ele>1089.8</ele>
        <time>2019-07-16T13:22:51Z</time>
      </trkpt>
      <trkpt lat="44.04937" lon="6.86526">
        <ele>1089.8</ele>
        <time>2019-07-16T13:22:52Z</time>
      </trkpt>
      <trkpt lat="44.04941" lon="6.86524">
        <ele>1089.8</ele>
        <time>2019-07-16T13:22:54Z</time>
      </trkpt>
      <trkpt lat="44.04944" lon="6.86524">
        <ele>1089.8</ele>
        <time>2019-07-16T13:22:56Z</time>
      </trkpt>
      <trkpt lat="44.04948" lon="6.86524">
        <ele>1089.8</ele>
        <time>2019-07-16T13:22:58Z</time>
      </trkpt>
      <trkpt lat="44.04953" lon="6.86524">
        <ele>1089.8</ele>
        <time>2019-07-16T13:23:00Z</time>
      </trkpt>
      <trkpt lat="44.04956" lon="6.86525">
        <ele>1089.9</ele>
        <time>2019-07-16T13:23:02Z</time>
      </trkpt>
      <trkpt lat="44.04959" lon="6.86526">
        <ele>1089.9</ele>
        <time>2019-07-16T13:23:10Z</time>
      </trkpt>
      <trkpt lat="44.04962" lon="6.86525">
        <ele>1090</ele>
        <time>2019-07-16T13:23:17Z</time>
      </trkpt>
      <trkpt lat="44.04965" lon="6.86524">
        <ele>1090</ele>
        <time>2019-07-16T13:23:23Z</time>
      </trkpt>
      <trkpt lat="44.04968" lon="6.86524">
        <ele>1090.1</ele>
        <time>2019-07-16T13:23:53Z</time>
      </trkpt>
      <trkpt lat="44.04972" lon="6.86525">
        <ele>1090.1</ele>
        <time>2019-07-16T13:23:56Z</time>
      </trkpt>
      <trkpt lat="44.04975" lon="6.86528">
        <ele>1090.2</ele>
        <time>2019-07-16T13:23:58Z</time>
      </trkpt>
      <trkpt lat="44.04978" lon="6.8653">
        <ele>1090.2</ele>
        <time>2019-07-16T13:24:00Z</time>
      </trkpt>
      <trkpt lat="44.04981" lon="6.86532">
        <ele>1090.2</ele>
        <time>2019-07-16T13:24:02Z</time>
      </trkpt>
      <trkpt lat="44.04983" lon="6.8653">
        <ele>1090.2</ele>
        <time>2019-07-16T13:24:05Z</time>
      </trkpt>
      <trkpt lat="44.04987" lon="6.8653">
        <ele>1090.2</ele>
        <time>2019-07-16T13:24:11Z</time>
      </trkpt>
      <trkpt lat="44.0499" lon="6.8653">
        <ele>1090.2</ele>
        <time>2019-07-16T13:24:13Z</time>
      </trkpt>
      <trkpt lat="44.04993" lon="6.8653">
        <ele>1090.2</ele>
        <time>2019-07-16T13:24:18Z</time>
      </trkpt>
      <trkpt lat="44.04996" lon="6.86529">
        <ele>1090.3</ele>
        <time>2019-07-16T13:24:20Z</time>
      </trkpt>
      <trkpt lat="44.04999" lon="6.86528">
        <ele>1090.3</ele>
        <time>2019-07-16T13:24:22Z</time>
      </trkpt>
      <trkpt lat="44.05003" lon="6.86528">
        <ele>1090.4</ele>
        <time>2019-07-16T13:24:24Z</time>
      </trkpt>
      <trkpt lat="44.05007" lon="6.86528">
        <ele>1090.5</ele>
        <time>2019-07-16T13:24:26Z</time>
      </trkpt>
      <trkpt lat="44.05011" lon="6.8653">
        <ele>1090.6</ele>
        <time>2019-07-16T13:24:28Z</time>
      </trkpt>
      <trkpt lat="44.05013" lon="6.86532">
        <ele>1090.6</ele>
        <time>2019-07-16T13:24:30Z</time>
      </trkpt>
      <trkpt lat="44.05013" lon="6.86536">
        <ele>1090.7</ele>
        <time>2019-07-16T13:24:32Z</time>
      </trkpt>
      <trkpt lat="44.05013" lon="6.8654">
        <ele>1090.7</ele>
        <time>2019-07-16T13:24:36Z</time>
      </trkpt>
      <trkpt lat="44.05014" lon="6.86545">
        <ele>1090.8</ele>
        <time>2019-07-16T13:24:39Z</time>
      </trkpt>
      <trkpt lat="44.05016" lon="6.86548">
        <ele>1090.9</ele>
        <time>2019-07-16T13:24:45Z</time>
      </trkpt>
      <trkpt lat="44.05018" lon="6.86551">
        <ele>1090.9</ele>
        <time>2019-07-16T13:24:48Z</time>
      </trkpt>
      <trkpt lat="44.05021" lon="6.86553">
        <ele>1091</ele>
        <time>2019-07-16T13:24:52Z</time>
      </trkpt>
      <trkpt lat="44.05023" lon="6.86551">
        <ele>1091</ele>
        <time>2019-07-16T13:24:57Z</time>
      </trkpt>
      <trkpt lat="44.05026" lon="6.86552">
        <ele>1091</ele>
        <time>2019-07-16T13:25:00Z</time>
      </trkpt>
      <trkpt lat="44.05029" lon="6.86551">
        <ele>1091</ele>
        <time>2019-07-16T13:25:02Z</time>
      </trkpt>
      <trkpt lat="44.05032" lon="6.86548">
        <ele>1091</ele>
        <time>2019-07-16T13:25:04Z</time>
      </trkpt>
      <trkpt lat="44.05034" lon="6.86545">
        <ele>1091</ele>
        <time>2019-07-16T13:25:06Z</time>
      </trkpt>
      <trkpt lat="44.05037" lon="6.8654">
        <ele>1091</ele>
        <time>2019-07-16T13:25:14Z</time>
      </trkpt>
      <trkpt lat="44.0504" lon="6.86535">
        <ele>1091</ele>
        <time>2019-07-16T13:25:16Z</time>
      </trkpt>
      <trkpt lat="44.05043" lon="6.86534">
        <ele>1091</ele>
        <time>2019-07-16T13:25:18Z</time>
      </trkpt>
      <trkpt lat="44.05047" lon="6.86532">
        <ele>1091.1</ele>
        <time>2019-07-16T13:25:20Z</time>
      </trkpt>
      <trkpt lat="44.05051" lon="6.86532">
        <ele>1091.2</ele>
        <time>2019-07-16T13:25:22Z</time>
      </trkpt>
      <trkpt lat="44.05054" lon="6.86531">
        <ele>1091.2</ele>
        <time>2019-07-16T13:25:24Z</time>
      </trkpt>
      <trkpt lat="44.05058" lon="6.86535">
        <ele>1091.4</ele>
        <time>2019-07-16T13:25:27Z</time>
      </trkpt>
      <trkpt lat="44.0506" lon="6.86537">
        <ele>1091.4</ele>
        <time>2019-07-16T13:25:28Z</time>
      </trkpt>
      <trkpt lat="44.05065" lon="6.86541">
        <ele>1091.6</ele>
        <time>2019-07-16T13:25:30Z</time>
      </trkpt>
      <trkpt lat="44.05068" lon="6.86541">
        <ele>1091.6</ele>
        <time>2019-07-16T13:25:31Z</time>
      </trkpt>
      <trkpt lat="44.05071" lon="6.86541">
        <ele>1091.7</ele>
        <time>2019-07-16T13:25:32Z</time>
      </trkpt>
      <trkpt lat="44.05073" lon="6.8654">
        <ele>1091.7</ele>
        <time>2019-07-16T13:25:33Z</time>
      </trkpt>
      <trkpt lat="44.05077" lon="6.86539">
        <ele>1091.7</ele>
        <time>2019-07-16T13:25:35Z</time>
      </trkpt>
      <trkpt lat="44.05081" lon="6.8654">
        <ele>1091.7</ele>
        <time>2019-07-16T13:25:37Z</time>
      </trkpt>
      <trkpt lat="44.05084" lon="6.86541">
        <ele>1091.8</ele>
        <time>2019-07-16T13:25:43Z</time>
      </trkpt>
      <trkpt lat="44.05087" lon="6.86543">
        <ele>1091.8</ele>
        <time>2019-07-16T13:25:50Z</time>
      </trkpt>
      <trkpt lat="44.0509" lon="6.86545">
        <ele>1091.8</ele>
        <time>2019-07-16T13:25:54Z</time>
      </trkpt>
      <trkpt lat="44.05094" lon="6.86548">
        <ele>1091.8</ele>
        <time>2019-07-16T13:26:00Z</time>
      </trkpt>
      <trkpt lat="44.05098" lon="6.8655">
        <ele>1091.8</ele>
        <time>2019-07-16T13:26:05Z</time>
      </trkpt>
      <trkpt lat="44.05102" lon="6.8655">
        <ele>1091.8</ele>
        <time>2019-07-16T13:26:12Z</time>
      </trkpt>
      <trkpt lat="44.05106" lon="6.86547">
        <ele>1091.8</ele>
        <time>2019-07-16T13:26:19Z</time>
      </trkpt>
      <trkpt lat="44.05109" lon="6.86545">
        <ele>1091.8</ele>
        <time>2019-07-16T13:26:22Z</time>
      </trkpt>
      <trkpt lat="44.05113" lon="6.86544">
        <ele>1091.8</ele>
        <time>2019-07-16T13:26:24Z</time>
      </trkpt>
      <trkpt lat="44.05116" lon="6.86543">
        <ele>1091.8</ele>
        <time>2019-07-16T13:26:25Z</time>
      </trkpt>
      <trkpt lat="44.05119" lon="6.86543">
        <ele>1091.8</ele>
        <time>2019-07-16T13:26:27Z</time>
      </trkpt>
      <trkpt lat="44.05123" lon="6.8654">
        <ele>1091.8</ele>
        <time>2019-07-16T13:26:30Z</time>
      </trkpt>
      <trkpt lat="44.05126" lon="6.86538">
        <ele>1091.8</ele>
        <time>2019-07-16T13:26:32Z</time>
      </trkpt>
      <trkpt lat="44.05129" lon="6.86536">
        <ele>1091.8</ele>
        <time>2019-07-16T13:26:34Z</time>
      </trkpt>
      <trkpt lat="44.05132" lon="6.86536">
        <ele>1091.8</ele>
        <time>2019-07-16T13:26:36Z</time>
      </trkpt>
      <trkpt lat="44.05137" lon="6.86534">
        <ele>1091.8</ele>
        <time>2019-07-16T13:26:38Z</time>
      </trkpt>
      <trkpt lat="44.05142" lon="6.86534">
        <ele>1091.8</ele>
        <time>2019-07-16T13:26:40Z</time>
      </trkpt>
      <trkpt lat="44.05145" lon="6.8653">
        <ele>1091.7</ele>
        <time>2019-07-16T13:26:42Z</time>
      </trkpt>
      <trkpt lat="44.05147" lon="6.86524">
        <ele>1091.7</ele>
        <time>2019-07-16T13:26:44Z</time>
      </trkpt>
      <trkpt lat="44.05149" lon="6.86518">
        <ele>1091.6</ele>
        <time>2019-07-16T13:26:46Z</time>
      </trkpt>
      <trkpt lat="44.05152" lon="6.86515">
        <ele>1091.5</ele>
        <time>2019-07-16T13:26:48Z</time>
      </trkpt>
      <trkpt lat="44.05154" lon="6.86511">
        <ele>1091.4</ele>
        <time>2019-07-16T13:26:50Z</time>
      </trkpt>
      <trkpt lat="44.05156" lon="6.86508">
        <ele>1091.3</ele>
        <time>2019-07-16T13:26:52Z</time>
      </trkpt>
      <trkpt lat="44.05159" lon="6.86506">
        <ele>1091.3</ele>
        <time>2019-07-16T13:26:54Z</time>
      </trkpt>
      <trkpt lat="44.05162" lon="6.86504">
        <ele>1091.2</ele>
        <time>2019-07-16T13:26:57Z</time>
      </trkpt>
      <trkpt lat="44.05163" lon="6.86499">
        <ele>1091.1</ele>
        <time>2019-07-16T13:27:00Z</time>
      </trkpt>
      <trkpt lat="44.05167" lon="6.86496">
        <ele>1091</ele>
        <time>2019-07-16T13:27:02Z</time>
      </trkpt>
      <trkpt lat="44.0517" lon="6.86493">
        <ele>1091</ele>
        <time>2019-07-16T13:27:04Z</time>
      </trkpt>
      <trkpt lat="44.05173" lon="6.8649">
        <ele>1090.9</ele>
        <time>2019-07-16T13:27:06Z</time>
      </trkpt>
      <trkpt lat="44.05175" lon="6.86487">
        <ele>1090.9</ele>
        <time>2019-07-16T13:27:08Z</time>
      </trkpt>
      <trkpt lat="44.05176" lon="6.86484">
        <ele>1090.9</ele>
        <time>2019-07-16T13:27:12Z</time>
      </trkpt>
      <trkpt lat="44.05179" lon="6.86486">
        <ele>1090.9</ele>
        <time>2019-07-16T13:27:21Z</time>
      </trkpt>
      <trkpt lat="44.05181" lon="6.86483">
        <ele>1090.9</ele>
        <time>2019-07-16T13:27:24Z</time>
      </trkpt>
      <trkpt lat="44.05185" lon="6.86479">
        <ele>1090.8</ele>
        <time>2019-07-16T13:27:26Z</time>
      </trkpt>
      <trkpt lat="44.05188" lon="6.86476">
        <ele>1090.8</ele>
        <time>2019-07-16T13:27:28Z</time>
      </trkpt>
      <trkpt lat="44.0519" lon="6.86472">
        <ele>1090.8</ele>
        <time>2019-07-16T13:27:31Z</time>
      </trkpt>
      <trkpt lat="44.05193" lon="6.86468">
        <ele>1090.8</ele>
        <time>2019-07-16T13:27:34Z</time>
      </trkpt>
      <trkpt lat="44.05195" lon="6.86465">
        <ele>1090.8</ele>
        <time>2019-07-16T13:27:36Z</time>
      </trkpt>
      <trkpt lat="44.05196" lon="6.86458">
        <ele>1090.8</ele>
        <time>2019-07-16T13:27:38Z</time>
      </trkpt>
      <trkpt lat="44.05196" lon="6.86453">
        <ele>1090.9</ele>
        <time>2019-07-16T13:27:40Z</time>
      </trkpt>
      <trkpt lat="44.05197" lon="6.86446">
        <ele>1090.9</ele>
        <time>2019-07-16T13:27:42Z</time>
      </trkpt>
      <trkpt lat="44.05198" lon="6.86441">
        <ele>1090.9</ele>
        <time>2019-07-16T13:27:44Z</time>
      </trkpt>
      <trkpt lat="44.05198" lon="6.86434">
        <ele>1090.9</ele>
        <time>2019-07-16T13:27:46Z</time>
      </trkpt>
      <trkpt lat="44.05198" lon="6.86428">
        <ele>1090.9</ele>
        <time>2019-07-16T13:27:48Z</time>
      </trkpt>
      <trkpt lat="44.052" lon="6.86422">
        <ele>1090.9</ele>
        <time>2019-07-16T13:27:50Z</time>
      </trkpt>
      <trkpt lat="44.05201" lon="6.86417">
        <ele>1090.9</ele>
        <time>2019-07-16T13:27:52Z</time>
      </trkpt>
      <trkpt lat="44.052" lon="6.8641">
        <ele>1090.9</ele>
        <time>2019-07-16T13:27:54Z</time>
      </trkpt>
      <trkpt lat="44.052" lon="6.86403">
        <ele>1091</ele>
        <time>2019-07-16T13:27:56Z</time>
      </trkpt>
      <trkpt lat="44.05203" lon="6.86398">
        <ele>1091</ele>
        <time>2019-07-16T13:27:58Z</time>
      </trkpt>
      <trkpt lat="44.05202" lon="6.86392">
        <ele>1091.1</ele>
        <time>2019-07-16T13:28:00Z</time>
      </trkpt>
      <trkpt lat="44.05203" lon="6.86388">
        <ele>1091.2</ele>
        <time>2019-07-16T13:28:02Z</time>
      </trkpt>
      <trkpt lat="44.05203" lon="6.86383">
        <ele>1091.3</ele>
        <time>2019-07-16T13:28:04Z</time>
      </trkpt>
      <trkpt lat="44.05203" lon="6.86377">
        <ele>1091.5</ele>
        <time>2019-07-16T13:28:06Z</time>
      </trkpt>
      <trkpt lat="44.05203" lon="6.86371">
        <ele>1091.6</ele>
        <time>2019-07-16T13:28:08Z</time>
      </trkpt>
      <trkpt lat="44.05204" lon="6.86365">
        <ele>1091.7</ele>
        <time>2019-07-16T13:28:10Z</time>
      </trkpt>
      <trkpt lat="44.05204" lon="6.86359">
        <ele>1091.7</ele>
        <time>2019-07-16T13:28:12Z</time>
      </trkpt>
      <trkpt lat="44.05205" lon="6.86355">
        <ele>1091.8</ele>
        <time>2019-07-16T13:28:13Z</time>
      </trkpt>
      <trkpt lat="44.05205" lon="6.86348">
        <ele>1091.8</ele>
        <time>2019-07-16T13:28:15Z</time>
      </trkpt>
      <trkpt lat="44.05205" lon="6.86341">
        <ele>1091.8</ele>
        <time>2019-07-16T13:28:17Z</time>
      </trkpt>
      <trkpt lat="44.05204" lon="6.86336">
        <ele>1091.7</ele>
        <time>2019-07-16T13:28:19Z</time>
      </trkpt>
      <trkpt lat="44.05202" lon="6.8633">
        <ele>1091.7</ele>
        <time>2019-07-16T13:28:21Z</time>
      </trkpt>
      <trkpt lat="44.05201" lon="6.86326">
        <ele>1091.6</ele>
        <time>2019-07-16T13:28:22Z</time>
      </trkpt>
      <trkpt lat="44.05199" lon="6.86322">
        <ele>1091.5</ele>
        <time>2019-07-16T13:28:23Z</time>
      </trkpt>
      <trkpt lat="44.05197" lon="6.86316">
        <ele>1091.4</ele>
        <time>2019-07-16T13:28:25Z</time>
      </trkpt>
      <trkpt lat="44.05194" lon="6.86311">
        <ele>1091.2</ele>
        <time>2019-07-16T13:28:27Z</time>
      </trkpt>
      <trkpt lat="44.05193" lon="6.86305">
        <ele>1091.2</ele>
        <time>2019-07-16T13:28:29Z</time>
      </trkpt>
      <trkpt lat="44.05192" lon="6.863">
        <ele>1091.1</ele>
        <time>2019-07-16T13:28:31Z</time>
      </trkpt>
      <trkpt lat="44.05191" lon="6.86295">
        <ele>1091.1</ele>
        <time>2019-07-16T13:28:33Z</time>
      </trkpt>
      <trkpt lat="44.05192" lon="6.86289">
        <ele>1091.1</ele>
        <time>2019-07-16T13:28:35Z</time>
      </trkpt>
      <trkpt lat="44.05192" lon="6.86282">
        <ele>1091.1</ele>
        <time>2019-07-16T13:28:37Z</time>
      </trkpt>
      <trkpt lat="44.05191" lon="6.86276">
        <ele>1091.3</ele>
        <time>2019-07-16T13:28:39Z</time>
      </trkpt>
      <trkpt lat="44.05191" lon="6.86269">
        <ele>1091.4</ele>
        <time>2019-07-16T13:28:41Z</time>
      </trkpt>
      <trkpt lat="44.0519" lon="6.86263">
        <ele>1091.5</ele>
        <time>2019-07-16T13:28:43Z</time>
      </trkpt>
      <trkpt lat="44.05191" lon="6.86256">
        <ele>1091.6</ele>
        <time>2019-07-16T13:28:45Z</time>
      </trkpt>
      <trkpt lat="44.05193" lon="6.86252">
        <ele>1091.7</ele>
        <time>2019-07-16T13:28:47Z</time>
      </trkpt>
      <trkpt lat="44.05194" lon="6.86246">
        <ele>1091.8</ele>
        <time>2019-07-16T13:28:49Z</time>
      </trkpt>
      <trkpt lat="44.05194" lon="6.86239">
        <ele>1091.8</ele>
        <time>2019-07-16T13:28:51Z</time>
      </trkpt>
      <trkpt lat="44.05195" lon="6.86235">
        <ele>1091.9</ele>
        <time>2019-07-16T13:28:52Z</time>
      </trkpt>
      <trkpt lat="44.05196" lon="6.8623">
        <ele>1091.9</ele>
        <time>2019-07-16T13:28:54Z</time>
      </trkpt>
      <trkpt lat="44.05198" lon="6.86227">
        <ele>1091.9</ele>
        <time>2019-07-16T13:28:55Z</time>
      </trkpt>
      <trkpt lat="44.05199" lon="6.86223">
        <ele>1091.9</ele>
        <time>2019-07-16T13:28:56Z</time>
      </trkpt>
      <trkpt lat="44.052" lon="6.86218">
        <ele>1091.9</ele>
        <time>2019-07-16T13:28:58Z</time>
      </trkpt>
      <trkpt lat="44.05201" lon="6.86212">
        <ele>1091.9</ele>
        <time>2019-07-16T13:29:00Z</time>
      </trkpt>
      <trkpt lat="44.05202" lon="6.86207">
        <ele>1091.9</ele>
        <time>2019-07-16T13:29:02Z</time>
      </trkpt>
      <trkpt lat="44.05203" lon="6.86202">
        <ele>1092</ele>
        <time>2019-07-16T13:29:04Z</time>
      </trkpt>
      <trkpt lat="44.05204" lon="6.86197">
        <ele>1092</ele>
        <time>2019-07-16T13:29:06Z</time>
      </trkpt>
      <trkpt lat="44.05205" lon="6.86193">
        <ele>1092</ele>
        <time>2019-07-16T13:29:11Z</time>
      </trkpt>
      <trkpt lat="44.05208" lon="6.86191">
        <ele>1092</ele>
        <time>2019-07-16T13:29:31Z</time>
      </trkpt>
      <trkpt lat="44.05205" lon="6.86191">
        <ele>1092.1</ele>
        <time>2019-07-16T13:29:37Z</time>
      </trkpt>
      <trkpt lat="44.05208" lon="6.8619">
        <ele>1092.1</ele>
        <time>2019-07-16T13:30:18Z</time>
      </trkpt>
      <trkpt lat="44.05209" lon="6.86185">
        <ele>1092.2</ele>
        <time>2019-07-16T13:30:26Z</time>
      </trkpt>
      <trkpt lat="44.0521" lon="6.86181">
        <ele>1092.3</ele>
        <time>2019-07-16T13:30:28Z</time>
      </trkpt>
      <trkpt lat="44.05213" lon="6.86179">
        <ele>1092.4</ele>
        <time>2019-07-16T13:30:32Z</time>
      </trkpt>
      <trkpt lat="44.05215" lon="6.86175">
        <ele>1092.4</ele>
        <time>2019-07-16T13:30:34Z</time>
      </trkpt>
      <trkpt lat="44.05218" lon="6.86171">
        <ele>1092.6</ele>
        <time>2019-07-16T13:30:36Z</time>
      </trkpt>
      <trkpt lat="44.05219" lon="6.86164">
        <ele>1092.7</ele>
        <time>2019-07-16T13:30:38Z</time>
      </trkpt>
      <trkpt lat="44.0522" lon="6.86158">
        <ele>1092.8</ele>
        <time>2019-07-16T13:30:40Z</time>
      </trkpt>
      <trkpt lat="44.05222" lon="6.86152">
        <ele>1092.9</ele>
        <time>2019-07-16T13:30:42Z</time>
      </trkpt>
      <trkpt lat="44.05222" lon="6.86147">
        <ele>1092.9</ele>
        <time>2019-07-16T13:30:44Z</time>
      </trkpt>
      <trkpt lat="44.05223" lon="6.8614">
        <ele>1092.9</ele>
        <time>2019-07-16T13:30:46Z</time>
      </trkpt>
      <trkpt lat="44.05223" lon="6.86133">
        <ele>1093</ele>
        <time>2019-07-16T13:30:48Z</time>
      </trkpt>
      <trkpt lat="44.05224" lon="6.86129">
        <ele>1093</ele>
        <time>2019-07-16T13:30:51Z</time>
      </trkpt>
      <trkpt lat="44.05225" lon="6.86123">
        <ele>1093.1</ele>
        <time>2019-07-16T13:30:53Z</time>
      </trkpt>
      <trkpt lat="44.05225" lon="6.86119">
        <ele>1093.1</ele>
        <time>2019-07-16T13:30:55Z</time>
      </trkpt>
      <trkpt lat="44.05226" lon="6.86114">
        <ele>1093.2</ele>
        <time>2019-07-16T13:30:57Z</time>
      </trkpt>
      <trkpt lat="44.05225" lon="6.86106">
        <ele>1093.3</ele>
        <time>2019-07-16T13:30:59Z</time>
      </trkpt>
      <trkpt lat="44.05225" lon="6.861">
        <ele>1093.5</ele>
        <time>2019-07-16T13:31:01Z</time>
      </trkpt>
      <trkpt lat="44.05226" lon="6.86096">
        <ele>1093.6</ele>
        <time>2019-07-16T13:31:03Z</time>
      </trkpt>
      <trkpt lat="44.05227" lon="6.8609">
        <ele>1093.7</ele>
        <time>2019-07-16T13:31:05Z</time>
      </trkpt>
      <trkpt lat="44.05227" lon="6.86085">
        <ele>1093.8</ele>
        <time>2019-07-16T13:31:07Z</time>
      </trkpt>
      <trkpt lat="44.05228" lon="6.86078">
        <ele>1093.9</ele>
        <time>2019-07-16T13:31:09Z</time>
      </trkpt>
      <trkpt lat="44.0523" lon="6.86072">
        <ele>1093.9</ele>
        <time>2019-07-16T13:31:11Z</time>
      </trkpt>
      <trkpt lat="44.05231" lon="6.86065">
        <ele>1094</ele>
        <time>2019-07-16T13:31:13Z</time>
      </trkpt>
      <trkpt lat="44.05231" lon="6.86059">
        <ele>1094</ele>
        <time>2019-07-16T13:31:15Z</time>
      </trkpt>
      <trkpt lat="44.05231" lon="6.86052">
        <ele>1094.1</ele>
        <time>2019-07-16T13:31:17Z</time>
      </trkpt>
      <trkpt lat="44.05231" lon="6.86047">
        <ele>1094.1</ele>
        <time>2019-07-16T13:31:19Z</time>
      </trkpt>
      <trkpt lat="44.05232" lon="6.8604">
        <ele>1094.2</ele>
        <time>2019-07-16T13:31:21Z</time>
      </trkpt>
      <trkpt lat="44.05233" lon="6.86032">
        <ele>1094.3</ele>
        <time>2019-07-16T13:31:23Z</time>
      </trkpt>
      <trkpt lat="44.05233" lon="6.86029">
        <ele>1094.3</ele>
        <time>2019-07-16T13:31:24Z</time>
      </trkpt>
      <trkpt lat="44.05234" lon="6.86024">
        <ele>1094.3</ele>
        <time>2019-07-16T13:31:25Z</time>
      </trkpt>
      <trkpt lat="44.05235" lon="6.86021">
        <ele>1094.4</ele>
        <time>2019-07-16T13:31:26Z</time>
      </trkpt>
      <trkpt lat="44.05237" lon="6.86015">
        <ele>1094.5</ele>
        <time>2019-07-16T13:31:28Z</time>
      </trkpt>
      <trkpt lat="44.05237" lon="6.86011">
        <ele>1094.5</ele>
        <time>2019-07-16T13:31:29Z</time>
      </trkpt>
      <trkpt lat="44.05238" lon="6.86004">
        <ele>1094.7</ele>
        <time>2019-07-16T13:31:31Z</time>
      </trkpt>
      <trkpt lat="44.05239" lon="6.86">
        <ele>1094.7</ele>
        <time>2019-07-16T13:31:32Z</time>
      </trkpt>
      <trkpt lat="44.0524" lon="6.85996">
        <ele>1094.8</ele>
        <time>2019-07-16T13:31:33Z</time>
      </trkpt>
      <trkpt lat="44.05241" lon="6.85993">
        <ele>1094.8</ele>
        <time>2019-07-16T13:31:34Z</time>
      </trkpt>
      <trkpt lat="44.05243" lon="6.85986">
        <ele>1094.9</ele>
        <time>2019-07-16T13:31:36Z</time>
      </trkpt>
      <trkpt lat="44.05245" lon="6.85981">
        <ele>1095</ele>
        <time>2019-07-16T13:31:38Z</time>
      </trkpt>
      <trkpt lat="44.05248" lon="6.85975">
        <ele>1095</ele>
        <time>2019-07-16T13:31:40Z</time>
      </trkpt>
      <trkpt lat="44.0525" lon="6.85972">
        <ele>1095</ele>
        <time>2019-07-16T13:31:41Z</time>
      </trkpt>
      <trkpt lat="44.05252" lon="6.85969">
        <ele>1095</ele>
        <time>2019-07-16T13:31:42Z</time>
      </trkpt>
      <trkpt lat="44.05253" lon="6.85966">
        <ele>1095.1</ele>
        <time>2019-07-16T13:31:43Z</time>
      </trkpt>
      <trkpt lat="44.05255" lon="6.85963">
        <ele>1095.1</ele>
        <time>2019-07-16T13:31:44Z</time>
      </trkpt>
      <trkpt lat="44.05257" lon="6.8596">
        <ele>1095.1</ele>
        <time>2019-07-16T13:31:45Z</time>
      </trkpt>
      <trkpt lat="44.05259" lon="6.85957">
        <ele>1095.1</ele>
        <time>2019-07-16T13:31:46Z</time>
      </trkpt>
      <trkpt lat="44.05261" lon="6.85954">
        <ele>1095.2</ele>
        <time>2019-07-16T13:31:47Z</time>
      </trkpt>
      <trkpt lat="44.05264" lon="6.8595">
        <ele>1095.3</ele>
        <time>2019-07-16T13:31:49Z</time>
      </trkpt>
      <trkpt lat="44.05267" lon="6.85947">
        <ele>1095.4</ele>
        <time>2019-07-16T13:31:50Z</time>
      </trkpt>
      <trkpt lat="44.05269" lon="6.85945">
        <ele>1095.5</ele>
        <time>2019-07-16T13:31:51Z</time>
      </trkpt>
      <trkpt lat="44.05273" lon="6.85941">
        <ele>1095.6</ele>
        <time>2019-07-16T13:31:53Z</time>
      </trkpt>
      <trkpt lat="44.05277" lon="6.85938">
        <ele>1095.7</ele>
        <time>2019-07-16T13:31:55Z</time>
      </trkpt>
      <trkpt lat="44.0528" lon="6.85937">
        <ele>1095.8</ele>
        <time>2019-07-16T13:31:56Z</time>
      </trkpt>
      <trkpt lat="44.05283" lon="6.85934">
        <ele>1095.9</ele>
        <time>2019-07-16T13:31:58Z</time>
      </trkpt>
      <trkpt lat="44.05287" lon="6.85932">
        <ele>1095.9</ele>
        <time>2019-07-16T13:32:00Z</time>
      </trkpt>
      <trkpt lat="44.0529" lon="6.8593">
        <ele>1096</ele>
        <time>2019-07-16T13:32:02Z</time>
      </trkpt>
      <trkpt lat="44.05294" lon="6.8593">
        <ele>1096</ele>
        <time>2019-07-16T13:32:04Z</time>
      </trkpt>
      <trkpt lat="44.05296" lon="6.85926">
        <ele>1096</ele>
        <time>2019-07-16T13:32:21Z</time>
      </trkpt>
      <trkpt lat="44.05299" lon="6.85925">
        <ele>1096</ele>
        <time>2019-07-16T13:32:24Z</time>
      </trkpt>
      <trkpt lat="44.05302" lon="6.85923">
        <ele>1096</ele>
        <time>2019-07-16T13:32:26Z</time>
      </trkpt>
      <trkpt lat="44.05306" lon="6.85923">
        <ele>1096</ele>
        <time>2019-07-16T13:32:28Z</time>
      </trkpt>
      <trkpt lat="44.0531" lon="6.85923">
        <ele>1096</ele>
        <time>2019-07-16T13:32:30Z</time>
      </trkpt>
      <trkpt lat="44.05314" lon="6.85923">
        <ele>1096</ele>
        <time>2019-07-16T13:32:33Z</time>
      </trkpt>
      <trkpt lat="44.05317" lon="6.85922">
        <ele>1096.1</ele>
        <time>2019-07-16T13:32:35Z</time>
      </trkpt>
      <trkpt lat="44.05321" lon="6.85923">
        <ele>1096.1</ele>
        <time>2019-07-16T13:32:37Z</time>
      </trkpt>
      <trkpt lat="44.05327" lon="6.85922">
        <ele>1096.1</ele>
        <time>2019-07-16T13:32:39Z</time>
      </trkpt>
      <trkpt lat="44.0533" lon="6.85922">
        <ele>1096.1</ele>
        <time>2019-07-16T13:32:40Z</time>
      </trkpt>
      <trkpt lat="44.05335" lon="6.85923">
        <ele>1096.1</ele>
        <time>2019-07-16T13:32:42Z</time>
      </trkpt>
      <trkpt lat="44.05338" lon="6.85925">
        <ele>1096.1</ele>
        <time>2019-07-16T13:32:43Z</time>
      </trkpt>
      <trkpt lat="44.05341" lon="6.85927">
        <ele>1096.1</ele>
        <time>2019-07-16T13:32:44Z</time>
      </trkpt>
      <trkpt lat="44.05345" lon="6.85931">
        <ele>1096.1</ele>
        <time>2019-07-16T13:32:46Z</time>
      </trkpt>
      <trkpt lat="44.05348" lon="6.85936">
        <ele>1096.1</ele>
        <time>2019-07-16T13:32:48Z</time>
      </trkpt>
      <trkpt lat="44.0535" lon="6.8594">
        <ele>1096.1</ele>
        <time>2019-07-16T13:32:50Z</time>
      </trkpt>
      <trkpt lat="44.05353" lon="6.85945">
        <ele>1096.1</ele>
        <time>2019-07-16T13:32:52Z</time>
      </trkpt>
      <trkpt lat="44.05355" lon="6.85948">
        <ele>1096.1</ele>
        <time>2019-07-16T13:32:53Z</time>
      </trkpt>
      <trkpt lat="44.05359" lon="6.85952">
        <ele>1096.1</ele>
        <time>2019-07-16T13:32:55Z</time>
      </trkpt>
      <trkpt lat="44.05362" lon="6.85956">
        <ele>1096.1</ele>
        <time>2019-07-16T13:32:57Z</time>
      </trkpt>
      <trkpt lat="44.05365" lon="6.8596">
        <ele>1096.1</ele>
        <time>2019-07-16T13:32:59Z</time>
      </trkpt>
      <trkpt lat="44.05367" lon="6.85963">
        <ele>1096.1</ele>
        <time>2019-07-16T13:33:01Z</time>
      </trkpt>
      <trkpt lat="44.05371" lon="6.85967">
        <ele>1096.1</ele>
        <time>2019-07-16T13:33:03Z</time>
      </trkpt>
      <trkpt lat="44.05373" lon="6.8597">
        <ele>1096.1</ele>
        <time>2019-07-16T13:33:04Z</time>
      </trkpt>
      <trkpt lat="44.05375" lon="6.85972">
        <ele>1096.1</ele>
        <time>2019-07-16T13:33:05Z</time>
      </trkpt>
      <trkpt lat="44.05378" lon="6.85975">
        <ele>1096.1</ele>
        <time>2019-07-16T13:33:06Z</time>
      </trkpt>
      <trkpt lat="44.0538" lon="6.85977">
        <ele>1096.1</ele>
        <time>2019-07-16T13:33:07Z</time>
      </trkpt>
      <trkpt lat="44.05383" lon="6.85982">
        <ele>1096.1</ele>
        <time>2019-07-16T13:33:09Z</time>
      </trkpt>
      <trkpt lat="44.05384" lon="6.85986">
        <ele>1096.1</ele>
        <time>2019-07-16T13:33:11Z</time>
      </trkpt>
      <trkpt lat="44.05386" lon="6.8599">
        <ele>1096.2</ele>
        <time>2019-07-16T13:33:13Z</time>
      </trkpt>
      <trkpt lat="44.0539" lon="6.85993">
        <ele>1096.2</ele>
        <time>2019-07-16T13:33:16Z</time>
      </trkpt>
      <trkpt lat="44.05393" lon="6.85995">
        <ele>1096.2</ele>
        <time>2019-07-16T13:33:18Z</time>
      </trkpt>
      <trkpt lat="44.05396" lon="6.85997">
        <ele>1096.2</ele>
        <time>2019-07-16T13:33:20Z</time>
      </trkpt>
      <trkpt lat="44.05399" lon="6.86">
        <ele>1096.3</ele>
        <time>2019-07-16T13:33:22Z</time>
      </trkpt>
      <trkpt lat="44.05403" lon="6.86002">
        <ele>1096.4</ele>
        <time>2019-07-16T13:33:24Z</time>
      </trkpt>
      <trkpt lat="44.05406" lon="6.86003">
        <ele>1096.4</ele>
        <time>2019-07-16T13:33:26Z</time>
      </trkpt>
      <trkpt lat="44.0541" lon="6.86004">
        <ele>1096.6</ele>
        <time>2019-07-16T13:33:46Z</time>
      </trkpt>
      <trkpt lat="44.05414" lon="6.86004">
        <ele>1096.7</ele>
        <time>2019-07-16T13:33:48Z</time>
      </trkpt>
      <trkpt lat="44.05418" lon="6.86005">
        <ele>1096.8</ele>
        <time>2019-07-16T13:33:50Z</time>
      </trkpt>
      <trkpt lat="44.05421" lon="6.86008">
        <ele>1097</ele>
        <time>2019-07-16T13:33:52Z</time>
      </trkpt>
      <trkpt lat="44.05424" lon="6.8601">
        <ele>1097.1</ele>
        <time>2019-07-16T13:33:54Z</time>
      </trkpt>
      <trkpt lat="44.05427" lon="6.86012">
        <ele>1097.2</ele>
        <time>2019-07-16T13:33:55Z</time>
      </trkpt>
      <trkpt lat="44.05431" lon="6.86015">
        <ele>1097.4</ele>
        <time>2019-07-16T13:33:57Z</time>
      </trkpt>
      <trkpt lat="44.05434" lon="6.86018">
        <ele>1097.6</ele>
        <time>2019-07-16T13:33:59Z</time>
      </trkpt>
      <trkpt lat="44.05438" lon="6.86019">
        <ele>1097.8</ele>
        <time>2019-07-16T13:34:01Z</time>
      </trkpt>
      <trkpt lat="44.05442" lon="6.8602">
        <ele>1098</ele>
        <time>2019-07-16T13:34:03Z</time>
      </trkpt>
      <trkpt lat="44.05445" lon="6.86022">
        <ele>1098.1</ele>
        <time>2019-07-16T13:34:04Z</time>
      </trkpt>
      <trkpt lat="44.05448" lon="6.86022">
        <ele>1098.2</ele>
        <time>2019-07-16T13:34:05Z</time>
      </trkpt>
      <trkpt lat="44.05452" lon="6.86021">
        <ele>1098.4</ele>
        <time>2019-07-16T13:34:07Z</time>
      </trkpt>
      <trkpt lat="44.05454" lon="6.86022">
        <ele>1098.5</ele>
        <time>2019-07-16T13:34:08Z</time>
      </trkpt>
      <trkpt lat="44.05459" lon="6.86023">
        <ele>1098.7</ele>
        <time>2019-07-16T13:34:10Z</time>
      </trkpt>
      <trkpt lat="44.05462" lon="6.86025">
        <ele>1098.8</ele>
        <time>2019-07-16T13:34:12Z</time>
      </trkpt>
      <trkpt lat="44.05466" lon="6.86026">
        <ele>1098.9</ele>
        <time>2019-07-16T13:34:15Z</time>
      </trkpt>
      <trkpt lat="44.0547" lon="6.86026">
        <ele>1099</ele>
        <time>2019-07-16T13:34:17Z</time>
      </trkpt>
      <trkpt lat="44.05473" lon="6.86025">
        <ele>1099.1</ele>
        <time>2019-07-16T13:34:23Z</time>
      </trkpt>
      <trkpt lat="44.05478" lon="6.86026">
        <ele>1099.1</ele>
        <time>2019-07-16T13:34:25Z</time>
      </trkpt>
      <trkpt lat="44.0548" lon="6.86028">
        <ele>1099.1</ele>
        <time>2019-07-16T13:34:26Z</time>
      </trkpt>
      <trkpt lat="44.05484" lon="6.86031">
        <ele>1099.1</ele>
        <time>2019-07-16T13:34:28Z</time>
      </trkpt>
      <trkpt lat="44.05487" lon="6.86037">
        <ele>1099.1</ele>
        <time>2019-07-16T13:34:30Z</time>
      </trkpt>
      <trkpt lat="44.0549" lon="6.86039">
        <ele>1099.1</ele>
        <time>2019-07-16T13:34:34Z</time>
      </trkpt>
      <trkpt lat="44.05493" lon="6.8604">
        <ele>1099.1</ele>
        <time>2019-07-16T13:34:36Z</time>
      </trkpt>
      <trkpt lat="44.05496" lon="6.86043">
        <ele>1099.1</ele>
        <time>2019-07-16T13:34:38Z</time>
      </trkpt>
      <trkpt lat="44.05499" lon="6.86046">
        <ele>1099</ele>
        <time>2019-07-16T13:34:41Z</time>
      </trkpt>
      <trkpt lat="44.05501" lon="6.86048">
        <ele>1099</ele>
        <time>2019-07-16T13:34:43Z</time>
      </trkpt>
      <trkpt lat="44.05504" lon="6.86054">
        <ele>1099.1</ele>
        <time>2019-07-16T13:34:45Z</time>
      </trkpt>
      <trkpt lat="44.05505" lon="6.8606">
        <ele>1099.1</ele>
        <time>2019-07-16T13:34:47Z</time>
      </trkpt>
      <trkpt lat="44.05504" lon="6.86064">
        <ele>1099.1</ele>
        <time>2019-07-16T13:34:49Z</time>
      </trkpt>
      <trkpt lat="44.05506" lon="6.86067">
        <ele>1099.2</ele>
        <time>2019-07-16T13:34:51Z</time>
      </trkpt>
      <trkpt lat="44.05507" lon="6.86072">
        <ele>1099.7</ele>
        <time>2019-07-16T13:34:54Z</time>
      </trkpt>
      <trkpt lat="44.05507" lon="6.86078">
        <ele>1100.3</ele>
        <time>2019-07-16T13:34:56Z</time>
      </trkpt>
      <trkpt lat="44.05508" lon="6.86083">
        <ele>1100.8</ele>
        <time>2019-07-16T13:34:58Z</time>
      </trkpt>
      <trkpt lat="44.05511" lon="6.86085">
        <ele>1101.2</ele>
        <time>2019-07-16T13:35:00Z</time>
      </trkpt>
      <trkpt lat="44.05512" lon="6.86089">
        <ele>1101.6</ele>
        <time>2019-07-16T13:35:02Z</time>
      </trkpt>
      <trkpt lat="44.05512" lon="6.86093">
        <ele>1101.9</ele>
        <time>2019-07-16T13:35:04Z</time>
      </trkpt>
      <trkpt lat="44.05513" lon="6.86097">
        <ele>1102.4</ele>
        <time>2019-07-16T13:35:09Z</time>
      </trkpt>
      <trkpt lat="44.05513" lon="6.86102">
        <ele>1102.9</ele>
        <time>2019-07-16T13:35:13Z</time>
      </trkpt>
      <trkpt lat="44.05512" lon="6.86105">
        <ele>1103.4</ele>
        <time>2019-07-16T13:35:15Z</time>
      </trkpt>
      <trkpt lat="44.05513" lon="6.86109">
        <ele>1103.8</ele>
        <time>2019-07-16T13:35:18Z</time>
      </trkpt>
      <trkpt lat="44.05514" lon="6.86113">
        <ele>1104.4</ele>
        <time>2019-07-16T13:35:25Z</time>
      </trkpt>
      <trkpt lat="44.05514" lon="6.86117">
        <ele>1104.8</ele>
        <time>2019-07-16T13:35:28Z</time>
      </trkpt>
      <trkpt lat="44.05513" lon="6.86121">
        <ele>1105.3</ele>
        <time>2019-07-16T13:35:33Z</time>
      </trkpt>
      <trkpt lat="44.05512" lon="6.86125">
        <ele>1105.8</ele>
        <time>2019-07-16T13:35:38Z</time>
      </trkpt>
      <trkpt lat="44.05512" lon="6.86129">
        <ele>1106.3</ele>
        <time>2019-07-16T13:35:42Z</time>
      </trkpt>
      <trkpt lat="44.05514" lon="6.86133">
        <ele>1106.8</ele>
        <time>2019-07-16T13:35:45Z</time>
      </trkpt>
      <trkpt lat="44.0551" lon="6.86134">
        <ele>1107.4</ele>
        <time>2019-07-16T13:35:48Z</time>
      </trkpt>
      <trkpt lat="44.05508" lon="6.86138">
        <ele>1107.9</ele>
        <time>2019-07-16T13:35:52Z</time>
      </trkpt>
      <trkpt lat="44.0551" lon="6.86143">
        <ele>1108.6</ele>
        <time>2019-07-16T13:35:55Z</time>
      </trkpt>
      <trkpt lat="44.05513" lon="6.86145">
        <ele>1109.1</ele>
        <time>2019-07-16T13:35:57Z</time>
      </trkpt>
      <trkpt lat="44.05517" lon="6.86149">
        <ele>1110.1</ele>
        <time>2019-07-16T13:35:59Z</time>
      </trkpt>
      <trkpt lat="44.05519" lon="6.86153">
        <ele>1110.7</ele>
        <time>2019-07-16T13:36:06Z</time>
      </trkpt>
      <trkpt lat="44.05518" lon="6.86157">
        <ele>1111.2</ele>
        <time>2019-07-16T13:36:10Z</time>
      </trkpt>
      <trkpt lat="44.0552" lon="6.86159">
        <ele>1111.9</ele>
        <time>2019-07-16T13:36:13Z</time>
      </trkpt>
      <trkpt lat="44.0552" lon="6.86164">
        <ele>1112.5</ele>
        <time>2019-07-16T13:36:16Z</time>
      </trkpt>
      <trkpt lat="44.05522" lon="6.86166">
        <ele>1112.9</ele>
        <time>2019-07-16T13:36:19Z</time>
      </trkpt>
      <trkpt lat="44.05522" lon="6.8617">
        <ele>1113.3</ele>
        <time>2019-07-16T13:36:24Z</time>
      </trkpt>
      <trkpt lat="44.05519" lon="6.86173">
        <ele>1113.9</ele>
        <time>2019-07-16T13:36:27Z</time>
      </trkpt>
      <trkpt lat="44.05519" lon="6.86178">
        <ele>1114.4</ele>
        <time>2019-07-16T13:36:32Z</time>
      </trkpt>
      <trkpt lat="44.0552" lon="6.86182">
        <ele>1115</ele>
        <time>2019-07-16T13:36:37Z</time>
      </trkpt>
      <trkpt lat="44.05518" lon="6.86185">
        <ele>1115.4</ele>
        <time>2019-07-16T13:36:41Z</time>
      </trkpt>
      <trkpt lat="44.05519" lon="6.86189">
        <ele>1116</ele>
        <time>2019-07-16T13:36:45Z</time>
      </trkpt>
      <trkpt lat="44.05517" lon="6.86192">
        <ele>1116.5</ele>
        <time>2019-07-16T13:36:48Z</time>
      </trkpt>
      <trkpt lat="44.05517" lon="6.86196">
        <ele>1116.9</ele>
        <time>2019-07-16T13:36:51Z</time>
      </trkpt>
      <trkpt lat="44.05518" lon="6.862">
        <ele>1117.4</ele>
        <time>2019-07-16T13:36:55Z</time>
      </trkpt>
      <trkpt lat="44.0552" lon="6.86205">
        <ele>1118</ele>
        <time>2019-07-16T13:37:01Z</time>
      </trkpt>
      <trkpt lat="44.05522" lon="6.8621">
        <ele>1118.4</ele>
        <time>2019-07-16T13:37:06Z</time>
      </trkpt>
      <trkpt lat="44.05524" lon="6.86213">
        <ele>1118.9</ele>
        <time>2019-07-16T13:37:10Z</time>
      </trkpt>
      <trkpt lat="44.05523" lon="6.86217">
        <ele>1119.3</ele>
        <time>2019-07-16T13:37:17Z</time>
      </trkpt>
      <trkpt lat="44.05522" lon="6.86221">
        <ele>1119.6</ele>
        <time>2019-07-16T13:37:19Z</time>
      </trkpt>
      <trkpt lat="44.0552" lon="6.86224">
        <ele>1119.9</ele>
        <time>2019-07-16T13:37:22Z</time>
      </trkpt>
      <trkpt lat="44.05519" lon="6.86229">
        <ele>1120.3</ele>
        <time>2019-07-16T13:37:28Z</time>
      </trkpt>
      <trkpt lat="44.05519" lon="6.86233">
        <ele>1120.7</ele>
        <time>2019-07-16T13:37:31Z</time>
      </trkpt>
      <trkpt lat="44.05519" lon="6.86236">
        <ele>1121</ele>
        <time>2019-07-16T13:37:37Z</time>
      </trkpt>
      <trkpt lat="44.0552" lon="6.86241">
        <ele>1121.2</ele>
        <time>2019-07-16T13:37:41Z</time>
      </trkpt>
      <trkpt lat="44.0552" lon="6.86245">
        <ele>1121.4</ele>
        <time>2019-07-16T13:37:45Z</time>
      </trkpt>
      <trkpt lat="44.05518" lon="6.86249">
        <ele>1121.6</ele>
        <time>2019-07-16T13:37:48Z</time>
      </trkpt>
      <trkpt lat="44.05522" lon="6.86252">
        <ele>1121.9</ele>
        <time>2019-07-16T13:38:36Z</time>
      </trkpt>
      <trkpt lat="44.05519" lon="6.86255">
        <ele>1122.1</ele>
        <time>2019-07-16T13:38:38Z</time>
      </trkpt>
      <trkpt lat="44.0552" lon="6.86261">
        <ele>1122.4</ele>
        <time>2019-07-16T13:38:41Z</time>
      </trkpt>
      <trkpt lat="44.05521" lon="6.86267">
        <ele>1122.7</ele>
        <time>2019-07-16T13:38:44Z</time>
      </trkpt>
      <trkpt lat="44.05521" lon="6.86272">
        <ele>1122.9</ele>
        <time>2019-07-16T13:38:47Z</time>
      </trkpt>
      <trkpt lat="44.05521" lon="6.86277">
        <ele>1123.2</ele>
        <time>2019-07-16T13:38:49Z</time>
      </trkpt>
      <trkpt lat="44.05521" lon="6.86283">
        <ele>1123.4</ele>
        <time>2019-07-16T13:38:51Z</time>
      </trkpt>
      <trkpt lat="44.05525" lon="6.86285">
        <ele>1123.7</ele>
        <time>2019-07-16T13:38:53Z</time>
      </trkpt>
      <trkpt lat="44.05528" lon="6.86286">
        <ele>1123.8</ele>
        <time>2019-07-16T13:38:54Z</time>
      </trkpt>
      <trkpt lat="44.05531" lon="6.86288">
        <ele>1124</ele>
        <time>2019-07-16T13:38:55Z</time>
      </trkpt>
      <trkpt lat="44.05535" lon="6.8629">
        <ele>1124.1</ele>
        <time>2019-07-16T13:38:57Z</time>
      </trkpt>
      <trkpt lat="44.05538" lon="6.86294">
        <ele>1124.3</ele>
        <time>2019-07-16T13:38:59Z</time>
      </trkpt>
      <trkpt lat="44.05542" lon="6.86297">
        <ele>1124.5</ele>
        <time>2019-07-16T13:39:01Z</time>
      </trkpt>
      <trkpt lat="44.05546" lon="6.86299">
        <ele>1124.7</ele>
        <time>2019-07-16T13:39:02Z</time>
      </trkpt>
      <trkpt lat="44.05549" lon="6.86301">
        <ele>1124.8</ele>
        <time>2019-07-16T13:39:03Z</time>
      </trkpt>
      <trkpt lat="44.05552" lon="6.86303">
        <ele>1125</ele>
        <time>2019-07-16T13:39:04Z</time>
      </trkpt>
      <trkpt lat="44.05558" lon="6.86304">
        <ele>1125.1</ele>
        <time>2019-07-16T13:39:06Z</time>
      </trkpt>
      <trkpt lat="44.05561" lon="6.86305">
        <ele>1125.2</ele>
        <time>2019-07-16T13:39:07Z</time>
      </trkpt>
      <trkpt lat="44.05565" lon="6.86306">
        <ele>1125.3</ele>
        <time>2019-07-16T13:39:08Z</time>
      </trkpt>
      <trkpt lat="44.05568" lon="6.86307">
        <ele>1125.5</ele>
        <time>2019-07-16T13:39:09Z</time>
      </trkpt>
      <trkpt lat="44.05573" lon="6.86307">
        <ele>1125.7</ele>
        <time>2019-07-16T13:39:11Z</time>
      </trkpt>
      <trkpt lat="44.05578" lon="6.86309">
        <ele>1126</ele>
        <time>2019-07-16T13:39:13Z</time>
      </trkpt>
      <trkpt lat="44.05583" lon="6.86309">
        <ele>1126.3</ele>
        <time>2019-07-16T13:39:15Z</time>
      </trkpt>
      <trkpt lat="44.05586" lon="6.86309">
        <ele>1126.5</ele>
        <time>2019-07-16T13:39:16Z</time>
      </trkpt>
      <trkpt lat="44.05591" lon="6.86312">
        <ele>1126.9</ele>
        <time>2019-07-16T13:39:19Z</time>
      </trkpt>
      <trkpt lat="44.05595" lon="6.86315">
        <ele>1127.3</ele>
        <time>2019-07-16T13:39:21Z</time>
      </trkpt>
      <trkpt lat="44.05598" lon="6.86316">
        <ele>1127.5</ele>
        <time>2019-07-16T13:39:22Z</time>
      </trkpt>
      <trkpt lat="44.05601" lon="6.86317">
        <ele>1127.8</ele>
        <time>2019-07-16T13:39:23Z</time>
      </trkpt>
      <trkpt lat="44.05605" lon="6.86319">
        <ele>1128.1</ele>
        <time>2019-07-16T13:39:25Z</time>
      </trkpt>
      <trkpt lat="44.05609" lon="6.86319">
        <ele>1128.3</ele>
        <time>2019-07-16T13:39:27Z</time>
      </trkpt>
      <trkpt lat="44.05611" lon="6.86321">
        <ele>1128.5</ele>
        <time>2019-07-16T13:39:29Z</time>
      </trkpt>
      <trkpt lat="44.05614" lon="6.86323">
        <ele>1128.7</ele>
        <time>2019-07-16T13:39:31Z</time>
      </trkpt>
      <trkpt lat="44.05616" lon="6.86326">
        <ele>1128.9</ele>
        <time>2019-07-16T13:39:34Z</time>
      </trkpt>
      <trkpt lat="44.0562" lon="6.86327">
        <ele>1129.1</ele>
        <time>2019-07-16T13:39:36Z</time>
      </trkpt>
      <trkpt lat="44.05622" lon="6.86332">
        <ele>1129.3</ele>
        <time>2019-07-16T13:39:38Z</time>
      </trkpt>
      <trkpt lat="44.05623" lon="6.86338">
        <ele>1129.4</ele>
        <time>2019-07-16T13:39:40Z</time>
      </trkpt>
      <trkpt lat="44.05624" lon="6.86342">
        <ele>1129.5</ele>
        <time>2019-07-16T13:39:42Z</time>
      </trkpt>
      <trkpt lat="44.05627" lon="6.86343">
        <ele>1129.6</ele>
        <time>2019-07-16T13:39:45Z</time>
      </trkpt>
      <trkpt lat="44.0563" lon="6.86343">
        <ele>1129.7</ele>
        <time>2019-07-16T13:39:47Z</time>
      </trkpt>
      <trkpt lat="44.05633" lon="6.86344">
        <ele>1129.8</ele>
        <time>2019-07-16T13:39:54Z</time>
      </trkpt>
      <trkpt lat="44.05636" lon="6.86348">
        <ele>1130</ele>
        <time>2019-07-16T13:40:09Z</time>
      </trkpt>
      <trkpt lat="44.05638" lon="6.86351">
        <ele>1130.1</ele>
        <time>2019-07-16T13:40:17Z</time>
      </trkpt>
      <trkpt lat="44.05641" lon="6.86351">
        <ele>1130.3</ele>
        <time>2019-07-16T13:40:20Z</time>
      </trkpt>
      <trkpt lat="44.05643" lon="6.86351">
        <ele>1130.4</ele>
        <time>2019-07-16T13:40:24Z</time>
      </trkpt>
      <trkpt lat="44.05647" lon="6.86349">
        <ele>1130.5</ele>
        <time>2019-07-16T13:40:31Z</time>
      </trkpt>
      <trkpt lat="44.0565" lon="6.86346">
        <ele>1130.7</ele>
        <time>2019-07-16T13:40:35Z</time>
      </trkpt>
      <trkpt lat="44.05651" lon="6.86343">
        <ele>1130.7</ele>
        <time>2019-07-16T13:40:38Z</time>
      </trkpt>
      <trkpt lat="44.05654" lon="6.86345">
        <ele>1130.8</ele>
        <time>2019-07-16T13:40:55Z</time>
      </trkpt>
      <trkpt lat="44.05657" lon="6.86347">
        <ele>1130.9</ele>
        <time>2019-07-16T13:40:57Z</time>
      </trkpt>
      <trkpt lat="44.05659" lon="6.86349">
        <ele>1131</ele>
        <time>2019-07-16T13:41:00Z</time>
      </trkpt>
      <trkpt lat="44.05662" lon="6.86351">
        <ele>1131.1</ele>
        <time>2019-07-16T13:41:04Z</time>
      </trkpt>
      <trkpt lat="44.05666" lon="6.86354">
        <ele>1131.3</ele>
        <time>2019-07-16T13:41:07Z</time>
      </trkpt>
      <trkpt lat="44.05668" lon="6.86356">
        <ele>1131.3</ele>
        <time>2019-07-16T13:41:09Z</time>
      </trkpt>
      <trkpt lat="44.05671" lon="6.86361">
        <ele>1131.4</ele>
        <time>2019-07-16T13:41:11Z</time>
      </trkpt>
      <trkpt lat="44.05675" lon="6.86363">
        <ele>1131.5</ele>
        <time>2019-07-16T13:41:13Z</time>
      </trkpt>
      <trkpt lat="44.05679" lon="6.86363">
        <ele>1131.5</ele>
        <time>2019-07-16T13:41:16Z</time>
      </trkpt>
      <trkpt lat="44.05681" lon="6.86362">
        <ele>1131.6</ele>
        <time>2019-07-16T13:41:18Z</time>
      </trkpt>
      <trkpt lat="44.05686" lon="6.86361">
        <ele>1131.6</ele>
        <time>2019-07-16T13:41:20Z</time>
      </trkpt>
      <trkpt lat="44.0569" lon="6.86358">
        <ele>1131.6</ele>
        <time>2019-07-16T13:41:22Z</time>
      </trkpt>
      <trkpt lat="44.05694" lon="6.86357">
        <ele>1131.7</ele>
        <time>2019-07-16T13:41:24Z</time>
      </trkpt>
      <trkpt lat="44.05697" lon="6.86357">
        <ele>1131.7</ele>
        <time>2019-07-16T13:41:25Z</time>
      </trkpt>
      <trkpt lat="44.05701" lon="6.86354">
        <ele>1131.7</ele>
        <time>2019-07-16T13:41:27Z</time>
      </trkpt>
      <trkpt lat="44.05705" lon="6.86349">
        <ele>1131.7</ele>
        <time>2019-07-16T13:41:29Z</time>
      </trkpt>
      <trkpt lat="44.05709" lon="6.86348">
        <ele>1131.6</ele>
        <time>2019-07-16T13:41:31Z</time>
      </trkpt>
      <trkpt lat="44.05712" lon="6.86347">
        <ele>1131.6</ele>
        <time>2019-07-16T13:41:32Z</time>
      </trkpt>
      <trkpt lat="44.05715" lon="6.86347">
        <ele>1131.4</ele>
        <time>2019-07-16T13:41:33Z</time>
      </trkpt>
      <trkpt lat="44.05719" lon="6.86345">
        <ele>1130.9</ele>
        <time>2019-07-16T13:41:35Z</time>
      </trkpt>
      <trkpt lat="44.05722" lon="6.86344">
        <ele>1130.6</ele>
        <time>2019-07-16T13:41:36Z</time>
      </trkpt>
      <trkpt lat="44.05725" lon="6.86343">
        <ele>1130.3</ele>
        <time>2019-07-16T13:41:37Z</time>
      </trkpt>
      <trkpt lat="44.05728" lon="6.86343">
        <ele>1130</ele>
        <time>2019-07-16T13:41:38Z</time>
      </trkpt>
      <trkpt lat="44.05732" lon="6.86341">
        <ele>1129.6</ele>
        <time>2019-07-16T13:41:39Z</time>
      </trkpt>
      <trkpt lat="44.05735" lon="6.86339">
        <ele>1129.3</ele>
        <time>2019-07-16T13:41:40Z</time>
      </trkpt>
      <trkpt lat="44.05738" lon="6.86337">
        <ele>1128.9</ele>
        <time>2019-07-16T13:41:41Z</time>
      </trkpt>
      <trkpt lat="44.05741" lon="6.86334">
        <ele>1128.6</ele>
        <time>2019-07-16T13:41:42Z</time>
      </trkpt>
      <trkpt lat="44.05743" lon="6.86331">
        <ele>1128.3</ele>
        <time>2019-07-16T13:41:43Z</time>
      </trkpt>
      <trkpt lat="44.05745" lon="6.86328">
        <ele>1128</ele>
        <time>2019-07-16T13:41:44Z</time>
      </trkpt>
      <trkpt lat="44.05748" lon="6.86326">
        <ele>1127.7</ele>
        <time>2019-07-16T13:41:47Z</time>
      </trkpt>
      <trkpt lat="44.05753" lon="6.86325">
        <ele>1127.2</ele>
        <time>2019-07-16T13:41:49Z</time>
      </trkpt>
      <trkpt lat="44.05758" lon="6.86325">
        <ele>1126.8</ele>
        <time>2019-07-16T13:41:51Z</time>
      </trkpt>
      <trkpt lat="44.0576" lon="6.86324">
        <ele>1126.5</ele>
        <time>2019-07-16T13:41:52Z</time>
      </trkpt>
      <trkpt lat="44.05763" lon="6.86322">
        <ele>1126.2</ele>
        <time>2019-07-16T13:41:53Z</time>
      </trkpt>
      <trkpt lat="44.05768" lon="6.86321">
        <ele>1125.8</ele>
        <time>2019-07-16T13:41:55Z</time>
      </trkpt>
      <trkpt lat="44.05772" lon="6.8632">
        <ele>1125.4</ele>
        <time>2019-07-16T13:41:57Z</time>
      </trkpt>
      <trkpt lat="44.05779" lon="6.86323">
        <ele>1124.7</ele>
        <time>2019-07-16T13:41:59Z</time>
      </trkpt>
      <trkpt lat="44.05783" lon="6.86325">
        <ele>1124.3</ele>
        <time>2019-07-16T13:42:00Z</time>
      </trkpt>
      <trkpt lat="44.05786" lon="6.86325">
        <ele>1123.9</ele>
        <time>2019-07-16T13:42:01Z</time>
      </trkpt>
      <trkpt lat="44.0579" lon="6.86324">
        <ele>1123.5</ele>
        <time>2019-07-16T13:42:02Z</time>
      </trkpt>
      <trkpt lat="44.05792" lon="6.86322">
        <ele>1123.2</ele>
        <time>2019-07-16T13:42:03Z</time>
      </trkpt>
      <trkpt lat="44.05795" lon="6.8632">
        <ele>1122.8</ele>
        <time>2019-07-16T13:42:04Z</time>
      </trkpt>
      <trkpt lat="44.058" lon="6.86318">
        <ele>1122.3</ele>
        <time>2019-07-16T13:42:05Z</time>
      </trkpt>
      <trkpt lat="44.05804" lon="6.86314">
        <ele>1121.7</ele>
        <time>2019-07-16T13:42:06Z</time>
      </trkpt>
      <trkpt lat="44.05809" lon="6.86309">
        <ele>1121</ele>
        <time>2019-07-16T13:42:07Z</time>
      </trkpt>
      <trkpt lat="44.05814" lon="6.86305">
        <ele>1120.3</ele>
        <time>2019-07-16T13:42:08Z</time>
      </trkpt>
      <trkpt lat="44.0582" lon="6.86302">
        <ele>1119.6</ele>
        <time>2019-07-16T13:42:09Z</time>
      </trkpt>
      <trkpt lat="44.05826" lon="6.86299">
        <ele>1118.8</ele>
        <time>2019-07-16T13:42:10Z</time>
      </trkpt>
      <trkpt lat="44.05832" lon="6.86296">
        <ele>1118.1</ele>
        <time>2019-07-16T13:42:11Z</time>
      </trkpt>
      <trkpt lat="44.05837" lon="6.86293">
        <ele>1117.4</ele>
        <time>2019-07-16T13:42:12Z</time>
      </trkpt>
      <trkpt lat="44.05842" lon="6.86292">
        <ele>1116.7</ele>
        <time>2019-07-16T13:42:13Z</time>
      </trkpt>
      <trkpt lat="44.05846" lon="6.86291">
        <ele>1116.2</ele>
        <time>2019-07-16T13:42:14Z</time>
      </trkpt>
      <trkpt lat="44.05849" lon="6.8629">
        <ele>1115.9</ele>
        <time>2019-07-16T13:42:15Z</time>
      </trkpt>
      <trkpt lat="44.05854" lon="6.86286">
        <ele>1115.2</ele>
        <time>2019-07-16T13:42:17Z</time>
      </trkpt>
      <trkpt lat="44.05857" lon="6.86283">
        <ele>1114.8</ele>
        <time>2019-07-16T13:42:18Z</time>
      </trkpt>
      <trkpt lat="44.05859" lon="6.86281">
        <ele>1114.1</ele>
        <time>2019-07-16T13:42:19Z</time>
      </trkpt>
      <trkpt lat="44.05862" lon="6.86279">
        <ele>1113.6</ele>
        <time>2019-07-16T13:42:20Z</time>
      </trkpt>
      <trkpt lat="44.05865" lon="6.86277">
        <ele>1113.2</ele>
        <time>2019-07-16T13:42:21Z</time>
      </trkpt>
      <trkpt lat="44.05868" lon="6.86275">
        <ele>1112.7</ele>
        <time>2019-07-16T13:42:22Z</time>
      </trkpt>
      <trkpt lat="44.0587" lon="6.86274">
        <ele>1112.3</ele>
        <time>2019-07-16T13:42:23Z</time>
      </trkpt>
      <trkpt lat="44.05875" lon="6.86269">
        <ele>1111.5</ele>
        <time>2019-07-16T13:42:25Z</time>
      </trkpt>
      <trkpt lat="44.05879" lon="6.86266">
        <ele>1110.8</ele>
        <time>2019-07-16T13:42:27Z</time>
      </trkpt>
      <trkpt lat="44.05881" lon="6.86263">
        <ele>1110.2</ele>
        <time>2019-07-16T13:42:29Z</time>
      </trkpt>
      <trkpt lat="44.05884" lon="6.86263">
        <ele>1109.7</ele>
        <time>2019-07-16T13:42:32Z</time>
      </trkpt>
      <trkpt lat="44.0589" lon="6.86258">
        <ele>1108.6</ele>
        <time>2019-07-16T13:43:11Z</time>
      </trkpt>
      <trkpt lat="44.05895" lon="6.86255">
        <ele>1107.7</ele>
        <time>2019-07-16T13:43:13Z</time>
      </trkpt>
      <trkpt lat="44.05899" lon="6.86254">
        <ele>1106.9</ele>
        <time>2019-07-16T13:43:15Z</time>
      </trkpt>
      <trkpt lat="44.05904" lon="6.86255">
        <ele>1106.2</ele>
        <time>2019-07-16T13:43:17Z</time>
      </trkpt>
      <trkpt lat="44.05906" lon="6.86253">
        <ele>1105.7</ele>
        <time>2019-07-16T13:43:18Z</time>
      </trkpt>
      <trkpt lat="44.0591" lon="6.86252">
        <ele>1105.2</ele>
        <time>2019-07-16T13:43:20Z</time>
      </trkpt>
      <trkpt lat="44.05914" lon="6.86255">
        <ele>1104.7</ele>
        <time>2019-07-16T13:43:22Z</time>
      </trkpt>
      <trkpt lat="44.05917" lon="6.86252">
        <ele>1104.2</ele>
        <time>2019-07-16T13:43:24Z</time>
      </trkpt>
      <trkpt lat="44.05919" lon="6.86249">
        <ele>1103.8</ele>
        <time>2019-07-16T13:43:25Z</time>
      </trkpt>
      <trkpt lat="44.05919" lon="6.86245">
        <ele>1103.4</ele>
        <time>2019-07-16T13:43:26Z</time>
      </trkpt>
      <trkpt lat="44.05919" lon="6.86241">
        <ele>1103</ele>
        <time>2019-07-16T13:43:27Z</time>
      </trkpt>
      <trkpt lat="44.05919" lon="6.86236">
        <ele>1102.5</ele>
        <time>2019-07-16T13:43:28Z</time>
      </trkpt>
      <trkpt lat="44.0592" lon="6.86233">
        <ele>1102.1</ele>
        <time>2019-07-16T13:43:30Z</time>
      </trkpt>
      <trkpt lat="44.05923" lon="6.86233">
        <ele>1101.6</ele>
        <time>2019-07-16T13:43:32Z</time>
      </trkpt>
      <trkpt lat="44.05928" lon="6.86238">
        <ele>1101</ele>
        <time>2019-07-16T13:43:34Z</time>
      </trkpt>
      <trkpt lat="44.05928" lon="6.86242">
        <ele>1100.7</ele>
        <time>2019-07-16T13:43:35Z</time>
      </trkpt>
      <trkpt lat="44.05929" lon="6.86247">
        <ele>1100.3</ele>
        <time>2019-07-16T13:43:36Z</time>
      </trkpt>
      <trkpt lat="44.05932" lon="6.86249">
        <ele>1100</ele>
        <time>2019-07-16T13:43:37Z</time>
      </trkpt>
      <trkpt lat="44.05936" lon="6.8625">
        <ele>1099.8</ele>
        <time>2019-07-16T13:43:38Z</time>
      </trkpt>
      <trkpt lat="44.0594" lon="6.86248">
        <ele>1099.5</ele>
        <time>2019-07-16T13:43:39Z</time>
      </trkpt>
      <trkpt lat="44.05943" lon="6.86245">
        <ele>1099.1</ele>
        <time>2019-07-16T13:43:40Z</time>
      </trkpt>
      <trkpt lat="44.05946" lon="6.86243">
        <ele>1098.9</ele>
        <time>2019-07-16T13:43:41Z</time>
      </trkpt>
      <trkpt lat="44.05949" lon="6.86242">
        <ele>1098.7</ele>
        <time>2019-07-16T13:43:42Z</time>
      </trkpt>
      <trkpt lat="44.05955" lon="6.86242">
        <ele>1098.2</ele>
        <time>2019-07-16T13:43:44Z</time>
      </trkpt>
      <trkpt lat="44.05958" lon="6.86242">
        <ele>1098</ele>
        <time>2019-07-16T13:43:45Z</time>
      </trkpt>
      <trkpt lat="44.05961" lon="6.86245">
        <ele>1097.7</ele>
        <time>2019-07-16T13:43:47Z</time>
      </trkpt>
      <trkpt lat="44.05964" lon="6.86248">
        <ele>1097.5</ele>
        <time>2019-07-16T13:43:49Z</time>
      </trkpt>
      <trkpt lat="44.05966" lon="6.86253">
        <ele>1097.2</ele>
        <time>2019-07-16T13:43:51Z</time>
      </trkpt>
      <trkpt lat="44.05968" lon="6.86256">
        <ele>1097</ele>
        <time>2019-07-16T13:43:53Z</time>
      </trkpt>
      <trkpt lat="44.05972" lon="6.8626">
        <ele>1096.8</ele>
        <time>2019-07-16T13:43:55Z</time>
      </trkpt>
      <trkpt lat="44.05978" lon="6.86264">
        <ele>1096.5</ele>
        <time>2019-07-16T13:43:57Z</time>
      </trkpt>
      <trkpt lat="44.05982" lon="6.86267">
        <ele>1096.4</ele>
        <time>2019-07-16T13:43:58Z</time>
      </trkpt>
      <trkpt lat="44.05986" lon="6.8627">
        <ele>1096.3</ele>
        <time>2019-07-16T13:43:59Z</time>
      </trkpt>
      <trkpt lat="44.05991" lon="6.86275">
        <ele>1096.2</ele>
        <time>2019-07-16T13:44:00Z</time>
      </trkpt>
      <trkpt lat="44.05994" lon="6.86281">
        <ele>1096</ele>
        <time>2019-07-16T13:44:01Z</time>
      </trkpt>
      <trkpt lat="44.05999" lon="6.86287">
        <ele>1095.9</ele>
        <time>2019-07-16T13:44:02Z</time>
      </trkpt>
      <trkpt lat="44.06003" lon="6.86292">
        <ele>1095.8</ele>
        <time>2019-07-16T13:44:03Z</time>
      </trkpt>
      <trkpt lat="44.06006" lon="6.86299">
        <ele>1095.6</ele>
        <time>2019-07-16T13:44:04Z</time>
      </trkpt>
      <trkpt lat="44.0601" lon="6.86305">
        <ele>1095.5</ele>
        <time>2019-07-16T13:44:05Z</time>
      </trkpt>
      <trkpt lat="44.06013" lon="6.86312">
        <ele>1095.3</ele>
        <time>2019-07-16T13:44:06Z</time>
      </trkpt>
      <trkpt lat="44.06016" lon="6.86316">
        <ele>1095.1</ele>
        <time>2019-07-16T13:44:07Z</time>
      </trkpt>
      <trkpt lat="44.06019" lon="6.86319">
        <ele>1094.9</ele>
        <time>2019-07-16T13:44:08Z</time>
      </trkpt>
      <trkpt lat="44.06022" lon="6.86322">
        <ele>1094.7</ele>
        <time>2019-07-16T13:44:10Z</time>
      </trkpt>
      <trkpt lat="44.06024" lon="6.86325">
        <ele>1094.5</ele>
        <time>2019-07-16T13:44:11Z</time>
      </trkpt>
      <trkpt lat="44.06028" lon="6.86326">
        <ele>1094</ele>
        <time>2019-07-16T13:44:12Z</time>
      </trkpt>
      <trkpt lat="44.06031" lon="6.86327">
        <ele>1093.7</ele>
        <time>2019-07-16T13:44:13Z</time>
      </trkpt>
      <trkpt lat="44.06034" lon="6.86327">
        <ele>1093.3</ele>
        <time>2019-07-16T13:44:14Z</time>
      </trkpt>
      <trkpt lat="44.06039" lon="6.86327">
        <ele>1092.5</ele>
        <time>2019-07-16T13:44:16Z</time>
      </trkpt>
      <trkpt lat="44.06044" lon="6.86329">
        <ele>1091.5</ele>
        <time>2019-07-16T13:44:18Z</time>
      </trkpt>
      <trkpt lat="44.06046" lon="6.8633">
        <ele>1090.9</ele>
        <time>2019-07-16T13:44:19Z</time>
      </trkpt>
      <trkpt lat="44.06049" lon="6.86331">
        <ele>1090.2</ele>
        <time>2019-07-16T13:44:20Z</time>
      </trkpt>
      <trkpt lat="44.06052" lon="6.86333">
        <ele>1089.6</ele>
        <time>2019-07-16T13:44:21Z</time>
      </trkpt>
      <trkpt lat="44.06055" lon="6.86335">
        <ele>1089</ele>
        <time>2019-07-16T13:44:22Z</time>
      </trkpt>
      <trkpt lat="44.06058" lon="6.86337">
        <ele>1088.4</ele>
        <time>2019-07-16T13:44:23Z</time>
      </trkpt>
      <trkpt lat="44.06063" lon="6.86338">
        <ele>1087.3</ele>
        <time>2019-07-16T13:44:25Z</time>
      </trkpt>
      <trkpt lat="44.06066" lon="6.86339">
        <ele>1086.6</ele>
        <time>2019-07-16T13:44:26Z</time>
      </trkpt>
      <trkpt lat="44.06069" lon="6.8634">
        <ele>1086</ele>
        <time>2019-07-16T13:44:27Z</time>
      </trkpt>
      <trkpt lat="44.06075" lon="6.86341">
        <ele>1084.9</ele>
        <time>2019-07-16T13:44:29Z</time>
      </trkpt>
      <trkpt lat="44.06077" lon="6.86343">
        <ele>1084.4</ele>
        <time>2019-07-16T13:44:30Z</time>
      </trkpt>
      <trkpt lat="44.0608" lon="6.86345">
        <ele>1083.9</ele>
        <time>2019-07-16T13:44:31Z</time>
      </trkpt>
      <trkpt lat="44.06083" lon="6.86349">
        <ele>1083.1</ele>
        <time>2019-07-16T13:44:33Z</time>
      </trkpt>
      <trkpt lat="44.06084" lon="6.86353">
        <ele>1082.6</ele>
        <time>2019-07-16T13:44:36Z</time>
      </trkpt>
      <trkpt lat="44.06084" lon="6.86357">
        <ele>1082.1</ele>
        <time>2019-07-16T13:44:41Z</time>
      </trkpt>
      <trkpt lat="44.06087" lon="6.86359">
        <ele>1081.6</ele>
        <time>2019-07-16T13:44:48Z</time>
      </trkpt>
      <trkpt lat="44.06083" lon="6.86356">
        <ele>1081.1</ele>
        <time>2019-07-16T13:44:56Z</time>
      </trkpt>
      <trkpt lat="44.06083" lon="6.86362">
        <ele>1080.5</ele>
        <time>2019-07-16T13:44:59Z</time>
      </trkpt>
      <trkpt lat="44.06085" lon="6.86365">
        <ele>1080</ele>
        <time>2019-07-16T13:45:00Z</time>
      </trkpt>
      <trkpt lat="44.06089" lon="6.86368">
        <ele>1079.3</ele>
        <time>2019-07-16T13:45:01Z</time>
      </trkpt>
      <trkpt lat="44.06092" lon="6.86372">
        <ele>1078.7</ele>
        <time>2019-07-16T13:45:02Z</time>
      </trkpt>
      <trkpt lat="44.06096" lon="6.86377">
        <ele>1078</ele>
        <time>2019-07-16T13:45:03Z</time>
      </trkpt>
      <trkpt lat="44.06101" lon="6.86383">
        <ele>1077.5</ele>
        <time>2019-07-16T13:45:04Z</time>
      </trkpt>
      <trkpt lat="44.06105" lon="6.86386">
        <ele>1077.1</ele>
        <time>2019-07-16T13:45:05Z</time>
      </trkpt>
      <trkpt lat="44.06109" lon="6.86389">
        <ele>1076.9</ele>
        <time>2019-07-16T13:45:06Z</time>
      </trkpt>
      <trkpt lat="44.06115" lon="6.8639">
        <ele>1076.6</ele>
        <time>2019-07-16T13:45:08Z</time>
      </trkpt>
      <trkpt lat="44.06119" lon="6.86389">
        <ele>1076.4</ele>
        <time>2019-07-16T13:45:09Z</time>
      </trkpt>
      <trkpt lat="44.06123" lon="6.86389">
        <ele>1076.3</ele>
        <time>2019-07-16T13:45:10Z</time>
      </trkpt>
      <trkpt lat="44.06127" lon="6.86386">
        <ele>1076.1</ele>
        <time>2019-07-16T13:45:11Z</time>
      </trkpt>
      <trkpt lat="44.0613" lon="6.86384">
        <ele>1075.9</ele>
        <time>2019-07-16T13:45:12Z</time>
      </trkpt>
      <trkpt lat="44.06133" lon="6.86381">
        <ele>1075.6</ele>
        <time>2019-07-16T13:45:13Z</time>
      </trkpt>
      <trkpt lat="44.06137" lon="6.86375">
        <ele>1075.2</ele>
        <time>2019-07-16T13:45:14Z</time>
      </trkpt>
      <trkpt lat="44.06141" lon="6.86369">
        <ele>1074.7</ele>
        <time>2019-07-16T13:45:15Z</time>
      </trkpt>
      <trkpt lat="44.06145" lon="6.86364">
        <ele>1074.2</ele>
        <time>2019-07-16T13:45:16Z</time>
      </trkpt>
      <trkpt lat="44.06148" lon="6.86359">
        <ele>1073.7</ele>
        <time>2019-07-16T13:45:17Z</time>
      </trkpt>
      <trkpt lat="44.06152" lon="6.86355">
        <ele>1073.3</ele>
        <time>2019-07-16T13:45:18Z</time>
      </trkpt>
      <trkpt lat="44.06155" lon="6.86353">
        <ele>1072.9</ele>
        <time>2019-07-16T13:45:19Z</time>
      </trkpt>
      <trkpt lat="44.06159" lon="6.8635">
        <ele>1072.5</ele>
        <time>2019-07-16T13:45:20Z</time>
      </trkpt>
      <trkpt lat="44.06161" lon="6.86347">
        <ele>1072.3</ele>
        <time>2019-07-16T13:45:21Z</time>
      </trkpt>
      <trkpt lat="44.06163" lon="6.86344">
        <ele>1072</ele>
        <time>2019-07-16T13:45:22Z</time>
      </trkpt>
      <trkpt lat="44.06166" lon="6.86341">
        <ele>1071.7</ele>
        <time>2019-07-16T13:45:23Z</time>
      </trkpt>
      <trkpt lat="44.06169" lon="6.86337">
        <ele>1071.3</ele>
        <time>2019-07-16T13:45:24Z</time>
      </trkpt>
      <trkpt lat="44.06171" lon="6.86334">
        <ele>1070.9</ele>
        <time>2019-07-16T13:45:25Z</time>
      </trkpt>
      <trkpt lat="44.06174" lon="6.8633">
        <ele>1070.5</ele>
        <time>2019-07-16T13:45:26Z</time>
      </trkpt>
      <trkpt lat="44.06176" lon="6.86326">
        <ele>1069.9</ele>
        <time>2019-07-16T13:45:27Z</time>
      </trkpt>
      <trkpt lat="44.06178" lon="6.86324">
        <ele>1069.6</ele>
        <time>2019-07-16T13:45:28Z</time>
      </trkpt>
      <trkpt lat="44.06181" lon="6.86322">
        <ele>1069.1</ele>
        <time>2019-07-16T13:45:29Z</time>
      </trkpt>
      <trkpt lat="44.06184" lon="6.8632">
        <ele>1068.6</ele>
        <time>2019-07-16T13:45:30Z</time>
      </trkpt>
      <trkpt lat="44.06187" lon="6.86317">
        <ele>1067.9</ele>
        <time>2019-07-16T13:45:31Z</time>
      </trkpt>
      <trkpt lat="44.06191" lon="6.86312">
        <ele>1067</ele>
        <time>2019-07-16T13:45:32Z</time>
      </trkpt>
      <trkpt lat="44.06192" lon="6.86306">
        <ele>1066.1</ele>
        <time>2019-07-16T13:45:33Z</time>
      </trkpt>
      <trkpt lat="44.06195" lon="6.863">
        <ele>1065.1</ele>
        <time>2019-07-16T13:45:34Z</time>
      </trkpt>
      <trkpt lat="44.06197" lon="6.86294">
        <ele>1064.1</ele>
        <time>2019-07-16T13:45:35Z</time>
      </trkpt>
      <trkpt lat="44.06199" lon="6.86287">
        <ele>1063.1</ele>
        <time>2019-07-16T13:45:36Z</time>
      </trkpt>
      <trkpt lat="44.06199" lon="6.86281">
        <ele>1062.2</ele>
        <time>2019-07-16T13:45:37Z</time>
      </trkpt>
      <trkpt lat="44.062" lon="6.86275">
        <ele>1061.3</ele>
        <time>2019-07-16T13:45:38Z</time>
      </trkpt>
      <trkpt lat="44.06201" lon="6.8627">
        <ele>1060.5</ele>
        <time>2019-07-16T13:45:39Z</time>
      </trkpt>
      <trkpt lat="44.06203" lon="6.86267">
        <ele>1059.7</ele>
        <time>2019-07-16T13:45:40Z</time>
      </trkpt>
      <trkpt lat="44.06206" lon="6.86264">
        <ele>1058.9</ele>
        <time>2019-07-16T13:45:41Z</time>
      </trkpt>
      <trkpt lat="44.06209" lon="6.86261">
        <ele>1058.2</ele>
        <time>2019-07-16T13:45:42Z</time>
      </trkpt>
      <trkpt lat="44.06213" lon="6.86259">
        <ele>1057.4</ele>
        <time>2019-07-16T13:45:43Z</time>
      </trkpt>
      <trkpt lat="44.06217" lon="6.86256">
        <ele>1056.4</ele>
        <time>2019-07-16T13:45:44Z</time>
      </trkpt>
      <trkpt lat="44.0622" lon="6.86253">
        <ele>1055.7</ele>
        <time>2019-07-16T13:45:45Z</time>
      </trkpt>
      <trkpt lat="44.06226" lon="6.86251">
        <ele>1054.7</ele>
        <time>2019-07-16T13:45:46Z</time>
      </trkpt>
      <trkpt lat="44.0623" lon="6.86248">
        <ele>1053.8</ele>
        <time>2019-07-16T13:45:47Z</time>
      </trkpt>
      <trkpt lat="44.06233" lon="6.86244">
        <ele>1052.9</ele>
        <time>2019-07-16T13:45:48Z</time>
      </trkpt>
      <trkpt lat="44.06236" lon="6.86241">
        <ele>1052.2</ele>
        <time>2019-07-16T13:45:49Z</time>
      </trkpt>
      <trkpt lat="44.0624" lon="6.8624">
        <ele>1051.5</ele>
        <time>2019-07-16T13:45:50Z</time>
      </trkpt>
      <trkpt lat="44.06243" lon="6.86241">
        <ele>1050.8</ele>
        <time>2019-07-16T13:45:51Z</time>
      </trkpt>
      <trkpt lat="44.06248" lon="6.86243">
        <ele>1049.8</ele>
        <time>2019-07-16T13:45:53Z</time>
      </trkpt>
      <trkpt lat="44.06253" lon="6.86242">
        <ele>1048.6</ele>
        <time>2019-07-16T13:45:55Z</time>
      </trkpt>
      <trkpt lat="44.06257" lon="6.86242">
        <ele>1047.4</ele>
        <time>2019-07-16T13:45:57Z</time>
      </trkpt>
      <trkpt lat="44.06262" lon="6.86244">
        <ele>1046.4</ele>
        <time>2019-07-16T13:45:59Z</time>
      </trkpt>
      <trkpt lat="44.06265" lon="6.86245">
        <ele>1045.6</ele>
        <time>2019-07-16T13:46:00Z</time>
      </trkpt>
      <trkpt lat="44.06268" lon="6.86246">
        <ele>1044.8</ele>
        <time>2019-07-16T13:46:01Z</time>
      </trkpt>
      <trkpt lat="44.06271" lon="6.86245">
        <ele>1044.2</ele>
        <time>2019-07-16T13:46:02Z</time>
      </trkpt>
      <trkpt lat="44.06278" lon="6.86247">
        <ele>1042.9</ele>
        <time>2019-07-16T13:46:04Z</time>
      </trkpt>
      <trkpt lat="44.06282" lon="6.86247">
        <ele>1042.2</ele>
        <time>2019-07-16T13:46:05Z</time>
      </trkpt>
      <trkpt lat="44.06286" lon="6.86246">
        <ele>1041.5</ele>
        <time>2019-07-16T13:46:06Z</time>
      </trkpt>
      <trkpt lat="44.0629" lon="6.86246">
        <ele>1040.7</ele>
        <time>2019-07-16T13:46:08Z</time>
      </trkpt>
      <trkpt lat="44.06293" lon="6.86247">
        <ele>1040.2</ele>
        <time>2019-07-16T13:46:10Z</time>
      </trkpt>
      <trkpt lat="44.06295" lon="6.86251">
        <ele>1039.7</ele>
        <time>2019-07-16T13:46:13Z</time>
      </trkpt>
      <trkpt lat="44.06299" lon="6.8625">
        <ele>1038.9</ele>
        <time>2019-07-16T13:46:15Z</time>
      </trkpt>
      <trkpt lat="44.06302" lon="6.86249">
        <ele>1038.3</ele>
        <time>2019-07-16T13:46:16Z</time>
      </trkpt>
      <trkpt lat="44.06305" lon="6.86245">
        <ele>1037.8</ele>
        <time>2019-07-16T13:46:17Z</time>
      </trkpt>
      <trkpt lat="44.06307" lon="6.86242">
        <ele>1037.2</ele>
        <time>2019-07-16T13:46:18Z</time>
      </trkpt>
      <trkpt lat="44.06309" lon="6.86238">
        <ele>1036.5</ele>
        <time>2019-07-16T13:46:19Z</time>
      </trkpt>
      <trkpt lat="44.06311" lon="6.86232">
        <ele>1036</ele>
        <time>2019-07-16T13:46:20Z</time>
      </trkpt>
      <trkpt lat="44.06312" lon="6.86225">
        <ele>1035.4</ele>
        <time>2019-07-16T13:46:21Z</time>
      </trkpt>
      <trkpt lat="44.06312" lon="6.86219">
        <ele>1034.9</ele>
        <time>2019-07-16T13:46:22Z</time>
      </trkpt>
      <trkpt lat="44.06312" lon="6.86215">
        <ele>1034.4</ele>
        <time>2019-07-16T13:46:23Z</time>
      </trkpt>
      <trkpt lat="44.06315" lon="6.86214">
        <ele>1034</ele>
        <time>2019-07-16T13:46:26Z</time>
      </trkpt>
      <trkpt lat="44.06319" lon="6.86216">
        <ele>1033.5</ele>
        <time>2019-07-16T13:46:27Z</time>
      </trkpt>
      <trkpt lat="44.06323" lon="6.86218">
        <ele>1032.7</ele>
        <time>2019-07-16T13:46:28Z</time>
      </trkpt>
      <trkpt lat="44.06325" lon="6.86223">
        <ele>1032</ele>
        <time>2019-07-16T13:46:31Z</time>
      </trkpt>
      <trkpt lat="44.06326" lon="6.86229">
        <ele>1031.3</ele>
        <time>2019-07-16T13:46:33Z</time>
      </trkpt>
      <trkpt lat="44.06327" lon="6.86234">
        <ele>1030.8</ele>
        <time>2019-07-16T13:46:35Z</time>
      </trkpt>
      <trkpt lat="44.06325" lon="6.86238">
        <ele>1030.4</ele>
        <time>2019-07-16T13:46:36Z</time>
      </trkpt>
      <trkpt lat="44.06323" lon="6.86241">
        <ele>1030</ele>
        <time>2019-07-16T13:46:37Z</time>
      </trkpt>
      <trkpt lat="44.06322" lon="6.86245">
        <ele>1029.6</ele>
        <time>2019-07-16T13:46:38Z</time>
      </trkpt>
      <trkpt lat="44.06321" lon="6.8625">
        <ele>1029</ele>
        <time>2019-07-16T13:46:39Z</time>
      </trkpt>
      <trkpt lat="44.06321" lon="6.86256">
        <ele>1028.6</ele>
        <time>2019-07-16T13:46:40Z</time>
      </trkpt>
      <trkpt lat="44.06321" lon="6.8626">
        <ele>1028.2</ele>
        <time>2019-07-16T13:46:41Z</time>
      </trkpt>
      <trkpt lat="44.06322" lon="6.86266">
        <ele>1027.7</ele>
        <time>2019-07-16T13:46:43Z</time>
      </trkpt>
      <trkpt lat="44.06319" lon="6.86264">
        <ele>1027.4</ele>
        <time>2019-07-16T13:47:00Z</time>
      </trkpt>
      <trkpt lat="44.06323" lon="6.86264">
        <ele>1027</ele>
        <time>2019-07-16T13:47:07Z</time>
      </trkpt>
      <trkpt lat="44.06327" lon="6.86264">
        <ele>1026.7</ele>
        <time>2019-07-16T13:47:11Z</time>
      </trkpt>
      <trkpt lat="44.06329" lon="6.86263">
        <ele>1026.5</ele>
        <time>2019-07-16T13:47:12Z</time>
      </trkpt>
      <trkpt lat="44.06332" lon="6.86265">
        <ele>1026.3</ele>
        <time>2019-07-16T13:47:17Z</time>
      </trkpt>
      <trkpt lat="44.06335" lon="6.86267">
        <ele>1026</ele>
        <time>2019-07-16T13:47:20Z</time>
      </trkpt>
      <trkpt lat="44.06331" lon="6.86265">
        <ele>1025.8</ele>
        <time>2019-07-16T13:47:49Z</time>
      </trkpt>
      <trkpt lat="44.06325" lon="6.86265">
        <ele>1025.4</ele>
        <time>2019-07-16T13:47:56Z</time>
      </trkpt>
      <trkpt lat="44.0633" lon="6.86267">
        <ele>1025</ele>
        <time>2019-07-16T13:48:58Z</time>
      </trkpt>
      <trkpt lat="44.06327" lon="6.8627">
        <ele>1024.8</ele>
        <time>2019-07-16T13:49:22Z</time>
      </trkpt>
      <trkpt lat="44.06323" lon="6.8627">
        <ele>1024.5</ele>
        <time>2019-07-16T13:49:55Z</time>
      </trkpt>
      <trkpt lat="44.0632" lon="6.86272">
        <ele>1024.2</ele>
        <time>2019-07-16T13:50:28Z</time>
      </trkpt>
      <trkpt lat="44.06326" lon="6.86281">
        <ele>1023.4</ele>
        <time>2019-07-16T13:52:30Z</time>
      </trkpt>
      <trkpt lat="44.06327" lon="6.86286">
        <ele>1023.1</ele>
        <time>2019-07-16T13:52:32Z</time>
      </trkpt>
      <trkpt lat="44.0633" lon="6.86289">
        <ele>1022.8</ele>
        <time>2019-07-16T13:52:33Z</time>
      </trkpt>
      <trkpt lat="44.06332" lon="6.86291">
        <ele>1022.5</ele>
        <time>2019-07-16T13:52:34Z</time>
      </trkpt>
      <trkpt lat="44.06335" lon="6.86296">
        <ele>1022</ele>
        <time>2019-07-16T13:52:36Z</time>
      </trkpt>
      <trkpt lat="44.06337" lon="6.86299">
        <ele>1021.6</ele>
        <time>2019-07-16T13:52:37Z</time>
      </trkpt>
      <trkpt lat="44.06339" lon="6.86302">
        <ele>1021.3</ele>
        <time>2019-07-16T13:52:38Z</time>
      </trkpt>
      <trkpt lat="44.06341" lon="6.86306">
        <ele>1020.9</ele>
        <time>2019-07-16T13:52:39Z</time>
      </trkpt>
      <trkpt lat="44.06344" lon="6.8631">
        <ele>1020.5</ele>
        <time>2019-07-16T13:52:40Z</time>
      </trkpt>
      <trkpt lat="44.06347" lon="6.86314">
        <ele>1020.1</ele>
        <time>2019-07-16T13:52:41Z</time>
      </trkpt>
      <trkpt lat="44.06349" lon="6.86318">
        <ele>1019.6</ele>
        <time>2019-07-16T13:52:42Z</time>
      </trkpt>
      <trkpt lat="44.06351" lon="6.86322">
        <ele>1018.9</ele>
        <time>2019-07-16T13:52:43Z</time>
      </trkpt>
      <trkpt lat="44.06353" lon="6.86328">
        <ele>1018.2</ele>
        <time>2019-07-16T13:52:44Z</time>
      </trkpt>
      <trkpt lat="44.06356" lon="6.86332">
        <ele>1017.5</ele>
        <time>2019-07-16T13:52:45Z</time>
      </trkpt>
      <trkpt lat="44.06357" lon="6.86336">
        <ele>1017</ele>
        <time>2019-07-16T13:52:46Z</time>
      </trkpt>
      <trkpt lat="44.06357" lon="6.86341">
        <ele>1016.5</ele>
        <time>2019-07-16T13:52:47Z</time>
      </trkpt>
      <trkpt lat="44.06357" lon="6.86346">
        <ele>1015.8</ele>
        <time>2019-07-16T13:52:49Z</time>
      </trkpt>
      <trkpt lat="44.06358" lon="6.86352">
        <ele>1014.9</ele>
        <time>2019-07-16T13:52:51Z</time>
      </trkpt>
      <trkpt lat="44.06361" lon="6.86355">
        <ele>1014.3</ele>
        <time>2019-07-16T13:52:52Z</time>
      </trkpt>
      <trkpt lat="44.06365" lon="6.86358">
        <ele>1013.4</ele>
        <time>2019-07-16T13:52:53Z</time>
      </trkpt>
      <trkpt lat="44.06369" lon="6.8636">
        <ele>1012.5</ele>
        <time>2019-07-16T13:52:54Z</time>
      </trkpt>
      <trkpt lat="44.06373" lon="6.86363">
        <ele>1011.7</ele>
        <time>2019-07-16T13:52:55Z</time>
      </trkpt>
      <trkpt lat="44.06377" lon="6.86366">
        <ele>1010.9</ele>
        <time>2019-07-16T13:52:56Z</time>
      </trkpt>
      <trkpt lat="44.06381" lon="6.86369">
        <ele>1010</ele>
        <time>2019-07-16T13:52:57Z</time>
      </trkpt>
      <trkpt lat="44.06384" lon="6.86371">
        <ele>1009.1</ele>
        <time>2019-07-16T13:52:58Z</time>
      </trkpt>
      <trkpt lat="44.06388" lon="6.86373">
        <ele>1008.1</ele>
        <time>2019-07-16T13:52:59Z</time>
      </trkpt>
      <trkpt lat="44.06391" lon="6.86375">
        <ele>1007.3</ele>
        <time>2019-07-16T13:53:00Z</time>
      </trkpt>
      <trkpt lat="44.06394" lon="6.86377">
        <ele>1006.6</ele>
        <time>2019-07-16T13:53:01Z</time>
      </trkpt>
      <trkpt lat="44.06398" lon="6.86379">
        <ele>1005.8</ele>
        <time>2019-07-16T13:53:02Z</time>
      </trkpt>
      <trkpt lat="44.06401" lon="6.86381">
        <ele>1005.2</ele>
        <time>2019-07-16T13:53:03Z</time>
      </trkpt>
      <trkpt lat="44.06405" lon="6.86383">
        <ele>1004.5</ele>
        <time>2019-07-16T13:53:04Z</time>
      </trkpt>
      <trkpt lat="44.06408" lon="6.86385">
        <ele>1004.1</ele>
        <time>2019-07-16T13:53:05Z</time>
      </trkpt>
      <trkpt lat="44.06411" lon="6.86386">
        <ele>1003.6</ele>
        <time>2019-07-16T13:53:06Z</time>
      </trkpt>
      <trkpt lat="44.06413" lon="6.86389">
        <ele>1003.2</ele>
        <time>2019-07-16T13:53:07Z</time>
      </trkpt>
      <trkpt lat="44.06416" lon="6.86392">
        <ele>1002.6</ele>
        <time>2019-07-16T13:53:08Z</time>
      </trkpt>
      <trkpt lat="44.06419" lon="6.86397">
        <ele>1001.9</ele>
        <time>2019-07-16T13:53:10Z</time>
      </trkpt>
      <trkpt lat="44.06422" lon="6.86402">
        <ele>1001.1</ele>
        <time>2019-07-16T13:53:12Z</time>
      </trkpt>
      <trkpt lat="44.06427" lon="6.86404">
        <ele>1000.5</ele>
        <time>2019-07-16T13:53:14Z</time>
      </trkpt>
      <trkpt lat="44.06429" lon="6.86407">
        <ele>1000.1</ele>
        <time>2019-07-16T13:53:15Z</time>
      </trkpt>
      <trkpt lat="44.06432" lon="6.8641">
        <ele>999.7</ele>
        <time>2019-07-16T13:53:17Z</time>
      </trkpt>
      <trkpt lat="44.0643" lon="6.86416">
        <ele>999.1</ele>
        <time>2019-07-16T13:53:19Z</time>
      </trkpt>
      <trkpt lat="44.06432" lon="6.86422">
        <ele>998.4</ele>
        <time>2019-07-16T13:53:21Z</time>
      </trkpt>
      <trkpt lat="44.06435" lon="6.86425">
        <ele>998</ele>
        <time>2019-07-16T13:53:22Z</time>
      </trkpt>
      <trkpt lat="44.06439" lon="6.86429">
        <ele>997.4</ele>
        <time>2019-07-16T13:53:23Z</time>
      </trkpt>
      <trkpt lat="44.06444" lon="6.86432">
        <ele>996.8</ele>
        <time>2019-07-16T13:53:24Z</time>
      </trkpt>
      <trkpt lat="44.06447" lon="6.86435">
        <ele>996.3</ele>
        <time>2019-07-16T13:53:25Z</time>
      </trkpt>
      <trkpt lat="44.06449" lon="6.86438">
        <ele>996</ele>
        <time>2019-07-16T13:53:26Z</time>
      </trkpt>
      <trkpt lat="44.06448" lon="6.86443">
        <ele>995.5</ele>
        <time>2019-07-16T13:53:28Z</time>
      </trkpt>
      <trkpt lat="44.06448" lon="6.86447">
        <ele>995.2</ele>
        <time>2019-07-16T13:53:29Z</time>
      </trkpt>
      <trkpt lat="44.06449" lon="6.86452">
        <ele>994.7</ele>
        <time>2019-07-16T13:53:30Z</time>
      </trkpt>
      <trkpt lat="44.06452" lon="6.86457">
        <ele>994.2</ele>
        <time>2019-07-16T13:53:31Z</time>
      </trkpt>
      <trkpt lat="44.06452" lon="6.86463">
        <ele>993.7</ele>
        <time>2019-07-16T13:53:32Z</time>
      </trkpt>
      <trkpt lat="44.06452" lon="6.86468">
        <ele>993.2</ele>
        <time>2019-07-16T13:53:33Z</time>
      </trkpt>
      <trkpt lat="44.06452" lon="6.86474">
        <ele>992.7</ele>
        <time>2019-07-16T13:53:34Z</time>
      </trkpt>
      <trkpt lat="44.06453" lon="6.86481">
        <ele>992.1</ele>
        <time>2019-07-16T13:53:35Z</time>
      </trkpt>
      <trkpt lat="44.06453" lon="6.86486">
        <ele>991.7</ele>
        <time>2019-07-16T13:53:36Z</time>
      </trkpt>
      <trkpt lat="44.06453" lon="6.8649">
        <ele>991.3</ele>
        <time>2019-07-16T13:53:37Z</time>
      </trkpt>
      <trkpt lat="44.06452" lon="6.86495">
        <ele>991</ele>
        <time>2019-07-16T13:53:38Z</time>
      </trkpt>
      <trkpt lat="44.06451" lon="6.865">
        <ele>990.5</ele>
        <time>2019-07-16T13:53:39Z</time>
      </trkpt>
      <trkpt lat="44.06451" lon="6.86505">
        <ele>989.9</ele>
        <time>2019-07-16T13:53:40Z</time>
      </trkpt>
      <trkpt lat="44.06454" lon="6.86511">
        <ele>989.1</ele>
        <time>2019-07-16T13:53:41Z</time>
      </trkpt>
      <trkpt lat="44.06459" lon="6.86516">
        <ele>988.2</ele>
        <time>2019-07-16T13:53:42Z</time>
      </trkpt>
      <trkpt lat="44.06461" lon="6.8652">
        <ele>987.7</ele>
        <time>2019-07-16T13:53:43Z</time>
      </trkpt>
      <trkpt lat="44.0646" lon="6.86524">
        <ele>987.3</ele>
        <time>2019-07-16T13:53:44Z</time>
      </trkpt>
      <trkpt lat="44.0646" lon="6.86528">
        <ele>986.8</ele>
        <time>2019-07-16T13:53:45Z</time>
      </trkpt>
      <trkpt lat="44.06461" lon="6.86533">
        <ele>986.3</ele>
        <time>2019-07-16T13:53:46Z</time>
      </trkpt>
      <trkpt lat="44.06462" lon="6.86539">
        <ele>985.7</ele>
        <time>2019-07-16T13:53:47Z</time>
      </trkpt>
      <trkpt lat="44.06463" lon="6.86545">
        <ele>985.1</ele>
        <time>2019-07-16T13:53:48Z</time>
      </trkpt>
      <trkpt lat="44.06466" lon="6.86552">
        <ele>984.6</ele>
        <time>2019-07-16T13:53:49Z</time>
      </trkpt>
      <trkpt lat="44.06469" lon="6.86558">
        <ele>984.2</ele>
        <time>2019-07-16T13:53:50Z</time>
      </trkpt>
      <trkpt lat="44.06473" lon="6.86567">
        <ele>983.8</ele>
        <time>2019-07-16T13:53:51Z</time>
      </trkpt>
      <trkpt lat="44.06476" lon="6.86575">
        <ele>983.5</ele>
        <time>2019-07-16T13:53:52Z</time>
      </trkpt>
      <trkpt lat="44.06478" lon="6.86583">
        <ele>983.4</ele>
        <time>2019-07-16T13:53:53Z</time>
      </trkpt>
      <trkpt lat="44.06478" lon="6.86591">
        <ele>983.4</ele>
        <time>2019-07-16T13:53:54Z</time>
      </trkpt>
      <trkpt lat="44.06479" lon="6.86599">
        <ele>983.5</ele>
        <time>2019-07-16T13:53:55Z</time>
      </trkpt>
      <trkpt lat="44.06479" lon="6.86607">
        <ele>983.6</ele>
        <time>2019-07-16T13:53:56Z</time>
      </trkpt>
      <trkpt lat="44.06477" lon="6.86612">
        <ele>983.7</ele>
        <time>2019-07-16T13:53:57Z</time>
      </trkpt>
      <trkpt lat="44.06476" lon="6.86617">
        <ele>983.8</ele>
        <time>2019-07-16T13:53:58Z</time>
      </trkpt>
      <trkpt lat="44.06475" lon="6.86622">
        <ele>983.8</ele>
        <time>2019-07-16T13:53:59Z</time>
      </trkpt>
      <trkpt lat="44.06473" lon="6.86626">
        <ele>983.9</ele>
        <time>2019-07-16T13:54:00Z</time>
      </trkpt>
      <trkpt lat="44.06472" lon="6.8663">
        <ele>983.9</ele>
        <time>2019-07-16T13:54:01Z</time>
      </trkpt>
      <trkpt lat="44.0647" lon="6.86637">
        <ele>983.9</ele>
        <time>2019-07-16T13:54:03Z</time>
      </trkpt>
      <trkpt lat="44.06469" lon="6.86641">
        <ele>983.9</ele>
        <time>2019-07-16T13:54:04Z</time>
      </trkpt>
      <trkpt lat="44.06467" lon="6.86646">
        <ele>983.8</ele>
        <time>2019-07-16T13:54:06Z</time>
      </trkpt>
      <trkpt lat="44.06464" lon="6.8665">
        <ele>983.6</ele>
        <time>2019-07-16T13:54:08Z</time>
      </trkpt>
      <trkpt lat="44.0646" lon="6.86655">
        <ele>983.4</ele>
        <time>2019-07-16T13:54:10Z</time>
      </trkpt>
      <trkpt lat="44.06458" lon="6.86657">
        <ele>983.2</ele>
        <time>2019-07-16T13:54:11Z</time>
      </trkpt>
      <trkpt lat="44.06456" lon="6.86662">
        <ele>982.9</ele>
        <time>2019-07-16T13:54:13Z</time>
      </trkpt>
      <trkpt lat="44.06455" lon="6.86667">
        <ele>982.4</ele>
        <time>2019-07-16T13:54:15Z</time>
      </trkpt>
      <trkpt lat="44.06453" lon="6.86671">
        <ele>982</ele>
        <time>2019-07-16T13:54:17Z</time>
      </trkpt>
      <trkpt lat="44.06456" lon="6.86676">
        <ele>981.6</ele>
        <time>2019-07-16T13:54:20Z</time>
      </trkpt>
      <trkpt lat="44.0646" lon="6.86678">
        <ele>981.1</ele>
        <time>2019-07-16T13:54:21Z</time>
      </trkpt>
      <trkpt lat="44.06465" lon="6.86681">
        <ele>980.6</ele>
        <time>2019-07-16T13:54:22Z</time>
      </trkpt>
      <trkpt lat="44.06469" lon="6.86682">
        <ele>980</ele>
        <time>2019-07-16T13:54:23Z</time>
      </trkpt>
      <trkpt lat="44.06473" lon="6.86685">
        <ele>979.3</ele>
        <time>2019-07-16T13:54:24Z</time>
      </trkpt>
      <trkpt lat="44.06476" lon="6.86687">
        <ele>978.8</ele>
        <time>2019-07-16T13:54:25Z</time>
      </trkpt>
      <trkpt lat="44.06479" lon="6.8669">
        <ele>978</ele>
        <time>2019-07-16T13:54:27Z</time>
      </trkpt>
      <trkpt lat="44.06482" lon="6.86691">
        <ele>977.5</ele>
        <time>2019-07-16T13:54:28Z</time>
      </trkpt>
      <trkpt lat="44.06485" lon="6.86693">
        <ele>976.9</ele>
        <time>2019-07-16T13:54:29Z</time>
      </trkpt>
      <trkpt lat="44.06489" lon="6.86694">
        <ele>976.3</ele>
        <time>2019-07-16T13:54:30Z</time>
      </trkpt>
      <trkpt lat="44.06492" lon="6.86697">
        <ele>975.7</ele>
        <time>2019-07-16T13:54:31Z</time>
      </trkpt>
      <trkpt lat="44.06494" lon="6.86698">
        <ele>975.2</ele>
        <time>2019-07-16T13:54:32Z</time>
      </trkpt>
      <trkpt lat="44.06497" lon="6.867">
        <ele>974.7</ele>
        <time>2019-07-16T13:54:33Z</time>
      </trkpt>
      <trkpt lat="44.06499" lon="6.86701">
        <ele>974.1</ele>
        <time>2019-07-16T13:54:34Z</time>
      </trkpt>
      <trkpt lat="44.06504" lon="6.86705">
        <ele>973</ele>
        <time>2019-07-16T13:54:36Z</time>
      </trkpt>
      <trkpt lat="44.06507" lon="6.86711">
        <ele>972</ele>
        <time>2019-07-16T13:54:38Z</time>
      </trkpt>
      <trkpt lat="44.06509" lon="6.86714">
        <ele>971.4</ele>
        <time>2019-07-16T13:54:39Z</time>
      </trkpt>
      <trkpt lat="44.0651" lon="6.8672">
        <ele>970.7</ele>
        <time>2019-07-16T13:54:41Z</time>
      </trkpt>
      <trkpt lat="44.06513" lon="6.86722">
        <ele>970</ele>
        <time>2019-07-16T13:54:42Z</time>
      </trkpt>
      <trkpt lat="44.06517" lon="6.86723">
        <ele>969.1</ele>
        <time>2019-07-16T13:54:43Z</time>
      </trkpt>
      <trkpt lat="44.06522" lon="6.86722">
        <ele>968</ele>
        <time>2019-07-16T13:54:44Z</time>
      </trkpt>
      <trkpt lat="44.06525" lon="6.8672">
        <ele>967.2</ele>
        <time>2019-07-16T13:54:45Z</time>
      </trkpt>
      <trkpt lat="44.0653" lon="6.8672">
        <ele>965.9</ele>
        <time>2019-07-16T13:54:46Z</time>
      </trkpt>
      <trkpt lat="44.06534" lon="6.86721">
        <ele>964.7</ele>
        <time>2019-07-16T13:54:47Z</time>
      </trkpt>
      <trkpt lat="44.06537" lon="6.86723">
        <ele>963.9</ele>
        <time>2019-07-16T13:54:48Z</time>
      </trkpt>
      <trkpt lat="44.06541" lon="6.86725">
        <ele>962.8</ele>
        <time>2019-07-16T13:54:50Z</time>
      </trkpt>
      <trkpt lat="44.06543" lon="6.86727">
        <ele>962.1</ele>
        <time>2019-07-16T13:54:52Z</time>
      </trkpt>
      <trkpt lat="44.06546" lon="6.86727">
        <ele>961.3</ele>
        <time>2019-07-16T13:54:57Z</time>
      </trkpt>
      <trkpt lat="44.0655" lon="6.86729">
        <ele>960.3</ele>
        <time>2019-07-16T13:54:59Z</time>
      </trkpt>
      <trkpt lat="44.06552" lon="6.8673">
        <ele>959.6</ele>
        <time>2019-07-16T13:55:00Z</time>
      </trkpt>
      <trkpt lat="44.06555" lon="6.86732">
        <ele>959</ele>
        <time>2019-07-16T13:55:02Z</time>
      </trkpt>
      <trkpt lat="44.06557" lon="6.86737">
        <ele>958.3</ele>
        <time>2019-07-16T13:55:04Z</time>
      </trkpt>
      <trkpt lat="44.06559" lon="6.86745">
        <ele>957.1</ele>
        <time>2019-07-16T13:55:06Z</time>
      </trkpt>
      <trkpt lat="44.06558" lon="6.8675">
        <ele>956.5</ele>
        <time>2019-07-16T13:55:07Z</time>
      </trkpt>
      <trkpt lat="44.06558" lon="6.86756">
        <ele>956</ele>
        <time>2019-07-16T13:55:08Z</time>
      </trkpt>
      <trkpt lat="44.06557" lon="6.86762">
        <ele>955.4</ele>
        <time>2019-07-16T13:55:09Z</time>
      </trkpt>
      <trkpt lat="44.06556" lon="6.86768">
        <ele>955</ele>
        <time>2019-07-16T13:55:10Z</time>
      </trkpt>
      <trkpt lat="44.06553" lon="6.86775">
        <ele>954.4</ele>
        <time>2019-07-16T13:55:11Z</time>
      </trkpt>
      <trkpt lat="44.06549" lon="6.8678">
        <ele>954.1</ele>
        <time>2019-07-16T13:55:12Z</time>
      </trkpt>
      <trkpt lat="44.06547" lon="6.86785">
        <ele>953.9</ele>
        <time>2019-07-16T13:55:13Z</time>
      </trkpt>
      <trkpt lat="44.06545" lon="6.86789">
        <ele>953.7</ele>
        <time>2019-07-16T13:55:14Z</time>
      </trkpt>
      <trkpt lat="44.06544" lon="6.86796">
        <ele>953.4</ele>
        <time>2019-07-16T13:55:16Z</time>
      </trkpt>
      <trkpt lat="44.06545" lon="6.868">
        <ele>953</ele>
        <time>2019-07-16T13:55:18Z</time>
      </trkpt>
      <trkpt lat="44.06549" lon="6.86802">
        <ele>952.8</ele>
        <time>2019-07-16T13:55:20Z</time>
      </trkpt>
      <trkpt lat="44.06552" lon="6.86802">
        <ele>952.6</ele>
        <time>2019-07-16T13:55:21Z</time>
      </trkpt>
      <trkpt lat="44.06555" lon="6.86801">
        <ele>952.5</ele>
        <time>2019-07-16T13:55:23Z</time>
      </trkpt>
      <trkpt lat="44.06558" lon="6.86802">
        <ele>952.4</ele>
        <time>2019-07-16T13:55:25Z</time>
      </trkpt>
      <trkpt lat="44.06562" lon="6.86801">
        <ele>952.3</ele>
        <time>2019-07-16T13:55:27Z</time>
      </trkpt>
      <trkpt lat="44.06563" lon="6.86799">
        <ele>952.3</ele>
        <time>2019-07-16T13:56:02Z</time>
      </trkpt>
      <trkpt lat="44.06566" lon="6.86797">
        <ele>952.3</ele>
        <time>2019-07-16T13:56:05Z</time>
      </trkpt>
      <trkpt lat="44.06571" lon="6.86797">
        <ele>952.4</ele>
        <time>2019-07-16T13:56:07Z</time>
      </trkpt>
      <trkpt lat="44.06574" lon="6.86794">
        <ele>952.6</ele>
        <time>2019-07-16T13:56:10Z</time>
      </trkpt>
      <trkpt lat="44.06576" lon="6.86791">
        <ele>952.8</ele>
        <time>2019-07-16T13:56:13Z</time>
      </trkpt>
      <trkpt lat="44.0658" lon="6.8679">
        <ele>953.1</ele>
        <time>2019-07-16T13:56:15Z</time>
      </trkpt>
      <trkpt lat="44.06585" lon="6.86792">
        <ele>953.6</ele>
        <time>2019-07-16T13:56:17Z</time>
      </trkpt>
      <trkpt lat="44.06589" lon="6.86794">
        <ele>954</ele>
        <time>2019-07-16T13:56:19Z</time>
      </trkpt>
      <trkpt lat="44.06593" lon="6.86795">
        <ele>954.2</ele>
        <time>2019-07-16T13:56:21Z</time>
      </trkpt>
      <trkpt lat="44.06597" lon="6.86795">
        <ele>954.5</ele>
        <time>2019-07-16T13:56:23Z</time>
      </trkpt>
      <trkpt lat="44.06602" lon="6.86793">
        <ele>954.8</ele>
        <time>2019-07-16T13:56:25Z</time>
      </trkpt>
      <trkpt lat="44.06606" lon="6.86789">
        <ele>954.9</ele>
        <time>2019-07-16T13:56:27Z</time>
      </trkpt>
      <trkpt lat="44.0661" lon="6.86786">
        <ele>955</ele>
        <time>2019-07-16T13:56:29Z</time>
      </trkpt>
      <trkpt lat="44.06613" lon="6.86784">
        <ele>954.9</ele>
        <time>2019-07-16T13:56:31Z</time>
      </trkpt>
      <trkpt lat="44.06616" lon="6.86781">
        <ele>954.9</ele>
        <time>2019-07-16T13:56:33Z</time>
      </trkpt>
      <trkpt lat="44.06619" lon="6.8678">
        <ele>954.8</ele>
        <time>2019-07-16T13:56:35Z</time>
      </trkpt>
      <trkpt lat="44.06624" lon="6.8678">
        <ele>954.6</ele>
        <time>2019-07-16T13:56:37Z</time>
      </trkpt>
      <trkpt lat="44.06628" lon="6.8678">
        <ele>954.3</ele>
        <time>2019-07-16T13:56:39Z</time>
      </trkpt>
      <trkpt lat="44.06633" lon="6.86781">
        <ele>954</ele>
        <time>2019-07-16T13:56:41Z</time>
      </trkpt>
      <trkpt lat="44.06635" lon="6.86778">
        <ele>953.8</ele>
        <time>2019-07-16T13:56:43Z</time>
      </trkpt>
      <trkpt lat="44.06635" lon="6.86771">
        <ele>953.6</ele>
        <time>2019-07-16T13:56:45Z</time>
      </trkpt>
      <trkpt lat="44.06636" lon="6.86767">
        <ele>953.5</ele>
        <time>2019-07-16T13:56:46Z</time>
      </trkpt>
      <trkpt lat="44.06634" lon="6.86762">
        <ele>953.4</ele>
        <time>2019-07-16T13:56:48Z</time>
      </trkpt>
      <trkpt lat="44.06634" lon="6.86757">
        <ele>953.3</ele>
        <time>2019-07-16T13:56:49Z</time>
      </trkpt>
      <trkpt lat="44.06635" lon="6.86749">
        <ele>953.2</ele>
        <time>2019-07-16T13:56:51Z</time>
      </trkpt>
      <trkpt lat="44.06636" lon="6.86743">
        <ele>953.1</ele>
        <time>2019-07-16T13:56:53Z</time>
      </trkpt>
      <trkpt lat="44.06637" lon="6.86736">
        <ele>952.9</ele>
        <time>2019-07-16T13:56:55Z</time>
      </trkpt>
      <trkpt lat="44.06638" lon="6.86731">
        <ele>952.7</ele>
        <time>2019-07-16T13:56:57Z</time>
      </trkpt>
      <trkpt lat="44.0664" lon="6.86725">
        <ele>952.6</ele>
        <time>2019-07-16T13:56:59Z</time>
      </trkpt>
      <trkpt lat="44.06643" lon="6.86723">
        <ele>952.4</ele>
        <time>2019-07-16T13:57:00Z</time>
      </trkpt>
      <trkpt lat="44.06645" lon="6.8672">
        <ele>952.3</ele>
        <time>2019-07-16T13:57:01Z</time>
      </trkpt>
      <trkpt lat="44.06647" lon="6.86717">
        <ele>952.2</ele>
        <time>2019-07-16T13:57:02Z</time>
      </trkpt>
      <trkpt lat="44.0665" lon="6.86715">
        <ele>952</ele>
        <time>2019-07-16T13:57:03Z</time>
      </trkpt>
      <trkpt lat="44.06653" lon="6.86711">
        <ele>951.8</ele>
        <time>2019-07-16T13:57:04Z</time>
      </trkpt>
      <trkpt lat="44.06657" lon="6.86708">
        <ele>951.5</ele>
        <time>2019-07-16T13:57:05Z</time>
      </trkpt>
      <trkpt lat="44.06659" lon="6.86703">
        <ele>951.3</ele>
        <time>2019-07-16T13:57:06Z</time>
      </trkpt>
      <trkpt lat="44.06663" lon="6.86699">
        <ele>951</ele>
        <time>2019-07-16T13:57:07Z</time>
      </trkpt>
      <trkpt lat="44.06666" lon="6.86694">
        <ele>950.7</ele>
        <time>2019-07-16T13:57:08Z</time>
      </trkpt>
      <trkpt lat="44.0667" lon="6.8669">
        <ele>950.4</ele>
        <time>2019-07-16T13:57:09Z</time>
      </trkpt>
      <trkpt lat="44.06673" lon="6.86686">
        <ele>950.1</ele>
        <time>2019-07-16T13:57:10Z</time>
      </trkpt>
      <trkpt lat="44.06676" lon="6.86681">
        <ele>949.6</ele>
        <time>2019-07-16T13:57:11Z</time>
      </trkpt>
      <trkpt lat="44.06678" lon="6.86677">
        <ele>949.2</ele>
        <time>2019-07-16T13:57:12Z</time>
      </trkpt>
      <trkpt lat="44.06679" lon="6.86671">
        <ele>948.7</ele>
        <time>2019-07-16T13:57:13Z</time>
      </trkpt>
      <trkpt lat="44.06679" lon="6.86665">
        <ele>948.2</ele>
        <time>2019-07-16T13:57:14Z</time>
      </trkpt>
      <trkpt lat="44.06679" lon="6.86659">
        <ele>947.8</ele>
        <time>2019-07-16T13:57:15Z</time>
      </trkpt>
      <trkpt lat="44.06677" lon="6.86652">
        <ele>947.3</ele>
        <time>2019-07-16T13:57:16Z</time>
      </trkpt>
      <trkpt lat="44.06674" lon="6.86646">
        <ele>946.8</ele>
        <time>2019-07-16T13:57:17Z</time>
      </trkpt>
      <trkpt lat="44.06671" lon="6.86641">
        <ele>946.4</ele>
        <time>2019-07-16T13:57:18Z</time>
      </trkpt>
      <trkpt lat="44.06671" lon="6.86636">
        <ele>946.2</ele>
        <time>2019-07-16T13:57:19Z</time>
      </trkpt>
      <trkpt lat="44.06672" lon="6.8663">
        <ele>946</ele>
        <time>2019-07-16T13:57:20Z</time>
      </trkpt>
      <trkpt lat="44.06674" lon="6.86625">
        <ele>945.8</ele>
        <time>2019-07-16T13:57:21Z</time>
      </trkpt>
      <trkpt lat="44.06677" lon="6.86621">
        <ele>945.7</ele>
        <time>2019-07-16T13:57:22Z</time>
      </trkpt>
      <trkpt lat="44.06679" lon="6.86616">
        <ele>945.6</ele>
        <time>2019-07-16T13:57:23Z</time>
      </trkpt>
      <trkpt lat="44.0668" lon="6.86612">
        <ele>945.5</ele>
        <time>2019-07-16T13:57:24Z</time>
      </trkpt>
      <trkpt lat="44.06682" lon="6.86608">
        <ele>945.3</ele>
        <time>2019-07-16T13:57:25Z</time>
      </trkpt>
      <trkpt lat="44.06683" lon="6.86603">
        <ele>945.1</ele>
        <time>2019-07-16T13:57:26Z</time>
      </trkpt>
      <trkpt lat="44.06684" lon="6.86599">
        <ele>944.9</ele>
        <time>2019-07-16T13:57:27Z</time>
      </trkpt>
      <trkpt lat="44.06686" lon="6.86594">
        <ele>944.6</ele>
        <time>2019-07-16T13:57:28Z</time>
      </trkpt>
      <trkpt lat="44.06688" lon="6.86591">
        <ele>944.3</ele>
        <time>2019-07-16T13:57:29Z</time>
      </trkpt>
      <trkpt lat="44.0669" lon="6.86589">
        <ele>944</ele>
        <time>2019-07-16T13:57:30Z</time>
      </trkpt>
      <trkpt lat="44.06692" lon="6.86585">
        <ele>943.6</ele>
        <time>2019-07-16T13:57:31Z</time>
      </trkpt>
      <trkpt lat="44.06694" lon="6.86582">
        <ele>943.2</ele>
        <time>2019-07-16T13:57:32Z</time>
      </trkpt>
      <trkpt lat="44.06696" lon="6.86579">
        <ele>942.6</ele>
        <time>2019-07-16T13:57:33Z</time>
      </trkpt>
      <trkpt lat="44.06699" lon="6.86574">
        <ele>941.9</ele>
        <time>2019-07-16T13:57:34Z</time>
      </trkpt>
      <trkpt lat="44.06702" lon="6.8657">
        <ele>941.2</ele>
        <time>2019-07-16T13:57:35Z</time>
      </trkpt>
      <trkpt lat="44.06704" lon="6.86564">
        <ele>940.4</ele>
        <time>2019-07-16T13:57:36Z</time>
      </trkpt>
      <trkpt lat="44.06706" lon="6.86559">
        <ele>939.7</ele>
        <time>2019-07-16T13:57:37Z</time>
      </trkpt>
      <trkpt lat="44.06708" lon="6.86554">
        <ele>939.1</ele>
        <time>2019-07-16T13:57:38Z</time>
      </trkpt>
      <trkpt lat="44.0671" lon="6.86547">
        <ele>938.3</ele>
        <time>2019-07-16T13:57:39Z</time>
      </trkpt>
      <trkpt lat="44.06713" lon="6.86542">
        <ele>937.7</ele>
        <time>2019-07-16T13:57:40Z</time>
      </trkpt>
      <trkpt lat="44.06717" lon="6.86539">
        <ele>937.3</ele>
        <time>2019-07-16T13:57:41Z</time>
      </trkpt>
      <trkpt lat="44.06719" lon="6.86535">
        <ele>936.9</ele>
        <time>2019-07-16T13:57:42Z</time>
      </trkpt>
      <trkpt lat="44.06718" lon="6.8653">
        <ele>936.5</ele>
        <time>2019-07-16T13:57:43Z</time>
      </trkpt>
      <trkpt lat="44.06717" lon="6.86525">
        <ele>936.1</ele>
        <time>2019-07-16T13:57:44Z</time>
      </trkpt>
      <trkpt lat="44.06715" lon="6.8652">
        <ele>935.8</ele>
        <time>2019-07-16T13:57:45Z</time>
      </trkpt>
      <trkpt lat="44.06713" lon="6.86515">
        <ele>935.4</ele>
        <time>2019-07-16T13:57:46Z</time>
      </trkpt>
      <trkpt lat="44.0671" lon="6.86508">
        <ele>934.8</ele>
        <time>2019-07-16T13:57:47Z</time>
      </trkpt>
      <trkpt lat="44.06707" lon="6.86501">
        <ele>934.3</ele>
        <time>2019-07-16T13:57:48Z</time>
      </trkpt>
      <trkpt lat="44.06706" lon="6.86493">
        <ele>933.7</ele>
        <time>2019-07-16T13:57:49Z</time>
      </trkpt>
      <trkpt lat="44.06706" lon="6.86487">
        <ele>933.2</ele>
        <time>2019-07-16T13:57:50Z</time>
      </trkpt>
      <trkpt lat="44.06707" lon="6.86481">
        <ele>932.7</ele>
        <time>2019-07-16T13:57:51Z</time>
      </trkpt>
      <trkpt lat="44.06707" lon="6.86476">
        <ele>932.3</ele>
        <time>2019-07-16T13:57:52Z</time>
      </trkpt>
      <trkpt lat="44.06707" lon="6.8647">
        <ele>931.7</ele>
        <time>2019-07-16T13:57:53Z</time>
      </trkpt>
      <trkpt lat="44.06706" lon="6.86464">
        <ele>931</ele>
        <time>2019-07-16T13:57:54Z</time>
      </trkpt>
      <trkpt lat="44.06706" lon="6.86459">
        <ele>930.4</ele>
        <time>2019-07-16T13:57:55Z</time>
      </trkpt>
      <trkpt lat="44.06707" lon="6.86454">
        <ele>929.9</ele>
        <time>2019-07-16T13:57:56Z</time>
      </trkpt>
      <trkpt lat="44.0671" lon="6.86451">
        <ele>929.3</ele>
        <time>2019-07-16T13:57:57Z</time>
      </trkpt>
      <trkpt lat="44.06713" lon="6.86446">
        <ele>928.7</ele>
        <time>2019-07-16T13:57:58Z</time>
      </trkpt>
      <trkpt lat="44.06716" lon="6.8644">
        <ele>928</ele>
        <time>2019-07-16T13:57:59Z</time>
      </trkpt>
      <trkpt lat="44.06719" lon="6.86435">
        <ele>927.3</ele>
        <time>2019-07-16T13:58:00Z</time>
      </trkpt>
      <trkpt lat="44.06723" lon="6.86429">
        <ele>926.7</ele>
        <time>2019-07-16T13:58:01Z</time>
      </trkpt>
      <trkpt lat="44.06726" lon="6.86424">
        <ele>926.2</ele>
        <time>2019-07-16T13:58:02Z</time>
      </trkpt>
      <trkpt lat="44.0673" lon="6.8642">
        <ele>925.7</ele>
        <time>2019-07-16T13:58:03Z</time>
      </trkpt>
      <trkpt lat="44.06733" lon="6.86416">
        <ele>925.4</ele>
        <time>2019-07-16T13:58:04Z</time>
      </trkpt>
      <trkpt lat="44.06737" lon="6.86415">
        <ele>925.2</ele>
        <time>2019-07-16T13:58:05Z</time>
      </trkpt>
      <trkpt lat="44.06742" lon="6.86414">
        <ele>924.9</ele>
        <time>2019-07-16T13:58:06Z</time>
      </trkpt>
      <trkpt lat="44.06747" lon="6.86412">
        <ele>924.7</ele>
        <time>2019-07-16T13:58:07Z</time>
      </trkpt>
      <trkpt lat="44.06751" lon="6.86408">
        <ele>924.6</ele>
        <time>2019-07-16T13:58:08Z</time>
      </trkpt>
      <trkpt lat="44.06756" lon="6.86403">
        <ele>924.4</ele>
        <time>2019-07-16T13:58:09Z</time>
      </trkpt>
      <trkpt lat="44.06762" lon="6.86398">
        <ele>924.3</ele>
        <time>2019-07-16T13:58:10Z</time>
      </trkpt>
      <trkpt lat="44.06765" lon="6.86394">
        <ele>924.1</ele>
        <time>2019-07-16T13:58:11Z</time>
      </trkpt>
      <trkpt lat="44.06768" lon="6.8639">
        <ele>923.9</ele>
        <time>2019-07-16T13:58:12Z</time>
      </trkpt>
      <trkpt lat="44.06772" lon="6.86388">
        <ele>923.6</ele>
        <time>2019-07-16T13:58:14Z</time>
      </trkpt>
      <trkpt lat="44.06776" lon="6.86386">
        <ele>923.2</ele>
        <time>2019-07-16T13:58:16Z</time>
      </trkpt>
      <trkpt lat="44.0678" lon="6.8638">
        <ele>922.5</ele>
        <time>2019-07-16T13:58:18Z</time>
      </trkpt>
      <trkpt lat="44.06782" lon="6.86376">
        <ele>922.1</ele>
        <time>2019-07-16T13:58:19Z</time>
      </trkpt>
      <trkpt lat="44.06779" lon="6.86368">
        <ele>921.4</ele>
        <time>2019-07-16T13:58:21Z</time>
      </trkpt>
      <trkpt lat="44.06777" lon="6.86363">
        <ele>920.9</ele>
        <time>2019-07-16T13:58:22Z</time>
      </trkpt>
      <trkpt lat="44.06775" lon="6.86359">
        <ele>920.4</ele>
        <time>2019-07-16T13:58:23Z</time>
      </trkpt>
      <trkpt lat="44.06773" lon="6.86355">
        <ele>919.8</ele>
        <time>2019-07-16T13:58:24Z</time>
      </trkpt>
      <trkpt lat="44.0677" lon="6.86348">
        <ele>919.1</ele>
        <time>2019-07-16T13:58:25Z</time>
      </trkpt>
      <trkpt lat="44.06769" lon="6.86343">
        <ele>918.7</ele>
        <time>2019-07-16T13:58:26Z</time>
      </trkpt>
      <trkpt lat="44.06768" lon="6.86336">
        <ele>918</ele>
        <time>2019-07-16T13:58:27Z</time>
      </trkpt>
      <trkpt lat="44.06769" lon="6.8633">
        <ele>917.3</ele>
        <time>2019-07-16T13:58:28Z</time>
      </trkpt>
      <trkpt lat="44.06769" lon="6.86324">
        <ele>916.7</ele>
        <time>2019-07-16T13:58:29Z</time>
      </trkpt>
      <trkpt lat="44.06768" lon="6.86317">
        <ele>916</ele>
        <time>2019-07-16T13:58:30Z</time>
      </trkpt>
      <trkpt lat="44.06768" lon="6.86312">
        <ele>915.3</ele>
        <time>2019-07-16T13:58:31Z</time>
      </trkpt>
      <trkpt lat="44.06768" lon="6.86308">
        <ele>914.8</ele>
        <time>2019-07-16T13:58:32Z</time>
      </trkpt>
      <trkpt lat="44.06769" lon="6.86304">
        <ele>914.3</ele>
        <time>2019-07-16T13:58:33Z</time>
      </trkpt>
      <trkpt lat="44.06769" lon="6.86299">
        <ele>913.7</ele>
        <time>2019-07-16T13:58:34Z</time>
      </trkpt>
      <trkpt lat="44.0677" lon="6.86294">
        <ele>913</ele>
        <time>2019-07-16T13:58:35Z</time>
      </trkpt>
      <trkpt lat="44.06771" lon="6.86289">
        <ele>912.3</ele>
        <time>2019-07-16T13:58:36Z</time>
      </trkpt>
      <trkpt lat="44.06772" lon="6.86283">
        <ele>911.5</ele>
        <time>2019-07-16T13:58:37Z</time>
      </trkpt>
      <trkpt lat="44.06773" lon="6.86277">
        <ele>910.8</ele>
        <time>2019-07-16T13:58:38Z</time>
      </trkpt>
      <trkpt lat="44.06775" lon="6.86273">
        <ele>910.2</ele>
        <time>2019-07-16T13:58:39Z</time>
      </trkpt>
      <trkpt lat="44.06777" lon="6.8627">
        <ele>909.6</ele>
        <time>2019-07-16T13:58:40Z</time>
      </trkpt>
      <trkpt lat="44.0678" lon="6.86267">
        <ele>909.1</ele>
        <time>2019-07-16T13:58:41Z</time>
      </trkpt>
      <trkpt lat="44.06783" lon="6.86265">
        <ele>908.4</ele>
        <time>2019-07-16T13:58:42Z</time>
      </trkpt>
      <trkpt lat="44.06785" lon="6.86262">
        <ele>907.8</ele>
        <time>2019-07-16T13:58:43Z</time>
      </trkpt>
      <trkpt lat="44.06789" lon="6.86259">
        <ele>907.2</ele>
        <time>2019-07-16T13:58:44Z</time>
      </trkpt>
      <trkpt lat="44.06792" lon="6.86257">
        <ele>906.7</ele>
        <time>2019-07-16T13:58:45Z</time>
      </trkpt>
      <trkpt lat="44.06795" lon="6.8625">
        <ele>905.8</ele>
        <time>2019-07-16T13:58:47Z</time>
      </trkpt>
      <trkpt lat="44.06796" lon="6.86242">
        <ele>904.8</ele>
        <time>2019-07-16T13:58:48Z</time>
      </trkpt>
      <trkpt lat="44.06797" lon="6.86235">
        <ele>904.2</ele>
        <time>2019-07-16T13:58:49Z</time>
      </trkpt>
      <trkpt lat="44.06797" lon="6.8623">
        <ele>903.8</ele>
        <time>2019-07-16T13:58:50Z</time>
      </trkpt>
      <trkpt lat="44.06797" lon="6.86224">
        <ele>903</ele>
        <time>2019-07-16T13:58:51Z</time>
      </trkpt>
      <trkpt lat="44.06798" lon="6.86219">
        <ele>902.5</ele>
        <time>2019-07-16T13:58:52Z</time>
      </trkpt>
      <trkpt lat="44.06798" lon="6.86213">
        <ele>901.9</ele>
        <time>2019-07-16T13:58:54Z</time>
      </trkpt>
      <trkpt lat="44.06803" lon="6.86208">
        <ele>901.3</ele>
        <time>2019-07-16T13:58:56Z</time>
      </trkpt>
      <trkpt lat="44.06806" lon="6.86205">
        <ele>900.9</ele>
        <time>2019-07-16T13:58:57Z</time>
      </trkpt>
      <trkpt lat="44.06808" lon="6.862">
        <ele>900.4</ele>
        <time>2019-07-16T13:58:58Z</time>
      </trkpt>
      <trkpt lat="44.06811" lon="6.86195">
        <ele>900.1</ele>
        <time>2019-07-16T13:58:59Z</time>
      </trkpt>
      <trkpt lat="44.06815" lon="6.86193">
        <ele>899.9</ele>
        <time>2019-07-16T13:59:00Z</time>
      </trkpt>
      <trkpt lat="44.06819" lon="6.86192">
        <ele>899.6</ele>
        <time>2019-07-16T13:59:01Z</time>
      </trkpt>
      <trkpt lat="44.06822" lon="6.86191">
        <ele>899.4</ele>
        <time>2019-07-16T13:59:02Z</time>
      </trkpt>
      <trkpt lat="44.06825" lon="6.8619">
        <ele>899.2</ele>
        <time>2019-07-16T13:59:03Z</time>
      </trkpt>
      <trkpt lat="44.06828" lon="6.8619">
        <ele>899</ele>
        <time>2019-07-16T13:59:04Z</time>
      </trkpt>
      <trkpt lat="44.06834" lon="6.86187">
        <ele>898.6</ele>
        <time>2019-07-16T13:59:06Z</time>
      </trkpt>
      <trkpt lat="44.06836" lon="6.86184">
        <ele>898.4</ele>
        <time>2019-07-16T13:59:07Z</time>
      </trkpt>
      <trkpt lat="44.06838" lon="6.86179">
        <ele>898.2</ele>
        <time>2019-07-16T13:59:08Z</time>
      </trkpt>
      <trkpt lat="44.06838" lon="6.86175">
        <ele>897.9</ele>
        <time>2019-07-16T13:59:09Z</time>
      </trkpt>
      <trkpt lat="44.06839" lon="6.86169">
        <ele>897.6</ele>
        <time>2019-07-16T13:59:10Z</time>
      </trkpt>
      <trkpt lat="44.06839" lon="6.86163">
        <ele>897.4</ele>
        <time>2019-07-16T13:59:11Z</time>
      </trkpt>
      <trkpt lat="44.06841" lon="6.86158">
        <ele>897.1</ele>
        <time>2019-07-16T13:59:12Z</time>
      </trkpt>
      <trkpt lat="44.06841" lon="6.86153">
        <ele>897</ele>
        <time>2019-07-16T13:59:13Z</time>
      </trkpt>
      <trkpt lat="44.06842" lon="6.86149">
        <ele>896.8</ele>
        <time>2019-07-16T13:59:14Z</time>
      </trkpt>
      <trkpt lat="44.06843" lon="6.86145">
        <ele>896.6</ele>
        <time>2019-07-16T13:59:15Z</time>
      </trkpt>
      <trkpt lat="44.06845" lon="6.86141">
        <ele>896.5</ele>
        <time>2019-07-16T13:59:16Z</time>
      </trkpt>
      <trkpt lat="44.06848" lon="6.86138">
        <ele>896.2</ele>
        <time>2019-07-16T13:59:17Z</time>
      </trkpt>
      <trkpt lat="44.0685" lon="6.86135">
        <ele>896</ele>
        <time>2019-07-16T13:59:18Z</time>
      </trkpt>
      <trkpt lat="44.06853" lon="6.86133">
        <ele>895.7</ele>
        <time>2019-07-16T13:59:19Z</time>
      </trkpt>
      <trkpt lat="44.06856" lon="6.8613">
        <ele>895.5</ele>
        <time>2019-07-16T13:59:20Z</time>
      </trkpt>
      <trkpt lat="44.06859" lon="6.86128">
        <ele>895.2</ele>
        <time>2019-07-16T13:59:21Z</time>
      </trkpt>
      <trkpt lat="44.06863" lon="6.86125">
        <ele>895</ele>
        <time>2019-07-16T13:59:22Z</time>
      </trkpt>
      <trkpt lat="44.06866" lon="6.86123">
        <ele>894.8</ele>
        <time>2019-07-16T13:59:23Z</time>
      </trkpt>
      <trkpt lat="44.06871" lon="6.86121">
        <ele>894.5</ele>
        <time>2019-07-16T13:59:24Z</time>
      </trkpt>
      <trkpt lat="44.06875" lon="6.8612">
        <ele>894.3</ele>
        <time>2019-07-16T13:59:25Z</time>
      </trkpt>
      <trkpt lat="44.06879" lon="6.8612">
        <ele>894.1</ele>
        <time>2019-07-16T13:59:26Z</time>
      </trkpt>
      <trkpt lat="44.06881" lon="6.8612">
        <ele>894</ele>
        <time>2019-07-16T13:59:27Z</time>
      </trkpt>
      <trkpt lat="44.06885" lon="6.86121">
        <ele>893.9</ele>
        <time>2019-07-16T13:59:29Z</time>
      </trkpt>
      <trkpt lat="44.06888" lon="6.8612">
        <ele>893.8</ele>
        <time>2019-07-16T14:00:53Z</time>
      </trkpt>
      <trkpt lat="44.06891" lon="6.86121">
        <ele>893.7</ele>
        <time>2019-07-16T14:00:55Z</time>
      </trkpt>
      <trkpt lat="44.06895" lon="6.86123">
        <ele>893.7</ele>
        <time>2019-07-16T14:00:57Z</time>
      </trkpt>
      <trkpt lat="44.06898" lon="6.86124">
        <ele>893.5</ele>
        <time>2019-07-16T14:00:59Z</time>
      </trkpt>
      <trkpt lat="44.06903" lon="6.86125">
        <ele>893.4</ele>
        <time>2019-07-16T14:01:01Z</time>
      </trkpt>
      <trkpt lat="44.06907" lon="6.86126">
        <ele>893.2</ele>
        <time>2019-07-16T14:01:03Z</time>
      </trkpt>
      <trkpt lat="44.06911" lon="6.86126">
        <ele>893.1</ele>
        <time>2019-07-16T14:01:05Z</time>
      </trkpt>
      <trkpt lat="44.06916" lon="6.86125">
        <ele>892.9</ele>
        <time>2019-07-16T14:01:07Z</time>
      </trkpt>
      <trkpt lat="44.06922" lon="6.86125">
        <ele>892.7</ele>
        <time>2019-07-16T14:01:09Z</time>
      </trkpt>
      <trkpt lat="44.06925" lon="6.86124">
        <ele>892.5</ele>
        <time>2019-07-16T14:01:10Z</time>
      </trkpt>
      <trkpt lat="44.06928" lon="6.86125">
        <ele>892.4</ele>
        <time>2019-07-16T14:01:11Z</time>
      </trkpt>
      <trkpt lat="44.06934" lon="6.86128">
        <ele>892.1</ele>
        <time>2019-07-16T14:01:13Z</time>
      </trkpt>
      <trkpt lat="44.06938" lon="6.8613">
        <ele>891.8</ele>
        <time>2019-07-16T14:01:14Z</time>
      </trkpt>
      <trkpt lat="44.06941" lon="6.86132">
        <ele>891.6</ele>
        <time>2019-07-16T14:01:15Z</time>
      </trkpt>
      <trkpt lat="44.06945" lon="6.86134">
        <ele>891.3</ele>
        <time>2019-07-16T14:01:16Z</time>
      </trkpt>
      <trkpt lat="44.06949" lon="6.86136">
        <ele>891</ele>
        <time>2019-07-16T14:01:18Z</time>
      </trkpt>
      <trkpt lat="44.06952" lon="6.86137">
        <ele>890.8</ele>
        <time>2019-07-16T14:01:23Z</time>
      </trkpt>
      <trkpt lat="44.06956" lon="6.86138">
        <ele>890.7</ele>
        <time>2019-07-16T14:01:26Z</time>
      </trkpt>
      <trkpt lat="44.06959" lon="6.8614">
        <ele>890.6</ele>
        <time>2019-07-16T14:01:29Z</time>
      </trkpt>
      <trkpt lat="44.06962" lon="6.86141">
        <ele>890.5</ele>
        <time>2019-07-16T14:01:33Z</time>
      </trkpt>
      <trkpt lat="44.06965" lon="6.86143">
        <ele>890.4</ele>
        <time>2019-07-16T14:01:39Z</time>
      </trkpt>
      <trkpt lat="44.06968" lon="6.86143">
        <ele>890.4</ele>
        <time>2019-07-16T14:01:42Z</time>
      </trkpt>
      <trkpt lat="44.06972" lon="6.86144">
        <ele>890.3</ele>
        <time>2019-07-16T14:01:47Z</time>
      </trkpt>
      <trkpt lat="44.06975" lon="6.86143">
        <ele>890.2</ele>
        <time>2019-07-16T14:01:50Z</time>
      </trkpt>
      <trkpt lat="44.06978" lon="6.86141">
        <ele>890.2</ele>
        <time>2019-07-16T14:02:00Z</time>
      </trkpt>
      <trkpt lat="44.06981" lon="6.86135">
        <ele>890</ele>
        <time>2019-07-16T14:02:02Z</time>
      </trkpt>
      <trkpt lat="44.06983" lon="6.86131">
        <ele>889.9</ele>
        <time>2019-07-16T14:02:03Z</time>
      </trkpt>
      <trkpt lat="44.06984" lon="6.86127">
        <ele>889.8</ele>
        <time>2019-07-16T14:02:04Z</time>
      </trkpt>
      <trkpt lat="44.06985" lon="6.8612">
        <ele>889.5</ele>
        <time>2019-07-16T14:02:06Z</time>
      </trkpt>
      <trkpt lat="44.06985" lon="6.86115">
        <ele>889.3</ele>
        <time>2019-07-16T14:02:07Z</time>
      </trkpt>
      <trkpt lat="44.06985" lon="6.86111">
        <ele>889.1</ele>
        <time>2019-07-16T14:02:08Z</time>
      </trkpt>
      <trkpt lat="44.06983" lon="6.86104">
        <ele>888.7</ele>
        <time>2019-07-16T14:02:10Z</time>
      </trkpt>
      <trkpt lat="44.06985" lon="6.86097">
        <ele>888.3</ele>
        <time>2019-07-16T14:02:12Z</time>
      </trkpt>
      <trkpt lat="44.06988" lon="6.86091">
        <ele>887.9</ele>
        <time>2019-07-16T14:02:14Z</time>
      </trkpt>
      <trkpt lat="44.0699" lon="6.86087">
        <ele>887.6</ele>
        <time>2019-07-16T14:02:15Z</time>
      </trkpt>
      <trkpt lat="44.06993" lon="6.86084">
        <ele>887.3</ele>
        <time>2019-07-16T14:02:16Z</time>
      </trkpt>
      <trkpt lat="44.06995" lon="6.86082">
        <ele>887.1</ele>
        <time>2019-07-16T14:02:17Z</time>
      </trkpt>
      <trkpt lat="44.06998" lon="6.86081">
        <ele>886.9</ele>
        <time>2019-07-16T14:02:18Z</time>
      </trkpt>
      <trkpt lat="44.07002" lon="6.86078">
        <ele>886.5</ele>
        <time>2019-07-16T14:02:20Z</time>
      </trkpt>
      <trkpt lat="44.07007" lon="6.86075">
        <ele>886</ele>
        <time>2019-07-16T14:02:22Z</time>
      </trkpt>
      <trkpt lat="44.0701" lon="6.8607">
        <ele>885.7</ele>
        <time>2019-07-16T14:02:24Z</time>
      </trkpt>
      <trkpt lat="44.07013" lon="6.86063">
        <ele>885.2</ele>
        <time>2019-07-16T14:02:26Z</time>
      </trkpt>
      <trkpt lat="44.07014" lon="6.86058">
        <ele>884.9</ele>
        <time>2019-07-16T14:02:27Z</time>
      </trkpt>
      <trkpt lat="44.07015" lon="6.86053">
        <ele>884.6</ele>
        <time>2019-07-16T14:02:28Z</time>
      </trkpt>
      <trkpt lat="44.07016" lon="6.86048">
        <ele>884.2</ele>
        <time>2019-07-16T14:02:29Z</time>
      </trkpt>
      <trkpt lat="44.07015" lon="6.86042">
        <ele>883.7</ele>
        <time>2019-07-16T14:02:30Z</time>
      </trkpt>
      <trkpt lat="44.07016" lon="6.86037">
        <ele>883.2</ele>
        <time>2019-07-16T14:02:31Z</time>
      </trkpt>
      <trkpt lat="44.07017" lon="6.86033">
        <ele>882.8</ele>
        <time>2019-07-16T14:02:32Z</time>
      </trkpt>
      <trkpt lat="44.07018" lon="6.86029">
        <ele>882.4</ele>
        <time>2019-07-16T14:02:33Z</time>
      </trkpt>
      <trkpt lat="44.07023" lon="6.86025">
        <ele>881.9</ele>
        <time>2019-07-16T14:02:35Z</time>
      </trkpt>
      <trkpt lat="44.07026" lon="6.86023">
        <ele>881.6</ele>
        <time>2019-07-16T14:02:36Z</time>
      </trkpt>
      <trkpt lat="44.07029" lon="6.86022">
        <ele>881.4</ele>
        <time>2019-07-16T14:02:37Z</time>
      </trkpt>
      <trkpt lat="44.07032" lon="6.8602">
        <ele>881.2</ele>
        <time>2019-07-16T14:02:38Z</time>
      </trkpt>
      <trkpt lat="44.07035" lon="6.86018">
        <ele>881</ele>
        <time>2019-07-16T14:02:39Z</time>
      </trkpt>
      <trkpt lat="44.07039" lon="6.86015">
        <ele>880.8</ele>
        <time>2019-07-16T14:02:40Z</time>
      </trkpt>
      <trkpt lat="44.07042" lon="6.86012">
        <ele>880.7</ele>
        <time>2019-07-16T14:02:41Z</time>
      </trkpt>
      <trkpt lat="44.07046" lon="6.8601">
        <ele>880.5</ele>
        <time>2019-07-16T14:02:42Z</time>
      </trkpt>
      <trkpt lat="44.07049" lon="6.86005">
        <ele>880.3</ele>
        <time>2019-07-16T14:02:43Z</time>
      </trkpt>
      <trkpt lat="44.07052" lon="6.86002">
        <ele>880.2</ele>
        <time>2019-07-16T14:02:44Z</time>
      </trkpt>
      <trkpt lat="44.07055" lon="6.85999">
        <ele>880</ele>
        <time>2019-07-16T14:02:45Z</time>
      </trkpt>
      <trkpt lat="44.07057" lon="6.85995">
        <ele>879.8</ele>
        <time>2019-07-16T14:02:46Z</time>
      </trkpt>
      <trkpt lat="44.07061" lon="6.8599">
        <ele>879.4</ele>
        <time>2019-07-16T14:02:47Z</time>
      </trkpt>
      <trkpt lat="44.07063" lon="6.85985">
        <ele>879</ele>
        <time>2019-07-16T14:02:48Z</time>
      </trkpt>
      <trkpt lat="44.07066" lon="6.85979">
        <ele>878.5</ele>
        <time>2019-07-16T14:02:49Z</time>
      </trkpt>
      <trkpt lat="44.0707" lon="6.85973">
        <ele>877.9</ele>
        <time>2019-07-16T14:02:50Z</time>
      </trkpt>
      <trkpt lat="44.07074" lon="6.85967">
        <ele>877.4</ele>
        <time>2019-07-16T14:02:51Z</time>
      </trkpt>
      <trkpt lat="44.07077" lon="6.85962">
        <ele>876.9</ele>
        <time>2019-07-16T14:02:52Z</time>
      </trkpt>
      <trkpt lat="44.07079" lon="6.85957">
        <ele>876.6</ele>
        <time>2019-07-16T14:02:53Z</time>
      </trkpt>
      <trkpt lat="44.07082" lon="6.85954">
        <ele>876.3</ele>
        <time>2019-07-16T14:02:54Z</time>
      </trkpt>
      <trkpt lat="44.07085" lon="6.8595">
        <ele>876</ele>
        <time>2019-07-16T14:02:55Z</time>
      </trkpt>
      <trkpt lat="44.07088" lon="6.85945">
        <ele>875.8</ele>
        <time>2019-07-16T14:02:56Z</time>
      </trkpt>
      <trkpt lat="44.0709" lon="6.85941">
        <ele>875.6</ele>
        <time>2019-07-16T14:02:57Z</time>
      </trkpt>
      <trkpt lat="44.07092" lon="6.85938">
        <ele>875.5</ele>
        <time>2019-07-16T14:02:58Z</time>
      </trkpt>
      <trkpt lat="44.07095" lon="6.85934">
        <ele>875.4</ele>
        <time>2019-07-16T14:03:00Z</time>
      </trkpt>
      <trkpt lat="44.07098" lon="6.85929">
        <ele>875.4</ele>
        <time>2019-07-16T14:03:02Z</time>
      </trkpt>
      <trkpt lat="44.07101" lon="6.85925">
        <ele>875.4</ele>
        <time>2019-07-16T14:03:04Z</time>
      </trkpt>
      <trkpt lat="44.07104" lon="6.85923">
        <ele>875.4</ele>
        <time>2019-07-16T14:03:06Z</time>
      </trkpt>
      <trkpt lat="44.07108" lon="6.85918">
        <ele>875.4</ele>
        <time>2019-07-16T14:03:08Z</time>
      </trkpt>
      <trkpt lat="44.07109" lon="6.85915">
        <ele>875.5</ele>
        <time>2019-07-16T14:03:09Z</time>
      </trkpt>
      <trkpt lat="44.07112" lon="6.85912">
        <ele>875.5</ele>
        <time>2019-07-16T14:03:11Z</time>
      </trkpt>
      <trkpt lat="44.07114" lon="6.8591">
        <ele>875.5</ele>
        <time>2019-07-16T14:03:39Z</time>
      </trkpt>
      <trkpt lat="44.07118" lon="6.85907">
        <ele>875.6</ele>
        <time>2019-07-16T14:03:42Z</time>
      </trkpt>
      <trkpt lat="44.07123" lon="6.85908">
        <ele>875.5</ele>
        <time>2019-07-16T14:03:44Z</time>
      </trkpt>
      <trkpt lat="44.07128" lon="6.85911">
        <ele>875.4</ele>
        <time>2019-07-16T14:03:46Z</time>
      </trkpt>
      <trkpt lat="44.07131" lon="6.85913">
        <ele>875.3</ele>
        <time>2019-07-16T14:03:47Z</time>
      </trkpt>
      <trkpt lat="44.07133" lon="6.85915">
        <ele>875.3</ele>
        <time>2019-07-16T14:03:48Z</time>
      </trkpt>
      <trkpt lat="44.07138" lon="6.8592">
        <ele>875.1</ele>
        <time>2019-07-16T14:03:50Z</time>
      </trkpt>
      <trkpt lat="44.07141" lon="6.85923">
        <ele>875</ele>
        <time>2019-07-16T14:03:51Z</time>
      </trkpt>
      <trkpt lat="44.07144" lon="6.85928">
        <ele>874.9</ele>
        <time>2019-07-16T14:03:52Z</time>
      </trkpt>
      <trkpt lat="44.07146" lon="6.8593">
        <ele>874.8</ele>
        <time>2019-07-16T14:03:53Z</time>
      </trkpt>
      <trkpt lat="44.07149" lon="6.8593">
        <ele>874.7</ele>
        <time>2019-07-16T14:03:54Z</time>
      </trkpt>
      <trkpt lat="44.07152" lon="6.8593">
        <ele>874.7</ele>
        <time>2019-07-16T14:03:55Z</time>
      </trkpt>
      <trkpt lat="44.07156" lon="6.85931">
        <ele>874.6</ele>
        <time>2019-07-16T14:03:56Z</time>
      </trkpt>
      <trkpt lat="44.07161" lon="6.85932">
        <ele>874.4</ele>
        <time>2019-07-16T14:03:57Z</time>
      </trkpt>
      <trkpt lat="44.07164" lon="6.85931">
        <ele>874.2</ele>
        <time>2019-07-16T14:03:58Z</time>
      </trkpt>
      <trkpt lat="44.07166" lon="6.8593">
        <ele>874.1</ele>
        <time>2019-07-16T14:03:59Z</time>
      </trkpt>
      <trkpt lat="44.07169" lon="6.85928">
        <ele>873.8</ele>
        <time>2019-07-16T14:04:00Z</time>
      </trkpt>
      <trkpt lat="44.07172" lon="6.85926">
        <ele>873.5</ele>
        <time>2019-07-16T14:04:01Z</time>
      </trkpt>
      <trkpt lat="44.07176" lon="6.85923">
        <ele>873</ele>
        <time>2019-07-16T14:04:03Z</time>
      </trkpt>
      <trkpt lat="44.0718" lon="6.85923">
        <ele>872.4</ele>
        <time>2019-07-16T14:04:05Z</time>
      </trkpt>
      <trkpt lat="44.07185" lon="6.85924">
        <ele>871.7</ele>
        <time>2019-07-16T14:04:07Z</time>
      </trkpt>
      <trkpt lat="44.07188" lon="6.85924">
        <ele>871.3</ele>
        <time>2019-07-16T14:04:09Z</time>
      </trkpt>
      <trkpt lat="44.07191" lon="6.85923">
        <ele>870.8</ele>
        <time>2019-07-16T14:04:11Z</time>
      </trkpt>
      <trkpt lat="44.07195" lon="6.85923">
        <ele>870.1</ele>
        <time>2019-07-16T14:04:13Z</time>
      </trkpt>
      <trkpt lat="44.07198" lon="6.85922">
        <ele>869.7</ele>
        <time>2019-07-16T14:04:14Z</time>
      </trkpt>
      <trkpt lat="44.07201" lon="6.8592">
        <ele>869.1</ele>
        <time>2019-07-16T14:04:15Z</time>
      </trkpt>
      <trkpt lat="44.07205" lon="6.85918">
        <ele>868.6</ele>
        <time>2019-07-16T14:04:16Z</time>
      </trkpt>
      <trkpt lat="44.07211" lon="6.85917">
        <ele>867.8</ele>
        <time>2019-07-16T14:04:18Z</time>
      </trkpt>
      <trkpt lat="44.07214" lon="6.85916">
        <ele>867.3</ele>
        <time>2019-07-16T14:04:19Z</time>
      </trkpt>
      <trkpt lat="44.07218" lon="6.85915">
        <ele>866.7</ele>
        <time>2019-07-16T14:04:20Z</time>
      </trkpt>
      <trkpt lat="44.07221" lon="6.85917">
        <ele>866.2</ele>
        <time>2019-07-16T14:04:21Z</time>
      </trkpt>
      <trkpt lat="44.07225" lon="6.85919">
        <ele>865.8</ele>
        <time>2019-07-16T14:04:22Z</time>
      </trkpt>
      <trkpt lat="44.0723" lon="6.85921">
        <ele>865.2</ele>
        <time>2019-07-16T14:04:23Z</time>
      </trkpt>
      <trkpt lat="44.07234" lon="6.85923">
        <ele>864.8</ele>
        <time>2019-07-16T14:04:24Z</time>
      </trkpt>
      <trkpt lat="44.07237" lon="6.85924">
        <ele>864.5</ele>
        <time>2019-07-16T14:04:25Z</time>
      </trkpt>
      <trkpt lat="44.07241" lon="6.85925">
        <ele>864.1</ele>
        <time>2019-07-16T14:04:26Z</time>
      </trkpt>
      <trkpt lat="44.07246" lon="6.85927">
        <ele>863.6</ele>
        <time>2019-07-16T14:04:27Z</time>
      </trkpt>
      <trkpt lat="44.07251" lon="6.85929">
        <ele>863.1</ele>
        <time>2019-07-16T14:04:28Z</time>
      </trkpt>
      <trkpt lat="44.07255" lon="6.8593">
        <ele>862.7</ele>
        <time>2019-07-16T14:04:29Z</time>
      </trkpt>
      <trkpt lat="44.07259" lon="6.85932">
        <ele>862.2</ele>
        <time>2019-07-16T14:04:30Z</time>
      </trkpt>
      <trkpt lat="44.07263" lon="6.85934">
        <ele>861.8</ele>
        <time>2019-07-16T14:04:31Z</time>
      </trkpt>
      <trkpt lat="44.07266" lon="6.85935">
        <ele>861.4</ele>
        <time>2019-07-16T14:04:32Z</time>
      </trkpt>
      <trkpt lat="44.0727" lon="6.85937">
        <ele>861</ele>
        <time>2019-07-16T14:04:33Z</time>
      </trkpt>
      <trkpt lat="44.07274" lon="6.85938">
        <ele>860.5</ele>
        <time>2019-07-16T14:04:34Z</time>
      </trkpt>
      <trkpt lat="44.07278" lon="6.85941">
        <ele>860</ele>
        <time>2019-07-16T14:04:35Z</time>
      </trkpt>
      <trkpt lat="44.07281" lon="6.85944">
        <ele>859.6</ele>
        <time>2019-07-16T14:04:36Z</time>
      </trkpt>
      <trkpt lat="44.07285" lon="6.85947">
        <ele>859.1</ele>
        <time>2019-07-16T14:04:37Z</time>
      </trkpt>
      <trkpt lat="44.07289" lon="6.85949">
        <ele>858.7</ele>
        <time>2019-07-16T14:04:38Z</time>
      </trkpt>
      <trkpt lat="44.07294" lon="6.8595">
        <ele>858.3</ele>
        <time>2019-07-16T14:04:39Z</time>
      </trkpt>
      <trkpt lat="44.073" lon="6.8595">
        <ele>858</ele>
        <time>2019-07-16T14:04:40Z</time>
      </trkpt>
      <trkpt lat="44.07306" lon="6.85948">
        <ele>857.7</ele>
        <time>2019-07-16T14:04:41Z</time>
      </trkpt>
      <trkpt lat="44.07311" lon="6.85948">
        <ele>857.4</ele>
        <time>2019-07-16T14:04:42Z</time>
      </trkpt>
      <trkpt lat="44.07317" lon="6.8595">
        <ele>857.2</ele>
        <time>2019-07-16T14:04:43Z</time>
      </trkpt>
      <trkpt lat="44.07323" lon="6.8595">
        <ele>856.8</ele>
        <time>2019-07-16T14:04:44Z</time>
      </trkpt>
      <trkpt lat="44.07327" lon="6.85951">
        <ele>856.6</ele>
        <time>2019-07-16T14:04:45Z</time>
      </trkpt>
      <trkpt lat="44.0733" lon="6.85952">
        <ele>856.4</ele>
        <time>2019-07-16T14:04:46Z</time>
      </trkpt>
      <trkpt lat="44.07334" lon="6.85954">
        <ele>856.2</ele>
        <time>2019-07-16T14:04:47Z</time>
      </trkpt>
      <trkpt lat="44.07338" lon="6.85957">
        <ele>856</ele>
        <time>2019-07-16T14:04:48Z</time>
      </trkpt>
      <trkpt lat="44.0734" lon="6.8596">
        <ele>855.9</ele>
        <time>2019-07-16T14:04:49Z</time>
      </trkpt>
      <trkpt lat="44.07343" lon="6.85962">
        <ele>855.8</ele>
        <time>2019-07-16T14:04:50Z</time>
      </trkpt>
      <trkpt lat="44.07346" lon="6.85964">
        <ele>855.7</ele>
        <time>2019-07-16T14:04:51Z</time>
      </trkpt>
      <trkpt lat="44.07349" lon="6.85966">
        <ele>855.6</ele>
        <time>2019-07-16T14:04:52Z</time>
      </trkpt>
      <trkpt lat="44.07352" lon="6.85967">
        <ele>855.5</ele>
        <time>2019-07-16T14:04:53Z</time>
      </trkpt>
      <trkpt lat="44.07355" lon="6.85969">
        <ele>855.4</ele>
        <time>2019-07-16T14:04:54Z</time>
      </trkpt>
      <trkpt lat="44.07358" lon="6.8597">
        <ele>855.3</ele>
        <time>2019-07-16T14:04:55Z</time>
      </trkpt>
      <trkpt lat="44.07362" lon="6.85972">
        <ele>855.2</ele>
        <time>2019-07-16T14:04:56Z</time>
      </trkpt>
      <trkpt lat="44.07366" lon="6.85975">
        <ele>854.9</ele>
        <time>2019-07-16T14:04:57Z</time>
      </trkpt>
      <trkpt lat="44.07369" lon="6.85977">
        <ele>854.7</ele>
        <time>2019-07-16T14:04:58Z</time>
      </trkpt>
      <trkpt lat="44.07371" lon="6.8598">
        <ele>854.5</ele>
        <time>2019-07-16T14:04:59Z</time>
      </trkpt>
      <trkpt lat="44.07374" lon="6.85982">
        <ele>854.2</ele>
        <time>2019-07-16T14:05:00Z</time>
      </trkpt>
      <trkpt lat="44.07377" lon="6.85984">
        <ele>853.8</ele>
        <time>2019-07-16T14:05:02Z</time>
      </trkpt>
      <trkpt lat="44.07383" lon="6.85981">
        <ele>853.1</ele>
        <time>2019-07-16T14:05:04Z</time>
      </trkpt>
      <trkpt lat="44.07384" lon="6.85974">
        <ele>852.5</ele>
        <time>2019-07-16T14:05:06Z</time>
      </trkpt>
      <trkpt lat="44.07383" lon="6.85969">
        <ele>852</ele>
        <time>2019-07-16T14:05:07Z</time>
      </trkpt>
      <trkpt lat="44.07382" lon="6.85966">
        <ele>851.6</ele>
        <time>2019-07-16T14:05:08Z</time>
      </trkpt>
      <trkpt lat="44.07379" lon="6.85962">
        <ele>851.1</ele>
        <time>2019-07-16T14:05:09Z</time>
      </trkpt>
      <trkpt lat="44.07377" lon="6.85958">
        <ele>850.5</ele>
        <time>2019-07-16T14:05:10Z</time>
      </trkpt>
      <trkpt lat="44.07374" lon="6.85955">
        <ele>850.1</ele>
        <time>2019-07-16T14:05:11Z</time>
      </trkpt>
      <trkpt lat="44.07371" lon="6.85951">
        <ele>849.7</ele>
        <time>2019-07-16T14:05:12Z</time>
      </trkpt>
      <trkpt lat="44.07369" lon="6.85948">
        <ele>849.3</ele>
        <time>2019-07-16T14:05:13Z</time>
      </trkpt>
      <trkpt lat="44.07366" lon="6.85942">
        <ele>848.9</ele>
        <time>2019-07-16T14:05:14Z</time>
      </trkpt>
      <trkpt lat="44.07364" lon="6.85936">
        <ele>848.4</ele>
        <time>2019-07-16T14:05:15Z</time>
      </trkpt>
      <trkpt lat="44.07362" lon="6.8593">
        <ele>847.9</ele>
        <time>2019-07-16T14:05:16Z</time>
      </trkpt>
      <trkpt lat="44.07359" lon="6.85924">
        <ele>847.5</ele>
        <time>2019-07-16T14:05:17Z</time>
      </trkpt>
      <trkpt lat="44.07356" lon="6.85919">
        <ele>846.9</ele>
        <time>2019-07-16T14:05:18Z</time>
      </trkpt>
      <trkpt lat="44.07351" lon="6.85914">
        <ele>846.4</ele>
        <time>2019-07-16T14:05:19Z</time>
      </trkpt>
      <trkpt lat="44.07347" lon="6.8591">
        <ele>845.8</ele>
        <time>2019-07-16T14:05:20Z</time>
      </trkpt>
      <trkpt lat="44.07342" lon="6.85906">
        <ele>845.3</ele>
        <time>2019-07-16T14:05:21Z</time>
      </trkpt>
      <trkpt lat="44.07338" lon="6.85901">
        <ele>844.8</ele>
        <time>2019-07-16T14:05:22Z</time>
      </trkpt>
      <trkpt lat="44.07333" lon="6.85896">
        <ele>844.3</ele>
        <time>2019-07-16T14:05:23Z</time>
      </trkpt>
      <trkpt lat="44.07328" lon="6.85894">
        <ele>843.9</ele>
        <time>2019-07-16T14:05:24Z</time>
      </trkpt>
      <trkpt lat="44.07322" lon="6.85894">
        <ele>843.4</ele>
        <time>2019-07-16T14:05:25Z</time>
      </trkpt>
      <trkpt lat="44.07315" lon="6.85894">
        <ele>843</ele>
        <time>2019-07-16T14:05:26Z</time>
      </trkpt>
      <trkpt lat="44.07309" lon="6.85896">
        <ele>842.6</ele>
        <time>2019-07-16T14:05:27Z</time>
      </trkpt>
      <trkpt lat="44.07304" lon="6.85896">
        <ele>842.3</ele>
        <time>2019-07-16T14:05:28Z</time>
      </trkpt>
      <trkpt lat="44.07299" lon="6.85895">
        <ele>841.8</ele>
        <time>2019-07-16T14:05:29Z</time>
      </trkpt>
      <trkpt lat="44.07293" lon="6.85891">
        <ele>841.4</ele>
        <time>2019-07-16T14:05:30Z</time>
      </trkpt>
      <trkpt lat="44.07289" lon="6.85885">
        <ele>840.8</ele>
        <time>2019-07-16T14:05:31Z</time>
      </trkpt>
      <trkpt lat="44.07285" lon="6.85882">
        <ele>840.4</ele>
        <time>2019-07-16T14:05:32Z</time>
      </trkpt>
      <trkpt lat="44.0728" lon="6.85877">
        <ele>840</ele>
        <time>2019-07-16T14:05:33Z</time>
      </trkpt>
      <trkpt lat="44.07275" lon="6.85875">
        <ele>839.6</ele>
        <time>2019-07-16T14:05:34Z</time>
      </trkpt>
      <trkpt lat="44.0727" lon="6.8587">
        <ele>839.2</ele>
        <time>2019-07-16T14:05:35Z</time>
      </trkpt>
      <trkpt lat="44.07266" lon="6.85868">
        <ele>838.9</ele>
        <time>2019-07-16T14:05:36Z</time>
      </trkpt>
      <trkpt lat="44.0726" lon="6.85867">
        <ele>838.5</ele>
        <time>2019-07-16T14:05:37Z</time>
      </trkpt>
      <trkpt lat="44.07255" lon="6.85866">
        <ele>838.1</ele>
        <time>2019-07-16T14:05:38Z</time>
      </trkpt>
      <trkpt lat="44.0725" lon="6.85863">
        <ele>837.7</ele>
        <time>2019-07-16T14:05:39Z</time>
      </trkpt>
      <trkpt lat="44.07247" lon="6.8586">
        <ele>837.3</ele>
        <time>2019-07-16T14:05:40Z</time>
      </trkpt>
      <trkpt lat="44.07243" lon="6.85857">
        <ele>836.8</ele>
        <time>2019-07-16T14:05:41Z</time>
      </trkpt>
      <trkpt lat="44.07238" lon="6.85855">
        <ele>836.3</ele>
        <time>2019-07-16T14:05:42Z</time>
      </trkpt>
      <trkpt lat="44.07234" lon="6.85854">
        <ele>835.9</ele>
        <time>2019-07-16T14:05:43Z</time>
      </trkpt>
      <trkpt lat="44.07229" lon="6.85853">
        <ele>835.3</ele>
        <time>2019-07-16T14:05:44Z</time>
      </trkpt>
      <trkpt lat="44.07224" lon="6.85853">
        <ele>834.7</ele>
        <time>2019-07-16T14:05:45Z</time>
      </trkpt>
      <trkpt lat="44.07217" lon="6.85852">
        <ele>834.1</ele>
        <time>2019-07-16T14:05:46Z</time>
      </trkpt>
      <trkpt lat="44.07211" lon="6.85852">
        <ele>833.5</ele>
        <time>2019-07-16T14:05:47Z</time>
      </trkpt>
      <trkpt lat="44.07205" lon="6.85852">
        <ele>833</ele>
        <time>2019-07-16T14:05:48Z</time>
      </trkpt>
      <trkpt lat="44.072" lon="6.85852">
        <ele>832.5</ele>
        <time>2019-07-16T14:05:49Z</time>
      </trkpt>
      <trkpt lat="44.07195" lon="6.8585">
        <ele>832.1</ele>
        <time>2019-07-16T14:05:50Z</time>
      </trkpt>
      <trkpt lat="44.07192" lon="6.8585">
        <ele>831.9</ele>
        <time>2019-07-16T14:05:51Z</time>
      </trkpt>
      <trkpt lat="44.07189" lon="6.85849">
        <ele>819.5</ele>
        <time>2019-07-16T14:05:52Z</time>
      </trkpt>
      <trkpt lat="44.07184" lon="6.85851">
        <ele>820.1</ele>
        <time>2019-07-16T14:05:54Z</time>
      </trkpt>
      <trkpt lat="44.07179" lon="6.85851">
        <ele>820.8</ele>
        <time>2019-07-16T14:05:56Z</time>
      </trkpt>
      <trkpt lat="44.07175" lon="6.85852">
        <ele>821.3</ele>
        <time>2019-07-16T14:05:57Z</time>
      </trkpt>
      <trkpt lat="44.07171" lon="6.85854">
        <ele>821.8</ele>
        <time>2019-07-16T14:05:58Z</time>
      </trkpt>
      <trkpt lat="44.07168" lon="6.85855">
        <ele>822.1</ele>
        <time>2019-07-16T14:05:59Z</time>
      </trkpt>
      <trkpt lat="44.07163" lon="6.85854">
        <ele>822.7</ele>
        <time>2019-07-16T14:06:01Z</time>
      </trkpt>
      <trkpt lat="44.07159" lon="6.85852">
        <ele>823.1</ele>
        <time>2019-07-16T14:06:03Z</time>
      </trkpt>
      <trkpt lat="44.07157" lon="6.85848">
        <ele>823.5</ele>
        <time>2019-07-16T14:06:05Z</time>
      </trkpt>
      <trkpt lat="44.07153" lon="6.85843">
        <ele>824.2</ele>
        <time>2019-07-16T14:06:07Z</time>
      </trkpt>
      <trkpt lat="44.07149" lon="6.85841">
        <ele>824.6</ele>
        <time>2019-07-16T14:06:08Z</time>
      </trkpt>
      <trkpt lat="44.07144" lon="6.8584">
        <ele>825.1</ele>
        <time>2019-07-16T14:06:09Z</time>
      </trkpt>
      <trkpt lat="44.0714" lon="6.85839">
        <ele>825.6</ele>
        <time>2019-07-16T14:06:10Z</time>
      </trkpt>
      <trkpt lat="44.07135" lon="6.8584">
        <ele>825.9</ele>
        <time>2019-07-16T14:06:11Z</time>
      </trkpt>
      <trkpt lat="44.0713" lon="6.85841">
        <ele>826.1</ele>
        <time>2019-07-16T14:06:12Z</time>
      </trkpt>
      <trkpt lat="44.07127" lon="6.85843">
        <ele>826.3</ele>
        <time>2019-07-16T14:06:13Z</time>
      </trkpt>
      <trkpt lat="44.07124" lon="6.85844">
        <ele>826.4</ele>
        <time>2019-07-16T14:06:14Z</time>
      </trkpt>
      <trkpt lat="44.07121" lon="6.85845">
        <ele>826.5</ele>
        <time>2019-07-16T14:06:15Z</time>
      </trkpt>
      <trkpt lat="44.07117" lon="6.85845">
        <ele>826.7</ele>
        <time>2019-07-16T14:06:17Z</time>
      </trkpt>
      <trkpt lat="44.07119" lon="6.85841">
        <ele>826.8</ele>
        <time>2019-07-16T14:06:21Z</time>
      </trkpt>
      <trkpt lat="44.0712" lon="6.85845">
        <ele>827</ele>
        <time>2019-07-16T14:06:36Z</time>
      </trkpt>
      <trkpt lat="44.07124" lon="6.85847">
        <ele>827.3</ele>
        <time>2019-07-16T14:06:43Z</time>
      </trkpt>
      <trkpt lat="44.07128" lon="6.85846">
        <ele>827.6</ele>
        <time>2019-07-16T14:06:45Z</time>
      </trkpt>
      <trkpt lat="44.07134" lon="6.85846">
        <ele>828.1</ele>
        <time>2019-07-16T14:06:47Z</time>
      </trkpt>
      <trkpt lat="44.07137" lon="6.85847">
        <ele>828.3</ele>
        <time>2019-07-16T14:06:48Z</time>
      </trkpt>
      <trkpt lat="44.07142" lon="6.85848">
        <ele>824.8</ele>
        <time>2019-07-16T14:06:50Z</time>
      </trkpt>
      <trkpt lat="44.07145" lon="6.85849">
        <ele>824.5</ele>
        <time>2019-07-16T14:06:51Z</time>
      </trkpt>
      <trkpt lat="44.07147" lon="6.8585">
        <ele>824.2</ele>
        <time>2019-07-16T14:06:52Z</time>
      </trkpt>
      <trkpt lat="44.0715" lon="6.8585">
        <ele>823.8</ele>
        <time>2019-07-16T14:06:53Z</time>
      </trkpt>
      <trkpt lat="44.07153" lon="6.85852">
        <ele>823.5</ele>
        <time>2019-07-16T14:06:54Z</time>
      </trkpt>
      <trkpt lat="44.07156" lon="6.85855">
        <ele>823.1</ele>
        <time>2019-07-16T14:06:56Z</time>
      </trkpt>
      <trkpt lat="44.07159" lon="6.85857">
        <ele>822.8</ele>
        <time>2019-07-16T14:06:58Z</time>
      </trkpt>
      <trkpt lat="44.07164" lon="6.85859">
        <ele>822.2</ele>
        <time>2019-07-16T14:07:00Z</time>
      </trkpt>
      <trkpt lat="44.07169" lon="6.85855">
        <ele>821.6</ele>
        <time>2019-07-16T14:07:02Z</time>
      </trkpt>
      <trkpt lat="44.07174" lon="6.85854">
        <ele>821</ele>
        <time>2019-07-16T14:07:04Z</time>
      </trkpt>
      <trkpt lat="44.07177" lon="6.85855">
        <ele>820.6</ele>
        <time>2019-07-16T14:07:05Z</time>
      </trkpt>
      <trkpt lat="44.0718" lon="6.85855">
        <ele>820.3</ele>
        <time>2019-07-16T14:07:06Z</time>
      </trkpt>
      <trkpt lat="44.07184" lon="6.85851">
        <ele>819.7</ele>
        <time>2019-07-16T14:07:08Z</time>
      </trkpt>
      <trkpt lat="44.07186" lon="6.85847">
        <ele>819.4</ele>
        <time>2019-07-16T14:07:09Z</time>
      </trkpt>
      <trkpt lat="44.07187" lon="6.85844">
        <ele>819.1</ele>
        <time>2019-07-16T14:07:10Z</time>
      </trkpt>
      <trkpt lat="44.0719" lon="6.85839">
        <ele>818.7</ele>
        <time>2019-07-16T14:07:12Z</time>
      </trkpt>
      <trkpt lat="44.07194" lon="6.85837">
        <ele>818.2</ele>
        <time>2019-07-16T14:07:14Z</time>
      </trkpt>
      <trkpt lat="44.07197" lon="6.85838">
        <ele>817.9</ele>
        <time>2019-07-16T14:07:16Z</time>
      </trkpt>
      <trkpt lat="44.07202" lon="6.85835">
        <ele>817.4</ele>
        <time>2019-07-16T14:07:18Z</time>
      </trkpt>
      <trkpt lat="44.07205" lon="6.85835">
        <ele>817.1</ele>
        <time>2019-07-16T14:07:19Z</time>
      </trkpt>
      <trkpt lat="44.07208" lon="6.85836">
        <ele>816.8</ele>
        <time>2019-07-16T14:07:20Z</time>
      </trkpt>
      <trkpt lat="44.07211" lon="6.85834">
        <ele>816.4</ele>
        <time>2019-07-16T14:07:21Z</time>
      </trkpt>
      <trkpt lat="44.07214" lon="6.85833">
        <ele>816.1</ele>
        <time>2019-07-16T14:07:22Z</time>
      </trkpt>
      <trkpt lat="44.07216" lon="6.85832">
        <ele>815.7</ele>
        <time>2019-07-16T14:07:23Z</time>
      </trkpt>
      <trkpt lat="44.07219" lon="6.85831">
        <ele>815.5</ele>
        <time>2019-07-16T14:07:24Z</time>
      </trkpt>
      <trkpt lat="44.07224" lon="6.85833">
        <ele>815</ele>
        <time>2019-07-16T14:07:26Z</time>
      </trkpt>
      <trkpt lat="44.07229" lon="6.85834">
        <ele>814.4</ele>
        <time>2019-07-16T14:07:28Z</time>
      </trkpt>
      <trkpt lat="44.07232" lon="6.85836">
        <ele>814</ele>
        <time>2019-07-16T14:07:29Z</time>
      </trkpt>
      <trkpt lat="44.07237" lon="6.85839">
        <ele>813.5</ele>
        <time>2019-07-16T14:07:31Z</time>
      </trkpt>
      <trkpt lat="44.07243" lon="6.85842">
        <ele>812.8</ele>
        <time>2019-07-16T14:07:33Z</time>
      </trkpt>
      <trkpt lat="44.07246" lon="6.85844">
        <ele>812.4</ele>
        <time>2019-07-16T14:07:34Z</time>
      </trkpt>
      <trkpt lat="44.07251" lon="6.85844">
        <ele>811.8</ele>
        <time>2019-07-16T14:07:36Z</time>
      </trkpt>
      <trkpt lat="44.07253" lon="6.85844">
        <ele>811.5</ele>
        <time>2019-07-16T14:07:37Z</time>
      </trkpt>
      <trkpt lat="44.07257" lon="6.85844">
        <ele>811.1</ele>
        <time>2019-07-16T14:07:38Z</time>
      </trkpt>
      <trkpt lat="44.07259" lon="6.85844">
        <ele>810.7</ele>
        <time>2019-07-16T14:07:39Z</time>
      </trkpt>
      <trkpt lat="44.07265" lon="6.85842">
        <ele>810</ele>
        <time>2019-07-16T14:07:41Z</time>
      </trkpt>
      <trkpt lat="44.0727" lon="6.85841">
        <ele>809.2</ele>
        <time>2019-07-16T14:07:43Z</time>
      </trkpt>
      <trkpt lat="44.07273" lon="6.85841">
        <ele>808.8</ele>
        <time>2019-07-16T14:07:44Z</time>
      </trkpt>
      <trkpt lat="44.07277" lon="6.85841">
        <ele>808.3</ele>
        <time>2019-07-16T14:07:45Z</time>
      </trkpt>
      <trkpt lat="44.0728" lon="6.85841">
        <ele>807.9</ele>
        <time>2019-07-16T14:07:46Z</time>
      </trkpt>
      <trkpt lat="44.07284" lon="6.85841">
        <ele>807.5</ele>
        <time>2019-07-16T14:07:47Z</time>
      </trkpt>
      <trkpt lat="44.07288" lon="6.85842">
        <ele>807</ele>
        <time>2019-07-16T14:07:48Z</time>
      </trkpt>
      <trkpt lat="44.07292" lon="6.85843">
        <ele>806.6</ele>
        <time>2019-07-16T14:07:49Z</time>
      </trkpt>
      <trkpt lat="44.07296" lon="6.85844">
        <ele>806.2</ele>
        <time>2019-07-16T14:07:50Z</time>
      </trkpt>
      <trkpt lat="44.07299" lon="6.85844">
        <ele>805.9</ele>
        <time>2019-07-16T14:07:51Z</time>
      </trkpt>
      <trkpt lat="44.07303" lon="6.85843">
        <ele>805.5</ele>
        <time>2019-07-16T14:07:52Z</time>
      </trkpt>
      <trkpt lat="44.07306" lon="6.85842">
        <ele>805.2</ele>
        <time>2019-07-16T14:07:53Z</time>
      </trkpt>
      <trkpt lat="44.0731" lon="6.8584">
        <ele>804.8</ele>
        <time>2019-07-16T14:07:54Z</time>
      </trkpt>
      <trkpt lat="44.07314" lon="6.85838">
        <ele>804.4</ele>
        <time>2019-07-16T14:07:55Z</time>
      </trkpt>
      <trkpt lat="44.07319" lon="6.85838">
        <ele>803.9</ele>
        <time>2019-07-16T14:07:56Z</time>
      </trkpt>
      <trkpt lat="44.07324" lon="6.85836">
        <ele>803.3</ele>
        <time>2019-07-16T14:07:57Z</time>
      </trkpt>
      <trkpt lat="44.07328" lon="6.85836">
        <ele>802.7</ele>
        <time>2019-07-16T14:07:58Z</time>
      </trkpt>
      <trkpt lat="44.07333" lon="6.85835">
        <ele>802.2</ele>
        <time>2019-07-16T14:07:59Z</time>
      </trkpt>
      <trkpt lat="44.07338" lon="6.85836">
        <ele>801.6</ele>
        <time>2019-07-16T14:08:00Z</time>
      </trkpt>
      <trkpt lat="44.07343" lon="6.85837">
        <ele>801.1</ele>
        <time>2019-07-16T14:08:01Z</time>
      </trkpt>
      <trkpt lat="44.07348" lon="6.85839">
        <ele>800.5</ele>
        <time>2019-07-16T14:08:02Z</time>
      </trkpt>
      <trkpt lat="44.07354" lon="6.85841">
        <ele>799.9</ele>
        <time>2019-07-16T14:08:03Z</time>
      </trkpt>
      <trkpt lat="44.0736" lon="6.85842">
        <ele>799.3</ele>
        <time>2019-07-16T14:08:04Z</time>
      </trkpt>
      <trkpt lat="44.07365" lon="6.85844">
        <ele>798.7</ele>
        <time>2019-07-16T14:08:05Z</time>
      </trkpt>
      <trkpt lat="44.07372" lon="6.85846">
        <ele>798.2</ele>
        <time>2019-07-16T14:08:06Z</time>
      </trkpt>
      <trkpt lat="44.07377" lon="6.85848">
        <ele>797.6</ele>
        <time>2019-07-16T14:08:07Z</time>
      </trkpt>
      <trkpt lat="44.07381" lon="6.85851">
        <ele>797.2</ele>
        <time>2019-07-16T14:08:08Z</time>
      </trkpt>
      <trkpt lat="44.07384" lon="6.85853">
        <ele>797</ele>
        <time>2019-07-16T14:08:09Z</time>
      </trkpt>
      <trkpt lat="44.07386" lon="6.85857">
        <ele>796.7</ele>
        <time>2019-07-16T14:08:10Z</time>
      </trkpt>
      <trkpt lat="44.0739" lon="6.8586">
        <ele>796.3</ele>
        <time>2019-07-16T14:08:11Z</time>
      </trkpt>
      <trkpt lat="44.07394" lon="6.85863">
        <ele>795.9</ele>
        <time>2019-07-16T14:08:12Z</time>
      </trkpt>
      <trkpt lat="44.07398" lon="6.85865">
        <ele>795.6</ele>
        <time>2019-07-16T14:08:13Z</time>
      </trkpt>
      <trkpt lat="44.07402" lon="6.85868">
        <ele>795.2</ele>
        <time>2019-07-16T14:08:14Z</time>
      </trkpt>
      <trkpt lat="44.07406" lon="6.8587">
        <ele>794.7</ele>
        <time>2019-07-16T14:08:15Z</time>
      </trkpt>
      <trkpt lat="44.0741" lon="6.85872">
        <ele>794.4</ele>
        <time>2019-07-16T14:08:16Z</time>
      </trkpt>
      <trkpt lat="44.07413" lon="6.85872">
        <ele>794.1</ele>
        <time>2019-07-16T14:08:17Z</time>
      </trkpt>
      <trkpt lat="44.07415" lon="6.85871">
        <ele>793.9</ele>
        <time>2019-07-16T14:08:18Z</time>
      </trkpt>
      <trkpt lat="44.07419" lon="6.85871">
        <ele>793.6</ele>
        <time>2019-07-16T14:08:20Z</time>
      </trkpt>
      <trkpt lat="44.0742" lon="6.85876">
        <ele>793.3</ele>
        <time>2019-07-16T14:08:22Z</time>
      </trkpt>
      <trkpt lat="44.07422" lon="6.85879">
        <ele>793.1</ele>
        <time>2019-07-16T14:08:23Z</time>
      </trkpt>
      <trkpt lat="44.07426" lon="6.85882">
        <ele>792.8</ele>
        <time>2019-07-16T14:08:24Z</time>
      </trkpt>
      <trkpt lat="44.07429" lon="6.85885">
        <ele>792.4</ele>
        <time>2019-07-16T14:08:25Z</time>
      </trkpt>
      <trkpt lat="44.07433" lon="6.85888">
        <ele>792.1</ele>
        <time>2019-07-16T14:08:26Z</time>
      </trkpt>
      <trkpt lat="44.07438" lon="6.85888">
        <ele>791.8</ele>
        <time>2019-07-16T14:08:27Z</time>
      </trkpt>
      <trkpt lat="44.07442" lon="6.85883">
        <ele>791.3</ele>
        <time>2019-07-16T14:08:28Z</time>
      </trkpt>
      <trkpt lat="44.07446" lon="6.85877">
        <ele>790.8</ele>
        <time>2019-07-16T14:08:29Z</time>
      </trkpt>
      <trkpt lat="44.07449" lon="6.85872">
        <ele>790.3</ele>
        <time>2019-07-16T14:08:30Z</time>
      </trkpt>
      <trkpt lat="44.07452" lon="6.85872">
        <ele>790.1</ele>
        <time>2019-07-16T14:08:31Z</time>
      </trkpt>
      <trkpt lat="44.07456" lon="6.85875">
        <ele>789.6</ele>
        <time>2019-07-16T14:08:33Z</time>
      </trkpt>
      <trkpt lat="44.07459" lon="6.8588">
        <ele>789.1</ele>
        <time>2019-07-16T14:09:09Z</time>
      </trkpt>
      <trkpt lat="44.07464" lon="6.85883">
        <ele>788.5</ele>
        <time>2019-07-16T14:09:11Z</time>
      </trkpt>
      <trkpt lat="44.07465" lon="6.85878">
        <ele>788.2</ele>
        <time>2019-07-16T14:09:12Z</time>
      </trkpt>
      <trkpt lat="44.07467" lon="6.85872">
        <ele>787.7</ele>
        <time>2019-07-16T14:09:13Z</time>
      </trkpt>
      <trkpt lat="44.0747" lon="6.85868">
        <ele>787.3</ele>
        <time>2019-07-16T14:09:14Z</time>
      </trkpt>
      <trkpt lat="44.07473" lon="6.85866">
        <ele>787.1</ele>
        <time>2019-07-16T14:09:15Z</time>
      </trkpt>
      <trkpt lat="44.07476" lon="6.85866">
        <ele>786.8</ele>
        <time>2019-07-16T14:09:16Z</time>
      </trkpt>
      <trkpt lat="44.07481" lon="6.85866">
        <ele>786.4</ele>
        <time>2019-07-16T14:09:17Z</time>
      </trkpt>
      <trkpt lat="44.07485" lon="6.85865">
        <ele>786</ele>
        <time>2019-07-16T14:09:18Z</time>
      </trkpt>
      <trkpt lat="44.0749" lon="6.85865">
        <ele>785.6</ele>
        <time>2019-07-16T14:09:19Z</time>
      </trkpt>
      <trkpt lat="44.07495" lon="6.85864">
        <ele>785</ele>
        <time>2019-07-16T14:09:20Z</time>
      </trkpt>
      <trkpt lat="44.075" lon="6.85862">
        <ele>784.5</ele>
        <time>2019-07-16T14:09:21Z</time>
      </trkpt>
      <trkpt lat="44.07504" lon="6.8586">
        <ele>784.1</ele>
        <time>2019-07-16T14:09:22Z</time>
      </trkpt>
      <trkpt lat="44.07508" lon="6.85861">
        <ele>783.8</ele>
        <time>2019-07-16T14:09:23Z</time>
      </trkpt>
      <trkpt lat="44.07513" lon="6.85861">
        <ele>783.3</ele>
        <time>2019-07-16T14:09:25Z</time>
      </trkpt>
      <trkpt lat="44.07518" lon="6.85859">
        <ele>782.8</ele>
        <time>2019-07-16T14:09:27Z</time>
      </trkpt>
      <trkpt lat="44.07522" lon="6.85856">
        <ele>782.3</ele>
        <time>2019-07-16T14:09:28Z</time>
      </trkpt>
      <trkpt lat="44.07525" lon="6.85854">
        <ele>781.9</ele>
        <time>2019-07-16T14:09:29Z</time>
      </trkpt>
      <trkpt lat="44.07528" lon="6.85854">
        <ele>781.5</ele>
        <time>2019-07-16T14:09:30Z</time>
      </trkpt>
      <trkpt lat="44.07532" lon="6.8585">
        <ele>780.7</ele>
        <time>2019-07-16T14:09:32Z</time>
      </trkpt>
      <trkpt lat="44.07535" lon="6.85848">
        <ele>780.3</ele>
        <time>2019-07-16T14:09:33Z</time>
      </trkpt>
      <trkpt lat="44.07537" lon="6.85846">
        <ele>779.9</ele>
        <time>2019-07-16T14:09:34Z</time>
      </trkpt>
      <trkpt lat="44.07539" lon="6.85843">
        <ele>779.4</ele>
        <time>2019-07-16T14:09:35Z</time>
      </trkpt>
      <trkpt lat="44.07541" lon="6.8584">
        <ele>779</ele>
        <time>2019-07-16T14:09:36Z</time>
      </trkpt>
      <trkpt lat="44.07545" lon="6.85836">
        <ele>778.4</ele>
        <time>2019-07-16T14:09:38Z</time>
      </trkpt>
      <trkpt lat="44.07548" lon="6.85833">
        <ele>778</ele>
        <time>2019-07-16T14:09:40Z</time>
      </trkpt>
      <trkpt lat="44.07551" lon="6.85831">
        <ele>777.7</ele>
        <time>2019-07-16T14:09:42Z</time>
      </trkpt>
      <trkpt lat="44.07555" lon="6.85831">
        <ele>777.3</ele>
        <time>2019-07-16T14:09:44Z</time>
      </trkpt>
      <trkpt lat="44.07558" lon="6.8583">
        <ele>776.9</ele>
        <time>2019-07-16T14:09:46Z</time>
      </trkpt>
      <trkpt lat="44.07568" lon="6.85826">
        <ele>775.8</ele>
        <time>2019-07-16T14:11:16Z</time>
      </trkpt>
      <trkpt lat="44.07572" lon="6.85824">
        <ele>775.3</ele>
        <time>2019-07-16T14:11:18Z</time>
      </trkpt>
      <trkpt lat="44.07576" lon="6.85821">
        <ele>774.9</ele>
        <time>2019-07-16T14:11:20Z</time>
      </trkpt>
      <trkpt lat="44.0758" lon="6.85818">
        <ele>774.6</ele>
        <time>2019-07-16T14:11:22Z</time>
      </trkpt>
      <trkpt lat="44.07584" lon="6.85815">
        <ele>774.3</ele>
        <time>2019-07-16T14:11:24Z</time>
      </trkpt>
      <trkpt lat="44.07588" lon="6.85812">
        <ele>774</ele>
        <time>2019-07-16T14:11:26Z</time>
      </trkpt>
      <trkpt lat="44.07592" lon="6.8581">
        <ele>773.7</ele>
        <time>2019-07-16T14:11:28Z</time>
      </trkpt>
      <trkpt lat="44.07595" lon="6.8581">
        <ele>773</ele>
        <time>2019-07-16T14:11:29Z</time>
      </trkpt>
      <trkpt lat="44.07599" lon="6.8581">
        <ele>772.7</ele>
        <time>2019-07-16T14:11:30Z</time>
      </trkpt>
      <trkpt lat="44.07602" lon="6.85809">
        <ele>772.4</ele>
        <time>2019-07-16T14:11:31Z</time>
      </trkpt>
      <trkpt lat="44.07605" lon="6.85809">
        <ele>772.1</ele>
        <time>2019-07-16T14:11:32Z</time>
      </trkpt>
      <trkpt lat="44.07609" lon="6.85807">
        <ele>771.7</ele>
        <time>2019-07-16T14:11:33Z</time>
      </trkpt>
      <trkpt lat="44.07612" lon="6.85805">
        <ele>771.4</ele>
        <time>2019-07-16T14:11:34Z</time>
      </trkpt>
      <trkpt lat="44.07617" lon="6.85805">
        <ele>771.1</ele>
        <time>2019-07-16T14:11:35Z</time>
      </trkpt>
      <trkpt lat="44.07622" lon="6.85804">
        <ele>770.7</ele>
        <time>2019-07-16T14:11:36Z</time>
      </trkpt>
      <trkpt lat="44.07626" lon="6.85803">
        <ele>770.2</ele>
        <time>2019-07-16T14:11:37Z</time>
      </trkpt>
      <trkpt lat="44.07631" lon="6.85802">
        <ele>769.7</ele>
        <time>2019-07-16T14:11:38Z</time>
      </trkpt>
      <trkpt lat="44.07636" lon="6.858">
        <ele>769.2</ele>
        <time>2019-07-16T14:11:39Z</time>
      </trkpt>
      <trkpt lat="44.07642" lon="6.85798">
        <ele>768.7</ele>
        <time>2019-07-16T14:11:40Z</time>
      </trkpt>
      <trkpt lat="44.07647" lon="6.85796">
        <ele>768.3</ele>
        <time>2019-07-16T14:11:41Z</time>
      </trkpt>
      <trkpt lat="44.07652" lon="6.85794">
        <ele>767.8</ele>
        <time>2019-07-16T14:11:42Z</time>
      </trkpt>
      <trkpt lat="44.07657" lon="6.85792">
        <ele>767.3</ele>
        <time>2019-07-16T14:11:43Z</time>
      </trkpt>
      <trkpt lat="44.07662" lon="6.8579">
        <ele>766.8</ele>
        <time>2019-07-16T14:11:44Z</time>
      </trkpt>
      <trkpt lat="44.07668" lon="6.85788">
        <ele>766.1</ele>
        <time>2019-07-16T14:11:45Z</time>
      </trkpt>
      <trkpt lat="44.07674" lon="6.85785">
        <ele>765.6</ele>
        <time>2019-07-16T14:11:46Z</time>
      </trkpt>
      <trkpt lat="44.07679" lon="6.85782">
        <ele>765.1</ele>
        <time>2019-07-16T14:11:47Z</time>
      </trkpt>
      <trkpt lat="44.07685" lon="6.8578">
        <ele>764.4</ele>
        <time>2019-07-16T14:11:48Z</time>
      </trkpt>
      <trkpt lat="44.07691" lon="6.85778">
        <ele>764.2</ele>
        <time>2019-07-16T14:11:49Z</time>
      </trkpt>
      <trkpt lat="44.07697" lon="6.85776">
        <ele>764</ele>
        <time>2019-07-16T14:11:50Z</time>
      </trkpt>
      <trkpt lat="44.07702" lon="6.85774">
        <ele>763.7</ele>
        <time>2019-07-16T14:11:51Z</time>
      </trkpt>
      <trkpt lat="44.07709" lon="6.85773">
        <ele>763.5</ele>
        <time>2019-07-16T14:11:52Z</time>
      </trkpt>
      <trkpt lat="44.07716" lon="6.85772">
        <ele>763.2</ele>
        <time>2019-07-16T14:11:53Z</time>
      </trkpt>
      <trkpt lat="44.07722" lon="6.8577">
        <ele>762.9</ele>
        <time>2019-07-16T14:11:54Z</time>
      </trkpt>
      <trkpt lat="44.07729" lon="6.85767">
        <ele>762.6</ele>
        <time>2019-07-16T14:11:55Z</time>
      </trkpt>
      <trkpt lat="44.07736" lon="6.85765">
        <ele>762.4</ele>
        <time>2019-07-16T14:11:56Z</time>
      </trkpt>
      <trkpt lat="44.07742" lon="6.85761">
        <ele>762.1</ele>
        <time>2019-07-16T14:11:57Z</time>
      </trkpt>
      <trkpt lat="44.07748" lon="6.85759">
        <ele>761.8</ele>
        <time>2019-07-16T14:11:58Z</time>
      </trkpt>
      <trkpt lat="44.07754" lon="6.85756">
        <ele>761.6</ele>
        <time>2019-07-16T14:11:59Z</time>
      </trkpt>
      <trkpt lat="44.07761" lon="6.85753">
        <ele>761.4</ele>
        <time>2019-07-16T14:12:00Z</time>
      </trkpt>
      <trkpt lat="44.07767" lon="6.85751">
        <ele>761.1</ele>
        <time>2019-07-16T14:12:01Z</time>
      </trkpt>
      <trkpt lat="44.07773" lon="6.85748">
        <ele>761</ele>
        <time>2019-07-16T14:12:02Z</time>
      </trkpt>
      <trkpt lat="44.07779" lon="6.85745">
        <ele>760.8</ele>
        <time>2019-07-16T14:12:03Z</time>
      </trkpt>
      <trkpt lat="44.07784" lon="6.85743">
        <ele>760.6</ele>
        <time>2019-07-16T14:12:04Z</time>
      </trkpt>
      <trkpt lat="44.07789" lon="6.85741">
        <ele>760.5</ele>
        <time>2019-07-16T14:12:05Z</time>
      </trkpt>
      <trkpt lat="44.07794" lon="6.85739">
        <ele>760.4</ele>
        <time>2019-07-16T14:12:06Z</time>
      </trkpt>
      <trkpt lat="44.07799" lon="6.85737">
        <ele>760.3</ele>
        <time>2019-07-16T14:12:07Z</time>
      </trkpt>
      <trkpt lat="44.07803" lon="6.85735">
        <ele>760.2</ele>
        <time>2019-07-16T14:12:08Z</time>
      </trkpt>
      <trkpt lat="44.07808" lon="6.85734">
        <ele>760.1</ele>
        <time>2019-07-16T14:12:09Z</time>
      </trkpt>
      <trkpt lat="44.07813" lon="6.85732">
        <ele>760.1</ele>
        <time>2019-07-16T14:12:10Z</time>
      </trkpt>
      <trkpt lat="44.07817" lon="6.8573">
        <ele>760</ele>
        <time>2019-07-16T14:12:11Z</time>
      </trkpt>
      <trkpt lat="44.0782" lon="6.85729">
        <ele>760</ele>
        <time>2019-07-16T14:12:12Z</time>
      </trkpt>
      <trkpt lat="44.07824" lon="6.85728">
        <ele>760</ele>
        <time>2019-07-16T14:12:13Z</time>
      </trkpt>
      <trkpt lat="44.07827" lon="6.85727">
        <ele>759.9</ele>
        <time>2019-07-16T14:12:14Z</time>
      </trkpt>
      <trkpt lat="44.07831" lon="6.85726">
        <ele>759.9</ele>
        <time>2019-07-16T14:12:15Z</time>
      </trkpt>
      <trkpt lat="44.07834" lon="6.85725">
        <ele>759.9</ele>
        <time>2019-07-16T14:12:16Z</time>
      </trkpt>
      <trkpt lat="44.07836" lon="6.85725">
        <ele>759.9</ele>
        <time>2019-07-16T14:12:17Z</time>
      </trkpt>
      <trkpt lat="44.07839" lon="6.85723">
        <ele>759.9</ele>
        <time>2019-07-16T14:12:18Z</time>
      </trkpt>
      <trkpt lat="44.07845" lon="6.85723">
        <ele>759.9</ele>
        <time>2019-07-16T14:12:20Z</time>
      </trkpt>
      <trkpt lat="44.07848" lon="6.85722">
        <ele>759.9</ele>
        <time>2019-07-16T14:12:21Z</time>
      </trkpt>
      <trkpt lat="44.07852" lon="6.85722">
        <ele>759.9</ele>
        <time>2019-07-16T14:12:22Z</time>
      </trkpt>
      <trkpt lat="44.07855" lon="6.85721">
        <ele>759.9</ele>
        <time>2019-07-16T14:12:23Z</time>
      </trkpt>
      <trkpt lat="44.07859" lon="6.8572">
        <ele>759.9</ele>
        <time>2019-07-16T14:12:24Z</time>
      </trkpt>
      <trkpt lat="44.07862" lon="6.85719">
        <ele>759.9</ele>
        <time>2019-07-16T14:12:25Z</time>
      </trkpt>
      <trkpt lat="44.07866" lon="6.85717">
        <ele>759.9</ele>
        <time>2019-07-16T14:12:26Z</time>
      </trkpt>
      <trkpt lat="44.0787" lon="6.85716">
        <ele>760</ele>
        <time>2019-07-16T14:12:27Z</time>
      </trkpt>
      <trkpt lat="44.07874" lon="6.85714">
        <ele>760</ele>
        <time>2019-07-16T14:12:28Z</time>
      </trkpt>
      <trkpt lat="44.07878" lon="6.85713">
        <ele>760.1</ele>
        <time>2019-07-16T14:12:29Z</time>
      </trkpt>
      <trkpt lat="44.07883" lon="6.85712">
        <ele>760.2</ele>
        <time>2019-07-16T14:12:30Z</time>
      </trkpt>
      <trkpt lat="44.07887" lon="6.8571">
        <ele>760.2</ele>
        <time>2019-07-16T14:12:31Z</time>
      </trkpt>
      <trkpt lat="44.07891" lon="6.85708">
        <ele>760.4</ele>
        <time>2019-07-16T14:12:32Z</time>
      </trkpt>
      <trkpt lat="44.07895" lon="6.85707">
        <ele>760.5</ele>
        <time>2019-07-16T14:12:33Z</time>
      </trkpt>
      <trkpt lat="44.07899" lon="6.85705">
        <ele>760.6</ele>
        <time>2019-07-16T14:12:34Z</time>
      </trkpt>
      <trkpt lat="44.07903" lon="6.85704">
        <ele>760.7</ele>
        <time>2019-07-16T14:12:35Z</time>
      </trkpt>
      <trkpt lat="44.07906" lon="6.85702">
        <ele>760.9</ele>
        <time>2019-07-16T14:12:36Z</time>
      </trkpt>
      <trkpt lat="44.0791" lon="6.85701">
        <ele>761</ele>
        <time>2019-07-16T14:12:37Z</time>
      </trkpt>
      <trkpt lat="44.07913" lon="6.85699">
        <ele>761.1</ele>
        <time>2019-07-16T14:12:38Z</time>
      </trkpt>
      <trkpt lat="44.07916" lon="6.85698">
        <ele>761.2</ele>
        <time>2019-07-16T14:12:39Z</time>
      </trkpt>
      <trkpt lat="44.0792" lon="6.85697">
        <ele>761.3</ele>
        <time>2019-07-16T14:12:40Z</time>
      </trkpt>
      <trkpt lat="44.07923" lon="6.85695">
        <ele>761.4</ele>
        <time>2019-07-16T14:12:41Z</time>
      </trkpt>
      <trkpt lat="44.07927" lon="6.85693">
        <ele>761.6</ele>
        <time>2019-07-16T14:12:42Z</time>
      </trkpt>
      <trkpt lat="44.0793" lon="6.85692">
        <ele>761.7</ele>
        <time>2019-07-16T14:12:43Z</time>
      </trkpt>
      <trkpt lat="44.07933" lon="6.8569">
        <ele>761.8</ele>
        <time>2019-07-16T14:12:44Z</time>
      </trkpt>
      <trkpt lat="44.07936" lon="6.85688">
        <ele>762.2</ele>
        <time>2019-07-16T14:12:45Z</time>
      </trkpt>
      <trkpt lat="44.07939" lon="6.85687">
        <ele>762.3</ele>
        <time>2019-07-16T14:12:46Z</time>
      </trkpt>
      <trkpt lat="44.07942" lon="6.85686">
        <ele>762.3</ele>
        <time>2019-07-16T14:12:47Z</time>
      </trkpt>
      <trkpt lat="44.07945" lon="6.85685">
        <ele>762.4</ele>
        <time>2019-07-16T14:12:48Z</time>
      </trkpt>
      <trkpt lat="44.0795" lon="6.85683">
        <ele>762.4</ele>
        <time>2019-07-16T14:12:50Z</time>
      </trkpt>
      <trkpt lat="44.07953" lon="6.85682">
        <ele>762.4</ele>
        <time>2019-07-16T14:12:51Z</time>
      </trkpt>
      <trkpt lat="44.07956" lon="6.8568">
        <ele>762.3</ele>
        <time>2019-07-16T14:12:52Z</time>
      </trkpt>
      <trkpt lat="44.07958" lon="6.85679">
        <ele>762.3</ele>
        <time>2019-07-16T14:12:53Z</time>
      </trkpt>
      <trkpt lat="44.07961" lon="6.85678">
        <ele>762.3</ele>
        <time>2019-07-16T14:12:54Z</time>
      </trkpt>
      <trkpt lat="44.07964" lon="6.85676">
        <ele>762.4</ele>
        <time>2019-07-16T14:12:55Z</time>
      </trkpt>
      <trkpt lat="44.07967" lon="6.85674">
        <ele>762.5</ele>
        <time>2019-07-16T14:12:56Z</time>
      </trkpt>
      <trkpt lat="44.07969" lon="6.85673">
        <ele>762.5</ele>
        <time>2019-07-16T14:12:57Z</time>
      </trkpt>
      <trkpt lat="44.07972" lon="6.85673">
        <ele>762.6</ele>
        <time>2019-07-16T14:12:58Z</time>
      </trkpt>
      <trkpt lat="44.07976" lon="6.85675">
        <ele>762.7</ele>
        <time>2019-07-16T14:13:00Z</time>
      </trkpt>
      <trkpt lat="44.07982" lon="6.85676">
        <ele>762.8</ele>
        <time>2019-07-16T14:13:02Z</time>
      </trkpt>
      <trkpt lat="44.07985" lon="6.85675">
        <ele>762.8</ele>
        <time>2019-07-16T14:13:03Z</time>
      </trkpt>
      <trkpt lat="44.07988" lon="6.85674">
        <ele>762.9</ele>
        <time>2019-07-16T14:13:04Z</time>
      </trkpt>
      <trkpt lat="44.07992" lon="6.85673">
        <ele>762.9</ele>
        <time>2019-07-16T14:13:05Z</time>
      </trkpt>
      <trkpt lat="44.07996" lon="6.85672">
        <ele>762.9</ele>
        <time>2019-07-16T14:13:06Z</time>
      </trkpt>
      <trkpt lat="44.07999" lon="6.8567">
        <ele>762.9</ele>
        <time>2019-07-16T14:13:07Z</time>
      </trkpt>
      <trkpt lat="44.08003" lon="6.85668">
        <ele>762.8</ele>
        <time>2019-07-16T14:13:08Z</time>
      </trkpt>
      <trkpt lat="44.08007" lon="6.85666">
        <ele>762.8</ele>
        <time>2019-07-16T14:13:09Z</time>
      </trkpt>
      <trkpt lat="44.08011" lon="6.85664">
        <ele>762.7</ele>
        <time>2019-07-16T14:13:10Z</time>
      </trkpt>
      <trkpt lat="44.08015" lon="6.85663">
        <ele>762.7</ele>
        <time>2019-07-16T14:13:11Z</time>
      </trkpt>
      <trkpt lat="44.08018" lon="6.85662">
        <ele>762.7</ele>
        <time>2019-07-16T14:13:12Z</time>
      </trkpt>
      <trkpt lat="44.08022" lon="6.8566">
        <ele>762.8</ele>
        <time>2019-07-16T14:13:13Z</time>
      </trkpt>
      <trkpt lat="44.08025" lon="6.85659">
        <ele>762.7</ele>
        <time>2019-07-16T14:13:14Z</time>
      </trkpt>
      <trkpt lat="44.08028" lon="6.85658">
        <ele>762.7</ele>
        <time>2019-07-16T14:13:15Z</time>
      </trkpt>
      <trkpt lat="44.08032" lon="6.85656">
        <ele>762.7</ele>
        <time>2019-07-16T14:13:16Z</time>
      </trkpt>
      <trkpt lat="44.08035" lon="6.85655">
        <ele>762.7</ele>
        <time>2019-07-16T14:13:17Z</time>
      </trkpt>
      <trkpt lat="44.08038" lon="6.85654">
        <ele>762.7</ele>
        <time>2019-07-16T14:13:18Z</time>
      </trkpt>
      <trkpt lat="44.08042" lon="6.85653">
        <ele>762.6</ele>
        <time>2019-07-16T14:13:19Z</time>
      </trkpt>
      <trkpt lat="44.08045" lon="6.85651">
        <ele>762.6</ele>
        <time>2019-07-16T14:13:20Z</time>
      </trkpt>
      <trkpt lat="44.08049" lon="6.85649">
        <ele>762.6</ele>
        <time>2019-07-16T14:13:21Z</time>
      </trkpt>
      <trkpt lat="44.08052" lon="6.85648">
        <ele>762.6</ele>
        <time>2019-07-16T14:13:22Z</time>
      </trkpt>
      <trkpt lat="44.08056" lon="6.85647">
        <ele>762.7</ele>
        <time>2019-07-16T14:13:23Z</time>
      </trkpt>
      <trkpt lat="44.0806" lon="6.85646">
        <ele>762.7</ele>
        <time>2019-07-16T14:13:24Z</time>
      </trkpt>
      <trkpt lat="44.08063" lon="6.85645">
        <ele>762.7</ele>
        <time>2019-07-16T14:13:25Z</time>
      </trkpt>
      <trkpt lat="44.08067" lon="6.85644">
        <ele>762.7</ele>
        <time>2019-07-16T14:13:26Z</time>
      </trkpt>
      <trkpt lat="44.08071" lon="6.85642">
        <ele>762.7</ele>
        <time>2019-07-16T14:13:27Z</time>
      </trkpt>
      <trkpt lat="44.08074" lon="6.85641">
        <ele>762.8</ele>
        <time>2019-07-16T14:13:28Z</time>
      </trkpt>
      <trkpt lat="44.08078" lon="6.85639">
        <ele>762.8</ele>
        <time>2019-07-16T14:13:29Z</time>
      </trkpt>
      <trkpt lat="44.08081" lon="6.85638">
        <ele>762.8</ele>
        <time>2019-07-16T14:13:30Z</time>
      </trkpt>
      <trkpt lat="44.08084" lon="6.85637">
        <ele>762.9</ele>
        <time>2019-07-16T14:13:31Z</time>
      </trkpt>
      <trkpt lat="44.08088" lon="6.85635">
        <ele>762.9</ele>
        <time>2019-07-16T14:13:32Z</time>
      </trkpt>
      <trkpt lat="44.08091" lon="6.85634">
        <ele>763</ele>
        <time>2019-07-16T14:13:33Z</time>
      </trkpt>
      <trkpt lat="44.08093" lon="6.85633">
        <ele>763</ele>
        <time>2019-07-16T14:13:34Z</time>
      </trkpt>
      <trkpt lat="44.08097" lon="6.85632">
        <ele>763.1</ele>
        <time>2019-07-16T14:13:35Z</time>
      </trkpt>
      <trkpt lat="44.081" lon="6.85631">
        <ele>763.2</ele>
        <time>2019-07-16T14:13:36Z</time>
      </trkpt>
      <trkpt lat="44.08104" lon="6.85629">
        <ele>763.3</ele>
        <time>2019-07-16T14:13:37Z</time>
      </trkpt>
      <trkpt lat="44.08106" lon="6.85628">
        <ele>763.3</ele>
        <time>2019-07-16T14:13:38Z</time>
      </trkpt>
      <trkpt lat="44.08109" lon="6.85627">
        <ele>763.4</ele>
        <time>2019-07-16T14:13:39Z</time>
      </trkpt>
      <trkpt lat="44.08112" lon="6.85626">
        <ele>763.4</ele>
        <time>2019-07-16T14:13:40Z</time>
      </trkpt>
      <trkpt lat="44.08116" lon="6.85624">
        <ele>763.5</ele>
        <time>2019-07-16T14:13:41Z</time>
      </trkpt>
      <trkpt lat="44.08119" lon="6.85623">
        <ele>763.5</ele>
        <time>2019-07-16T14:13:42Z</time>
      </trkpt>
      <trkpt lat="44.08122" lon="6.85622">
        <ele>763.6</ele>
        <time>2019-07-16T14:13:43Z</time>
      </trkpt>
      <trkpt lat="44.08125" lon="6.8562">
        <ele>763.6</ele>
        <time>2019-07-16T14:13:44Z</time>
      </trkpt>
      <trkpt lat="44.08128" lon="6.85619">
        <ele>763.6</ele>
        <time>2019-07-16T14:13:45Z</time>
      </trkpt>
      <trkpt lat="44.08131" lon="6.85617">
        <ele>763.7</ele>
        <time>2019-07-16T14:13:46Z</time>
      </trkpt>
      <trkpt lat="44.08133" lon="6.85615">
        <ele>763.7</ele>
        <time>2019-07-16T14:13:47Z</time>
      </trkpt>
      <trkpt lat="44.08136" lon="6.85613">
        <ele>763.8</ele>
        <time>2019-07-16T14:13:48Z</time>
      </trkpt>
      <trkpt lat="44.08139" lon="6.85612">
        <ele>763.9</ele>
        <time>2019-07-16T14:13:49Z</time>
      </trkpt>
      <trkpt lat="44.08142" lon="6.85611">
        <ele>764</ele>
        <time>2019-07-16T14:13:50Z</time>
      </trkpt>
      <trkpt lat="44.08146" lon="6.8561">
        <ele>764.1</ele>
        <time>2019-07-16T14:13:51Z</time>
      </trkpt>
      <trkpt lat="44.08149" lon="6.85608">
        <ele>764.2</ele>
        <time>2019-07-16T14:13:52Z</time>
      </trkpt>
      <trkpt lat="44.08153" lon="6.85607">
        <ele>764.3</ele>
        <time>2019-07-16T14:13:53Z</time>
      </trkpt>
      <trkpt lat="44.08157" lon="6.85606">
        <ele>764.4</ele>
        <time>2019-07-16T14:13:54Z</time>
      </trkpt>
      <trkpt lat="44.0816" lon="6.85605">
        <ele>764.5</ele>
        <time>2019-07-16T14:13:55Z</time>
      </trkpt>
      <trkpt lat="44.08163" lon="6.85603">
        <ele>764.5</ele>
        <time>2019-07-16T14:13:56Z</time>
      </trkpt>
      <trkpt lat="44.08167" lon="6.85602">
        <ele>764.6</ele>
        <time>2019-07-16T14:13:57Z</time>
      </trkpt>
      <trkpt lat="44.08171" lon="6.85601">
        <ele>764.8</ele>
        <time>2019-07-16T14:13:58Z</time>
      </trkpt>
      <trkpt lat="44.08175" lon="6.856">
        <ele>764.9</ele>
        <time>2019-07-16T14:13:59Z</time>
      </trkpt>
      <trkpt lat="44.08178" lon="6.85599">
        <ele>765.1</ele>
        <time>2019-07-16T14:14:00Z</time>
      </trkpt>
      <trkpt lat="44.08182" lon="6.85597">
        <ele>765.2</ele>
        <time>2019-07-16T14:14:01Z</time>
      </trkpt>
      <trkpt lat="44.08186" lon="6.85596">
        <ele>765.3</ele>
        <time>2019-07-16T14:14:02Z</time>
      </trkpt>
      <trkpt lat="44.0819" lon="6.85595">
        <ele>765.5</ele>
        <time>2019-07-16T14:14:03Z</time>
      </trkpt>
      <trkpt lat="44.08193" lon="6.85594">
        <ele>765.7</ele>
        <time>2019-07-16T14:14:04Z</time>
      </trkpt>
      <trkpt lat="44.08197" lon="6.85592">
        <ele>765.9</ele>
        <time>2019-07-16T14:14:05Z</time>
      </trkpt>
      <trkpt lat="44.082" lon="6.8559">
        <ele>766</ele>
        <time>2019-07-16T14:14:06Z</time>
      </trkpt>
      <trkpt lat="44.08204" lon="6.85589">
        <ele>766.2</ele>
        <time>2019-07-16T14:14:07Z</time>
      </trkpt>
      <trkpt lat="44.08207" lon="6.85588">
        <ele>766.3</ele>
        <time>2019-07-16T14:14:08Z</time>
      </trkpt>
      <trkpt lat="44.0821" lon="6.85587">
        <ele>766.5</ele>
        <time>2019-07-16T14:14:09Z</time>
      </trkpt>
      <trkpt lat="44.08214" lon="6.85585">
        <ele>766.7</ele>
        <time>2019-07-16T14:14:10Z</time>
      </trkpt>
      <trkpt lat="44.08217" lon="6.85584">
        <ele>766.9</ele>
        <time>2019-07-16T14:14:11Z</time>
      </trkpt>
      <trkpt lat="44.0822" lon="6.85582">
        <ele>767.2</ele>
        <time>2019-07-16T14:14:12Z</time>
      </trkpt>
      <trkpt lat="44.08224" lon="6.85581">
        <ele>767.4</ele>
        <time>2019-07-16T14:14:13Z</time>
      </trkpt>
      <trkpt lat="44.08227" lon="6.85579">
        <ele>767.6</ele>
        <time>2019-07-16T14:14:14Z</time>
      </trkpt>
      <trkpt lat="44.08231" lon="6.85578">
        <ele>767.9</ele>
        <time>2019-07-16T14:14:15Z</time>
      </trkpt>
      <trkpt lat="44.08235" lon="6.85577">
        <ele>768.1</ele>
        <time>2019-07-16T14:14:16Z</time>
      </trkpt>
      <trkpt lat="44.08238" lon="6.85575">
        <ele>768.2</ele>
        <time>2019-07-16T14:14:17Z</time>
      </trkpt>
      <trkpt lat="44.08241" lon="6.85573">
        <ele>768.2</ele>
        <time>2019-07-16T14:14:18Z</time>
      </trkpt>
      <trkpt lat="44.08244" lon="6.85571">
        <ele>768.2</ele>
        <time>2019-07-16T14:14:19Z</time>
      </trkpt>
      <trkpt lat="44.08247" lon="6.8557">
        <ele>768.4</ele>
        <time>2019-07-16T14:14:20Z</time>
      </trkpt>
      <trkpt lat="44.08252" lon="6.85568">
        <ele>768.6</ele>
        <time>2019-07-16T14:14:22Z</time>
      </trkpt>
      <trkpt lat="44.08256" lon="6.85568">
        <ele>768.8</ele>
        <time>2019-07-16T14:14:23Z</time>
      </trkpt>
      <trkpt lat="44.08259" lon="6.85566">
        <ele>768.9</ele>
        <time>2019-07-16T14:14:24Z</time>
      </trkpt>
      <trkpt lat="44.08263" lon="6.85566">
        <ele>769</ele>
        <time>2019-07-16T14:14:25Z</time>
      </trkpt>
      <trkpt lat="44.08267" lon="6.85565">
        <ele>769.1</ele>
        <time>2019-07-16T14:14:26Z</time>
      </trkpt>
      <trkpt lat="44.0827" lon="6.85564">
        <ele>769.1</ele>
        <time>2019-07-16T14:14:27Z</time>
      </trkpt>
      <trkpt lat="44.08274" lon="6.85562">
        <ele>769.2</ele>
        <time>2019-07-16T14:14:28Z</time>
      </trkpt>
      <trkpt lat="44.08278" lon="6.8556">
        <ele>769.2</ele>
        <time>2019-07-16T14:14:29Z</time>
      </trkpt>
      <trkpt lat="44.08281" lon="6.85559">
        <ele>769.2</ele>
        <time>2019-07-16T14:14:30Z</time>
      </trkpt>
      <trkpt lat="44.08284" lon="6.85558">
        <ele>769.1</ele>
        <time>2019-07-16T14:14:31Z</time>
      </trkpt>
      <trkpt lat="44.08287" lon="6.85556">
        <ele>769.1</ele>
        <time>2019-07-16T14:14:32Z</time>
      </trkpt>
      <trkpt lat="44.08291" lon="6.85555">
        <ele>769.1</ele>
        <time>2019-07-16T14:14:33Z</time>
      </trkpt>
      <trkpt lat="44.08295" lon="6.85554">
        <ele>769.2</ele>
        <time>2019-07-16T14:14:34Z</time>
      </trkpt>
      <trkpt lat="44.08298" lon="6.85552">
        <ele>769.2</ele>
        <time>2019-07-16T14:14:35Z</time>
      </trkpt>
      <trkpt lat="44.08302" lon="6.85551">
        <ele>769.1</ele>
        <time>2019-07-16T14:14:36Z</time>
      </trkpt>
      <trkpt lat="44.08305" lon="6.8555">
        <ele>769.1</ele>
        <time>2019-07-16T14:14:37Z</time>
      </trkpt>
      <trkpt lat="44.08309" lon="6.85548">
        <ele>769.1</ele>
        <time>2019-07-16T14:14:38Z</time>
      </trkpt>
      <trkpt lat="44.08312" lon="6.85548">
        <ele>769.1</ele>
        <time>2019-07-16T14:14:39Z</time>
      </trkpt>
      <trkpt lat="44.08316" lon="6.85547">
        <ele>769.1</ele>
        <time>2019-07-16T14:14:40Z</time>
      </trkpt>
      <trkpt lat="44.08319" lon="6.85546">
        <ele>769.1</ele>
        <time>2019-07-16T14:14:41Z</time>
      </trkpt>
      <trkpt lat="44.08322" lon="6.85546">
        <ele>769.1</ele>
        <time>2019-07-16T14:14:42Z</time>
      </trkpt>
      <trkpt lat="44.08325" lon="6.85544">
        <ele>769.1</ele>
        <time>2019-07-16T14:14:43Z</time>
      </trkpt>
      <trkpt lat="44.08328" lon="6.85543">
        <ele>769.2</ele>
        <time>2019-07-16T14:14:44Z</time>
      </trkpt>
      <trkpt lat="44.08331" lon="6.85542">
        <ele>769.2</ele>
        <time>2019-07-16T14:14:45Z</time>
      </trkpt>
      <trkpt lat="44.08334" lon="6.85541">
        <ele>769.2</ele>
        <time>2019-07-16T14:14:46Z</time>
      </trkpt>
      <trkpt lat="44.08337" lon="6.8554">
        <ele>769.2</ele>
        <time>2019-07-16T14:14:47Z</time>
      </trkpt>
      <trkpt lat="44.0834" lon="6.85539">
        <ele>769.2</ele>
        <time>2019-07-16T14:14:48Z</time>
      </trkpt>
      <trkpt lat="44.08343" lon="6.85538">
        <ele>769.3</ele>
        <time>2019-07-16T14:14:49Z</time>
      </trkpt>
      <trkpt lat="44.08345" lon="6.85537">
        <ele>769.3</ele>
        <time>2019-07-16T14:14:50Z</time>
      </trkpt>
      <trkpt lat="44.08349" lon="6.85537">
        <ele>769.4</ele>
        <time>2019-07-16T14:14:51Z</time>
      </trkpt>
      <trkpt lat="44.08352" lon="6.85536">
        <ele>769.4</ele>
        <time>2019-07-16T14:14:52Z</time>
      </trkpt>
      <trkpt lat="44.08355" lon="6.85535">
        <ele>769.4</ele>
        <time>2019-07-16T14:14:53Z</time>
      </trkpt>
      <trkpt lat="44.08358" lon="6.85533">
        <ele>769.5</ele>
        <time>2019-07-16T14:14:54Z</time>
      </trkpt>
      <trkpt lat="44.08361" lon="6.85531">
        <ele>769.6</ele>
        <time>2019-07-16T14:14:55Z</time>
      </trkpt>
      <trkpt lat="44.08364" lon="6.8553">
        <ele>769.6</ele>
        <time>2019-07-16T14:14:56Z</time>
      </trkpt>
      <trkpt lat="44.08367" lon="6.85528">
        <ele>769.6</ele>
        <time>2019-07-16T14:14:57Z</time>
      </trkpt>
      <trkpt lat="44.08371" lon="6.85526">
        <ele>769.7</ele>
        <time>2019-07-16T14:14:58Z</time>
      </trkpt>
      <trkpt lat="44.08374" lon="6.85524">
        <ele>769.7</ele>
        <time>2019-07-16T14:14:59Z</time>
      </trkpt>
      <trkpt lat="44.08377" lon="6.85522">
        <ele>769.6</ele>
        <time>2019-07-16T14:15:00Z</time>
      </trkpt>
      <trkpt lat="44.0838" lon="6.8552">
        <ele>769.6</ele>
        <time>2019-07-16T14:15:01Z</time>
      </trkpt>
      <trkpt lat="44.08383" lon="6.85519">
        <ele>769.5</ele>
        <time>2019-07-16T14:15:02Z</time>
      </trkpt>
      <trkpt lat="44.08386" lon="6.85517">
        <ele>769.5</ele>
        <time>2019-07-16T14:15:03Z</time>
      </trkpt>
      <trkpt lat="44.0839" lon="6.85515">
        <ele>769.4</ele>
        <time>2019-07-16T14:15:04Z</time>
      </trkpt>
      <trkpt lat="44.08393" lon="6.85514">
        <ele>769.4</ele>
        <time>2019-07-16T14:15:05Z</time>
      </trkpt>
      <trkpt lat="44.08397" lon="6.85512">
        <ele>769.3</ele>
        <time>2019-07-16T14:15:06Z</time>
      </trkpt>
      <trkpt lat="44.084" lon="6.85511">
        <ele>769.4</ele>
        <time>2019-07-16T14:15:07Z</time>
      </trkpt>
      <trkpt lat="44.08403" lon="6.85509">
        <ele>769.4</ele>
        <time>2019-07-16T14:15:08Z</time>
      </trkpt>
      <trkpt lat="44.08406" lon="6.85508">
        <ele>769.5</ele>
        <time>2019-07-16T14:15:09Z</time>
      </trkpt>
      <trkpt lat="44.0841" lon="6.85507">
        <ele>769.7</ele>
        <time>2019-07-16T14:15:10Z</time>
      </trkpt>
      <trkpt lat="44.08414" lon="6.85505">
        <ele>770</ele>
        <time>2019-07-16T14:15:11Z</time>
      </trkpt>
      <trkpt lat="44.08417" lon="6.85504">
        <ele>770.1</ele>
        <time>2019-07-16T14:15:12Z</time>
      </trkpt>
      <trkpt lat="44.08421" lon="6.85503">
        <ele>770.3</ele>
        <time>2019-07-16T14:15:13Z</time>
      </trkpt>
      <trkpt lat="44.08424" lon="6.85501">
        <ele>770.4</ele>
        <time>2019-07-16T14:15:14Z</time>
      </trkpt>
      <trkpt lat="44.08428" lon="6.855">
        <ele>770.6</ele>
        <time>2019-07-16T14:15:15Z</time>
      </trkpt>
      <trkpt lat="44.08431" lon="6.85498">
        <ele>770.7</ele>
        <time>2019-07-16T14:15:16Z</time>
      </trkpt>
      <trkpt lat="44.08433" lon="6.85496">
        <ele>770.7</ele>
        <time>2019-07-16T14:15:17Z</time>
      </trkpt>
      <trkpt lat="44.08437" lon="6.85495">
        <ele>770.6</ele>
        <time>2019-07-16T14:15:18Z</time>
      </trkpt>
      <trkpt lat="44.0844" lon="6.85494">
        <ele>770.5</ele>
        <time>2019-07-16T14:15:19Z</time>
      </trkpt>
      <trkpt lat="44.08444" lon="6.85492">
        <ele>770.6</ele>
        <time>2019-07-16T14:15:20Z</time>
      </trkpt>
      <trkpt lat="44.08447" lon="6.85491">
        <ele>770.6</ele>
        <time>2019-07-16T14:15:21Z</time>
      </trkpt>
      <trkpt lat="44.0845" lon="6.8549">
        <ele>770.6</ele>
        <time>2019-07-16T14:15:22Z</time>
      </trkpt>
      <trkpt lat="44.08453" lon="6.85488">
        <ele>770.7</ele>
        <time>2019-07-16T14:15:23Z</time>
      </trkpt>
      <trkpt lat="44.08457" lon="6.85487">
        <ele>770.7</ele>
        <time>2019-07-16T14:15:24Z</time>
      </trkpt>
      <trkpt lat="44.0846" lon="6.85485">
        <ele>770.6</ele>
        <time>2019-07-16T14:15:25Z</time>
      </trkpt>
      <trkpt lat="44.08463" lon="6.85483">
        <ele>770.6</ele>
        <time>2019-07-16T14:15:26Z</time>
      </trkpt>
      <trkpt lat="44.08468" lon="6.85482">
        <ele>770.4</ele>
        <time>2019-07-16T14:15:27Z</time>
      </trkpt>
      <trkpt lat="44.08471" lon="6.8548">
        <ele>770.3</ele>
        <time>2019-07-16T14:15:28Z</time>
      </trkpt>
      <trkpt lat="44.08473" lon="6.85479">
        <ele>770.2</ele>
        <time>2019-07-16T14:15:29Z</time>
      </trkpt>
      <trkpt lat="44.08476" lon="6.85478">
        <ele>770</ele>
        <time>2019-07-16T14:15:30Z</time>
      </trkpt>
      <trkpt lat="44.0848" lon="6.85477">
        <ele>769.8</ele>
        <time>2019-07-16T14:15:31Z</time>
      </trkpt>
      <trkpt lat="44.08483" lon="6.85476">
        <ele>769.7</ele>
        <time>2019-07-16T14:15:32Z</time>
      </trkpt>
      <trkpt lat="44.08487" lon="6.85474">
        <ele>769.7</ele>
        <time>2019-07-16T14:15:33Z</time>
      </trkpt>
      <trkpt lat="44.0849" lon="6.85472">
        <ele>769.8</ele>
        <time>2019-07-16T14:15:34Z</time>
      </trkpt>
      <trkpt lat="44.08493" lon="6.85471">
        <ele>770</ele>
        <time>2019-07-16T14:15:35Z</time>
      </trkpt>
      <trkpt lat="44.08497" lon="6.8547">
        <ele>770.2</ele>
        <time>2019-07-16T14:15:36Z</time>
      </trkpt>
      <trkpt lat="44.085" lon="6.85469">
        <ele>770.4</ele>
        <time>2019-07-16T14:15:37Z</time>
      </trkpt>
      <trkpt lat="44.08503" lon="6.85468">
        <ele>770.8</ele>
        <time>2019-07-16T14:15:38Z</time>
      </trkpt>
      <trkpt lat="44.08507" lon="6.85467">
        <ele>771.2</ele>
        <time>2019-07-16T14:15:39Z</time>
      </trkpt>
      <trkpt lat="44.0851" lon="6.85466">
        <ele>771.6</ele>
        <time>2019-07-16T14:15:40Z</time>
      </trkpt>
      <trkpt lat="44.08513" lon="6.85466">
        <ele>771.9</ele>
        <time>2019-07-16T14:15:41Z</time>
      </trkpt>
      <trkpt lat="44.08516" lon="6.85465">
        <ele>772.2</ele>
        <time>2019-07-16T14:15:42Z</time>
      </trkpt>
      <trkpt lat="44.0852" lon="6.85464">
        <ele>772.6</ele>
        <time>2019-07-16T14:15:43Z</time>
      </trkpt>
      <trkpt lat="44.08523" lon="6.85462">
        <ele>773.1</ele>
        <time>2019-07-16T14:15:44Z</time>
      </trkpt>
      <trkpt lat="44.08526" lon="6.85461">
        <ele>773.5</ele>
        <time>2019-07-16T14:15:45Z</time>
      </trkpt>
      <trkpt lat="44.08529" lon="6.85459">
        <ele>773.8</ele>
        <time>2019-07-16T14:15:46Z</time>
      </trkpt>
      <trkpt lat="44.08532" lon="6.85458">
        <ele>774.1</ele>
        <time>2019-07-16T14:15:47Z</time>
      </trkpt>
      <trkpt lat="44.08535" lon="6.85456">
        <ele>774.4</ele>
        <time>2019-07-16T14:15:48Z</time>
      </trkpt>
      <trkpt lat="44.08538" lon="6.85455">
        <ele>774.8</ele>
        <time>2019-07-16T14:15:49Z</time>
      </trkpt>
      <trkpt lat="44.08541" lon="6.85454">
        <ele>775.1</ele>
        <time>2019-07-16T14:15:50Z</time>
      </trkpt>
      <trkpt lat="44.08544" lon="6.85453">
        <ele>775.4</ele>
        <time>2019-07-16T14:15:51Z</time>
      </trkpt>
      <trkpt lat="44.08547" lon="6.85452">
        <ele>775.7</ele>
        <time>2019-07-16T14:15:52Z</time>
      </trkpt>
      <trkpt lat="44.08551" lon="6.85449">
        <ele>776.2</ele>
        <time>2019-07-16T14:15:54Z</time>
      </trkpt>
      <trkpt lat="44.08554" lon="6.85447">
        <ele>776.3</ele>
        <time>2019-07-16T14:15:57Z</time>
      </trkpt>
      <trkpt lat="44.08558" lon="6.85447">
        <ele>776.5</ele>
        <time>2019-07-16T14:15:59Z</time>
      </trkpt>
      <trkpt lat="44.08561" lon="6.85446">
        <ele>776.7</ele>
        <time>2019-07-16T14:16:01Z</time>
      </trkpt>
      <trkpt lat="44.08565" lon="6.85445">
        <ele>776.9</ele>
        <time>2019-07-16T14:16:03Z</time>
      </trkpt>
      <trkpt lat="44.08568" lon="6.85443">
        <ele>777.1</ele>
        <time>2019-07-16T14:16:07Z</time>
      </trkpt>
      <trkpt lat="44.0857" lon="6.85439">
        <ele>777.3</ele>
        <time>2019-07-16T14:16:52Z</time>
      </trkpt>
      <trkpt lat="44.08573" lon="6.85438">
        <ele>777.5</ele>
        <time>2019-07-16T14:16:54Z</time>
      </trkpt>
      <trkpt lat="44.08577" lon="6.85434">
        <ele>777.7</ele>
        <time>2019-07-16T14:16:56Z</time>
      </trkpt>
      <trkpt lat="44.08579" lon="6.85433">
        <ele>778.3</ele>
        <time>2019-07-16T14:16:57Z</time>
      </trkpt>
      <trkpt lat="44.08582" lon="6.85432">
        <ele>778.5</ele>
        <time>2019-07-16T14:16:58Z</time>
      </trkpt>
      <trkpt lat="44.08586" lon="6.85431">
        <ele>778.7</ele>
        <time>2019-07-16T14:16:59Z</time>
      </trkpt>
      <trkpt lat="44.0859" lon="6.8543">
        <ele>778.9</ele>
        <time>2019-07-16T14:17:00Z</time>
      </trkpt>
      <trkpt lat="44.08593" lon="6.85428">
        <ele>779.2</ele>
        <time>2019-07-16T14:17:01Z</time>
      </trkpt>
      <trkpt lat="44.08598" lon="6.85427">
        <ele>779.4</ele>
        <time>2019-07-16T14:17:02Z</time>
      </trkpt>
      <trkpt lat="44.08602" lon="6.85427">
        <ele>779.6</ele>
        <time>2019-07-16T14:17:03Z</time>
      </trkpt>
      <trkpt lat="44.08607" lon="6.85428">
        <ele>780</ele>
        <time>2019-07-16T14:17:04Z</time>
      </trkpt>
      <trkpt lat="44.0861" lon="6.85428">
        <ele>780.2</ele>
        <time>2019-07-16T14:17:05Z</time>
      </trkpt>
      <trkpt lat="44.08613" lon="6.85429">
        <ele>780.4</ele>
        <time>2019-07-16T14:17:06Z</time>
      </trkpt>
      <trkpt lat="44.08617" lon="6.85429">
        <ele>780.6</ele>
        <time>2019-07-16T14:17:08Z</time>
      </trkpt>
      <trkpt lat="44.08621" lon="6.85429">
        <ele>780.8</ele>
        <time>2019-07-16T14:17:09Z</time>
      </trkpt>
      <trkpt lat="44.08624" lon="6.8543">
        <ele>781.1</ele>
        <time>2019-07-16T14:17:10Z</time>
      </trkpt>
      <trkpt lat="44.08629" lon="6.8543">
        <ele>781.4</ele>
        <time>2019-07-16T14:17:12Z</time>
      </trkpt>
      <trkpt lat="44.08632" lon="6.8543">
        <ele>781.6</ele>
        <time>2019-07-16T14:17:13Z</time>
      </trkpt>
      <trkpt lat="44.08635" lon="6.85429">
        <ele>781.8</ele>
        <time>2019-07-16T14:17:14Z</time>
      </trkpt>
      <trkpt lat="44.08638" lon="6.85429">
        <ele>782</ele>
        <time>2019-07-16T14:17:15Z</time>
      </trkpt>
      <trkpt lat="44.08642" lon="6.85427">
        <ele>782.3</ele>
        <time>2019-07-16T14:17:17Z</time>
      </trkpt>
      <trkpt lat="44.08647" lon="6.85426">
        <ele>782.6</ele>
        <time>2019-07-16T14:17:19Z</time>
      </trkpt>
      <trkpt lat="44.08651" lon="6.85424">
        <ele>782.8</ele>
        <time>2019-07-16T14:17:21Z</time>
      </trkpt>
      <trkpt lat="44.08655" lon="6.85424">
        <ele>783.2</ele>
        <time>2019-07-16T14:17:23Z</time>
      </trkpt>
      <trkpt lat="44.08658" lon="6.85424">
        <ele>783.4</ele>
        <time>2019-07-16T14:17:24Z</time>
      </trkpt>
      <trkpt lat="44.08663" lon="6.85423">
        <ele>783.7</ele>
        <time>2019-07-16T14:17:26Z</time>
      </trkpt>
      <trkpt lat="44.08668" lon="6.85422">
        <ele>784</ele>
        <time>2019-07-16T14:17:28Z</time>
      </trkpt>
      <trkpt lat="44.08672" lon="6.8542">
        <ele>784.3</ele>
        <time>2019-07-16T14:17:30Z</time>
      </trkpt>
      <trkpt lat="44.08675" lon="6.85419">
        <ele>784.5</ele>
        <time>2019-07-16T14:17:31Z</time>
      </trkpt>
      <trkpt lat="44.08679" lon="6.85417">
        <ele>784.8</ele>
        <time>2019-07-16T14:17:33Z</time>
      </trkpt>
      <trkpt lat="44.08684" lon="6.85414">
        <ele>785.1</ele>
        <time>2019-07-16T14:17:35Z</time>
      </trkpt>
      <trkpt lat="44.08687" lon="6.85413">
        <ele>785.3</ele>
        <time>2019-07-16T14:17:36Z</time>
      </trkpt>
      <trkpt lat="44.0869" lon="6.85411">
        <ele>785.5</ele>
        <time>2019-07-16T14:17:37Z</time>
      </trkpt>
      <trkpt lat="44.08692" lon="6.85409">
        <ele>785.7</ele>
        <time>2019-07-16T14:17:38Z</time>
      </trkpt>
      <trkpt lat="44.08694" lon="6.85406">
        <ele>785.9</ele>
        <time>2019-07-16T14:17:39Z</time>
      </trkpt>
      <trkpt lat="44.08696" lon="6.85403">
        <ele>786</ele>
        <time>2019-07-16T14:17:40Z</time>
      </trkpt>
      <trkpt lat="44.08699" lon="6.85399">
        <ele>786.3</ele>
        <time>2019-07-16T14:17:42Z</time>
      </trkpt>
      <trkpt lat="44.08703" lon="6.85393">
        <ele>786.6</ele>
        <time>2019-07-16T14:17:44Z</time>
      </trkpt>
      <trkpt lat="44.08707" lon="6.85389">
        <ele>786.9</ele>
        <time>2019-07-16T14:17:46Z</time>
      </trkpt>
      <trkpt lat="44.08711" lon="6.85384">
        <ele>787.1</ele>
        <time>2019-07-16T14:17:48Z</time>
      </trkpt>
      <trkpt lat="44.08714" lon="6.85381">
        <ele>787.3</ele>
        <time>2019-07-16T14:17:50Z</time>
      </trkpt>
      <trkpt lat="44.08718" lon="6.85378">
        <ele>787.6</ele>
        <time>2019-07-16T14:17:52Z</time>
      </trkpt>
      <trkpt lat="44.08721" lon="6.85375">
        <ele>787.7</ele>
        <time>2019-07-16T14:17:54Z</time>
      </trkpt>
      <trkpt lat="44.08726" lon="6.85373">
        <ele>788</ele>
        <time>2019-07-16T14:17:56Z</time>
      </trkpt>
      <trkpt lat="44.08729" lon="6.85372">
        <ele>788.1</ele>
        <time>2019-07-16T14:17:57Z</time>
      </trkpt>
      <trkpt lat="44.08731" lon="6.8537">
        <ele>788.3</ele>
        <time>2019-07-16T14:17:58Z</time>
      </trkpt>
      <trkpt lat="44.08736" lon="6.85366">
        <ele>788.5</ele>
        <time>2019-07-16T14:18:00Z</time>
      </trkpt>
      <trkpt lat="44.0874" lon="6.85361">
        <ele>788.7</ele>
        <time>2019-07-16T14:18:02Z</time>
      </trkpt>
      <trkpt lat="44.08742" lon="6.85359">
        <ele>788.9</ele>
        <time>2019-07-16T14:18:03Z</time>
      </trkpt>
      <trkpt lat="44.08745" lon="6.85357">
        <ele>789</ele>
        <time>2019-07-16T14:18:04Z</time>
      </trkpt>
      <trkpt lat="44.08749" lon="6.85353">
        <ele>789.2</ele>
        <time>2019-07-16T14:18:06Z</time>
      </trkpt>
      <trkpt lat="44.08752" lon="6.85352">
        <ele>789.3</ele>
        <time>2019-07-16T14:18:07Z</time>
      </trkpt>
      <trkpt lat="44.08756" lon="6.85348">
        <ele>789.5</ele>
        <time>2019-07-16T14:18:09Z</time>
      </trkpt>
      <trkpt lat="44.0876" lon="6.85346">
        <ele>789.6</ele>
        <time>2019-07-16T14:18:11Z</time>
      </trkpt>
      <trkpt lat="44.08764" lon="6.85344">
        <ele>789.8</ele>
        <time>2019-07-16T14:18:13Z</time>
      </trkpt>
      <trkpt lat="44.08768" lon="6.85343">
        <ele>789.9</ele>
        <time>2019-07-16T14:18:15Z</time>
      </trkpt>
      <trkpt lat="44.08773" lon="6.85346">
        <ele>790.1</ele>
        <time>2019-07-16T14:18:17Z</time>
      </trkpt>
      <trkpt lat="44.08776" lon="6.85349">
        <ele>790.2</ele>
        <time>2019-07-16T14:18:18Z</time>
      </trkpt>
      <trkpt lat="44.08778" lon="6.85352">
        <ele>790.3</ele>
        <time>2019-07-16T14:18:19Z</time>
      </trkpt>
      <trkpt lat="44.0878" lon="6.85354">
        <ele>790.3</ele>
        <time>2019-07-16T14:18:20Z</time>
      </trkpt>
      <trkpt lat="44.08783" lon="6.85357">
        <ele>790.4</ele>
        <time>2019-07-16T14:18:21Z</time>
      </trkpt>
      <trkpt lat="44.08786" lon="6.85359">
        <ele>790.5</ele>
        <time>2019-07-16T14:18:22Z</time>
      </trkpt>
      <trkpt lat="44.08788" lon="6.85361">
        <ele>790.5</ele>
        <time>2019-07-16T14:18:23Z</time>
      </trkpt>
      <trkpt lat="44.08792" lon="6.85364">
        <ele>790.6</ele>
        <time>2019-07-16T14:18:25Z</time>
      </trkpt>
      <trkpt lat="44.08794" lon="6.85367">
        <ele>790.7</ele>
        <time>2019-07-16T14:18:26Z</time>
      </trkpt>
      <trkpt lat="44.08796" lon="6.85371">
        <ele>790.7</ele>
        <time>2019-07-16T14:18:27Z</time>
      </trkpt>
      <trkpt lat="44.08798" lon="6.85375">
        <ele>790.8</ele>
        <time>2019-07-16T14:18:28Z</time>
      </trkpt>
      <trkpt lat="44.088" lon="6.85379">
        <ele>791.3</ele>
        <time>2019-07-16T14:18:29Z</time>
      </trkpt>
      <trkpt lat="44.08802" lon="6.85382">
        <ele>791.6</ele>
        <time>2019-07-16T14:18:30Z</time>
      </trkpt>
      <trkpt lat="44.08805" lon="6.85384">
        <ele>792</ele>
        <time>2019-07-16T14:18:31Z</time>
      </trkpt>
      <trkpt lat="44.08808" lon="6.85387">
        <ele>792.9</ele>
        <time>2019-07-16T14:18:32Z</time>
      </trkpt>
      <trkpt lat="44.08811" lon="6.85389">
        <ele>792.8</ele>
        <time>2019-07-16T14:18:33Z</time>
      </trkpt>
      <trkpt lat="44.08814" lon="6.85391">
        <ele>792.7</ele>
        <time>2019-07-16T14:18:34Z</time>
      </trkpt>
      <trkpt lat="44.08818" lon="6.85392">
        <ele>792.6</ele>
        <time>2019-07-16T14:18:35Z</time>
      </trkpt>
      <trkpt lat="44.08822" lon="6.85392">
        <ele>792.5</ele>
        <time>2019-07-16T14:18:36Z</time>
      </trkpt>
      <trkpt lat="44.08826" lon="6.85392">
        <ele>792.4</ele>
        <time>2019-07-16T14:18:37Z</time>
      </trkpt>
      <trkpt lat="44.08829" lon="6.85391">
        <ele>792.3</ele>
        <time>2019-07-16T14:18:38Z</time>
      </trkpt>
      <trkpt lat="44.08833" lon="6.8539">
        <ele>792.3</ele>
        <time>2019-07-16T14:18:39Z</time>
      </trkpt>
      <trkpt lat="44.08836" lon="6.85389">
        <ele>792.2</ele>
        <time>2019-07-16T14:18:40Z</time>
      </trkpt>
      <trkpt lat="44.08839" lon="6.85388">
        <ele>792.1</ele>
        <time>2019-07-16T14:18:41Z</time>
      </trkpt>
      <trkpt lat="44.08842" lon="6.85388">
        <ele>792</ele>
        <time>2019-07-16T14:18:42Z</time>
      </trkpt>
      <trkpt lat="44.08846" lon="6.85387">
        <ele>792</ele>
        <time>2019-07-16T14:18:43Z</time>
      </trkpt>
      <trkpt lat="44.08849" lon="6.85386">
        <ele>791.8</ele>
        <time>2019-07-16T14:18:44Z</time>
      </trkpt>
      <trkpt lat="44.08853" lon="6.85386">
        <ele>792</ele>
        <time>2019-07-16T14:18:45Z</time>
      </trkpt>
      <trkpt lat="44.08857" lon="6.85385">
        <ele>792.2</ele>
        <time>2019-07-16T14:18:46Z</time>
      </trkpt>
      <trkpt lat="44.0886" lon="6.85384">
        <ele>792.5</ele>
        <time>2019-07-16T14:18:47Z</time>
      </trkpt>
      <trkpt lat="44.08864" lon="6.85384">
        <ele>792.7</ele>
        <time>2019-07-16T14:18:48Z</time>
      </trkpt>
      <trkpt lat="44.08868" lon="6.85383">
        <ele>792.9</ele>
        <time>2019-07-16T14:18:49Z</time>
      </trkpt>
      <trkpt lat="44.08872" lon="6.85383">
        <ele>793.2</ele>
        <time>2019-07-16T14:18:50Z</time>
      </trkpt>
      <trkpt lat="44.08876" lon="6.85383">
        <ele>793.4</ele>
        <time>2019-07-16T14:18:51Z</time>
      </trkpt>
      <trkpt lat="44.08881" lon="6.85382">
        <ele>793.6</ele>
        <time>2019-07-16T14:18:52Z</time>
      </trkpt>
      <trkpt lat="44.08885" lon="6.85381">
        <ele>793.8</ele>
        <time>2019-07-16T14:18:53Z</time>
      </trkpt>
      <trkpt lat="44.08889" lon="6.85381">
        <ele>794</ele>
        <time>2019-07-16T14:18:54Z</time>
      </trkpt>
      <trkpt lat="44.08893" lon="6.85381">
        <ele>794.1</ele>
        <time>2019-07-16T14:18:55Z</time>
      </trkpt>
      <trkpt lat="44.08897" lon="6.8538">
        <ele>794.5</ele>
        <time>2019-07-16T14:18:56Z</time>
      </trkpt>
      <trkpt lat="44.08901" lon="6.85379">
        <ele>794.4</ele>
        <time>2019-07-16T14:18:57Z</time>
      </trkpt>
      <trkpt lat="44.08905" lon="6.85376">
        <ele>794.4</ele>
        <time>2019-07-16T14:18:58Z</time>
      </trkpt>
      <trkpt lat="44.08909" lon="6.85375">
        <ele>794.4</ele>
        <time>2019-07-16T14:18:59Z</time>
      </trkpt>
      <trkpt lat="44.08914" lon="6.85373">
        <ele>794.6</ele>
        <time>2019-07-16T14:19:00Z</time>
      </trkpt>
      <trkpt lat="44.08918" lon="6.85371">
        <ele>795</ele>
        <time>2019-07-16T14:19:01Z</time>
      </trkpt>
      <trkpt lat="44.08923" lon="6.85369">
        <ele>795</ele>
        <time>2019-07-16T14:19:02Z</time>
      </trkpt>
      <trkpt lat="44.08928" lon="6.85367">
        <ele>795.1</ele>
        <time>2019-07-16T14:19:03Z</time>
      </trkpt>
      <trkpt lat="44.08933" lon="6.85366">
        <ele>795.1</ele>
        <time>2019-07-16T14:19:04Z</time>
      </trkpt>
      <trkpt lat="44.08938" lon="6.85364">
        <ele>795.2</ele>
        <time>2019-07-16T14:19:05Z</time>
      </trkpt>
      <trkpt lat="44.08945" lon="6.85363">
        <ele>795.3</ele>
        <time>2019-07-16T14:19:06Z</time>
      </trkpt>
      <trkpt lat="44.08951" lon="6.85361">
        <ele>795.6</ele>
        <time>2019-07-16T14:19:07Z</time>
      </trkpt>
      <trkpt lat="44.08957" lon="6.85359">
        <ele>795.3</ele>
        <time>2019-07-16T14:19:08Z</time>
      </trkpt>
      <trkpt lat="44.08962" lon="6.85358">
        <ele>795.9</ele>
        <time>2019-07-16T14:19:09Z</time>
      </trkpt>
      <trkpt lat="44.08967" lon="6.85358">
        <ele>795.6</ele>
        <time>2019-07-16T14:19:10Z</time>
      </trkpt>
      <trkpt lat="44.08971" lon="6.85358">
        <ele>795.4</ele>
        <time>2019-07-16T14:19:11Z</time>
      </trkpt>
      <trkpt lat="44.08975" lon="6.85356">
        <ele>795.1</ele>
        <time>2019-07-16T14:19:12Z</time>
      </trkpt>
      <trkpt lat="44.08978" lon="6.85354">
        <ele>794.9</ele>
        <time>2019-07-16T14:19:13Z</time>
      </trkpt>
      <trkpt lat="44.08981" lon="6.85353">
        <ele>794.8</ele>
        <time>2019-07-16T14:19:14Z</time>
      </trkpt>
      <trkpt lat="44.08985" lon="6.85352">
        <ele>794.5</ele>
        <time>2019-07-16T14:19:15Z</time>
      </trkpt>
      <trkpt lat="44.08991" lon="6.85351">
        <ele>793.9</ele>
        <time>2019-07-16T14:19:17Z</time>
      </trkpt>
      <trkpt lat="44.08994" lon="6.85351">
        <ele>793.6</ele>
        <time>2019-07-16T14:19:18Z</time>
      </trkpt>
      <trkpt lat="44.08998" lon="6.85351">
        <ele>793.4</ele>
        <time>2019-07-16T14:19:19Z</time>
      </trkpt>
      <trkpt lat="44.09002" lon="6.8535">
        <ele>793.2</ele>
        <time>2019-07-16T14:19:20Z</time>
      </trkpt>
      <trkpt lat="44.09006" lon="6.8535">
        <ele>793</ele>
        <time>2019-07-16T14:19:21Z</time>
      </trkpt>
      <trkpt lat="44.09009" lon="6.8535">
        <ele>792.9</ele>
        <time>2019-07-16T14:19:22Z</time>
      </trkpt>
      <trkpt lat="44.09013" lon="6.85348">
        <ele>792.7</ele>
        <time>2019-07-16T14:19:23Z</time>
      </trkpt>
      <trkpt lat="44.09016" lon="6.85348">
        <ele>792.6</ele>
        <time>2019-07-16T14:19:24Z</time>
      </trkpt>
      <trkpt lat="44.09018" lon="6.85346">
        <ele>792.4</ele>
        <time>2019-07-16T14:19:25Z</time>
      </trkpt>
      <trkpt lat="44.09022" lon="6.85344">
        <ele>792.2</ele>
        <time>2019-07-16T14:19:27Z</time>
      </trkpt>
      <trkpt lat="44.09024" lon="6.85341">
        <ele>792</ele>
        <time>2019-07-16T14:19:30Z</time>
      </trkpt>
      <trkpt lat="44.09024" lon="6.85336">
        <ele>791.8</ele>
        <time>2019-07-16T14:19:42Z</time>
      </trkpt>
      <trkpt lat="44.09021" lon="6.85333">
        <ele>791.6</ele>
        <time>2019-07-16T14:19:44Z</time>
      </trkpt>
      <trkpt lat="44.09018" lon="6.85333">
        <ele>791.5</ele>
        <time>2019-07-16T14:19:45Z</time>
      </trkpt>
      <trkpt lat="44.09015" lon="6.85334">
        <ele>791.8</ele>
        <time>2019-07-16T14:19:46Z</time>
      </trkpt>
      <trkpt lat="44.09012" lon="6.85334">
        <ele>792</ele>
        <time>2019-07-16T14:19:47Z</time>
      </trkpt>
      <trkpt lat="44.09009" lon="6.85335">
        <ele>792.3</ele>
        <time>2019-07-16T14:19:48Z</time>
      </trkpt>
      <trkpt lat="44.09005" lon="6.85335">
        <ele>792.5</ele>
        <time>2019-07-16T14:19:49Z</time>
      </trkpt>
      <trkpt lat="44.09001" lon="6.85336">
        <ele>792.9</ele>
        <time>2019-07-16T14:19:51Z</time>
      </trkpt>
      <trkpt lat="44.08998" lon="6.85336">
        <ele>793.1</ele>
        <time>2019-07-16T14:19:52Z</time>
      </trkpt>
      <trkpt lat="44.08994" lon="6.85336">
        <ele>793.4</ele>
        <time>2019-07-16T14:19:54Z</time>
      </trkpt>
      <trkpt lat="44.08989" lon="6.85337">
        <ele>793.8</ele>
        <time>2019-07-16T14:19:56Z</time>
      </trkpt>
      <trkpt lat="44.08986" lon="6.85338">
        <ele>794.2</ele>
        <time>2019-07-16T14:19:57Z</time>
      </trkpt>
      <trkpt lat="44.08983" lon="6.85338">
        <ele>794.3</ele>
        <time>2019-07-16T14:19:58Z</time>
      </trkpt>
      <trkpt lat="44.0898" lon="6.85337">
        <ele>794.3</ele>
        <time>2019-07-16T14:19:59Z</time>
      </trkpt>
      <trkpt lat="44.08976" lon="6.85335">
        <ele>794.4</ele>
        <time>2019-07-16T14:20:01Z</time>
      </trkpt>
      <trkpt lat="44.08972" lon="6.85336">
        <ele>794.5</ele>
        <time>2019-07-16T14:20:09Z</time>
      </trkpt>
    </trkseg>
  </trk>
</gpx>